<?xml version="1.0" encoding="UTF-8" standalone="no" ?>
<gpx xmlns="http://www.topografix.com/GPX/1/1" xmlns:xsi="http://www.w3.org/2001/XMLSchema-instance" xsi:schemaLocation="http://www.topografix.com/GPX/1/1 http://www.topografix.com/GPX/1/1/gpx.xsd" version="1.1" creator="VisuGPX - https://www.visugpx.com">
  <metadata>
    <name>ski Dent du Pra Cime de la Jasse</name>
  </metadata>
  <trk>
    <name><![CDATA[ski Dent du Pra Cime de la Jasse]]></name>
    <extensions>
      <line xmlns="http://www.topografix.com/GPX/gpx_style/0/2">
        <color>0000FF</color>
        <width>4</width>
      </line>
    </extensions>
    <trkseg>
      <trkpt lat="45.24332" lon="5.98031">
        <ele>1007.200012207</ele>
        <time>2021-01-02T07:15:55.000Z</time>
      </trkpt>
      <trkpt lat="45.24332" lon="5.98031">
        <ele>1007.200012207</ele>
        <time>2021-01-02T07:15:55.000Z</time>
      </trkpt>
      <trkpt lat="45.24331" lon="5.98026">
        <ele>1006</ele>
        <time>2021-01-02T07:16:03.000Z</time>
      </trkpt>
      <trkpt lat="45.24331" lon="5.98026">
        <ele>1004.799987793</ele>
        <time>2021-01-02T07:16:06.000Z</time>
      </trkpt>
      <trkpt lat="45.24331" lon="5.98026">
        <ele>1004</ele>
        <time>2021-01-02T07:16:07.000Z</time>
      </trkpt>
      <trkpt lat="45.24331" lon="5.98026">
        <ele>1006</ele>
        <time>2021-01-02T07:16:13.000Z</time>
      </trkpt>
      <trkpt lat="45.24331" lon="5.98026">
        <ele>1006.4000244141</ele>
        <time>2021-01-02T07:16:19.000Z</time>
      </trkpt>
      <trkpt lat="45.24331" lon="5.98026">
        <ele>1006.200012207</ele>
        <time>2021-01-02T07:16:32.000Z</time>
      </trkpt>
      <trkpt lat="45.24331" lon="5.98026">
        <ele>1004.799987793</ele>
        <time>2021-01-02T07:16:39.000Z</time>
      </trkpt>
      <trkpt lat="45.24331" lon="5.98026">
        <ele>1004.5999755859</ele>
        <time>2021-01-02T07:16:41.000Z</time>
      </trkpt>
      <trkpt lat="45.24331" lon="5.98026">
        <ele>1006.200012207</ele>
        <time>2021-01-02T07:16:44.000Z</time>
      </trkpt>
      <trkpt lat="45.2433" lon="5.98025">
        <ele>1006.5999755859</ele>
        <time>2021-01-02T07:16:48.000Z</time>
      </trkpt>
      <trkpt lat="45.2433" lon="5.98025">
        <ele>1006</ele>
        <time>2021-01-02T07:16:55.000Z</time>
      </trkpt>
      <trkpt lat="45.2433" lon="5.98025">
        <ele>1006</ele>
        <time>2021-01-02T07:17:01.000Z</time>
      </trkpt>
      <trkpt lat="45.2433" lon="5.98025">
        <ele>1006.200012207</ele>
        <time>2021-01-02T07:17:07.000Z</time>
      </trkpt>
      <trkpt lat="45.2433" lon="5.98025">
        <ele>1006.4000244141</ele>
        <time>2021-01-02T07:17:19.000Z</time>
      </trkpt>
      <trkpt lat="45.24329" lon="5.98024">
        <ele>1006</ele>
        <time>2021-01-02T07:17:31.000Z</time>
      </trkpt>
      <trkpt lat="45.24324" lon="5.98023">
        <ele>1006.200012207</ele>
        <time>2021-01-02T07:17:37.000Z</time>
      </trkpt>
      <trkpt lat="45.24314" lon="5.98023">
        <ele>1007.200012207</ele>
        <time>2021-01-02T07:17:45.000Z</time>
      </trkpt>
      <trkpt lat="45.24311" lon="5.98024">
        <ele>1008</ele>
        <time>2021-01-02T07:17:51.000Z</time>
      </trkpt>
      <trkpt lat="45.24311" lon="5.98024">
        <ele>1007.799987793</ele>
        <time>2021-01-02T07:18:05.000Z</time>
      </trkpt>
      <trkpt lat="45.24302" lon="5.98022">
        <ele>1008.200012207</ele>
        <time>2021-01-02T07:18:14.000Z</time>
      </trkpt>
      <trkpt lat="45.24301" lon="5.98022">
        <ele>1008.200012207</ele>
        <time>2021-01-02T07:18:15.000Z</time>
      </trkpt>
      <trkpt lat="45.24298" lon="5.98022">
        <ele>1008.5999755859</ele>
        <time>2021-01-02T07:18:20.000Z</time>
      </trkpt>
      <trkpt lat="45.24293" lon="5.98022">
        <ele>1009</ele>
        <time>2021-01-02T07:18:26.000Z</time>
      </trkpt>
      <trkpt lat="45.24288" lon="5.98023">
        <ele>1009.200012207</ele>
        <time>2021-01-02T07:18:31.000Z</time>
      </trkpt>
      <trkpt lat="45.24285" lon="5.98023">
        <ele>1009.4000244141</ele>
        <time>2021-01-02T07:18:34.000Z</time>
      </trkpt>
      <trkpt lat="45.24278" lon="5.98024">
        <ele>1010.4000244141</ele>
        <time>2021-01-02T07:18:41.000Z</time>
      </trkpt>
      <trkpt lat="45.24273" lon="5.98027">
        <ele>1010.5999755859</ele>
        <time>2021-01-02T07:18:47.000Z</time>
      </trkpt>
      <trkpt lat="45.24266" lon="5.98031">
        <ele>1011.4000244141</ele>
        <time>2021-01-02T07:18:54.000Z</time>
      </trkpt>
      <trkpt lat="45.24257" lon="5.98036">
        <ele>1012.200012207</ele>
        <time>2021-01-02T07:19:02.000Z</time>
      </trkpt>
      <trkpt lat="45.24255" lon="5.98037">
        <ele>1012.4000244141</ele>
        <time>2021-01-02T07:19:04.000Z</time>
      </trkpt>
      <trkpt lat="45.24249" lon="5.98039">
        <ele>1013</ele>
        <time>2021-01-02T07:19:10.000Z</time>
      </trkpt>
      <trkpt lat="45.24245" lon="5.9804">
        <ele>1013.5999755859</ele>
        <time>2021-01-02T07:19:14.000Z</time>
      </trkpt>
      <trkpt lat="45.24241" lon="5.98041">
        <ele>1013.799987793</ele>
        <time>2021-01-02T07:19:18.000Z</time>
      </trkpt>
      <trkpt lat="45.24241" lon="5.98041">
        <ele>1014.5999755859</ele>
        <time>2021-01-02T07:19:24.000Z</time>
      </trkpt>
      <trkpt lat="45.24241" lon="5.98041">
        <ele>1014.799987793</ele>
        <time>2021-01-02T07:19:26.000Z</time>
      </trkpt>
      <trkpt lat="45.24235" lon="5.98046">
        <ele>1015.5999755859</ele>
        <time>2021-01-02T07:19:34.000Z</time>
      </trkpt>
      <trkpt lat="45.24234" lon="5.98047">
        <ele>1015.799987793</ele>
        <time>2021-01-02T07:19:35.000Z</time>
      </trkpt>
      <trkpt lat="45.24222" lon="5.98056">
        <ele>1016.5999755859</ele>
        <time>2021-01-02T07:19:43.000Z</time>
      </trkpt>
      <trkpt lat="45.2422" lon="5.98058">
        <ele>1016.799987793</ele>
        <time>2021-01-02T07:19:44.000Z</time>
      </trkpt>
      <trkpt lat="45.24213" lon="5.98067">
        <ele>1017.5999755859</ele>
        <time>2021-01-02T07:19:51.000Z</time>
      </trkpt>
      <trkpt lat="45.24211" lon="5.98069">
        <ele>1017.799987793</ele>
        <time>2021-01-02T07:19:54.000Z</time>
      </trkpt>
      <trkpt lat="45.24208" lon="5.98073">
        <ele>1018.200012207</ele>
        <time>2021-01-02T07:19:58.000Z</time>
      </trkpt>
      <trkpt lat="45.24203" lon="5.98084">
        <ele>1018.799987793</ele>
        <time>2021-01-02T07:20:04.000Z</time>
      </trkpt>
      <trkpt lat="45.24202" lon="5.98086">
        <ele>1019</ele>
        <time>2021-01-02T07:20:05.000Z</time>
      </trkpt>
      <trkpt lat="45.24196" lon="5.98095">
        <ele>1019.5999755859</ele>
        <time>2021-01-02T07:20:11.000Z</time>
      </trkpt>
      <trkpt lat="45.24193" lon="5.981">
        <ele>1020</ele>
        <time>2021-01-02T07:20:16.000Z</time>
      </trkpt>
      <trkpt lat="45.24191" lon="5.98102">
        <ele>1020.200012207</ele>
        <time>2021-01-02T07:20:18.000Z</time>
      </trkpt>
      <trkpt lat="45.24187" lon="5.98111">
        <ele>1021</ele>
        <time>2021-01-02T07:20:25.000Z</time>
      </trkpt>
      <trkpt lat="45.24186" lon="5.98112">
        <ele>1021.200012207</ele>
        <time>2021-01-02T07:20:26.000Z</time>
      </trkpt>
      <trkpt lat="45.24181" lon="5.9812">
        <ele>1022.200012207</ele>
        <time>2021-01-02T07:20:32.000Z</time>
      </trkpt>
      <trkpt lat="45.2418" lon="5.9812">
        <ele>1022.4000244141</ele>
        <time>2021-01-02T07:20:33.000Z</time>
      </trkpt>
      <trkpt lat="45.24173" lon="5.98127">
        <ele>1023</ele>
        <time>2021-01-02T07:20:40.000Z</time>
      </trkpt>
      <trkpt lat="45.24173" lon="5.98127">
        <ele>1023.200012207</ele>
        <time>2021-01-02T07:20:41.000Z</time>
      </trkpt>
      <trkpt lat="45.24166" lon="5.98131">
        <ele>1024</ele>
        <time>2021-01-02T07:20:47.000Z</time>
      </trkpt>
      <trkpt lat="45.24163" lon="5.98133">
        <ele>1024.1999511719</ele>
        <time>2021-01-02T07:20:50.000Z</time>
      </trkpt>
      <trkpt lat="45.24159" lon="5.98136">
        <ele>1024.5999755859</ele>
        <time>2021-01-02T07:20:54.000Z</time>
      </trkpt>
      <trkpt lat="45.24155" lon="5.98138">
        <ele>1025.1999511719</ele>
        <time>2021-01-02T07:20:58.000Z</time>
      </trkpt>
      <trkpt lat="45.2415" lon="5.98139">
        <ele>1025.5999755859</ele>
        <time>2021-01-02T07:21:02.000Z</time>
      </trkpt>
      <trkpt lat="45.24145" lon="5.98143">
        <ele>1026.4000244141</ele>
        <time>2021-01-02T07:21:08.000Z</time>
      </trkpt>
      <trkpt lat="45.24144" lon="5.98143">
        <ele>1026.4000244141</ele>
        <time>2021-01-02T07:21:09.000Z</time>
      </trkpt>
      <trkpt lat="45.24136" lon="5.98151">
        <ele>1027.4000244141</ele>
        <time>2021-01-02T07:21:18.000Z</time>
      </trkpt>
      <trkpt lat="45.24135" lon="5.98152">
        <ele>1027.5999755859</ele>
        <time>2021-01-02T07:21:19.000Z</time>
      </trkpt>
      <trkpt lat="45.24129" lon="5.98161">
        <ele>1028.4000244141</ele>
        <time>2021-01-02T07:21:28.000Z</time>
      </trkpt>
      <trkpt lat="45.24122" lon="5.9817">
        <ele>1029.1999511719</ele>
        <time>2021-01-02T07:21:36.000Z</time>
      </trkpt>
      <trkpt lat="45.24121" lon="5.98173">
        <ele>1029.5999755859</ele>
        <time>2021-01-02T07:21:38.000Z</time>
      </trkpt>
      <trkpt lat="45.24118" lon="5.98179">
        <ele>1029.8000488281</ele>
        <time>2021-01-02T07:21:42.000Z</time>
      </trkpt>
      <trkpt lat="45.24117" lon="5.98184">
        <ele>1030.5999755859</ele>
        <time>2021-01-02T07:21:46.000Z</time>
      </trkpt>
      <trkpt lat="45.24115" lon="5.98189">
        <ele>1031</ele>
        <time>2021-01-02T07:21:50.000Z</time>
      </trkpt>
      <trkpt lat="45.24114" lon="5.98196">
        <ele>1031.5999755859</ele>
        <time>2021-01-02T07:21:55.000Z</time>
      </trkpt>
      <trkpt lat="45.24114" lon="5.98198">
        <ele>1031.8000488281</ele>
        <time>2021-01-02T07:21:56.000Z</time>
      </trkpt>
      <trkpt lat="45.24112" lon="5.98209">
        <ele>1032.5999755859</ele>
        <time>2021-01-02T07:22:04.000Z</time>
      </trkpt>
      <trkpt lat="45.24111" lon="5.9821">
        <ele>1032.8000488281</ele>
        <time>2021-01-02T07:22:05.000Z</time>
      </trkpt>
      <trkpt lat="45.2411" lon="5.98222">
        <ele>1033.8000488281</ele>
        <time>2021-01-02T07:22:12.000Z</time>
      </trkpt>
      <trkpt lat="45.24109" lon="5.9823">
        <ele>1034.1999511719</ele>
        <time>2021-01-02T07:22:18.000Z</time>
      </trkpt>
      <trkpt lat="45.24104" lon="5.98229">
        <ele>1034.8000488281</ele>
        <time>2021-01-02T07:22:24.000Z</time>
      </trkpt>
      <trkpt lat="45.24103" lon="5.9823">
        <ele>1035</ele>
        <time>2021-01-02T07:22:26.000Z</time>
      </trkpt>
      <trkpt lat="45.241" lon="5.98234">
        <ele>1035.8000488281</ele>
        <time>2021-01-02T07:22:32.000Z</time>
      </trkpt>
      <trkpt lat="45.24099" lon="5.98236">
        <ele>1036.1999511719</ele>
        <time>2021-01-02T07:22:35.000Z</time>
      </trkpt>
      <trkpt lat="45.24098" lon="5.98242">
        <ele>1036.8000488281</ele>
        <time>2021-01-02T07:22:40.000Z</time>
      </trkpt>
      <trkpt lat="45.24097" lon="5.98246">
        <ele>1037.1999511719</ele>
        <time>2021-01-02T07:22:43.000Z</time>
      </trkpt>
      <trkpt lat="45.24094" lon="5.98255">
        <ele>1037.8000488281</ele>
        <time>2021-01-02T07:22:48.000Z</time>
      </trkpt>
      <trkpt lat="45.24092" lon="5.98258">
        <ele>1038.1999511719</ele>
        <time>2021-01-02T07:22:50.000Z</time>
      </trkpt>
      <trkpt lat="45.24085" lon="5.9827">
        <ele>1039</ele>
        <time>2021-01-02T07:22:57.000Z</time>
      </trkpt>
      <trkpt lat="45.24078" lon="5.98287">
        <ele>1039.8000488281</ele>
        <time>2021-01-02T07:23:07.000Z</time>
      </trkpt>
      <trkpt lat="45.24078" lon="5.98288">
        <ele>1040</ele>
        <time>2021-01-02T07:23:08.000Z</time>
      </trkpt>
      <trkpt lat="45.24073" lon="5.98298">
        <ele>1040.8000488281</ele>
        <time>2021-01-02T07:23:14.000Z</time>
      </trkpt>
      <trkpt lat="45.24071" lon="5.98303">
        <ele>1041</ele>
        <time>2021-01-02T07:23:17.000Z</time>
      </trkpt>
      <trkpt lat="45.24066" lon="5.98319">
        <ele>1041.8000488281</ele>
        <time>2021-01-02T07:23:22.000Z</time>
      </trkpt>
      <trkpt lat="45.24064" lon="5.98324">
        <ele>1042.1999511719</ele>
        <time>2021-01-02T07:23:24.000Z</time>
      </trkpt>
      <trkpt lat="45.24061" lon="5.98328">
        <ele>1042.5999755859</ele>
        <time>2021-01-02T07:23:28.000Z</time>
      </trkpt>
      <trkpt lat="45.24055" lon="5.98332">
        <ele>1043.1999511719</ele>
        <time>2021-01-02T07:23:33.000Z</time>
      </trkpt>
      <trkpt lat="45.24051" lon="5.98331">
        <ele>1043.5999755859</ele>
        <time>2021-01-02T07:23:36.000Z</time>
      </trkpt>
      <trkpt lat="45.24045" lon="5.9833">
        <ele>1044.4000244141</ele>
        <time>2021-01-02T07:23:41.000Z</time>
      </trkpt>
      <trkpt lat="45.24042" lon="5.98331">
        <ele>1045</ele>
        <time>2021-01-02T07:23:45.000Z</time>
      </trkpt>
      <trkpt lat="45.24039" lon="5.98333">
        <ele>1045.4000244141</ele>
        <time>2021-01-02T07:23:49.000Z</time>
      </trkpt>
      <trkpt lat="45.24035" lon="5.98334">
        <ele>1046</ele>
        <time>2021-01-02T07:23:54.000Z</time>
      </trkpt>
      <trkpt lat="45.24032" lon="5.98334">
        <ele>1046.4000244141</ele>
        <time>2021-01-02T07:23:57.000Z</time>
      </trkpt>
      <trkpt lat="45.24023" lon="5.98332">
        <ele>1047.1999511719</ele>
        <time>2021-01-02T07:24:02.000Z</time>
      </trkpt>
      <trkpt lat="45.24015" lon="5.98329">
        <ele>1047.4000244141</ele>
        <time>2021-01-02T07:24:06.000Z</time>
      </trkpt>
      <trkpt lat="45.24004" lon="5.98326">
        <ele>1048.4000244141</ele>
        <time>2021-01-02T07:24:12.000Z</time>
      </trkpt>
      <trkpt lat="45.24001" lon="5.98325">
        <ele>1048.5999755859</ele>
        <time>2021-01-02T07:24:14.000Z</time>
      </trkpt>
      <trkpt lat="45.23993" lon="5.98325">
        <ele>1049.5999755859</ele>
        <time>2021-01-02T07:24:21.000Z</time>
      </trkpt>
      <trkpt lat="45.23992" lon="5.98327">
        <ele>1049.5999755859</ele>
        <time>2021-01-02T07:24:22.000Z</time>
      </trkpt>
      <trkpt lat="45.23988" lon="5.9833">
        <ele>1050.4000244141</ele>
        <time>2021-01-02T07:24:28.000Z</time>
      </trkpt>
      <trkpt lat="45.23984" lon="5.98328">
        <ele>1050.8000488281</ele>
        <time>2021-01-02T07:24:30.000Z</time>
      </trkpt>
      <trkpt lat="45.23976" lon="5.98326">
        <ele>1051.5999755859</ele>
        <time>2021-01-02T07:24:36.000Z</time>
      </trkpt>
      <trkpt lat="45.23973" lon="5.98327">
        <ele>1051.8000488281</ele>
        <time>2021-01-02T07:24:38.000Z</time>
      </trkpt>
      <trkpt lat="45.23968" lon="5.9833">
        <ele>1052.4000244141</ele>
        <time>2021-01-02T07:24:44.000Z</time>
      </trkpt>
      <trkpt lat="45.23962" lon="5.98333">
        <ele>1052.8000488281</ele>
        <time>2021-01-02T07:24:49.000Z</time>
      </trkpt>
      <trkpt lat="45.23961" lon="5.98334">
        <ele>1053</ele>
        <time>2021-01-02T07:24:51.000Z</time>
      </trkpt>
      <trkpt lat="45.23953" lon="5.9834">
        <ele>1053.8000488281</ele>
        <time>2021-01-02T07:24:59.000Z</time>
      </trkpt>
      <trkpt lat="45.23952" lon="5.98341">
        <ele>1054</ele>
        <time>2021-01-02T07:25:00.000Z</time>
      </trkpt>
      <trkpt lat="45.23945" lon="5.98349">
        <ele>1054.5999755859</ele>
        <time>2021-01-02T07:25:06.000Z</time>
      </trkpt>
      <trkpt lat="45.23942" lon="5.98353">
        <ele>1055</ele>
        <time>2021-01-02T07:25:09.000Z</time>
      </trkpt>
      <trkpt lat="45.23938" lon="5.98358">
        <ele>1055.4000244141</ele>
        <time>2021-01-02T07:25:13.000Z</time>
      </trkpt>
      <trkpt lat="45.23933" lon="5.98363">
        <ele>1056</ele>
        <time>2021-01-02T07:25:17.000Z</time>
      </trkpt>
      <trkpt lat="45.23928" lon="5.9837">
        <ele>1056.5999755859</ele>
        <time>2021-01-02T07:25:22.000Z</time>
      </trkpt>
      <trkpt lat="45.23924" lon="5.98375">
        <ele>1057</ele>
        <time>2021-01-02T07:25:26.000Z</time>
      </trkpt>
      <trkpt lat="45.23921" lon="5.98378">
        <ele>1057.1999511719</ele>
        <time>2021-01-02T07:25:29.000Z</time>
      </trkpt>
      <trkpt lat="45.23916" lon="5.98386">
        <ele>1058</ele>
        <time>2021-01-02T07:25:35.000Z</time>
      </trkpt>
      <trkpt lat="45.23916" lon="5.98387">
        <ele>1058.1999511719</ele>
        <time>2021-01-02T07:25:36.000Z</time>
      </trkpt>
      <trkpt lat="45.23912" lon="5.98399">
        <ele>1059</ele>
        <time>2021-01-02T07:25:43.000Z</time>
      </trkpt>
      <trkpt lat="45.23912" lon="5.98399">
        <ele>1059.1999511719</ele>
        <time>2021-01-02T07:25:44.000Z</time>
      </trkpt>
      <trkpt lat="45.23909" lon="5.98411">
        <ele>1060</ele>
        <time>2021-01-02T07:25:51.000Z</time>
      </trkpt>
      <trkpt lat="45.23908" lon="5.98412">
        <ele>1060.1999511719</ele>
        <time>2021-01-02T07:25:52.000Z</time>
      </trkpt>
      <trkpt lat="45.23903" lon="5.98423">
        <ele>1061</ele>
        <time>2021-01-02T07:26:00.000Z</time>
      </trkpt>
      <trkpt lat="45.23902" lon="5.98425">
        <ele>1061.1999511719</ele>
        <time>2021-01-02T07:26:02.000Z</time>
      </trkpt>
      <trkpt lat="45.23896" lon="5.98433">
        <ele>1062</ele>
        <time>2021-01-02T07:26:07.000Z</time>
      </trkpt>
      <trkpt lat="45.23895" lon="5.98435">
        <ele>1062.1999511719</ele>
        <time>2021-01-02T07:26:09.000Z</time>
      </trkpt>
      <trkpt lat="45.23891" lon="5.98441">
        <ele>1063</ele>
        <time>2021-01-02T07:26:15.000Z</time>
      </trkpt>
      <trkpt lat="45.23888" lon="5.98443">
        <ele>1063.4000244141</ele>
        <time>2021-01-02T07:26:17.000Z</time>
      </trkpt>
      <trkpt lat="45.23882" lon="5.98451">
        <ele>1064.4000244141</ele>
        <time>2021-01-02T07:26:25.000Z</time>
      </trkpt>
      <trkpt lat="45.23878" lon="5.98453">
        <ele>1065.5999755859</ele>
        <time>2021-01-02T07:26:31.000Z</time>
      </trkpt>
      <trkpt lat="45.23877" lon="5.98453">
        <ele>1065.5999755859</ele>
        <time>2021-01-02T07:26:32.000Z</time>
      </trkpt>
      <trkpt lat="45.23868" lon="5.98454">
        <ele>1066.5999755859</ele>
        <time>2021-01-02T07:26:40.000Z</time>
      </trkpt>
      <trkpt lat="45.23862" lon="5.98453">
        <ele>1067.4000244141</ele>
        <time>2021-01-02T07:26:47.000Z</time>
      </trkpt>
      <trkpt lat="45.23859" lon="5.98453">
        <ele>1067.8000488281</ele>
        <time>2021-01-02T07:26:50.000Z</time>
      </trkpt>
      <trkpt lat="45.23852" lon="5.98452">
        <ele>1068.4000244141</ele>
        <time>2021-01-02T07:26:56.000Z</time>
      </trkpt>
      <trkpt lat="45.23849" lon="5.98451">
        <ele>1068.8000488281</ele>
        <time>2021-01-02T07:26:58.000Z</time>
      </trkpt>
      <trkpt lat="45.23842" lon="5.98449">
        <ele>1069.4000244141</ele>
        <time>2021-01-02T07:27:03.000Z</time>
      </trkpt>
      <trkpt lat="45.23839" lon="5.98448">
        <ele>1069.8000488281</ele>
        <time>2021-01-02T07:27:06.000Z</time>
      </trkpt>
      <trkpt lat="45.23832" lon="5.98448">
        <ele>1070.4000244141</ele>
        <time>2021-01-02T07:27:12.000Z</time>
      </trkpt>
      <trkpt lat="45.2383" lon="5.98448">
        <ele>1070.8000488281</ele>
        <time>2021-01-02T07:27:14.000Z</time>
      </trkpt>
      <trkpt lat="45.23826" lon="5.98448">
        <ele>1071.4000244141</ele>
        <time>2021-01-02T07:27:19.000Z</time>
      </trkpt>
      <trkpt lat="45.23821" lon="5.98449">
        <ele>1071.8000488281</ele>
        <time>2021-01-02T07:27:23.000Z</time>
      </trkpt>
      <trkpt lat="45.23818" lon="5.98448">
        <ele>1072.4000244141</ele>
        <time>2021-01-02T07:27:27.000Z</time>
      </trkpt>
      <trkpt lat="45.23812" lon="5.9845">
        <ele>1073</ele>
        <time>2021-01-02T07:27:33.000Z</time>
      </trkpt>
      <trkpt lat="45.2381" lon="5.9845">
        <ele>1073.1999511719</ele>
        <time>2021-01-02T07:27:35.000Z</time>
      </trkpt>
      <trkpt lat="45.23803" lon="5.98453">
        <ele>1074</ele>
        <time>2021-01-02T07:27:43.000Z</time>
      </trkpt>
      <trkpt lat="45.23796" lon="5.98457">
        <ele>1075</ele>
        <time>2021-01-02T07:27:51.000Z</time>
      </trkpt>
      <trkpt lat="45.23795" lon="5.98457">
        <ele>1075</ele>
        <time>2021-01-02T07:27:52.000Z</time>
      </trkpt>
      <trkpt lat="45.2379" lon="5.98464">
        <ele>1076.1999511719</ele>
        <time>2021-01-02T07:27:59.000Z</time>
      </trkpt>
      <trkpt lat="45.23782" lon="5.98472">
        <ele>1077.1999511719</ele>
        <time>2021-01-02T07:28:07.000Z</time>
      </trkpt>
      <trkpt lat="45.23779" lon="5.98473">
        <ele>1077.5999755859</ele>
        <time>2021-01-02T07:28:09.000Z</time>
      </trkpt>
      <trkpt lat="45.23769" lon="5.98479">
        <ele>1078.4000244141</ele>
        <time>2021-01-02T07:28:16.000Z</time>
      </trkpt>
      <trkpt lat="45.23765" lon="5.98479">
        <ele>1078.8000488281</ele>
        <time>2021-01-02T07:28:18.000Z</time>
      </trkpt>
      <trkpt lat="45.23754" lon="5.98485">
        <ele>1079.4000244141</ele>
        <time>2021-01-02T07:28:25.000Z</time>
      </trkpt>
      <trkpt lat="45.23754" lon="5.98486">
        <ele>1079.4000244141</ele>
        <time>2021-01-02T07:28:26.000Z</time>
      </trkpt>
      <trkpt lat="45.23746" lon="5.9849">
        <ele>1080.5999755859</ele>
        <time>2021-01-02T07:28:32.000Z</time>
      </trkpt>
      <trkpt lat="45.23744" lon="5.98493">
        <ele>1080.8000488281</ele>
        <time>2021-01-02T07:28:34.000Z</time>
      </trkpt>
      <trkpt lat="45.23739" lon="5.98498">
        <ele>1081.5999755859</ele>
        <time>2021-01-02T07:28:40.000Z</time>
      </trkpt>
      <trkpt lat="45.23738" lon="5.98499">
        <ele>1081.8000488281</ele>
        <time>2021-01-02T07:28:41.000Z</time>
      </trkpt>
      <trkpt lat="45.23733" lon="5.98502">
        <ele>1082.5999755859</ele>
        <time>2021-01-02T07:28:48.000Z</time>
      </trkpt>
      <trkpt lat="45.23723" lon="5.98508">
        <ele>1083.8000488281</ele>
        <time>2021-01-02T07:28:56.000Z</time>
      </trkpt>
      <trkpt lat="45.23721" lon="5.98508">
        <ele>1083.8000488281</ele>
        <time>2021-01-02T07:28:57.000Z</time>
      </trkpt>
      <trkpt lat="45.23706" lon="5.98509">
        <ele>1084.8000488281</ele>
        <time>2021-01-02T07:29:07.000Z</time>
      </trkpt>
      <trkpt lat="45.23704" lon="5.98509">
        <ele>1084.8000488281</ele>
        <time>2021-01-02T07:29:09.000Z</time>
      </trkpt>
      <trkpt lat="45.23692" lon="5.9851">
        <ele>1085.8000488281</ele>
        <time>2021-01-02T07:29:19.000Z</time>
      </trkpt>
      <trkpt lat="45.23691" lon="5.9851">
        <ele>1086</ele>
        <time>2021-01-02T07:29:20.000Z</time>
      </trkpt>
      <trkpt lat="45.23681" lon="5.98507">
        <ele>1087</ele>
        <time>2021-01-02T07:29:29.000Z</time>
      </trkpt>
      <trkpt lat="45.2368" lon="5.98505">
        <ele>1087.1999511719</ele>
        <time>2021-01-02T07:29:31.000Z</time>
      </trkpt>
      <trkpt lat="45.23676" lon="5.98504">
        <ele>1088</ele>
        <time>2021-01-02T07:29:37.000Z</time>
      </trkpt>
      <trkpt lat="45.23673" lon="5.98503">
        <ele>1088.5999755859</ele>
        <time>2021-01-02T07:29:43.000Z</time>
      </trkpt>
      <trkpt lat="45.23672" lon="5.98503">
        <ele>1089</ele>
        <time>2021-01-02T07:29:45.000Z</time>
      </trkpt>
      <trkpt lat="45.23665" lon="5.98505">
        <ele>1090.1999511719</ele>
        <time>2021-01-02T07:29:53.000Z</time>
      </trkpt>
      <trkpt lat="45.23659" lon="5.98511">
        <ele>1091</ele>
        <time>2021-01-02T07:30:01.000Z</time>
      </trkpt>
      <trkpt lat="45.23656" lon="5.98513">
        <ele>1091.1999511719</ele>
        <time>2021-01-02T07:30:04.000Z</time>
      </trkpt>
      <trkpt lat="45.23652" lon="5.98518">
        <ele>1091.8000488281</ele>
        <time>2021-01-02T07:30:08.000Z</time>
      </trkpt>
      <trkpt lat="45.2365" lon="5.98521">
        <ele>1092.1999511719</ele>
        <time>2021-01-02T07:30:12.000Z</time>
      </trkpt>
      <trkpt lat="45.23649" lon="5.98524">
        <ele>1092.5999755859</ele>
        <time>2021-01-02T07:30:14.000Z</time>
      </trkpt>
      <trkpt lat="45.23639" lon="5.9853">
        <ele>1093.4000244141</ele>
        <time>2021-01-02T07:30:22.000Z</time>
      </trkpt>
      <trkpt lat="45.2363" lon="5.9853">
        <ele>1093.8000488281</ele>
        <time>2021-01-02T07:30:28.000Z</time>
      </trkpt>
      <trkpt lat="45.23621" lon="5.98532">
        <ele>1094.4000244141</ele>
        <time>2021-01-02T07:30:33.000Z</time>
      </trkpt>
      <trkpt lat="45.23617" lon="5.98533">
        <ele>1094.8000488281</ele>
        <time>2021-01-02T07:30:36.000Z</time>
      </trkpt>
      <trkpt lat="45.23611" lon="5.98535">
        <ele>1095.4000244141</ele>
        <time>2021-01-02T07:30:42.000Z</time>
      </trkpt>
      <trkpt lat="45.2361" lon="5.98536">
        <ele>1095.5999755859</ele>
        <time>2021-01-02T07:30:43.000Z</time>
      </trkpt>
      <trkpt lat="45.23603" lon="5.98539">
        <ele>1096.4000244141</ele>
        <time>2021-01-02T07:30:50.000Z</time>
      </trkpt>
      <trkpt lat="45.23602" lon="5.9854">
        <ele>1096.8000488281</ele>
        <time>2021-01-02T07:30:52.000Z</time>
      </trkpt>
      <trkpt lat="45.23597" lon="5.98544">
        <ele>1097.5999755859</ele>
        <time>2021-01-02T07:30:56.000Z</time>
      </trkpt>
      <trkpt lat="45.23592" lon="5.98548">
        <ele>1098.4000244141</ele>
        <time>2021-01-02T07:31:01.000Z</time>
      </trkpt>
      <trkpt lat="45.23589" lon="5.98552">
        <ele>1098.8000488281</ele>
        <time>2021-01-02T07:31:05.000Z</time>
      </trkpt>
      <trkpt lat="45.23584" lon="5.98559">
        <ele>1099.1999511719</ele>
        <time>2021-01-02T07:31:11.000Z</time>
      </trkpt>
      <trkpt lat="45.23581" lon="5.98561">
        <ele>1099.8000488281</ele>
        <time>2021-01-02T07:31:15.000Z</time>
      </trkpt>
      <trkpt lat="45.23577" lon="5.98565">
        <ele>1100.1999511719</ele>
        <time>2021-01-02T07:31:19.000Z</time>
      </trkpt>
      <trkpt lat="45.23572" lon="5.9857">
        <ele>1100.8000488281</ele>
        <time>2021-01-02T07:31:23.000Z</time>
      </trkpt>
      <trkpt lat="45.23568" lon="5.98569">
        <ele>1101.1999511719</ele>
        <time>2021-01-02T07:31:26.000Z</time>
      </trkpt>
      <trkpt lat="45.23563" lon="5.98572">
        <ele>1102</ele>
        <time>2021-01-02T07:31:32.000Z</time>
      </trkpt>
      <trkpt lat="45.2356" lon="5.98572">
        <ele>1102.4000244141</ele>
        <time>2021-01-02T07:31:35.000Z</time>
      </trkpt>
      <trkpt lat="45.23557" lon="5.98574">
        <ele>1103.1999511719</ele>
        <time>2021-01-02T07:31:40.000Z</time>
      </trkpt>
      <trkpt lat="45.23554" lon="5.98576">
        <ele>1103.5999755859</ele>
        <time>2021-01-02T07:31:43.000Z</time>
      </trkpt>
      <trkpt lat="45.23549" lon="5.98579">
        <ele>1104.1999511719</ele>
        <time>2021-01-02T07:31:47.000Z</time>
      </trkpt>
      <trkpt lat="45.23546" lon="5.98578">
        <ele>1104.4000244141</ele>
        <time>2021-01-02T07:31:49.000Z</time>
      </trkpt>
      <trkpt lat="45.2354" lon="5.98579">
        <ele>1105.1999511719</ele>
        <time>2021-01-02T07:31:55.000Z</time>
      </trkpt>
      <trkpt lat="45.23538" lon="5.9858">
        <ele>1105.5999755859</ele>
        <time>2021-01-02T07:31:58.000Z</time>
      </trkpt>
      <trkpt lat="45.23533" lon="5.98586">
        <ele>1106.1999511719</ele>
        <time>2021-01-02T07:32:04.000Z</time>
      </trkpt>
      <trkpt lat="45.23532" lon="5.98587">
        <ele>1106.4000244141</ele>
        <time>2021-01-02T07:32:05.000Z</time>
      </trkpt>
      <trkpt lat="45.23528" lon="5.98592">
        <ele>1107.4000244141</ele>
        <time>2021-01-02T07:32:12.000Z</time>
      </trkpt>
      <trkpt lat="45.23527" lon="5.98594">
        <ele>1107.4000244141</ele>
        <time>2021-01-02T07:32:14.000Z</time>
      </trkpt>
      <trkpt lat="45.2352" lon="5.98604">
        <ele>1108.4000244141</ele>
        <time>2021-01-02T07:32:20.000Z</time>
      </trkpt>
      <trkpt lat="45.2352" lon="5.98605">
        <ele>1108.4000244141</ele>
        <time>2021-01-02T07:32:21.000Z</time>
      </trkpt>
      <trkpt lat="45.23513" lon="5.98614">
        <ele>1109.4000244141</ele>
        <time>2021-01-02T07:32:28.000Z</time>
      </trkpt>
      <trkpt lat="45.23513" lon="5.98615">
        <ele>1109.4000244141</ele>
        <time>2021-01-02T07:32:29.000Z</time>
      </trkpt>
      <trkpt lat="45.23507" lon="5.98623">
        <ele>1110.1999511719</ele>
        <time>2021-01-02T07:32:35.000Z</time>
      </trkpt>
      <trkpt lat="45.23506" lon="5.98626">
        <ele>1110.5999755859</ele>
        <time>2021-01-02T07:32:37.000Z</time>
      </trkpt>
      <trkpt lat="45.235" lon="5.98633">
        <ele>1111.5999755859</ele>
        <time>2021-01-02T07:32:43.000Z</time>
      </trkpt>
      <trkpt lat="45.235" lon="5.98634">
        <ele>1111.8000488281</ele>
        <time>2021-01-02T07:32:44.000Z</time>
      </trkpt>
      <trkpt lat="45.23495" lon="5.98642">
        <ele>1112.5999755859</ele>
        <time>2021-01-02T07:32:51.000Z</time>
      </trkpt>
      <trkpt lat="45.23492" lon="5.98645">
        <ele>1112.8000488281</ele>
        <time>2021-01-02T07:32:54.000Z</time>
      </trkpt>
      <trkpt lat="45.23487" lon="5.98652">
        <ele>1113.8000488281</ele>
        <time>2021-01-02T07:33:00.000Z</time>
      </trkpt>
      <trkpt lat="45.23486" lon="5.98655">
        <ele>1114</ele>
        <time>2021-01-02T07:33:02.000Z</time>
      </trkpt>
      <trkpt lat="45.23483" lon="5.98661">
        <ele>1114.1999511719</ele>
        <time>2021-01-02T07:33:08.000Z</time>
      </trkpt>
      <trkpt lat="45.23479" lon="5.98667">
        <ele>1115</ele>
        <time>2021-01-02T07:33:13.000Z</time>
      </trkpt>
      <trkpt lat="45.23478" lon="5.98669">
        <ele>1115.1999511719</ele>
        <time>2021-01-02T07:33:15.000Z</time>
      </trkpt>
      <trkpt lat="45.23476" lon="5.98674">
        <ele>1116</ele>
        <time>2021-01-02T07:33:19.000Z</time>
      </trkpt>
      <trkpt lat="45.23473" lon="5.98678">
        <ele>1116.4000244141</ele>
        <time>2021-01-02T07:33:22.000Z</time>
      </trkpt>
      <trkpt lat="45.23471" lon="5.9868">
        <ele>1116.1999511719</ele>
        <time>2021-01-02T07:33:29.000Z</time>
      </trkpt>
      <trkpt lat="45.23471" lon="5.9868">
        <ele>1117.1999511719</ele>
        <time>2021-01-02T07:33:31.000Z</time>
      </trkpt>
      <trkpt lat="45.23471" lon="5.9868">
        <ele>1117.1999511719</ele>
        <time>2021-01-02T07:33:37.000Z</time>
      </trkpt>
      <trkpt lat="45.23471" lon="5.9868">
        <ele>1116.8000488281</ele>
        <time>2021-01-02T07:33:48.000Z</time>
      </trkpt>
      <trkpt lat="45.23471" lon="5.9868">
        <ele>1116.4000244141</ele>
        <time>2021-01-02T07:33:56.000Z</time>
      </trkpt>
      <trkpt lat="45.2347" lon="5.98682">
        <ele>1117.1999511719</ele>
        <time>2021-01-02T07:34:05.000Z</time>
      </trkpt>
      <trkpt lat="45.23468" lon="5.98684">
        <ele>1117.4000244141</ele>
        <time>2021-01-02T07:34:16.000Z</time>
      </trkpt>
      <trkpt lat="45.23463" lon="5.98691">
        <ele>1117.1999511719</ele>
        <time>2021-01-02T07:34:22.000Z</time>
      </trkpt>
      <trkpt lat="45.23463" lon="5.98691">
        <ele>1117.5999755859</ele>
        <time>2021-01-02T07:34:39.000Z</time>
      </trkpt>
      <trkpt lat="45.23463" lon="5.98691">
        <ele>1117.5999755859</ele>
        <time>2021-01-02T07:34:49.000Z</time>
      </trkpt>
      <trkpt lat="45.23462" lon="5.98692">
        <ele>1117.4000244141</ele>
        <time>2021-01-02T07:35:00.000Z</time>
      </trkpt>
      <trkpt lat="45.23455" lon="5.98703">
        <ele>1118</ele>
        <time>2021-01-02T07:35:08.000Z</time>
      </trkpt>
      <trkpt lat="45.23453" lon="5.98708">
        <ele>1118.1999511719</ele>
        <time>2021-01-02T07:35:11.000Z</time>
      </trkpt>
      <trkpt lat="45.2345" lon="5.98715">
        <ele>1118.8000488281</ele>
        <time>2021-01-02T07:35:16.000Z</time>
      </trkpt>
      <trkpt lat="45.23447" lon="5.98719">
        <ele>1119.1999511719</ele>
        <time>2021-01-02T07:35:19.000Z</time>
      </trkpt>
      <trkpt lat="45.23443" lon="5.98727">
        <ele>1120</ele>
        <time>2021-01-02T07:35:25.000Z</time>
      </trkpt>
      <trkpt lat="45.23441" lon="5.98729">
        <ele>1120.4000244141</ele>
        <time>2021-01-02T07:35:27.000Z</time>
      </trkpt>
      <trkpt lat="45.23436" lon="5.98734">
        <ele>1120.8000488281</ele>
        <time>2021-01-02T07:35:32.000Z</time>
      </trkpt>
      <trkpt lat="45.23434" lon="5.98738">
        <ele>1121.4000244141</ele>
        <time>2021-01-02T07:35:35.000Z</time>
      </trkpt>
      <trkpt lat="45.23431" lon="5.98744">
        <ele>1121.8000488281</ele>
        <time>2021-01-02T07:35:40.000Z</time>
      </trkpt>
      <trkpt lat="45.23428" lon="5.98749">
        <ele>1122.5999755859</ele>
        <time>2021-01-02T07:35:44.000Z</time>
      </trkpt>
      <trkpt lat="45.23424" lon="5.98754">
        <ele>1123.1999511719</ele>
        <time>2021-01-02T07:35:49.000Z</time>
      </trkpt>
      <trkpt lat="45.23419" lon="5.98759">
        <ele>1123.5999755859</ele>
        <time>2021-01-02T07:35:54.000Z</time>
      </trkpt>
      <trkpt lat="45.23416" lon="5.98761">
        <ele>1124</ele>
        <time>2021-01-02T07:35:57.000Z</time>
      </trkpt>
      <trkpt lat="45.23413" lon="5.98766">
        <ele>1124.8000488281</ele>
        <time>2021-01-02T07:36:03.000Z</time>
      </trkpt>
      <trkpt lat="45.23411" lon="5.98769">
        <ele>1125.1999511719</ele>
        <time>2021-01-02T07:36:05.000Z</time>
      </trkpt>
      <trkpt lat="45.23407" lon="5.98773">
        <ele>1125.8000488281</ele>
        <time>2021-01-02T07:36:09.000Z</time>
      </trkpt>
      <trkpt lat="45.23403" lon="5.98776">
        <ele>1126.4000244141</ele>
        <time>2021-01-02T07:36:13.000Z</time>
      </trkpt>
      <trkpt lat="45.23399" lon="5.98779">
        <ele>1126.8000488281</ele>
        <time>2021-01-02T07:36:17.000Z</time>
      </trkpt>
      <trkpt lat="45.23394" lon="5.98784">
        <ele>1127.5999755859</ele>
        <time>2021-01-02T07:36:22.000Z</time>
      </trkpt>
      <trkpt lat="45.23392" lon="5.98786">
        <ele>1128</ele>
        <time>2021-01-02T07:36:24.000Z</time>
      </trkpt>
      <trkpt lat="45.23387" lon="5.98789">
        <ele>1128.4000244141</ele>
        <time>2021-01-02T07:36:29.000Z</time>
      </trkpt>
      <trkpt lat="45.23384" lon="5.98792">
        <ele>1129</ele>
        <time>2021-01-02T07:36:32.000Z</time>
      </trkpt>
      <trkpt lat="45.2338" lon="5.98796">
        <ele>1129.4000244141</ele>
        <time>2021-01-02T07:36:36.000Z</time>
      </trkpt>
      <trkpt lat="45.23375" lon="5.988">
        <ele>1130</ele>
        <time>2021-01-02T07:36:42.000Z</time>
      </trkpt>
      <trkpt lat="45.23372" lon="5.98803">
        <ele>1130.4000244141</ele>
        <time>2021-01-02T07:36:45.000Z</time>
      </trkpt>
      <trkpt lat="45.23368" lon="5.98806">
        <ele>1131.1999511719</ele>
        <time>2021-01-02T07:36:50.000Z</time>
      </trkpt>
      <trkpt lat="45.23365" lon="5.98808">
        <ele>1131.5999755859</ele>
        <time>2021-01-02T07:36:53.000Z</time>
      </trkpt>
      <trkpt lat="45.2336" lon="5.98812">
        <ele>1132.1999511719</ele>
        <time>2021-01-02T07:36:58.000Z</time>
      </trkpt>
      <trkpt lat="45.23358" lon="5.98814">
        <ele>1132.5999755859</ele>
        <time>2021-01-02T07:37:00.000Z</time>
      </trkpt>
      <trkpt lat="45.2335" lon="5.9882">
        <ele>1133.4000244141</ele>
        <time>2021-01-02T07:37:08.000Z</time>
      </trkpt>
      <trkpt lat="45.23344" lon="5.98824">
        <ele>1134.4000244141</ele>
        <time>2021-01-02T07:37:15.000Z</time>
      </trkpt>
      <trkpt lat="45.23343" lon="5.98825">
        <ele>1134.5999755859</ele>
        <time>2021-01-02T07:37:16.000Z</time>
      </trkpt>
      <trkpt lat="45.23337" lon="5.98829">
        <ele>1135.5999755859</ele>
        <time>2021-01-02T07:37:23.000Z</time>
      </trkpt>
      <trkpt lat="45.23328" lon="5.98836">
        <ele>1136.5999755859</ele>
        <time>2021-01-02T07:37:31.000Z</time>
      </trkpt>
      <trkpt lat="45.23327" lon="5.98836">
        <ele>1136.8000488281</ele>
        <time>2021-01-02T07:37:32.000Z</time>
      </trkpt>
      <trkpt lat="45.2332" lon="5.98843">
        <ele>1137.5999755859</ele>
        <time>2021-01-02T07:37:40.000Z</time>
      </trkpt>
      <trkpt lat="45.23319" lon="5.98844">
        <ele>1137.8000488281</ele>
        <time>2021-01-02T07:37:41.000Z</time>
      </trkpt>
      <trkpt lat="45.23312" lon="5.98851">
        <ele>1139</ele>
        <time>2021-01-02T07:37:48.000Z</time>
      </trkpt>
      <trkpt lat="45.23303" lon="5.98858">
        <ele>1139.8000488281</ele>
        <time>2021-01-02T07:37:55.000Z</time>
      </trkpt>
      <trkpt lat="45.23302" lon="5.98859">
        <ele>1140</ele>
        <time>2021-01-02T07:37:57.000Z</time>
      </trkpt>
      <trkpt lat="45.23296" lon="5.98864">
        <ele>1140.4000244141</ele>
        <time>2021-01-02T07:38:02.000Z</time>
      </trkpt>
      <trkpt lat="45.23291" lon="5.98867">
        <ele>1141</ele>
        <time>2021-01-02T07:38:07.000Z</time>
      </trkpt>
      <trkpt lat="45.23289" lon="5.98868">
        <ele>1141.4000244141</ele>
        <time>2021-01-02T07:38:09.000Z</time>
      </trkpt>
      <trkpt lat="45.23284" lon="5.98872">
        <ele>1142</ele>
        <time>2021-01-02T07:38:14.000Z</time>
      </trkpt>
      <trkpt lat="45.2328" lon="5.98874">
        <ele>1142.5999755859</ele>
        <time>2021-01-02T07:38:18.000Z</time>
      </trkpt>
      <trkpt lat="45.23274" lon="5.98875">
        <ele>1143.1999511719</ele>
        <time>2021-01-02T07:38:23.000Z</time>
      </trkpt>
      <trkpt lat="45.23271" lon="5.98876">
        <ele>1143.5999755859</ele>
        <time>2021-01-02T07:38:26.000Z</time>
      </trkpt>
      <trkpt lat="45.23265" lon="5.98878">
        <ele>1144.1999511719</ele>
        <time>2021-01-02T07:38:32.000Z</time>
      </trkpt>
      <trkpt lat="45.23262" lon="5.98878">
        <ele>1144.8000488281</ele>
        <time>2021-01-02T07:38:35.000Z</time>
      </trkpt>
      <trkpt lat="45.23256" lon="5.98879">
        <ele>1145.1999511719</ele>
        <time>2021-01-02T07:38:40.000Z</time>
      </trkpt>
      <trkpt lat="45.23255" lon="5.9888">
        <ele>1145.4000244141</ele>
        <time>2021-01-02T07:38:41.000Z</time>
      </trkpt>
      <trkpt lat="45.23246" lon="5.98882">
        <ele>1146.4000244141</ele>
        <time>2021-01-02T07:38:49.000Z</time>
      </trkpt>
      <trkpt lat="45.23244" lon="5.98883">
        <ele>1146.5999755859</ele>
        <time>2021-01-02T07:38:51.000Z</time>
      </trkpt>
      <trkpt lat="45.23238" lon="5.98884">
        <ele>1147.4000244141</ele>
        <time>2021-01-02T07:38:56.000Z</time>
      </trkpt>
      <trkpt lat="45.23233" lon="5.98886">
        <ele>1148</ele>
        <time>2021-01-02T07:39:01.000Z</time>
      </trkpt>
      <trkpt lat="45.23229" lon="5.98887">
        <ele>1148.4000244141</ele>
        <time>2021-01-02T07:39:04.000Z</time>
      </trkpt>
      <trkpt lat="45.23226" lon="5.9889">
        <ele>1148.5999755859</ele>
        <time>2021-01-02T07:39:07.000Z</time>
      </trkpt>
      <trkpt lat="45.23221" lon="5.98894">
        <ele>1149.4000244141</ele>
        <time>2021-01-02T07:39:12.000Z</time>
      </trkpt>
      <trkpt lat="45.23218" lon="5.98896">
        <ele>1149.8000488281</ele>
        <time>2021-01-02T07:39:15.000Z</time>
      </trkpt>
      <trkpt lat="45.23212" lon="5.989">
        <ele>1150.5999755859</ele>
        <time>2021-01-02T07:39:21.000Z</time>
      </trkpt>
      <trkpt lat="45.23211" lon="5.98902">
        <ele>1150.8000488281</ele>
        <time>2021-01-02T07:39:23.000Z</time>
      </trkpt>
      <trkpt lat="45.2321" lon="5.98903">
        <ele>1150.8000488281</ele>
        <time>2021-01-02T07:39:24.000Z</time>
      </trkpt>
      <trkpt lat="45.23205" lon="5.98909">
        <ele>1151.4000244141</ele>
        <time>2021-01-02T07:39:29.000Z</time>
      </trkpt>
      <trkpt lat="45.23204" lon="5.9891">
        <ele>1151.5999755859</ele>
        <time>2021-01-02T07:39:30.000Z</time>
      </trkpt>
      <trkpt lat="45.23199" lon="5.98917">
        <ele>1152.5999755859</ele>
        <time>2021-01-02T07:39:37.000Z</time>
      </trkpt>
      <trkpt lat="45.23198" lon="5.98918">
        <ele>1152.5999755859</ele>
        <time>2021-01-02T07:39:38.000Z</time>
      </trkpt>
      <trkpt lat="45.23193" lon="5.98927">
        <ele>1153.8000488281</ele>
        <time>2021-01-02T07:39:47.000Z</time>
      </trkpt>
      <trkpt lat="45.23187" lon="5.98941">
        <ele>1154.8000488281</ele>
        <time>2021-01-02T07:39:56.000Z</time>
      </trkpt>
      <trkpt lat="45.23183" lon="5.9895">
        <ele>1155.5999755859</ele>
        <time>2021-01-02T07:40:03.000Z</time>
      </trkpt>
      <trkpt lat="45.23181" lon="5.98954">
        <ele>1156</ele>
        <time>2021-01-02T07:40:06.000Z</time>
      </trkpt>
      <trkpt lat="45.23178" lon="5.98961">
        <ele>1156.4000244141</ele>
        <time>2021-01-02T07:40:11.000Z</time>
      </trkpt>
      <trkpt lat="45.23175" lon="5.98969">
        <ele>1157</ele>
        <time>2021-01-02T07:40:16.000Z</time>
      </trkpt>
      <trkpt lat="45.23172" lon="5.98974">
        <ele>1157.1999511719</ele>
        <time>2021-01-02T07:40:20.000Z</time>
      </trkpt>
      <trkpt lat="45.23168" lon="5.9898">
        <ele>1158.1999511719</ele>
        <time>2021-01-02T07:40:26.000Z</time>
      </trkpt>
      <trkpt lat="45.23166" lon="5.98984">
        <ele>1158.4000244141</ele>
        <time>2021-01-02T07:40:29.000Z</time>
      </trkpt>
      <trkpt lat="45.23164" lon="5.98987">
        <ele>1159.1999511719</ele>
        <time>2021-01-02T07:40:34.000Z</time>
      </trkpt>
      <trkpt lat="45.23159" lon="5.98994">
        <ele>1160</ele>
        <time>2021-01-02T07:40:40.000Z</time>
      </trkpt>
      <trkpt lat="45.23157" lon="5.98997">
        <ele>1160.1999511719</ele>
        <time>2021-01-02T07:40:43.000Z</time>
      </trkpt>
      <trkpt lat="45.23155" lon="5.99003">
        <ele>1160.8000488281</ele>
        <time>2021-01-02T07:40:47.000Z</time>
      </trkpt>
      <trkpt lat="45.23152" lon="5.99011">
        <ele>1161.4000244141</ele>
        <time>2021-01-02T07:40:51.000Z</time>
      </trkpt>
      <trkpt lat="45.23151" lon="5.99014">
        <ele>1162</ele>
        <time>2021-01-02T07:40:56.000Z</time>
      </trkpt>
      <trkpt lat="45.2315" lon="5.9902">
        <ele>1162.4000244141</ele>
        <time>2021-01-02T07:40:59.000Z</time>
      </trkpt>
      <trkpt lat="45.23147" lon="5.9903">
        <ele>1163.1999511719</ele>
        <time>2021-01-02T07:41:06.000Z</time>
      </trkpt>
      <trkpt lat="45.23146" lon="5.99035">
        <ele>1163.5999755859</ele>
        <time>2021-01-02T07:41:09.000Z</time>
      </trkpt>
      <trkpt lat="45.23144" lon="5.99042">
        <ele>1164</ele>
        <time>2021-01-02T07:41:13.000Z</time>
      </trkpt>
      <trkpt lat="45.23141" lon="5.99054">
        <ele>1164.5999755859</ele>
        <time>2021-01-02T07:41:20.000Z</time>
      </trkpt>
      <trkpt lat="45.23141" lon="5.99055">
        <ele>1164.8000488281</ele>
        <time>2021-01-02T07:41:21.000Z</time>
      </trkpt>
      <trkpt lat="45.23139" lon="5.99061">
        <ele>1165.5999755859</ele>
        <time>2021-01-02T07:41:28.000Z</time>
      </trkpt>
      <trkpt lat="45.23139" lon="5.99061">
        <ele>1165.8000488281</ele>
        <time>2021-01-02T07:41:30.000Z</time>
      </trkpt>
      <trkpt lat="45.23134" lon="5.99074">
        <ele>1166.5999755859</ele>
        <time>2021-01-02T07:41:38.000Z</time>
      </trkpt>
      <trkpt lat="45.23134" lon="5.99076">
        <ele>1166.5999755859</ele>
        <time>2021-01-02T07:41:39.000Z</time>
      </trkpt>
      <trkpt lat="45.2313" lon="5.99087">
        <ele>1167.5999755859</ele>
        <time>2021-01-02T07:41:46.000Z</time>
      </trkpt>
      <trkpt lat="45.2313" lon="5.99087">
        <ele>1167.5999755859</ele>
        <time>2021-01-02T07:41:47.000Z</time>
      </trkpt>
      <trkpt lat="45.23124" lon="5.99097">
        <ele>1168.1999511719</ele>
        <time>2021-01-02T07:41:53.000Z</time>
      </trkpt>
      <trkpt lat="45.23119" lon="5.99101">
        <ele>1168.5999755859</ele>
        <time>2021-01-02T07:41:58.000Z</time>
      </trkpt>
      <trkpt lat="45.23115" lon="5.99103">
        <ele>1169.1999511719</ele>
        <time>2021-01-02T07:42:03.000Z</time>
      </trkpt>
      <trkpt lat="45.2311" lon="5.99106">
        <ele>1169.8000488281</ele>
        <time>2021-01-02T07:42:08.000Z</time>
      </trkpt>
      <trkpt lat="45.23107" lon="5.99107">
        <ele>1170.4000244141</ele>
        <time>2021-01-02T07:42:13.000Z</time>
      </trkpt>
      <trkpt lat="45.23104" lon="5.99108">
        <ele>1170.8000488281</ele>
        <time>2021-01-02T07:42:16.000Z</time>
      </trkpt>
      <trkpt lat="45.231" lon="5.9911">
        <ele>1171.1999511719</ele>
        <time>2021-01-02T07:42:21.000Z</time>
      </trkpt>
      <trkpt lat="45.23095" lon="5.99112">
        <ele>1171.8000488281</ele>
        <time>2021-01-02T07:42:26.000Z</time>
      </trkpt>
      <trkpt lat="45.23091" lon="5.99114">
        <ele>1172.4000244141</ele>
        <time>2021-01-02T07:42:30.000Z</time>
      </trkpt>
      <trkpt lat="45.23086" lon="5.99116">
        <ele>1173</ele>
        <time>2021-01-02T07:42:36.000Z</time>
      </trkpt>
      <trkpt lat="45.23083" lon="5.99117">
        <ele>1173.4000244141</ele>
        <time>2021-01-02T07:42:39.000Z</time>
      </trkpt>
      <trkpt lat="45.23076" lon="5.9912">
        <ele>1174</ele>
        <time>2021-01-02T07:42:46.000Z</time>
      </trkpt>
      <trkpt lat="45.23074" lon="5.99121">
        <ele>1174.1999511719</ele>
        <time>2021-01-02T07:42:48.000Z</time>
      </trkpt>
      <trkpt lat="45.23067" lon="5.99125">
        <ele>1175</ele>
        <time>2021-01-02T07:42:56.000Z</time>
      </trkpt>
      <trkpt lat="45.23059" lon="5.99129">
        <ele>1176</ele>
        <time>2021-01-02T07:43:04.000Z</time>
      </trkpt>
      <trkpt lat="45.23058" lon="5.9913">
        <ele>1176</ele>
        <time>2021-01-02T07:43:05.000Z</time>
      </trkpt>
      <trkpt lat="45.23051" lon="5.99134">
        <ele>1176.8000488281</ele>
        <time>2021-01-02T07:43:12.000Z</time>
      </trkpt>
      <trkpt lat="45.2305" lon="5.99134">
        <ele>1177</ele>
        <time>2021-01-02T07:43:13.000Z</time>
      </trkpt>
      <trkpt lat="45.23043" lon="5.99138">
        <ele>1178</ele>
        <time>2021-01-02T07:43:21.000Z</time>
      </trkpt>
      <trkpt lat="45.23041" lon="5.99139">
        <ele>1178.1999511719</ele>
        <time>2021-01-02T07:43:23.000Z</time>
      </trkpt>
      <trkpt lat="45.23036" lon="5.99141">
        <ele>1178.8000488281</ele>
        <time>2021-01-02T07:43:28.000Z</time>
      </trkpt>
      <trkpt lat="45.23033" lon="5.99142">
        <ele>1179.1999511719</ele>
        <time>2021-01-02T07:43:31.000Z</time>
      </trkpt>
      <trkpt lat="45.23027" lon="5.99144">
        <ele>1179.8000488281</ele>
        <time>2021-01-02T07:43:37.000Z</time>
      </trkpt>
      <trkpt lat="45.23022" lon="5.99146">
        <ele>1180.1999511719</ele>
        <time>2021-01-02T07:43:42.000Z</time>
      </trkpt>
      <trkpt lat="45.23021" lon="5.99146">
        <ele>1180.4000244141</ele>
        <time>2021-01-02T07:43:43.000Z</time>
      </trkpt>
      <trkpt lat="45.23015" lon="5.99149">
        <ele>1181.4000244141</ele>
        <time>2021-01-02T07:43:49.000Z</time>
      </trkpt>
      <trkpt lat="45.23013" lon="5.9915">
        <ele>1181.5999755859</ele>
        <time>2021-01-02T07:43:52.000Z</time>
      </trkpt>
      <trkpt lat="45.23008" lon="5.99153">
        <ele>1182.4000244141</ele>
        <time>2021-01-02T07:43:58.000Z</time>
      </trkpt>
      <trkpt lat="45.23006" lon="5.99154">
        <ele>1182.5999755859</ele>
        <time>2021-01-02T07:44:00.000Z</time>
      </trkpt>
      <trkpt lat="45.22999" lon="5.99157">
        <ele>1183.4000244141</ele>
        <time>2021-01-02T07:44:07.000Z</time>
      </trkpt>
      <trkpt lat="45.22997" lon="5.99158">
        <ele>1183.8000488281</ele>
        <time>2021-01-02T07:44:09.000Z</time>
      </trkpt>
      <trkpt lat="45.22989" lon="5.99162">
        <ele>1184.4000244141</ele>
        <time>2021-01-02T07:44:16.000Z</time>
      </trkpt>
      <trkpt lat="45.22989" lon="5.99163">
        <ele>1184.4000244141</ele>
        <time>2021-01-02T07:44:17.000Z</time>
      </trkpt>
      <trkpt lat="45.22983" lon="5.99165">
        <ele>1185.1999511719</ele>
        <time>2021-01-02T07:44:23.000Z</time>
      </trkpt>
      <trkpt lat="45.22978" lon="5.99166">
        <ele>1185.5999755859</ele>
        <time>2021-01-02T07:44:27.000Z</time>
      </trkpt>
      <trkpt lat="45.22975" lon="5.99166">
        <ele>1185.5999755859</ele>
        <time>2021-01-02T07:44:29.000Z</time>
      </trkpt>
      <trkpt lat="45.22969" lon="5.99168">
        <ele>1186.5999755859</ele>
        <time>2021-01-02T07:44:35.000Z</time>
      </trkpt>
      <trkpt lat="45.22961" lon="5.99169">
        <ele>1187.4000244141</ele>
        <time>2021-01-02T07:44:43.000Z</time>
      </trkpt>
      <trkpt lat="45.22959" lon="5.9917">
        <ele>1187.5999755859</ele>
        <time>2021-01-02T07:44:46.000Z</time>
      </trkpt>
      <trkpt lat="45.22953" lon="5.9917">
        <ele>1188.1999511719</ele>
        <time>2021-01-02T07:44:51.000Z</time>
      </trkpt>
      <trkpt lat="45.22949" lon="5.9917">
        <ele>1188.5999755859</ele>
        <time>2021-01-02T07:44:55.000Z</time>
      </trkpt>
      <trkpt lat="45.22945" lon="5.99167">
        <ele>1189.4000244141</ele>
        <time>2021-01-02T07:45:00.000Z</time>
      </trkpt>
      <trkpt lat="45.2294" lon="5.99167">
        <ele>1189.8000488281</ele>
        <time>2021-01-02T07:45:03.000Z</time>
      </trkpt>
      <trkpt lat="45.22934" lon="5.99165">
        <ele>1190.4000244141</ele>
        <time>2021-01-02T07:45:08.000Z</time>
      </trkpt>
      <trkpt lat="45.22932" lon="5.99165">
        <ele>1190.8000488281</ele>
        <time>2021-01-02T07:45:11.000Z</time>
      </trkpt>
      <trkpt lat="45.22929" lon="5.99164">
        <ele>1191.1999511719</ele>
        <time>2021-01-02T07:45:15.000Z</time>
      </trkpt>
      <trkpt lat="45.22929" lon="5.99164">
        <ele>1191.8000488281</ele>
        <time>2021-01-02T07:45:29.000Z</time>
      </trkpt>
      <trkpt lat="45.22929" lon="5.99164">
        <ele>1191.8000488281</ele>
        <time>2021-01-02T07:45:33.000Z</time>
      </trkpt>
      <trkpt lat="45.22929" lon="5.99164">
        <ele>1191.5999755859</ele>
        <time>2021-01-02T07:45:45.000Z</time>
      </trkpt>
      <trkpt lat="45.22928" lon="5.99164">
        <ele>1191.5999755859</ele>
        <time>2021-01-02T07:45:57.000Z</time>
      </trkpt>
      <trkpt lat="45.22928" lon="5.99164">
        <ele>1191.5999755859</ele>
        <time>2021-01-02T07:46:17.000Z</time>
      </trkpt>
      <trkpt lat="45.22928" lon="5.99164">
        <ele>1191.5999755859</ele>
        <time>2021-01-02T07:46:32.000Z</time>
      </trkpt>
      <trkpt lat="45.22928" lon="5.99164">
        <ele>1191.8000488281</ele>
        <time>2021-01-02T07:46:43.000Z</time>
      </trkpt>
      <trkpt lat="45.22928" lon="5.99164">
        <ele>1191.5999755859</ele>
        <time>2021-01-02T07:46:57.000Z</time>
      </trkpt>
      <trkpt lat="45.22928" lon="5.99164">
        <ele>1191.8000488281</ele>
        <time>2021-01-02T07:47:08.000Z</time>
      </trkpt>
      <trkpt lat="45.22928" lon="5.99163">
        <ele>1191.5999755859</ele>
        <time>2021-01-02T07:47:22.000Z</time>
      </trkpt>
      <trkpt lat="45.22928" lon="5.99163">
        <ele>1191.5999755859</ele>
        <time>2021-01-02T07:47:36.000Z</time>
      </trkpt>
      <trkpt lat="45.22928" lon="5.99163">
        <ele>1191.8000488281</ele>
        <time>2021-01-02T07:47:50.000Z</time>
      </trkpt>
      <trkpt lat="45.22923" lon="5.99163">
        <ele>1191.8000488281</ele>
        <time>2021-01-02T07:47:57.000Z</time>
      </trkpt>
      <trkpt lat="45.22916" lon="5.99169">
        <ele>1192.1999511719</ele>
        <time>2021-01-02T07:48:05.000Z</time>
      </trkpt>
      <trkpt lat="45.22911" lon="5.99172">
        <ele>1192.8000488281</ele>
        <time>2021-01-02T07:48:10.000Z</time>
      </trkpt>
      <trkpt lat="45.22908" lon="5.99175">
        <ele>1193.1999511719</ele>
        <time>2021-01-02T07:48:13.000Z</time>
      </trkpt>
      <trkpt lat="45.22904" lon="5.99181">
        <ele>1194</ele>
        <time>2021-01-02T07:48:18.000Z</time>
      </trkpt>
      <trkpt lat="45.22903" lon="5.99183">
        <ele>1194.1999511719</ele>
        <time>2021-01-02T07:48:20.000Z</time>
      </trkpt>
      <trkpt lat="45.22896" lon="5.99192">
        <ele>1195</ele>
        <time>2021-01-02T07:48:27.000Z</time>
      </trkpt>
      <trkpt lat="45.22895" lon="5.99195">
        <ele>1195.1999511719</ele>
        <time>2021-01-02T07:48:29.000Z</time>
      </trkpt>
      <trkpt lat="45.22891" lon="5.99199">
        <ele>1196</ele>
        <time>2021-01-02T07:48:35.000Z</time>
      </trkpt>
      <trkpt lat="45.22889" lon="5.99199">
        <ele>1196.1999511719</ele>
        <time>2021-01-02T07:48:37.000Z</time>
      </trkpt>
      <trkpt lat="45.22886" lon="5.99205">
        <ele>1197</ele>
        <time>2021-01-02T07:48:43.000Z</time>
      </trkpt>
      <trkpt lat="45.22885" lon="5.99207">
        <ele>1197.1999511719</ele>
        <time>2021-01-02T07:48:45.000Z</time>
      </trkpt>
      <trkpt lat="45.22879" lon="5.99216">
        <ele>1198</ele>
        <time>2021-01-02T07:48:53.000Z</time>
      </trkpt>
      <trkpt lat="45.22875" lon="5.99224">
        <ele>1199.1999511719</ele>
        <time>2021-01-02T07:49:01.000Z</time>
      </trkpt>
      <trkpt lat="45.22874" lon="5.99226">
        <ele>1199.1999511719</ele>
        <time>2021-01-02T07:49:02.000Z</time>
      </trkpt>
      <trkpt lat="45.22867" lon="5.99233">
        <ele>1200.1999511719</ele>
        <time>2021-01-02T07:49:10.000Z</time>
      </trkpt>
      <trkpt lat="45.22866" lon="5.99233">
        <ele>1200.1999511719</ele>
        <time>2021-01-02T07:49:11.000Z</time>
      </trkpt>
      <trkpt lat="45.2286" lon="5.99238">
        <ele>1201.1999511719</ele>
        <time>2021-01-02T07:49:20.000Z</time>
      </trkpt>
      <trkpt lat="45.22856" lon="5.99247">
        <ele>1202.4000244141</ele>
        <time>2021-01-02T07:49:28.000Z</time>
      </trkpt>
      <trkpt lat="45.22855" lon="5.99248">
        <ele>1202.4000244141</ele>
        <time>2021-01-02T07:49:29.000Z</time>
      </trkpt>
      <trkpt lat="45.2285" lon="5.99257">
        <ele>1203.4000244141</ele>
        <time>2021-01-02T07:49:38.000Z</time>
      </trkpt>
      <trkpt lat="45.22849" lon="5.99259">
        <ele>1203.8000488281</ele>
        <time>2021-01-02T07:49:40.000Z</time>
      </trkpt>
      <trkpt lat="45.22845" lon="5.99265">
        <ele>1204.4000244141</ele>
        <time>2021-01-02T07:49:47.000Z</time>
      </trkpt>
      <trkpt lat="45.22839" lon="5.99273">
        <ele>1205.1999511719</ele>
        <time>2021-01-02T07:49:55.000Z</time>
      </trkpt>
      <trkpt lat="45.22838" lon="5.99274">
        <ele>1205.5999755859</ele>
        <time>2021-01-02T07:49:57.000Z</time>
      </trkpt>
      <trkpt lat="45.22833" lon="5.99277">
        <ele>1206</ele>
        <time>2021-01-02T07:50:03.000Z</time>
      </trkpt>
      <trkpt lat="45.2283" lon="5.9928">
        <ele>1206.5999755859</ele>
        <time>2021-01-02T07:50:08.000Z</time>
      </trkpt>
      <trkpt lat="45.22826" lon="5.99283">
        <ele>1207</ele>
        <time>2021-01-02T07:50:12.000Z</time>
      </trkpt>
      <trkpt lat="45.2282" lon="5.99286">
        <ele>1207.5999755859</ele>
        <time>2021-01-02T07:50:19.000Z</time>
      </trkpt>
      <trkpt lat="45.22818" lon="5.99287">
        <ele>1207.8000488281</ele>
        <time>2021-01-02T07:50:21.000Z</time>
      </trkpt>
      <trkpt lat="45.22813" lon="5.99292">
        <ele>1208.8000488281</ele>
        <time>2021-01-02T07:50:28.000Z</time>
      </trkpt>
      <trkpt lat="45.22811" lon="5.99294">
        <ele>1209</ele>
        <time>2021-01-02T07:50:30.000Z</time>
      </trkpt>
      <trkpt lat="45.22807" lon="5.99297">
        <ele>1209.8000488281</ele>
        <time>2021-01-02T07:50:35.000Z</time>
      </trkpt>
      <trkpt lat="45.22805" lon="5.99299">
        <ele>1210.1999511719</ele>
        <time>2021-01-02T07:50:38.000Z</time>
      </trkpt>
      <trkpt lat="45.228" lon="5.99306">
        <ele>1210.8000488281</ele>
        <time>2021-01-02T07:50:46.000Z</time>
      </trkpt>
      <trkpt lat="45.22794" lon="5.99314">
        <ele>1211.8000488281</ele>
        <time>2021-01-02T07:50:56.000Z</time>
      </trkpt>
      <trkpt lat="45.2279" lon="5.99323">
        <ele>1212.8000488281</ele>
        <time>2021-01-02T07:51:04.000Z</time>
      </trkpt>
      <trkpt lat="45.2279" lon="5.99324">
        <ele>1213</ele>
        <time>2021-01-02T07:51:05.000Z</time>
      </trkpt>
      <trkpt lat="45.22785" lon="5.9933">
        <ele>1213.5999755859</ele>
        <time>2021-01-02T07:51:12.000Z</time>
      </trkpt>
      <trkpt lat="45.22783" lon="5.99333">
        <ele>1214</ele>
        <time>2021-01-02T07:51:15.000Z</time>
      </trkpt>
      <trkpt lat="45.22779" lon="5.99338">
        <ele>1214.4000244141</ele>
        <time>2021-01-02T07:51:21.000Z</time>
      </trkpt>
      <trkpt lat="45.22776" lon="5.99342">
        <ele>1215</ele>
        <time>2021-01-02T07:51:26.000Z</time>
      </trkpt>
      <trkpt lat="45.22774" lon="5.99344">
        <ele>1215.1999511719</ele>
        <time>2021-01-02T07:51:29.000Z</time>
      </trkpt>
      <trkpt lat="45.2277" lon="5.99352">
        <ele>1216</ele>
        <time>2021-01-02T07:51:36.000Z</time>
      </trkpt>
      <trkpt lat="45.22769" lon="5.99354">
        <ele>1216.1999511719</ele>
        <time>2021-01-02T07:51:38.000Z</time>
      </trkpt>
      <trkpt lat="45.22765" lon="5.99362">
        <ele>1216.8000488281</ele>
        <time>2021-01-02T07:51:45.000Z</time>
      </trkpt>
      <trkpt lat="45.22764" lon="5.99363">
        <ele>1217</ele>
        <time>2021-01-02T07:51:46.000Z</time>
      </trkpt>
      <trkpt lat="45.2276" lon="5.99367">
        <ele>1217.4000244141</ele>
        <time>2021-01-02T07:51:52.000Z</time>
      </trkpt>
      <trkpt lat="45.22755" lon="5.99372">
        <ele>1218.1999511719</ele>
        <time>2021-01-02T07:51:58.000Z</time>
      </trkpt>
      <trkpt lat="45.22753" lon="5.99374">
        <ele>1218.4000244141</ele>
        <time>2021-01-02T07:52:00.000Z</time>
      </trkpt>
      <trkpt lat="45.22748" lon="5.99378">
        <ele>1219.1999511719</ele>
        <time>2021-01-02T07:52:08.000Z</time>
      </trkpt>
      <trkpt lat="45.22745" lon="5.99381">
        <ele>1219.5999755859</ele>
        <time>2021-01-02T07:52:12.000Z</time>
      </trkpt>
      <trkpt lat="45.22742" lon="5.99384">
        <ele>1220.1999511719</ele>
        <time>2021-01-02T07:52:17.000Z</time>
      </trkpt>
      <trkpt lat="45.2274" lon="5.99386">
        <ele>1220.5999755859</ele>
        <time>2021-01-02T07:52:20.000Z</time>
      </trkpt>
      <trkpt lat="45.22735" lon="5.99391">
        <ele>1221.1999511719</ele>
        <time>2021-01-02T07:52:27.000Z</time>
      </trkpt>
      <trkpt lat="45.22733" lon="5.99392">
        <ele>1221.4000244141</ele>
        <time>2021-01-02T07:52:29.000Z</time>
      </trkpt>
      <trkpt lat="45.2273" lon="5.99396">
        <ele>1222</ele>
        <time>2021-01-02T07:52:34.000Z</time>
      </trkpt>
      <trkpt lat="45.22726" lon="5.994">
        <ele>1222.4000244141</ele>
        <time>2021-01-02T07:52:39.000Z</time>
      </trkpt>
      <trkpt lat="45.22726" lon="5.994">
        <ele>1222.5999755859</ele>
        <time>2021-01-02T07:52:41.000Z</time>
      </trkpt>
      <trkpt lat="45.2272" lon="5.99405">
        <ele>1223.1999511719</ele>
        <time>2021-01-02T07:52:48.000Z</time>
      </trkpt>
      <trkpt lat="45.22718" lon="5.99407">
        <ele>1223.4000244141</ele>
        <time>2021-01-02T07:52:50.000Z</time>
      </trkpt>
      <trkpt lat="45.22712" lon="5.99413">
        <ele>1224</ele>
        <time>2021-01-02T07:52:57.000Z</time>
      </trkpt>
      <trkpt lat="45.22709" lon="5.99415">
        <ele>1224.4000244141</ele>
        <time>2021-01-02T07:53:01.000Z</time>
      </trkpt>
      <trkpt lat="45.22704" lon="5.99418">
        <ele>1225</ele>
        <time>2021-01-02T07:53:06.000Z</time>
      </trkpt>
      <trkpt lat="45.227" lon="5.99422">
        <ele>1225.5999755859</ele>
        <time>2021-01-02T07:53:11.000Z</time>
      </trkpt>
      <trkpt lat="45.22697" lon="5.99423">
        <ele>1225.5999755859</ele>
        <time>2021-01-02T07:53:14.000Z</time>
      </trkpt>
      <trkpt lat="45.22691" lon="5.99426">
        <ele>1226.5999755859</ele>
        <time>2021-01-02T07:53:22.000Z</time>
      </trkpt>
      <trkpt lat="45.22691" lon="5.99426">
        <ele>1226.5999755859</ele>
        <time>2021-01-02T07:53:23.000Z</time>
      </trkpt>
      <trkpt lat="45.22684" lon="5.99432">
        <ele>1227.5999755859</ele>
        <time>2021-01-02T07:53:32.000Z</time>
      </trkpt>
      <trkpt lat="45.2267" lon="5.99428">
        <ele>1228.5999755859</ele>
        <time>2021-01-02T07:53:39.000Z</time>
      </trkpt>
      <trkpt lat="45.22651" lon="5.99423">
        <ele>1229.5999755859</ele>
        <time>2021-01-02T07:53:48.000Z</time>
      </trkpt>
      <trkpt lat="45.22651" lon="5.99423">
        <ele>1229.5999755859</ele>
        <time>2021-01-02T07:53:49.000Z</time>
      </trkpt>
      <trkpt lat="45.22639" lon="5.99424">
        <ele>1230.4000244141</ele>
        <time>2021-01-02T07:53:56.000Z</time>
      </trkpt>
      <trkpt lat="45.22635" lon="5.99428">
        <ele>1230.5999755859</ele>
        <time>2021-01-02T07:54:00.000Z</time>
      </trkpt>
      <trkpt lat="45.2263" lon="5.99433">
        <ele>1231.1999511719</ele>
        <time>2021-01-02T07:54:06.000Z</time>
      </trkpt>
      <trkpt lat="45.22628" lon="5.99435">
        <ele>1231.8000488281</ele>
        <time>2021-01-02T07:54:10.000Z</time>
      </trkpt>
      <trkpt lat="45.2262" lon="5.99448">
        <ele>1232.4000244141</ele>
        <time>2021-01-02T07:54:16.000Z</time>
      </trkpt>
      <trkpt lat="45.22617" lon="5.99452">
        <ele>1232.8000488281</ele>
        <time>2021-01-02T07:54:20.000Z</time>
      </trkpt>
      <trkpt lat="45.2261" lon="5.99463">
        <ele>1233.5999755859</ele>
        <time>2021-01-02T07:54:28.000Z</time>
      </trkpt>
      <trkpt lat="45.22608" lon="5.99468">
        <ele>1233.8000488281</ele>
        <time>2021-01-02T07:54:31.000Z</time>
      </trkpt>
      <trkpt lat="45.22602" lon="5.9948">
        <ele>1234.4000244141</ele>
        <time>2021-01-02T07:54:40.000Z</time>
      </trkpt>
      <trkpt lat="45.22598" lon="5.99487">
        <ele>1235</ele>
        <time>2021-01-02T07:54:45.000Z</time>
      </trkpt>
      <trkpt lat="45.22593" lon="5.99492">
        <ele>1235.5999755859</ele>
        <time>2021-01-02T07:54:50.000Z</time>
      </trkpt>
      <trkpt lat="45.22589" lon="5.99497">
        <ele>1236</ele>
        <time>2021-01-02T07:54:54.000Z</time>
      </trkpt>
      <trkpt lat="45.22585" lon="5.995">
        <ele>1236.4000244141</ele>
        <time>2021-01-02T07:54:58.000Z</time>
      </trkpt>
      <trkpt lat="45.22583" lon="5.99502">
        <ele>1237.1999511719</ele>
        <time>2021-01-02T07:55:04.000Z</time>
      </trkpt>
      <trkpt lat="45.2258" lon="5.99504">
        <ele>1237.4000244141</ele>
        <time>2021-01-02T07:55:08.000Z</time>
      </trkpt>
      <trkpt lat="45.22576" lon="5.99509">
        <ele>1238.1999511719</ele>
        <time>2021-01-02T07:55:15.000Z</time>
      </trkpt>
      <trkpt lat="45.22572" lon="5.99512">
        <ele>1238.5999755859</ele>
        <time>2021-01-02T07:55:19.000Z</time>
      </trkpt>
      <trkpt lat="45.2257" lon="5.99515">
        <ele>1239.1999511719</ele>
        <time>2021-01-02T07:55:23.000Z</time>
      </trkpt>
      <trkpt lat="45.22567" lon="5.99519">
        <ele>1239.8000488281</ele>
        <time>2021-01-02T07:55:27.000Z</time>
      </trkpt>
      <trkpt lat="45.22563" lon="5.99523">
        <ele>1240.1999511719</ele>
        <time>2021-01-02T07:55:32.000Z</time>
      </trkpt>
      <trkpt lat="45.22559" lon="5.99528">
        <ele>1241.1999511719</ele>
        <time>2021-01-02T07:55:38.000Z</time>
      </trkpt>
      <trkpt lat="45.22559" lon="5.99528">
        <ele>1241.1999511719</ele>
        <time>2021-01-02T07:55:39.000Z</time>
      </trkpt>
      <trkpt lat="45.22554" lon="5.99534">
        <ele>1242.1999511719</ele>
        <time>2021-01-02T07:55:48.000Z</time>
      </trkpt>
      <trkpt lat="45.22553" lon="5.99535">
        <ele>1242.1999511719</ele>
        <time>2021-01-02T07:55:49.000Z</time>
      </trkpt>
      <trkpt lat="45.22546" lon="5.99543">
        <ele>1243.1999511719</ele>
        <time>2021-01-02T07:55:56.000Z</time>
      </trkpt>
      <trkpt lat="45.22545" lon="5.99544">
        <ele>1243.4000244141</ele>
        <time>2021-01-02T07:55:58.000Z</time>
      </trkpt>
      <trkpt lat="45.22539" lon="5.99553">
        <ele>1244</ele>
        <time>2021-01-02T07:56:06.000Z</time>
      </trkpt>
      <trkpt lat="45.22537" lon="5.99557">
        <ele>1244.4000244141</ele>
        <time>2021-01-02T07:56:09.000Z</time>
      </trkpt>
      <trkpt lat="45.22533" lon="5.99565">
        <ele>1245.1999511719</ele>
        <time>2021-01-02T07:56:14.000Z</time>
      </trkpt>
      <trkpt lat="45.22531" lon="5.99567">
        <ele>1245.4000244141</ele>
        <time>2021-01-02T07:56:16.000Z</time>
      </trkpt>
      <trkpt lat="45.22527" lon="5.99572">
        <ele>1245.8000488281</ele>
        <time>2021-01-02T07:56:21.000Z</time>
      </trkpt>
      <trkpt lat="45.22523" lon="5.99577">
        <ele>1246.4000244141</ele>
        <time>2021-01-02T07:56:27.000Z</time>
      </trkpt>
      <trkpt lat="45.22522" lon="5.99579">
        <ele>1246.8000488281</ele>
        <time>2021-01-02T07:56:29.000Z</time>
      </trkpt>
      <trkpt lat="45.22519" lon="5.99586">
        <ele>1247.1999511719</ele>
        <time>2021-01-02T07:56:36.000Z</time>
      </trkpt>
      <trkpt lat="45.22518" lon="5.99589">
        <ele>1247.4000244141</ele>
        <time>2021-01-02T07:56:38.000Z</time>
      </trkpt>
      <trkpt lat="45.22515" lon="5.99597">
        <ele>1248</ele>
        <time>2021-01-02T07:56:45.000Z</time>
      </trkpt>
      <trkpt lat="45.22513" lon="5.99601">
        <ele>1248.4000244141</ele>
        <time>2021-01-02T07:56:49.000Z</time>
      </trkpt>
      <trkpt lat="45.22512" lon="5.9961">
        <ele>1249.4000244141</ele>
        <time>2021-01-02T07:56:57.000Z</time>
      </trkpt>
      <trkpt lat="45.22512" lon="5.99613">
        <ele>1249.5999755859</ele>
        <time>2021-01-02T07:56:59.000Z</time>
      </trkpt>
      <trkpt lat="45.22511" lon="5.9962">
        <ele>1250.5999755859</ele>
        <time>2021-01-02T07:57:06.000Z</time>
      </trkpt>
      <trkpt lat="45.22511" lon="5.99622">
        <ele>1250.8000488281</ele>
        <time>2021-01-02T07:57:07.000Z</time>
      </trkpt>
      <trkpt lat="45.22511" lon="5.99632">
        <ele>1251.5999755859</ele>
        <time>2021-01-02T07:57:16.000Z</time>
      </trkpt>
      <trkpt lat="45.22512" lon="5.99644">
        <ele>1252.8000488281</ele>
        <time>2021-01-02T07:57:25.000Z</time>
      </trkpt>
      <trkpt lat="45.22513" lon="5.99649">
        <ele>1253</ele>
        <time>2021-01-02T07:57:27.000Z</time>
      </trkpt>
      <trkpt lat="45.22514" lon="5.99662">
        <ele>1253.8000488281</ele>
        <time>2021-01-02T07:57:35.000Z</time>
      </trkpt>
      <trkpt lat="45.22516" lon="5.99668">
        <ele>1254.1999511719</ele>
        <time>2021-01-02T07:57:38.000Z</time>
      </trkpt>
      <trkpt lat="45.22516" lon="5.99679">
        <ele>1255</ele>
        <time>2021-01-02T07:57:46.000Z</time>
      </trkpt>
      <trkpt lat="45.22514" lon="5.99689">
        <ele>1255.8000488281</ele>
        <time>2021-01-02T07:57:55.000Z</time>
      </trkpt>
      <trkpt lat="45.22514" lon="5.99692">
        <ele>1256</ele>
        <time>2021-01-02T07:57:57.000Z</time>
      </trkpt>
      <trkpt lat="45.22512" lon="5.99704">
        <ele>1256.8000488281</ele>
        <time>2021-01-02T07:58:04.000Z</time>
      </trkpt>
      <trkpt lat="45.2251" lon="5.9971">
        <ele>1257</ele>
        <time>2021-01-02T07:58:08.000Z</time>
      </trkpt>
      <trkpt lat="45.2251" lon="5.99713">
        <ele>1257.4000244141</ele>
        <time>2021-01-02T07:58:12.000Z</time>
      </trkpt>
      <trkpt lat="45.22509" lon="5.99715">
        <ele>1258</ele>
        <time>2021-01-02T07:58:18.000Z</time>
      </trkpt>
      <trkpt lat="45.22509" lon="5.99719">
        <ele>1258.1999511719</ele>
        <time>2021-01-02T07:58:21.000Z</time>
      </trkpt>
      <trkpt lat="45.22507" lon="5.99736">
        <ele>1259</ele>
        <time>2021-01-02T07:58:31.000Z</time>
      </trkpt>
      <trkpt lat="45.22506" lon="5.99738">
        <ele>1259.1999511719</ele>
        <time>2021-01-02T07:58:32.000Z</time>
      </trkpt>
      <trkpt lat="45.22506" lon="5.99745">
        <ele>1259.8000488281</ele>
        <time>2021-01-02T07:58:41.000Z</time>
      </trkpt>
      <trkpt lat="45.22506" lon="5.99746">
        <ele>1260.1999511719</ele>
        <time>2021-01-02T07:58:45.000Z</time>
      </trkpt>
      <trkpt lat="45.22506" lon="5.99751">
        <ele>1260.5999755859</ele>
        <time>2021-01-02T07:58:50.000Z</time>
      </trkpt>
      <trkpt lat="45.22504" lon="5.99775">
        <ele>1261.1999511719</ele>
        <time>2021-01-02T07:59:00.000Z</time>
      </trkpt>
      <trkpt lat="45.22504" lon="5.99777">
        <ele>1261.1999511719</ele>
        <time>2021-01-02T07:59:01.000Z</time>
      </trkpt>
      <trkpt lat="45.22503" lon="5.99782">
        <ele>1262</ele>
        <time>2021-01-02T07:59:12.000Z</time>
      </trkpt>
      <trkpt lat="45.22502" lon="5.99785">
        <ele>1262.1999511719</ele>
        <time>2021-01-02T07:59:14.000Z</time>
      </trkpt>
      <trkpt lat="45.22498" lon="5.99797">
        <ele>1262.5999755859</ele>
        <time>2021-01-02T07:59:21.000Z</time>
      </trkpt>
      <trkpt lat="45.22494" lon="5.99807">
        <ele>1263.1999511719</ele>
        <time>2021-01-02T07:59:27.000Z</time>
      </trkpt>
      <trkpt lat="45.22487" lon="5.99815">
        <ele>1263.5999755859</ele>
        <time>2021-01-02T07:59:31.000Z</time>
      </trkpt>
      <trkpt lat="45.22475" lon="5.99829">
        <ele>1264</ele>
        <time>2021-01-02T07:59:40.000Z</time>
      </trkpt>
      <trkpt lat="45.22469" lon="5.99833">
        <ele>1264.1999511719</ele>
        <time>2021-01-02T07:59:46.000Z</time>
      </trkpt>
      <trkpt lat="45.22466" lon="5.99836">
        <ele>1264.5999755859</ele>
        <time>2021-01-02T07:59:49.000Z</time>
      </trkpt>
      <trkpt lat="45.22463" lon="5.99838">
        <ele>1264.8000488281</ele>
        <time>2021-01-02T07:59:54.000Z</time>
      </trkpt>
      <trkpt lat="45.22456" lon="5.99843">
        <ele>1265.1999511719</ele>
        <time>2021-01-02T08:00:01.000Z</time>
      </trkpt>
      <trkpt lat="45.2245" lon="5.99847">
        <ele>1266</ele>
        <time>2021-01-02T08:00:08.000Z</time>
      </trkpt>
      <trkpt lat="45.22447" lon="5.99852">
        <ele>1266.1999511719</ele>
        <time>2021-01-02T08:00:12.000Z</time>
      </trkpt>
      <trkpt lat="45.22446" lon="5.99858">
        <ele>1266.4000244141</ele>
        <time>2021-01-02T08:00:16.000Z</time>
      </trkpt>
      <trkpt lat="45.22446" lon="5.9987">
        <ele>1267</ele>
        <time>2021-01-02T08:00:25.000Z</time>
      </trkpt>
      <trkpt lat="45.22448" lon="5.9988">
        <ele>1267.4000244141</ele>
        <time>2021-01-02T08:00:31.000Z</time>
      </trkpt>
      <trkpt lat="45.22448" lon="5.99882">
        <ele>1267.4000244141</ele>
        <time>2021-01-02T08:00:33.000Z</time>
      </trkpt>
      <trkpt lat="45.22449" lon="5.99884">
        <ele>1268.1999511719</ele>
        <time>2021-01-02T08:00:41.000Z</time>
      </trkpt>
      <trkpt lat="45.22449" lon="5.99885">
        <ele>1268.4000244141</ele>
        <time>2021-01-02T08:00:43.000Z</time>
      </trkpt>
      <trkpt lat="45.22454" lon="5.99884">
        <ele>1268.5999755859</ele>
        <time>2021-01-02T08:00:47.000Z</time>
      </trkpt>
      <trkpt lat="45.22458" lon="5.99881">
        <ele>1268.5999755859</ele>
        <time>2021-01-02T08:00:53.000Z</time>
      </trkpt>
      <trkpt lat="45.22461" lon="5.99879">
        <ele>1269.4000244141</ele>
        <time>2021-01-02T08:00:58.000Z</time>
      </trkpt>
      <trkpt lat="45.22463" lon="5.99878">
        <ele>1270</ele>
        <time>2021-01-02T08:01:00.000Z</time>
      </trkpt>
      <trkpt lat="45.22465" lon="5.99877">
        <ele>1270.5999755859</ele>
        <time>2021-01-02T08:01:03.000Z</time>
      </trkpt>
      <trkpt lat="45.22468" lon="5.99874">
        <ele>1271</ele>
        <time>2021-01-02T08:01:08.000Z</time>
      </trkpt>
      <trkpt lat="45.22468" lon="5.99873">
        <ele>1270.8000488281</ele>
        <time>2021-01-02T08:01:15.000Z</time>
      </trkpt>
      <trkpt lat="45.2247" lon="5.99868">
        <ele>1271</ele>
        <time>2021-01-02T08:01:22.000Z</time>
      </trkpt>
      <trkpt lat="45.22475" lon="5.99868">
        <ele>1270.8000488281</ele>
        <time>2021-01-02T08:01:29.000Z</time>
      </trkpt>
      <trkpt lat="45.22476" lon="5.99867">
        <ele>1270.8000488281</ele>
        <time>2021-01-02T08:01:34.000Z</time>
      </trkpt>
      <trkpt lat="45.22478" lon="5.99862">
        <ele>1271.1999511719</ele>
        <time>2021-01-02T08:01:40.000Z</time>
      </trkpt>
      <trkpt lat="45.22478" lon="5.99853">
        <ele>1271</ele>
        <time>2021-01-02T08:01:48.000Z</time>
      </trkpt>
      <trkpt lat="45.22478" lon="5.99853">
        <ele>1271</ele>
        <time>2021-01-02T08:01:59.000Z</time>
      </trkpt>
      <trkpt lat="45.22478" lon="5.99859">
        <ele>1271</ele>
        <time>2021-01-02T08:02:06.000Z</time>
      </trkpt>
      <trkpt lat="45.22484" lon="5.99862">
        <ele>1271</ele>
        <time>2021-01-02T08:02:13.000Z</time>
      </trkpt>
      <trkpt lat="45.22489" lon="5.9986">
        <ele>1271.1999511719</ele>
        <time>2021-01-02T08:02:19.000Z</time>
      </trkpt>
      <trkpt lat="45.22495" lon="5.99855">
        <ele>1271.8000488281</ele>
        <time>2021-01-02T08:02:26.000Z</time>
      </trkpt>
      <trkpt lat="45.22501" lon="5.99852">
        <ele>1272.1999511719</ele>
        <time>2021-01-02T08:02:33.000Z</time>
      </trkpt>
      <trkpt lat="45.22505" lon="5.99848">
        <ele>1272.8000488281</ele>
        <time>2021-01-02T08:02:38.000Z</time>
      </trkpt>
      <trkpt lat="45.22508" lon="5.99845">
        <ele>1273.1999511719</ele>
        <time>2021-01-02T08:02:42.000Z</time>
      </trkpt>
      <trkpt lat="45.22512" lon="5.99838">
        <ele>1273.5999755859</ele>
        <time>2021-01-02T08:02:48.000Z</time>
      </trkpt>
      <trkpt lat="45.22514" lon="5.99833">
        <ele>1273.8000488281</ele>
        <time>2021-01-02T08:02:51.000Z</time>
      </trkpt>
      <trkpt lat="45.22517" lon="5.99826">
        <ele>1274</ele>
        <time>2021-01-02T08:02:54.000Z</time>
      </trkpt>
      <trkpt lat="45.22519" lon="5.99813">
        <ele>1274.8000488281</ele>
        <time>2021-01-02T08:03:02.000Z</time>
      </trkpt>
      <trkpt lat="45.2252" lon="5.99812">
        <ele>1275</ele>
        <time>2021-01-02T08:03:03.000Z</time>
      </trkpt>
      <trkpt lat="45.22521" lon="5.99804">
        <ele>1275.4000244141</ele>
        <time>2021-01-02T08:03:09.000Z</time>
      </trkpt>
      <trkpt lat="45.22522" lon="5.998">
        <ele>1276</ele>
        <time>2021-01-02T08:03:13.000Z</time>
      </trkpt>
      <trkpt lat="45.22523" lon="5.99797">
        <ele>1276.4000244141</ele>
        <time>2021-01-02T08:03:16.000Z</time>
      </trkpt>
      <trkpt lat="45.22524" lon="5.9979">
        <ele>1277</ele>
        <time>2021-01-02T08:03:23.000Z</time>
      </trkpt>
      <trkpt lat="45.22524" lon="5.99772">
        <ele>1277.8000488281</ele>
        <time>2021-01-02T08:03:31.000Z</time>
      </trkpt>
      <trkpt lat="45.2252" lon="5.99763">
        <ele>1277.5999755859</ele>
        <time>2021-01-02T08:03:38.000Z</time>
      </trkpt>
      <trkpt lat="45.22524" lon="5.99759">
        <ele>1278</ele>
        <time>2021-01-02T08:03:43.000Z</time>
      </trkpt>
      <trkpt lat="45.22524" lon="5.99756">
        <ele>1278</ele>
        <time>2021-01-02T08:03:45.000Z</time>
      </trkpt>
      <trkpt lat="45.22529" lon="5.99747">
        <ele>1279</ele>
        <time>2021-01-02T08:03:52.000Z</time>
      </trkpt>
      <trkpt lat="45.22529" lon="5.99743">
        <ele>1279</ele>
        <time>2021-01-02T08:03:55.000Z</time>
      </trkpt>
      <trkpt lat="45.22531" lon="5.99739">
        <ele>1279.4000244141</ele>
        <time>2021-01-02T08:03:59.000Z</time>
      </trkpt>
      <trkpt lat="45.22533" lon="5.99733">
        <ele>1280</ele>
        <time>2021-01-02T08:04:06.000Z</time>
      </trkpt>
      <trkpt lat="45.22534" lon="5.99732">
        <ele>1280.1999511719</ele>
        <time>2021-01-02T08:04:08.000Z</time>
      </trkpt>
      <trkpt lat="45.22535" lon="5.99729">
        <ele>1281</ele>
        <time>2021-01-02T08:04:14.000Z</time>
      </trkpt>
      <trkpt lat="45.22535" lon="5.99728">
        <ele>1281.1999511719</ele>
        <time>2021-01-02T08:04:15.000Z</time>
      </trkpt>
      <trkpt lat="45.22538" lon="5.99725">
        <ele>1281.8000488281</ele>
        <time>2021-01-02T08:04:22.000Z</time>
      </trkpt>
      <trkpt lat="45.22539" lon="5.99722">
        <ele>1282.1999511719</ele>
        <time>2021-01-02T08:04:25.000Z</time>
      </trkpt>
      <trkpt lat="45.2254" lon="5.9972">
        <ele>1283.1999511719</ele>
        <time>2021-01-02T08:04:33.000Z</time>
      </trkpt>
      <trkpt lat="45.2254" lon="5.9972">
        <ele>1283.1999511719</ele>
        <time>2021-01-02T08:04:34.000Z</time>
      </trkpt>
      <trkpt lat="45.2254" lon="5.9972">
        <ele>1284.1999511719</ele>
        <time>2021-01-02T08:04:42.000Z</time>
      </trkpt>
      <trkpt lat="45.2254" lon="5.9972">
        <ele>1284.4000244141</ele>
        <time>2021-01-02T08:04:52.000Z</time>
      </trkpt>
      <trkpt lat="45.22542" lon="5.99718">
        <ele>1284</ele>
        <time>2021-01-02T08:05:05.000Z</time>
      </trkpt>
      <trkpt lat="45.22544" lon="5.99713">
        <ele>1284.4000244141</ele>
        <time>2021-01-02T08:05:15.000Z</time>
      </trkpt>
      <trkpt lat="45.22544" lon="5.99713">
        <ele>1284.1999511719</ele>
        <time>2021-01-02T08:05:24.000Z</time>
      </trkpt>
      <trkpt lat="45.22544" lon="5.99713">
        <ele>1284.4000244141</ele>
        <time>2021-01-02T08:05:33.000Z</time>
      </trkpt>
      <trkpt lat="45.22544" lon="5.99713">
        <ele>1284.4000244141</ele>
        <time>2021-01-02T08:05:43.000Z</time>
      </trkpt>
      <trkpt lat="45.22544" lon="5.99713">
        <ele>1283.8000488281</ele>
        <time>2021-01-02T08:05:54.000Z</time>
      </trkpt>
      <trkpt lat="45.22544" lon="5.99712">
        <ele>1283.5999755859</ele>
        <time>2021-01-02T08:06:06.000Z</time>
      </trkpt>
      <trkpt lat="45.22547" lon="5.99711">
        <ele>1283.8000488281</ele>
        <time>2021-01-02T08:06:17.000Z</time>
      </trkpt>
      <trkpt lat="45.22554" lon="5.99708">
        <ele>1283.8000488281</ele>
        <time>2021-01-02T08:06:27.000Z</time>
      </trkpt>
      <trkpt lat="45.22554" lon="5.99708">
        <ele>1284</ele>
        <time>2021-01-02T08:06:37.000Z</time>
      </trkpt>
      <trkpt lat="45.22554" lon="5.99708">
        <ele>1283.8000488281</ele>
        <time>2021-01-02T08:06:51.000Z</time>
      </trkpt>
      <trkpt lat="45.22554" lon="5.99708">
        <ele>1283.5999755859</ele>
        <time>2021-01-02T08:07:04.000Z</time>
      </trkpt>
      <trkpt lat="45.22556" lon="5.9971">
        <ele>1284</ele>
        <time>2021-01-02T08:07:15.000Z</time>
      </trkpt>
      <trkpt lat="45.22556" lon="5.9971">
        <ele>1284.1999511719</ele>
        <time>2021-01-02T08:07:26.000Z</time>
      </trkpt>
      <trkpt lat="45.22556" lon="5.9971">
        <ele>1284.1999511719</ele>
        <time>2021-01-02T08:07:35.000Z</time>
      </trkpt>
      <trkpt lat="45.22556" lon="5.9971">
        <ele>1284.4000244141</ele>
        <time>2021-01-02T08:07:47.000Z</time>
      </trkpt>
      <trkpt lat="45.22556" lon="5.99709">
        <ele>1284.1999511719</ele>
        <time>2021-01-02T08:07:57.000Z</time>
      </trkpt>
      <trkpt lat="45.22556" lon="5.99709">
        <ele>1284</ele>
        <time>2021-01-02T08:08:08.000Z</time>
      </trkpt>
      <trkpt lat="45.22556" lon="5.99709">
        <ele>1284.4000244141</ele>
        <time>2021-01-02T08:08:20.000Z</time>
      </trkpt>
      <trkpt lat="45.22557" lon="5.99707">
        <ele>1283.8000488281</ele>
        <time>2021-01-02T08:08:34.000Z</time>
      </trkpt>
      <trkpt lat="45.22557" lon="5.99707">
        <ele>1283.8000488281</ele>
        <time>2021-01-02T08:08:50.000Z</time>
      </trkpt>
      <trkpt lat="45.22557" lon="5.99707">
        <ele>1284.1999511719</ele>
        <time>2021-01-02T08:09:01.000Z</time>
      </trkpt>
      <trkpt lat="45.22557" lon="5.99707">
        <ele>1284.4000244141</ele>
        <time>2021-01-02T08:09:16.000Z</time>
      </trkpt>
      <trkpt lat="45.22557" lon="5.99707">
        <ele>1284.1999511719</ele>
        <time>2021-01-02T08:09:26.000Z</time>
      </trkpt>
      <trkpt lat="45.22557" lon="5.99707">
        <ele>1283.1999511719</ele>
        <time>2021-01-02T08:09:32.000Z</time>
      </trkpt>
      <trkpt lat="45.22557" lon="5.99707">
        <ele>1282</ele>
        <time>2021-01-02T08:09:37.000Z</time>
      </trkpt>
      <trkpt lat="45.2255" lon="5.99712">
        <ele>1281</ele>
        <time>2021-01-02T08:09:42.000Z</time>
      </trkpt>
      <trkpt lat="45.22543" lon="5.99728">
        <ele>1280</ele>
        <time>2021-01-02T08:09:46.000Z</time>
      </trkpt>
      <trkpt lat="45.22542" lon="5.9973">
        <ele>1280</ele>
        <time>2021-01-02T08:09:47.000Z</time>
      </trkpt>
      <trkpt lat="45.22539" lon="5.99741">
        <ele>1278.8000488281</ele>
        <time>2021-01-02T08:09:52.000Z</time>
      </trkpt>
      <trkpt lat="45.22539" lon="5.99743">
        <ele>1278.5999755859</ele>
        <time>2021-01-02T08:09:53.000Z</time>
      </trkpt>
      <trkpt lat="45.22538" lon="5.99766">
        <ele>1278.1999511719</ele>
        <time>2021-01-02T08:10:02.000Z</time>
      </trkpt>
      <trkpt lat="45.22539" lon="5.9978">
        <ele>1279.4000244141</ele>
        <time>2021-01-02T08:10:10.000Z</time>
      </trkpt>
      <trkpt lat="45.22539" lon="5.99786">
        <ele>1279.8000488281</ele>
        <time>2021-01-02T08:10:14.000Z</time>
      </trkpt>
      <trkpt lat="45.22537" lon="5.99791">
        <ele>1280.4000244141</ele>
        <time>2021-01-02T08:10:19.000Z</time>
      </trkpt>
      <trkpt lat="45.22537" lon="5.99795">
        <ele>1281</ele>
        <time>2021-01-02T08:10:23.000Z</time>
      </trkpt>
      <trkpt lat="45.22536" lon="5.99803">
        <ele>1281.8000488281</ele>
        <time>2021-01-02T08:10:28.000Z</time>
      </trkpt>
      <trkpt lat="45.22535" lon="5.9981">
        <ele>1282.1999511719</ele>
        <time>2021-01-02T08:10:33.000Z</time>
      </trkpt>
      <trkpt lat="45.22535" lon="5.99813">
        <ele>1282.5999755859</ele>
        <time>2021-01-02T08:10:35.000Z</time>
      </trkpt>
      <trkpt lat="45.22534" lon="5.99819">
        <ele>1283.1999511719</ele>
        <time>2021-01-02T08:10:40.000Z</time>
      </trkpt>
      <trkpt lat="45.22533" lon="5.99828">
        <ele>1284</ele>
        <time>2021-01-02T08:10:45.000Z</time>
      </trkpt>
      <trkpt lat="45.22531" lon="5.99834">
        <ele>1284.1999511719</ele>
        <time>2021-01-02T08:10:49.000Z</time>
      </trkpt>
      <trkpt lat="45.22529" lon="5.99843">
        <ele>1285.1999511719</ele>
        <time>2021-01-02T08:10:55.000Z</time>
      </trkpt>
      <trkpt lat="45.22528" lon="5.99844">
        <ele>1285.4000244141</ele>
        <time>2021-01-02T08:10:56.000Z</time>
      </trkpt>
      <trkpt lat="45.22526" lon="5.99855">
        <ele>1286.4000244141</ele>
        <time>2021-01-02T08:11:04.000Z</time>
      </trkpt>
      <trkpt lat="45.22526" lon="5.99857">
        <ele>1286.5999755859</ele>
        <time>2021-01-02T08:11:05.000Z</time>
      </trkpt>
      <trkpt lat="45.22523" lon="5.99868">
        <ele>1287.5999755859</ele>
        <time>2021-01-02T08:11:15.000Z</time>
      </trkpt>
      <trkpt lat="45.22523" lon="5.99868">
        <ele>1288.5999755859</ele>
        <time>2021-01-02T08:11:24.000Z</time>
      </trkpt>
      <trkpt lat="45.22523" lon="5.99869">
        <ele>1289</ele>
        <time>2021-01-02T08:11:26.000Z</time>
      </trkpt>
      <trkpt lat="45.22523" lon="5.99876">
        <ele>1289.5999755859</ele>
        <time>2021-01-02T08:11:33.000Z</time>
      </trkpt>
      <trkpt lat="45.22523" lon="5.99876">
        <ele>1289.8000488281</ele>
        <time>2021-01-02T08:11:35.000Z</time>
      </trkpt>
      <trkpt lat="45.22523" lon="5.99878">
        <ele>1290.5999755859</ele>
        <time>2021-01-02T08:11:41.000Z</time>
      </trkpt>
      <trkpt lat="45.22522" lon="5.99886">
        <ele>1291.4000244141</ele>
        <time>2021-01-02T08:11:47.000Z</time>
      </trkpt>
      <trkpt lat="45.22521" lon="5.9989">
        <ele>1291.8000488281</ele>
        <time>2021-01-02T08:11:49.000Z</time>
      </trkpt>
      <trkpt lat="45.2252" lon="5.99899">
        <ele>1292.8000488281</ele>
        <time>2021-01-02T08:11:57.000Z</time>
      </trkpt>
      <trkpt lat="45.22519" lon="5.999">
        <ele>1293</ele>
        <time>2021-01-02T08:11:58.000Z</time>
      </trkpt>
      <trkpt lat="45.22519" lon="5.99903">
        <ele>1294</ele>
        <time>2021-01-02T08:12:05.000Z</time>
      </trkpt>
      <trkpt lat="45.22519" lon="5.99903">
        <ele>1294.4000244141</ele>
        <time>2021-01-02T08:12:07.000Z</time>
      </trkpt>
      <trkpt lat="45.22519" lon="5.99903">
        <ele>1295</ele>
        <time>2021-01-02T08:12:12.000Z</time>
      </trkpt>
      <trkpt lat="45.22519" lon="5.99903">
        <ele>1296</ele>
        <time>2021-01-02T08:12:17.000Z</time>
      </trkpt>
      <trkpt lat="45.22519" lon="5.99903">
        <ele>1296.1999511719</ele>
        <time>2021-01-02T08:12:18.000Z</time>
      </trkpt>
      <trkpt lat="45.22519" lon="5.99905">
        <ele>1297.1999511719</ele>
        <time>2021-01-02T08:12:26.000Z</time>
      </trkpt>
      <trkpt lat="45.22515" lon="5.99933">
        <ele>1298.4000244141</ele>
        <time>2021-01-02T08:12:34.000Z</time>
      </trkpt>
      <trkpt lat="45.22513" lon="5.99952">
        <ele>1299.4000244141</ele>
        <time>2021-01-02T08:12:41.000Z</time>
      </trkpt>
      <trkpt lat="45.22512" lon="5.99958">
        <ele>1299.8000488281</ele>
        <time>2021-01-02T08:12:43.000Z</time>
      </trkpt>
      <trkpt lat="45.22508" lon="5.99976">
        <ele>1300.5999755859</ele>
        <time>2021-01-02T08:12:49.000Z</time>
      </trkpt>
      <trkpt lat="45.22507" lon="5.99983">
        <ele>1301</ele>
        <time>2021-01-02T08:12:52.000Z</time>
      </trkpt>
      <trkpt lat="45.22506" lon="5.9999">
        <ele>1301.5999755859</ele>
        <time>2021-01-02T08:12:55.000Z</time>
      </trkpt>
      <trkpt lat="45.22503" lon="5.99999">
        <ele>1302.1999511719</ele>
        <time>2021-01-02T08:13:00.000Z</time>
      </trkpt>
      <trkpt lat="45.22502" lon="6.00001">
        <ele>1302.5999755859</ele>
        <time>2021-01-02T08:13:01.000Z</time>
      </trkpt>
      <trkpt lat="45.225" lon="6.00013">
        <ele>1303.5999755859</ele>
        <time>2021-01-02T08:13:08.000Z</time>
      </trkpt>
      <trkpt lat="45.22499" lon="6.00014">
        <ele>1303.8000488281</ele>
        <time>2021-01-02T08:13:09.000Z</time>
      </trkpt>
      <trkpt lat="45.22495" lon="6.00025">
        <ele>1304.8000488281</ele>
        <time>2021-01-02T08:13:16.000Z</time>
      </trkpt>
      <trkpt lat="45.22495" lon="6.00027">
        <ele>1305</ele>
        <time>2021-01-02T08:13:17.000Z</time>
      </trkpt>
      <trkpt lat="45.22492" lon="6.00034">
        <ele>1305.8000488281</ele>
        <time>2021-01-02T08:13:22.000Z</time>
      </trkpt>
      <trkpt lat="45.22491" lon="6.00036">
        <ele>1306</ele>
        <time>2021-01-02T08:13:24.000Z</time>
      </trkpt>
      <trkpt lat="45.22489" lon="6.00041">
        <ele>1306.8000488281</ele>
        <time>2021-01-02T08:13:28.000Z</time>
      </trkpt>
      <trkpt lat="45.22487" lon="6.00045">
        <ele>1307.5999755859</ele>
        <time>2021-01-02T08:13:32.000Z</time>
      </trkpt>
      <trkpt lat="45.22485" lon="6.00048">
        <ele>1308</ele>
        <time>2021-01-02T08:13:35.000Z</time>
      </trkpt>
      <trkpt lat="45.22482" lon="6.00054">
        <ele>1308.8000488281</ele>
        <time>2021-01-02T08:13:40.000Z</time>
      </trkpt>
      <trkpt lat="45.22481" lon="6.00057">
        <ele>1309</ele>
        <time>2021-01-02T08:13:42.000Z</time>
      </trkpt>
      <trkpt lat="45.22477" lon="6.00063">
        <ele>1310</ele>
        <time>2021-01-02T08:13:48.000Z</time>
      </trkpt>
      <trkpt lat="45.22476" lon="6.00065">
        <ele>1310.4000244141</ele>
        <time>2021-01-02T08:13:49.000Z</time>
      </trkpt>
      <trkpt lat="45.22472" lon="6.00074">
        <ele>1311.1999511719</ele>
        <time>2021-01-02T08:13:55.000Z</time>
      </trkpt>
      <trkpt lat="45.22469" lon="6.00077">
        <ele>1311.5999755859</ele>
        <time>2021-01-02T08:13:57.000Z</time>
      </trkpt>
      <trkpt lat="45.22466" lon="6.00082">
        <ele>1312.1999511719</ele>
        <time>2021-01-02T08:14:02.000Z</time>
      </trkpt>
      <trkpt lat="45.22463" lon="6.00085">
        <ele>1312.8000488281</ele>
        <time>2021-01-02T08:14:05.000Z</time>
      </trkpt>
      <trkpt lat="45.22461" lon="6.00087">
        <ele>1313.1999511719</ele>
        <time>2021-01-02T08:14:09.000Z</time>
      </trkpt>
      <trkpt lat="45.22458" lon="6.00089">
        <ele>1313.8000488281</ele>
        <time>2021-01-02T08:14:13.000Z</time>
      </trkpt>
      <trkpt lat="45.22454" lon="6.00094">
        <ele>1314.5999755859</ele>
        <time>2021-01-02T08:14:18.000Z</time>
      </trkpt>
      <trkpt lat="45.22453" lon="6.00096">
        <ele>1315</ele>
        <time>2021-01-02T08:14:20.000Z</time>
      </trkpt>
      <trkpt lat="45.22449" lon="6.00104">
        <ele>1315.5999755859</ele>
        <time>2021-01-02T08:14:26.000Z</time>
      </trkpt>
      <trkpt lat="45.22448" lon="6.00105">
        <ele>1316</ele>
        <time>2021-01-02T08:14:28.000Z</time>
      </trkpt>
      <trkpt lat="45.22444" lon="6.0011">
        <ele>1317</ele>
        <time>2021-01-02T08:14:35.000Z</time>
      </trkpt>
      <trkpt lat="45.22438" lon="6.00115">
        <ele>1318.1999511719</ele>
        <time>2021-01-02T08:14:41.000Z</time>
      </trkpt>
      <trkpt lat="45.22437" lon="6.00116">
        <ele>1318.1999511719</ele>
        <time>2021-01-02T08:14:42.000Z</time>
      </trkpt>
      <trkpt lat="45.22433" lon="6.00121">
        <ele>1319.1999511719</ele>
        <time>2021-01-02T08:14:47.000Z</time>
      </trkpt>
      <trkpt lat="45.22432" lon="6.00123">
        <ele>1319.4000244141</ele>
        <time>2021-01-02T08:14:49.000Z</time>
      </trkpt>
      <trkpt lat="45.22426" lon="6.00129">
        <ele>1320.4000244141</ele>
        <time>2021-01-02T08:14:56.000Z</time>
      </trkpt>
      <trkpt lat="45.22425" lon="6.00129">
        <ele>1320.4000244141</ele>
        <time>2021-01-02T08:14:57.000Z</time>
      </trkpt>
      <trkpt lat="45.22422" lon="6.00133">
        <ele>1321.4000244141</ele>
        <time>2021-01-02T08:15:02.000Z</time>
      </trkpt>
      <trkpt lat="45.2242" lon="6.00134">
        <ele>1321.5999755859</ele>
        <time>2021-01-02T08:15:04.000Z</time>
      </trkpt>
      <trkpt lat="45.22417" lon="6.0014">
        <ele>1322.4000244141</ele>
        <time>2021-01-02T08:15:09.000Z</time>
      </trkpt>
      <trkpt lat="45.22412" lon="6.00144">
        <ele>1322.8000488281</ele>
        <time>2021-01-02T08:15:13.000Z</time>
      </trkpt>
      <trkpt lat="45.22408" lon="6.00147">
        <ele>1323.4000244141</ele>
        <time>2021-01-02T08:15:18.000Z</time>
      </trkpt>
      <trkpt lat="45.22406" lon="6.00148">
        <ele>1323.5999755859</ele>
        <time>2021-01-02T08:15:20.000Z</time>
      </trkpt>
      <trkpt lat="45.22399" lon="6.00151">
        <ele>1324.4000244141</ele>
        <time>2021-01-02T08:15:27.000Z</time>
      </trkpt>
      <trkpt lat="45.22398" lon="6.00152">
        <ele>1324.5999755859</ele>
        <time>2021-01-02T08:15:28.000Z</time>
      </trkpt>
      <trkpt lat="45.2239" lon="6.00156">
        <ele>1325.5999755859</ele>
        <time>2021-01-02T08:15:36.000Z</time>
      </trkpt>
      <trkpt lat="45.2238" lon="6.00156">
        <ele>1326.5999755859</ele>
        <time>2021-01-02T08:15:45.000Z</time>
      </trkpt>
      <trkpt lat="45.22372" lon="6.00161">
        <ele>1327.5999755859</ele>
        <time>2021-01-02T08:15:54.000Z</time>
      </trkpt>
      <trkpt lat="45.22371" lon="6.00161">
        <ele>1327.5999755859</ele>
        <time>2021-01-02T08:15:55.000Z</time>
      </trkpt>
      <trkpt lat="45.22363" lon="6.00168">
        <ele>1328.4000244141</ele>
        <time>2021-01-02T08:16:02.000Z</time>
      </trkpt>
      <trkpt lat="45.2236" lon="6.00171">
        <ele>1328.8000488281</ele>
        <time>2021-01-02T08:16:05.000Z</time>
      </trkpt>
      <trkpt lat="45.22353" lon="6.00176">
        <ele>1329.1999511719</ele>
        <time>2021-01-02T08:16:10.000Z</time>
      </trkpt>
      <trkpt lat="45.2235" lon="6.00178">
        <ele>1329.8000488281</ele>
        <time>2021-01-02T08:16:15.000Z</time>
      </trkpt>
      <trkpt lat="45.2235" lon="6.00178">
        <ele>1329.8000488281</ele>
        <time>2021-01-02T08:16:16.000Z</time>
      </trkpt>
      <trkpt lat="45.22342" lon="6.00185">
        <ele>1330.5999755859</ele>
        <time>2021-01-02T08:16:24.000Z</time>
      </trkpt>
      <trkpt lat="45.22339" lon="6.00186">
        <ele>1330.8000488281</ele>
        <time>2021-01-02T08:16:27.000Z</time>
      </trkpt>
      <trkpt lat="45.22335" lon="6.00189">
        <ele>1331.8000488281</ele>
        <time>2021-01-02T08:16:32.000Z</time>
      </trkpt>
      <trkpt lat="45.22334" lon="6.0019">
        <ele>1332</ele>
        <time>2021-01-02T08:16:33.000Z</time>
      </trkpt>
      <trkpt lat="45.22331" lon="6.00193">
        <ele>1332.4000244141</ele>
        <time>2021-01-02T08:16:40.000Z</time>
      </trkpt>
      <trkpt lat="45.22331" lon="6.00193">
        <ele>1333</ele>
        <time>2021-01-02T08:16:44.000Z</time>
      </trkpt>
      <trkpt lat="45.22331" lon="6.00193">
        <ele>1333.1999511719</ele>
        <time>2021-01-02T08:16:48.000Z</time>
      </trkpt>
      <trkpt lat="45.22326" lon="6.00197">
        <ele>1334</ele>
        <time>2021-01-02T08:16:55.000Z</time>
      </trkpt>
      <trkpt lat="45.22325" lon="6.00198">
        <ele>1334.1999511719</ele>
        <time>2021-01-02T08:16:56.000Z</time>
      </trkpt>
      <trkpt lat="45.2232" lon="6.00201">
        <ele>1335</ele>
        <time>2021-01-02T08:17:03.000Z</time>
      </trkpt>
      <trkpt lat="45.22319" lon="6.00202">
        <ele>1335.5999755859</ele>
        <time>2021-01-02T08:17:05.000Z</time>
      </trkpt>
      <trkpt lat="45.22318" lon="6.00203">
        <ele>1336.1999511719</ele>
        <time>2021-01-02T08:17:11.000Z</time>
      </trkpt>
      <trkpt lat="45.22318" lon="6.00203">
        <ele>1336.1999511719</ele>
        <time>2021-01-02T08:17:14.000Z</time>
      </trkpt>
      <trkpt lat="45.22314" lon="6.00207">
        <ele>1336.4000244141</ele>
        <time>2021-01-02T08:17:21.000Z</time>
      </trkpt>
      <trkpt lat="45.22312" lon="6.00211">
        <ele>1337.1999511719</ele>
        <time>2021-01-02T08:17:25.000Z</time>
      </trkpt>
      <trkpt lat="45.2231" lon="6.00213">
        <ele>1337.5999755859</ele>
        <time>2021-01-02T08:17:28.000Z</time>
      </trkpt>
      <trkpt lat="45.22309" lon="6.00215">
        <ele>1338.1999511719</ele>
        <time>2021-01-02T08:17:30.000Z</time>
      </trkpt>
      <trkpt lat="45.22308" lon="6.00219">
        <ele>1339.4000244141</ele>
        <time>2021-01-02T08:17:36.000Z</time>
      </trkpt>
      <trkpt lat="45.22307" lon="6.0022">
        <ele>1339.5999755859</ele>
        <time>2021-01-02T08:17:38.000Z</time>
      </trkpt>
      <trkpt lat="45.22306" lon="6.00223">
        <ele>1340.4000244141</ele>
        <time>2021-01-02T08:17:42.000Z</time>
      </trkpt>
      <trkpt lat="45.22305" lon="6.00225">
        <ele>1341.4000244141</ele>
        <time>2021-01-02T08:17:47.000Z</time>
      </trkpt>
      <trkpt lat="45.22304" lon="6.00231">
        <ele>1342.5999755859</ele>
        <time>2021-01-02T08:17:54.000Z</time>
      </trkpt>
      <trkpt lat="45.22304" lon="6.00232">
        <ele>1342.8000488281</ele>
        <time>2021-01-02T08:17:55.000Z</time>
      </trkpt>
      <trkpt lat="45.22304" lon="6.00234">
        <ele>1343.5999755859</ele>
        <time>2021-01-02T08:17:59.000Z</time>
      </trkpt>
      <trkpt lat="45.22305" lon="6.00238">
        <ele>1344.8000488281</ele>
        <time>2021-01-02T08:18:04.000Z</time>
      </trkpt>
      <trkpt lat="45.22304" lon="6.00239">
        <ele>1345</ele>
        <time>2021-01-02T08:18:05.000Z</time>
      </trkpt>
      <trkpt lat="45.22305" lon="6.00246">
        <ele>1345.8000488281</ele>
        <time>2021-01-02T08:18:10.000Z</time>
      </trkpt>
      <trkpt lat="45.22308" lon="6.00249">
        <ele>1346.8000488281</ele>
        <time>2021-01-02T08:18:15.000Z</time>
      </trkpt>
      <trkpt lat="45.22308" lon="6.00254">
        <ele>1348</ele>
        <time>2021-01-02T08:18:20.000Z</time>
      </trkpt>
      <trkpt lat="45.22308" lon="6.00257">
        <ele>1348.5999755859</ele>
        <time>2021-01-02T08:18:24.000Z</time>
      </trkpt>
      <trkpt lat="45.22309" lon="6.00259">
        <ele>1349</ele>
        <time>2021-01-02T08:18:26.000Z</time>
      </trkpt>
      <trkpt lat="45.2231" lon="6.00264">
        <ele>1350</ele>
        <time>2021-01-02T08:18:32.000Z</time>
      </trkpt>
      <trkpt lat="45.2231" lon="6.00265">
        <ele>1350.1999511719</ele>
        <time>2021-01-02T08:18:33.000Z</time>
      </trkpt>
      <trkpt lat="45.22312" lon="6.0027">
        <ele>1351.1999511719</ele>
        <time>2021-01-02T08:18:39.000Z</time>
      </trkpt>
      <trkpt lat="45.22313" lon="6.00273">
        <ele>1351.8000488281</ele>
        <time>2021-01-02T08:18:43.000Z</time>
      </trkpt>
      <trkpt lat="45.22315" lon="6.00277">
        <ele>1352.1999511719</ele>
        <time>2021-01-02T08:18:46.000Z</time>
      </trkpt>
      <trkpt lat="45.22317" lon="6.00285">
        <ele>1353.4000244141</ele>
        <time>2021-01-02T08:18:53.000Z</time>
      </trkpt>
      <trkpt lat="45.22318" lon="6.00295">
        <ele>1354.4000244141</ele>
        <time>2021-01-02T08:19:00.000Z</time>
      </trkpt>
      <trkpt lat="45.22317" lon="6.00297">
        <ele>1354.8000488281</ele>
        <time>2021-01-02T08:19:02.000Z</time>
      </trkpt>
      <trkpt lat="45.22316" lon="6.003">
        <ele>1355.4000244141</ele>
        <time>2021-01-02T08:19:06.000Z</time>
      </trkpt>
      <trkpt lat="45.22316" lon="6.00303">
        <ele>1356</ele>
        <time>2021-01-02T08:19:11.000Z</time>
      </trkpt>
      <trkpt lat="45.22315" lon="6.00307">
        <ele>1356.5999755859</ele>
        <time>2021-01-02T08:19:15.000Z</time>
      </trkpt>
      <trkpt lat="45.22312" lon="6.00314">
        <ele>1357.1999511719</ele>
        <time>2021-01-02T08:19:20.000Z</time>
      </trkpt>
      <trkpt lat="45.22311" lon="6.0032">
        <ele>1357.5999755859</ele>
        <time>2021-01-02T08:19:23.000Z</time>
      </trkpt>
      <trkpt lat="45.2231" lon="6.00326">
        <ele>1358.5999755859</ele>
        <time>2021-01-02T08:19:29.000Z</time>
      </trkpt>
      <trkpt lat="45.2231" lon="6.00327">
        <ele>1358.5999755859</ele>
        <time>2021-01-02T08:19:30.000Z</time>
      </trkpt>
      <trkpt lat="45.22311" lon="6.00333">
        <ele>1359.4000244141</ele>
        <time>2021-01-02T08:19:36.000Z</time>
      </trkpt>
      <trkpt lat="45.2231" lon="6.00337">
        <ele>1359.8000488281</ele>
        <time>2021-01-02T08:19:39.000Z</time>
      </trkpt>
      <trkpt lat="45.2231" lon="6.0034">
        <ele>1360.4000244141</ele>
        <time>2021-01-02T08:19:43.000Z</time>
      </trkpt>
      <trkpt lat="45.22311" lon="6.00344">
        <ele>1360.8000488281</ele>
        <time>2021-01-02T08:19:47.000Z</time>
      </trkpt>
      <trkpt lat="45.2231" lon="6.00349">
        <ele>1361.8000488281</ele>
        <time>2021-01-02T08:19:53.000Z</time>
      </trkpt>
      <trkpt lat="45.2231" lon="6.00349">
        <ele>1362</ele>
        <time>2021-01-02T08:19:54.000Z</time>
      </trkpt>
      <trkpt lat="45.2231" lon="6.00355">
        <ele>1363</ele>
        <time>2021-01-02T08:20:00.000Z</time>
      </trkpt>
      <trkpt lat="45.2231" lon="6.00357">
        <ele>1363.1999511719</ele>
        <time>2021-01-02T08:20:02.000Z</time>
      </trkpt>
      <trkpt lat="45.2231" lon="6.00361">
        <ele>1364.1999511719</ele>
        <time>2021-01-02T08:20:08.000Z</time>
      </trkpt>
      <trkpt lat="45.2231" lon="6.00362">
        <ele>1364.4000244141</ele>
        <time>2021-01-02T08:20:10.000Z</time>
      </trkpt>
      <trkpt lat="45.22309" lon="6.00364">
        <ele>1365.1999511719</ele>
        <time>2021-01-02T08:20:14.000Z</time>
      </trkpt>
      <trkpt lat="45.22307" lon="6.00369">
        <ele>1366.4000244141</ele>
        <time>2021-01-02T08:20:20.000Z</time>
      </trkpt>
      <trkpt lat="45.22302" lon="6.00379">
        <ele>1367.5999755859</ele>
        <time>2021-01-02T08:20:28.000Z</time>
      </trkpt>
      <trkpt lat="45.22301" lon="6.00381">
        <ele>1367.8000488281</ele>
        <time>2021-01-02T08:20:30.000Z</time>
      </trkpt>
      <trkpt lat="45.22299" lon="6.00385">
        <ele>1368.5999755859</ele>
        <time>2021-01-02T08:20:34.000Z</time>
      </trkpt>
      <trkpt lat="45.22298" lon="6.00389">
        <ele>1369.8000488281</ele>
        <time>2021-01-02T08:20:38.000Z</time>
      </trkpt>
      <trkpt lat="45.22297" lon="6.00389">
        <ele>1370</ele>
        <time>2021-01-02T08:20:39.000Z</time>
      </trkpt>
      <trkpt lat="45.22297" lon="6.0039">
        <ele>1370.8000488281</ele>
        <time>2021-01-02T08:20:43.000Z</time>
      </trkpt>
      <trkpt lat="45.22297" lon="6.0039">
        <ele>1371.5999755859</ele>
        <time>2021-01-02T08:20:49.000Z</time>
      </trkpt>
      <trkpt lat="45.22292" lon="6.00394">
        <ele>1372</ele>
        <time>2021-01-02T08:20:57.000Z</time>
      </trkpt>
      <trkpt lat="45.22289" lon="6.00395">
        <ele>1373.1999511719</ele>
        <time>2021-01-02T08:21:02.000Z</time>
      </trkpt>
      <trkpt lat="45.22288" lon="6.00395">
        <ele>1373.4000244141</ele>
        <time>2021-01-02T08:21:04.000Z</time>
      </trkpt>
      <trkpt lat="45.22287" lon="6.00395">
        <ele>1374.1999511719</ele>
        <time>2021-01-02T08:21:10.000Z</time>
      </trkpt>
      <trkpt lat="45.22286" lon="6.00396">
        <ele>1374.5999755859</ele>
        <time>2021-01-02T08:21:12.000Z</time>
      </trkpt>
      <trkpt lat="45.22285" lon="6.00399">
        <ele>1375.1999511719</ele>
        <time>2021-01-02T08:21:16.000Z</time>
      </trkpt>
      <trkpt lat="45.22284" lon="6.00401">
        <ele>1375.5999755859</ele>
        <time>2021-01-02T08:21:19.000Z</time>
      </trkpt>
      <trkpt lat="45.22282" lon="6.00404">
        <ele>1376.4000244141</ele>
        <time>2021-01-02T08:21:24.000Z</time>
      </trkpt>
      <trkpt lat="45.22281" lon="6.00405">
        <ele>1377</ele>
        <time>2021-01-02T08:21:27.000Z</time>
      </trkpt>
      <trkpt lat="45.2228" lon="6.00406">
        <ele>1377.5999755859</ele>
        <time>2021-01-02T08:21:30.000Z</time>
      </trkpt>
      <trkpt lat="45.22279" lon="6.00408">
        <ele>1378.5999755859</ele>
        <time>2021-01-02T08:21:36.000Z</time>
      </trkpt>
      <trkpt lat="45.22275" lon="6.00412">
        <ele>1379.5999755859</ele>
        <time>2021-01-02T08:21:43.000Z</time>
      </trkpt>
      <trkpt lat="45.22274" lon="6.00412">
        <ele>1380</ele>
        <time>2021-01-02T08:21:45.000Z</time>
      </trkpt>
      <trkpt lat="45.22273" lon="6.00412">
        <ele>1380.5999755859</ele>
        <time>2021-01-02T08:21:49.000Z</time>
      </trkpt>
      <trkpt lat="45.22272" lon="6.00413">
        <ele>1381.4000244141</ele>
        <time>2021-01-02T08:21:53.000Z</time>
      </trkpt>
      <trkpt lat="45.22271" lon="6.00414">
        <ele>1381.8000488281</ele>
        <time>2021-01-02T08:21:55.000Z</time>
      </trkpt>
      <trkpt lat="45.22267" lon="6.00416">
        <ele>1382.4000244141</ele>
        <time>2021-01-02T08:22:01.000Z</time>
      </trkpt>
      <trkpt lat="45.22267" lon="6.00416">
        <ele>1382.8000488281</ele>
        <time>2021-01-02T08:22:03.000Z</time>
      </trkpt>
      <trkpt lat="45.22266" lon="6.0042">
        <ele>1383.5999755859</ele>
        <time>2021-01-02T08:22:08.000Z</time>
      </trkpt>
      <trkpt lat="45.22266" lon="6.00421">
        <ele>1383.8000488281</ele>
        <time>2021-01-02T08:22:10.000Z</time>
      </trkpt>
      <trkpt lat="45.22266" lon="6.00423">
        <ele>1385</ele>
        <time>2021-01-02T08:22:15.000Z</time>
      </trkpt>
      <trkpt lat="45.22265" lon="6.00425">
        <ele>1385.1999511719</ele>
        <time>2021-01-02T08:22:17.000Z</time>
      </trkpt>
      <trkpt lat="45.22264" lon="6.00427">
        <ele>1386</ele>
        <time>2021-01-02T08:22:22.000Z</time>
      </trkpt>
      <trkpt lat="45.22264" lon="6.00427">
        <ele>1386.1999511719</ele>
        <time>2021-01-02T08:22:24.000Z</time>
      </trkpt>
      <trkpt lat="45.22263" lon="6.00428">
        <ele>1387</ele>
        <time>2021-01-02T08:22:29.000Z</time>
      </trkpt>
      <trkpt lat="45.22263" lon="6.00429">
        <ele>1387.5999755859</ele>
        <time>2021-01-02T08:22:32.000Z</time>
      </trkpt>
      <trkpt lat="45.22262" lon="6.00432">
        <ele>1388</ele>
        <time>2021-01-02T08:22:35.000Z</time>
      </trkpt>
      <trkpt lat="45.22261" lon="6.00432">
        <ele>1388.8000488281</ele>
        <time>2021-01-02T08:22:39.000Z</time>
      </trkpt>
      <trkpt lat="45.2226" lon="6.00433">
        <ele>1389.1999511719</ele>
        <time>2021-01-02T08:22:41.000Z</time>
      </trkpt>
      <trkpt lat="45.22258" lon="6.00433">
        <ele>1390.1999511719</ele>
        <time>2021-01-02T08:22:47.000Z</time>
      </trkpt>
      <trkpt lat="45.22251" lon="6.00433">
        <ele>1391.1999511719</ele>
        <time>2021-01-02T08:22:54.000Z</time>
      </trkpt>
      <trkpt lat="45.2225" lon="6.00433">
        <ele>1391.5999755859</ele>
        <time>2021-01-02T08:22:56.000Z</time>
      </trkpt>
      <trkpt lat="45.22246" lon="6.00432">
        <ele>1392.4000244141</ele>
        <time>2021-01-02T08:23:01.000Z</time>
      </trkpt>
      <trkpt lat="45.22244" lon="6.00432">
        <ele>1392.8000488281</ele>
        <time>2021-01-02T08:23:03.000Z</time>
      </trkpt>
      <trkpt lat="45.22242" lon="6.00431">
        <ele>1393.5999755859</ele>
        <time>2021-01-02T08:23:07.000Z</time>
      </trkpt>
      <trkpt lat="45.22241" lon="6.00431">
        <ele>1394</ele>
        <time>2021-01-02T08:23:10.000Z</time>
      </trkpt>
      <trkpt lat="45.22238" lon="6.0043">
        <ele>1394.5999755859</ele>
        <time>2021-01-02T08:23:15.000Z</time>
      </trkpt>
      <trkpt lat="45.22237" lon="6.00429">
        <ele>1394.8000488281</ele>
        <time>2021-01-02T08:23:17.000Z</time>
      </trkpt>
      <trkpt lat="45.22235" lon="6.00431">
        <ele>1395.8000488281</ele>
        <time>2021-01-02T08:23:22.000Z</time>
      </trkpt>
      <trkpt lat="45.22233" lon="6.00435">
        <ele>1396.5999755859</ele>
        <time>2021-01-02T08:23:26.000Z</time>
      </trkpt>
      <trkpt lat="45.22232" lon="6.00436">
        <ele>1396.8000488281</ele>
        <time>2021-01-02T08:23:27.000Z</time>
      </trkpt>
      <trkpt lat="45.22231" lon="6.0044">
        <ele>1397.8000488281</ele>
        <time>2021-01-02T08:23:34.000Z</time>
      </trkpt>
      <trkpt lat="45.22231" lon="6.0044">
        <ele>1398</ele>
        <time>2021-01-02T08:23:35.000Z</time>
      </trkpt>
      <trkpt lat="45.22231" lon="6.00444">
        <ele>1399</ele>
        <time>2021-01-02T08:23:41.000Z</time>
      </trkpt>
      <trkpt lat="45.22231" lon="6.00448">
        <ele>1399.4000244141</ele>
        <time>2021-01-02T08:23:44.000Z</time>
      </trkpt>
      <trkpt lat="45.2223" lon="6.0045">
        <ele>1400</ele>
        <time>2021-01-02T08:23:48.000Z</time>
      </trkpt>
      <trkpt lat="45.2223" lon="6.00453">
        <ele>1401</ele>
        <time>2021-01-02T08:23:53.000Z</time>
      </trkpt>
      <trkpt lat="45.2223" lon="6.00454">
        <ele>1401.1999511719</ele>
        <time>2021-01-02T08:23:54.000Z</time>
      </trkpt>
      <trkpt lat="45.22232" lon="6.00458">
        <ele>1402.1999511719</ele>
        <time>2021-01-02T08:24:00.000Z</time>
      </trkpt>
      <trkpt lat="45.22232" lon="6.0046">
        <ele>1402.4000244141</ele>
        <time>2021-01-02T08:24:02.000Z</time>
      </trkpt>
      <trkpt lat="45.22232" lon="6.00463">
        <ele>1403.1999511719</ele>
        <time>2021-01-02T08:24:08.000Z</time>
      </trkpt>
      <trkpt lat="45.22232" lon="6.00465">
        <ele>1403.8000488281</ele>
        <time>2021-01-02T08:24:11.000Z</time>
      </trkpt>
      <trkpt lat="45.22232" lon="6.00465">
        <ele>1404.4000244141</ele>
        <time>2021-01-02T08:24:14.000Z</time>
      </trkpt>
      <trkpt lat="45.22231" lon="6.0047">
        <ele>1405.1999511719</ele>
        <time>2021-01-02T08:24:20.000Z</time>
      </trkpt>
      <trkpt lat="45.22231" lon="6.0047">
        <ele>1405.4000244141</ele>
        <time>2021-01-02T08:24:21.000Z</time>
      </trkpt>
      <trkpt lat="45.22232" lon="6.00478">
        <ele>1406.5999755859</ele>
        <time>2021-01-02T08:24:28.000Z</time>
      </trkpt>
      <trkpt lat="45.22232" lon="6.00479">
        <ele>1406.5999755859</ele>
        <time>2021-01-02T08:24:29.000Z</time>
      </trkpt>
      <trkpt lat="45.22233" lon="6.0048">
        <ele>1407.5999755859</ele>
        <time>2021-01-02T08:24:35.000Z</time>
      </trkpt>
      <trkpt lat="45.22233" lon="6.0048">
        <ele>1407.5999755859</ele>
        <time>2021-01-02T08:24:36.000Z</time>
      </trkpt>
      <trkpt lat="45.22233" lon="6.0048">
        <ele>1407.5999755859</ele>
        <time>2021-01-02T08:24:39.000Z</time>
      </trkpt>
      <trkpt lat="45.22234" lon="6.0048">
        <ele>1407.5999755859</ele>
        <time>2021-01-02T08:24:40.000Z</time>
      </trkpt>
      <trkpt lat="45.22233" lon="6.0048">
        <ele>1407</ele>
        <time>2021-01-02T08:24:44.000Z</time>
      </trkpt>
      <trkpt lat="45.22233" lon="6.0048">
        <ele>1406.4000244141</ele>
        <time>2021-01-02T08:24:48.000Z</time>
      </trkpt>
      <trkpt lat="45.22233" lon="6.0048">
        <ele>1406.1999511719</ele>
        <time>2021-01-02T08:24:53.000Z</time>
      </trkpt>
      <trkpt lat="45.22233" lon="6.0048">
        <ele>1405.1999511719</ele>
        <time>2021-01-02T08:24:56.000Z</time>
      </trkpt>
      <trkpt lat="45.22233" lon="6.0048">
        <ele>1406.5999755859</ele>
        <time>2021-01-02T08:25:01.000Z</time>
      </trkpt>
      <trkpt lat="45.22233" lon="6.0048">
        <ele>1407</ele>
        <time>2021-01-02T08:25:07.000Z</time>
      </trkpt>
      <trkpt lat="45.22233" lon="6.0048">
        <ele>1407</ele>
        <time>2021-01-02T08:25:19.000Z</time>
      </trkpt>
      <trkpt lat="45.22233" lon="6.00479">
        <ele>1407.1999511719</ele>
        <time>2021-01-02T08:25:24.000Z</time>
      </trkpt>
      <trkpt lat="45.22233" lon="6.00479">
        <ele>1407.5999755859</ele>
        <time>2021-01-02T08:25:26.000Z</time>
      </trkpt>
      <trkpt lat="45.22233" lon="6.00479">
        <ele>1408</ele>
        <time>2021-01-02T08:25:32.000Z</time>
      </trkpt>
      <trkpt lat="45.22233" lon="6.00481">
        <ele>1407.8000488281</ele>
        <time>2021-01-02T08:25:39.000Z</time>
      </trkpt>
      <trkpt lat="45.22233" lon="6.00486">
        <ele>1408</ele>
        <time>2021-01-02T08:25:43.000Z</time>
      </trkpt>
      <trkpt lat="45.22233" lon="6.00487">
        <ele>1408</ele>
        <time>2021-01-02T08:25:44.000Z</time>
      </trkpt>
      <trkpt lat="45.22235" lon="6.00493">
        <ele>1408.8000488281</ele>
        <time>2021-01-02T08:25:48.000Z</time>
      </trkpt>
      <trkpt lat="45.22236" lon="6.00496">
        <ele>1409.1999511719</ele>
        <time>2021-01-02T08:25:50.000Z</time>
      </trkpt>
      <trkpt lat="45.22238" lon="6.005">
        <ele>1410</ele>
        <time>2021-01-02T08:25:53.000Z</time>
      </trkpt>
      <trkpt lat="45.22241" lon="6.00504">
        <ele>1410.4000244141</ele>
        <time>2021-01-02T08:25:56.000Z</time>
      </trkpt>
      <trkpt lat="45.22243" lon="6.00507">
        <ele>1411</ele>
        <time>2021-01-02T08:25:59.000Z</time>
      </trkpt>
      <trkpt lat="45.22243" lon="6.00508">
        <ele>1411.1999511719</ele>
        <time>2021-01-02T08:26:00.000Z</time>
      </trkpt>
      <trkpt lat="45.22244" lon="6.0051">
        <ele>1411.5999755859</ele>
        <time>2021-01-02T08:26:02.000Z</time>
      </trkpt>
      <trkpt lat="45.22243" lon="6.00513">
        <ele>1412.1999511719</ele>
        <time>2021-01-02T08:26:05.000Z</time>
      </trkpt>
      <trkpt lat="45.22241" lon="6.00514">
        <ele>1412.5999755859</ele>
        <time>2021-01-02T08:26:07.000Z</time>
      </trkpt>
      <trkpt lat="45.22238" lon="6.00512">
        <ele>1413.4000244141</ele>
        <time>2021-01-02T08:26:10.000Z</time>
      </trkpt>
      <trkpt lat="45.22233" lon="6.00512">
        <ele>1414.4000244141</ele>
        <time>2021-01-02T08:26:14.000Z</time>
      </trkpt>
      <trkpt lat="45.22231" lon="6.00512">
        <ele>1414.8000488281</ele>
        <time>2021-01-02T08:26:16.000Z</time>
      </trkpt>
      <trkpt lat="45.22225" lon="6.0051">
        <ele>1415.4000244141</ele>
        <time>2021-01-02T08:26:21.000Z</time>
      </trkpt>
      <trkpt lat="45.22224" lon="6.0051">
        <ele>1415.5999755859</ele>
        <time>2021-01-02T08:26:22.000Z</time>
      </trkpt>
      <trkpt lat="45.22217" lon="6.00507">
        <ele>1416.4000244141</ele>
        <time>2021-01-02T08:26:29.000Z</time>
      </trkpt>
      <trkpt lat="45.22216" lon="6.00506">
        <ele>1416.5999755859</ele>
        <time>2021-01-02T08:26:30.000Z</time>
      </trkpt>
      <trkpt lat="45.22212" lon="6.00502">
        <ele>1417.4000244141</ele>
        <time>2021-01-02T08:26:35.000Z</time>
      </trkpt>
      <trkpt lat="45.22211" lon="6.00501">
        <ele>1417.5999755859</ele>
        <time>2021-01-02T08:26:36.000Z</time>
      </trkpt>
      <trkpt lat="45.22207" lon="6.00497">
        <ele>1418.5999755859</ele>
        <time>2021-01-02T08:26:41.000Z</time>
      </trkpt>
      <trkpt lat="45.22206" lon="6.00496">
        <ele>1418.8000488281</ele>
        <time>2021-01-02T08:26:42.000Z</time>
      </trkpt>
      <trkpt lat="45.22203" lon="6.00492">
        <ele>1419.8000488281</ele>
        <time>2021-01-02T08:26:47.000Z</time>
      </trkpt>
      <trkpt lat="45.22202" lon="6.0049">
        <ele>1420</ele>
        <time>2021-01-02T08:26:49.000Z</time>
      </trkpt>
      <trkpt lat="45.222" lon="6.00488">
        <ele>1420.5999755859</ele>
        <time>2021-01-02T08:26:52.000Z</time>
      </trkpt>
      <trkpt lat="45.22199" lon="6.00487">
        <ele>1420.8000488281</ele>
        <time>2021-01-02T08:26:53.000Z</time>
      </trkpt>
      <trkpt lat="45.22198" lon="6.00487">
        <ele>1421</ele>
        <time>2021-01-02T08:26:54.000Z</time>
      </trkpt>
      <trkpt lat="45.22198" lon="6.00487">
        <ele>1421.1999511719</ele>
        <time>2021-01-02T08:26:55.000Z</time>
      </trkpt>
      <trkpt lat="45.22196" lon="6.00489">
        <ele>1422</ele>
        <time>2021-01-02T08:26:58.000Z</time>
      </trkpt>
      <trkpt lat="45.22196" lon="6.00492">
        <ele>1422.4000244141</ele>
        <time>2021-01-02T08:27:00.000Z</time>
      </trkpt>
      <trkpt lat="45.22196" lon="6.00496">
        <ele>1423</ele>
        <time>2021-01-02T08:27:03.000Z</time>
      </trkpt>
      <trkpt lat="45.22196" lon="6.00497">
        <ele>1423.4000244141</ele>
        <time>2021-01-02T08:27:05.000Z</time>
      </trkpt>
      <trkpt lat="45.22196" lon="6.00501">
        <ele>1424</ele>
        <time>2021-01-02T08:27:08.000Z</time>
      </trkpt>
      <trkpt lat="45.22196" lon="6.00505">
        <ele>1424.8000488281</ele>
        <time>2021-01-02T08:27:11.000Z</time>
      </trkpt>
      <trkpt lat="45.22196" lon="6.00507">
        <ele>1425</ele>
        <time>2021-01-02T08:27:13.000Z</time>
      </trkpt>
      <trkpt lat="45.22196" lon="6.00513">
        <ele>1426.1999511719</ele>
        <time>2021-01-02T08:27:18.000Z</time>
      </trkpt>
      <trkpt lat="45.22196" lon="6.0052">
        <ele>1427.1999511719</ele>
        <time>2021-01-02T08:27:24.000Z</time>
      </trkpt>
      <trkpt lat="45.22197" lon="6.00521">
        <ele>1427.4000244141</ele>
        <time>2021-01-02T08:27:25.000Z</time>
      </trkpt>
      <trkpt lat="45.22197" lon="6.00526">
        <ele>1428.1999511719</ele>
        <time>2021-01-02T08:27:28.000Z</time>
      </trkpt>
      <trkpt lat="45.22197" lon="6.00528">
        <ele>1428.8000488281</ele>
        <time>2021-01-02T08:27:30.000Z</time>
      </trkpt>
      <trkpt lat="45.22198" lon="6.00531">
        <ele>1429.4000244141</ele>
        <time>2021-01-02T08:27:33.000Z</time>
      </trkpt>
      <trkpt lat="45.22198" lon="6.00533">
        <ele>1430.1999511719</ele>
        <time>2021-01-02T08:27:36.000Z</time>
      </trkpt>
      <trkpt lat="45.22197" lon="6.00536">
        <ele>1430.5999755859</ele>
        <time>2021-01-02T08:27:38.000Z</time>
      </trkpt>
      <trkpt lat="45.22198" lon="6.00541">
        <ele>1431.5999755859</ele>
        <time>2021-01-02T08:27:42.000Z</time>
      </trkpt>
      <trkpt lat="45.22197" lon="6.00546">
        <ele>1432.8000488281</ele>
        <time>2021-01-02T08:27:47.000Z</time>
      </trkpt>
      <trkpt lat="45.22197" lon="6.00548">
        <ele>1433.1999511719</ele>
        <time>2021-01-02T08:27:49.000Z</time>
      </trkpt>
      <trkpt lat="45.22198" lon="6.0055">
        <ele>1434</ele>
        <time>2021-01-02T08:27:51.000Z</time>
      </trkpt>
      <trkpt lat="45.22198" lon="6.00555">
        <ele>1434.8000488281</ele>
        <time>2021-01-02T08:27:55.000Z</time>
      </trkpt>
      <trkpt lat="45.22198" lon="6.00556">
        <ele>1435.1999511719</ele>
        <time>2021-01-02T08:27:56.000Z</time>
      </trkpt>
      <trkpt lat="45.22197" lon="6.00563">
        <ele>1436</ele>
        <time>2021-01-02T08:28:01.000Z</time>
      </trkpt>
      <trkpt lat="45.22197" lon="6.00563">
        <ele>1436.1999511719</ele>
        <time>2021-01-02T08:28:02.000Z</time>
      </trkpt>
      <trkpt lat="45.22197" lon="6.0057">
        <ele>1437.4000244141</ele>
        <time>2021-01-02T08:28:07.000Z</time>
      </trkpt>
      <trkpt lat="45.22195" lon="6.00576">
        <ele>1438.4000244141</ele>
        <time>2021-01-02T08:28:13.000Z</time>
      </trkpt>
      <trkpt lat="45.22195" lon="6.00578">
        <ele>1438.5999755859</ele>
        <time>2021-01-02T08:28:14.000Z</time>
      </trkpt>
      <trkpt lat="45.22194" lon="6.00584">
        <ele>1439.1999511719</ele>
        <time>2021-01-02T08:28:19.000Z</time>
      </trkpt>
      <trkpt lat="45.22194" lon="6.00585">
        <ele>1439.1999511719</ele>
        <time>2021-01-02T08:28:20.000Z</time>
      </trkpt>
      <trkpt lat="45.22194" lon="6.00588">
        <ele>1439.4000244141</ele>
        <time>2021-01-02T08:28:23.000Z</time>
      </trkpt>
      <trkpt lat="45.22194" lon="6.00592">
        <ele>1439.5999755859</ele>
        <time>2021-01-02T08:28:26.000Z</time>
      </trkpt>
      <trkpt lat="45.22195" lon="6.00599">
        <ele>1440.4000244141</ele>
        <time>2021-01-02T08:28:32.000Z</time>
      </trkpt>
      <trkpt lat="45.22195" lon="6.006">
        <ele>1440.5999755859</ele>
        <time>2021-01-02T08:28:33.000Z</time>
      </trkpt>
      <trkpt lat="45.22197" lon="6.00606">
        <ele>1441.4000244141</ele>
        <time>2021-01-02T08:28:39.000Z</time>
      </trkpt>
      <trkpt lat="45.22197" lon="6.00608">
        <ele>1441.5999755859</ele>
        <time>2021-01-02T08:28:40.000Z</time>
      </trkpt>
      <trkpt lat="45.22197" lon="6.00614">
        <ele>1442.4000244141</ele>
        <time>2021-01-02T08:28:47.000Z</time>
      </trkpt>
      <trkpt lat="45.22197" lon="6.00615">
        <ele>1442.4000244141</ele>
        <time>2021-01-02T08:28:48.000Z</time>
      </trkpt>
      <trkpt lat="45.22198" lon="6.0062">
        <ele>1443.4000244141</ele>
        <time>2021-01-02T08:28:54.000Z</time>
      </trkpt>
      <trkpt lat="45.22198" lon="6.00621">
        <ele>1443.4000244141</ele>
        <time>2021-01-02T08:28:55.000Z</time>
      </trkpt>
      <trkpt lat="45.22198" lon="6.00623">
        <ele>1443.5999755859</ele>
        <time>2021-01-02T08:28:56.000Z</time>
      </trkpt>
      <trkpt lat="45.22199" lon="6.00627">
        <ele>1444.4000244141</ele>
        <time>2021-01-02T08:29:01.000Z</time>
      </trkpt>
      <trkpt lat="45.22199" lon="6.00628">
        <ele>1444.8000488281</ele>
        <time>2021-01-02T08:29:03.000Z</time>
      </trkpt>
      <trkpt lat="45.22199" lon="6.00633">
        <ele>1445.4000244141</ele>
        <time>2021-01-02T08:29:08.000Z</time>
      </trkpt>
      <trkpt lat="45.22199" lon="6.00636">
        <ele>1445.8000488281</ele>
        <time>2021-01-02T08:29:12.000Z</time>
      </trkpt>
      <trkpt lat="45.222" lon="6.0064">
        <ele>1446.4000244141</ele>
        <time>2021-01-02T08:29:16.000Z</time>
      </trkpt>
      <trkpt lat="45.222" lon="6.00643">
        <ele>1447</ele>
        <time>2021-01-02T08:29:20.000Z</time>
      </trkpt>
      <trkpt lat="45.22201" lon="6.00645">
        <ele>1447.1999511719</ele>
        <time>2021-01-02T08:29:23.000Z</time>
      </trkpt>
      <trkpt lat="45.22199" lon="6.00648">
        <ele>1448</ele>
        <time>2021-01-02T08:29:29.000Z</time>
      </trkpt>
      <trkpt lat="45.22198" lon="6.0065">
        <ele>1448.1999511719</ele>
        <time>2021-01-02T08:29:31.000Z</time>
      </trkpt>
      <trkpt lat="45.22197" lon="6.00654">
        <ele>1448.5999755859</ele>
        <time>2021-01-02T08:29:33.000Z</time>
      </trkpt>
      <trkpt lat="45.22197" lon="6.00659">
        <ele>1449</ele>
        <time>2021-01-02T08:29:36.000Z</time>
      </trkpt>
      <trkpt lat="45.22197" lon="6.00665">
        <ele>1450.1999511719</ele>
        <time>2021-01-02T08:29:40.000Z</time>
      </trkpt>
      <trkpt lat="45.22197" lon="6.00667">
        <ele>1450.5999755859</ele>
        <time>2021-01-02T08:29:41.000Z</time>
      </trkpt>
      <trkpt lat="45.22196" lon="6.00668">
        <ele>1450.8000488281</ele>
        <time>2021-01-02T08:29:42.000Z</time>
      </trkpt>
      <trkpt lat="45.22196" lon="6.00671">
        <ele>1451.1999511719</ele>
        <time>2021-01-02T08:29:44.000Z</time>
      </trkpt>
      <trkpt lat="45.22197" lon="6.00676">
        <ele>1452.4000244141</ele>
        <time>2021-01-02T08:29:48.000Z</time>
      </trkpt>
      <trkpt lat="45.22197" lon="6.0068">
        <ele>1453.4000244141</ele>
        <time>2021-01-02T08:29:51.000Z</time>
      </trkpt>
      <trkpt lat="45.22197" lon="6.00685">
        <ele>1454.1999511719</ele>
        <time>2021-01-02T08:29:54.000Z</time>
      </trkpt>
      <trkpt lat="45.22197" lon="6.00686">
        <ele>1454.5999755859</ele>
        <time>2021-01-02T08:29:55.000Z</time>
      </trkpt>
      <trkpt lat="45.22196" lon="6.00688">
        <ele>1454.8000488281</ele>
        <time>2021-01-02T08:29:56.000Z</time>
      </trkpt>
      <trkpt lat="45.22196" lon="6.00692">
        <ele>1455.5999755859</ele>
        <time>2021-01-02T08:29:59.000Z</time>
      </trkpt>
      <trkpt lat="45.22196" lon="6.00695">
        <ele>1456.1999511719</ele>
        <time>2021-01-02T08:30:01.000Z</time>
      </trkpt>
      <trkpt lat="45.22196" lon="6.00698">
        <ele>1456.5999755859</ele>
        <time>2021-01-02T08:30:03.000Z</time>
      </trkpt>
      <trkpt lat="45.22195" lon="6.00701">
        <ele>1457.4000244141</ele>
        <time>2021-01-02T08:30:06.000Z</time>
      </trkpt>
      <trkpt lat="45.22195" lon="6.00703">
        <ele>1457.8000488281</ele>
        <time>2021-01-02T08:30:07.000Z</time>
      </trkpt>
      <trkpt lat="45.22196" lon="6.00704">
        <ele>1458</ele>
        <time>2021-01-02T08:30:08.000Z</time>
      </trkpt>
      <trkpt lat="45.22196" lon="6.00708">
        <ele>1458.8000488281</ele>
        <time>2021-01-02T08:30:11.000Z</time>
      </trkpt>
      <trkpt lat="45.22196" lon="6.00713">
        <ele>1459.5999755859</ele>
        <time>2021-01-02T08:30:14.000Z</time>
      </trkpt>
      <trkpt lat="45.22196" lon="6.00714">
        <ele>1460.4000244141</ele>
        <time>2021-01-02T08:30:15.000Z</time>
      </trkpt>
      <trkpt lat="45.22196" lon="6.00719">
        <ele>1461.4000244141</ele>
        <time>2021-01-02T08:30:19.000Z</time>
      </trkpt>
      <trkpt lat="45.22196" lon="6.00721">
        <ele>1462</ele>
        <time>2021-01-02T08:30:21.000Z</time>
      </trkpt>
      <trkpt lat="45.22196" lon="6.00722">
        <ele>1462.5999755859</ele>
        <time>2021-01-02T08:30:23.000Z</time>
      </trkpt>
      <trkpt lat="45.22196" lon="6.00722">
        <ele>1463.4000244141</ele>
        <time>2021-01-02T08:30:27.000Z</time>
      </trkpt>
      <trkpt lat="45.22196" lon="6.00722">
        <ele>1463.5999755859</ele>
        <time>2021-01-02T08:30:29.000Z</time>
      </trkpt>
      <trkpt lat="45.22196" lon="6.00722">
        <ele>1463.4000244141</ele>
        <time>2021-01-02T08:30:32.000Z</time>
      </trkpt>
      <trkpt lat="45.22196" lon="6.00722">
        <ele>1462</ele>
        <time>2021-01-02T08:30:35.000Z</time>
      </trkpt>
      <trkpt lat="45.22196" lon="6.00722">
        <ele>1460.8000488281</ele>
        <time>2021-01-02T08:30:38.000Z</time>
      </trkpt>
      <trkpt lat="45.22196" lon="6.00722">
        <ele>1462.5999755859</ele>
        <time>2021-01-02T08:30:39.000Z</time>
      </trkpt>
      <trkpt lat="45.22196" lon="6.00722">
        <ele>1464</ele>
        <time>2021-01-02T08:30:41.000Z</time>
      </trkpt>
      <trkpt lat="45.22196" lon="6.00722">
        <ele>1463</ele>
        <time>2021-01-02T08:30:49.000Z</time>
      </trkpt>
      <trkpt lat="45.22196" lon="6.00722">
        <ele>1463</ele>
        <time>2021-01-02T08:30:58.000Z</time>
      </trkpt>
      <trkpt lat="45.22196" lon="6.00722">
        <ele>1463</ele>
        <time>2021-01-02T08:31:12.000Z</time>
      </trkpt>
      <trkpt lat="45.22196" lon="6.00722">
        <ele>1463.1999511719</ele>
        <time>2021-01-02T08:31:28.000Z</time>
      </trkpt>
      <trkpt lat="45.22196" lon="6.00722">
        <ele>1462.8000488281</ele>
        <time>2021-01-02T08:31:38.000Z</time>
      </trkpt>
      <trkpt lat="45.22195" lon="6.00722">
        <ele>1463</ele>
        <time>2021-01-02T08:31:50.000Z</time>
      </trkpt>
      <trkpt lat="45.22196" lon="6.00723">
        <ele>1463.4000244141</ele>
        <time>2021-01-02T08:31:55.000Z</time>
      </trkpt>
      <trkpt lat="45.22196" lon="6.00723">
        <ele>1464</ele>
        <time>2021-01-02T08:32:03.000Z</time>
      </trkpt>
      <trkpt lat="45.22196" lon="6.00723">
        <ele>1464</ele>
        <time>2021-01-02T08:32:04.000Z</time>
      </trkpt>
      <trkpt lat="45.22196" lon="6.00723">
        <ele>1464</ele>
        <time>2021-01-02T08:32:12.000Z</time>
      </trkpt>
      <trkpt lat="45.22195" lon="6.00723">
        <ele>1464</ele>
        <time>2021-01-02T08:32:14.000Z</time>
      </trkpt>
      <trkpt lat="45.22195" lon="6.00723">
        <ele>1464</ele>
        <time>2021-01-02T08:32:15.000Z</time>
      </trkpt>
      <trkpt lat="45.22195" lon="6.00723">
        <ele>1464</ele>
        <time>2021-01-02T08:32:20.000Z</time>
      </trkpt>
      <trkpt lat="45.22195" lon="6.00725">
        <ele>1464</ele>
        <time>2021-01-02T08:32:26.000Z</time>
      </trkpt>
      <trkpt lat="45.22195" lon="6.00727">
        <ele>1464.4000244141</ele>
        <time>2021-01-02T08:32:35.000Z</time>
      </trkpt>
      <trkpt lat="45.22196" lon="6.0073">
        <ele>1464.4000244141</ele>
        <time>2021-01-02T08:32:38.000Z</time>
      </trkpt>
      <trkpt lat="45.22196" lon="6.00733">
        <ele>1464.8000488281</ele>
        <time>2021-01-02T08:32:40.000Z</time>
      </trkpt>
      <trkpt lat="45.22196" lon="6.00736">
        <ele>1465.1999511719</ele>
        <time>2021-01-02T08:32:43.000Z</time>
      </trkpt>
      <trkpt lat="45.22197" lon="6.00739">
        <ele>1465.8000488281</ele>
        <time>2021-01-02T08:32:46.000Z</time>
      </trkpt>
      <trkpt lat="45.22197" lon="6.0074">
        <ele>1466.4000244141</ele>
        <time>2021-01-02T08:32:49.000Z</time>
      </trkpt>
      <trkpt lat="45.22197" lon="6.00741">
        <ele>1466.8000488281</ele>
        <time>2021-01-02T08:32:52.000Z</time>
      </trkpt>
      <trkpt lat="45.22197" lon="6.00743">
        <ele>1467</ele>
        <time>2021-01-02T08:32:54.000Z</time>
      </trkpt>
      <trkpt lat="45.22196" lon="6.00746">
        <ele>1467.1999511719</ele>
        <time>2021-01-02T08:32:57.000Z</time>
      </trkpt>
      <trkpt lat="45.22196" lon="6.00748">
        <ele>1467.4000244141</ele>
        <time>2021-01-02T08:32:59.000Z</time>
      </trkpt>
      <trkpt lat="45.22196" lon="6.00749">
        <ele>1467.5999755859</ele>
        <time>2021-01-02T08:33:00.000Z</time>
      </trkpt>
      <trkpt lat="45.22196" lon="6.00752">
        <ele>1468.1999511719</ele>
        <time>2021-01-02T08:33:03.000Z</time>
      </trkpt>
      <trkpt lat="45.22197" lon="6.00755">
        <ele>1468.5999755859</ele>
        <time>2021-01-02T08:33:06.000Z</time>
      </trkpt>
      <trkpt lat="45.22196" lon="6.00756">
        <ele>1469.1999511719</ele>
        <time>2021-01-02T08:33:09.000Z</time>
      </trkpt>
      <trkpt lat="45.22197" lon="6.00761">
        <ele>1469.5999755859</ele>
        <time>2021-01-02T08:33:13.000Z</time>
      </trkpt>
      <trkpt lat="45.22197" lon="6.00763">
        <ele>1470</ele>
        <time>2021-01-02T08:33:15.000Z</time>
      </trkpt>
      <trkpt lat="45.22198" lon="6.00768">
        <ele>1470.8000488281</ele>
        <time>2021-01-02T08:33:19.000Z</time>
      </trkpt>
      <trkpt lat="45.22198" lon="6.0077">
        <ele>1471</ele>
        <time>2021-01-02T08:33:21.000Z</time>
      </trkpt>
      <trkpt lat="45.22199" lon="6.00775">
        <ele>1472</ele>
        <time>2021-01-02T08:33:25.000Z</time>
      </trkpt>
      <trkpt lat="45.222" lon="6.00778">
        <ele>1472.5999755859</ele>
        <time>2021-01-02T08:33:28.000Z</time>
      </trkpt>
      <trkpt lat="45.22201" lon="6.00783">
        <ele>1473</ele>
        <time>2021-01-02T08:33:32.000Z</time>
      </trkpt>
      <trkpt lat="45.22202" lon="6.00785">
        <ele>1473.1999511719</ele>
        <time>2021-01-02T08:33:33.000Z</time>
      </trkpt>
      <trkpt lat="45.22203" lon="6.00787">
        <ele>1473.4000244141</ele>
        <time>2021-01-02T08:33:35.000Z</time>
      </trkpt>
      <trkpt lat="45.22204" lon="6.00793">
        <ele>1474.1999511719</ele>
        <time>2021-01-02T08:33:40.000Z</time>
      </trkpt>
      <trkpt lat="45.22205" lon="6.00794">
        <ele>1474.4000244141</ele>
        <time>2021-01-02T08:33:41.000Z</time>
      </trkpt>
      <trkpt lat="45.22207" lon="6.00798">
        <ele>1475.4000244141</ele>
        <time>2021-01-02T08:33:46.000Z</time>
      </trkpt>
      <trkpt lat="45.22208" lon="6.008">
        <ele>1475.8000488281</ele>
        <time>2021-01-02T08:33:48.000Z</time>
      </trkpt>
      <trkpt lat="45.22209" lon="6.00803">
        <ele>1476.5999755859</ele>
        <time>2021-01-02T08:33:51.000Z</time>
      </trkpt>
      <trkpt lat="45.2221" lon="6.00806">
        <ele>1477.8000488281</ele>
        <time>2021-01-02T08:33:55.000Z</time>
      </trkpt>
      <trkpt lat="45.22212" lon="6.00809">
        <ele>1478.8000488281</ele>
        <time>2021-01-02T08:34:00.000Z</time>
      </trkpt>
      <trkpt lat="45.22213" lon="6.0081">
        <ele>1478.8000488281</ele>
        <time>2021-01-02T08:34:01.000Z</time>
      </trkpt>
      <trkpt lat="45.22215" lon="6.00814">
        <ele>1479.8000488281</ele>
        <time>2021-01-02T08:34:06.000Z</time>
      </trkpt>
      <trkpt lat="45.22216" lon="6.00816">
        <ele>1480.1999511719</ele>
        <time>2021-01-02T08:34:08.000Z</time>
      </trkpt>
      <trkpt lat="45.22218" lon="6.00819">
        <ele>1481</ele>
        <time>2021-01-02T08:34:13.000Z</time>
      </trkpt>
      <trkpt lat="45.22218" lon="6.0082">
        <ele>1481.1999511719</ele>
        <time>2021-01-02T08:34:14.000Z</time>
      </trkpt>
      <trkpt lat="45.2222" lon="6.00823">
        <ele>1482</ele>
        <time>2021-01-02T08:34:18.000Z</time>
      </trkpt>
      <trkpt lat="45.22222" lon="6.00825">
        <ele>1482.5999755859</ele>
        <time>2021-01-02T08:34:21.000Z</time>
      </trkpt>
      <trkpt lat="45.22222" lon="6.00826">
        <ele>1483</ele>
        <time>2021-01-02T08:34:25.000Z</time>
      </trkpt>
      <trkpt lat="45.22222" lon="6.00826">
        <ele>1483.4000244141</ele>
        <time>2021-01-02T08:34:27.000Z</time>
      </trkpt>
      <trkpt lat="45.22224" lon="6.00829">
        <ele>1483.4000244141</ele>
        <time>2021-01-02T08:34:32.000Z</time>
      </trkpt>
      <trkpt lat="45.22224" lon="6.00831">
        <ele>1483.5999755859</ele>
        <time>2021-01-02T08:34:34.000Z</time>
      </trkpt>
      <trkpt lat="45.22226" lon="6.00834">
        <ele>1484.1999511719</ele>
        <time>2021-01-02T08:34:38.000Z</time>
      </trkpt>
      <trkpt lat="45.22226" lon="6.00835">
        <ele>1484.5999755859</ele>
        <time>2021-01-02T08:34:39.000Z</time>
      </trkpt>
      <trkpt lat="45.22228" lon="6.00837">
        <ele>1485.1999511719</ele>
        <time>2021-01-02T08:34:43.000Z</time>
      </trkpt>
      <trkpt lat="45.22228" lon="6.00837">
        <ele>1485.8000488281</ele>
        <time>2021-01-02T08:34:46.000Z</time>
      </trkpt>
      <trkpt lat="45.22229" lon="6.00838">
        <ele>1486.1999511719</ele>
        <time>2021-01-02T08:34:50.000Z</time>
      </trkpt>
      <trkpt lat="45.22229" lon="6.00841">
        <ele>1486.4000244141</ele>
        <time>2021-01-02T08:34:53.000Z</time>
      </trkpt>
      <trkpt lat="45.2223" lon="6.00845">
        <ele>1486.8000488281</ele>
        <time>2021-01-02T08:34:58.000Z</time>
      </trkpt>
      <trkpt lat="45.22231" lon="6.00848">
        <ele>1487.4000244141</ele>
        <time>2021-01-02T08:35:01.000Z</time>
      </trkpt>
      <trkpt lat="45.22233" lon="6.0085">
        <ele>1488.1999511719</ele>
        <time>2021-01-02T08:35:05.000Z</time>
      </trkpt>
      <trkpt lat="45.22233" lon="6.00851">
        <ele>1488.4000244141</ele>
        <time>2021-01-02T08:35:07.000Z</time>
      </trkpt>
      <trkpt lat="45.22236" lon="6.00855">
        <ele>1489.1999511719</ele>
        <time>2021-01-02T08:35:12.000Z</time>
      </trkpt>
      <trkpt lat="45.22236" lon="6.00856">
        <ele>1489.5999755859</ele>
        <time>2021-01-02T08:35:14.000Z</time>
      </trkpt>
      <trkpt lat="45.22238" lon="6.00859">
        <ele>1490.1999511719</ele>
        <time>2021-01-02T08:35:19.000Z</time>
      </trkpt>
      <trkpt lat="45.22239" lon="6.00862">
        <ele>1490.8000488281</ele>
        <time>2021-01-02T08:35:22.000Z</time>
      </trkpt>
      <trkpt lat="45.2224" lon="6.00864">
        <ele>1491.1999511719</ele>
        <time>2021-01-02T08:35:25.000Z</time>
      </trkpt>
      <trkpt lat="45.22241" lon="6.00866">
        <ele>1491.8000488281</ele>
        <time>2021-01-02T08:35:27.000Z</time>
      </trkpt>
      <trkpt lat="45.22242" lon="6.00869">
        <ele>1492.5999755859</ele>
        <time>2021-01-02T08:35:32.000Z</time>
      </trkpt>
      <trkpt lat="45.22243" lon="6.00872">
        <ele>1492.8000488281</ele>
        <time>2021-01-02T08:35:34.000Z</time>
      </trkpt>
      <trkpt lat="45.22243" lon="6.00874">
        <ele>1493.1999511719</ele>
        <time>2021-01-02T08:35:36.000Z</time>
      </trkpt>
      <trkpt lat="45.22244" lon="6.00876">
        <ele>1493.4000244141</ele>
        <time>2021-01-02T08:35:38.000Z</time>
      </trkpt>
      <trkpt lat="45.22245" lon="6.00878">
        <ele>1494</ele>
        <time>2021-01-02T08:35:41.000Z</time>
      </trkpt>
      <trkpt lat="45.22245" lon="6.00881">
        <ele>1494.5999755859</ele>
        <time>2021-01-02T08:35:44.000Z</time>
      </trkpt>
      <trkpt lat="45.22246" lon="6.00884">
        <ele>1495</ele>
        <time>2021-01-02T08:35:46.000Z</time>
      </trkpt>
      <trkpt lat="45.22247" lon="6.00886">
        <ele>1495.8000488281</ele>
        <time>2021-01-02T08:35:50.000Z</time>
      </trkpt>
      <trkpt lat="45.22247" lon="6.00886">
        <ele>1496.1999511719</ele>
        <time>2021-01-02T08:35:51.000Z</time>
      </trkpt>
      <trkpt lat="45.22247" lon="6.00889">
        <ele>1496.8000488281</ele>
        <time>2021-01-02T08:35:58.000Z</time>
      </trkpt>
      <trkpt lat="45.22248" lon="6.00892">
        <ele>1497.1999511719</ele>
        <time>2021-01-02T08:36:02.000Z</time>
      </trkpt>
      <trkpt lat="45.22249" lon="6.00895">
        <ele>1497.8000488281</ele>
        <time>2021-01-02T08:36:05.000Z</time>
      </trkpt>
      <trkpt lat="45.2225" lon="6.00898">
        <ele>1498.4000244141</ele>
        <time>2021-01-02T08:36:08.000Z</time>
      </trkpt>
      <trkpt lat="45.22252" lon="6.009">
        <ele>1499</ele>
        <time>2021-01-02T08:36:11.000Z</time>
      </trkpt>
      <trkpt lat="45.22252" lon="6.00901">
        <ele>1499.5999755859</ele>
        <time>2021-01-02T08:36:13.000Z</time>
      </trkpt>
      <trkpt lat="45.22253" lon="6.00903">
        <ele>1500.1999511719</ele>
        <time>2021-01-02T08:36:16.000Z</time>
      </trkpt>
      <trkpt lat="45.22253" lon="6.00904">
        <ele>1500.8000488281</ele>
        <time>2021-01-02T08:36:18.000Z</time>
      </trkpt>
      <trkpt lat="45.22253" lon="6.00905">
        <ele>1501.5999755859</ele>
        <time>2021-01-02T08:36:22.000Z</time>
      </trkpt>
      <trkpt lat="45.22252" lon="6.00906">
        <ele>1501.8000488281</ele>
        <time>2021-01-02T08:36:23.000Z</time>
      </trkpt>
      <trkpt lat="45.2225" lon="6.00908">
        <ele>1502.1999511719</ele>
        <time>2021-01-02T08:36:29.000Z</time>
      </trkpt>
      <trkpt lat="45.22247" lon="6.00913">
        <ele>1502.8000488281</ele>
        <time>2021-01-02T08:36:35.000Z</time>
      </trkpt>
      <trkpt lat="45.22247" lon="6.00914">
        <ele>1503</ele>
        <time>2021-01-02T08:36:36.000Z</time>
      </trkpt>
      <trkpt lat="45.22247" lon="6.00916">
        <ele>1503.4000244141</ele>
        <time>2021-01-02T08:36:40.000Z</time>
      </trkpt>
      <trkpt lat="45.22246" lon="6.00918">
        <ele>1504</ele>
        <time>2021-01-02T08:36:43.000Z</time>
      </trkpt>
      <trkpt lat="45.22246" lon="6.00919">
        <ele>1504.8000488281</ele>
        <time>2021-01-02T08:36:46.000Z</time>
      </trkpt>
      <trkpt lat="45.22247" lon="6.00921">
        <ele>1505.1999511719</ele>
        <time>2021-01-02T08:36:48.000Z</time>
      </trkpt>
      <trkpt lat="45.22247" lon="6.00923">
        <ele>1506</ele>
        <time>2021-01-02T08:36:51.000Z</time>
      </trkpt>
      <trkpt lat="45.22246" lon="6.00925">
        <ele>1506.1999511719</ele>
        <time>2021-01-02T08:36:54.000Z</time>
      </trkpt>
      <trkpt lat="45.22244" lon="6.00926">
        <ele>1507</ele>
        <time>2021-01-02T08:36:59.000Z</time>
      </trkpt>
      <trkpt lat="45.22243" lon="6.00927">
        <ele>1507.4000244141</ele>
        <time>2021-01-02T08:37:02.000Z</time>
      </trkpt>
      <trkpt lat="45.22241" lon="6.00927">
        <ele>1508.1999511719</ele>
        <time>2021-01-02T08:37:06.000Z</time>
      </trkpt>
      <trkpt lat="45.22241" lon="6.00926">
        <ele>1508.4000244141</ele>
        <time>2021-01-02T08:37:08.000Z</time>
      </trkpt>
      <trkpt lat="45.22238" lon="6.00925">
        <ele>1509.4000244141</ele>
        <time>2021-01-02T08:37:13.000Z</time>
      </trkpt>
      <trkpt lat="45.22238" lon="6.00925">
        <ele>1509.5999755859</ele>
        <time>2021-01-02T08:37:15.000Z</time>
      </trkpt>
      <trkpt lat="45.22236" lon="6.00925">
        <ele>1510.1999511719</ele>
        <time>2021-01-02T08:37:19.000Z</time>
      </trkpt>
      <trkpt lat="45.22234" lon="6.00925">
        <ele>1510.8000488281</ele>
        <time>2021-01-02T08:37:23.000Z</time>
      </trkpt>
      <trkpt lat="45.22234" lon="6.00926">
        <ele>1510.8000488281</ele>
        <time>2021-01-02T08:37:24.000Z</time>
      </trkpt>
      <trkpt lat="45.22233" lon="6.00927">
        <ele>1511</ele>
        <time>2021-01-02T08:37:26.000Z</time>
      </trkpt>
      <trkpt lat="45.22232" lon="6.00931">
        <ele>1511.4000244141</ele>
        <time>2021-01-02T08:37:30.000Z</time>
      </trkpt>
      <trkpt lat="45.22233" lon="6.00932">
        <ele>1511.8000488281</ele>
        <time>2021-01-02T08:37:32.000Z</time>
      </trkpt>
      <trkpt lat="45.22233" lon="6.00933">
        <ele>1512.4000244141</ele>
        <time>2021-01-02T08:37:36.000Z</time>
      </trkpt>
      <trkpt lat="45.22233" lon="6.00934">
        <ele>1512.8000488281</ele>
        <time>2021-01-02T08:37:38.000Z</time>
      </trkpt>
      <trkpt lat="45.22234" lon="6.00936">
        <ele>1513.5999755859</ele>
        <time>2021-01-02T08:37:42.000Z</time>
      </trkpt>
      <trkpt lat="45.22234" lon="6.00938">
        <ele>1513.8000488281</ele>
        <time>2021-01-02T08:37:44.000Z</time>
      </trkpt>
      <trkpt lat="45.22233" lon="6.00941">
        <ele>1514.4000244141</ele>
        <time>2021-01-02T08:37:48.000Z</time>
      </trkpt>
      <trkpt lat="45.22233" lon="6.00944">
        <ele>1515</ele>
        <time>2021-01-02T08:37:51.000Z</time>
      </trkpt>
      <trkpt lat="45.22232" lon="6.00946">
        <ele>1515.1999511719</ele>
        <time>2021-01-02T08:37:52.000Z</time>
      </trkpt>
      <trkpt lat="45.22232" lon="6.00947">
        <ele>1515.5999755859</ele>
        <time>2021-01-02T08:37:54.000Z</time>
      </trkpt>
      <trkpt lat="45.22232" lon="6.00949">
        <ele>1516.1999511719</ele>
        <time>2021-01-02T08:37:58.000Z</time>
      </trkpt>
      <trkpt lat="45.22232" lon="6.00953">
        <ele>1516.8000488281</ele>
        <time>2021-01-02T08:38:02.000Z</time>
      </trkpt>
      <trkpt lat="45.22233" lon="6.00955">
        <ele>1517.1999511719</ele>
        <time>2021-01-02T08:38:05.000Z</time>
      </trkpt>
      <trkpt lat="45.22233" lon="6.00959">
        <ele>1517.8000488281</ele>
        <time>2021-01-02T08:38:09.000Z</time>
      </trkpt>
      <trkpt lat="45.22233" lon="6.0096">
        <ele>1518.4000244141</ele>
        <time>2021-01-02T08:38:13.000Z</time>
      </trkpt>
      <trkpt lat="45.22233" lon="6.00961">
        <ele>1518.5999755859</ele>
        <time>2021-01-02T08:38:14.000Z</time>
      </trkpt>
      <trkpt lat="45.22233" lon="6.00964">
        <ele>1519.5999755859</ele>
        <time>2021-01-02T08:38:19.000Z</time>
      </trkpt>
      <trkpt lat="45.22233" lon="6.00965">
        <ele>1519.8000488281</ele>
        <time>2021-01-02T08:38:21.000Z</time>
      </trkpt>
      <trkpt lat="45.22232" lon="6.00969">
        <ele>1520.5999755859</ele>
        <time>2021-01-02T08:38:25.000Z</time>
      </trkpt>
      <trkpt lat="45.22232" lon="6.00972">
        <ele>1521</ele>
        <time>2021-01-02T08:38:27.000Z</time>
      </trkpt>
      <trkpt lat="45.22232" lon="6.00976">
        <ele>1521.4000244141</ele>
        <time>2021-01-02T08:38:30.000Z</time>
      </trkpt>
      <trkpt lat="45.22232" lon="6.00978">
        <ele>1521.8000488281</ele>
        <time>2021-01-02T08:38:32.000Z</time>
      </trkpt>
      <trkpt lat="45.22232" lon="6.00981">
        <ele>1522.8000488281</ele>
        <time>2021-01-02T08:38:37.000Z</time>
      </trkpt>
      <trkpt lat="45.22232" lon="6.00981">
        <ele>1523</ele>
        <time>2021-01-02T08:38:38.000Z</time>
      </trkpt>
      <trkpt lat="45.22231" lon="6.00985">
        <ele>1523.8000488281</ele>
        <time>2021-01-02T08:38:43.000Z</time>
      </trkpt>
      <trkpt lat="45.22231" lon="6.00985">
        <ele>1524</ele>
        <time>2021-01-02T08:38:44.000Z</time>
      </trkpt>
      <trkpt lat="45.22231" lon="6.00991">
        <ele>1525</ele>
        <time>2021-01-02T08:38:50.000Z</time>
      </trkpt>
      <trkpt lat="45.22233" lon="6.00997">
        <ele>1526.1999511719</ele>
        <time>2021-01-02T08:38:57.000Z</time>
      </trkpt>
      <trkpt lat="45.22234" lon="6.01004">
        <ele>1527</ele>
        <time>2021-01-02T08:39:03.000Z</time>
      </trkpt>
      <trkpt lat="45.22234" lon="6.01006">
        <ele>1527.1999511719</ele>
        <time>2021-01-02T08:39:05.000Z</time>
      </trkpt>
      <trkpt lat="45.22235" lon="6.01008">
        <ele>1527.4000244141</ele>
        <time>2021-01-02T08:39:07.000Z</time>
      </trkpt>
      <trkpt lat="45.22235" lon="6.0101">
        <ele>1527.5999755859</ele>
        <time>2021-01-02T08:39:08.000Z</time>
      </trkpt>
      <trkpt lat="45.22234" lon="6.01016">
        <ele>1528.1999511719</ele>
        <time>2021-01-02T08:39:13.000Z</time>
      </trkpt>
      <trkpt lat="45.22235" lon="6.01018">
        <ele>1528.4000244141</ele>
        <time>2021-01-02T08:39:15.000Z</time>
      </trkpt>
      <trkpt lat="45.22235" lon="6.0102">
        <ele>1529.1999511719</ele>
        <time>2021-01-02T08:39:21.000Z</time>
      </trkpt>
      <trkpt lat="45.22234" lon="6.01028">
        <ele>1530.1999511719</ele>
        <time>2021-01-02T08:39:28.000Z</time>
      </trkpt>
      <trkpt lat="45.22234" lon="6.01029">
        <ele>1530.4000244141</ele>
        <time>2021-01-02T08:39:29.000Z</time>
      </trkpt>
      <trkpt lat="45.22233" lon="6.01032">
        <ele>1531.4000244141</ele>
        <time>2021-01-02T08:39:33.000Z</time>
      </trkpt>
      <trkpt lat="45.22233" lon="6.01034">
        <ele>1531.8000488281</ele>
        <time>2021-01-02T08:39:35.000Z</time>
      </trkpt>
      <trkpt lat="45.22232" lon="6.01038">
        <ele>1532.4000244141</ele>
        <time>2021-01-02T08:39:39.000Z</time>
      </trkpt>
      <trkpt lat="45.22232" lon="6.01041">
        <ele>1533</ele>
        <time>2021-01-02T08:39:42.000Z</time>
      </trkpt>
      <trkpt lat="45.22232" lon="6.01046">
        <ele>1533.5999755859</ele>
        <time>2021-01-02T08:39:46.000Z</time>
      </trkpt>
      <trkpt lat="45.22232" lon="6.01048">
        <ele>1533.8000488281</ele>
        <time>2021-01-02T08:39:49.000Z</time>
      </trkpt>
      <trkpt lat="45.22233" lon="6.01051">
        <ele>1534.4000244141</ele>
        <time>2021-01-02T08:39:54.000Z</time>
      </trkpt>
      <trkpt lat="45.22233" lon="6.01055">
        <ele>1534.5999755859</ele>
        <time>2021-01-02T08:39:57.000Z</time>
      </trkpt>
      <trkpt lat="45.22233" lon="6.01058">
        <ele>1535</ele>
        <time>2021-01-02T08:40:01.000Z</time>
      </trkpt>
      <trkpt lat="45.22233" lon="6.01062">
        <ele>1535.5999755859</ele>
        <time>2021-01-02T08:40:05.000Z</time>
      </trkpt>
      <trkpt lat="45.22233" lon="6.01063">
        <ele>1535.8000488281</ele>
        <time>2021-01-02T08:40:06.000Z</time>
      </trkpt>
      <trkpt lat="45.22233" lon="6.01065">
        <ele>1536.1999511719</ele>
        <time>2021-01-02T08:40:08.000Z</time>
      </trkpt>
      <trkpt lat="45.22233" lon="6.0107">
        <ele>1536.8000488281</ele>
        <time>2021-01-02T08:40:13.000Z</time>
      </trkpt>
      <trkpt lat="45.22233" lon="6.01072">
        <ele>1537.1999511719</ele>
        <time>2021-01-02T08:40:15.000Z</time>
      </trkpt>
      <trkpt lat="45.22234" lon="6.01076">
        <ele>1537.8000488281</ele>
        <time>2021-01-02T08:40:20.000Z</time>
      </trkpt>
      <trkpt lat="45.22234" lon="6.01079">
        <ele>1538</ele>
        <time>2021-01-02T08:40:23.000Z</time>
      </trkpt>
      <trkpt lat="45.22234" lon="6.01084">
        <ele>1538.8000488281</ele>
        <time>2021-01-02T08:40:28.000Z</time>
      </trkpt>
      <trkpt lat="45.22234" lon="6.01084">
        <ele>1539</ele>
        <time>2021-01-02T08:40:29.000Z</time>
      </trkpt>
      <trkpt lat="45.22234" lon="6.01089">
        <ele>1539.8000488281</ele>
        <time>2021-01-02T08:40:34.000Z</time>
      </trkpt>
      <trkpt lat="45.22234" lon="6.0109">
        <ele>1540</ele>
        <time>2021-01-02T08:40:35.000Z</time>
      </trkpt>
      <trkpt lat="45.22235" lon="6.01094">
        <ele>1540.8000488281</ele>
        <time>2021-01-02T08:40:39.000Z</time>
      </trkpt>
      <trkpt lat="45.22235" lon="6.01096">
        <ele>1541.1999511719</ele>
        <time>2021-01-02T08:40:41.000Z</time>
      </trkpt>
      <trkpt lat="45.22235" lon="6.01099">
        <ele>1542</ele>
        <time>2021-01-02T08:40:45.000Z</time>
      </trkpt>
      <trkpt lat="45.22236" lon="6.01103">
        <ele>1542.4000244141</ele>
        <time>2021-01-02T08:40:48.000Z</time>
      </trkpt>
      <trkpt lat="45.22236" lon="6.01106">
        <ele>1543</ele>
        <time>2021-01-02T08:40:52.000Z</time>
      </trkpt>
      <trkpt lat="45.22235" lon="6.01108">
        <ele>1543.4000244141</ele>
        <time>2021-01-02T08:40:54.000Z</time>
      </trkpt>
      <trkpt lat="45.22237" lon="6.01112">
        <ele>1544.1999511719</ele>
        <time>2021-01-02T08:40:58.000Z</time>
      </trkpt>
      <trkpt lat="45.22237" lon="6.01115">
        <ele>1544.8000488281</ele>
        <time>2021-01-02T08:41:01.000Z</time>
      </trkpt>
      <trkpt lat="45.22238" lon="6.01118">
        <ele>1545.1999511719</ele>
        <time>2021-01-02T08:41:03.000Z</time>
      </trkpt>
      <trkpt lat="45.22238" lon="6.01123">
        <ele>1545.8000488281</ele>
        <time>2021-01-02T08:41:08.000Z</time>
      </trkpt>
      <trkpt lat="45.22239" lon="6.01126">
        <ele>1546.4000244141</ele>
        <time>2021-01-02T08:41:11.000Z</time>
      </trkpt>
      <trkpt lat="45.2224" lon="6.0113">
        <ele>1547</ele>
        <time>2021-01-02T08:41:15.000Z</time>
      </trkpt>
      <trkpt lat="45.22241" lon="6.01133">
        <ele>1547.4000244141</ele>
        <time>2021-01-02T08:41:18.000Z</time>
      </trkpt>
      <trkpt lat="45.22243" lon="6.01137">
        <ele>1548</ele>
        <time>2021-01-02T08:41:22.000Z</time>
      </trkpt>
      <trkpt lat="45.22244" lon="6.0114">
        <ele>1548.5999755859</ele>
        <time>2021-01-02T08:41:25.000Z</time>
      </trkpt>
      <trkpt lat="45.22245" lon="6.01145">
        <ele>1549.8000488281</ele>
        <time>2021-01-02T08:41:30.000Z</time>
      </trkpt>
      <trkpt lat="45.22247" lon="6.01151">
        <ele>1550.8000488281</ele>
        <time>2021-01-02T08:41:36.000Z</time>
      </trkpt>
      <trkpt lat="45.22248" lon="6.01153">
        <ele>1551.1999511719</ele>
        <time>2021-01-02T08:41:38.000Z</time>
      </trkpt>
      <trkpt lat="45.22249" lon="6.01155">
        <ele>1551.8000488281</ele>
        <time>2021-01-02T08:41:41.000Z</time>
      </trkpt>
      <trkpt lat="45.2225" lon="6.01159">
        <ele>1552.5999755859</ele>
        <time>2021-01-02T08:41:45.000Z</time>
      </trkpt>
      <trkpt lat="45.22251" lon="6.01162">
        <ele>1553</ele>
        <time>2021-01-02T08:41:48.000Z</time>
      </trkpt>
      <trkpt lat="45.22252" lon="6.01165">
        <ele>1553.8000488281</ele>
        <time>2021-01-02T08:41:52.000Z</time>
      </trkpt>
      <trkpt lat="45.22252" lon="6.01166">
        <ele>1554</ele>
        <time>2021-01-02T08:41:53.000Z</time>
      </trkpt>
      <trkpt lat="45.22254" lon="6.01172">
        <ele>1555</ele>
        <time>2021-01-02T08:42:00.000Z</time>
      </trkpt>
      <trkpt lat="45.22255" lon="6.01172">
        <ele>1555.1999511719</ele>
        <time>2021-01-02T08:42:01.000Z</time>
      </trkpt>
      <trkpt lat="45.22256" lon="6.01178">
        <ele>1556.1999511719</ele>
        <time>2021-01-02T08:42:06.000Z</time>
      </trkpt>
      <trkpt lat="45.22257" lon="6.01179">
        <ele>1556.4000244141</ele>
        <time>2021-01-02T08:42:07.000Z</time>
      </trkpt>
      <trkpt lat="45.22259" lon="6.01184">
        <ele>1557.4000244141</ele>
        <time>2021-01-02T08:42:13.000Z</time>
      </trkpt>
      <trkpt lat="45.2226" lon="6.01185">
        <ele>1557.5999755859</ele>
        <time>2021-01-02T08:42:14.000Z</time>
      </trkpt>
      <trkpt lat="45.22261" lon="6.0119">
        <ele>1558.4000244141</ele>
        <time>2021-01-02T08:42:20.000Z</time>
      </trkpt>
      <trkpt lat="45.22261" lon="6.01191">
        <ele>1558.5999755859</ele>
        <time>2021-01-02T08:42:22.000Z</time>
      </trkpt>
      <trkpt lat="45.22262" lon="6.01193">
        <ele>1559</ele>
        <time>2021-01-02T08:42:26.000Z</time>
      </trkpt>
      <trkpt lat="45.22261" lon="6.012">
        <ele>1559.4000244141</ele>
        <time>2021-01-02T08:42:32.000Z</time>
      </trkpt>
      <trkpt lat="45.22261" lon="6.01202">
        <ele>1559.5999755859</ele>
        <time>2021-01-02T08:42:33.000Z</time>
      </trkpt>
      <trkpt lat="45.22259" lon="6.01203">
        <ele>1559.8000488281</ele>
        <time>2021-01-02T08:42:35.000Z</time>
      </trkpt>
      <trkpt lat="45.22258" lon="6.01206">
        <ele>1560</ele>
        <time>2021-01-02T08:42:38.000Z</time>
      </trkpt>
      <trkpt lat="45.22257" lon="6.0121">
        <ele>1560.5999755859</ele>
        <time>2021-01-02T08:42:42.000Z</time>
      </trkpt>
      <trkpt lat="45.22256" lon="6.01211">
        <ele>1561</ele>
        <time>2021-01-02T08:42:44.000Z</time>
      </trkpt>
      <trkpt lat="45.22253" lon="6.01214">
        <ele>1561.5999755859</ele>
        <time>2021-01-02T08:42:49.000Z</time>
      </trkpt>
      <trkpt lat="45.22253" lon="6.01216">
        <ele>1562</ele>
        <time>2021-01-02T08:42:51.000Z</time>
      </trkpt>
      <trkpt lat="45.22251" lon="6.01218">
        <ele>1562.8000488281</ele>
        <time>2021-01-02T08:42:55.000Z</time>
      </trkpt>
      <trkpt lat="45.2225" lon="6.01219">
        <ele>1563.1999511719</ele>
        <time>2021-01-02T08:42:57.000Z</time>
      </trkpt>
      <trkpt lat="45.22247" lon="6.01223">
        <ele>1564</ele>
        <time>2021-01-02T08:43:02.000Z</time>
      </trkpt>
      <trkpt lat="45.22246" lon="6.01225">
        <ele>1564.1999511719</ele>
        <time>2021-01-02T08:43:04.000Z</time>
      </trkpt>
      <trkpt lat="45.22244" lon="6.01227">
        <ele>1565</ele>
        <time>2021-01-02T08:43:08.000Z</time>
      </trkpt>
      <trkpt lat="45.22242" lon="6.01231">
        <ele>1566</ele>
        <time>2021-01-02T08:43:12.000Z</time>
      </trkpt>
      <trkpt lat="45.22241" lon="6.01232">
        <ele>1566.1999511719</ele>
        <time>2021-01-02T08:43:14.000Z</time>
      </trkpt>
      <trkpt lat="45.22239" lon="6.01236">
        <ele>1567.4000244141</ele>
        <time>2021-01-02T08:43:20.000Z</time>
      </trkpt>
      <trkpt lat="45.22238" lon="6.01244">
        <ele>1568.4000244141</ele>
        <time>2021-01-02T08:43:26.000Z</time>
      </trkpt>
      <trkpt lat="45.22237" lon="6.01245">
        <ele>1568.5999755859</ele>
        <time>2021-01-02T08:43:27.000Z</time>
      </trkpt>
      <trkpt lat="45.22237" lon="6.01248">
        <ele>1569.5999755859</ele>
        <time>2021-01-02T08:43:30.000Z</time>
      </trkpt>
      <trkpt lat="45.22236" lon="6.01252">
        <ele>1570.4000244141</ele>
        <time>2021-01-02T08:43:34.000Z</time>
      </trkpt>
      <trkpt lat="45.22236" lon="6.01254">
        <ele>1570.5999755859</ele>
        <time>2021-01-02T08:43:36.000Z</time>
      </trkpt>
      <trkpt lat="45.22235" lon="6.01258">
        <ele>1571.8000488281</ele>
        <time>2021-01-02T08:43:41.000Z</time>
      </trkpt>
      <trkpt lat="45.22234" lon="6.01263">
        <ele>1572.8000488281</ele>
        <time>2021-01-02T08:43:46.000Z</time>
      </trkpt>
      <trkpt lat="45.22233" lon="6.01264">
        <ele>1573</ele>
        <time>2021-01-02T08:43:47.000Z</time>
      </trkpt>
      <trkpt lat="45.22232" lon="6.01266">
        <ele>1573.8000488281</ele>
        <time>2021-01-02T08:43:51.000Z</time>
      </trkpt>
      <trkpt lat="45.22232" lon="6.01271">
        <ele>1574.8000488281</ele>
        <time>2021-01-02T08:43:55.000Z</time>
      </trkpt>
      <trkpt lat="45.22232" lon="6.01271">
        <ele>1575</ele>
        <time>2021-01-02T08:43:56.000Z</time>
      </trkpt>
      <trkpt lat="45.22231" lon="6.01276">
        <ele>1576.1999511719</ele>
        <time>2021-01-02T08:44:02.000Z</time>
      </trkpt>
      <trkpt lat="45.22232" lon="6.01283">
        <ele>1577.4000244141</ele>
        <time>2021-01-02T08:44:09.000Z</time>
      </trkpt>
      <trkpt lat="45.22232" lon="6.01284">
        <ele>1577.5999755859</ele>
        <time>2021-01-02T08:44:10.000Z</time>
      </trkpt>
      <trkpt lat="45.22232" lon="6.01287">
        <ele>1578.4000244141</ele>
        <time>2021-01-02T08:44:15.000Z</time>
      </trkpt>
      <trkpt lat="45.22232" lon="6.01287">
        <ele>1578.8000488281</ele>
        <time>2021-01-02T08:44:17.000Z</time>
      </trkpt>
      <trkpt lat="45.22233" lon="6.01292">
        <ele>1579</ele>
        <time>2021-01-02T08:44:26.000Z</time>
      </trkpt>
      <trkpt lat="45.22234" lon="6.01294">
        <ele>1579.4000244141</ele>
        <time>2021-01-02T08:44:29.000Z</time>
      </trkpt>
      <trkpt lat="45.22235" lon="6.01296">
        <ele>1579.8000488281</ele>
        <time>2021-01-02T08:44:32.000Z</time>
      </trkpt>
      <trkpt lat="45.22237" lon="6.01297">
        <ele>1580.5999755859</ele>
        <time>2021-01-02T08:44:36.000Z</time>
      </trkpt>
      <trkpt lat="45.22238" lon="6.01299">
        <ele>1581</ele>
        <time>2021-01-02T08:44:38.000Z</time>
      </trkpt>
      <trkpt lat="45.22239" lon="6.01301">
        <ele>1581.8000488281</ele>
        <time>2021-01-02T08:44:41.000Z</time>
      </trkpt>
      <trkpt lat="45.22241" lon="6.01303">
        <ele>1582.4000244141</ele>
        <time>2021-01-02T08:44:44.000Z</time>
      </trkpt>
      <trkpt lat="45.22243" lon="6.01304">
        <ele>1582.8000488281</ele>
        <time>2021-01-02T08:44:46.000Z</time>
      </trkpt>
      <trkpt lat="45.22245" lon="6.01306">
        <ele>1583.4000244141</ele>
        <time>2021-01-02T08:44:50.000Z</time>
      </trkpt>
      <trkpt lat="45.22246" lon="6.01307">
        <ele>1583.8000488281</ele>
        <time>2021-01-02T08:44:52.000Z</time>
      </trkpt>
      <trkpt lat="45.22248" lon="6.01307">
        <ele>1584.4000244141</ele>
        <time>2021-01-02T08:44:56.000Z</time>
      </trkpt>
      <trkpt lat="45.2225" lon="6.01307">
        <ele>1585</ele>
        <time>2021-01-02T08:44:59.000Z</time>
      </trkpt>
      <trkpt lat="45.22251" lon="6.01307">
        <ele>1585.5999755859</ele>
        <time>2021-01-02T08:45:03.000Z</time>
      </trkpt>
      <trkpt lat="45.22253" lon="6.01306">
        <ele>1586</ele>
        <time>2021-01-02T08:45:05.000Z</time>
      </trkpt>
      <trkpt lat="45.22255" lon="6.01305">
        <ele>1586.5999755859</ele>
        <time>2021-01-02T08:45:08.000Z</time>
      </trkpt>
      <trkpt lat="45.22257" lon="6.01305">
        <ele>1587.1999511719</ele>
        <time>2021-01-02T08:45:11.000Z</time>
      </trkpt>
      <trkpt lat="45.22258" lon="6.01305">
        <ele>1587.5999755859</ele>
        <time>2021-01-02T08:45:15.000Z</time>
      </trkpt>
      <trkpt lat="45.22262" lon="6.01303">
        <ele>1588.4000244141</ele>
        <time>2021-01-02T08:45:21.000Z</time>
      </trkpt>
      <trkpt lat="45.22266" lon="6.01302">
        <ele>1589.1999511719</ele>
        <time>2021-01-02T08:45:27.000Z</time>
      </trkpt>
      <trkpt lat="45.22268" lon="6.01301">
        <ele>1589.5999755859</ele>
        <time>2021-01-02T08:45:29.000Z</time>
      </trkpt>
      <trkpt lat="45.22272" lon="6.01301">
        <ele>1590.1999511719</ele>
        <time>2021-01-02T08:45:35.000Z</time>
      </trkpt>
      <trkpt lat="45.22274" lon="6.01301">
        <ele>1590.8000488281</ele>
        <time>2021-01-02T08:45:38.000Z</time>
      </trkpt>
      <trkpt lat="45.22279" lon="6.01302">
        <ele>1591.4000244141</ele>
        <time>2021-01-02T08:45:43.000Z</time>
      </trkpt>
      <trkpt lat="45.22281" lon="6.01301">
        <ele>1591.8000488281</ele>
        <time>2021-01-02T08:45:46.000Z</time>
      </trkpt>
      <trkpt lat="45.22283" lon="6.01302">
        <ele>1592.1999511719</ele>
        <time>2021-01-02T08:45:50.000Z</time>
      </trkpt>
      <trkpt lat="45.22284" lon="6.01303">
        <ele>1593</ele>
        <time>2021-01-02T08:45:54.000Z</time>
      </trkpt>
      <trkpt lat="45.22284" lon="6.01304">
        <ele>1593.1999511719</ele>
        <time>2021-01-02T08:45:55.000Z</time>
      </trkpt>
      <trkpt lat="45.22283" lon="6.01306">
        <ele>1594</ele>
        <time>2021-01-02T08:46:01.000Z</time>
      </trkpt>
      <trkpt lat="45.22282" lon="6.01308">
        <ele>1595</ele>
        <time>2021-01-02T08:46:10.000Z</time>
      </trkpt>
      <trkpt lat="45.22281" lon="6.0131">
        <ele>1595</ele>
        <time>2021-01-02T08:46:11.000Z</time>
      </trkpt>
      <trkpt lat="45.22281" lon="6.01313">
        <ele>1595.1999511719</ele>
        <time>2021-01-02T08:46:16.000Z</time>
      </trkpt>
      <trkpt lat="45.22282" lon="6.01315">
        <ele>1595.5999755859</ele>
        <time>2021-01-02T08:46:17.000Z</time>
      </trkpt>
      <trkpt lat="45.22282" lon="6.01315">
        <ele>1596</ele>
        <time>2021-01-02T08:46:19.000Z</time>
      </trkpt>
      <trkpt lat="45.22282" lon="6.01316">
        <ele>1596</ele>
        <time>2021-01-02T08:46:20.000Z</time>
      </trkpt>
      <trkpt lat="45.22281" lon="6.01319">
        <ele>1596.4000244141</ele>
        <time>2021-01-02T08:46:24.000Z</time>
      </trkpt>
      <trkpt lat="45.22279" lon="6.01326">
        <ele>1597</ele>
        <time>2021-01-02T08:46:30.000Z</time>
      </trkpt>
      <trkpt lat="45.22279" lon="6.01327">
        <ele>1597</ele>
        <time>2021-01-02T08:46:31.000Z</time>
      </trkpt>
      <trkpt lat="45.22279" lon="6.0133">
        <ele>1598</ele>
        <time>2021-01-02T08:46:37.000Z</time>
      </trkpt>
      <trkpt lat="45.22278" lon="6.01332">
        <ele>1598.8000488281</ele>
        <time>2021-01-02T08:46:44.000Z</time>
      </trkpt>
      <trkpt lat="45.22278" lon="6.01336">
        <ele>1598.8000488281</ele>
        <time>2021-01-02T08:46:47.000Z</time>
      </trkpt>
      <trkpt lat="45.22278" lon="6.01336">
        <ele>1599</ele>
        <time>2021-01-02T08:46:49.000Z</time>
      </trkpt>
      <trkpt lat="45.22278" lon="6.01336">
        <ele>1599.1999511719</ele>
        <time>2021-01-02T08:46:50.000Z</time>
      </trkpt>
      <trkpt lat="45.22277" lon="6.01344">
        <ele>1599.8000488281</ele>
        <time>2021-01-02T08:46:56.000Z</time>
      </trkpt>
      <trkpt lat="45.22277" lon="6.01347">
        <ele>1600.1999511719</ele>
        <time>2021-01-02T08:47:01.000Z</time>
      </trkpt>
      <trkpt lat="45.22277" lon="6.01351">
        <ele>1600.8000488281</ele>
        <time>2021-01-02T08:47:08.000Z</time>
      </trkpt>
      <trkpt lat="45.22276" lon="6.01355">
        <ele>1601</ele>
        <time>2021-01-02T08:47:14.000Z</time>
      </trkpt>
      <trkpt lat="45.22274" lon="6.01358">
        <ele>1601.1999511719</ele>
        <time>2021-01-02T08:47:17.000Z</time>
      </trkpt>
      <trkpt lat="45.2227" lon="6.0136">
        <ele>1601.4000244141</ele>
        <time>2021-01-02T08:47:21.000Z</time>
      </trkpt>
      <trkpt lat="45.22265" lon="6.01363">
        <ele>1602</ele>
        <time>2021-01-02T08:47:27.000Z</time>
      </trkpt>
      <trkpt lat="45.22264" lon="6.01365">
        <ele>1602.5999755859</ele>
        <time>2021-01-02T08:47:29.000Z</time>
      </trkpt>
      <trkpt lat="45.22263" lon="6.01366">
        <ele>1603</ele>
        <time>2021-01-02T08:47:31.000Z</time>
      </trkpt>
      <trkpt lat="45.22261" lon="6.01367">
        <ele>1603.1999511719</ele>
        <time>2021-01-02T08:47:33.000Z</time>
      </trkpt>
      <trkpt lat="45.22258" lon="6.01368">
        <ele>1603.5999755859</ele>
        <time>2021-01-02T08:47:36.000Z</time>
      </trkpt>
      <trkpt lat="45.22257" lon="6.0137">
        <ele>1604</ele>
        <time>2021-01-02T08:47:38.000Z</time>
      </trkpt>
      <trkpt lat="45.22255" lon="6.01372">
        <ele>1604.4000244141</ele>
        <time>2021-01-02T08:47:41.000Z</time>
      </trkpt>
      <trkpt lat="45.22254" lon="6.01373">
        <ele>1604.8000488281</ele>
        <time>2021-01-02T08:47:43.000Z</time>
      </trkpt>
      <trkpt lat="45.2225" lon="6.01375">
        <ele>1606</ele>
        <time>2021-01-02T08:47:49.000Z</time>
      </trkpt>
      <trkpt lat="45.22249" lon="6.01376">
        <ele>1606.1999511719</ele>
        <time>2021-01-02T08:47:50.000Z</time>
      </trkpt>
      <trkpt lat="45.22246" lon="6.01377">
        <ele>1607</ele>
        <time>2021-01-02T08:47:55.000Z</time>
      </trkpt>
      <trkpt lat="45.22246" lon="6.01378">
        <ele>1607</ele>
        <time>2021-01-02T08:47:56.000Z</time>
      </trkpt>
      <trkpt lat="45.22245" lon="6.01378">
        <ele>1607.1999511719</ele>
        <time>2021-01-02T08:47:57.000Z</time>
      </trkpt>
      <trkpt lat="45.22243" lon="6.01381">
        <ele>1607.5999755859</ele>
        <time>2021-01-02T08:48:01.000Z</time>
      </trkpt>
      <trkpt lat="45.2224" lon="6.01386">
        <ele>1608.1999511719</ele>
        <time>2021-01-02T08:48:06.000Z</time>
      </trkpt>
      <trkpt lat="45.22237" lon="6.01389">
        <ele>1608.4000244141</ele>
        <time>2021-01-02T08:48:09.000Z</time>
      </trkpt>
      <trkpt lat="45.22236" lon="6.01392">
        <ele>1608.8000488281</ele>
        <time>2021-01-02T08:48:12.000Z</time>
      </trkpt>
      <trkpt lat="45.22235" lon="6.01396">
        <ele>1609.1999511719</ele>
        <time>2021-01-02T08:48:15.000Z</time>
      </trkpt>
      <trkpt lat="45.22233" lon="6.01401">
        <ele>1610.4000244141</ele>
        <time>2021-01-02T08:48:20.000Z</time>
      </trkpt>
      <trkpt lat="45.22233" lon="6.01404">
        <ele>1610.8000488281</ele>
        <time>2021-01-02T08:48:22.000Z</time>
      </trkpt>
      <trkpt lat="45.22232" lon="6.01409">
        <ele>1611.5999755859</ele>
        <time>2021-01-02T08:48:26.000Z</time>
      </trkpt>
      <trkpt lat="45.22231" lon="6.01413">
        <ele>1612.4000244141</ele>
        <time>2021-01-02T08:48:29.000Z</time>
      </trkpt>
      <trkpt lat="45.2223" lon="6.01416">
        <ele>1612.8000488281</ele>
        <time>2021-01-02T08:48:31.000Z</time>
      </trkpt>
      <trkpt lat="45.22229" lon="6.01422">
        <ele>1613.8000488281</ele>
        <time>2021-01-02T08:48:36.000Z</time>
      </trkpt>
      <trkpt lat="45.22229" lon="6.01426">
        <ele>1614.8000488281</ele>
        <time>2021-01-02T08:48:40.000Z</time>
      </trkpt>
      <trkpt lat="45.22229" lon="6.01427">
        <ele>1615.4000244141</ele>
        <time>2021-01-02T08:48:42.000Z</time>
      </trkpt>
      <trkpt lat="45.22229" lon="6.01431">
        <ele>1616</ele>
        <time>2021-01-02T08:48:46.000Z</time>
      </trkpt>
      <trkpt lat="45.22229" lon="6.01433">
        <ele>1616</ele>
        <time>2021-01-02T08:48:47.000Z</time>
      </trkpt>
      <trkpt lat="45.2223" lon="6.01435">
        <ele>1616</ele>
        <time>2021-01-02T08:48:49.000Z</time>
      </trkpt>
      <trkpt lat="45.22233" lon="6.01443">
        <ele>1616.1999511719</ele>
        <time>2021-01-02T08:48:55.000Z</time>
      </trkpt>
      <trkpt lat="45.22234" lon="6.01447">
        <ele>1616.1999511719</ele>
        <time>2021-01-02T08:49:02.000Z</time>
      </trkpt>
      <trkpt lat="45.22236" lon="6.01452">
        <ele>1616.4000244141</ele>
        <time>2021-01-02T08:49:07.000Z</time>
      </trkpt>
      <trkpt lat="45.22237" lon="6.01462">
        <ele>1616.8000488281</ele>
        <time>2021-01-02T08:49:14.000Z</time>
      </trkpt>
      <trkpt lat="45.22239" lon="6.01467">
        <ele>1617</ele>
        <time>2021-01-02T08:49:17.000Z</time>
      </trkpt>
      <trkpt lat="45.22239" lon="6.01473">
        <ele>1617.1999511719</ele>
        <time>2021-01-02T08:49:21.000Z</time>
      </trkpt>
      <trkpt lat="45.22239" lon="6.0148">
        <ele>1617.8000488281</ele>
        <time>2021-01-02T08:49:27.000Z</time>
      </trkpt>
      <trkpt lat="45.2224" lon="6.01483">
        <ele>1618</ele>
        <time>2021-01-02T08:49:29.000Z</time>
      </trkpt>
      <trkpt lat="45.2224" lon="6.01492">
        <ele>1618.1999511719</ele>
        <time>2021-01-02T08:49:35.000Z</time>
      </trkpt>
      <trkpt lat="45.2224" lon="6.01492">
        <ele>1618.4000244141</ele>
        <time>2021-01-02T08:49:39.000Z</time>
      </trkpt>
      <trkpt lat="45.2224" lon="6.01492">
        <ele>1617.8000488281</ele>
        <time>2021-01-02T08:49:49.000Z</time>
      </trkpt>
      <trkpt lat="45.2224" lon="6.01493">
        <ele>1617.8000488281</ele>
        <time>2021-01-02T08:49:54.000Z</time>
      </trkpt>
      <trkpt lat="45.22241" lon="6.01497">
        <ele>1617.8000488281</ele>
        <time>2021-01-02T08:49:58.000Z</time>
      </trkpt>
      <trkpt lat="45.22241" lon="6.01497">
        <ele>1618</ele>
        <time>2021-01-02T08:49:59.000Z</time>
      </trkpt>
      <trkpt lat="45.22241" lon="6.015">
        <ele>1618.1999511719</ele>
        <time>2021-01-02T08:50:01.000Z</time>
      </trkpt>
      <trkpt lat="45.22242" lon="6.01506">
        <ele>1618.4000244141</ele>
        <time>2021-01-02T08:50:05.000Z</time>
      </trkpt>
      <trkpt lat="45.22243" lon="6.01514">
        <ele>1618.4000244141</ele>
        <time>2021-01-02T08:50:11.000Z</time>
      </trkpt>
      <trkpt lat="45.22244" lon="6.01518">
        <ele>1618.5999755859</ele>
        <time>2021-01-02T08:50:15.000Z</time>
      </trkpt>
      <trkpt lat="45.22244" lon="6.01519">
        <ele>1618.5999755859</ele>
        <time>2021-01-02T08:50:16.000Z</time>
      </trkpt>
      <trkpt lat="45.22247" lon="6.01534">
        <ele>1618.5999755859</ele>
        <time>2021-01-02T08:50:25.000Z</time>
      </trkpt>
      <trkpt lat="45.22249" lon="6.01546">
        <ele>1618.4000244141</ele>
        <time>2021-01-02T08:50:32.000Z</time>
      </trkpt>
      <trkpt lat="45.2225" lon="6.01558">
        <ele>1618.4000244141</ele>
        <time>2021-01-02T08:50:38.000Z</time>
      </trkpt>
      <trkpt lat="45.22252" lon="6.01568">
        <ele>1618.5999755859</ele>
        <time>2021-01-02T08:50:45.000Z</time>
      </trkpt>
      <trkpt lat="45.22252" lon="6.0157">
        <ele>1618.5999755859</ele>
        <time>2021-01-02T08:50:47.000Z</time>
      </trkpt>
      <trkpt lat="45.22254" lon="6.01576">
        <ele>1618.8000488281</ele>
        <time>2021-01-02T08:50:51.000Z</time>
      </trkpt>
      <trkpt lat="45.22256" lon="6.01588">
        <ele>1619</ele>
        <time>2021-01-02T08:50:58.000Z</time>
      </trkpt>
      <trkpt lat="45.22256" lon="6.01591">
        <ele>1619</ele>
        <time>2021-01-02T08:51:00.000Z</time>
      </trkpt>
      <trkpt lat="45.22258" lon="6.01602">
        <ele>1619.4000244141</ele>
        <time>2021-01-02T08:51:06.000Z</time>
      </trkpt>
      <trkpt lat="45.22259" lon="6.01614">
        <ele>1619.5999755859</ele>
        <time>2021-01-02T08:51:13.000Z</time>
      </trkpt>
      <trkpt lat="45.22261" lon="6.01626">
        <ele>1619.4000244141</ele>
        <time>2021-01-02T08:51:20.000Z</time>
      </trkpt>
      <trkpt lat="45.22262" lon="6.0163">
        <ele>1619.1999511719</ele>
        <time>2021-01-02T08:51:25.000Z</time>
      </trkpt>
      <trkpt lat="45.22263" lon="6.01636">
        <ele>1619</ele>
        <time>2021-01-02T08:51:30.000Z</time>
      </trkpt>
      <trkpt lat="45.22263" lon="6.01645">
        <ele>1618.1999511719</ele>
        <time>2021-01-02T08:51:36.000Z</time>
      </trkpt>
      <trkpt lat="45.22263" lon="6.01654">
        <ele>1618</ele>
        <time>2021-01-02T08:51:40.000Z</time>
      </trkpt>
      <trkpt lat="45.22263" lon="6.01657">
        <ele>1617.8000488281</ele>
        <time>2021-01-02T08:51:42.000Z</time>
      </trkpt>
      <trkpt lat="45.22264" lon="6.01667">
        <ele>1617.1999511719</ele>
        <time>2021-01-02T08:51:48.000Z</time>
      </trkpt>
      <trkpt lat="45.22264" lon="6.01679">
        <ele>1617</ele>
        <time>2021-01-02T08:51:54.000Z</time>
      </trkpt>
      <trkpt lat="45.22264" lon="6.01681">
        <ele>1617</ele>
        <time>2021-01-02T08:51:55.000Z</time>
      </trkpt>
      <trkpt lat="45.22263" lon="6.0169">
        <ele>1616.5999755859</ele>
        <time>2021-01-02T08:52:00.000Z</time>
      </trkpt>
      <trkpt lat="45.22264" lon="6.01703">
        <ele>1616.1999511719</ele>
        <time>2021-01-02T08:52:07.000Z</time>
      </trkpt>
      <trkpt lat="45.22264" lon="6.01716">
        <ele>1616.1999511719</ele>
        <time>2021-01-02T08:52:14.000Z</time>
      </trkpt>
      <trkpt lat="45.22263" lon="6.01733">
        <ele>1616</ele>
        <time>2021-01-02T08:52:22.000Z</time>
      </trkpt>
      <trkpt lat="45.22261" lon="6.01742">
        <ele>1616</ele>
        <time>2021-01-02T08:52:26.000Z</time>
      </trkpt>
      <trkpt lat="45.22259" lon="6.01748">
        <ele>1615.8000488281</ele>
        <time>2021-01-02T08:52:29.000Z</time>
      </trkpt>
      <trkpt lat="45.22253" lon="6.01755">
        <ele>1615.4000244141</ele>
        <time>2021-01-02T08:52:35.000Z</time>
      </trkpt>
      <trkpt lat="45.22248" lon="6.01754">
        <ele>1616.1999511719</ele>
        <time>2021-01-02T08:52:41.000Z</time>
      </trkpt>
      <trkpt lat="45.22244" lon="6.01754">
        <ele>1617</ele>
        <time>2021-01-02T08:52:46.000Z</time>
      </trkpt>
      <trkpt lat="45.22242" lon="6.01754">
        <ele>1617.1999511719</ele>
        <time>2021-01-02T08:52:48.000Z</time>
      </trkpt>
      <trkpt lat="45.22238" lon="6.01753">
        <ele>1618.1999511719</ele>
        <time>2021-01-02T08:52:53.000Z</time>
      </trkpt>
      <trkpt lat="45.22237" lon="6.01752">
        <ele>1618.5999755859</ele>
        <time>2021-01-02T08:52:55.000Z</time>
      </trkpt>
      <trkpt lat="45.22234" lon="6.01753">
        <ele>1619.4000244141</ele>
        <time>2021-01-02T08:52:59.000Z</time>
      </trkpt>
      <trkpt lat="45.22231" lon="6.01753">
        <ele>1619.8000488281</ele>
        <time>2021-01-02T08:53:01.000Z</time>
      </trkpt>
      <trkpt lat="45.22228" lon="6.01755">
        <ele>1620.8000488281</ele>
        <time>2021-01-02T08:53:05.000Z</time>
      </trkpt>
      <trkpt lat="45.22226" lon="6.01758">
        <ele>1621.1999511719</ele>
        <time>2021-01-02T08:53:08.000Z</time>
      </trkpt>
      <trkpt lat="45.22224" lon="6.01761">
        <ele>1621.8000488281</ele>
        <time>2021-01-02T08:53:12.000Z</time>
      </trkpt>
      <trkpt lat="45.22223" lon="6.01765">
        <ele>1622.1999511719</ele>
        <time>2021-01-02T08:53:16.000Z</time>
      </trkpt>
      <trkpt lat="45.22222" lon="6.01769">
        <ele>1622.8000488281</ele>
        <time>2021-01-02T08:53:19.000Z</time>
      </trkpt>
      <trkpt lat="45.22221" lon="6.01773">
        <ele>1623.4000244141</ele>
        <time>2021-01-02T08:53:23.000Z</time>
      </trkpt>
      <trkpt lat="45.22221" lon="6.01777">
        <ele>1623.8000488281</ele>
        <time>2021-01-02T08:53:27.000Z</time>
      </trkpt>
      <trkpt lat="45.22221" lon="6.01781">
        <ele>1624.4000244141</ele>
        <time>2021-01-02T08:53:30.000Z</time>
      </trkpt>
      <trkpt lat="45.22221" lon="6.01783">
        <ele>1625</ele>
        <time>2021-01-02T08:53:33.000Z</time>
      </trkpt>
      <trkpt lat="45.22222" lon="6.01786">
        <ele>1625.4000244141</ele>
        <time>2021-01-02T08:53:36.000Z</time>
      </trkpt>
      <trkpt lat="45.22224" lon="6.0179">
        <ele>1626</ele>
        <time>2021-01-02T08:53:41.000Z</time>
      </trkpt>
      <trkpt lat="45.22226" lon="6.01793">
        <ele>1626.5999755859</ele>
        <time>2021-01-02T08:53:44.000Z</time>
      </trkpt>
      <trkpt lat="45.22231" lon="6.01802">
        <ele>1627</ele>
        <time>2021-01-02T08:53:51.000Z</time>
      </trkpt>
      <trkpt lat="45.22235" lon="6.01809">
        <ele>1626.8000488281</ele>
        <time>2021-01-02T08:53:58.000Z</time>
      </trkpt>
      <trkpt lat="45.22236" lon="6.01815">
        <ele>1627.1999511719</ele>
        <time>2021-01-02T08:54:02.000Z</time>
      </trkpt>
      <trkpt lat="45.22237" lon="6.01819">
        <ele>1627.5999755859</ele>
        <time>2021-01-02T08:54:05.000Z</time>
      </trkpt>
      <trkpt lat="45.22238" lon="6.01822">
        <ele>1628.1999511719</ele>
        <time>2021-01-02T08:54:08.000Z</time>
      </trkpt>
      <trkpt lat="45.22241" lon="6.01827">
        <ele>1629</ele>
        <time>2021-01-02T08:54:13.000Z</time>
      </trkpt>
      <trkpt lat="45.22242" lon="6.01829">
        <ele>1629.4000244141</ele>
        <time>2021-01-02T08:54:15.000Z</time>
      </trkpt>
      <trkpt lat="45.22245" lon="6.01834">
        <ele>1630.1999511719</ele>
        <time>2021-01-02T08:54:20.000Z</time>
      </trkpt>
      <trkpt lat="45.22245" lon="6.01835">
        <ele>1630.5999755859</ele>
        <time>2021-01-02T08:54:21.000Z</time>
      </trkpt>
      <trkpt lat="45.22247" lon="6.01841">
        <ele>1631.5999755859</ele>
        <time>2021-01-02T08:54:26.000Z</time>
      </trkpt>
      <trkpt lat="45.22247" lon="6.01841">
        <ele>1632.4000244141</ele>
        <time>2021-01-02T08:54:32.000Z</time>
      </trkpt>
      <trkpt lat="45.22247" lon="6.01842">
        <ele>1632.4000244141</ele>
        <time>2021-01-02T08:54:40.000Z</time>
      </trkpt>
      <trkpt lat="45.22247" lon="6.01844">
        <ele>1632.4000244141</ele>
        <time>2021-01-02T08:54:44.000Z</time>
      </trkpt>
      <trkpt lat="45.22247" lon="6.01848">
        <ele>1632.4000244141</ele>
        <time>2021-01-02T08:54:47.000Z</time>
      </trkpt>
      <trkpt lat="45.22247" lon="6.01852">
        <ele>1632.5999755859</ele>
        <time>2021-01-02T08:54:50.000Z</time>
      </trkpt>
      <trkpt lat="45.22246" lon="6.01853">
        <ele>1632.8000488281</ele>
        <time>2021-01-02T08:54:51.000Z</time>
      </trkpt>
      <trkpt lat="45.22246" lon="6.01855">
        <ele>1633.1999511719</ele>
        <time>2021-01-02T08:54:53.000Z</time>
      </trkpt>
      <trkpt lat="45.22246" lon="6.01859">
        <ele>1633.5999755859</ele>
        <time>2021-01-02T08:54:56.000Z</time>
      </trkpt>
      <trkpt lat="45.22246" lon="6.0186">
        <ele>1633.8000488281</ele>
        <time>2021-01-02T08:54:57.000Z</time>
      </trkpt>
      <trkpt lat="45.22247" lon="6.01862">
        <ele>1634.1999511719</ele>
        <time>2021-01-02T08:55:00.000Z</time>
      </trkpt>
      <trkpt lat="45.22247" lon="6.01862">
        <ele>1634.8000488281</ele>
        <time>2021-01-02T08:55:05.000Z</time>
      </trkpt>
      <trkpt lat="45.22247" lon="6.01869">
        <ele>1635.1999511719</ele>
        <time>2021-01-02T08:55:11.000Z</time>
      </trkpt>
      <trkpt lat="45.22248" lon="6.01877">
        <ele>1635.4000244141</ele>
        <time>2021-01-02T08:55:17.000Z</time>
      </trkpt>
      <trkpt lat="45.2225" lon="6.01886">
        <ele>1635.5999755859</ele>
        <time>2021-01-02T08:55:24.000Z</time>
      </trkpt>
      <trkpt lat="45.2225" lon="6.01889">
        <ele>1636</ele>
        <time>2021-01-02T08:55:28.000Z</time>
      </trkpt>
      <trkpt lat="45.22249" lon="6.01897">
        <ele>1636.4000244141</ele>
        <time>2021-01-02T08:55:35.000Z</time>
      </trkpt>
      <trkpt lat="45.22249" lon="6.01903">
        <ele>1637</ele>
        <time>2021-01-02T08:55:40.000Z</time>
      </trkpt>
      <trkpt lat="45.22249" lon="6.01905">
        <ele>1637.1999511719</ele>
        <time>2021-01-02T08:55:42.000Z</time>
      </trkpt>
      <trkpt lat="45.22249" lon="6.01907">
        <ele>1637.4000244141</ele>
        <time>2021-01-02T08:55:44.000Z</time>
      </trkpt>
      <trkpt lat="45.22249" lon="6.01909">
        <ele>1637.5999755859</ele>
        <time>2021-01-02T08:55:47.000Z</time>
      </trkpt>
      <trkpt lat="45.22249" lon="6.01915">
        <ele>1638</ele>
        <time>2021-01-02T08:55:52.000Z</time>
      </trkpt>
      <trkpt lat="45.22249" lon="6.01918">
        <ele>1638.4000244141</ele>
        <time>2021-01-02T08:55:54.000Z</time>
      </trkpt>
      <trkpt lat="45.2225" lon="6.01924">
        <ele>1639</ele>
        <time>2021-01-02T08:55:59.000Z</time>
      </trkpt>
      <trkpt lat="45.22251" lon="6.01926">
        <ele>1639.1999511719</ele>
        <time>2021-01-02T08:56:01.000Z</time>
      </trkpt>
      <trkpt lat="45.22252" lon="6.01932">
        <ele>1640.1999511719</ele>
        <time>2021-01-02T08:56:06.000Z</time>
      </trkpt>
      <trkpt lat="45.22253" lon="6.01933">
        <ele>1640.4000244141</ele>
        <time>2021-01-02T08:56:07.000Z</time>
      </trkpt>
      <trkpt lat="45.22255" lon="6.01936">
        <ele>1641.1999511719</ele>
        <time>2021-01-02T08:56:11.000Z</time>
      </trkpt>
      <trkpt lat="45.22255" lon="6.01938">
        <ele>1641.5999755859</ele>
        <time>2021-01-02T08:56:13.000Z</time>
      </trkpt>
      <trkpt lat="45.22255" lon="6.01941">
        <ele>1642</ele>
        <time>2021-01-02T08:56:15.000Z</time>
      </trkpt>
      <trkpt lat="45.22255" lon="6.01943">
        <ele>1642.4000244141</ele>
        <time>2021-01-02T08:56:17.000Z</time>
      </trkpt>
      <trkpt lat="45.22255" lon="6.01944">
        <ele>1642.5999755859</ele>
        <time>2021-01-02T08:56:18.000Z</time>
      </trkpt>
      <trkpt lat="45.22256" lon="6.01954">
        <ele>1643.1999511719</ele>
        <time>2021-01-02T08:56:25.000Z</time>
      </trkpt>
      <trkpt lat="45.22256" lon="6.01956">
        <ele>1643.4000244141</ele>
        <time>2021-01-02T08:56:28.000Z</time>
      </trkpt>
      <trkpt lat="45.22256" lon="6.01957">
        <ele>1643.5999755859</ele>
        <time>2021-01-02T08:56:31.000Z</time>
      </trkpt>
      <trkpt lat="45.22257" lon="6.01968">
        <ele>1643.5999755859</ele>
        <time>2021-01-02T08:56:39.000Z</time>
      </trkpt>
      <trkpt lat="45.22258" lon="6.01978">
        <ele>1643.4000244141</ele>
        <time>2021-01-02T08:56:45.000Z</time>
      </trkpt>
      <trkpt lat="45.22256" lon="6.01985">
        <ele>1643.4000244141</ele>
        <time>2021-01-02T08:56:50.000Z</time>
      </trkpt>
      <trkpt lat="45.22253" lon="6.01988">
        <ele>1643.4000244141</ele>
        <time>2021-01-02T08:56:52.000Z</time>
      </trkpt>
      <trkpt lat="45.2225" lon="6.01991">
        <ele>1643.1999511719</ele>
        <time>2021-01-02T08:56:57.000Z</time>
      </trkpt>
      <trkpt lat="45.22249" lon="6.01997">
        <ele>1644</ele>
        <time>2021-01-02T08:57:03.000Z</time>
      </trkpt>
      <trkpt lat="45.2225" lon="6.02">
        <ele>1644.1999511719</ele>
        <time>2021-01-02T08:57:05.000Z</time>
      </trkpt>
      <trkpt lat="45.2225" lon="6.02001">
        <ele>1644.5999755859</ele>
        <time>2021-01-02T08:57:06.000Z</time>
      </trkpt>
      <trkpt lat="45.2225" lon="6.02006">
        <ele>1645.1999511719</ele>
        <time>2021-01-02T08:57:10.000Z</time>
      </trkpt>
      <trkpt lat="45.2225" lon="6.02009">
        <ele>1645.8000488281</ele>
        <time>2021-01-02T08:57:13.000Z</time>
      </trkpt>
      <trkpt lat="45.2225" lon="6.02014">
        <ele>1646.1999511719</ele>
        <time>2021-01-02T08:57:16.000Z</time>
      </trkpt>
      <trkpt lat="45.2225" lon="6.02017">
        <ele>1647</ele>
        <time>2021-01-02T08:57:19.000Z</time>
      </trkpt>
      <trkpt lat="45.22249" lon="6.02018">
        <ele>1647.1999511719</ele>
        <time>2021-01-02T08:57:20.000Z</time>
      </trkpt>
      <trkpt lat="45.2225" lon="6.0202">
        <ele>1647.5999755859</ele>
        <time>2021-01-02T08:57:22.000Z</time>
      </trkpt>
      <trkpt lat="45.22249" lon="6.02023">
        <ele>1648</ele>
        <time>2021-01-02T08:57:24.000Z</time>
      </trkpt>
      <trkpt lat="45.22248" lon="6.02028">
        <ele>1649</ele>
        <time>2021-01-02T08:57:29.000Z</time>
      </trkpt>
      <trkpt lat="45.22248" lon="6.02028">
        <ele>1649.4000244141</ele>
        <time>2021-01-02T08:57:30.000Z</time>
      </trkpt>
      <trkpt lat="45.22248" lon="6.02034">
        <ele>1650</ele>
        <time>2021-01-02T08:57:35.000Z</time>
      </trkpt>
      <trkpt lat="45.22249" lon="6.02036">
        <ele>1650.4000244141</ele>
        <time>2021-01-02T08:57:37.000Z</time>
      </trkpt>
      <trkpt lat="45.22249" lon="6.0204">
        <ele>1651</ele>
        <time>2021-01-02T08:57:41.000Z</time>
      </trkpt>
      <trkpt lat="45.2225" lon="6.02044">
        <ele>1651.5999755859</ele>
        <time>2021-01-02T08:57:44.000Z</time>
      </trkpt>
      <trkpt lat="45.2225" lon="6.02049">
        <ele>1652.1999511719</ele>
        <time>2021-01-02T08:57:48.000Z</time>
      </trkpt>
      <trkpt lat="45.2225" lon="6.0205">
        <ele>1652.5999755859</ele>
        <time>2021-01-02T08:57:50.000Z</time>
      </trkpt>
      <trkpt lat="45.2225" lon="6.02053">
        <ele>1653.4000244141</ele>
        <time>2021-01-02T08:57:54.000Z</time>
      </trkpt>
      <trkpt lat="45.2225" lon="6.02055">
        <ele>1653.5999755859</ele>
        <time>2021-01-02T08:57:55.000Z</time>
      </trkpt>
      <trkpt lat="45.22249" lon="6.02057">
        <ele>1654</ele>
        <time>2021-01-02T08:57:57.000Z</time>
      </trkpt>
      <trkpt lat="45.2225" lon="6.02059">
        <ele>1654.5999755859</ele>
        <time>2021-01-02T08:58:00.000Z</time>
      </trkpt>
      <trkpt lat="45.22249" lon="6.02059">
        <ele>1654.8000488281</ele>
        <time>2021-01-02T08:58:01.000Z</time>
      </trkpt>
      <trkpt lat="45.22248" lon="6.02065">
        <ele>1656</ele>
        <time>2021-01-02T08:58:07.000Z</time>
      </trkpt>
      <trkpt lat="45.22248" lon="6.0207">
        <ele>1657</ele>
        <time>2021-01-02T08:58:13.000Z</time>
      </trkpt>
      <trkpt lat="45.22247" lon="6.02074">
        <ele>1658.1999511719</ele>
        <time>2021-01-02T08:58:18.000Z</time>
      </trkpt>
      <trkpt lat="45.22248" lon="6.02077">
        <ele>1658.8000488281</ele>
        <time>2021-01-02T08:58:21.000Z</time>
      </trkpt>
      <trkpt lat="45.22248" lon="6.02077">
        <ele>1659.4000244141</ele>
        <time>2021-01-02T08:58:24.000Z</time>
      </trkpt>
      <trkpt lat="45.22248" lon="6.02078">
        <ele>1660</ele>
        <time>2021-01-02T08:58:28.000Z</time>
      </trkpt>
      <trkpt lat="45.22248" lon="6.02079">
        <ele>1660.1999511719</ele>
        <time>2021-01-02T08:58:35.000Z</time>
      </trkpt>
      <trkpt lat="45.22248" lon="6.02081">
        <ele>1660.1999511719</ele>
        <time>2021-01-02T08:58:44.000Z</time>
      </trkpt>
      <trkpt lat="45.2225" lon="6.02085">
        <ele>1660.5999755859</ele>
        <time>2021-01-02T08:58:49.000Z</time>
      </trkpt>
      <trkpt lat="45.22251" lon="6.02088">
        <ele>1661</ele>
        <time>2021-01-02T08:58:52.000Z</time>
      </trkpt>
      <trkpt lat="45.22251" lon="6.02089">
        <ele>1661.1999511719</ele>
        <time>2021-01-02T08:58:53.000Z</time>
      </trkpt>
      <trkpt lat="45.22251" lon="6.02093">
        <ele>1661.5999755859</ele>
        <time>2021-01-02T08:58:56.000Z</time>
      </trkpt>
      <trkpt lat="45.22251" lon="6.02094">
        <ele>1661.8000488281</ele>
        <time>2021-01-02T08:58:57.000Z</time>
      </trkpt>
      <trkpt lat="45.22251" lon="6.02096">
        <ele>1662.1999511719</ele>
        <time>2021-01-02T08:58:59.000Z</time>
      </trkpt>
      <trkpt lat="45.22251" lon="6.021">
        <ele>1662.5999755859</ele>
        <time>2021-01-02T08:59:02.000Z</time>
      </trkpt>
      <trkpt lat="45.22251" lon="6.02101">
        <ele>1662.8000488281</ele>
        <time>2021-01-02T08:59:03.000Z</time>
      </trkpt>
      <trkpt lat="45.2225" lon="6.02104">
        <ele>1663.5999755859</ele>
        <time>2021-01-02T08:59:07.000Z</time>
      </trkpt>
      <trkpt lat="45.2225" lon="6.02106">
        <ele>1664</ele>
        <time>2021-01-02T08:59:10.000Z</time>
      </trkpt>
      <trkpt lat="45.22249" lon="6.02114">
        <ele>1664.8000488281</ele>
        <time>2021-01-02T08:59:16.000Z</time>
      </trkpt>
      <trkpt lat="45.22249" lon="6.02116">
        <ele>1665</ele>
        <time>2021-01-02T08:59:18.000Z</time>
      </trkpt>
      <trkpt lat="45.22247" lon="6.02118">
        <ele>1665.8000488281</ele>
        <time>2021-01-02T08:59:25.000Z</time>
      </trkpt>
      <trkpt lat="45.22248" lon="6.02119">
        <ele>1665.8000488281</ele>
        <time>2021-01-02T08:59:26.000Z</time>
      </trkpt>
      <trkpt lat="45.22247" lon="6.02121">
        <ele>1665.8000488281</ele>
        <time>2021-01-02T08:59:27.000Z</time>
      </trkpt>
      <trkpt lat="45.22246" lon="6.02126">
        <ele>1666</ele>
        <time>2021-01-02T08:59:30.000Z</time>
      </trkpt>
      <trkpt lat="45.22246" lon="6.02134">
        <ele>1666.1999511719</ele>
        <time>2021-01-02T08:59:36.000Z</time>
      </trkpt>
      <trkpt lat="45.22246" lon="6.02135">
        <ele>1666.1999511719</ele>
        <time>2021-01-02T08:59:37.000Z</time>
      </trkpt>
      <trkpt lat="45.22245" lon="6.02144">
        <ele>1666.4000244141</ele>
        <time>2021-01-02T08:59:43.000Z</time>
      </trkpt>
      <trkpt lat="45.22244" lon="6.02153">
        <ele>1666.8000488281</ele>
        <time>2021-01-02T08:59:50.000Z</time>
      </trkpt>
      <trkpt lat="45.22243" lon="6.02158">
        <ele>1668</ele>
        <time>2021-01-02T08:59:55.000Z</time>
      </trkpt>
      <trkpt lat="45.22242" lon="6.0216">
        <ele>1668.4000244141</ele>
        <time>2021-01-02T08:59:57.000Z</time>
      </trkpt>
      <trkpt lat="45.22243" lon="6.02166">
        <ele>1669</ele>
        <time>2021-01-02T09:00:03.000Z</time>
      </trkpt>
      <trkpt lat="45.22243" lon="6.02166">
        <ele>1669.8000488281</ele>
        <time>2021-01-02T09:00:11.000Z</time>
      </trkpt>
      <trkpt lat="45.22243" lon="6.02166">
        <ele>1669.8000488281</ele>
        <time>2021-01-02T09:00:24.000Z</time>
      </trkpt>
      <trkpt lat="45.22243" lon="6.02167">
        <ele>1670</ele>
        <time>2021-01-02T09:00:30.000Z</time>
      </trkpt>
      <trkpt lat="45.22244" lon="6.02168">
        <ele>1670</ele>
        <time>2021-01-02T09:00:31.000Z</time>
      </trkpt>
      <trkpt lat="45.22247" lon="6.0217">
        <ele>1670.1999511719</ele>
        <time>2021-01-02T09:00:35.000Z</time>
      </trkpt>
      <trkpt lat="45.22251" lon="6.0217">
        <ele>1670.5999755859</ele>
        <time>2021-01-02T09:00:41.000Z</time>
      </trkpt>
      <trkpt lat="45.22257" lon="6.0217">
        <ele>1671</ele>
        <time>2021-01-02T09:00:47.000Z</time>
      </trkpt>
      <trkpt lat="45.22259" lon="6.02169">
        <ele>1671</ele>
        <time>2021-01-02T09:00:49.000Z</time>
      </trkpt>
      <trkpt lat="45.2226" lon="6.0217">
        <ele>1671.1999511719</ele>
        <time>2021-01-02T09:00:50.000Z</time>
      </trkpt>
      <trkpt lat="45.22264" lon="6.02169">
        <ele>1671.4000244141</ele>
        <time>2021-01-02T09:00:54.000Z</time>
      </trkpt>
      <trkpt lat="45.22268" lon="6.02168">
        <ele>1671.5999755859</ele>
        <time>2021-01-02T09:00:59.000Z</time>
      </trkpt>
      <trkpt lat="45.22271" lon="6.02168">
        <ele>1671.8000488281</ele>
        <time>2021-01-02T09:01:01.000Z</time>
      </trkpt>
      <trkpt lat="45.22273" lon="6.02168">
        <ele>1672</ele>
        <time>2021-01-02T09:01:03.000Z</time>
      </trkpt>
      <trkpt lat="45.22274" lon="6.02168">
        <ele>1672.1999511719</ele>
        <time>2021-01-02T09:01:04.000Z</time>
      </trkpt>
      <trkpt lat="45.22278" lon="6.02166">
        <ele>1672.5999755859</ele>
        <time>2021-01-02T09:01:08.000Z</time>
      </trkpt>
      <trkpt lat="45.22283" lon="6.02164">
        <ele>1673.1999511719</ele>
        <time>2021-01-02T09:01:13.000Z</time>
      </trkpt>
      <trkpt lat="45.22284" lon="6.02163">
        <ele>1673.4000244141</ele>
        <time>2021-01-02T09:01:15.000Z</time>
      </trkpt>
      <trkpt lat="45.22289" lon="6.02162">
        <ele>1674.1999511719</ele>
        <time>2021-01-02T09:01:21.000Z</time>
      </trkpt>
      <trkpt lat="45.22293" lon="6.02161">
        <ele>1675.1999511719</ele>
        <time>2021-01-02T09:01:26.000Z</time>
      </trkpt>
      <trkpt lat="45.22294" lon="6.0216">
        <ele>1675.1999511719</ele>
        <time>2021-01-02T09:01:27.000Z</time>
      </trkpt>
      <trkpt lat="45.22295" lon="6.02161">
        <ele>1675.4000244141</ele>
        <time>2021-01-02T09:01:28.000Z</time>
      </trkpt>
      <trkpt lat="45.22298" lon="6.02163">
        <ele>1675.8000488281</ele>
        <time>2021-01-02T09:01:33.000Z</time>
      </trkpt>
      <trkpt lat="45.22301" lon="6.02162">
        <ele>1676</ele>
        <time>2021-01-02T09:01:38.000Z</time>
      </trkpt>
      <trkpt lat="45.22302" lon="6.02161">
        <ele>1676.4000244141</ele>
        <time>2021-01-02T09:01:43.000Z</time>
      </trkpt>
      <trkpt lat="45.22302" lon="6.02161">
        <ele>1676.5999755859</ele>
        <time>2021-01-02T09:01:45.000Z</time>
      </trkpt>
      <trkpt lat="45.22303" lon="6.02162">
        <ele>1676.4000244141</ele>
        <time>2021-01-02T09:01:54.000Z</time>
      </trkpt>
      <trkpt lat="45.22304" lon="6.02162">
        <ele>1676.5999755859</ele>
        <time>2021-01-02T09:02:00.000Z</time>
      </trkpt>
      <trkpt lat="45.22305" lon="6.02164">
        <ele>1677.1999511719</ele>
        <time>2021-01-02T09:02:05.000Z</time>
      </trkpt>
      <trkpt lat="45.22306" lon="6.02165">
        <ele>1677.4000244141</ele>
        <time>2021-01-02T09:02:07.000Z</time>
      </trkpt>
      <trkpt lat="45.22307" lon="6.02167">
        <ele>1677.8000488281</ele>
        <time>2021-01-02T09:02:10.000Z</time>
      </trkpt>
      <trkpt lat="45.22309" lon="6.0217">
        <ele>1678</ele>
        <time>2021-01-02T09:02:15.000Z</time>
      </trkpt>
      <trkpt lat="45.2231" lon="6.02172">
        <ele>1678</ele>
        <time>2021-01-02T09:02:17.000Z</time>
      </trkpt>
      <trkpt lat="45.2231" lon="6.02173">
        <ele>1678.5999755859</ele>
        <time>2021-01-02T09:02:20.000Z</time>
      </trkpt>
      <trkpt lat="45.22311" lon="6.02172">
        <ele>1678.5999755859</ele>
        <time>2021-01-02T09:02:21.000Z</time>
      </trkpt>
      <trkpt lat="45.22312" lon="6.02177">
        <ele>1679.4000244141</ele>
        <time>2021-01-02T09:02:26.000Z</time>
      </trkpt>
      <trkpt lat="45.22312" lon="6.02178">
        <ele>1679.5999755859</ele>
        <time>2021-01-02T09:02:27.000Z</time>
      </trkpt>
      <trkpt lat="45.22314" lon="6.0218">
        <ele>1680.1999511719</ele>
        <time>2021-01-02T09:02:32.000Z</time>
      </trkpt>
      <trkpt lat="45.22314" lon="6.02181">
        <ele>1680.4000244141</ele>
        <time>2021-01-02T09:02:33.000Z</time>
      </trkpt>
      <trkpt lat="45.22315" lon="6.02182">
        <ele>1680.5999755859</ele>
        <time>2021-01-02T09:02:35.000Z</time>
      </trkpt>
      <trkpt lat="45.22317" lon="6.02184">
        <ele>1680.8000488281</ele>
        <time>2021-01-02T09:02:37.000Z</time>
      </trkpt>
      <trkpt lat="45.22321" lon="6.0219">
        <ele>1681.8000488281</ele>
        <time>2021-01-02T09:02:44.000Z</time>
      </trkpt>
      <trkpt lat="45.22322" lon="6.0219">
        <ele>1681.8000488281</ele>
        <time>2021-01-02T09:02:45.000Z</time>
      </trkpt>
      <trkpt lat="45.22325" lon="6.02195">
        <ele>1682.1999511719</ele>
        <time>2021-01-02T09:02:50.000Z</time>
      </trkpt>
      <trkpt lat="45.22326" lon="6.02198">
        <ele>1682.4000244141</ele>
        <time>2021-01-02T09:02:56.000Z</time>
      </trkpt>
      <trkpt lat="45.22329" lon="6.02202">
        <ele>1682.8000488281</ele>
        <time>2021-01-02T09:03:01.000Z</time>
      </trkpt>
      <trkpt lat="45.22329" lon="6.02205">
        <ele>1683.4000244141</ele>
        <time>2021-01-02T09:03:04.000Z</time>
      </trkpt>
      <trkpt lat="45.2233" lon="6.02206">
        <ele>1684</ele>
        <time>2021-01-02T09:03:07.000Z</time>
      </trkpt>
      <trkpt lat="45.2233" lon="6.02206">
        <ele>1684.4000244141</ele>
        <time>2021-01-02T09:03:10.000Z</time>
      </trkpt>
      <trkpt lat="45.22331" lon="6.02209">
        <ele>1684.8000488281</ele>
        <time>2021-01-02T09:03:15.000Z</time>
      </trkpt>
      <trkpt lat="45.22332" lon="6.02209">
        <ele>1684.8000488281</ele>
        <time>2021-01-02T09:03:16.000Z</time>
      </trkpt>
      <trkpt lat="45.22334" lon="6.02213">
        <ele>1685.1999511719</ele>
        <time>2021-01-02T09:03:20.000Z</time>
      </trkpt>
      <trkpt lat="45.22336" lon="6.02216">
        <ele>1685.5999755859</ele>
        <time>2021-01-02T09:03:23.000Z</time>
      </trkpt>
      <trkpt lat="45.22338" lon="6.02219">
        <ele>1686.1999511719</ele>
        <time>2021-01-02T09:03:27.000Z</time>
      </trkpt>
      <trkpt lat="45.2234" lon="6.02221">
        <ele>1686.8000488281</ele>
        <time>2021-01-02T09:03:30.000Z</time>
      </trkpt>
      <trkpt lat="45.22341" lon="6.02223">
        <ele>1687.4000244141</ele>
        <time>2021-01-02T09:03:32.000Z</time>
      </trkpt>
      <trkpt lat="45.22344" lon="6.02227">
        <ele>1688.4000244141</ele>
        <time>2021-01-02T09:03:37.000Z</time>
      </trkpt>
      <trkpt lat="45.22344" lon="6.02228">
        <ele>1688.5999755859</ele>
        <time>2021-01-02T09:03:38.000Z</time>
      </trkpt>
      <trkpt lat="45.22344" lon="6.02229">
        <ele>1689.5999755859</ele>
        <time>2021-01-02T09:03:42.000Z</time>
      </trkpt>
      <trkpt lat="45.22343" lon="6.0223">
        <ele>1689.8000488281</ele>
        <time>2021-01-02T09:03:44.000Z</time>
      </trkpt>
      <trkpt lat="45.22338" lon="6.0223">
        <ele>1690.5999755859</ele>
        <time>2021-01-02T09:03:50.000Z</time>
      </trkpt>
      <trkpt lat="45.22338" lon="6.02229">
        <ele>1690.8000488281</ele>
        <time>2021-01-02T09:03:51.000Z</time>
      </trkpt>
      <trkpt lat="45.22337" lon="6.0223">
        <ele>1691</ele>
        <time>2021-01-02T09:03:52.000Z</time>
      </trkpt>
      <trkpt lat="45.22334" lon="6.0223">
        <ele>1691.5999755859</ele>
        <time>2021-01-02T09:03:55.000Z</time>
      </trkpt>
      <trkpt lat="45.22331" lon="6.02231">
        <ele>1692</ele>
        <time>2021-01-02T09:03:59.000Z</time>
      </trkpt>
      <trkpt lat="45.22328" lon="6.02232">
        <ele>1692.8000488281</ele>
        <time>2021-01-02T09:04:05.000Z</time>
      </trkpt>
      <trkpt lat="45.22327" lon="6.02232">
        <ele>1692.8000488281</ele>
        <time>2021-01-02T09:04:06.000Z</time>
      </trkpt>
      <trkpt lat="45.22322" lon="6.02234">
        <ele>1693.8000488281</ele>
        <time>2021-01-02T09:04:12.000Z</time>
      </trkpt>
      <trkpt lat="45.22321" lon="6.02234">
        <ele>1694</ele>
        <time>2021-01-02T09:04:13.000Z</time>
      </trkpt>
      <trkpt lat="45.22318" lon="6.02235">
        <ele>1695</ele>
        <time>2021-01-02T09:04:18.000Z</time>
      </trkpt>
      <trkpt lat="45.22315" lon="6.02235">
        <ele>1695.8000488281</ele>
        <time>2021-01-02T09:04:22.000Z</time>
      </trkpt>
      <trkpt lat="45.22314" lon="6.02236">
        <ele>1696</ele>
        <time>2021-01-02T09:04:24.000Z</time>
      </trkpt>
      <trkpt lat="45.2231" lon="6.02237">
        <ele>1696.8000488281</ele>
        <time>2021-01-02T09:04:29.000Z</time>
      </trkpt>
      <trkpt lat="45.22308" lon="6.02237">
        <ele>1697.1999511719</ele>
        <time>2021-01-02T09:04:31.000Z</time>
      </trkpt>
      <trkpt lat="45.22306" lon="6.0224">
        <ele>1698</ele>
        <time>2021-01-02T09:04:36.000Z</time>
      </trkpt>
      <trkpt lat="45.22305" lon="6.0224">
        <ele>1698.1999511719</ele>
        <time>2021-01-02T09:04:37.000Z</time>
      </trkpt>
      <trkpt lat="45.22304" lon="6.02244">
        <ele>1699</ele>
        <time>2021-01-02T09:04:42.000Z</time>
      </trkpt>
      <trkpt lat="45.22304" lon="6.02245">
        <ele>1699.4000244141</ele>
        <time>2021-01-02T09:04:44.000Z</time>
      </trkpt>
      <trkpt lat="45.22304" lon="6.02249">
        <ele>1700.1999511719</ele>
        <time>2021-01-02T09:04:49.000Z</time>
      </trkpt>
      <trkpt lat="45.22304" lon="6.0225">
        <ele>1700.4000244141</ele>
        <time>2021-01-02T09:04:50.000Z</time>
      </trkpt>
      <trkpt lat="45.22304" lon="6.02252">
        <ele>1700.5999755859</ele>
        <time>2021-01-02T09:04:51.000Z</time>
      </trkpt>
      <trkpt lat="45.22304" lon="6.02256">
        <ele>1701.1999511719</ele>
        <time>2021-01-02T09:04:55.000Z</time>
      </trkpt>
      <trkpt lat="45.22304" lon="6.02257">
        <ele>1701.4000244141</ele>
        <time>2021-01-02T09:04:56.000Z</time>
      </trkpt>
      <trkpt lat="45.22305" lon="6.02262">
        <ele>1702.4000244141</ele>
        <time>2021-01-02T09:05:02.000Z</time>
      </trkpt>
      <trkpt lat="45.22305" lon="6.02264">
        <ele>1702.5999755859</ele>
        <time>2021-01-02T09:05:03.000Z</time>
      </trkpt>
      <trkpt lat="45.22306" lon="6.02268">
        <ele>1703.4000244141</ele>
        <time>2021-01-02T09:05:08.000Z</time>
      </trkpt>
      <trkpt lat="45.22307" lon="6.02271">
        <ele>1703.5999755859</ele>
        <time>2021-01-02T09:05:10.000Z</time>
      </trkpt>
      <trkpt lat="45.22308" lon="6.02275">
        <ele>1704.1999511719</ele>
        <time>2021-01-02T09:05:15.000Z</time>
      </trkpt>
      <trkpt lat="45.22309" lon="6.02278">
        <ele>1704.8000488281</ele>
        <time>2021-01-02T09:05:19.000Z</time>
      </trkpt>
      <trkpt lat="45.2231" lon="6.02281">
        <ele>1705.4000244141</ele>
        <time>2021-01-02T09:05:22.000Z</time>
      </trkpt>
      <trkpt lat="45.2231" lon="6.02283">
        <ele>1705.8000488281</ele>
        <time>2021-01-02T09:05:25.000Z</time>
      </trkpt>
      <trkpt lat="45.22312" lon="6.02289">
        <ele>1706.4000244141</ele>
        <time>2021-01-02T09:05:29.000Z</time>
      </trkpt>
      <trkpt lat="45.22313" lon="6.02291">
        <ele>1707</ele>
        <time>2021-01-02T09:05:31.000Z</time>
      </trkpt>
      <trkpt lat="45.22315" lon="6.02294">
        <ele>1707.4000244141</ele>
        <time>2021-01-02T09:05:35.000Z</time>
      </trkpt>
      <trkpt lat="45.22317" lon="6.023">
        <ele>1708</ele>
        <time>2021-01-02T09:05:40.000Z</time>
      </trkpt>
      <trkpt lat="45.22319" lon="6.02303">
        <ele>1708.4000244141</ele>
        <time>2021-01-02T09:05:42.000Z</time>
      </trkpt>
      <trkpt lat="45.22321" lon="6.0231">
        <ele>1709</ele>
        <time>2021-01-02T09:05:49.000Z</time>
      </trkpt>
      <trkpt lat="45.22321" lon="6.0231">
        <ele>1709</ele>
        <time>2021-01-02T09:05:50.000Z</time>
      </trkpt>
      <trkpt lat="45.22321" lon="6.02313">
        <ele>1710</ele>
        <time>2021-01-02T09:05:55.000Z</time>
      </trkpt>
      <trkpt lat="45.22321" lon="6.02313">
        <ele>1710.1999511719</ele>
        <time>2021-01-02T09:05:56.000Z</time>
      </trkpt>
      <trkpt lat="45.22321" lon="6.02313">
        <ele>1710.8000488281</ele>
        <time>2021-01-02T09:06:05.000Z</time>
      </trkpt>
      <trkpt lat="45.22323" lon="6.02319">
        <ele>1711.1999511719</ele>
        <time>2021-01-02T09:06:11.000Z</time>
      </trkpt>
      <trkpt lat="45.22324" lon="6.02319">
        <ele>1711.1999511719</ele>
        <time>2021-01-02T09:06:12.000Z</time>
      </trkpt>
      <trkpt lat="45.22324" lon="6.0232">
        <ele>1711.1999511719</ele>
        <time>2021-01-02T09:06:15.000Z</time>
      </trkpt>
      <trkpt lat="45.22324" lon="6.0232">
        <ele>1711.4000244141</ele>
        <time>2021-01-02T09:06:17.000Z</time>
      </trkpt>
      <trkpt lat="45.22324" lon="6.0232">
        <ele>1711.4000244141</ele>
        <time>2021-01-02T09:06:26.000Z</time>
      </trkpt>
      <trkpt lat="45.22325" lon="6.02322">
        <ele>1711.4000244141</ele>
        <time>2021-01-02T09:06:32.000Z</time>
      </trkpt>
      <trkpt lat="45.22327" lon="6.02324">
        <ele>1711.4000244141</ele>
        <time>2021-01-02T09:06:34.000Z</time>
      </trkpt>
      <trkpt lat="45.22332" lon="6.02331">
        <ele>1710.5999755859</ele>
        <time>2021-01-02T09:06:44.000Z</time>
      </trkpt>
      <trkpt lat="45.22334" lon="6.02332">
        <ele>1710</ele>
        <time>2021-01-02T09:06:47.000Z</time>
      </trkpt>
      <trkpt lat="45.22337" lon="6.02334">
        <ele>1709.5999755859</ele>
        <time>2021-01-02T09:06:51.000Z</time>
      </trkpt>
      <trkpt lat="45.22343" lon="6.02336">
        <ele>1710</ele>
        <time>2021-01-02T09:06:57.000Z</time>
      </trkpt>
      <trkpt lat="45.22344" lon="6.02336">
        <ele>1710.1999511719</ele>
        <time>2021-01-02T09:06:59.000Z</time>
      </trkpt>
      <trkpt lat="45.22347" lon="6.02335">
        <ele>1710.8000488281</ele>
        <time>2021-01-02T09:07:03.000Z</time>
      </trkpt>
      <trkpt lat="45.22348" lon="6.02336">
        <ele>1711.1999511719</ele>
        <time>2021-01-02T09:07:05.000Z</time>
      </trkpt>
      <trkpt lat="45.2235" lon="6.02335">
        <ele>1711.4000244141</ele>
        <time>2021-01-02T09:07:06.000Z</time>
      </trkpt>
      <trkpt lat="45.22351" lon="6.02335">
        <ele>1711.8000488281</ele>
        <time>2021-01-02T09:07:08.000Z</time>
      </trkpt>
      <trkpt lat="45.22353" lon="6.02334">
        <ele>1712.1999511719</ele>
        <time>2021-01-02T09:07:10.000Z</time>
      </trkpt>
      <trkpt lat="45.22358" lon="6.02333">
        <ele>1713.1999511719</ele>
        <time>2021-01-02T09:07:15.000Z</time>
      </trkpt>
      <trkpt lat="45.22361" lon="6.02331">
        <ele>1714.4000244141</ele>
        <time>2021-01-02T09:07:20.000Z</time>
      </trkpt>
      <trkpt lat="45.22363" lon="6.02331">
        <ele>1714.8000488281</ele>
        <time>2021-01-02T09:07:22.000Z</time>
      </trkpt>
      <trkpt lat="45.22366" lon="6.02331">
        <ele>1715.4000244141</ele>
        <time>2021-01-02T09:07:25.000Z</time>
      </trkpt>
      <trkpt lat="45.22369" lon="6.02333">
        <ele>1716.1999511719</ele>
        <time>2021-01-02T09:07:30.000Z</time>
      </trkpt>
      <trkpt lat="45.22369" lon="6.02334">
        <ele>1716.4000244141</ele>
        <time>2021-01-02T09:07:31.000Z</time>
      </trkpt>
      <trkpt lat="45.22372" lon="6.02337">
        <ele>1717.4000244141</ele>
        <time>2021-01-02T09:07:36.000Z</time>
      </trkpt>
      <trkpt lat="45.22373" lon="6.02337">
        <ele>1717.5999755859</ele>
        <time>2021-01-02T09:07:37.000Z</time>
      </trkpt>
      <trkpt lat="45.22376" lon="6.0234">
        <ele>1718.8000488281</ele>
        <time>2021-01-02T09:07:43.000Z</time>
      </trkpt>
      <trkpt lat="45.22377" lon="6.02341">
        <ele>1719</ele>
        <time>2021-01-02T09:07:44.000Z</time>
      </trkpt>
      <trkpt lat="45.22378" lon="6.02343">
        <ele>1719.8000488281</ele>
        <time>2021-01-02T09:07:48.000Z</time>
      </trkpt>
      <trkpt lat="45.22379" lon="6.02346">
        <ele>1720.8000488281</ele>
        <time>2021-01-02T09:07:52.000Z</time>
      </trkpt>
      <trkpt lat="45.22379" lon="6.02347">
        <ele>1721</ele>
        <time>2021-01-02T09:07:53.000Z</time>
      </trkpt>
      <trkpt lat="45.22379" lon="6.02353">
        <ele>1722</ele>
        <time>2021-01-02T09:07:58.000Z</time>
      </trkpt>
      <trkpt lat="45.2238" lon="6.02356">
        <ele>1722.5999755859</ele>
        <time>2021-01-02T09:08:01.000Z</time>
      </trkpt>
      <trkpt lat="45.2238" lon="6.0236">
        <ele>1723.1999511719</ele>
        <time>2021-01-02T09:08:04.000Z</time>
      </trkpt>
      <trkpt lat="45.2238" lon="6.02363">
        <ele>1724</ele>
        <time>2021-01-02T09:08:08.000Z</time>
      </trkpt>
      <trkpt lat="45.22381" lon="6.02365">
        <ele>1724.4000244141</ele>
        <time>2021-01-02T09:08:10.000Z</time>
      </trkpt>
      <trkpt lat="45.22381" lon="6.02371">
        <ele>1725.4000244141</ele>
        <time>2021-01-02T09:08:15.000Z</time>
      </trkpt>
      <trkpt lat="45.22381" lon="6.02372">
        <ele>1725.5999755859</ele>
        <time>2021-01-02T09:08:16.000Z</time>
      </trkpt>
      <trkpt lat="45.22382" lon="6.02377">
        <ele>1726.4000244141</ele>
        <time>2021-01-02T09:08:20.000Z</time>
      </trkpt>
      <trkpt lat="45.22382" lon="6.02378">
        <ele>1726.4000244141</ele>
        <time>2021-01-02T09:08:21.000Z</time>
      </trkpt>
      <trkpt lat="45.22382" lon="6.0238">
        <ele>1726.8000488281</ele>
        <time>2021-01-02T09:08:24.000Z</time>
      </trkpt>
      <trkpt lat="45.22383" lon="6.02384">
        <ele>1727.5999755859</ele>
        <time>2021-01-02T09:08:28.000Z</time>
      </trkpt>
      <trkpt lat="45.22384" lon="6.02387">
        <ele>1728</ele>
        <time>2021-01-02T09:08:30.000Z</time>
      </trkpt>
      <trkpt lat="45.22386" lon="6.02391">
        <ele>1728.5999755859</ele>
        <time>2021-01-02T09:08:34.000Z</time>
      </trkpt>
      <trkpt lat="45.22386" lon="6.02394">
        <ele>1729.1999511719</ele>
        <time>2021-01-02T09:08:37.000Z</time>
      </trkpt>
      <trkpt lat="45.22386" lon="6.02397">
        <ele>1729.8000488281</ele>
        <time>2021-01-02T09:08:40.000Z</time>
      </trkpt>
      <trkpt lat="45.22386" lon="6.02402">
        <ele>1730.8000488281</ele>
        <time>2021-01-02T09:08:44.000Z</time>
      </trkpt>
      <trkpt lat="45.22386" lon="6.02403">
        <ele>1731</ele>
        <time>2021-01-02T09:08:45.000Z</time>
      </trkpt>
      <trkpt lat="45.22387" lon="6.0241">
        <ele>1732.1999511719</ele>
        <time>2021-01-02T09:08:51.000Z</time>
      </trkpt>
      <trkpt lat="45.22389" lon="6.02418">
        <ele>1733.1999511719</ele>
        <time>2021-01-02T09:08:58.000Z</time>
      </trkpt>
      <trkpt lat="45.2239" lon="6.02422">
        <ele>1734.1999511719</ele>
        <time>2021-01-02T09:09:03.000Z</time>
      </trkpt>
      <trkpt lat="45.2239" lon="6.02423">
        <ele>1734.5999755859</ele>
        <time>2021-01-02T09:09:04.000Z</time>
      </trkpt>
      <trkpt lat="45.22391" lon="6.02425">
        <ele>1735.5999755859</ele>
        <time>2021-01-02T09:09:07.000Z</time>
      </trkpt>
      <trkpt lat="45.22391" lon="6.02425">
        <ele>1735.8000488281</ele>
        <time>2021-01-02T09:09:08.000Z</time>
      </trkpt>
      <trkpt lat="45.22392" lon="6.02425">
        <ele>1736.1999511719</ele>
        <time>2021-01-02T09:09:10.000Z</time>
      </trkpt>
      <trkpt lat="45.22392" lon="6.02424">
        <ele>1736.5999755859</ele>
        <time>2021-01-02T09:09:12.000Z</time>
      </trkpt>
      <trkpt lat="45.22395" lon="6.02422">
        <ele>1737</ele>
        <time>2021-01-02T09:09:16.000Z</time>
      </trkpt>
      <trkpt lat="45.22399" lon="6.02419">
        <ele>1737.8000488281</ele>
        <time>2021-01-02T09:09:21.000Z</time>
      </trkpt>
      <trkpt lat="45.224" lon="6.02418">
        <ele>1738.1999511719</ele>
        <time>2021-01-02T09:09:23.000Z</time>
      </trkpt>
      <trkpt lat="45.22402" lon="6.02417">
        <ele>1738.8000488281</ele>
        <time>2021-01-02T09:09:25.000Z</time>
      </trkpt>
      <trkpt lat="45.22406" lon="6.02416">
        <ele>1739.8000488281</ele>
        <time>2021-01-02T09:09:30.000Z</time>
      </trkpt>
      <trkpt lat="45.22406" lon="6.02415">
        <ele>1740.4000244141</ele>
        <time>2021-01-02T09:09:31.000Z</time>
      </trkpt>
      <trkpt lat="45.22407" lon="6.02415">
        <ele>1740.5999755859</ele>
        <time>2021-01-02T09:09:32.000Z</time>
      </trkpt>
      <trkpt lat="45.22408" lon="6.02414">
        <ele>1741</ele>
        <time>2021-01-02T09:09:33.000Z</time>
      </trkpt>
      <trkpt lat="45.2241" lon="6.02412">
        <ele>1742</ele>
        <time>2021-01-02T09:09:37.000Z</time>
      </trkpt>
      <trkpt lat="45.22413" lon="6.02409">
        <ele>1743.1999511719</ele>
        <time>2021-01-02T09:09:42.000Z</time>
      </trkpt>
      <trkpt lat="45.22415" lon="6.02408">
        <ele>1743.5999755859</ele>
        <time>2021-01-02T09:09:44.000Z</time>
      </trkpt>
      <trkpt lat="45.22417" lon="6.02407">
        <ele>1744.1999511719</ele>
        <time>2021-01-02T09:09:47.000Z</time>
      </trkpt>
      <trkpt lat="45.2242" lon="6.02407">
        <ele>1745.1999511719</ele>
        <time>2021-01-02T09:09:51.000Z</time>
      </trkpt>
      <trkpt lat="45.22421" lon="6.02407">
        <ele>1745.4000244141</ele>
        <time>2021-01-02T09:09:53.000Z</time>
      </trkpt>
      <trkpt lat="45.22424" lon="6.02407">
        <ele>1746.4000244141</ele>
        <time>2021-01-02T09:09:58.000Z</time>
      </trkpt>
      <trkpt lat="45.22427" lon="6.02407">
        <ele>1747.4000244141</ele>
        <time>2021-01-02T09:10:03.000Z</time>
      </trkpt>
      <trkpt lat="45.22427" lon="6.02408">
        <ele>1747.5999755859</ele>
        <time>2021-01-02T09:10:04.000Z</time>
      </trkpt>
      <trkpt lat="45.22428" lon="6.02408">
        <ele>1747.8000488281</ele>
        <time>2021-01-02T09:10:08.000Z</time>
      </trkpt>
      <trkpt lat="45.22428" lon="6.02408">
        <ele>1748.1999511719</ele>
        <time>2021-01-02T09:10:21.000Z</time>
      </trkpt>
      <trkpt lat="45.22428" lon="6.02408">
        <ele>1748.1999511719</ele>
        <time>2021-01-02T09:10:35.000Z</time>
      </trkpt>
      <trkpt lat="45.22428" lon="6.02408">
        <ele>1748.1999511719</ele>
        <time>2021-01-02T09:10:52.000Z</time>
      </trkpt>
      <trkpt lat="45.22428" lon="6.02408">
        <ele>1748</ele>
        <time>2021-01-02T09:11:04.000Z</time>
      </trkpt>
      <trkpt lat="45.22428" lon="6.02408">
        <ele>1748</ele>
        <time>2021-01-02T09:11:17.000Z</time>
      </trkpt>
      <trkpt lat="45.22428" lon="6.02408">
        <ele>1748</ele>
        <time>2021-01-02T09:11:29.000Z</time>
      </trkpt>
      <trkpt lat="45.22429" lon="6.02408">
        <ele>1748</ele>
        <time>2021-01-02T09:11:33.000Z</time>
      </trkpt>
      <trkpt lat="45.2243" lon="6.0241">
        <ele>1748</ele>
        <time>2021-01-02T09:11:36.000Z</time>
      </trkpt>
      <trkpt lat="45.22431" lon="6.0241">
        <ele>1748.1999511719</ele>
        <time>2021-01-02T09:11:37.000Z</time>
      </trkpt>
      <trkpt lat="45.22432" lon="6.02408">
        <ele>1748.4000244141</ele>
        <time>2021-01-02T09:11:40.000Z</time>
      </trkpt>
      <trkpt lat="45.22432" lon="6.02408">
        <ele>1748.4000244141</ele>
        <time>2021-01-02T09:11:41.000Z</time>
      </trkpt>
      <trkpt lat="45.22436" lon="6.02408">
        <ele>1748.5999755859</ele>
        <time>2021-01-02T09:11:46.000Z</time>
      </trkpt>
      <trkpt lat="45.22437" lon="6.02407">
        <ele>1748.5999755859</ele>
        <time>2021-01-02T09:11:47.000Z</time>
      </trkpt>
      <trkpt lat="45.22442" lon="6.02408">
        <ele>1749.5999755859</ele>
        <time>2021-01-02T09:11:54.000Z</time>
      </trkpt>
      <trkpt lat="45.22444" lon="6.02408">
        <ele>1750.8000488281</ele>
        <time>2021-01-02T09:11:58.000Z</time>
      </trkpt>
      <trkpt lat="45.22444" lon="6.0241">
        <ele>1751.1999511719</ele>
        <time>2021-01-02T09:12:00.000Z</time>
      </trkpt>
      <trkpt lat="45.22444" lon="6.02411">
        <ele>1751.4000244141</ele>
        <time>2021-01-02T09:12:01.000Z</time>
      </trkpt>
      <trkpt lat="45.22444" lon="6.02413">
        <ele>1751.8000488281</ele>
        <time>2021-01-02T09:12:03.000Z</time>
      </trkpt>
      <trkpt lat="45.22444" lon="6.02418">
        <ele>1752.5999755859</ele>
        <time>2021-01-02T09:12:07.000Z</time>
      </trkpt>
      <trkpt lat="45.22443" lon="6.02421">
        <ele>1753</ele>
        <time>2021-01-02T09:12:10.000Z</time>
      </trkpt>
      <trkpt lat="45.22443" lon="6.02425">
        <ele>1754</ele>
        <time>2021-01-02T09:12:14.000Z</time>
      </trkpt>
      <trkpt lat="45.22443" lon="6.02426">
        <ele>1754.1999511719</ele>
        <time>2021-01-02T09:12:15.000Z</time>
      </trkpt>
      <trkpt lat="45.22443" lon="6.02432">
        <ele>1755.4000244141</ele>
        <time>2021-01-02T09:12:20.000Z</time>
      </trkpt>
      <trkpt lat="45.22443" lon="6.02434">
        <ele>1755.8000488281</ele>
        <time>2021-01-02T09:12:22.000Z</time>
      </trkpt>
      <trkpt lat="45.22443" lon="6.02439">
        <ele>1756.4000244141</ele>
        <time>2021-01-02T09:12:27.000Z</time>
      </trkpt>
      <trkpt lat="45.22443" lon="6.02441">
        <ele>1756.5999755859</ele>
        <time>2021-01-02T09:12:29.000Z</time>
      </trkpt>
      <trkpt lat="45.22442" lon="6.02445">
        <ele>1757.4000244141</ele>
        <time>2021-01-02T09:12:34.000Z</time>
      </trkpt>
      <trkpt lat="45.22443" lon="6.02449">
        <ele>1758</ele>
        <time>2021-01-02T09:12:37.000Z</time>
      </trkpt>
      <trkpt lat="45.22442" lon="6.02451">
        <ele>1758.4000244141</ele>
        <time>2021-01-02T09:12:40.000Z</time>
      </trkpt>
      <trkpt lat="45.22442" lon="6.02455">
        <ele>1759.4000244141</ele>
        <time>2021-01-02T09:12:44.000Z</time>
      </trkpt>
      <trkpt lat="45.22441" lon="6.02456">
        <ele>1759.5999755859</ele>
        <time>2021-01-02T09:12:45.000Z</time>
      </trkpt>
      <trkpt lat="45.22442" lon="6.0246">
        <ele>1760.5999755859</ele>
        <time>2021-01-02T09:12:50.000Z</time>
      </trkpt>
      <trkpt lat="45.22441" lon="6.02464">
        <ele>1761.8000488281</ele>
        <time>2021-01-02T09:12:56.000Z</time>
      </trkpt>
      <trkpt lat="45.22441" lon="6.02464">
        <ele>1762</ele>
        <time>2021-01-02T09:12:57.000Z</time>
      </trkpt>
      <trkpt lat="45.22441" lon="6.02464">
        <ele>1762.5999755859</ele>
        <time>2021-01-02T09:13:10.000Z</time>
      </trkpt>
      <trkpt lat="45.22441" lon="6.02468">
        <ele>1762.5999755859</ele>
        <time>2021-01-02T09:13:15.000Z</time>
      </trkpt>
      <trkpt lat="45.22441" lon="6.02472">
        <ele>1763</ele>
        <time>2021-01-02T09:13:19.000Z</time>
      </trkpt>
      <trkpt lat="45.22442" lon="6.02475">
        <ele>1763.4000244141</ele>
        <time>2021-01-02T09:13:22.000Z</time>
      </trkpt>
      <trkpt lat="45.22442" lon="6.0248">
        <ele>1764</ele>
        <time>2021-01-02T09:13:26.000Z</time>
      </trkpt>
      <trkpt lat="45.22443" lon="6.02482">
        <ele>1764.4000244141</ele>
        <time>2021-01-02T09:13:29.000Z</time>
      </trkpt>
      <trkpt lat="45.22443" lon="6.02485">
        <ele>1765.1999511719</ele>
        <time>2021-01-02T09:13:32.000Z</time>
      </trkpt>
      <trkpt lat="45.22445" lon="6.0249">
        <ele>1766.1999511719</ele>
        <time>2021-01-02T09:13:37.000Z</time>
      </trkpt>
      <trkpt lat="45.22446" lon="6.02491">
        <ele>1766.1999511719</ele>
        <time>2021-01-02T09:13:38.000Z</time>
      </trkpt>
      <trkpt lat="45.22448" lon="6.02496">
        <ele>1767</ele>
        <time>2021-01-02T09:13:44.000Z</time>
      </trkpt>
      <trkpt lat="45.22449" lon="6.02495">
        <ele>1767.4000244141</ele>
        <time>2021-01-02T09:13:46.000Z</time>
      </trkpt>
      <trkpt lat="45.22453" lon="6.02493">
        <ele>1768.5999755859</ele>
        <time>2021-01-02T09:13:51.000Z</time>
      </trkpt>
      <trkpt lat="45.22454" lon="6.02493">
        <ele>1768.8000488281</ele>
        <time>2021-01-02T09:13:52.000Z</time>
      </trkpt>
      <trkpt lat="45.22456" lon="6.02492">
        <ele>1769.5999755859</ele>
        <time>2021-01-02T09:13:55.000Z</time>
      </trkpt>
      <trkpt lat="45.22459" lon="6.0249">
        <ele>1770.4000244141</ele>
        <time>2021-01-02T09:13:59.000Z</time>
      </trkpt>
      <trkpt lat="45.22461" lon="6.02489">
        <ele>1770.8000488281</ele>
        <time>2021-01-02T09:14:01.000Z</time>
      </trkpt>
      <trkpt lat="45.22464" lon="6.02488">
        <ele>1771.4000244141</ele>
        <time>2021-01-02T09:14:06.000Z</time>
      </trkpt>
      <trkpt lat="45.22466" lon="6.02487">
        <ele>1771.8000488281</ele>
        <time>2021-01-02T09:14:09.000Z</time>
      </trkpt>
      <trkpt lat="45.22469" lon="6.02486">
        <ele>1772.8000488281</ele>
        <time>2021-01-02T09:14:13.000Z</time>
      </trkpt>
      <trkpt lat="45.22469" lon="6.02486">
        <ele>1773</ele>
        <time>2021-01-02T09:14:14.000Z</time>
      </trkpt>
      <trkpt lat="45.22471" lon="6.02485">
        <ele>1774.1999511719</ele>
        <time>2021-01-02T09:14:19.000Z</time>
      </trkpt>
      <trkpt lat="45.22474" lon="6.02483">
        <ele>1775.4000244141</ele>
        <time>2021-01-02T09:14:24.000Z</time>
      </trkpt>
      <trkpt lat="45.22475" lon="6.02482">
        <ele>1775.8000488281</ele>
        <time>2021-01-02T09:14:26.000Z</time>
      </trkpt>
      <trkpt lat="45.22477" lon="6.0248">
        <ele>1776.5999755859</ele>
        <time>2021-01-02T09:14:30.000Z</time>
      </trkpt>
      <trkpt lat="45.2248" lon="6.02479">
        <ele>1777.4000244141</ele>
        <time>2021-01-02T09:14:34.000Z</time>
      </trkpt>
      <trkpt lat="45.22482" lon="6.02478">
        <ele>1777.5999755859</ele>
        <time>2021-01-02T09:14:36.000Z</time>
      </trkpt>
      <trkpt lat="45.22482" lon="6.02478">
        <ele>1777.8000488281</ele>
        <time>2021-01-02T09:14:37.000Z</time>
      </trkpt>
      <trkpt lat="45.22485" lon="6.02479">
        <ele>1778.1999511719</ele>
        <time>2021-01-02T09:14:40.000Z</time>
      </trkpt>
      <trkpt lat="45.22487" lon="6.0248">
        <ele>1779</ele>
        <time>2021-01-02T09:14:43.000Z</time>
      </trkpt>
      <trkpt lat="45.22489" lon="6.02482">
        <ele>1779.5999755859</ele>
        <time>2021-01-02T09:14:46.000Z</time>
      </trkpt>
      <trkpt lat="45.2249" lon="6.02483">
        <ele>1780.1999511719</ele>
        <time>2021-01-02T09:14:48.000Z</time>
      </trkpt>
      <trkpt lat="45.22492" lon="6.02485">
        <ele>1781.1999511719</ele>
        <time>2021-01-02T09:14:53.000Z</time>
      </trkpt>
      <trkpt lat="45.22494" lon="6.02487">
        <ele>1782.5999755859</ele>
        <time>2021-01-02T09:14:59.000Z</time>
      </trkpt>
      <trkpt lat="45.22494" lon="6.0249">
        <ele>1783.5999755859</ele>
        <time>2021-01-02T09:15:03.000Z</time>
      </trkpt>
      <trkpt lat="45.22495" lon="6.02493">
        <ele>1784.5999755859</ele>
        <time>2021-01-02T09:15:07.000Z</time>
      </trkpt>
      <trkpt lat="45.22497" lon="6.02496">
        <ele>1785.5999755859</ele>
        <time>2021-01-02T09:15:11.000Z</time>
      </trkpt>
      <trkpt lat="45.22499" lon="6.02498">
        <ele>1786.8000488281</ele>
        <time>2021-01-02T09:15:15.000Z</time>
      </trkpt>
      <trkpt lat="45.22503" lon="6.02499">
        <ele>1788</ele>
        <time>2021-01-02T09:15:20.000Z</time>
      </trkpt>
      <trkpt lat="45.22505" lon="6.02499">
        <ele>1788.4000244141</ele>
        <time>2021-01-02T09:15:22.000Z</time>
      </trkpt>
      <trkpt lat="45.22505" lon="6.02499">
        <ele>1788.5999755859</ele>
        <time>2021-01-02T09:15:23.000Z</time>
      </trkpt>
      <trkpt lat="45.22506" lon="6.02499">
        <ele>1789</ele>
        <time>2021-01-02T09:15:24.000Z</time>
      </trkpt>
      <trkpt lat="45.22507" lon="6.02504">
        <ele>1789.4000244141</ele>
        <time>2021-01-02T09:15:31.000Z</time>
      </trkpt>
      <trkpt lat="45.22508" lon="6.02513">
        <ele>1790</ele>
        <time>2021-01-02T09:15:37.000Z</time>
      </trkpt>
      <trkpt lat="45.22508" lon="6.02515">
        <ele>1790</ele>
        <time>2021-01-02T09:15:38.000Z</time>
      </trkpt>
      <trkpt lat="45.22508" lon="6.0252">
        <ele>1790</ele>
        <time>2021-01-02T09:15:44.000Z</time>
      </trkpt>
      <trkpt lat="45.22508" lon="6.02523">
        <ele>1789.8000488281</ele>
        <time>2021-01-02T09:15:52.000Z</time>
      </trkpt>
      <trkpt lat="45.22508" lon="6.02523">
        <ele>1790.1999511719</ele>
        <time>2021-01-02T09:16:00.000Z</time>
      </trkpt>
      <trkpt lat="45.22509" lon="6.0253">
        <ele>1790</ele>
        <time>2021-01-02T09:16:06.000Z</time>
      </trkpt>
      <trkpt lat="45.2251" lon="6.02538">
        <ele>1790.5999755859</ele>
        <time>2021-01-02T09:16:13.000Z</time>
      </trkpt>
      <trkpt lat="45.2251" lon="6.02543">
        <ele>1791</ele>
        <time>2021-01-02T09:16:17.000Z</time>
      </trkpt>
      <trkpt lat="45.22511" lon="6.02545">
        <ele>1791.5999755859</ele>
        <time>2021-01-02T09:16:20.000Z</time>
      </trkpt>
      <trkpt lat="45.22511" lon="6.02547">
        <ele>1792</ele>
        <time>2021-01-02T09:16:22.000Z</time>
      </trkpt>
      <trkpt lat="45.22513" lon="6.0255">
        <ele>1792.5999755859</ele>
        <time>2021-01-02T09:16:26.000Z</time>
      </trkpt>
      <trkpt lat="45.22515" lon="6.02553">
        <ele>1793.1999511719</ele>
        <time>2021-01-02T09:16:29.000Z</time>
      </trkpt>
      <trkpt lat="45.22517" lon="6.02556">
        <ele>1793.5999755859</ele>
        <time>2021-01-02T09:16:32.000Z</time>
      </trkpt>
      <trkpt lat="45.22521" lon="6.02561">
        <ele>1794.1999511719</ele>
        <time>2021-01-02T09:16:38.000Z</time>
      </trkpt>
      <trkpt lat="45.22524" lon="6.02564">
        <ele>1795.5999755859</ele>
        <time>2021-01-02T09:16:44.000Z</time>
      </trkpt>
      <trkpt lat="45.22525" lon="6.02565">
        <ele>1795.8000488281</ele>
        <time>2021-01-02T09:16:45.000Z</time>
      </trkpt>
      <trkpt lat="45.22528" lon="6.02567">
        <ele>1796.8000488281</ele>
        <time>2021-01-02T09:16:49.000Z</time>
      </trkpt>
      <trkpt lat="45.22529" lon="6.02569">
        <ele>1797.1999511719</ele>
        <time>2021-01-02T09:16:51.000Z</time>
      </trkpt>
      <trkpt lat="45.22531" lon="6.02571">
        <ele>1798</ele>
        <time>2021-01-02T09:16:55.000Z</time>
      </trkpt>
      <trkpt lat="45.22532" lon="6.02572">
        <ele>1798.4000244141</ele>
        <time>2021-01-02T09:16:57.000Z</time>
      </trkpt>
      <trkpt lat="45.22534" lon="6.0257">
        <ele>1799</ele>
        <time>2021-01-02T09:17:00.000Z</time>
      </trkpt>
      <trkpt lat="45.22536" lon="6.0257">
        <ele>1799.8000488281</ele>
        <time>2021-01-02T09:17:03.000Z</time>
      </trkpt>
      <trkpt lat="45.22537" lon="6.02569">
        <ele>1800.1999511719</ele>
        <time>2021-01-02T09:17:05.000Z</time>
      </trkpt>
      <trkpt lat="45.22538" lon="6.0257">
        <ele>1800.4000244141</ele>
        <time>2021-01-02T09:17:06.000Z</time>
      </trkpt>
      <trkpt lat="45.2254" lon="6.02571">
        <ele>1801.1999511719</ele>
        <time>2021-01-02T09:17:09.000Z</time>
      </trkpt>
      <trkpt lat="45.22541" lon="6.02571">
        <ele>1801.1999511719</ele>
        <time>2021-01-02T09:17:10.000Z</time>
      </trkpt>
      <trkpt lat="45.22544" lon="6.02573">
        <ele>1802.4000244141</ele>
        <time>2021-01-02T09:17:16.000Z</time>
      </trkpt>
      <trkpt lat="45.22545" lon="6.02573">
        <ele>1802.5999755859</ele>
        <time>2021-01-02T09:17:17.000Z</time>
      </trkpt>
      <trkpt lat="45.22549" lon="6.02576">
        <ele>1803.4000244141</ele>
        <time>2021-01-02T09:17:22.000Z</time>
      </trkpt>
      <trkpt lat="45.22549" lon="6.02577">
        <ele>1803.5999755859</ele>
        <time>2021-01-02T09:17:23.000Z</time>
      </trkpt>
      <trkpt lat="45.22552" lon="6.0258">
        <ele>1803.5999755859</ele>
        <time>2021-01-02T09:17:30.000Z</time>
      </trkpt>
      <trkpt lat="45.22553" lon="6.02585">
        <ele>1803.4000244141</ele>
        <time>2021-01-02T09:17:34.000Z</time>
      </trkpt>
      <trkpt lat="45.22552" lon="6.02587">
        <ele>1803.8000488281</ele>
        <time>2021-01-02T09:17:36.000Z</time>
      </trkpt>
      <trkpt lat="45.22551" lon="6.0259">
        <ele>1804.4000244141</ele>
        <time>2021-01-02T09:17:39.000Z</time>
      </trkpt>
      <trkpt lat="45.2255" lon="6.02595">
        <ele>1805.4000244141</ele>
        <time>2021-01-02T09:17:43.000Z</time>
      </trkpt>
      <trkpt lat="45.2255" lon="6.02596">
        <ele>1805.5999755859</ele>
        <time>2021-01-02T09:17:44.000Z</time>
      </trkpt>
      <trkpt lat="45.22551" lon="6.02601">
        <ele>1806.8000488281</ele>
        <time>2021-01-02T09:17:49.000Z</time>
      </trkpt>
      <trkpt lat="45.22551" lon="6.02602">
        <ele>1807</ele>
        <time>2021-01-02T09:17:50.000Z</time>
      </trkpt>
      <trkpt lat="45.22554" lon="6.02604">
        <ele>1808</ele>
        <time>2021-01-02T09:17:55.000Z</time>
      </trkpt>
      <trkpt lat="45.22555" lon="6.02606">
        <ele>1808.8000488281</ele>
        <time>2021-01-02T09:17:58.000Z</time>
      </trkpt>
      <trkpt lat="45.22556" lon="6.02606">
        <ele>1809</ele>
        <time>2021-01-02T09:17:59.000Z</time>
      </trkpt>
      <trkpt lat="45.2256" lon="6.02608">
        <ele>1810.1999511719</ele>
        <time>2021-01-02T09:18:04.000Z</time>
      </trkpt>
      <trkpt lat="45.22561" lon="6.02608">
        <ele>1810.4000244141</ele>
        <time>2021-01-02T09:18:05.000Z</time>
      </trkpt>
      <trkpt lat="45.22565" lon="6.02609">
        <ele>1811.1999511719</ele>
        <time>2021-01-02T09:18:10.000Z</time>
      </trkpt>
      <trkpt lat="45.22566" lon="6.02609">
        <ele>1811.4000244141</ele>
        <time>2021-01-02T09:18:12.000Z</time>
      </trkpt>
      <trkpt lat="45.2257" lon="6.02609">
        <ele>1812.1999511719</ele>
        <time>2021-01-02T09:18:18.000Z</time>
      </trkpt>
      <trkpt lat="45.22571" lon="6.02609">
        <ele>1812.5999755859</ele>
        <time>2021-01-02T09:18:19.000Z</time>
      </trkpt>
      <trkpt lat="45.22572" lon="6.0261">
        <ele>1813.4000244141</ele>
        <time>2021-01-02T09:18:21.000Z</time>
      </trkpt>
      <trkpt lat="45.22575" lon="6.0261">
        <ele>1814.5999755859</ele>
        <time>2021-01-02T09:18:26.000Z</time>
      </trkpt>
      <trkpt lat="45.22576" lon="6.0261">
        <ele>1814.8000488281</ele>
        <time>2021-01-02T09:18:27.000Z</time>
      </trkpt>
      <trkpt lat="45.22577" lon="6.02612">
        <ele>1815.5999755859</ele>
        <time>2021-01-02T09:18:30.000Z</time>
      </trkpt>
      <trkpt lat="45.2258" lon="6.02614">
        <ele>1816.5999755859</ele>
        <time>2021-01-02T09:18:33.000Z</time>
      </trkpt>
      <trkpt lat="45.22581" lon="6.02614">
        <ele>1816.8000488281</ele>
        <time>2021-01-02T09:18:34.000Z</time>
      </trkpt>
      <trkpt lat="45.22583" lon="6.02618">
        <ele>1818</ele>
        <time>2021-01-02T09:18:39.000Z</time>
      </trkpt>
      <trkpt lat="45.22583" lon="6.02619">
        <ele>1818.1999511719</ele>
        <time>2021-01-02T09:18:40.000Z</time>
      </trkpt>
      <trkpt lat="45.22585" lon="6.02621">
        <ele>1818.8000488281</ele>
        <time>2021-01-02T09:18:46.000Z</time>
      </trkpt>
      <trkpt lat="45.22585" lon="6.02621">
        <ele>1819</ele>
        <time>2021-01-02T09:18:47.000Z</time>
      </trkpt>
      <trkpt lat="45.22586" lon="6.02625">
        <ele>1819.1999511719</ele>
        <time>2021-01-02T09:18:53.000Z</time>
      </trkpt>
      <trkpt lat="45.22586" lon="6.02626">
        <ele>1819.1999511719</ele>
        <time>2021-01-02T09:18:54.000Z</time>
      </trkpt>
      <trkpt lat="45.22589" lon="6.02633">
        <ele>1819.1999511719</ele>
        <time>2021-01-02T09:19:01.000Z</time>
      </trkpt>
      <trkpt lat="45.22592" lon="6.02639">
        <ele>1819.4000244141</ele>
        <time>2021-01-02T09:19:07.000Z</time>
      </trkpt>
      <trkpt lat="45.22593" lon="6.02641">
        <ele>1820.1999511719</ele>
        <time>2021-01-02T09:19:09.000Z</time>
      </trkpt>
      <trkpt lat="45.22595" lon="6.02645">
        <ele>1821.1999511719</ele>
        <time>2021-01-02T09:19:13.000Z</time>
      </trkpt>
      <trkpt lat="45.22595" lon="6.02646">
        <ele>1821.5999755859</ele>
        <time>2021-01-02T09:19:14.000Z</time>
      </trkpt>
      <trkpt lat="45.22596" lon="6.02649">
        <ele>1822.5999755859</ele>
        <time>2021-01-02T09:19:17.000Z</time>
      </trkpt>
      <trkpt lat="45.22597" lon="6.02652">
        <ele>1823.4000244141</ele>
        <time>2021-01-02T09:19:20.000Z</time>
      </trkpt>
      <trkpt lat="45.22597" lon="6.02653">
        <ele>1823.8000488281</ele>
        <time>2021-01-02T09:19:21.000Z</time>
      </trkpt>
      <trkpt lat="45.22599" lon="6.02658">
        <ele>1824.8000488281</ele>
        <time>2021-01-02T09:19:26.000Z</time>
      </trkpt>
      <trkpt lat="45.22599" lon="6.02659">
        <ele>1824.8000488281</ele>
        <time>2021-01-02T09:19:27.000Z</time>
      </trkpt>
      <trkpt lat="45.22599" lon="6.02661">
        <ele>1825</ele>
        <time>2021-01-02T09:19:29.000Z</time>
      </trkpt>
      <trkpt lat="45.22601" lon="6.02667">
        <ele>1825.1999511719</ele>
        <time>2021-01-02T09:19:33.000Z</time>
      </trkpt>
      <trkpt lat="45.22604" lon="6.02677">
        <ele>1825.1999511719</ele>
        <time>2021-01-02T09:19:41.000Z</time>
      </trkpt>
      <trkpt lat="45.22606" lon="6.02686">
        <ele>1825.8000488281</ele>
        <time>2021-01-02T09:19:47.000Z</time>
      </trkpt>
      <trkpt lat="45.22606" lon="6.02687">
        <ele>1826</ele>
        <time>2021-01-02T09:19:48.000Z</time>
      </trkpt>
      <trkpt lat="45.22607" lon="6.02691">
        <ele>1826.1999511719</ele>
        <time>2021-01-02T09:19:51.000Z</time>
      </trkpt>
      <trkpt lat="45.2261" lon="6.02694">
        <ele>1826.4000244141</ele>
        <time>2021-01-02T09:19:55.000Z</time>
      </trkpt>
      <trkpt lat="45.22611" lon="6.02694">
        <ele>1826.8000488281</ele>
        <time>2021-01-02T09:19:58.000Z</time>
      </trkpt>
      <trkpt lat="45.22612" lon="6.02696">
        <ele>1827.1999511719</ele>
        <time>2021-01-02T09:20:00.000Z</time>
      </trkpt>
      <trkpt lat="45.22615" lon="6.02698">
        <ele>1828</ele>
        <time>2021-01-02T09:20:04.000Z</time>
      </trkpt>
      <trkpt lat="45.22617" lon="6.02702">
        <ele>1828.1999511719</ele>
        <time>2021-01-02T09:20:07.000Z</time>
      </trkpt>
      <trkpt lat="45.22621" lon="6.02706">
        <ele>1829</ele>
        <time>2021-01-02T09:20:13.000Z</time>
      </trkpt>
      <trkpt lat="45.22622" lon="6.02706">
        <ele>1829.1999511719</ele>
        <time>2021-01-02T09:20:14.000Z</time>
      </trkpt>
      <trkpt lat="45.22624" lon="6.02709">
        <ele>1830.1999511719</ele>
        <time>2021-01-02T09:20:18.000Z</time>
      </trkpt>
      <trkpt lat="45.22626" lon="6.02711">
        <ele>1831</ele>
        <time>2021-01-02T09:20:20.000Z</time>
      </trkpt>
      <trkpt lat="45.22626" lon="6.02712">
        <ele>1831.4000244141</ele>
        <time>2021-01-02T09:20:22.000Z</time>
      </trkpt>
      <trkpt lat="45.22629" lon="6.02716">
        <ele>1832.5999755859</ele>
        <time>2021-01-02T09:20:27.000Z</time>
      </trkpt>
      <trkpt lat="45.22634" lon="6.0272">
        <ele>1833.4000244141</ele>
        <time>2021-01-02T09:20:34.000Z</time>
      </trkpt>
      <trkpt lat="45.22635" lon="6.0272">
        <ele>1833.8000488281</ele>
        <time>2021-01-02T09:20:35.000Z</time>
      </trkpt>
      <trkpt lat="45.22639" lon="6.02722">
        <ele>1834.5999755859</ele>
        <time>2021-01-02T09:20:41.000Z</time>
      </trkpt>
      <trkpt lat="45.22639" lon="6.02721">
        <ele>1834.8000488281</ele>
        <time>2021-01-02T09:20:42.000Z</time>
      </trkpt>
      <trkpt lat="45.2264" lon="6.02722">
        <ele>1835.4000244141</ele>
        <time>2021-01-02T09:20:44.000Z</time>
      </trkpt>
      <trkpt lat="45.2264" lon="6.02722">
        <ele>1835.8000488281</ele>
        <time>2021-01-02T09:20:46.000Z</time>
      </trkpt>
      <trkpt lat="45.2264" lon="6.02725">
        <ele>1836.5999755859</ele>
        <time>2021-01-02T09:20:52.000Z</time>
      </trkpt>
      <trkpt lat="45.22639" lon="6.02727">
        <ele>1837</ele>
        <time>2021-01-02T09:20:57.000Z</time>
      </trkpt>
      <trkpt lat="45.22639" lon="6.02727">
        <ele>1837.1999511719</ele>
        <time>2021-01-02T09:20:58.000Z</time>
      </trkpt>
      <trkpt lat="45.22639" lon="6.02727">
        <ele>1837.5999755859</ele>
        <time>2021-01-02T09:21:07.000Z</time>
      </trkpt>
      <trkpt lat="45.22639" lon="6.02727">
        <ele>1836</ele>
        <time>2021-01-02T09:21:15.000Z</time>
      </trkpt>
      <trkpt lat="45.22639" lon="6.02727">
        <ele>1835.4000244141</ele>
        <time>2021-01-02T09:21:27.000Z</time>
      </trkpt>
      <trkpt lat="45.22639" lon="6.02727">
        <ele>1835.4000244141</ele>
        <time>2021-01-02T09:21:46.000Z</time>
      </trkpt>
      <trkpt lat="45.22639" lon="6.02727">
        <ele>1836.1999511719</ele>
        <time>2021-01-02T09:21:56.000Z</time>
      </trkpt>
      <trkpt lat="45.22639" lon="6.02727">
        <ele>1836.4000244141</ele>
        <time>2021-01-02T09:22:03.000Z</time>
      </trkpt>
      <trkpt lat="45.22639" lon="6.02727">
        <ele>1835.8000488281</ele>
        <time>2021-01-02T09:22:13.000Z</time>
      </trkpt>
      <trkpt lat="45.22639" lon="6.02727">
        <ele>1837.1999511719</ele>
        <time>2021-01-02T09:22:21.000Z</time>
      </trkpt>
      <trkpt lat="45.22639" lon="6.02727">
        <ele>1837.1999511719</ele>
        <time>2021-01-02T09:22:22.000Z</time>
      </trkpt>
      <trkpt lat="45.22639" lon="6.02727">
        <ele>1836.1999511719</ele>
        <time>2021-01-02T09:22:31.000Z</time>
      </trkpt>
      <trkpt lat="45.22639" lon="6.02727">
        <ele>1835.5999755859</ele>
        <time>2021-01-02T09:22:35.000Z</time>
      </trkpt>
      <trkpt lat="45.22639" lon="6.02727">
        <ele>1835.4000244141</ele>
        <time>2021-01-02T09:22:57.000Z</time>
      </trkpt>
      <trkpt lat="45.22639" lon="6.02727">
        <ele>1835</ele>
        <time>2021-01-02T09:23:08.000Z</time>
      </trkpt>
      <trkpt lat="45.22639" lon="6.02727">
        <ele>1835.1999511719</ele>
        <time>2021-01-02T09:23:12.000Z</time>
      </trkpt>
      <trkpt lat="45.22639" lon="6.02727">
        <ele>1835.4000244141</ele>
        <time>2021-01-02T09:23:23.000Z</time>
      </trkpt>
      <trkpt lat="45.22639" lon="6.02727">
        <ele>1836</ele>
        <time>2021-01-02T09:23:32.000Z</time>
      </trkpt>
      <trkpt lat="45.22639" lon="6.02727">
        <ele>1836.1999511719</ele>
        <time>2021-01-02T09:23:33.000Z</time>
      </trkpt>
      <trkpt lat="45.22639" lon="6.02727">
        <ele>1836.1999511719</ele>
        <time>2021-01-02T09:23:46.000Z</time>
      </trkpt>
      <trkpt lat="45.22639" lon="6.02727">
        <ele>1835</ele>
        <time>2021-01-02T09:23:52.000Z</time>
      </trkpt>
      <trkpt lat="45.22639" lon="6.02727">
        <ele>1834</ele>
        <time>2021-01-02T09:23:55.000Z</time>
      </trkpt>
      <trkpt lat="45.22639" lon="6.02727">
        <ele>1835</ele>
        <time>2021-01-02T09:23:58.000Z</time>
      </trkpt>
      <trkpt lat="45.22639" lon="6.02727">
        <ele>1835</ele>
        <time>2021-01-02T09:24:03.000Z</time>
      </trkpt>
      <trkpt lat="45.22639" lon="6.02727">
        <ele>1836.4000244141</ele>
        <time>2021-01-02T09:24:08.000Z</time>
      </trkpt>
      <trkpt lat="45.22639" lon="6.02727">
        <ele>1837.1999511719</ele>
        <time>2021-01-02T09:24:12.000Z</time>
      </trkpt>
      <trkpt lat="45.22639" lon="6.02727">
        <ele>1836</ele>
        <time>2021-01-02T09:24:26.000Z</time>
      </trkpt>
      <trkpt lat="45.22639" lon="6.02727">
        <ele>1835.1999511719</ele>
        <time>2021-01-02T09:24:29.000Z</time>
      </trkpt>
      <trkpt lat="45.22639" lon="6.02727">
        <ele>1835.5999755859</ele>
        <time>2021-01-02T09:24:42.000Z</time>
      </trkpt>
      <trkpt lat="45.22639" lon="6.02726">
        <ele>1836.1999511719</ele>
        <time>2021-01-02T09:24:44.000Z</time>
      </trkpt>
      <trkpt lat="45.22639" lon="6.02726">
        <ele>1836.4000244141</ele>
        <time>2021-01-02T09:24:46.000Z</time>
      </trkpt>
      <trkpt lat="45.22639" lon="6.02726">
        <ele>1836.4000244141</ele>
        <time>2021-01-02T09:24:58.000Z</time>
      </trkpt>
      <trkpt lat="45.22639" lon="6.02726">
        <ele>1836.1999511719</ele>
        <time>2021-01-02T09:25:13.000Z</time>
      </trkpt>
      <trkpt lat="45.22639" lon="6.02726">
        <ele>1836.1999511719</ele>
        <time>2021-01-02T09:25:24.000Z</time>
      </trkpt>
      <trkpt lat="45.22639" lon="6.02726">
        <ele>1836.4000244141</ele>
        <time>2021-01-02T09:25:35.000Z</time>
      </trkpt>
      <trkpt lat="45.22639" lon="6.02726">
        <ele>1836.4000244141</ele>
        <time>2021-01-02T09:25:47.000Z</time>
      </trkpt>
      <trkpt lat="45.22639" lon="6.02726">
        <ele>1836.5999755859</ele>
        <time>2021-01-02T09:26:00.000Z</time>
      </trkpt>
      <trkpt lat="45.22639" lon="6.02728">
        <ele>1836.5999755859</ele>
        <time>2021-01-02T09:26:04.000Z</time>
      </trkpt>
      <trkpt lat="45.2264" lon="6.02729">
        <ele>1836.8000488281</ele>
        <time>2021-01-02T09:26:09.000Z</time>
      </trkpt>
      <trkpt lat="45.22641" lon="6.02729">
        <ele>1837.1999511719</ele>
        <time>2021-01-02T09:26:12.000Z</time>
      </trkpt>
      <trkpt lat="45.22641" lon="6.02729">
        <ele>1837.8000488281</ele>
        <time>2021-01-02T09:26:15.000Z</time>
      </trkpt>
      <trkpt lat="45.22643" lon="6.02733">
        <ele>1838.4000244141</ele>
        <time>2021-01-02T09:26:20.000Z</time>
      </trkpt>
      <trkpt lat="45.22644" lon="6.02734">
        <ele>1838.5999755859</ele>
        <time>2021-01-02T09:26:21.000Z</time>
      </trkpt>
      <trkpt lat="45.22644" lon="6.02734">
        <ele>1839.8000488281</ele>
        <time>2021-01-02T09:26:25.000Z</time>
      </trkpt>
      <trkpt lat="45.22646" lon="6.02735">
        <ele>1840.5999755859</ele>
        <time>2021-01-02T09:26:28.000Z</time>
      </trkpt>
      <trkpt lat="45.22648" lon="6.02736">
        <ele>1840.8000488281</ele>
        <time>2021-01-02T09:26:30.000Z</time>
      </trkpt>
      <trkpt lat="45.22652" lon="6.0274">
        <ele>1840.8000488281</ele>
        <time>2021-01-02T09:26:36.000Z</time>
      </trkpt>
      <trkpt lat="45.22654" lon="6.02743">
        <ele>1840.5999755859</ele>
        <time>2021-01-02T09:26:41.000Z</time>
      </trkpt>
      <trkpt lat="45.22655" lon="6.02743">
        <ele>1840.5999755859</ele>
        <time>2021-01-02T09:26:42.000Z</time>
      </trkpt>
      <trkpt lat="45.22657" lon="6.02747">
        <ele>1841.4000244141</ele>
        <time>2021-01-02T09:26:48.000Z</time>
      </trkpt>
      <trkpt lat="45.22658" lon="6.02749">
        <ele>1841.8000488281</ele>
        <time>2021-01-02T09:26:51.000Z</time>
      </trkpt>
      <trkpt lat="45.2266" lon="6.02752">
        <ele>1842.1999511719</ele>
        <time>2021-01-02T09:26:54.000Z</time>
      </trkpt>
      <trkpt lat="45.2266" lon="6.02755">
        <ele>1842.5999755859</ele>
        <time>2021-01-02T09:26:56.000Z</time>
      </trkpt>
      <trkpt lat="45.22661" lon="6.02756">
        <ele>1842.8000488281</ele>
        <time>2021-01-02T09:26:57.000Z</time>
      </trkpt>
      <trkpt lat="45.22661" lon="6.02758">
        <ele>1843.4000244141</ele>
        <time>2021-01-02T09:27:00.000Z</time>
      </trkpt>
      <trkpt lat="45.22662" lon="6.02759">
        <ele>1844</ele>
        <time>2021-01-02T09:27:04.000Z</time>
      </trkpt>
      <trkpt lat="45.22662" lon="6.02759">
        <ele>1844</ele>
        <time>2021-01-02T09:27:05.000Z</time>
      </trkpt>
      <trkpt lat="45.22664" lon="6.02763">
        <ele>1844.8000488281</ele>
        <time>2021-01-02T09:27:11.000Z</time>
      </trkpt>
      <trkpt lat="45.22665" lon="6.02763">
        <ele>1845</ele>
        <time>2021-01-02T09:27:12.000Z</time>
      </trkpt>
      <trkpt lat="45.22665" lon="6.02763">
        <ele>1845.5999755859</ele>
        <time>2021-01-02T09:27:19.000Z</time>
      </trkpt>
      <trkpt lat="45.22666" lon="6.02767">
        <ele>1846</ele>
        <time>2021-01-02T09:27:27.000Z</time>
      </trkpt>
      <trkpt lat="45.22667" lon="6.02768">
        <ele>1846</ele>
        <time>2021-01-02T09:27:28.000Z</time>
      </trkpt>
      <trkpt lat="45.22669" lon="6.02774">
        <ele>1847.1999511719</ele>
        <time>2021-01-02T09:27:34.000Z</time>
      </trkpt>
      <trkpt lat="45.22671" lon="6.02779">
        <ele>1848.1999511719</ele>
        <time>2021-01-02T09:27:40.000Z</time>
      </trkpt>
      <trkpt lat="45.22672" lon="6.02781">
        <ele>1848.8000488281</ele>
        <time>2021-01-02T09:27:42.000Z</time>
      </trkpt>
      <trkpt lat="45.22673" lon="6.02784">
        <ele>1849.4000244141</ele>
        <time>2021-01-02T09:27:46.000Z</time>
      </trkpt>
      <trkpt lat="45.22674" lon="6.02787">
        <ele>1849.8000488281</ele>
        <time>2021-01-02T09:27:49.000Z</time>
      </trkpt>
      <trkpt lat="45.22676" lon="6.02789">
        <ele>1850.4000244141</ele>
        <time>2021-01-02T09:27:52.000Z</time>
      </trkpt>
      <trkpt lat="45.22677" lon="6.02791">
        <ele>1850.8000488281</ele>
        <time>2021-01-02T09:27:55.000Z</time>
      </trkpt>
      <trkpt lat="45.22678" lon="6.02797">
        <ele>1851.4000244141</ele>
        <time>2021-01-02T09:28:00.000Z</time>
      </trkpt>
      <trkpt lat="45.22679" lon="6.02798">
        <ele>1851.5999755859</ele>
        <time>2021-01-02T09:28:02.000Z</time>
      </trkpt>
      <trkpt lat="45.22681" lon="6.02802">
        <ele>1852.5999755859</ele>
        <time>2021-01-02T09:28:08.000Z</time>
      </trkpt>
      <trkpt lat="45.22682" lon="6.02805">
        <ele>1853.8000488281</ele>
        <time>2021-01-02T09:28:12.000Z</time>
      </trkpt>
      <trkpt lat="45.22684" lon="6.02808">
        <ele>1854.5999755859</ele>
        <time>2021-01-02T09:28:16.000Z</time>
      </trkpt>
      <trkpt lat="45.22685" lon="6.02808">
        <ele>1855</ele>
        <time>2021-01-02T09:28:17.000Z</time>
      </trkpt>
      <trkpt lat="45.22687" lon="6.02811">
        <ele>1856</ele>
        <time>2021-01-02T09:28:21.000Z</time>
      </trkpt>
      <trkpt lat="45.22688" lon="6.02813">
        <ele>1857</ele>
        <time>2021-01-02T09:28:25.000Z</time>
      </trkpt>
      <trkpt lat="45.22688" lon="6.02814">
        <ele>1857.1999511719</ele>
        <time>2021-01-02T09:28:26.000Z</time>
      </trkpt>
      <trkpt lat="45.22692" lon="6.02814">
        <ele>1858.5999755859</ele>
        <time>2021-01-02T09:28:31.000Z</time>
      </trkpt>
      <trkpt lat="45.22693" lon="6.02815">
        <ele>1859</ele>
        <time>2021-01-02T09:28:33.000Z</time>
      </trkpt>
      <trkpt lat="45.22694" lon="6.02814">
        <ele>1859.5999755859</ele>
        <time>2021-01-02T09:28:36.000Z</time>
      </trkpt>
      <trkpt lat="45.22695" lon="6.02815">
        <ele>1860.1999511719</ele>
        <time>2021-01-02T09:28:39.000Z</time>
      </trkpt>
      <trkpt lat="45.22697" lon="6.02815">
        <ele>1860.5999755859</ele>
        <time>2021-01-02T09:28:41.000Z</time>
      </trkpt>
      <trkpt lat="45.227" lon="6.02818">
        <ele>1862</ele>
        <time>2021-01-02T09:28:45.000Z</time>
      </trkpt>
      <trkpt lat="45.22701" lon="6.02818">
        <ele>1862.4000244141</ele>
        <time>2021-01-02T09:28:47.000Z</time>
      </trkpt>
      <trkpt lat="45.22702" lon="6.02819">
        <ele>1863</ele>
        <time>2021-01-02T09:28:50.000Z</time>
      </trkpt>
      <trkpt lat="45.22705" lon="6.02822">
        <ele>1864.1999511719</ele>
        <time>2021-01-02T09:28:55.000Z</time>
      </trkpt>
      <trkpt lat="45.22706" lon="6.02822">
        <ele>1864.4000244141</ele>
        <time>2021-01-02T09:28:56.000Z</time>
      </trkpt>
      <trkpt lat="45.22706" lon="6.02825">
        <ele>1865.1999511719</ele>
        <time>2021-01-02T09:29:01.000Z</time>
      </trkpt>
      <trkpt lat="45.22706" lon="6.02825">
        <ele>1865.4000244141</ele>
        <time>2021-01-02T09:29:02.000Z</time>
      </trkpt>
      <trkpt lat="45.22704" lon="6.02829">
        <ele>1866.1999511719</ele>
        <time>2021-01-02T09:29:07.000Z</time>
      </trkpt>
      <trkpt lat="45.22703" lon="6.02831">
        <ele>1867</ele>
        <time>2021-01-02T09:29:10.000Z</time>
      </trkpt>
      <trkpt lat="45.22702" lon="6.02832">
        <ele>1867.4000244141</ele>
        <time>2021-01-02T09:29:12.000Z</time>
      </trkpt>
      <trkpt lat="45.22701" lon="6.02837">
        <ele>1868.4000244141</ele>
        <time>2021-01-02T09:29:18.000Z</time>
      </trkpt>
      <trkpt lat="45.227" lon="6.02838">
        <ele>1868.5999755859</ele>
        <time>2021-01-02T09:29:19.000Z</time>
      </trkpt>
      <trkpt lat="45.227" lon="6.02841">
        <ele>1869.5999755859</ele>
        <time>2021-01-02T09:29:23.000Z</time>
      </trkpt>
      <trkpt lat="45.22698" lon="6.02845">
        <ele>1870</ele>
        <time>2021-01-02T09:29:28.000Z</time>
      </trkpt>
      <trkpt lat="45.22697" lon="6.0285">
        <ele>1870.5999755859</ele>
        <time>2021-01-02T09:29:34.000Z</time>
      </trkpt>
      <trkpt lat="45.22695" lon="6.02852">
        <ele>1870.8000488281</ele>
        <time>2021-01-02T09:29:37.000Z</time>
      </trkpt>
      <trkpt lat="45.22693" lon="6.02856">
        <ele>1871.8000488281</ele>
        <time>2021-01-02T09:29:43.000Z</time>
      </trkpt>
      <trkpt lat="45.22692" lon="6.02857">
        <ele>1872.1999511719</ele>
        <time>2021-01-02T09:29:45.000Z</time>
      </trkpt>
      <trkpt lat="45.22689" lon="6.02862">
        <ele>1873</ele>
        <time>2021-01-02T09:29:51.000Z</time>
      </trkpt>
      <trkpt lat="45.22688" lon="6.02862">
        <ele>1873</ele>
        <time>2021-01-02T09:29:52.000Z</time>
      </trkpt>
      <trkpt lat="45.22686" lon="6.02864">
        <ele>1874</ele>
        <time>2021-01-02T09:29:57.000Z</time>
      </trkpt>
      <trkpt lat="45.22685" lon="6.02865">
        <ele>1874.4000244141</ele>
        <time>2021-01-02T09:29:59.000Z</time>
      </trkpt>
      <trkpt lat="45.22684" lon="6.02867">
        <ele>1875.1999511719</ele>
        <time>2021-01-02T09:30:03.000Z</time>
      </trkpt>
      <trkpt lat="45.22683" lon="6.02868">
        <ele>1876</ele>
        <time>2021-01-02T09:30:06.000Z</time>
      </trkpt>
      <trkpt lat="45.22682" lon="6.02868">
        <ele>1876.4000244141</ele>
        <time>2021-01-02T09:30:08.000Z</time>
      </trkpt>
      <trkpt lat="45.22679" lon="6.0287">
        <ele>1877.5999755859</ele>
        <time>2021-01-02T09:30:14.000Z</time>
      </trkpt>
      <trkpt lat="45.22677" lon="6.0287">
        <ele>1878.5999755859</ele>
        <time>2021-01-02T09:30:19.000Z</time>
      </trkpt>
      <trkpt lat="45.22676" lon="6.0287">
        <ele>1879.5999755859</ele>
        <time>2021-01-02T09:30:23.000Z</time>
      </trkpt>
      <trkpt lat="45.22674" lon="6.02869">
        <ele>1880.8000488281</ele>
        <time>2021-01-02T09:30:27.000Z</time>
      </trkpt>
      <trkpt lat="45.22674" lon="6.02868">
        <ele>1881.1999511719</ele>
        <time>2021-01-02T09:30:29.000Z</time>
      </trkpt>
      <trkpt lat="45.22672" lon="6.02868">
        <ele>1881.8000488281</ele>
        <time>2021-01-02T09:30:32.000Z</time>
      </trkpt>
      <trkpt lat="45.2267" lon="6.02866">
        <ele>1883</ele>
        <time>2021-01-02T09:30:37.000Z</time>
      </trkpt>
      <trkpt lat="45.22667" lon="6.02865">
        <ele>1884.4000244141</ele>
        <time>2021-01-02T09:30:42.000Z</time>
      </trkpt>
      <trkpt lat="45.22667" lon="6.02864">
        <ele>1884.5999755859</ele>
        <time>2021-01-02T09:30:43.000Z</time>
      </trkpt>
      <trkpt lat="45.22665" lon="6.02863">
        <ele>1885.8000488281</ele>
        <time>2021-01-02T09:30:46.000Z</time>
      </trkpt>
      <trkpt lat="45.22663" lon="6.02863">
        <ele>1886.8000488281</ele>
        <time>2021-01-02T09:30:50.000Z</time>
      </trkpt>
      <trkpt lat="45.22661" lon="6.02861">
        <ele>1887.5999755859</ele>
        <time>2021-01-02T09:30:53.000Z</time>
      </trkpt>
      <trkpt lat="45.22661" lon="6.02861">
        <ele>1888</ele>
        <time>2021-01-02T09:30:54.000Z</time>
      </trkpt>
      <trkpt lat="45.22659" lon="6.0286">
        <ele>1889</ele>
        <time>2021-01-02T09:30:57.000Z</time>
      </trkpt>
      <trkpt lat="45.22659" lon="6.0286">
        <ele>1889.1999511719</ele>
        <time>2021-01-02T09:30:58.000Z</time>
      </trkpt>
      <trkpt lat="45.22655" lon="6.0286">
        <ele>1890.1999511719</ele>
        <time>2021-01-02T09:31:04.000Z</time>
      </trkpt>
      <trkpt lat="45.22655" lon="6.0286">
        <ele>1890.4000244141</ele>
        <time>2021-01-02T09:31:05.000Z</time>
      </trkpt>
      <trkpt lat="45.22652" lon="6.02862">
        <ele>1891.4000244141</ele>
        <time>2021-01-02T09:31:10.000Z</time>
      </trkpt>
      <trkpt lat="45.22651" lon="6.02864">
        <ele>1891.8000488281</ele>
        <time>2021-01-02T09:31:11.000Z</time>
      </trkpt>
      <trkpt lat="45.22652" lon="6.02866">
        <ele>1892.5999755859</ele>
        <time>2021-01-02T09:31:13.000Z</time>
      </trkpt>
      <trkpt lat="45.22651" lon="6.02866">
        <ele>1893.5999755859</ele>
        <time>2021-01-02T09:31:16.000Z</time>
      </trkpt>
      <trkpt lat="45.22651" lon="6.02866">
        <ele>1893.8000488281</ele>
        <time>2021-01-02T09:31:17.000Z</time>
      </trkpt>
      <trkpt lat="45.22651" lon="6.02867">
        <ele>1894</ele>
        <time>2021-01-02T09:31:30.000Z</time>
      </trkpt>
      <trkpt lat="45.22653" lon="6.02873">
        <ele>1895</ele>
        <time>2021-01-02T09:31:38.000Z</time>
      </trkpt>
      <trkpt lat="45.22654" lon="6.02874">
        <ele>1895.1999511719</ele>
        <time>2021-01-02T09:31:39.000Z</time>
      </trkpt>
      <trkpt lat="45.22654" lon="6.02877">
        <ele>1895.8000488281</ele>
        <time>2021-01-02T09:31:43.000Z</time>
      </trkpt>
      <trkpt lat="45.22654" lon="6.02878">
        <ele>1896</ele>
        <time>2021-01-02T09:31:44.000Z</time>
      </trkpt>
      <trkpt lat="45.22653" lon="6.02878">
        <ele>1896.1999511719</ele>
        <time>2021-01-02T09:31:45.000Z</time>
      </trkpt>
      <trkpt lat="45.22648" lon="6.02882">
        <ele>1897</ele>
        <time>2021-01-02T09:31:54.000Z</time>
      </trkpt>
      <trkpt lat="45.22648" lon="6.02883">
        <ele>1897.1999511719</ele>
        <time>2021-01-02T09:31:55.000Z</time>
      </trkpt>
      <trkpt lat="45.22646" lon="6.02885">
        <ele>1898.1999511719</ele>
        <time>2021-01-02T09:31:59.000Z</time>
      </trkpt>
      <trkpt lat="45.22645" lon="6.02887">
        <ele>1898.8000488281</ele>
        <time>2021-01-02T09:32:02.000Z</time>
      </trkpt>
      <trkpt lat="45.22644" lon="6.02889">
        <ele>1899.1999511719</ele>
        <time>2021-01-02T09:32:05.000Z</time>
      </trkpt>
      <trkpt lat="45.22642" lon="6.02893">
        <ele>1900.1999511719</ele>
        <time>2021-01-02T09:32:10.000Z</time>
      </trkpt>
      <trkpt lat="45.22642" lon="6.02893">
        <ele>1900.1999511719</ele>
        <time>2021-01-02T09:32:11.000Z</time>
      </trkpt>
      <trkpt lat="45.2264" lon="6.02897">
        <ele>1901</ele>
        <time>2021-01-02T09:32:17.000Z</time>
      </trkpt>
      <trkpt lat="45.22639" lon="6.02899">
        <ele>1901.4000244141</ele>
        <time>2021-01-02T09:32:20.000Z</time>
      </trkpt>
      <trkpt lat="45.22637" lon="6.02902">
        <ele>1902.4000244141</ele>
        <time>2021-01-02T09:32:24.000Z</time>
      </trkpt>
      <trkpt lat="45.22637" lon="6.02902">
        <ele>1902.5999755859</ele>
        <time>2021-01-02T09:32:25.000Z</time>
      </trkpt>
      <trkpt lat="45.22636" lon="6.02905">
        <ele>1903.5999755859</ele>
        <time>2021-01-02T09:32:30.000Z</time>
      </trkpt>
      <trkpt lat="45.22636" lon="6.02906">
        <ele>1903.8000488281</ele>
        <time>2021-01-02T09:32:31.000Z</time>
      </trkpt>
      <trkpt lat="45.22634" lon="6.02911">
        <ele>1904.8000488281</ele>
        <time>2021-01-02T09:32:37.000Z</time>
      </trkpt>
      <trkpt lat="45.22634" lon="6.02913">
        <ele>1905.1999511719</ele>
        <time>2021-01-02T09:32:39.000Z</time>
      </trkpt>
      <trkpt lat="45.22633" lon="6.02915">
        <ele>1905.8000488281</ele>
        <time>2021-01-02T09:32:44.000Z</time>
      </trkpt>
      <trkpt lat="45.22633" lon="6.02917">
        <ele>1906.4000244141</ele>
        <time>2021-01-02T09:32:46.000Z</time>
      </trkpt>
      <trkpt lat="45.22631" lon="6.0292">
        <ele>1907</ele>
        <time>2021-01-02T09:32:49.000Z</time>
      </trkpt>
      <trkpt lat="45.2263" lon="6.02923">
        <ele>1907.8000488281</ele>
        <time>2021-01-02T09:32:54.000Z</time>
      </trkpt>
      <trkpt lat="45.22629" lon="6.02923">
        <ele>1908</ele>
        <time>2021-01-02T09:32:55.000Z</time>
      </trkpt>
      <trkpt lat="45.22627" lon="6.02926">
        <ele>1909</ele>
        <time>2021-01-02T09:33:00.000Z</time>
      </trkpt>
      <trkpt lat="45.22627" lon="6.02927">
        <ele>1909.4000244141</ele>
        <time>2021-01-02T09:33:02.000Z</time>
      </trkpt>
      <trkpt lat="45.22626" lon="6.02928">
        <ele>1910.1999511719</ele>
        <time>2021-01-02T09:33:05.000Z</time>
      </trkpt>
      <trkpt lat="45.22625" lon="6.0293">
        <ele>1911.1999511719</ele>
        <time>2021-01-02T09:33:09.000Z</time>
      </trkpt>
      <trkpt lat="45.22624" lon="6.02933">
        <ele>1912.1999511719</ele>
        <time>2021-01-02T09:33:13.000Z</time>
      </trkpt>
      <trkpt lat="45.22623" lon="6.02935">
        <ele>1912.8000488281</ele>
        <time>2021-01-02T09:33:17.000Z</time>
      </trkpt>
      <trkpt lat="45.22622" lon="6.02937">
        <ele>1913.4000244141</ele>
        <time>2021-01-02T09:33:20.000Z</time>
      </trkpt>
      <trkpt lat="45.22621" lon="6.02938">
        <ele>1914</ele>
        <time>2021-01-02T09:33:23.000Z</time>
      </trkpt>
      <trkpt lat="45.2262" lon="6.0294">
        <ele>1914.4000244141</ele>
        <time>2021-01-02T09:33:26.000Z</time>
      </trkpt>
      <trkpt lat="45.22618" lon="6.02943">
        <ele>1915.1999511719</ele>
        <time>2021-01-02T09:33:30.000Z</time>
      </trkpt>
      <trkpt lat="45.22617" lon="6.02944">
        <ele>1915.5999755859</ele>
        <time>2021-01-02T09:33:33.000Z</time>
      </trkpt>
      <trkpt lat="45.22614" lon="6.02948">
        <ele>1916.8000488281</ele>
        <time>2021-01-02T09:33:39.000Z</time>
      </trkpt>
      <trkpt lat="45.22614" lon="6.02949">
        <ele>1917</ele>
        <time>2021-01-02T09:33:40.000Z</time>
      </trkpt>
      <trkpt lat="45.22613" lon="6.02952">
        <ele>1917.8000488281</ele>
        <time>2021-01-02T09:33:44.000Z</time>
      </trkpt>
      <trkpt lat="45.22611" lon="6.02954">
        <ele>1918.8000488281</ele>
        <time>2021-01-02T09:33:48.000Z</time>
      </trkpt>
      <trkpt lat="45.2261" lon="6.02955">
        <ele>1919</ele>
        <time>2021-01-02T09:33:49.000Z</time>
      </trkpt>
      <trkpt lat="45.22609" lon="6.02958">
        <ele>1920</ele>
        <time>2021-01-02T09:33:54.000Z</time>
      </trkpt>
      <trkpt lat="45.22609" lon="6.02958">
        <ele>1920.1999511719</ele>
        <time>2021-01-02T09:33:55.000Z</time>
      </trkpt>
      <trkpt lat="45.22608" lon="6.02959">
        <ele>1921</ele>
        <time>2021-01-02T09:33:58.000Z</time>
      </trkpt>
      <trkpt lat="45.22607" lon="6.0296">
        <ele>1921.8000488281</ele>
        <time>2021-01-02T09:34:02.000Z</time>
      </trkpt>
      <trkpt lat="45.22607" lon="6.02961">
        <ele>1922</ele>
        <time>2021-01-02T09:34:04.000Z</time>
      </trkpt>
      <trkpt lat="45.22605" lon="6.02963">
        <ele>1922.8000488281</ele>
        <time>2021-01-02T09:34:09.000Z</time>
      </trkpt>
      <trkpt lat="45.22604" lon="6.02964">
        <ele>1923.1999511719</ele>
        <time>2021-01-02T09:34:11.000Z</time>
      </trkpt>
      <trkpt lat="45.22602" lon="6.02967">
        <ele>1924.1999511719</ele>
        <time>2021-01-02T09:34:16.000Z</time>
      </trkpt>
      <trkpt lat="45.226" lon="6.0297">
        <ele>1925</ele>
        <time>2021-01-02T09:34:20.000Z</time>
      </trkpt>
      <trkpt lat="45.22599" lon="6.02971">
        <ele>1925.8000488281</ele>
        <time>2021-01-02T09:34:22.000Z</time>
      </trkpt>
      <trkpt lat="45.22597" lon="6.02974">
        <ele>1926.8000488281</ele>
        <time>2021-01-02T09:34:28.000Z</time>
      </trkpt>
      <trkpt lat="45.22595" lon="6.02978">
        <ele>1927.8000488281</ele>
        <time>2021-01-02T09:34:34.000Z</time>
      </trkpt>
      <trkpt lat="45.22594" lon="6.0298">
        <ele>1928.4000244141</ele>
        <time>2021-01-02T09:34:37.000Z</time>
      </trkpt>
      <trkpt lat="45.22593" lon="6.02981">
        <ele>1928.8000488281</ele>
        <time>2021-01-02T09:34:39.000Z</time>
      </trkpt>
      <trkpt lat="45.2259" lon="6.02985">
        <ele>1930</ele>
        <time>2021-01-02T09:34:45.000Z</time>
      </trkpt>
      <trkpt lat="45.22587" lon="6.02988">
        <ele>1931</ele>
        <time>2021-01-02T09:34:50.000Z</time>
      </trkpt>
      <trkpt lat="45.22586" lon="6.02989">
        <ele>1931.4000244141</ele>
        <time>2021-01-02T09:34:52.000Z</time>
      </trkpt>
      <trkpt lat="45.22586" lon="6.02992">
        <ele>1932.1999511719</ele>
        <time>2021-01-02T09:34:56.000Z</time>
      </trkpt>
      <trkpt lat="45.22584" lon="6.02995">
        <ele>1932.8000488281</ele>
        <time>2021-01-02T09:35:00.000Z</time>
      </trkpt>
      <trkpt lat="45.22583" lon="6.02997">
        <ele>1933.1999511719</ele>
        <time>2021-01-02T09:35:02.000Z</time>
      </trkpt>
      <trkpt lat="45.22583" lon="6.03">
        <ele>1934</ele>
        <time>2021-01-02T09:35:06.000Z</time>
      </trkpt>
      <trkpt lat="45.22584" lon="6.03001">
        <ele>1934.1999511719</ele>
        <time>2021-01-02T09:35:07.000Z</time>
      </trkpt>
      <trkpt lat="45.22584" lon="6.03003">
        <ele>1935.4000244141</ele>
        <time>2021-01-02T09:35:12.000Z</time>
      </trkpt>
      <trkpt lat="45.22584" lon="6.03003">
        <ele>1936</ele>
        <time>2021-01-02T09:35:18.000Z</time>
      </trkpt>
      <trkpt lat="45.22584" lon="6.03003">
        <ele>1936.1999511719</ele>
        <time>2021-01-02T09:35:33.000Z</time>
      </trkpt>
      <trkpt lat="45.22584" lon="6.03003">
        <ele>1936.4000244141</ele>
        <time>2021-01-02T09:35:40.000Z</time>
      </trkpt>
      <trkpt lat="45.22584" lon="6.03003">
        <ele>1936.5999755859</ele>
        <time>2021-01-02T09:35:50.000Z</time>
      </trkpt>
      <trkpt lat="45.22584" lon="6.03003">
        <ele>1936.1999511719</ele>
        <time>2021-01-02T09:36:06.000Z</time>
      </trkpt>
      <trkpt lat="45.22584" lon="6.03003">
        <ele>1936.4000244141</ele>
        <time>2021-01-02T09:36:19.000Z</time>
      </trkpt>
      <trkpt lat="45.22584" lon="6.03003">
        <ele>1937</ele>
        <time>2021-01-02T09:36:36.000Z</time>
      </trkpt>
      <trkpt lat="45.22584" lon="6.03003">
        <ele>1936.4000244141</ele>
        <time>2021-01-02T09:36:53.000Z</time>
      </trkpt>
      <trkpt lat="45.22584" lon="6.03003">
        <ele>1937.1999511719</ele>
        <time>2021-01-02T09:37:13.000Z</time>
      </trkpt>
      <trkpt lat="45.22584" lon="6.03002">
        <ele>1936.1999511719</ele>
        <time>2021-01-02T09:37:34.000Z</time>
      </trkpt>
      <trkpt lat="45.22584" lon="6.03003">
        <ele>1936.1999511719</ele>
        <time>2021-01-02T09:37:45.000Z</time>
      </trkpt>
      <trkpt lat="45.22584" lon="6.03003">
        <ele>1936.8000488281</ele>
        <time>2021-01-02T09:37:54.000Z</time>
      </trkpt>
      <trkpt lat="45.22584" lon="6.03003">
        <ele>1936.1999511719</ele>
        <time>2021-01-02T09:38:11.000Z</time>
      </trkpt>
      <trkpt lat="45.22584" lon="6.03003">
        <ele>1936.1999511719</ele>
        <time>2021-01-02T09:38:22.000Z</time>
      </trkpt>
      <trkpt lat="45.22584" lon="6.03003">
        <ele>1935.8000488281</ele>
        <time>2021-01-02T09:38:35.000Z</time>
      </trkpt>
      <trkpt lat="45.22584" lon="6.03003">
        <ele>1936.1999511719</ele>
        <time>2021-01-02T09:38:51.000Z</time>
      </trkpt>
      <trkpt lat="45.22584" lon="6.03003">
        <ele>1936.1999511719</ele>
        <time>2021-01-02T09:38:59.000Z</time>
      </trkpt>
      <trkpt lat="45.22584" lon="6.03003">
        <ele>1935.5999755859</ele>
        <time>2021-01-02T09:39:14.000Z</time>
      </trkpt>
      <trkpt lat="45.22584" lon="6.03003">
        <ele>1936</ele>
        <time>2021-01-02T09:39:31.000Z</time>
      </trkpt>
      <trkpt lat="45.22584" lon="6.03004">
        <ele>1936</ele>
        <time>2021-01-02T09:39:46.000Z</time>
      </trkpt>
      <trkpt lat="45.22584" lon="6.03004">
        <ele>1935.5999755859</ele>
        <time>2021-01-02T09:40:03.000Z</time>
      </trkpt>
      <trkpt lat="45.22584" lon="6.03005">
        <ele>1935.5999755859</ele>
        <time>2021-01-02T09:40:16.000Z</time>
      </trkpt>
      <trkpt lat="45.22584" lon="6.03005">
        <ele>1935.5999755859</ele>
        <time>2021-01-02T09:40:25.000Z</time>
      </trkpt>
      <trkpt lat="45.22584" lon="6.03006">
        <ele>1935.8000488281</ele>
        <time>2021-01-02T09:40:33.000Z</time>
      </trkpt>
      <trkpt lat="45.22584" lon="6.03007">
        <ele>1936</ele>
        <time>2021-01-02T09:40:39.000Z</time>
      </trkpt>
      <trkpt lat="45.22585" lon="6.03011">
        <ele>1936</ele>
        <time>2021-01-02T09:40:44.000Z</time>
      </trkpt>
      <trkpt lat="45.22587" lon="6.03012">
        <ele>1936.4000244141</ele>
        <time>2021-01-02T09:40:46.000Z</time>
      </trkpt>
      <trkpt lat="45.2259" lon="6.03013">
        <ele>1936.5999755859</ele>
        <time>2021-01-02T09:40:51.000Z</time>
      </trkpt>
      <trkpt lat="45.22593" lon="6.03013">
        <ele>1936.8000488281</ele>
        <time>2021-01-02T09:40:57.000Z</time>
      </trkpt>
      <trkpt lat="45.22594" lon="6.03012">
        <ele>1936.8000488281</ele>
        <time>2021-01-02T09:40:58.000Z</time>
      </trkpt>
      <trkpt lat="45.22597" lon="6.03013">
        <ele>1937</ele>
        <time>2021-01-02T09:41:03.000Z</time>
      </trkpt>
      <trkpt lat="45.22599" lon="6.03014">
        <ele>1937.4000244141</ele>
        <time>2021-01-02T09:41:06.000Z</time>
      </trkpt>
      <trkpt lat="45.22603" lon="6.03014">
        <ele>1938.4000244141</ele>
        <time>2021-01-02T09:41:10.000Z</time>
      </trkpt>
      <trkpt lat="45.22604" lon="6.03015">
        <ele>1938.5999755859</ele>
        <time>2021-01-02T09:41:11.000Z</time>
      </trkpt>
      <trkpt lat="45.22607" lon="6.03016">
        <ele>1939.5999755859</ele>
        <time>2021-01-02T09:41:17.000Z</time>
      </trkpt>
      <trkpt lat="45.22612" lon="6.03018">
        <ele>1940.8000488281</ele>
        <time>2021-01-02T09:41:24.000Z</time>
      </trkpt>
      <trkpt lat="45.22613" lon="6.03019">
        <ele>1940.8000488281</ele>
        <time>2021-01-02T09:41:25.000Z</time>
      </trkpt>
      <trkpt lat="45.22616" lon="6.03023">
        <ele>1941.8000488281</ele>
        <time>2021-01-02T09:41:31.000Z</time>
      </trkpt>
      <trkpt lat="45.22617" lon="6.03024">
        <ele>1942.1999511719</ele>
        <time>2021-01-02T09:41:33.000Z</time>
      </trkpt>
      <trkpt lat="45.22618" lon="6.03025">
        <ele>1943</ele>
        <time>2021-01-02T09:41:36.000Z</time>
      </trkpt>
      <trkpt lat="45.22619" lon="6.03025">
        <ele>1943.4000244141</ele>
        <time>2021-01-02T09:41:39.000Z</time>
      </trkpt>
      <trkpt lat="45.2262" lon="6.03028">
        <ele>1944.1999511719</ele>
        <time>2021-01-02T09:41:43.000Z</time>
      </trkpt>
      <trkpt lat="45.22622" lon="6.03032">
        <ele>1944.5999755859</ele>
        <time>2021-01-02T09:41:47.000Z</time>
      </trkpt>
      <trkpt lat="45.22623" lon="6.03036">
        <ele>1945.4000244141</ele>
        <time>2021-01-02T09:41:52.000Z</time>
      </trkpt>
      <trkpt lat="45.22623" lon="6.03037">
        <ele>1945.5999755859</ele>
        <time>2021-01-02T09:41:53.000Z</time>
      </trkpt>
      <trkpt lat="45.22625" lon="6.0304">
        <ele>1946.4000244141</ele>
        <time>2021-01-02T09:41:58.000Z</time>
      </trkpt>
      <trkpt lat="45.22625" lon="6.0304">
        <ele>1946.8000488281</ele>
        <time>2021-01-02T09:41:59.000Z</time>
      </trkpt>
      <trkpt lat="45.22627" lon="6.03041">
        <ele>1947.5999755859</ele>
        <time>2021-01-02T09:42:03.000Z</time>
      </trkpt>
      <trkpt lat="45.22628" lon="6.03043">
        <ele>1948.4000244141</ele>
        <time>2021-01-02T09:42:06.000Z</time>
      </trkpt>
      <trkpt lat="45.22628" lon="6.03044">
        <ele>1948.8000488281</ele>
        <time>2021-01-02T09:42:08.000Z</time>
      </trkpt>
      <trkpt lat="45.22629" lon="6.03048">
        <ele>1949.8000488281</ele>
        <time>2021-01-02T09:42:14.000Z</time>
      </trkpt>
      <trkpt lat="45.2263" lon="6.0305">
        <ele>1950.4000244141</ele>
        <time>2021-01-02T09:42:16.000Z</time>
      </trkpt>
      <trkpt lat="45.22633" lon="6.0305">
        <ele>1951</ele>
        <time>2021-01-02T09:42:19.000Z</time>
      </trkpt>
      <trkpt lat="45.22635" lon="6.03052">
        <ele>1951.5999755859</ele>
        <time>2021-01-02T09:42:22.000Z</time>
      </trkpt>
      <trkpt lat="45.22636" lon="6.03053">
        <ele>1952.1999511719</ele>
        <time>2021-01-02T09:42:24.000Z</time>
      </trkpt>
      <trkpt lat="45.22636" lon="6.03055">
        <ele>1952.5999755859</ele>
        <time>2021-01-02T09:42:27.000Z</time>
      </trkpt>
      <trkpt lat="45.22635" lon="6.03056">
        <ele>1952.8000488281</ele>
        <time>2021-01-02T09:42:28.000Z</time>
      </trkpt>
      <trkpt lat="45.22634" lon="6.03059">
        <ele>1953.1999511719</ele>
        <time>2021-01-02T09:42:31.000Z</time>
      </trkpt>
      <trkpt lat="45.22634" lon="6.0306">
        <ele>1953.4000244141</ele>
        <time>2021-01-02T09:42:33.000Z</time>
      </trkpt>
      <trkpt lat="45.22632" lon="6.03062">
        <ele>1954.1999511719</ele>
        <time>2021-01-02T09:42:38.000Z</time>
      </trkpt>
      <trkpt lat="45.22631" lon="6.03064">
        <ele>1954.5999755859</ele>
        <time>2021-01-02T09:42:40.000Z</time>
      </trkpt>
      <trkpt lat="45.22629" lon="6.03066">
        <ele>1955</ele>
        <time>2021-01-02T09:42:42.000Z</time>
      </trkpt>
      <trkpt lat="45.22629" lon="6.03067">
        <ele>1955.4000244141</ele>
        <time>2021-01-02T09:42:44.000Z</time>
      </trkpt>
      <trkpt lat="45.22627" lon="6.03072">
        <ele>1956.1999511719</ele>
        <time>2021-01-02T09:42:49.000Z</time>
      </trkpt>
      <trkpt lat="45.22627" lon="6.03074">
        <ele>1956.4000244141</ele>
        <time>2021-01-02T09:42:51.000Z</time>
      </trkpt>
      <trkpt lat="45.22625" lon="6.03079">
        <ele>1957.5999755859</ele>
        <time>2021-01-02T09:42:57.000Z</time>
      </trkpt>
      <trkpt lat="45.22623" lon="6.03086">
        <ele>1957.5999755859</ele>
        <time>2021-01-02T09:43:04.000Z</time>
      </trkpt>
      <trkpt lat="45.2262" lon="6.03091">
        <ele>1958.5999755859</ele>
        <time>2021-01-02T09:43:11.000Z</time>
      </trkpt>
      <trkpt lat="45.22619" lon="6.03092">
        <ele>1958.8000488281</ele>
        <time>2021-01-02T09:43:12.000Z</time>
      </trkpt>
      <trkpt lat="45.22618" lon="6.03096">
        <ele>1959.8000488281</ele>
        <time>2021-01-02T09:43:16.000Z</time>
      </trkpt>
      <trkpt lat="45.22616" lon="6.03099">
        <ele>1960.1999511719</ele>
        <time>2021-01-02T09:43:19.000Z</time>
      </trkpt>
      <trkpt lat="45.22613" lon="6.03104">
        <ele>1960.5999755859</ele>
        <time>2021-01-02T09:43:26.000Z</time>
      </trkpt>
      <trkpt lat="45.22613" lon="6.03105">
        <ele>1960.8000488281</ele>
        <time>2021-01-02T09:43:27.000Z</time>
      </trkpt>
      <trkpt lat="45.22611" lon="6.03109">
        <ele>1962</ele>
        <time>2021-01-02T09:43:32.000Z</time>
      </trkpt>
      <trkpt lat="45.2261" lon="6.03112">
        <ele>1962.4000244141</ele>
        <time>2021-01-02T09:43:34.000Z</time>
      </trkpt>
      <trkpt lat="45.22609" lon="6.03115">
        <ele>1963</ele>
        <time>2021-01-02T09:43:37.000Z</time>
      </trkpt>
      <trkpt lat="45.22607" lon="6.03118">
        <ele>1963.4000244141</ele>
        <time>2021-01-02T09:43:41.000Z</time>
      </trkpt>
      <trkpt lat="45.22607" lon="6.03119">
        <ele>1964</ele>
        <time>2021-01-02T09:43:45.000Z</time>
      </trkpt>
      <trkpt lat="45.22607" lon="6.03119">
        <ele>1964.4000244141</ele>
        <time>2021-01-02T09:43:47.000Z</time>
      </trkpt>
      <trkpt lat="45.22609" lon="6.03118">
        <ele>1965</ele>
        <time>2021-01-02T09:43:52.000Z</time>
      </trkpt>
      <trkpt lat="45.22609" lon="6.03118">
        <ele>1965</ele>
        <time>2021-01-02T09:43:59.000Z</time>
      </trkpt>
      <trkpt lat="45.22609" lon="6.03118">
        <ele>1965</ele>
        <time>2021-01-02T09:44:04.000Z</time>
      </trkpt>
      <trkpt lat="45.2261" lon="6.03118">
        <ele>1965</ele>
        <time>2021-01-02T09:44:15.000Z</time>
      </trkpt>
      <trkpt lat="45.22611" lon="6.03117">
        <ele>1964.8000488281</ele>
        <time>2021-01-02T09:44:16.000Z</time>
      </trkpt>
      <trkpt lat="45.22613" lon="6.03115">
        <ele>1965.1999511719</ele>
        <time>2021-01-02T09:44:22.000Z</time>
      </trkpt>
      <trkpt lat="45.22618" lon="6.03114">
        <ele>1966.1999511719</ele>
        <time>2021-01-02T09:44:28.000Z</time>
      </trkpt>
      <trkpt lat="45.22618" lon="6.03113">
        <ele>1966.1999511719</ele>
        <time>2021-01-02T09:44:29.000Z</time>
      </trkpt>
      <trkpt lat="45.22623" lon="6.03111">
        <ele>1966.8000488281</ele>
        <time>2021-01-02T09:44:34.000Z</time>
      </trkpt>
      <trkpt lat="45.22625" lon="6.0311">
        <ele>1967</ele>
        <time>2021-01-02T09:44:37.000Z</time>
      </trkpt>
      <trkpt lat="45.22626" lon="6.03109">
        <ele>1967.1999511719</ele>
        <time>2021-01-02T09:44:40.000Z</time>
      </trkpt>
      <trkpt lat="45.22629" lon="6.03108">
        <ele>1967.8000488281</ele>
        <time>2021-01-02T09:44:44.000Z</time>
      </trkpt>
      <trkpt lat="45.22631" lon="6.03107">
        <ele>1968.4000244141</ele>
        <time>2021-01-02T09:44:47.000Z</time>
      </trkpt>
      <trkpt lat="45.22632" lon="6.03108">
        <ele>1969</ele>
        <time>2021-01-02T09:44:50.000Z</time>
      </trkpt>
      <trkpt lat="45.22633" lon="6.03108">
        <ele>1969.4000244141</ele>
        <time>2021-01-02T09:44:52.000Z</time>
      </trkpt>
      <trkpt lat="45.22636" lon="6.03108">
        <ele>1970.1999511719</ele>
        <time>2021-01-02T09:44:57.000Z</time>
      </trkpt>
      <trkpt lat="45.22639" lon="6.03107">
        <ele>1970.5999755859</ele>
        <time>2021-01-02T09:45:00.000Z</time>
      </trkpt>
      <trkpt lat="45.22642" lon="6.03106">
        <ele>1971</ele>
        <time>2021-01-02T09:45:03.000Z</time>
      </trkpt>
      <trkpt lat="45.22646" lon="6.03105">
        <ele>1971.1999511719</ele>
        <time>2021-01-02T09:45:09.000Z</time>
      </trkpt>
      <trkpt lat="45.22648" lon="6.03103">
        <ele>1971.8000488281</ele>
        <time>2021-01-02T09:45:15.000Z</time>
      </trkpt>
      <trkpt lat="45.22649" lon="6.03101">
        <ele>1972</ele>
        <time>2021-01-02T09:45:18.000Z</time>
      </trkpt>
      <trkpt lat="45.22653" lon="6.03097">
        <ele>1972.5999755859</ele>
        <time>2021-01-02T09:45:26.000Z</time>
      </trkpt>
      <trkpt lat="45.22653" lon="6.03097">
        <ele>1972.8000488281</ele>
        <time>2021-01-02T09:45:28.000Z</time>
      </trkpt>
      <trkpt lat="45.22655" lon="6.03095">
        <ele>1973.1999511719</ele>
        <time>2021-01-02T09:45:32.000Z</time>
      </trkpt>
      <trkpt lat="45.22658" lon="6.03093">
        <ele>1974</ele>
        <time>2021-01-02T09:45:36.000Z</time>
      </trkpt>
      <trkpt lat="45.2266" lon="6.03092">
        <ele>1974.1999511719</ele>
        <time>2021-01-02T09:45:38.000Z</time>
      </trkpt>
      <trkpt lat="45.22661" lon="6.0309">
        <ele>1975</ele>
        <time>2021-01-02T09:45:42.000Z</time>
      </trkpt>
      <trkpt lat="45.22664" lon="6.03089">
        <ele>1975.5999755859</ele>
        <time>2021-01-02T09:45:45.000Z</time>
      </trkpt>
      <trkpt lat="45.22666" lon="6.03088">
        <ele>1976</ele>
        <time>2021-01-02T09:45:48.000Z</time>
      </trkpt>
      <trkpt lat="45.22668" lon="6.03087">
        <ele>1976.4000244141</ele>
        <time>2021-01-02T09:45:51.000Z</time>
      </trkpt>
      <trkpt lat="45.22672" lon="6.03087">
        <ele>1976.8000488281</ele>
        <time>2021-01-02T09:45:57.000Z</time>
      </trkpt>
      <trkpt lat="45.22673" lon="6.03086">
        <ele>1977</ele>
        <time>2021-01-02T09:45:59.000Z</time>
      </trkpt>
      <trkpt lat="45.22675" lon="6.03085">
        <ele>1977.1999511719</ele>
        <time>2021-01-02T09:46:03.000Z</time>
      </trkpt>
      <trkpt lat="45.22677" lon="6.03084">
        <ele>1978.1999511719</ele>
        <time>2021-01-02T09:46:07.000Z</time>
      </trkpt>
      <trkpt lat="45.22681" lon="6.03083">
        <ele>1978.5999755859</ele>
        <time>2021-01-02T09:46:11.000Z</time>
      </trkpt>
      <trkpt lat="45.22685" lon="6.03081">
        <ele>1977.8000488281</ele>
        <time>2021-01-02T09:46:17.000Z</time>
      </trkpt>
      <trkpt lat="45.22688" lon="6.03078">
        <ele>1977.5999755859</ele>
        <time>2021-01-02T09:46:23.000Z</time>
      </trkpt>
      <trkpt lat="45.22692" lon="6.03074">
        <ele>1979</ele>
        <time>2021-01-02T09:46:31.000Z</time>
      </trkpt>
      <trkpt lat="45.22693" lon="6.03073">
        <ele>1979.1999511719</ele>
        <time>2021-01-02T09:46:33.000Z</time>
      </trkpt>
      <trkpt lat="45.22696" lon="6.03072">
        <ele>1979.5999755859</ele>
        <time>2021-01-02T09:46:37.000Z</time>
      </trkpt>
      <trkpt lat="45.22698" lon="6.03072">
        <ele>1980.4000244141</ele>
        <time>2021-01-02T09:46:40.000Z</time>
      </trkpt>
      <trkpt lat="45.227" lon="6.03069">
        <ele>1980.8000488281</ele>
        <time>2021-01-02T09:46:44.000Z</time>
      </trkpt>
      <trkpt lat="45.22702" lon="6.03066">
        <ele>1981.4000244141</ele>
        <time>2021-01-02T09:46:47.000Z</time>
      </trkpt>
      <trkpt lat="45.22704" lon="6.03065">
        <ele>1981.8000488281</ele>
        <time>2021-01-02T09:46:51.000Z</time>
      </trkpt>
      <trkpt lat="45.22706" lon="6.03063">
        <ele>1982.1999511719</ele>
        <time>2021-01-02T09:46:54.000Z</time>
      </trkpt>
      <trkpt lat="45.22707" lon="6.03062">
        <ele>1982.4000244141</ele>
        <time>2021-01-02T09:46:55.000Z</time>
      </trkpt>
      <trkpt lat="45.22707" lon="6.03062">
        <ele>1982.8000488281</ele>
        <time>2021-01-02T09:46:57.000Z</time>
      </trkpt>
      <trkpt lat="45.22708" lon="6.03066">
        <ele>1983.5999755859</ele>
        <time>2021-01-02T09:47:01.000Z</time>
      </trkpt>
      <trkpt lat="45.2271" lon="6.0307">
        <ele>1984.1999511719</ele>
        <time>2021-01-02T09:47:05.000Z</time>
      </trkpt>
      <trkpt lat="45.22711" lon="6.03073">
        <ele>1984.8000488281</ele>
        <time>2021-01-02T09:47:09.000Z</time>
      </trkpt>
      <trkpt lat="45.22713" lon="6.03076">
        <ele>1985.1999511719</ele>
        <time>2021-01-02T09:47:12.000Z</time>
      </trkpt>
      <trkpt lat="45.22712" lon="6.03077">
        <ele>1985.8000488281</ele>
        <time>2021-01-02T09:47:16.000Z</time>
      </trkpt>
      <trkpt lat="45.22712" lon="6.03077">
        <ele>1986</ele>
        <time>2021-01-02T09:47:18.000Z</time>
      </trkpt>
      <trkpt lat="45.22715" lon="6.0308">
        <ele>1986</ele>
        <time>2021-01-02T09:47:24.000Z</time>
      </trkpt>
      <trkpt lat="45.22717" lon="6.03082">
        <ele>1986.8000488281</ele>
        <time>2021-01-02T09:47:30.000Z</time>
      </trkpt>
      <trkpt lat="45.22717" lon="6.03082">
        <ele>1987</ele>
        <time>2021-01-02T09:47:31.000Z</time>
      </trkpt>
      <trkpt lat="45.22717" lon="6.03081">
        <ele>1987.1999511719</ele>
        <time>2021-01-02T09:47:32.000Z</time>
      </trkpt>
      <trkpt lat="45.22718" lon="6.0308">
        <ele>1987.4000244141</ele>
        <time>2021-01-02T09:47:34.000Z</time>
      </trkpt>
      <trkpt lat="45.22719" lon="6.03079">
        <ele>1987.8000488281</ele>
        <time>2021-01-02T09:47:35.000Z</time>
      </trkpt>
      <trkpt lat="45.22719" lon="6.03077">
        <ele>1988</ele>
        <time>2021-01-02T09:47:38.000Z</time>
      </trkpt>
      <trkpt lat="45.22721" lon="6.03075">
        <ele>1988.8000488281</ele>
        <time>2021-01-02T09:47:43.000Z</time>
      </trkpt>
      <trkpt lat="45.22721" lon="6.03075">
        <ele>1989</ele>
        <time>2021-01-02T09:47:44.000Z</time>
      </trkpt>
      <trkpt lat="45.22721" lon="6.03076">
        <ele>1990</ele>
        <time>2021-01-02T09:47:49.000Z</time>
      </trkpt>
      <trkpt lat="45.22721" lon="6.03076">
        <ele>1990.1999511719</ele>
        <time>2021-01-02T09:47:50.000Z</time>
      </trkpt>
      <trkpt lat="45.22722" lon="6.03075">
        <ele>1990.1999511719</ele>
        <time>2021-01-02T09:47:54.000Z</time>
      </trkpt>
      <trkpt lat="45.22723" lon="6.03076">
        <ele>1990</ele>
        <time>2021-01-02T09:47:55.000Z</time>
      </trkpt>
      <trkpt lat="45.22727" lon="6.0308">
        <ele>1990.4000244141</ele>
        <time>2021-01-02T09:48:00.000Z</time>
      </trkpt>
      <trkpt lat="45.22731" lon="6.03083">
        <ele>1990.5999755859</ele>
        <time>2021-01-02T09:48:05.000Z</time>
      </trkpt>
      <trkpt lat="45.22732" lon="6.03083">
        <ele>1990.5999755859</ele>
        <time>2021-01-02T09:48:06.000Z</time>
      </trkpt>
      <trkpt lat="45.22736" lon="6.03086">
        <ele>1991.1999511719</ele>
        <time>2021-01-02T09:48:14.000Z</time>
      </trkpt>
      <trkpt lat="45.22739" lon="6.03087">
        <ele>1991.4000244141</ele>
        <time>2021-01-02T09:48:17.000Z</time>
      </trkpt>
      <trkpt lat="45.22741" lon="6.03088">
        <ele>1991.8000488281</ele>
        <time>2021-01-02T09:48:20.000Z</time>
      </trkpt>
      <trkpt lat="45.22742" lon="6.03088">
        <ele>1992.1999511719</ele>
        <time>2021-01-02T09:48:22.000Z</time>
      </trkpt>
      <trkpt lat="45.22742" lon="6.03089">
        <ele>1993.1999511719</ele>
        <time>2021-01-02T09:48:26.000Z</time>
      </trkpt>
      <trkpt lat="45.22743" lon="6.0309">
        <ele>1993.4000244141</ele>
        <time>2021-01-02T09:48:27.000Z</time>
      </trkpt>
      <trkpt lat="45.22745" lon="6.03093">
        <ele>1993.5999755859</ele>
        <time>2021-01-02T09:48:31.000Z</time>
      </trkpt>
      <trkpt lat="45.22746" lon="6.03099">
        <ele>1993.8000488281</ele>
        <time>2021-01-02T09:48:38.000Z</time>
      </trkpt>
      <trkpt lat="45.22748" lon="6.031">
        <ele>1994</ele>
        <time>2021-01-02T09:48:43.000Z</time>
      </trkpt>
      <trkpt lat="45.22748" lon="6.03101">
        <ele>1994.4000244141</ele>
        <time>2021-01-02T09:48:45.000Z</time>
      </trkpt>
      <trkpt lat="45.22748" lon="6.03102">
        <ele>1995</ele>
        <time>2021-01-02T09:48:48.000Z</time>
      </trkpt>
      <trkpt lat="45.22747" lon="6.03103">
        <ele>1995.4000244141</ele>
        <time>2021-01-02T09:48:52.000Z</time>
      </trkpt>
      <trkpt lat="45.22747" lon="6.03103">
        <ele>1995.4000244141</ele>
        <time>2021-01-02T09:48:53.000Z</time>
      </trkpt>
      <trkpt lat="45.22749" lon="6.03104">
        <ele>1996.1999511719</ele>
        <time>2021-01-02T09:49:00.000Z</time>
      </trkpt>
      <trkpt lat="45.22752" lon="6.03105">
        <ele>1996.4000244141</ele>
        <time>2021-01-02T09:49:04.000Z</time>
      </trkpt>
      <trkpt lat="45.22754" lon="6.03105">
        <ele>1997</ele>
        <time>2021-01-02T09:49:08.000Z</time>
      </trkpt>
      <trkpt lat="45.22756" lon="6.03107">
        <ele>1997.1999511719</ele>
        <time>2021-01-02T09:49:14.000Z</time>
      </trkpt>
      <trkpt lat="45.22758" lon="6.03107">
        <ele>1997.5999755859</ele>
        <time>2021-01-02T09:49:18.000Z</time>
      </trkpt>
      <trkpt lat="45.22758" lon="6.03107">
        <ele>1997.5999755859</ele>
        <time>2021-01-02T09:49:21.000Z</time>
      </trkpt>
      <trkpt lat="45.22761" lon="6.03109">
        <ele>1997.4000244141</ele>
        <time>2021-01-02T09:49:29.000Z</time>
      </trkpt>
      <trkpt lat="45.22764" lon="6.03111">
        <ele>1997</ele>
        <time>2021-01-02T09:49:35.000Z</time>
      </trkpt>
      <trkpt lat="45.22767" lon="6.03113">
        <ele>1996.8000488281</ele>
        <time>2021-01-02T09:49:39.000Z</time>
      </trkpt>
      <trkpt lat="45.22767" lon="6.03113">
        <ele>1996.5999755859</ele>
        <time>2021-01-02T09:49:40.000Z</time>
      </trkpt>
      <trkpt lat="45.22768" lon="6.03114">
        <ele>1996.4000244141</ele>
        <time>2021-01-02T09:49:41.000Z</time>
      </trkpt>
      <trkpt lat="45.22769" lon="6.03115">
        <ele>1995.4000244141</ele>
        <time>2021-01-02T09:49:45.000Z</time>
      </trkpt>
      <trkpt lat="45.22769" lon="6.03115">
        <ele>1995.1999511719</ele>
        <time>2021-01-02T09:49:46.000Z</time>
      </trkpt>
      <trkpt lat="45.22771" lon="6.03116">
        <ele>1994.4000244141</ele>
        <time>2021-01-02T09:49:51.000Z</time>
      </trkpt>
      <trkpt lat="45.22775" lon="6.03117">
        <ele>1994.1999511719</ele>
        <time>2021-01-02T09:49:58.000Z</time>
      </trkpt>
      <trkpt lat="45.22776" lon="6.03116">
        <ele>1994</ele>
        <time>2021-01-02T09:49:59.000Z</time>
      </trkpt>
      <trkpt lat="45.22778" lon="6.03114">
        <ele>1994.4000244141</ele>
        <time>2021-01-02T09:50:04.000Z</time>
      </trkpt>
      <trkpt lat="45.22779" lon="6.03111">
        <ele>1994.5999755859</ele>
        <time>2021-01-02T09:50:06.000Z</time>
      </trkpt>
      <trkpt lat="45.2278" lon="6.03109">
        <ele>1994.8000488281</ele>
        <time>2021-01-02T09:50:10.000Z</time>
      </trkpt>
      <trkpt lat="45.22781" lon="6.03105">
        <ele>1994.8000488281</ele>
        <time>2021-01-02T09:50:17.000Z</time>
      </trkpt>
      <trkpt lat="45.22781" lon="6.03103">
        <ele>1994.4000244141</ele>
        <time>2021-01-02T09:50:22.000Z</time>
      </trkpt>
      <trkpt lat="45.2278" lon="6.031">
        <ele>1994.1999511719</ele>
        <time>2021-01-02T09:50:27.000Z</time>
      </trkpt>
      <trkpt lat="45.22778" lon="6.03095">
        <ele>1994.8000488281</ele>
        <time>2021-01-02T09:50:33.000Z</time>
      </trkpt>
      <trkpt lat="45.22777" lon="6.03091">
        <ele>1995.1999511719</ele>
        <time>2021-01-02T09:50:39.000Z</time>
      </trkpt>
      <trkpt lat="45.22777" lon="6.0309">
        <ele>1995.4000244141</ele>
        <time>2021-01-02T09:50:40.000Z</time>
      </trkpt>
      <trkpt lat="45.22776" lon="6.03086">
        <ele>1996</ele>
        <time>2021-01-02T09:50:45.000Z</time>
      </trkpt>
      <trkpt lat="45.22777" lon="6.03084">
        <ele>1996.1999511719</ele>
        <time>2021-01-02T09:50:47.000Z</time>
      </trkpt>
      <trkpt lat="45.22777" lon="6.03083">
        <ele>1996.1999511719</ele>
        <time>2021-01-02T09:50:48.000Z</time>
      </trkpt>
      <trkpt lat="45.22777" lon="6.03084">
        <ele>1996.1999511719</ele>
        <time>2021-01-02T09:50:50.000Z</time>
      </trkpt>
      <trkpt lat="45.22778" lon="6.0308">
        <ele>1996.1999511719</ele>
        <time>2021-01-02T09:50:57.000Z</time>
      </trkpt>
      <trkpt lat="45.22779" lon="6.0308">
        <ele>1996.4000244141</ele>
        <time>2021-01-02T09:51:02.000Z</time>
      </trkpt>
      <trkpt lat="45.22779" lon="6.0308">
        <ele>1996.8000488281</ele>
        <time>2021-01-02T09:51:12.000Z</time>
      </trkpt>
      <trkpt lat="45.22779" lon="6.03079">
        <ele>1997</ele>
        <time>2021-01-02T09:51:26.000Z</time>
      </trkpt>
      <trkpt lat="45.22782" lon="6.03079">
        <ele>1997.1999511719</ele>
        <time>2021-01-02T09:51:31.000Z</time>
      </trkpt>
      <trkpt lat="45.22784" lon="6.03079">
        <ele>1997.8000488281</ele>
        <time>2021-01-02T09:51:37.000Z</time>
      </trkpt>
      <trkpt lat="45.22784" lon="6.03079">
        <ele>1997.5999755859</ele>
        <time>2021-01-02T09:51:49.000Z</time>
      </trkpt>
      <trkpt lat="45.22786" lon="6.03079">
        <ele>1997.4000244141</ele>
        <time>2021-01-02T09:51:57.000Z</time>
      </trkpt>
      <trkpt lat="45.22788" lon="6.03079">
        <ele>1997.4000244141</ele>
        <time>2021-01-02T09:51:59.000Z</time>
      </trkpt>
      <trkpt lat="45.22795" lon="6.03078">
        <ele>1997.1999511719</ele>
        <time>2021-01-02T09:52:06.000Z</time>
      </trkpt>
      <trkpt lat="45.22797" lon="6.03078">
        <ele>1996.5999755859</ele>
        <time>2021-01-02T09:52:12.000Z</time>
      </trkpt>
      <trkpt lat="45.22797" lon="6.03078">
        <ele>1996.8000488281</ele>
        <time>2021-01-02T09:52:28.000Z</time>
      </trkpt>
      <trkpt lat="45.22801" lon="6.03078">
        <ele>1997</ele>
        <time>2021-01-02T09:52:45.000Z</time>
      </trkpt>
      <trkpt lat="45.22803" lon="6.03078">
        <ele>1997.1999511719</ele>
        <time>2021-01-02T09:52:47.000Z</time>
      </trkpt>
      <trkpt lat="45.22807" lon="6.03076">
        <ele>1997.5999755859</ele>
        <time>2021-01-02T09:52:52.000Z</time>
      </trkpt>
      <trkpt lat="45.22813" lon="6.03076">
        <ele>1997.1999511719</ele>
        <time>2021-01-02T09:52:58.000Z</time>
      </trkpt>
      <trkpt lat="45.22819" lon="6.03075">
        <ele>1996.4000244141</ele>
        <time>2021-01-02T09:53:03.000Z</time>
      </trkpt>
      <trkpt lat="45.2282" lon="6.03075">
        <ele>1996.1999511719</ele>
        <time>2021-01-02T09:53:04.000Z</time>
      </trkpt>
      <trkpt lat="45.2282" lon="6.03076">
        <ele>1995.4000244141</ele>
        <time>2021-01-02T09:53:08.000Z</time>
      </trkpt>
      <trkpt lat="45.2282" lon="6.03076">
        <ele>1995.1999511719</ele>
        <time>2021-01-02T09:53:09.000Z</time>
      </trkpt>
      <trkpt lat="45.22821" lon="6.03076">
        <ele>1994.5999755859</ele>
        <time>2021-01-02T09:53:21.000Z</time>
      </trkpt>
      <trkpt lat="45.22826" lon="6.03075">
        <ele>1994.8000488281</ele>
        <time>2021-01-02T09:53:28.000Z</time>
      </trkpt>
      <trkpt lat="45.22833" lon="6.03075">
        <ele>1994</ele>
        <time>2021-01-02T09:53:35.000Z</time>
      </trkpt>
      <trkpt lat="45.22834" lon="6.03075">
        <ele>1993.8000488281</ele>
        <time>2021-01-02T09:53:36.000Z</time>
      </trkpt>
      <trkpt lat="45.22841" lon="6.03075">
        <ele>1994</ele>
        <time>2021-01-02T09:53:43.000Z</time>
      </trkpt>
      <trkpt lat="45.22847" lon="6.03075">
        <ele>1994.5999755859</ele>
        <time>2021-01-02T09:53:51.000Z</time>
      </trkpt>
      <trkpt lat="45.2285" lon="6.03075">
        <ele>1995</ele>
        <time>2021-01-02T09:53:55.000Z</time>
      </trkpt>
      <trkpt lat="45.22854" lon="6.03074">
        <ele>1995.4000244141</ele>
        <time>2021-01-02T09:53:59.000Z</time>
      </trkpt>
      <trkpt lat="45.22858" lon="6.03075">
        <ele>1995.4000244141</ele>
        <time>2021-01-02T09:54:03.000Z</time>
      </trkpt>
      <trkpt lat="45.2286" lon="6.03075">
        <ele>1995.5999755859</ele>
        <time>2021-01-02T09:54:06.000Z</time>
      </trkpt>
      <trkpt lat="45.2286" lon="6.03075">
        <ele>1995</ele>
        <time>2021-01-02T09:54:13.000Z</time>
      </trkpt>
      <trkpt lat="45.22861" lon="6.03076">
        <ele>1994.5999755859</ele>
        <time>2021-01-02T09:54:20.000Z</time>
      </trkpt>
      <trkpt lat="45.22866" lon="6.03075">
        <ele>1994.5999755859</ele>
        <time>2021-01-02T09:54:27.000Z</time>
      </trkpt>
      <trkpt lat="45.22873" lon="6.03073">
        <ele>1996</ele>
        <time>2021-01-02T09:54:36.000Z</time>
      </trkpt>
      <trkpt lat="45.22876" lon="6.03072">
        <ele>1997</ele>
        <time>2021-01-02T09:54:42.000Z</time>
      </trkpt>
      <trkpt lat="45.22876" lon="6.03072">
        <ele>1997.1999511719</ele>
        <time>2021-01-02T09:54:43.000Z</time>
      </trkpt>
      <trkpt lat="45.22876" lon="6.03073">
        <ele>1997.8000488281</ele>
        <time>2021-01-02T09:54:55.000Z</time>
      </trkpt>
      <trkpt lat="45.22881" lon="6.0307">
        <ele>1998</ele>
        <time>2021-01-02T09:55:02.000Z</time>
      </trkpt>
      <trkpt lat="45.22882" lon="6.0307">
        <ele>1998.1999511719</ele>
        <time>2021-01-02T09:55:04.000Z</time>
      </trkpt>
      <trkpt lat="45.22886" lon="6.03068">
        <ele>1999.5999755859</ele>
        <time>2021-01-02T09:55:09.000Z</time>
      </trkpt>
      <trkpt lat="45.22886" lon="6.03068">
        <ele>1999.8000488281</ele>
        <time>2021-01-02T09:55:10.000Z</time>
      </trkpt>
      <trkpt lat="45.22888" lon="6.03068">
        <ele>2000.5999755859</ele>
        <time>2021-01-02T09:55:12.000Z</time>
      </trkpt>
      <trkpt lat="45.2289" lon="6.03067">
        <ele>2001.8000488281</ele>
        <time>2021-01-02T09:55:17.000Z</time>
      </trkpt>
      <trkpt lat="45.22892" lon="6.03066">
        <ele>2002.8000488281</ele>
        <time>2021-01-02T09:55:23.000Z</time>
      </trkpt>
      <trkpt lat="45.22893" lon="6.03064">
        <ele>2002.8000488281</ele>
        <time>2021-01-02T09:55:25.000Z</time>
      </trkpt>
      <trkpt lat="45.22894" lon="6.03063">
        <ele>2003</ele>
        <time>2021-01-02T09:55:33.000Z</time>
      </trkpt>
      <trkpt lat="45.22895" lon="6.03063">
        <ele>2004</ele>
        <time>2021-01-02T09:55:38.000Z</time>
      </trkpt>
      <trkpt lat="45.22895" lon="6.03063">
        <ele>2004.5999755859</ele>
        <time>2021-01-02T09:55:40.000Z</time>
      </trkpt>
      <trkpt lat="45.22895" lon="6.03063">
        <ele>2004</ele>
        <time>2021-01-02T09:55:49.000Z</time>
      </trkpt>
      <trkpt lat="45.22897" lon="6.03062">
        <ele>2004</ele>
        <time>2021-01-02T09:55:55.000Z</time>
      </trkpt>
      <trkpt lat="45.22897" lon="6.03062">
        <ele>2004</ele>
        <time>2021-01-02T09:55:56.000Z</time>
      </trkpt>
      <trkpt lat="45.22901" lon="6.0306">
        <ele>2004</ele>
        <time>2021-01-02T09:56:02.000Z</time>
      </trkpt>
      <trkpt lat="45.22903" lon="6.0306">
        <ele>2005</ele>
        <time>2021-01-02T09:56:08.000Z</time>
      </trkpt>
      <trkpt lat="45.22904" lon="6.0306">
        <ele>2005.1999511719</ele>
        <time>2021-01-02T09:56:09.000Z</time>
      </trkpt>
      <trkpt lat="45.22907" lon="6.03059">
        <ele>2005.5999755859</ele>
        <time>2021-01-02T09:56:12.000Z</time>
      </trkpt>
      <trkpt lat="45.22908" lon="6.03058">
        <ele>2005.5999755859</ele>
        <time>2021-01-02T09:56:14.000Z</time>
      </trkpt>
      <trkpt lat="45.22912" lon="6.03058">
        <ele>2006.1999511719</ele>
        <time>2021-01-02T09:56:20.000Z</time>
      </trkpt>
      <trkpt lat="45.22914" lon="6.03058">
        <ele>2006.4000244141</ele>
        <time>2021-01-02T09:56:22.000Z</time>
      </trkpt>
      <trkpt lat="45.22918" lon="6.03056">
        <ele>2007.4000244141</ele>
        <time>2021-01-02T09:56:28.000Z</time>
      </trkpt>
      <trkpt lat="45.2292" lon="6.03056">
        <ele>2008.4000244141</ele>
        <time>2021-01-02T09:56:31.000Z</time>
      </trkpt>
      <trkpt lat="45.22921" lon="6.03056">
        <ele>2008.5999755859</ele>
        <time>2021-01-02T09:56:32.000Z</time>
      </trkpt>
      <trkpt lat="45.22922" lon="6.03056">
        <ele>2008.8000488281</ele>
        <time>2021-01-02T09:56:34.000Z</time>
      </trkpt>
      <trkpt lat="45.22922" lon="6.03055">
        <ele>2008.8000488281</ele>
        <time>2021-01-02T09:56:41.000Z</time>
      </trkpt>
      <trkpt lat="45.22924" lon="6.03056">
        <ele>2009</ele>
        <time>2021-01-02T09:56:46.000Z</time>
      </trkpt>
      <trkpt lat="45.22925" lon="6.03055">
        <ele>2009.5999755859</ele>
        <time>2021-01-02T09:56:49.000Z</time>
      </trkpt>
      <trkpt lat="45.22927" lon="6.03056">
        <ele>2010</ele>
        <time>2021-01-02T09:56:53.000Z</time>
      </trkpt>
      <trkpt lat="45.22928" lon="6.03056">
        <ele>2010</ele>
        <time>2021-01-02T09:56:57.000Z</time>
      </trkpt>
      <trkpt lat="45.22931" lon="6.03056">
        <ele>2009.8000488281</ele>
        <time>2021-01-02T09:57:01.000Z</time>
      </trkpt>
      <trkpt lat="45.22933" lon="6.03056">
        <ele>2009.8000488281</ele>
        <time>2021-01-02T09:57:03.000Z</time>
      </trkpt>
      <trkpt lat="45.22936" lon="6.03057">
        <ele>2009.8000488281</ele>
        <time>2021-01-02T09:57:09.000Z</time>
      </trkpt>
      <trkpt lat="45.22937" lon="6.03056">
        <ele>2009.8000488281</ele>
        <time>2021-01-02T09:57:10.000Z</time>
      </trkpt>
      <trkpt lat="45.2294" lon="6.03057">
        <ele>2010.4000244141</ele>
        <time>2021-01-02T09:57:16.000Z</time>
      </trkpt>
      <trkpt lat="45.22941" lon="6.03057">
        <ele>2010.5999755859</ele>
        <time>2021-01-02T09:57:19.000Z</time>
      </trkpt>
      <trkpt lat="45.22942" lon="6.03056">
        <ele>2010.8000488281</ele>
        <time>2021-01-02T09:57:21.000Z</time>
      </trkpt>
      <trkpt lat="45.22944" lon="6.03055">
        <ele>2011.1999511719</ele>
        <time>2021-01-02T09:57:27.000Z</time>
      </trkpt>
      <trkpt lat="45.22945" lon="6.03054">
        <ele>2011.5999755859</ele>
        <time>2021-01-02T09:57:29.000Z</time>
      </trkpt>
      <trkpt lat="45.22947" lon="6.03054">
        <ele>2011.8000488281</ele>
        <time>2021-01-02T09:57:31.000Z</time>
      </trkpt>
      <trkpt lat="45.22947" lon="6.03054">
        <ele>2011.8000488281</ele>
        <time>2021-01-02T09:57:32.000Z</time>
      </trkpt>
      <trkpt lat="45.22949" lon="6.03054">
        <ele>2012.5999755859</ele>
        <time>2021-01-02T09:57:37.000Z</time>
      </trkpt>
      <trkpt lat="45.2295" lon="6.03054">
        <ele>2012.8000488281</ele>
        <time>2021-01-02T09:57:38.000Z</time>
      </trkpt>
      <trkpt lat="45.22951" lon="6.03054">
        <ele>2013</ele>
        <time>2021-01-02T09:57:39.000Z</time>
      </trkpt>
      <trkpt lat="45.22952" lon="6.03053">
        <ele>2013.5999755859</ele>
        <time>2021-01-02T09:57:42.000Z</time>
      </trkpt>
      <trkpt lat="45.22953" lon="6.03052">
        <ele>2013.8000488281</ele>
        <time>2021-01-02T09:57:43.000Z</time>
      </trkpt>
      <trkpt lat="45.22953" lon="6.03052">
        <ele>2013.8000488281</ele>
        <time>2021-01-02T09:57:44.000Z</time>
      </trkpt>
      <trkpt lat="45.22955" lon="6.03051">
        <ele>2014.4000244141</ele>
        <time>2021-01-02T09:57:47.000Z</time>
      </trkpt>
      <trkpt lat="45.22958" lon="6.03051">
        <ele>2015</ele>
        <time>2021-01-02T09:57:52.000Z</time>
      </trkpt>
      <trkpt lat="45.22958" lon="6.0305">
        <ele>2015</ele>
        <time>2021-01-02T09:57:53.000Z</time>
      </trkpt>
      <trkpt lat="45.22961" lon="6.0305">
        <ele>2015.8000488281</ele>
        <time>2021-01-02T09:57:59.000Z</time>
      </trkpt>
      <trkpt lat="45.22962" lon="6.0305">
        <ele>2016</ele>
        <time>2021-01-02T09:58:01.000Z</time>
      </trkpt>
      <trkpt lat="45.22962" lon="6.03049">
        <ele>2016.5999755859</ele>
        <time>2021-01-02T09:58:08.000Z</time>
      </trkpt>
      <trkpt lat="45.22964" lon="6.03049">
        <ele>2016.5999755859</ele>
        <time>2021-01-02T09:58:10.000Z</time>
      </trkpt>
      <trkpt lat="45.22965" lon="6.03047">
        <ele>2016.5999755859</ele>
        <time>2021-01-02T09:58:13.000Z</time>
      </trkpt>
      <trkpt lat="45.22967" lon="6.03046">
        <ele>2017</ele>
        <time>2021-01-02T09:58:17.000Z</time>
      </trkpt>
      <trkpt lat="45.22968" lon="6.03046">
        <ele>2017.1999511719</ele>
        <time>2021-01-02T09:58:18.000Z</time>
      </trkpt>
      <trkpt lat="45.22969" lon="6.03046">
        <ele>2017.4000244141</ele>
        <time>2021-01-02T09:58:19.000Z</time>
      </trkpt>
      <trkpt lat="45.22972" lon="6.03045">
        <ele>2018.1999511719</ele>
        <time>2021-01-02T09:58:24.000Z</time>
      </trkpt>
      <trkpt lat="45.22972" lon="6.03044">
        <ele>2018.4000244141</ele>
        <time>2021-01-02T09:58:25.000Z</time>
      </trkpt>
      <trkpt lat="45.22976" lon="6.03043">
        <ele>2019</ele>
        <time>2021-01-02T09:58:31.000Z</time>
      </trkpt>
      <trkpt lat="45.22977" lon="6.03041">
        <ele>2019.4000244141</ele>
        <time>2021-01-02T09:58:34.000Z</time>
      </trkpt>
      <trkpt lat="45.22979" lon="6.0304">
        <ele>2020</ele>
        <time>2021-01-02T09:58:38.000Z</time>
      </trkpt>
      <trkpt lat="45.2298" lon="6.03039">
        <ele>2020.4000244141</ele>
        <time>2021-01-02T09:58:41.000Z</time>
      </trkpt>
      <trkpt lat="45.22982" lon="6.03038">
        <ele>2020.8000488281</ele>
        <time>2021-01-02T09:58:44.000Z</time>
      </trkpt>
      <trkpt lat="45.22983" lon="6.03037">
        <ele>2021.4000244141</ele>
        <time>2021-01-02T09:58:48.000Z</time>
      </trkpt>
      <trkpt lat="45.22985" lon="6.03036">
        <ele>2021.5999755859</ele>
        <time>2021-01-02T09:58:50.000Z</time>
      </trkpt>
      <trkpt lat="45.22987" lon="6.03035">
        <ele>2022.1999511719</ele>
        <time>2021-01-02T09:58:56.000Z</time>
      </trkpt>
      <trkpt lat="45.22988" lon="6.03035">
        <ele>2022.5999755859</ele>
        <time>2021-01-02T09:58:58.000Z</time>
      </trkpt>
      <trkpt lat="45.2299" lon="6.03034">
        <ele>2023</ele>
        <time>2021-01-02T09:59:02.000Z</time>
      </trkpt>
      <trkpt lat="45.22992" lon="6.03033">
        <ele>2023.5999755859</ele>
        <time>2021-01-02T09:59:07.000Z</time>
      </trkpt>
      <trkpt lat="45.22993" lon="6.03032">
        <ele>2023.8000488281</ele>
        <time>2021-01-02T09:59:08.000Z</time>
      </trkpt>
      <trkpt lat="45.22994" lon="6.03031">
        <ele>2024.8000488281</ele>
        <time>2021-01-02T09:59:13.000Z</time>
      </trkpt>
      <trkpt lat="45.22994" lon="6.03031">
        <ele>2024.8000488281</ele>
        <time>2021-01-02T09:59:14.000Z</time>
      </trkpt>
      <trkpt lat="45.22996" lon="6.0303">
        <ele>2025</ele>
        <time>2021-01-02T09:59:22.000Z</time>
      </trkpt>
      <trkpt lat="45.22997" lon="6.03029">
        <ele>2025.1999511719</ele>
        <time>2021-01-02T09:59:23.000Z</time>
      </trkpt>
      <trkpt lat="45.23" lon="6.03029">
        <ele>2025.5999755859</ele>
        <time>2021-01-02T09:59:27.000Z</time>
      </trkpt>
      <trkpt lat="45.23" lon="6.03029">
        <ele>2025.8000488281</ele>
        <time>2021-01-02T09:59:28.000Z</time>
      </trkpt>
      <trkpt lat="45.23003" lon="6.03027">
        <ele>2026.5999755859</ele>
        <time>2021-01-02T09:59:33.000Z</time>
      </trkpt>
      <trkpt lat="45.23003" lon="6.03027">
        <ele>2026.8000488281</ele>
        <time>2021-01-02T09:59:34.000Z</time>
      </trkpt>
      <trkpt lat="45.23006" lon="6.03025">
        <ele>2027.4000244141</ele>
        <time>2021-01-02T09:59:39.000Z</time>
      </trkpt>
      <trkpt lat="45.23006" lon="6.03025">
        <ele>2028</ele>
        <time>2021-01-02T09:59:42.000Z</time>
      </trkpt>
      <trkpt lat="45.23008" lon="6.03024">
        <ele>2028.5999755859</ele>
        <time>2021-01-02T09:59:45.000Z</time>
      </trkpt>
      <trkpt lat="45.23009" lon="6.03023">
        <ele>2028.8000488281</ele>
        <time>2021-01-02T09:59:47.000Z</time>
      </trkpt>
      <trkpt lat="45.2301" lon="6.03023">
        <ele>2029</ele>
        <time>2021-01-02T09:59:49.000Z</time>
      </trkpt>
      <trkpt lat="45.2301" lon="6.03023">
        <ele>2029.1999511719</ele>
        <time>2021-01-02T09:59:50.000Z</time>
      </trkpt>
      <trkpt lat="45.23013" lon="6.03021">
        <ele>2029.5999755859</ele>
        <time>2021-01-02T09:59:56.000Z</time>
      </trkpt>
      <trkpt lat="45.23015" lon="6.0302">
        <ele>2030.1999511719</ele>
        <time>2021-01-02T10:00:01.000Z</time>
      </trkpt>
      <trkpt lat="45.23016" lon="6.03019">
        <ele>2030.1999511719</ele>
        <time>2021-01-02T10:00:02.000Z</time>
      </trkpt>
      <trkpt lat="45.23019" lon="6.03018">
        <ele>2031.1999511719</ele>
        <time>2021-01-02T10:00:08.000Z</time>
      </trkpt>
      <trkpt lat="45.23022" lon="6.03016">
        <ele>2031.8000488281</ele>
        <time>2021-01-02T10:00:14.000Z</time>
      </trkpt>
      <trkpt lat="45.23024" lon="6.03014">
        <ele>2032.1999511719</ele>
        <time>2021-01-02T10:00:18.000Z</time>
      </trkpt>
      <trkpt lat="45.23025" lon="6.03013">
        <ele>2032.4000244141</ele>
        <time>2021-01-02T10:00:19.000Z</time>
      </trkpt>
      <trkpt lat="45.23026" lon="6.03013">
        <ele>2032.4000244141</ele>
        <time>2021-01-02T10:00:20.000Z</time>
      </trkpt>
      <trkpt lat="45.23029" lon="6.03011">
        <ele>2032.8000488281</ele>
        <time>2021-01-02T10:00:27.000Z</time>
      </trkpt>
      <trkpt lat="45.23031" lon="6.0301">
        <ele>2033.1999511719</ele>
        <time>2021-01-02T10:00:31.000Z</time>
      </trkpt>
      <trkpt lat="45.23033" lon="6.0301">
        <ele>2033.1999511719</ele>
        <time>2021-01-02T10:00:33.000Z</time>
      </trkpt>
      <trkpt lat="45.23036" lon="6.03008">
        <ele>2033.8000488281</ele>
        <time>2021-01-02T10:00:38.000Z</time>
      </trkpt>
      <trkpt lat="45.23038" lon="6.03007">
        <ele>2034.1999511719</ele>
        <time>2021-01-02T10:00:40.000Z</time>
      </trkpt>
      <trkpt lat="45.23039" lon="6.03007">
        <ele>2034.1999511719</ele>
        <time>2021-01-02T10:00:41.000Z</time>
      </trkpt>
      <trkpt lat="45.2304" lon="6.03007">
        <ele>2034.4000244141</ele>
        <time>2021-01-02T10:00:42.000Z</time>
      </trkpt>
      <trkpt lat="45.23042" lon="6.03005">
        <ele>2034.8000488281</ele>
        <time>2021-01-02T10:00:46.000Z</time>
      </trkpt>
      <trkpt lat="45.23042" lon="6.03004">
        <ele>2035.1999511719</ele>
        <time>2021-01-02T10:00:48.000Z</time>
      </trkpt>
      <trkpt lat="45.23046" lon="6.03004">
        <ele>2036.5999755859</ele>
        <time>2021-01-02T10:00:53.000Z</time>
      </trkpt>
      <trkpt lat="45.23049" lon="6.03003">
        <ele>2037</ele>
        <time>2021-01-02T10:00:59.000Z</time>
      </trkpt>
      <trkpt lat="45.23053" lon="6.03002">
        <ele>2037.5999755859</ele>
        <time>2021-01-02T10:01:05.000Z</time>
      </trkpt>
      <trkpt lat="45.23053" lon="6.03002">
        <ele>2037.8000488281</ele>
        <time>2021-01-02T10:01:06.000Z</time>
      </trkpt>
      <trkpt lat="45.23056" lon="6.03002">
        <ele>2038.5999755859</ele>
        <time>2021-01-02T10:01:12.000Z</time>
      </trkpt>
      <trkpt lat="45.23058" lon="6.03001">
        <ele>2039</ele>
        <time>2021-01-02T10:01:14.000Z</time>
      </trkpt>
      <trkpt lat="45.23061" lon="6.03001">
        <ele>2039.4000244141</ele>
        <time>2021-01-02T10:01:18.000Z</time>
      </trkpt>
      <trkpt lat="45.23063" lon="6.03001">
        <ele>2039.5999755859</ele>
        <time>2021-01-02T10:01:23.000Z</time>
      </trkpt>
      <trkpt lat="45.23064" lon="6.03001">
        <ele>2039.8000488281</ele>
        <time>2021-01-02T10:01:25.000Z</time>
      </trkpt>
      <trkpt lat="45.23068" lon="6.03">
        <ele>2040.8000488281</ele>
        <time>2021-01-02T10:01:32.000Z</time>
      </trkpt>
      <trkpt lat="45.23068" lon="6.03">
        <ele>2041</ele>
        <time>2021-01-02T10:01:33.000Z</time>
      </trkpt>
      <trkpt lat="45.23069" lon="6.03">
        <ele>2041.1999511719</ele>
        <time>2021-01-02T10:01:35.000Z</time>
      </trkpt>
      <trkpt lat="45.23072" lon="6.03">
        <ele>2041.5999755859</ele>
        <time>2021-01-02T10:01:39.000Z</time>
      </trkpt>
      <trkpt lat="45.23073" lon="6.03">
        <ele>2041.8000488281</ele>
        <time>2021-01-02T10:01:42.000Z</time>
      </trkpt>
      <trkpt lat="45.23076" lon="6.03001">
        <ele>2042.4000244141</ele>
        <time>2021-01-02T10:01:46.000Z</time>
      </trkpt>
      <trkpt lat="45.2308" lon="6.03002">
        <ele>2042.8000488281</ele>
        <time>2021-01-02T10:01:52.000Z</time>
      </trkpt>
      <trkpt lat="45.23081" lon="6.03002">
        <ele>2042.8000488281</ele>
        <time>2021-01-02T10:01:53.000Z</time>
      </trkpt>
      <trkpt lat="45.23084" lon="6.03002">
        <ele>2043.4000244141</ele>
        <time>2021-01-02T10:01:58.000Z</time>
      </trkpt>
      <trkpt lat="45.23085" lon="6.03002">
        <ele>2043.8000488281</ele>
        <time>2021-01-02T10:02:00.000Z</time>
      </trkpt>
      <trkpt lat="45.23087" lon="6.03003">
        <ele>2044.1999511719</ele>
        <time>2021-01-02T10:02:05.000Z</time>
      </trkpt>
      <trkpt lat="45.23091" lon="6.03005">
        <ele>2045</ele>
        <time>2021-01-02T10:02:11.000Z</time>
      </trkpt>
      <trkpt lat="45.23094" lon="6.03006">
        <ele>2045.5999755859</ele>
        <time>2021-01-02T10:02:15.000Z</time>
      </trkpt>
      <trkpt lat="45.23096" lon="6.03008">
        <ele>2045.8000488281</ele>
        <time>2021-01-02T10:02:18.000Z</time>
      </trkpt>
      <trkpt lat="45.23097" lon="6.03009">
        <ele>2046</ele>
        <time>2021-01-02T10:02:20.000Z</time>
      </trkpt>
      <trkpt lat="45.23098" lon="6.03009">
        <ele>2046</ele>
        <time>2021-01-02T10:02:21.000Z</time>
      </trkpt>
      <trkpt lat="45.23104" lon="6.03012">
        <ele>2047</ele>
        <time>2021-01-02T10:02:32.000Z</time>
      </trkpt>
      <trkpt lat="45.23104" lon="6.03013">
        <ele>2047</ele>
        <time>2021-01-02T10:02:33.000Z</time>
      </trkpt>
      <trkpt lat="45.23106" lon="6.03015">
        <ele>2047.4000244141</ele>
        <time>2021-01-02T10:02:39.000Z</time>
      </trkpt>
      <trkpt lat="45.23109" lon="6.03018">
        <ele>2048</ele>
        <time>2021-01-02T10:02:45.000Z</time>
      </trkpt>
      <trkpt lat="45.23112" lon="6.03019">
        <ele>2049.1999511719</ele>
        <time>2021-01-02T10:02:52.000Z</time>
      </trkpt>
      <trkpt lat="45.23112" lon="6.0302">
        <ele>2049.1999511719</ele>
        <time>2021-01-02T10:03:03.000Z</time>
      </trkpt>
      <trkpt lat="45.23113" lon="6.03021">
        <ele>2049.3999023438</ele>
        <time>2021-01-02T10:03:09.000Z</time>
      </trkpt>
      <trkpt lat="45.23116" lon="6.03025">
        <ele>2050.1999511719</ele>
        <time>2021-01-02T10:03:15.000Z</time>
      </trkpt>
      <trkpt lat="45.23117" lon="6.03027">
        <ele>2050.8000488281</ele>
        <time>2021-01-02T10:03:18.000Z</time>
      </trkpt>
      <trkpt lat="45.23119" lon="6.03028">
        <ele>2051.1999511719</ele>
        <time>2021-01-02T10:03:21.000Z</time>
      </trkpt>
      <trkpt lat="45.23121" lon="6.03031">
        <ele>2051.1999511719</ele>
        <time>2021-01-02T10:03:24.000Z</time>
      </trkpt>
      <trkpt lat="45.23124" lon="6.03035">
        <ele>2051.1999511719</ele>
        <time>2021-01-02T10:03:32.000Z</time>
      </trkpt>
      <trkpt lat="45.23127" lon="6.03038">
        <ele>2051.8000488281</ele>
        <time>2021-01-02T10:03:39.000Z</time>
      </trkpt>
      <trkpt lat="45.23131" lon="6.0304">
        <ele>2051.8000488281</ele>
        <time>2021-01-02T10:03:45.000Z</time>
      </trkpt>
      <trkpt lat="45.23134" lon="6.03042">
        <ele>2052.3999023438</ele>
        <time>2021-01-02T10:03:53.000Z</time>
      </trkpt>
      <trkpt lat="45.23139" lon="6.03045">
        <ele>2053</ele>
        <time>2021-01-02T10:03:59.000Z</time>
      </trkpt>
      <trkpt lat="45.2314" lon="6.03046">
        <ele>2053.3999023438</ele>
        <time>2021-01-02T10:04:03.000Z</time>
      </trkpt>
      <trkpt lat="45.23143" lon="6.03047">
        <ele>2054.1999511719</ele>
        <time>2021-01-02T10:04:07.000Z</time>
      </trkpt>
      <trkpt lat="45.23144" lon="6.03048">
        <ele>2054.3999023438</ele>
        <time>2021-01-02T10:04:09.000Z</time>
      </trkpt>
      <trkpt lat="45.23146" lon="6.0305">
        <ele>2055.1999511719</ele>
        <time>2021-01-02T10:04:14.000Z</time>
      </trkpt>
      <trkpt lat="45.23147" lon="6.03051">
        <ele>2055.6000976562</ele>
        <time>2021-01-02T10:04:17.000Z</time>
      </trkpt>
      <trkpt lat="45.23148" lon="6.03052">
        <ele>2056</ele>
        <time>2021-01-02T10:04:21.000Z</time>
      </trkpt>
      <trkpt lat="45.2315" lon="6.03054">
        <ele>2056.6000976562</ele>
        <time>2021-01-02T10:04:25.000Z</time>
      </trkpt>
      <trkpt lat="45.2315" lon="6.03055">
        <ele>2056.8000488281</ele>
        <time>2021-01-02T10:04:27.000Z</time>
      </trkpt>
      <trkpt lat="45.23154" lon="6.03056">
        <ele>2057.3999023438</ele>
        <time>2021-01-02T10:04:33.000Z</time>
      </trkpt>
      <trkpt lat="45.23154" lon="6.03057">
        <ele>2057.6000976562</ele>
        <time>2021-01-02T10:04:34.000Z</time>
      </trkpt>
      <trkpt lat="45.23158" lon="6.03058">
        <ele>2058.1999511719</ele>
        <time>2021-01-02T10:04:41.000Z</time>
      </trkpt>
      <trkpt lat="45.2316" lon="6.0306">
        <ele>2058.6000976562</ele>
        <time>2021-01-02T10:04:46.000Z</time>
      </trkpt>
      <trkpt lat="45.2316" lon="6.0306">
        <ele>2058.8000488281</ele>
        <time>2021-01-02T10:04:47.000Z</time>
      </trkpt>
      <trkpt lat="45.23164" lon="6.03062">
        <ele>2059.3999023438</ele>
        <time>2021-01-02T10:04:53.000Z</time>
      </trkpt>
      <trkpt lat="45.23164" lon="6.03063">
        <ele>2059.6000976562</ele>
        <time>2021-01-02T10:04:56.000Z</time>
      </trkpt>
      <trkpt lat="45.23166" lon="6.03063">
        <ele>2060</ele>
        <time>2021-01-02T10:05:00.000Z</time>
      </trkpt>
      <trkpt lat="45.23167" lon="6.03064">
        <ele>2060.6000976562</ele>
        <time>2021-01-02T10:05:05.000Z</time>
      </trkpt>
      <trkpt lat="45.23167" lon="6.03064">
        <ele>2060.8000488281</ele>
        <time>2021-01-02T10:05:07.000Z</time>
      </trkpt>
      <trkpt lat="45.23168" lon="6.03065">
        <ele>2061.8000488281</ele>
        <time>2021-01-02T10:05:14.000Z</time>
      </trkpt>
      <trkpt lat="45.23168" lon="6.03065">
        <ele>2061.8000488281</ele>
        <time>2021-01-02T10:05:15.000Z</time>
      </trkpt>
      <trkpt lat="45.23171" lon="6.03067">
        <ele>2061.8000488281</ele>
        <time>2021-01-02T10:05:20.000Z</time>
      </trkpt>
      <trkpt lat="45.23171" lon="6.03067">
        <ele>2062</ele>
        <time>2021-01-02T10:05:23.000Z</time>
      </trkpt>
      <trkpt lat="45.23172" lon="6.03068">
        <ele>2062.3999023438</ele>
        <time>2021-01-02T10:05:26.000Z</time>
      </trkpt>
      <trkpt lat="45.23174" lon="6.0307">
        <ele>2062.8000488281</ele>
        <time>2021-01-02T10:05:29.000Z</time>
      </trkpt>
      <trkpt lat="45.23175" lon="6.0307">
        <ele>2062.8000488281</ele>
        <time>2021-01-02T10:05:30.000Z</time>
      </trkpt>
      <trkpt lat="45.23176" lon="6.0307">
        <ele>2063</ele>
        <time>2021-01-02T10:05:32.000Z</time>
      </trkpt>
      <trkpt lat="45.23179" lon="6.03071">
        <ele>2063.8000488281</ele>
        <time>2021-01-02T10:05:37.000Z</time>
      </trkpt>
      <trkpt lat="45.23182" lon="6.03072">
        <ele>2064.8000488281</ele>
        <time>2021-01-02T10:05:43.000Z</time>
      </trkpt>
      <trkpt lat="45.23183" lon="6.03072">
        <ele>2065</ele>
        <time>2021-01-02T10:05:45.000Z</time>
      </trkpt>
      <trkpt lat="45.23185" lon="6.03073">
        <ele>2065.1999511719</ele>
        <time>2021-01-02T10:05:49.000Z</time>
      </trkpt>
      <trkpt lat="45.23187" lon="6.03074">
        <ele>2066</ele>
        <time>2021-01-02T10:05:54.000Z</time>
      </trkpt>
      <trkpt lat="45.23191" lon="6.03074">
        <ele>2066.3999023438</ele>
        <time>2021-01-02T10:06:00.000Z</time>
      </trkpt>
      <trkpt lat="45.23191" lon="6.03076">
        <ele>2067</ele>
        <time>2021-01-02T10:06:04.000Z</time>
      </trkpt>
      <trkpt lat="45.23192" lon="6.03076">
        <ele>2067.1999511719</ele>
        <time>2021-01-02T10:06:06.000Z</time>
      </trkpt>
      <trkpt lat="45.23194" lon="6.03076">
        <ele>2067.6000976562</ele>
        <time>2021-01-02T10:06:11.000Z</time>
      </trkpt>
      <trkpt lat="45.23194" lon="6.03076">
        <ele>2068.1999511719</ele>
        <time>2021-01-02T10:06:16.000Z</time>
      </trkpt>
      <trkpt lat="45.23194" lon="6.03076">
        <ele>2068.1999511719</ele>
        <time>2021-01-02T10:06:18.000Z</time>
      </trkpt>
      <trkpt lat="45.23194" lon="6.03076">
        <ele>2068.3999023438</ele>
        <time>2021-01-02T10:06:24.000Z</time>
      </trkpt>
      <trkpt lat="45.23194" lon="6.03078">
        <ele>2068.6000976562</ele>
        <time>2021-01-02T10:06:33.000Z</time>
      </trkpt>
      <trkpt lat="45.23191" lon="6.03081">
        <ele>2069</ele>
        <time>2021-01-02T10:06:39.000Z</time>
      </trkpt>
      <trkpt lat="45.23191" lon="6.03081">
        <ele>2069.1999511719</ele>
        <time>2021-01-02T10:06:41.000Z</time>
      </trkpt>
      <trkpt lat="45.2319" lon="6.03083">
        <ele>2069.6000976562</ele>
        <time>2021-01-02T10:06:45.000Z</time>
      </trkpt>
      <trkpt lat="45.23189" lon="6.03084">
        <ele>2070.1999511719</ele>
        <time>2021-01-02T10:06:50.000Z</time>
      </trkpt>
      <trkpt lat="45.23189" lon="6.03084">
        <ele>2070.3999023438</ele>
        <time>2021-01-02T10:06:52.000Z</time>
      </trkpt>
      <trkpt lat="45.23187" lon="6.03086">
        <ele>2071</ele>
        <time>2021-01-02T10:06:58.000Z</time>
      </trkpt>
      <trkpt lat="45.23186" lon="6.03087">
        <ele>2071.3999023438</ele>
        <time>2021-01-02T10:07:01.000Z</time>
      </trkpt>
      <trkpt lat="45.23185" lon="6.03087">
        <ele>2071.6000976562</ele>
        <time>2021-01-02T10:07:03.000Z</time>
      </trkpt>
      <trkpt lat="45.23184" lon="6.03087">
        <ele>2072.3999023438</ele>
        <time>2021-01-02T10:07:08.000Z</time>
      </trkpt>
      <trkpt lat="45.23184" lon="6.03088">
        <ele>2072.6000976562</ele>
        <time>2021-01-02T10:07:10.000Z</time>
      </trkpt>
      <trkpt lat="45.23184" lon="6.03088">
        <ele>2072.6000976562</ele>
        <time>2021-01-02T10:07:21.000Z</time>
      </trkpt>
      <trkpt lat="45.23184" lon="6.03088">
        <ele>2073.1999511719</ele>
        <time>2021-01-02T10:07:30.000Z</time>
      </trkpt>
      <trkpt lat="45.23184" lon="6.03088">
        <ele>2073.1999511719</ele>
        <time>2021-01-02T10:07:37.000Z</time>
      </trkpt>
      <trkpt lat="45.23184" lon="6.03088">
        <ele>2073</ele>
        <time>2021-01-02T10:07:48.000Z</time>
      </trkpt>
      <trkpt lat="45.23184" lon="6.03088">
        <ele>2073.3999023438</ele>
        <time>2021-01-02T10:07:53.000Z</time>
      </trkpt>
      <trkpt lat="45.23184" lon="6.03088">
        <ele>2073.3999023438</ele>
        <time>2021-01-02T10:07:54.000Z</time>
      </trkpt>
      <trkpt lat="45.23185" lon="6.03087">
        <ele>2073.8000488281</ele>
        <time>2021-01-02T10:08:07.000Z</time>
      </trkpt>
      <trkpt lat="45.23186" lon="6.0309">
        <ele>2074.1999511719</ele>
        <time>2021-01-02T10:08:15.000Z</time>
      </trkpt>
      <trkpt lat="45.23187" lon="6.03091">
        <ele>2074.6000976562</ele>
        <time>2021-01-02T10:08:17.000Z</time>
      </trkpt>
      <trkpt lat="45.23189" lon="6.03092">
        <ele>2074.8000488281</ele>
        <time>2021-01-02T10:08:20.000Z</time>
      </trkpt>
      <trkpt lat="45.23191" lon="6.03093">
        <ele>2075.6000976562</ele>
        <time>2021-01-02T10:08:26.000Z</time>
      </trkpt>
      <trkpt lat="45.23192" lon="6.03094">
        <ele>2075.8000488281</ele>
        <time>2021-01-02T10:08:28.000Z</time>
      </trkpt>
      <trkpt lat="45.23196" lon="6.03095">
        <ele>2076.6000976562</ele>
        <time>2021-01-02T10:08:34.000Z</time>
      </trkpt>
      <trkpt lat="45.232" lon="6.03095">
        <ele>2077.3999023438</ele>
        <time>2021-01-02T10:08:41.000Z</time>
      </trkpt>
      <trkpt lat="45.23201" lon="6.03095">
        <ele>2077.6000976562</ele>
        <time>2021-01-02T10:08:43.000Z</time>
      </trkpt>
      <trkpt lat="45.23202" lon="6.03096">
        <ele>2078.1999511719</ele>
        <time>2021-01-02T10:08:47.000Z</time>
      </trkpt>
      <trkpt lat="45.23203" lon="6.03096">
        <ele>2078.6000976562</ele>
        <time>2021-01-02T10:08:49.000Z</time>
      </trkpt>
      <trkpt lat="45.23204" lon="6.03096">
        <ele>2079.1999511719</ele>
        <time>2021-01-02T10:08:53.000Z</time>
      </trkpt>
      <trkpt lat="45.23206" lon="6.03097">
        <ele>2079.8000488281</ele>
        <time>2021-01-02T10:08:56.000Z</time>
      </trkpt>
      <trkpt lat="45.23209" lon="6.03097">
        <ele>2080.1999511719</ele>
        <time>2021-01-02T10:09:00.000Z</time>
      </trkpt>
      <trkpt lat="45.23212" lon="6.03098">
        <ele>2080.6000976562</ele>
        <time>2021-01-02T10:09:05.000Z</time>
      </trkpt>
      <trkpt lat="45.23212" lon="6.03098">
        <ele>2080.8000488281</ele>
        <time>2021-01-02T10:09:06.000Z</time>
      </trkpt>
      <trkpt lat="45.23214" lon="6.031">
        <ele>2081.3999023438</ele>
        <time>2021-01-02T10:09:12.000Z</time>
      </trkpt>
      <trkpt lat="45.23215" lon="6.031">
        <ele>2081.8000488281</ele>
        <time>2021-01-02T10:09:14.000Z</time>
      </trkpt>
      <trkpt lat="45.23216" lon="6.031">
        <ele>2082.3999023438</ele>
        <time>2021-01-02T10:09:18.000Z</time>
      </trkpt>
      <trkpt lat="45.23218" lon="6.031">
        <ele>2083</ele>
        <time>2021-01-02T10:09:21.000Z</time>
      </trkpt>
      <trkpt lat="45.23219" lon="6.03101">
        <ele>2083.3999023438</ele>
        <time>2021-01-02T10:09:24.000Z</time>
      </trkpt>
      <trkpt lat="45.23221" lon="6.03102">
        <ele>2084</ele>
        <time>2021-01-02T10:09:28.000Z</time>
      </trkpt>
      <trkpt lat="45.23221" lon="6.03102">
        <ele>2084.1999511719</ele>
        <time>2021-01-02T10:09:30.000Z</time>
      </trkpt>
      <trkpt lat="45.23224" lon="6.03103">
        <ele>2084.6000976562</ele>
        <time>2021-01-02T10:09:36.000Z</time>
      </trkpt>
      <trkpt lat="45.23224" lon="6.03103">
        <ele>2085</ele>
        <time>2021-01-02T10:09:38.000Z</time>
      </trkpt>
      <trkpt lat="45.23226" lon="6.03104">
        <ele>2085.3999023438</ele>
        <time>2021-01-02T10:09:43.000Z</time>
      </trkpt>
      <trkpt lat="45.2323" lon="6.03105">
        <ele>2086</ele>
        <time>2021-01-02T10:09:50.000Z</time>
      </trkpt>
      <trkpt lat="45.2323" lon="6.03107">
        <ele>2086.8000488281</ele>
        <time>2021-01-02T10:09:56.000Z</time>
      </trkpt>
      <trkpt lat="45.23229" lon="6.03109">
        <ele>2087.1999511719</ele>
        <time>2021-01-02T10:10:00.000Z</time>
      </trkpt>
      <trkpt lat="45.23228" lon="6.0311">
        <ele>2087.6000976562</ele>
        <time>2021-01-02T10:10:02.000Z</time>
      </trkpt>
      <trkpt lat="45.23226" lon="6.03112">
        <ele>2088.1999511719</ele>
        <time>2021-01-02T10:10:07.000Z</time>
      </trkpt>
      <trkpt lat="45.23224" lon="6.03115">
        <ele>2088.6000976562</ele>
        <time>2021-01-02T10:10:13.000Z</time>
      </trkpt>
      <trkpt lat="45.23222" lon="6.03116">
        <ele>2089.1999511719</ele>
        <time>2021-01-02T10:10:19.000Z</time>
      </trkpt>
      <trkpt lat="45.23222" lon="6.03116">
        <ele>2089.3999023438</ele>
        <time>2021-01-02T10:10:20.000Z</time>
      </trkpt>
      <trkpt lat="45.23222" lon="6.03117">
        <ele>2090.3999023438</ele>
        <time>2021-01-02T10:10:25.000Z</time>
      </trkpt>
      <trkpt lat="45.23222" lon="6.03117">
        <ele>2090.3999023438</ele>
        <time>2021-01-02T10:10:26.000Z</time>
      </trkpt>
      <trkpt lat="45.23227" lon="6.03119">
        <ele>2091.1999511719</ele>
        <time>2021-01-02T10:10:32.000Z</time>
      </trkpt>
      <trkpt lat="45.23228" lon="6.03119">
        <ele>2091.3999023438</ele>
        <time>2021-01-02T10:10:33.000Z</time>
      </trkpt>
      <trkpt lat="45.2323" lon="6.0312">
        <ele>2092.1999511719</ele>
        <time>2021-01-02T10:10:39.000Z</time>
      </trkpt>
      <trkpt lat="45.23231" lon="6.03121">
        <ele>2092.3999023438</ele>
        <time>2021-01-02T10:10:42.000Z</time>
      </trkpt>
      <trkpt lat="45.23232" lon="6.03121">
        <ele>2092.8000488281</ele>
        <time>2021-01-02T10:10:45.000Z</time>
      </trkpt>
      <trkpt lat="45.23234" lon="6.03122">
        <ele>2093.8000488281</ele>
        <time>2021-01-02T10:10:49.000Z</time>
      </trkpt>
      <trkpt lat="45.23235" lon="6.03123">
        <ele>2094.1999511719</ele>
        <time>2021-01-02T10:10:51.000Z</time>
      </trkpt>
      <trkpt lat="45.23238" lon="6.03122">
        <ele>2094.8000488281</ele>
        <time>2021-01-02T10:10:55.000Z</time>
      </trkpt>
      <trkpt lat="45.23239" lon="6.03123">
        <ele>2095.3999023438</ele>
        <time>2021-01-02T10:10:58.000Z</time>
      </trkpt>
      <trkpt lat="45.23241" lon="6.03124">
        <ele>2096</ele>
        <time>2021-01-02T10:11:02.000Z</time>
      </trkpt>
      <trkpt lat="45.23242" lon="6.03124">
        <ele>2096.1999511719</ele>
        <time>2021-01-02T10:11:04.000Z</time>
      </trkpt>
      <trkpt lat="45.23243" lon="6.03125">
        <ele>2097</ele>
        <time>2021-01-02T10:11:08.000Z</time>
      </trkpt>
      <trkpt lat="45.23245" lon="6.03125">
        <ele>2097.3999023438</ele>
        <time>2021-01-02T10:11:10.000Z</time>
      </trkpt>
      <trkpt lat="45.23245" lon="6.03127">
        <ele>2098.1999511719</ele>
        <time>2021-01-02T10:11:13.000Z</time>
      </trkpt>
      <trkpt lat="45.23246" lon="6.03128">
        <ele>2098.6000976562</ele>
        <time>2021-01-02T10:11:16.000Z</time>
      </trkpt>
      <trkpt lat="45.23247" lon="6.0313">
        <ele>2099.1999511719</ele>
        <time>2021-01-02T10:11:20.000Z</time>
      </trkpt>
      <trkpt lat="45.23247" lon="6.0313">
        <ele>2099.8000488281</ele>
        <time>2021-01-02T10:11:23.000Z</time>
      </trkpt>
      <trkpt lat="45.23248" lon="6.03132">
        <ele>2100.1999511719</ele>
        <time>2021-01-02T10:11:30.000Z</time>
      </trkpt>
      <trkpt lat="45.23248" lon="6.03132">
        <ele>2100.3999023438</ele>
        <time>2021-01-02T10:11:31.000Z</time>
      </trkpt>
      <trkpt lat="45.2325" lon="6.03133">
        <ele>2100.8000488281</ele>
        <time>2021-01-02T10:11:33.000Z</time>
      </trkpt>
      <trkpt lat="45.23251" lon="6.03136">
        <ele>2101.1999511719</ele>
        <time>2021-01-02T10:11:36.000Z</time>
      </trkpt>
      <trkpt lat="45.23251" lon="6.03136">
        <ele>2101.3999023438</ele>
        <time>2021-01-02T10:11:37.000Z</time>
      </trkpt>
      <trkpt lat="45.23254" lon="6.03139">
        <ele>2102.3999023438</ele>
        <time>2021-01-02T10:11:43.000Z</time>
      </trkpt>
      <trkpt lat="45.23255" lon="6.03139">
        <ele>2102.6000976562</ele>
        <time>2021-01-02T10:11:44.000Z</time>
      </trkpt>
      <trkpt lat="45.23256" lon="6.03141">
        <ele>2103</ele>
        <time>2021-01-02T10:11:50.000Z</time>
      </trkpt>
      <trkpt lat="45.23259" lon="6.03143">
        <ele>2103.6000976562</ele>
        <time>2021-01-02T10:11:56.000Z</time>
      </trkpt>
      <trkpt lat="45.23262" lon="6.03146">
        <ele>2104.6000976562</ele>
        <time>2021-01-02T10:12:02.000Z</time>
      </trkpt>
      <trkpt lat="45.23262" lon="6.03147">
        <ele>2104.8000488281</ele>
        <time>2021-01-02T10:12:03.000Z</time>
      </trkpt>
      <trkpt lat="45.23263" lon="6.0315">
        <ele>2105.6000976562</ele>
        <time>2021-01-02T10:12:09.000Z</time>
      </trkpt>
      <trkpt lat="45.23264" lon="6.03151">
        <ele>2105.8000488281</ele>
        <time>2021-01-02T10:12:10.000Z</time>
      </trkpt>
      <trkpt lat="45.23264" lon="6.03152">
        <ele>2105.8000488281</ele>
        <time>2021-01-02T10:12:11.000Z</time>
      </trkpt>
      <trkpt lat="45.23265" lon="6.03153">
        <ele>2106.3999023438</ele>
        <time>2021-01-02T10:12:15.000Z</time>
      </trkpt>
      <trkpt lat="45.23267" lon="6.03155">
        <ele>2107</ele>
        <time>2021-01-02T10:12:20.000Z</time>
      </trkpt>
      <trkpt lat="45.23268" lon="6.03156">
        <ele>2107.3999023438</ele>
        <time>2021-01-02T10:12:22.000Z</time>
      </trkpt>
      <trkpt lat="45.23271" lon="6.03159">
        <ele>2108</ele>
        <time>2021-01-02T10:12:30.000Z</time>
      </trkpt>
      <trkpt lat="45.23272" lon="6.0316">
        <ele>2108</ele>
        <time>2021-01-02T10:12:35.000Z</time>
      </trkpt>
      <trkpt lat="45.23274" lon="6.03162">
        <ele>2108</ele>
        <time>2021-01-02T10:12:38.000Z</time>
      </trkpt>
      <trkpt lat="45.23276" lon="6.03163">
        <ele>2108</ele>
        <time>2021-01-02T10:12:41.000Z</time>
      </trkpt>
      <trkpt lat="45.23276" lon="6.03163">
        <ele>2108</ele>
        <time>2021-01-02T10:12:42.000Z</time>
      </trkpt>
      <trkpt lat="45.23277" lon="6.03167">
        <ele>2108.6000976562</ele>
        <time>2021-01-02T10:12:48.000Z</time>
      </trkpt>
      <trkpt lat="45.2328" lon="6.03169">
        <ele>2109</ele>
        <time>2021-01-02T10:12:55.000Z</time>
      </trkpt>
      <trkpt lat="45.23281" lon="6.03171">
        <ele>2109.1999511719</ele>
        <time>2021-01-02T10:12:57.000Z</time>
      </trkpt>
      <trkpt lat="45.23282" lon="6.03173">
        <ele>2109.6000976562</ele>
        <time>2021-01-02T10:13:01.000Z</time>
      </trkpt>
      <trkpt lat="45.23285" lon="6.03175">
        <ele>2110</ele>
        <time>2021-01-02T10:13:07.000Z</time>
      </trkpt>
      <trkpt lat="45.23287" lon="6.03178">
        <ele>2110.1999511719</ele>
        <time>2021-01-02T10:13:11.000Z</time>
      </trkpt>
      <trkpt lat="45.23288" lon="6.03178">
        <ele>2110.6000976562</ele>
        <time>2021-01-02T10:13:14.000Z</time>
      </trkpt>
      <trkpt lat="45.2329" lon="6.0318">
        <ele>2111.3999023438</ele>
        <time>2021-01-02T10:13:19.000Z</time>
      </trkpt>
      <trkpt lat="45.23291" lon="6.0318">
        <ele>2111.3999023438</ele>
        <time>2021-01-02T10:13:20.000Z</time>
      </trkpt>
      <trkpt lat="45.23293" lon="6.03183">
        <ele>2112.1999511719</ele>
        <time>2021-01-02T10:13:26.000Z</time>
      </trkpt>
      <trkpt lat="45.23294" lon="6.03184">
        <ele>2112.3999023438</ele>
        <time>2021-01-02T10:13:29.000Z</time>
      </trkpt>
      <trkpt lat="45.23297" lon="6.03187">
        <ele>2112.8000488281</ele>
        <time>2021-01-02T10:13:34.000Z</time>
      </trkpt>
      <trkpt lat="45.23299" lon="6.03189">
        <ele>2113.3999023438</ele>
        <time>2021-01-02T10:13:39.000Z</time>
      </trkpt>
      <trkpt lat="45.233" lon="6.03189">
        <ele>2114</ele>
        <time>2021-01-02T10:13:42.000Z</time>
      </trkpt>
      <trkpt lat="45.23304" lon="6.03191">
        <ele>2114.6000976562</ele>
        <time>2021-01-02T10:13:49.000Z</time>
      </trkpt>
      <trkpt lat="45.23308" lon="6.03193">
        <ele>2114.8000488281</ele>
        <time>2021-01-02T10:13:55.000Z</time>
      </trkpt>
      <trkpt lat="45.23309" lon="6.03193">
        <ele>2114.8000488281</ele>
        <time>2021-01-02T10:13:56.000Z</time>
      </trkpt>
      <trkpt lat="45.23312" lon="6.03195">
        <ele>2115</ele>
        <time>2021-01-02T10:14:02.000Z</time>
      </trkpt>
      <trkpt lat="45.23316" lon="6.03198">
        <ele>2115.6000976562</ele>
        <time>2021-01-02T10:14:09.000Z</time>
      </trkpt>
      <trkpt lat="45.23317" lon="6.03199">
        <ele>2115.8000488281</ele>
        <time>2021-01-02T10:14:10.000Z</time>
      </trkpt>
      <trkpt lat="45.23319" lon="6.032">
        <ele>2116.6000976562</ele>
        <time>2021-01-02T10:14:15.000Z</time>
      </trkpt>
      <trkpt lat="45.23319" lon="6.032">
        <ele>2116.8000488281</ele>
        <time>2021-01-02T10:14:16.000Z</time>
      </trkpt>
      <trkpt lat="45.23322" lon="6.03202">
        <ele>2117.6000976562</ele>
        <time>2021-01-02T10:14:22.000Z</time>
      </trkpt>
      <trkpt lat="45.23323" lon="6.03202">
        <ele>2117.8000488281</ele>
        <time>2021-01-02T10:14:24.000Z</time>
      </trkpt>
      <trkpt lat="45.23324" lon="6.03203">
        <ele>2118.6000976562</ele>
        <time>2021-01-02T10:14:29.000Z</time>
      </trkpt>
      <trkpt lat="45.23326" lon="6.03204">
        <ele>2119</ele>
        <time>2021-01-02T10:14:31.000Z</time>
      </trkpt>
      <trkpt lat="45.23329" lon="6.03204">
        <ele>2119.3999023438</ele>
        <time>2021-01-02T10:14:35.000Z</time>
      </trkpt>
      <trkpt lat="45.23331" lon="6.03205">
        <ele>2119.8000488281</ele>
        <time>2021-01-02T10:14:38.000Z</time>
      </trkpt>
      <trkpt lat="45.23333" lon="6.03206">
        <ele>2120</ele>
        <time>2021-01-02T10:14:41.000Z</time>
      </trkpt>
      <trkpt lat="45.23335" lon="6.03206">
        <ele>2120.6000976562</ele>
        <time>2021-01-02T10:14:47.000Z</time>
      </trkpt>
      <trkpt lat="45.23336" lon="6.03207">
        <ele>2121.1999511719</ele>
        <time>2021-01-02T10:14:49.000Z</time>
      </trkpt>
      <trkpt lat="45.23338" lon="6.03207">
        <ele>2121.8000488281</ele>
        <time>2021-01-02T10:14:54.000Z</time>
      </trkpt>
      <trkpt lat="45.2334" lon="6.03208">
        <ele>2122.3999023438</ele>
        <time>2021-01-02T10:14:57.000Z</time>
      </trkpt>
      <trkpt lat="45.23342" lon="6.03209">
        <ele>2123</ele>
        <time>2021-01-02T10:15:01.000Z</time>
      </trkpt>
      <trkpt lat="45.23344" lon="6.03209">
        <ele>2123.3999023438</ele>
        <time>2021-01-02T10:15:04.000Z</time>
      </trkpt>
      <trkpt lat="45.23346" lon="6.03209">
        <ele>2124</ele>
        <time>2021-01-02T10:15:08.000Z</time>
      </trkpt>
      <trkpt lat="45.23347" lon="6.0321">
        <ele>2124.3999023438</ele>
        <time>2021-01-02T10:15:10.000Z</time>
      </trkpt>
      <trkpt lat="45.23349" lon="6.03212">
        <ele>2125.1999511719</ele>
        <time>2021-01-02T10:15:14.000Z</time>
      </trkpt>
      <trkpt lat="45.2335" lon="6.03213">
        <ele>2125.3999023438</ele>
        <time>2021-01-02T10:15:15.000Z</time>
      </trkpt>
      <trkpt lat="45.23352" lon="6.03213">
        <ele>2126.1999511719</ele>
        <time>2021-01-02T10:15:20.000Z</time>
      </trkpt>
      <trkpt lat="45.23353" lon="6.03214">
        <ele>2126.6000976562</ele>
        <time>2021-01-02T10:15:22.000Z</time>
      </trkpt>
      <trkpt lat="45.23355" lon="6.03215">
        <ele>2127.3999023438</ele>
        <time>2021-01-02T10:15:26.000Z</time>
      </trkpt>
      <trkpt lat="45.23357" lon="6.03215">
        <ele>2127.6000976562</ele>
        <time>2021-01-02T10:15:28.000Z</time>
      </trkpt>
      <trkpt lat="45.23358" lon="6.03214">
        <ele>2127.8000488281</ele>
        <time>2021-01-02T10:15:29.000Z</time>
      </trkpt>
      <trkpt lat="45.23359" lon="6.03215">
        <ele>2128</ele>
        <time>2021-01-02T10:15:31.000Z</time>
      </trkpt>
      <trkpt lat="45.23363" lon="6.03217">
        <ele>2128.8000488281</ele>
        <time>2021-01-02T10:15:38.000Z</time>
      </trkpt>
      <trkpt lat="45.23364" lon="6.03217">
        <ele>2129</ele>
        <time>2021-01-02T10:15:39.000Z</time>
      </trkpt>
      <trkpt lat="45.23366" lon="6.03218">
        <ele>2129.3999023438</ele>
        <time>2021-01-02T10:15:45.000Z</time>
      </trkpt>
      <trkpt lat="45.23368" lon="6.03219">
        <ele>2130</ele>
        <time>2021-01-02T10:15:51.000Z</time>
      </trkpt>
      <trkpt lat="45.23368" lon="6.03219">
        <ele>2130.6000976562</ele>
        <time>2021-01-02T10:16:04.000Z</time>
      </trkpt>
      <trkpt lat="45.23368" lon="6.03219">
        <ele>2130.6000976562</ele>
        <time>2021-01-02T10:16:16.000Z</time>
      </trkpt>
      <trkpt lat="45.2337" lon="6.03219">
        <ele>2130.3999023438</ele>
        <time>2021-01-02T10:16:24.000Z</time>
      </trkpt>
      <trkpt lat="45.23372" lon="6.03219">
        <ele>2130.8000488281</ele>
        <time>2021-01-02T10:16:29.000Z</time>
      </trkpt>
      <trkpt lat="45.23372" lon="6.03219">
        <ele>2131</ele>
        <time>2021-01-02T10:16:30.000Z</time>
      </trkpt>
      <trkpt lat="45.23372" lon="6.03219">
        <ele>2132</ele>
        <time>2021-01-02T10:16:39.000Z</time>
      </trkpt>
      <trkpt lat="45.23372" lon="6.03219">
        <ele>2132</ele>
        <time>2021-01-02T10:16:43.000Z</time>
      </trkpt>
      <trkpt lat="45.23374" lon="6.03221">
        <ele>2132.1999511719</ele>
        <time>2021-01-02T10:16:49.000Z</time>
      </trkpt>
      <trkpt lat="45.23377" lon="6.03225">
        <ele>2133</ele>
        <time>2021-01-02T10:16:55.000Z</time>
      </trkpt>
      <trkpt lat="45.23379" lon="6.03225">
        <ele>2133.3999023438</ele>
        <time>2021-01-02T10:16:57.000Z</time>
      </trkpt>
      <trkpt lat="45.23382" lon="6.03227">
        <ele>2134.1999511719</ele>
        <time>2021-01-02T10:17:01.000Z</time>
      </trkpt>
      <trkpt lat="45.23385" lon="6.03228">
        <ele>2135</ele>
        <time>2021-01-02T10:17:05.000Z</time>
      </trkpt>
      <trkpt lat="45.23386" lon="6.03228">
        <ele>2135.3999023438</ele>
        <time>2021-01-02T10:17:07.000Z</time>
      </trkpt>
      <trkpt lat="45.23388" lon="6.03229">
        <ele>2136.6000976562</ele>
        <time>2021-01-02T10:17:12.000Z</time>
      </trkpt>
      <trkpt lat="45.2339" lon="6.0323">
        <ele>2137.6000976562</ele>
        <time>2021-01-02T10:17:16.000Z</time>
      </trkpt>
      <trkpt lat="45.23391" lon="6.03231">
        <ele>2138</ele>
        <time>2021-01-02T10:17:19.000Z</time>
      </trkpt>
      <trkpt lat="45.23391" lon="6.03231">
        <ele>2138.8000488281</ele>
        <time>2021-01-02T10:17:23.000Z</time>
      </trkpt>
      <trkpt lat="45.23391" lon="6.03231">
        <ele>2139.1999511719</ele>
        <time>2021-01-02T10:17:30.000Z</time>
      </trkpt>
      <trkpt lat="45.23391" lon="6.03231">
        <ele>2138.3999023438</ele>
        <time>2021-01-02T10:17:42.000Z</time>
      </trkpt>
      <trkpt lat="45.23393" lon="6.03231">
        <ele>2138.3999023438</ele>
        <time>2021-01-02T10:17:44.000Z</time>
      </trkpt>
      <trkpt lat="45.23399" lon="6.03233">
        <ele>2138.8000488281</ele>
        <time>2021-01-02T10:17:52.000Z</time>
      </trkpt>
      <trkpt lat="45.234" lon="6.03233">
        <ele>2140</ele>
        <time>2021-01-02T10:17:59.000Z</time>
      </trkpt>
      <trkpt lat="45.23403" lon="6.03234">
        <ele>2140.8000488281</ele>
        <time>2021-01-02T10:18:04.000Z</time>
      </trkpt>
      <trkpt lat="45.23406" lon="6.03233">
        <ele>2141</ele>
        <time>2021-01-02T10:18:06.000Z</time>
      </trkpt>
      <trkpt lat="45.23407" lon="6.03234">
        <ele>2141</ele>
        <time>2021-01-02T10:18:07.000Z</time>
      </trkpt>
      <trkpt lat="45.23408" lon="6.03235">
        <ele>2141.6000976562</ele>
        <time>2021-01-02T10:18:10.000Z</time>
      </trkpt>
      <trkpt lat="45.23409" lon="6.03237">
        <ele>2142.1999511719</ele>
        <time>2021-01-02T10:18:13.000Z</time>
      </trkpt>
      <trkpt lat="45.23411" lon="6.03237">
        <ele>2142.6000976562</ele>
        <time>2021-01-02T10:18:16.000Z</time>
      </trkpt>
      <trkpt lat="45.23413" lon="6.03237">
        <ele>2143.1999511719</ele>
        <time>2021-01-02T10:18:19.000Z</time>
      </trkpt>
      <trkpt lat="45.23416" lon="6.03237">
        <ele>2144.1999511719</ele>
        <time>2021-01-02T10:18:23.000Z</time>
      </trkpt>
      <trkpt lat="45.23416" lon="6.03237">
        <ele>2144.3999023438</ele>
        <time>2021-01-02T10:18:24.000Z</time>
      </trkpt>
      <trkpt lat="45.23418" lon="6.03238">
        <ele>2145.3999023438</ele>
        <time>2021-01-02T10:18:28.000Z</time>
      </trkpt>
      <trkpt lat="45.2342" lon="6.03238">
        <ele>2146.3999023438</ele>
        <time>2021-01-02T10:18:31.000Z</time>
      </trkpt>
      <trkpt lat="45.23422" lon="6.03238">
        <ele>2147.6000976562</ele>
        <time>2021-01-02T10:18:34.000Z</time>
      </trkpt>
      <trkpt lat="45.23424" lon="6.03239">
        <ele>2148.1999511719</ele>
        <time>2021-01-02T10:18:38.000Z</time>
      </trkpt>
      <trkpt lat="45.23427" lon="6.0324">
        <ele>2148.6000976562</ele>
        <time>2021-01-02T10:18:41.000Z</time>
      </trkpt>
      <trkpt lat="45.23427" lon="6.03242">
        <ele>2149.1999511719</ele>
        <time>2021-01-02T10:18:44.000Z</time>
      </trkpt>
      <trkpt lat="45.23427" lon="6.03242">
        <ele>2149.8000488281</ele>
        <time>2021-01-02T10:18:46.000Z</time>
      </trkpt>
      <trkpt lat="45.23429" lon="6.03244">
        <ele>2151</ele>
        <time>2021-01-02T10:18:51.000Z</time>
      </trkpt>
      <trkpt lat="45.23432" lon="6.03247">
        <ele>2151.8000488281</ele>
        <time>2021-01-02T10:18:58.000Z</time>
      </trkpt>
      <trkpt lat="45.23433" lon="6.03248">
        <ele>2152</ele>
        <time>2021-01-02T10:19:01.000Z</time>
      </trkpt>
      <trkpt lat="45.23437" lon="6.03249">
        <ele>2152.3999023438</ele>
        <time>2021-01-02T10:19:05.000Z</time>
      </trkpt>
      <trkpt lat="45.23438" lon="6.03249">
        <ele>2153.1999511719</ele>
        <time>2021-01-02T10:19:11.000Z</time>
      </trkpt>
      <trkpt lat="45.23438" lon="6.03249">
        <ele>2153.6000976562</ele>
        <time>2021-01-02T10:19:14.000Z</time>
      </trkpt>
      <trkpt lat="45.23439" lon="6.0325">
        <ele>2153.3999023438</ele>
        <time>2021-01-02T10:19:26.000Z</time>
      </trkpt>
      <trkpt lat="45.23441" lon="6.03253">
        <ele>2154.3999023438</ele>
        <time>2021-01-02T10:19:33.000Z</time>
      </trkpt>
      <trkpt lat="45.23441" lon="6.03253">
        <ele>2155.3999023438</ele>
        <time>2021-01-02T10:19:42.000Z</time>
      </trkpt>
      <trkpt lat="45.23442" lon="6.03254">
        <ele>2155</ele>
        <time>2021-01-02T10:19:55.000Z</time>
      </trkpt>
      <trkpt lat="45.23447" lon="6.03259">
        <ele>2155.3999023438</ele>
        <time>2021-01-02T10:20:02.000Z</time>
      </trkpt>
      <trkpt lat="45.2345" lon="6.03263">
        <ele>2156.6000976562</ele>
        <time>2021-01-02T10:20:07.000Z</time>
      </trkpt>
      <trkpt lat="45.23451" lon="6.03264">
        <ele>2156.8000488281</ele>
        <time>2021-01-02T10:20:09.000Z</time>
      </trkpt>
      <trkpt lat="45.23452" lon="6.03265">
        <ele>2157</ele>
        <time>2021-01-02T10:20:10.000Z</time>
      </trkpt>
      <trkpt lat="45.23455" lon="6.03267">
        <ele>2157.6000976562</ele>
        <time>2021-01-02T10:20:15.000Z</time>
      </trkpt>
      <trkpt lat="45.23457" lon="6.03269">
        <ele>2158.6000976562</ele>
        <time>2021-01-02T10:20:20.000Z</time>
      </trkpt>
      <trkpt lat="45.23458" lon="6.03269">
        <ele>2158.8000488281</ele>
        <time>2021-01-02T10:20:21.000Z</time>
      </trkpt>
      <trkpt lat="45.23459" lon="6.03272">
        <ele>2159.3999023438</ele>
        <time>2021-01-02T10:20:24.000Z</time>
      </trkpt>
      <trkpt lat="45.2346" lon="6.03275">
        <ele>2159.8000488281</ele>
        <time>2021-01-02T10:20:26.000Z</time>
      </trkpt>
      <trkpt lat="45.2346" lon="6.03275">
        <ele>2160</ele>
        <time>2021-01-02T10:20:27.000Z</time>
      </trkpt>
      <trkpt lat="45.2346" lon="6.03277">
        <ele>2160.3999023438</ele>
        <time>2021-01-02T10:20:32.000Z</time>
      </trkpt>
      <trkpt lat="45.2346" lon="6.03277">
        <ele>2160.6000976562</ele>
        <time>2021-01-02T10:20:44.000Z</time>
      </trkpt>
      <trkpt lat="45.2346" lon="6.03277">
        <ele>2160.3999023438</ele>
        <time>2021-01-02T10:20:59.000Z</time>
      </trkpt>
      <trkpt lat="45.23463" lon="6.03277">
        <ele>2160.6000976562</ele>
        <time>2021-01-02T10:21:10.000Z</time>
      </trkpt>
      <trkpt lat="45.23465" lon="6.03279">
        <ele>2161.1999511719</ele>
        <time>2021-01-02T10:21:15.000Z</time>
      </trkpt>
      <trkpt lat="45.23465" lon="6.03279">
        <ele>2161.3999023438</ele>
        <time>2021-01-02T10:21:17.000Z</time>
      </trkpt>
      <trkpt lat="45.23466" lon="6.0328">
        <ele>2161.8000488281</ele>
        <time>2021-01-02T10:21:28.000Z</time>
      </trkpt>
      <trkpt lat="45.23466" lon="6.0328">
        <ele>2162</ele>
        <time>2021-01-02T10:21:34.000Z</time>
      </trkpt>
      <trkpt lat="45.23466" lon="6.0328">
        <ele>2161.6000976562</ele>
        <time>2021-01-02T10:21:39.000Z</time>
      </trkpt>
      <trkpt lat="45.23463" lon="6.03281">
        <ele>2161.6000976562</ele>
        <time>2021-01-02T10:21:46.000Z</time>
      </trkpt>
      <trkpt lat="45.23461" lon="6.0328">
        <ele>2162.1999511719</ele>
        <time>2021-01-02T10:21:50.000Z</time>
      </trkpt>
      <trkpt lat="45.2346" lon="6.0328">
        <ele>2162.6000976562</ele>
        <time>2021-01-02T10:21:52.000Z</time>
      </trkpt>
      <trkpt lat="45.23458" lon="6.03281">
        <ele>2163.3999023438</ele>
        <time>2021-01-02T10:21:57.000Z</time>
      </trkpt>
      <trkpt lat="45.23457" lon="6.03281">
        <ele>2163.8000488281</ele>
        <time>2021-01-02T10:21:59.000Z</time>
      </trkpt>
      <trkpt lat="45.23456" lon="6.0328">
        <ele>2164.3999023438</ele>
        <time>2021-01-02T10:22:03.000Z</time>
      </trkpt>
      <trkpt lat="45.23456" lon="6.0328">
        <ele>2165</ele>
        <time>2021-01-02T10:22:06.000Z</time>
      </trkpt>
      <trkpt lat="45.23456" lon="6.0328">
        <ele>2165.3999023438</ele>
        <time>2021-01-02T10:22:16.000Z</time>
      </trkpt>
      <trkpt lat="45.23455" lon="6.0328">
        <ele>2165.3999023438</ele>
        <time>2021-01-02T10:22:28.000Z</time>
      </trkpt>
      <trkpt lat="45.2345" lon="6.03281">
        <ele>2165.3999023438</ele>
        <time>2021-01-02T10:22:31.000Z</time>
      </trkpt>
      <trkpt lat="45.23448" lon="6.03282">
        <ele>2166</ele>
        <time>2021-01-02T10:22:34.000Z</time>
      </trkpt>
      <trkpt lat="45.23446" lon="6.03283">
        <ele>2166.6000976562</ele>
        <time>2021-01-02T10:22:37.000Z</time>
      </trkpt>
      <trkpt lat="45.23445" lon="6.03283">
        <ele>2167</ele>
        <time>2021-01-02T10:22:39.000Z</time>
      </trkpt>
      <trkpt lat="45.23444" lon="6.03283">
        <ele>2167.1999511719</ele>
        <time>2021-01-02T10:22:40.000Z</time>
      </trkpt>
      <trkpt lat="45.23443" lon="6.03284">
        <ele>2167.6000976562</ele>
        <time>2021-01-02T10:22:42.000Z</time>
      </trkpt>
      <trkpt lat="45.23439" lon="6.03286">
        <ele>2168.8000488281</ele>
        <time>2021-01-02T10:22:47.000Z</time>
      </trkpt>
      <trkpt lat="45.23437" lon="6.03287">
        <ele>2170</ele>
        <time>2021-01-02T10:22:51.000Z</time>
      </trkpt>
      <trkpt lat="45.23435" lon="6.03288">
        <ele>2170.8000488281</ele>
        <time>2021-01-02T10:22:54.000Z</time>
      </trkpt>
      <trkpt lat="45.23434" lon="6.03289">
        <ele>2171</ele>
        <time>2021-01-02T10:22:56.000Z</time>
      </trkpt>
      <trkpt lat="45.23431" lon="6.03293">
        <ele>2171.8000488281</ele>
        <time>2021-01-02T10:23:01.000Z</time>
      </trkpt>
      <trkpt lat="45.23428" lon="6.03295">
        <ele>2172.1999511719</ele>
        <time>2021-01-02T10:23:04.000Z</time>
      </trkpt>
      <trkpt lat="45.23428" lon="6.03296">
        <ele>2172.3999023438</ele>
        <time>2021-01-02T10:23:05.000Z</time>
      </trkpt>
      <trkpt lat="45.23426" lon="6.03297">
        <ele>2172.8000488281</ele>
        <time>2021-01-02T10:23:08.000Z</time>
      </trkpt>
      <trkpt lat="45.23425" lon="6.03299">
        <ele>2173.3999023438</ele>
        <time>2021-01-02T10:23:10.000Z</time>
      </trkpt>
      <trkpt lat="45.23422" lon="6.033">
        <ele>2174.1999511719</ele>
        <time>2021-01-02T10:23:15.000Z</time>
      </trkpt>
      <trkpt lat="45.23421" lon="6.03302">
        <ele>2174.3999023438</ele>
        <time>2021-01-02T10:23:17.000Z</time>
      </trkpt>
      <trkpt lat="45.23418" lon="6.03305">
        <ele>2175.6000976562</ele>
        <time>2021-01-02T10:23:23.000Z</time>
      </trkpt>
      <trkpt lat="45.23418" lon="6.03305">
        <ele>2176.6000976562</ele>
        <time>2021-01-02T10:23:29.000Z</time>
      </trkpt>
      <trkpt lat="45.23418" lon="6.03305">
        <ele>2177</ele>
        <time>2021-01-02T10:23:46.000Z</time>
      </trkpt>
      <trkpt lat="45.23417" lon="6.03305">
        <ele>2177</ele>
        <time>2021-01-02T10:23:58.000Z</time>
      </trkpt>
      <trkpt lat="45.23415" lon="6.03308">
        <ele>2177.6000976562</ele>
        <time>2021-01-02T10:24:03.000Z</time>
      </trkpt>
      <trkpt lat="45.23415" lon="6.03308">
        <ele>2177.6000976562</ele>
        <time>2021-01-02T10:24:04.000Z</time>
      </trkpt>
      <trkpt lat="45.23414" lon="6.03308">
        <ele>2178</ele>
        <time>2021-01-02T10:24:08.000Z</time>
      </trkpt>
      <trkpt lat="45.23414" lon="6.03308">
        <ele>2178.3999023438</ele>
        <time>2021-01-02T10:24:16.000Z</time>
      </trkpt>
      <trkpt lat="45.23416" lon="6.03309">
        <ele>2178.6000976562</ele>
        <time>2021-01-02T10:24:23.000Z</time>
      </trkpt>
      <trkpt lat="45.23416" lon="6.03309">
        <ele>2178.8000488281</ele>
        <time>2021-01-02T10:24:24.000Z</time>
      </trkpt>
      <trkpt lat="45.23416" lon="6.0331">
        <ele>2179.6000976562</ele>
        <time>2021-01-02T10:24:29.000Z</time>
      </trkpt>
      <trkpt lat="45.23416" lon="6.0331">
        <ele>2179.8000488281</ele>
        <time>2021-01-02T10:24:30.000Z</time>
      </trkpt>
      <trkpt lat="45.23419" lon="6.03312">
        <ele>2180</ele>
        <time>2021-01-02T10:24:34.000Z</time>
      </trkpt>
      <trkpt lat="45.2342" lon="6.03312">
        <ele>2180.1999511719</ele>
        <time>2021-01-02T10:24:35.000Z</time>
      </trkpt>
      <trkpt lat="45.23421" lon="6.03312">
        <ele>2180.6000976562</ele>
        <time>2021-01-02T10:24:39.000Z</time>
      </trkpt>
      <trkpt lat="45.23421" lon="6.03313">
        <ele>2181</ele>
        <time>2021-01-02T10:24:41.000Z</time>
      </trkpt>
      <trkpt lat="45.23423" lon="6.03315">
        <ele>2181.3999023438</ele>
        <time>2021-01-02T10:24:45.000Z</time>
      </trkpt>
      <trkpt lat="45.23426" lon="6.03315">
        <ele>2182</ele>
        <time>2021-01-02T10:24:48.000Z</time>
      </trkpt>
      <trkpt lat="45.23428" lon="6.03317">
        <ele>2182.8000488281</ele>
        <time>2021-01-02T10:24:51.000Z</time>
      </trkpt>
      <trkpt lat="45.23429" lon="6.03317">
        <ele>2183</ele>
        <time>2021-01-02T10:24:52.000Z</time>
      </trkpt>
      <trkpt lat="45.23431" lon="6.03318">
        <ele>2184.1999511719</ele>
        <time>2021-01-02T10:24:58.000Z</time>
      </trkpt>
      <trkpt lat="45.23432" lon="6.03318">
        <ele>2184.3999023438</ele>
        <time>2021-01-02T10:24:59.000Z</time>
      </trkpt>
      <trkpt lat="45.23435" lon="6.0332">
        <ele>2185.3999023438</ele>
        <time>2021-01-02T10:25:03.000Z</time>
      </trkpt>
      <trkpt lat="45.23437" lon="6.03319">
        <ele>2186</ele>
        <time>2021-01-02T10:25:06.000Z</time>
      </trkpt>
      <trkpt lat="45.23437" lon="6.0332">
        <ele>2186.3999023438</ele>
        <time>2021-01-02T10:25:08.000Z</time>
      </trkpt>
      <trkpt lat="45.23438" lon="6.03321">
        <ele>2187.6000976562</ele>
        <time>2021-01-02T10:25:12.000Z</time>
      </trkpt>
      <trkpt lat="45.23438" lon="6.03321">
        <ele>2187.8000488281</ele>
        <time>2021-01-02T10:25:13.000Z</time>
      </trkpt>
      <trkpt lat="45.23438" lon="6.03322">
        <ele>2188.8000488281</ele>
        <time>2021-01-02T10:25:15.000Z</time>
      </trkpt>
      <trkpt lat="45.23438" lon="6.03322">
        <ele>2189.6000976562</ele>
        <time>2021-01-02T10:25:20.000Z</time>
      </trkpt>
      <trkpt lat="45.23438" lon="6.03323">
        <ele>2189.3999023438</ele>
        <time>2021-01-02T10:25:27.000Z</time>
      </trkpt>
      <trkpt lat="45.23437" lon="6.03325">
        <ele>2189.3999023438</ele>
        <time>2021-01-02T10:25:33.000Z</time>
      </trkpt>
      <trkpt lat="45.23435" lon="6.03326">
        <ele>2189.8000488281</ele>
        <time>2021-01-02T10:25:37.000Z</time>
      </trkpt>
      <trkpt lat="45.23432" lon="6.03329">
        <ele>2190.3999023438</ele>
        <time>2021-01-02T10:25:41.000Z</time>
      </trkpt>
      <trkpt lat="45.2343" lon="6.0333">
        <ele>2190.8000488281</ele>
        <time>2021-01-02T10:25:44.000Z</time>
      </trkpt>
      <trkpt lat="45.23429" lon="6.03331">
        <ele>2191</ele>
        <time>2021-01-02T10:25:48.000Z</time>
      </trkpt>
      <trkpt lat="45.23427" lon="6.03332">
        <ele>2192</ele>
        <time>2021-01-02T10:25:54.000Z</time>
      </trkpt>
      <trkpt lat="45.23427" lon="6.03332">
        <ele>2192</ele>
        <time>2021-01-02T10:25:55.000Z</time>
      </trkpt>
      <trkpt lat="45.23427" lon="6.03332">
        <ele>2192.1999511719</ele>
        <time>2021-01-02T10:26:09.000Z</time>
      </trkpt>
      <trkpt lat="45.23426" lon="6.03333">
        <ele>2192.1999511719</ele>
        <time>2021-01-02T10:26:23.000Z</time>
      </trkpt>
      <trkpt lat="45.23425" lon="6.03334">
        <ele>2192.6000976562</ele>
        <time>2021-01-02T10:26:30.000Z</time>
      </trkpt>
      <trkpt lat="45.23423" lon="6.03335">
        <ele>2193</ele>
        <time>2021-01-02T10:26:35.000Z</time>
      </trkpt>
      <trkpt lat="45.23422" lon="6.03335">
        <ele>2193.1999511719</ele>
        <time>2021-01-02T10:26:36.000Z</time>
      </trkpt>
      <trkpt lat="45.2342" lon="6.03336">
        <ele>2194.1999511719</ele>
        <time>2021-01-02T10:26:41.000Z</time>
      </trkpt>
      <trkpt lat="45.23419" lon="6.03337">
        <ele>2194.3999023438</ele>
        <time>2021-01-02T10:26:42.000Z</time>
      </trkpt>
      <trkpt lat="45.23419" lon="6.03337">
        <ele>2195.1999511719</ele>
        <time>2021-01-02T10:26:47.000Z</time>
      </trkpt>
      <trkpt lat="45.23419" lon="6.03337">
        <ele>2195.1999511719</ele>
        <time>2021-01-02T10:26:50.000Z</time>
      </trkpt>
      <trkpt lat="45.2342" lon="6.03337">
        <ele>2195.3999023438</ele>
        <time>2021-01-02T10:26:57.000Z</time>
      </trkpt>
      <trkpt lat="45.23424" lon="6.03341">
        <ele>2196</ele>
        <time>2021-01-02T10:27:03.000Z</time>
      </trkpt>
      <trkpt lat="45.23425" lon="6.03341">
        <ele>2196.1999511719</ele>
        <time>2021-01-02T10:27:04.000Z</time>
      </trkpt>
      <trkpt lat="45.23425" lon="6.03342">
        <ele>2197</ele>
        <time>2021-01-02T10:27:09.000Z</time>
      </trkpt>
      <trkpt lat="45.23426" lon="6.03342">
        <ele>2197.3999023438</ele>
        <time>2021-01-02T10:27:12.000Z</time>
      </trkpt>
      <trkpt lat="45.23428" lon="6.03343">
        <ele>2197.8000488281</ele>
        <time>2021-01-02T10:27:15.000Z</time>
      </trkpt>
      <trkpt lat="45.23433" lon="6.03344">
        <ele>2198.3999023438</ele>
        <time>2021-01-02T10:27:20.000Z</time>
      </trkpt>
      <trkpt lat="45.23436" lon="6.03347">
        <ele>2199</ele>
        <time>2021-01-02T10:27:28.000Z</time>
      </trkpt>
      <trkpt lat="45.23437" lon="6.03348">
        <ele>2199.3999023438</ele>
        <time>2021-01-02T10:27:30.000Z</time>
      </trkpt>
      <trkpt lat="45.23439" lon="6.03348">
        <ele>2199.8000488281</ele>
        <time>2021-01-02T10:27:32.000Z</time>
      </trkpt>
      <trkpt lat="45.23439" lon="6.03349">
        <ele>2199.8000488281</ele>
        <time>2021-01-02T10:27:33.000Z</time>
      </trkpt>
      <trkpt lat="45.23442" lon="6.03349">
        <ele>2200.3999023438</ele>
        <time>2021-01-02T10:27:37.000Z</time>
      </trkpt>
      <trkpt lat="45.23444" lon="6.0335">
        <ele>2201.3999023438</ele>
        <time>2021-01-02T10:27:41.000Z</time>
      </trkpt>
      <trkpt lat="45.23445" lon="6.0335">
        <ele>2201.6000976562</ele>
        <time>2021-01-02T10:27:42.000Z</time>
      </trkpt>
      <trkpt lat="45.23448" lon="6.03352">
        <ele>2202.1999511719</ele>
        <time>2021-01-02T10:27:46.000Z</time>
      </trkpt>
      <trkpt lat="45.2345" lon="6.03352">
        <ele>2202.6000976562</ele>
        <time>2021-01-02T10:27:50.000Z</time>
      </trkpt>
      <trkpt lat="45.23453" lon="6.03353">
        <ele>2203</ele>
        <time>2021-01-02T10:27:52.000Z</time>
      </trkpt>
      <trkpt lat="45.23455" lon="6.03353">
        <ele>2203.8000488281</ele>
        <time>2021-01-02T10:27:56.000Z</time>
      </trkpt>
      <trkpt lat="45.23454" lon="6.03354">
        <ele>2204.1999511719</ele>
        <time>2021-01-02T10:27:58.000Z</time>
      </trkpt>
      <trkpt lat="45.23454" lon="6.03354">
        <ele>2204.8000488281</ele>
        <time>2021-01-02T10:28:03.000Z</time>
      </trkpt>
      <trkpt lat="45.23454" lon="6.03354">
        <ele>2205</ele>
        <time>2021-01-02T10:28:09.000Z</time>
      </trkpt>
      <trkpt lat="45.23455" lon="6.03354">
        <ele>2204.6000976562</ele>
        <time>2021-01-02T10:28:24.000Z</time>
      </trkpt>
      <trkpt lat="45.23455" lon="6.03355">
        <ele>2204.8000488281</ele>
        <time>2021-01-02T10:28:29.000Z</time>
      </trkpt>
      <trkpt lat="45.23455" lon="6.03355">
        <ele>2205</ele>
        <time>2021-01-02T10:28:33.000Z</time>
      </trkpt>
      <trkpt lat="45.23455" lon="6.03355">
        <ele>2205.1999511719</ele>
        <time>2021-01-02T10:28:35.000Z</time>
      </trkpt>
      <trkpt lat="45.23455" lon="6.03355">
        <ele>2205.3999023438</ele>
        <time>2021-01-02T10:28:49.000Z</time>
      </trkpt>
      <trkpt lat="45.23453" lon="6.03357">
        <ele>2205.8000488281</ele>
        <time>2021-01-02T10:28:55.000Z</time>
      </trkpt>
      <trkpt lat="45.2345" lon="6.03358">
        <ele>2206.3999023438</ele>
        <time>2021-01-02T10:28:59.000Z</time>
      </trkpt>
      <trkpt lat="45.23449" lon="6.03359">
        <ele>2206.6000976562</ele>
        <time>2021-01-02T10:29:01.000Z</time>
      </trkpt>
      <trkpt lat="45.23447" lon="6.03359">
        <ele>2207</ele>
        <time>2021-01-02T10:29:05.000Z</time>
      </trkpt>
      <trkpt lat="45.23447" lon="6.0336">
        <ele>2207.1999511719</ele>
        <time>2021-01-02T10:29:07.000Z</time>
      </trkpt>
      <trkpt lat="45.23443" lon="6.03362">
        <ele>2208</ele>
        <time>2021-01-02T10:29:13.000Z</time>
      </trkpt>
      <trkpt lat="45.23443" lon="6.03362">
        <ele>2209</ele>
        <time>2021-01-02T10:29:21.000Z</time>
      </trkpt>
      <trkpt lat="45.23442" lon="6.03364">
        <ele>2209</ele>
        <time>2021-01-02T10:29:36.000Z</time>
      </trkpt>
      <trkpt lat="45.23441" lon="6.03365">
        <ele>2209</ele>
        <time>2021-01-02T10:29:37.000Z</time>
      </trkpt>
      <trkpt lat="45.23437" lon="6.03366">
        <ele>2209.8000488281</ele>
        <time>2021-01-02T10:29:42.000Z</time>
      </trkpt>
      <trkpt lat="45.23436" lon="6.03366">
        <ele>2210</ele>
        <time>2021-01-02T10:29:43.000Z</time>
      </trkpt>
      <trkpt lat="45.23434" lon="6.03368">
        <ele>2211</ele>
        <time>2021-01-02T10:29:49.000Z</time>
      </trkpt>
      <trkpt lat="45.23434" lon="6.03368">
        <ele>2211.1999511719</ele>
        <time>2021-01-02T10:29:50.000Z</time>
      </trkpt>
      <trkpt lat="45.23434" lon="6.03368">
        <ele>2212</ele>
        <time>2021-01-02T10:29:56.000Z</time>
      </trkpt>
      <trkpt lat="45.23435" lon="6.03368">
        <ele>2212.1999511719</ele>
        <time>2021-01-02T10:30:00.000Z</time>
      </trkpt>
      <trkpt lat="45.23435" lon="6.03368">
        <ele>2212.1999511719</ele>
        <time>2021-01-02T10:30:02.000Z</time>
      </trkpt>
      <trkpt lat="45.23434" lon="6.03368">
        <ele>2212.1999511719</ele>
        <time>2021-01-02T10:30:07.000Z</time>
      </trkpt>
      <trkpt lat="45.23435" lon="6.03368">
        <ele>2211.6000976562</ele>
        <time>2021-01-02T10:30:13.000Z</time>
      </trkpt>
      <trkpt lat="45.23435" lon="6.03368">
        <ele>2211.6000976562</ele>
        <time>2021-01-02T10:30:23.000Z</time>
      </trkpt>
      <trkpt lat="45.23435" lon="6.03368">
        <ele>2211.8000488281</ele>
        <time>2021-01-02T10:30:31.000Z</time>
      </trkpt>
      <trkpt lat="45.23435" lon="6.03368">
        <ele>2211.6000976562</ele>
        <time>2021-01-02T10:30:37.000Z</time>
      </trkpt>
      <trkpt lat="45.23434" lon="6.03368">
        <ele>2211.8000488281</ele>
        <time>2021-01-02T10:30:45.000Z</time>
      </trkpt>
      <trkpt lat="45.23435" lon="6.03369">
        <ele>2212</ele>
        <time>2021-01-02T10:30:50.000Z</time>
      </trkpt>
      <trkpt lat="45.23438" lon="6.03371">
        <ele>2212.6000976562</ele>
        <time>2021-01-02T10:30:57.000Z</time>
      </trkpt>
      <trkpt lat="45.2344" lon="6.03373">
        <ele>2213.3999023438</ele>
        <time>2021-01-02T10:31:02.000Z</time>
      </trkpt>
      <trkpt lat="45.23442" lon="6.03373">
        <ele>2214.1999511719</ele>
        <time>2021-01-02T10:31:05.000Z</time>
      </trkpt>
      <trkpt lat="45.23442" lon="6.03373">
        <ele>2214.3999023438</ele>
        <time>2021-01-02T10:31:06.000Z</time>
      </trkpt>
      <trkpt lat="45.23446" lon="6.03374">
        <ele>2215.3999023438</ele>
        <time>2021-01-02T10:31:13.000Z</time>
      </trkpt>
      <trkpt lat="45.23447" lon="6.03375">
        <ele>2216.1999511719</ele>
        <time>2021-01-02T10:31:18.000Z</time>
      </trkpt>
      <trkpt lat="45.23447" lon="6.03376">
        <ele>2216.3999023438</ele>
        <time>2021-01-02T10:31:27.000Z</time>
      </trkpt>
      <trkpt lat="45.23445" lon="6.03377">
        <ele>2216.8000488281</ele>
        <time>2021-01-02T10:31:32.000Z</time>
      </trkpt>
      <trkpt lat="45.23445" lon="6.03377">
        <ele>2217</ele>
        <time>2021-01-02T10:31:33.000Z</time>
      </trkpt>
      <trkpt lat="45.23442" lon="6.0338">
        <ele>2217.6000976562</ele>
        <time>2021-01-02T10:31:39.000Z</time>
      </trkpt>
      <trkpt lat="45.23441" lon="6.0338">
        <ele>2218</ele>
        <time>2021-01-02T10:31:41.000Z</time>
      </trkpt>
      <trkpt lat="45.23441" lon="6.0338">
        <ele>2218.6000976562</ele>
        <time>2021-01-02T10:31:45.000Z</time>
      </trkpt>
      <trkpt lat="45.23441" lon="6.0338">
        <ele>2218.8000488281</ele>
        <time>2021-01-02T10:31:47.000Z</time>
      </trkpt>
      <trkpt lat="45.23441" lon="6.0338">
        <ele>2218.8000488281</ele>
        <time>2021-01-02T10:31:55.000Z</time>
      </trkpt>
      <trkpt lat="45.23441" lon="6.0338">
        <ele>2218.8000488281</ele>
        <time>2021-01-02T10:32:05.000Z</time>
      </trkpt>
      <trkpt lat="45.23442" lon="6.03382">
        <ele>2219</ele>
        <time>2021-01-02T10:32:10.000Z</time>
      </trkpt>
      <trkpt lat="45.23444" lon="6.03384">
        <ele>2219.6000976562</ele>
        <time>2021-01-02T10:32:15.000Z</time>
      </trkpt>
      <trkpt lat="45.23444" lon="6.03384">
        <ele>2219.8000488281</ele>
        <time>2021-01-02T10:32:16.000Z</time>
      </trkpt>
      <trkpt lat="45.23444" lon="6.03384">
        <ele>2220.6000976562</ele>
        <time>2021-01-02T10:32:20.000Z</time>
      </trkpt>
      <trkpt lat="45.23444" lon="6.03385">
        <ele>2221.1999511719</ele>
        <time>2021-01-02T10:32:24.000Z</time>
      </trkpt>
      <trkpt lat="45.23444" lon="6.03384">
        <ele>2221.8000488281</ele>
        <time>2021-01-02T10:32:31.000Z</time>
      </trkpt>
      <trkpt lat="45.23444" lon="6.03387">
        <ele>2222.6000976562</ele>
        <time>2021-01-02T10:32:39.000Z</time>
      </trkpt>
      <trkpt lat="45.23444" lon="6.03387">
        <ele>2222.8000488281</ele>
        <time>2021-01-02T10:32:41.000Z</time>
      </trkpt>
      <trkpt lat="45.23443" lon="6.03388">
        <ele>2223.6000976562</ele>
        <time>2021-01-02T10:32:46.000Z</time>
      </trkpt>
      <trkpt lat="45.23443" lon="6.03388">
        <ele>2224</ele>
        <time>2021-01-02T10:32:48.000Z</time>
      </trkpt>
      <trkpt lat="45.23443" lon="6.03388">
        <ele>2224.6000976562</ele>
        <time>2021-01-02T10:32:53.000Z</time>
      </trkpt>
      <trkpt lat="45.23443" lon="6.03388">
        <ele>2224.8000488281</ele>
        <time>2021-01-02T10:32:59.000Z</time>
      </trkpt>
      <trkpt lat="45.23443" lon="6.03388">
        <ele>2225</ele>
        <time>2021-01-02T10:33:06.000Z</time>
      </trkpt>
      <trkpt lat="45.23443" lon="6.03388">
        <ele>2225</ele>
        <time>2021-01-02T10:33:13.000Z</time>
      </trkpt>
      <trkpt lat="45.23443" lon="6.03391">
        <ele>2225.1999511719</ele>
        <time>2021-01-02T10:33:18.000Z</time>
      </trkpt>
      <trkpt lat="45.23445" lon="6.03392">
        <ele>2226.1999511719</ele>
        <time>2021-01-02T10:33:24.000Z</time>
      </trkpt>
      <trkpt lat="45.23445" lon="6.03392">
        <ele>2226.3999023438</ele>
        <time>2021-01-02T10:33:25.000Z</time>
      </trkpt>
      <trkpt lat="45.23445" lon="6.03393">
        <ele>2226.8000488281</ele>
        <time>2021-01-02T10:33:30.000Z</time>
      </trkpt>
      <trkpt lat="45.23446" lon="6.03394">
        <ele>2227</ele>
        <time>2021-01-02T10:33:35.000Z</time>
      </trkpt>
      <trkpt lat="45.23446" lon="6.03394">
        <ele>2227.1999511719</ele>
        <time>2021-01-02T10:33:38.000Z</time>
      </trkpt>
      <trkpt lat="45.23447" lon="6.03394">
        <ele>2227.6000976562</ele>
        <time>2021-01-02T10:33:41.000Z</time>
      </trkpt>
      <trkpt lat="45.23447" lon="6.03395">
        <ele>2227.6000976562</ele>
        <time>2021-01-02T10:33:49.000Z</time>
      </trkpt>
      <trkpt lat="45.23447" lon="6.03395">
        <ele>2227.6000976562</ele>
        <time>2021-01-02T10:33:54.000Z</time>
      </trkpt>
      <trkpt lat="45.23446" lon="6.03396">
        <ele>2228.1999511719</ele>
        <time>2021-01-02T10:34:00.000Z</time>
      </trkpt>
      <trkpt lat="45.23446" lon="6.03397">
        <ele>2228.1999511719</ele>
        <time>2021-01-02T10:34:01.000Z</time>
      </trkpt>
      <trkpt lat="45.23445" lon="6.03398">
        <ele>2229.1999511719</ele>
        <time>2021-01-02T10:34:08.000Z</time>
      </trkpt>
      <trkpt lat="45.23444" lon="6.03399">
        <ele>2229.3999023438</ele>
        <time>2021-01-02T10:34:13.000Z</time>
      </trkpt>
      <trkpt lat="45.23444" lon="6.03399">
        <ele>2229.6000976562</ele>
        <time>2021-01-02T10:34:15.000Z</time>
      </trkpt>
      <trkpt lat="45.23444" lon="6.03399">
        <ele>2230.3999023438</ele>
        <time>2021-01-02T10:34:20.000Z</time>
      </trkpt>
      <trkpt lat="45.23444" lon="6.03399">
        <ele>2230.6000976562</ele>
        <time>2021-01-02T10:34:22.000Z</time>
      </trkpt>
      <trkpt lat="45.23444" lon="6.03399">
        <ele>2230.3999023438</ele>
        <time>2021-01-02T10:34:30.000Z</time>
      </trkpt>
      <trkpt lat="45.23445" lon="6.03401">
        <ele>2230.6000976562</ele>
        <time>2021-01-02T10:34:36.000Z</time>
      </trkpt>
      <trkpt lat="45.23447" lon="6.03402">
        <ele>2231.6000976562</ele>
        <time>2021-01-02T10:34:42.000Z</time>
      </trkpt>
      <trkpt lat="45.23447" lon="6.03402">
        <ele>2232.3999023438</ele>
        <time>2021-01-02T10:34:51.000Z</time>
      </trkpt>
      <trkpt lat="45.23447" lon="6.03402">
        <ele>2232.6000976562</ele>
        <time>2021-01-02T10:34:52.000Z</time>
      </trkpt>
      <trkpt lat="45.23447" lon="6.03402">
        <ele>2233</ele>
        <time>2021-01-02T10:35:00.000Z</time>
      </trkpt>
      <trkpt lat="45.23447" lon="6.03402">
        <ele>2233.3999023438</ele>
        <time>2021-01-02T10:35:09.000Z</time>
      </trkpt>
      <trkpt lat="45.23447" lon="6.03402">
        <ele>2233.6000976562</ele>
        <time>2021-01-02T10:35:14.000Z</time>
      </trkpt>
      <trkpt lat="45.23447" lon="6.03403">
        <ele>2233.6000976562</ele>
        <time>2021-01-02T10:35:16.000Z</time>
      </trkpt>
      <trkpt lat="45.23446" lon="6.03403">
        <ele>2233.8000488281</ele>
        <time>2021-01-02T10:35:22.000Z</time>
      </trkpt>
      <trkpt lat="45.23446" lon="6.03403">
        <ele>2233.8000488281</ele>
        <time>2021-01-02T10:35:30.000Z</time>
      </trkpt>
      <trkpt lat="45.23446" lon="6.03405">
        <ele>2234.6000976562</ele>
        <time>2021-01-02T10:35:36.000Z</time>
      </trkpt>
      <trkpt lat="45.23446" lon="6.03405">
        <ele>2234.8000488281</ele>
        <time>2021-01-02T10:35:37.000Z</time>
      </trkpt>
      <trkpt lat="45.23446" lon="6.03406">
        <ele>2235.8000488281</ele>
        <time>2021-01-02T10:35:41.000Z</time>
      </trkpt>
      <trkpt lat="45.23446" lon="6.03407">
        <ele>2236.3999023438</ele>
        <time>2021-01-02T10:35:44.000Z</time>
      </trkpt>
      <trkpt lat="45.23446" lon="6.03408">
        <ele>2236.8000488281</ele>
        <time>2021-01-02T10:35:47.000Z</time>
      </trkpt>
      <trkpt lat="45.23447" lon="6.03409">
        <ele>2237.6000976562</ele>
        <time>2021-01-02T10:35:51.000Z</time>
      </trkpt>
      <trkpt lat="45.23447" lon="6.03409">
        <ele>2238</ele>
        <time>2021-01-02T10:35:53.000Z</time>
      </trkpt>
      <trkpt lat="45.23447" lon="6.0341">
        <ele>2238.3999023438</ele>
        <time>2021-01-02T10:35:57.000Z</time>
      </trkpt>
      <trkpt lat="45.23447" lon="6.0341">
        <ele>2239.1999511719</ele>
        <time>2021-01-02T10:36:01.000Z</time>
      </trkpt>
      <trkpt lat="45.23447" lon="6.03411">
        <ele>2239.8000488281</ele>
        <time>2021-01-02T10:36:04.000Z</time>
      </trkpt>
      <trkpt lat="45.23447" lon="6.03411">
        <ele>2240.1999511719</ele>
        <time>2021-01-02T10:36:08.000Z</time>
      </trkpt>
      <trkpt lat="45.23447" lon="6.03411">
        <ele>2240.8000488281</ele>
        <time>2021-01-02T10:36:12.000Z</time>
      </trkpt>
      <trkpt lat="45.23448" lon="6.03412">
        <ele>2241</ele>
        <time>2021-01-02T10:36:23.000Z</time>
      </trkpt>
      <trkpt lat="45.23448" lon="6.03413">
        <ele>2241.1999511719</ele>
        <time>2021-01-02T10:36:34.000Z</time>
      </trkpt>
      <trkpt lat="45.23448" lon="6.03413">
        <ele>2241.3999023438</ele>
        <time>2021-01-02T10:36:38.000Z</time>
      </trkpt>
      <trkpt lat="45.23449" lon="6.03415">
        <ele>2242</ele>
        <time>2021-01-02T10:36:41.000Z</time>
      </trkpt>
      <trkpt lat="45.23449" lon="6.03415">
        <ele>2242.3999023438</ele>
        <time>2021-01-02T10:36:46.000Z</time>
      </trkpt>
      <trkpt lat="45.23449" lon="6.03415">
        <ele>2242.6000976562</ele>
        <time>2021-01-02T10:36:47.000Z</time>
      </trkpt>
      <trkpt lat="45.23449" lon="6.03416">
        <ele>2243.3999023438</ele>
        <time>2021-01-02T10:36:54.000Z</time>
      </trkpt>
      <trkpt lat="45.23449" lon="6.03417">
        <ele>2244.3999023438</ele>
        <time>2021-01-02T10:37:02.000Z</time>
      </trkpt>
      <trkpt lat="45.23451" lon="6.03419">
        <ele>2245</ele>
        <time>2021-01-02T10:37:08.000Z</time>
      </trkpt>
      <trkpt lat="45.23451" lon="6.03419">
        <ele>2245.6000976562</ele>
        <time>2021-01-02T10:37:12.000Z</time>
      </trkpt>
      <trkpt lat="45.23451" lon="6.0342">
        <ele>2246</ele>
        <time>2021-01-02T10:37:15.000Z</time>
      </trkpt>
      <trkpt lat="45.23451" lon="6.03421">
        <ele>2246.3999023438</ele>
        <time>2021-01-02T10:37:22.000Z</time>
      </trkpt>
      <trkpt lat="45.23451" lon="6.03422">
        <ele>2246.8000488281</ele>
        <time>2021-01-02T10:37:24.000Z</time>
      </trkpt>
      <trkpt lat="45.23451" lon="6.03423">
        <ele>2247.3999023438</ele>
        <time>2021-01-02T10:37:28.000Z</time>
      </trkpt>
      <trkpt lat="45.23451" lon="6.03424">
        <ele>2247.8000488281</ele>
        <time>2021-01-02T10:37:33.000Z</time>
      </trkpt>
      <trkpt lat="45.23451" lon="6.03424">
        <ele>2248</ele>
        <time>2021-01-02T10:37:35.000Z</time>
      </trkpt>
      <trkpt lat="45.23451" lon="6.03424">
        <ele>2248.1999511719</ele>
        <time>2021-01-02T10:37:46.000Z</time>
      </trkpt>
      <trkpt lat="45.23451" lon="6.03425">
        <ele>2248.1999511719</ele>
        <time>2021-01-02T10:37:52.000Z</time>
      </trkpt>
      <trkpt lat="45.23451" lon="6.03427">
        <ele>2248.8000488281</ele>
        <time>2021-01-02T10:37:58.000Z</time>
      </trkpt>
      <trkpt lat="45.23451" lon="6.03431">
        <ele>2250</ele>
        <time>2021-01-02T10:38:05.000Z</time>
      </trkpt>
      <trkpt lat="45.23452" lon="6.03432">
        <ele>2251</ele>
        <time>2021-01-02T10:38:12.000Z</time>
      </trkpt>
      <trkpt lat="45.23452" lon="6.03432">
        <ele>2251</ele>
        <time>2021-01-02T10:38:13.000Z</time>
      </trkpt>
      <trkpt lat="45.23452" lon="6.03432">
        <ele>2252</ele>
        <time>2021-01-02T10:38:21.000Z</time>
      </trkpt>
      <trkpt lat="45.23451" lon="6.03433">
        <ele>2252.8000488281</ele>
        <time>2021-01-02T10:38:32.000Z</time>
      </trkpt>
      <trkpt lat="45.23451" lon="6.03434">
        <ele>2253</ele>
        <time>2021-01-02T10:38:36.000Z</time>
      </trkpt>
      <trkpt lat="45.23451" lon="6.03434">
        <ele>2253.3999023438</ele>
        <time>2021-01-02T10:38:39.000Z</time>
      </trkpt>
      <trkpt lat="45.23451" lon="6.03436">
        <ele>2253.8000488281</ele>
        <time>2021-01-02T10:38:47.000Z</time>
      </trkpt>
      <trkpt lat="45.23451" lon="6.03438">
        <ele>2254.1999511719</ele>
        <time>2021-01-02T10:38:52.000Z</time>
      </trkpt>
      <trkpt lat="45.23451" lon="6.03438">
        <ele>2254.1999511719</ele>
        <time>2021-01-02T10:38:53.000Z</time>
      </trkpt>
      <trkpt lat="45.23452" lon="6.0344">
        <ele>2255.1999511719</ele>
        <time>2021-01-02T10:38:58.000Z</time>
      </trkpt>
      <trkpt lat="45.23452" lon="6.0344">
        <ele>2255.3999023438</ele>
        <time>2021-01-02T10:38:59.000Z</time>
      </trkpt>
      <trkpt lat="45.23451" lon="6.0344">
        <ele>2256.1999511719</ele>
        <time>2021-01-02T10:39:05.000Z</time>
      </trkpt>
      <trkpt lat="45.23451" lon="6.03441">
        <ele>2256.3999023438</ele>
        <time>2021-01-02T10:39:06.000Z</time>
      </trkpt>
      <trkpt lat="45.23451" lon="6.03442">
        <ele>2257</ele>
        <time>2021-01-02T10:39:11.000Z</time>
      </trkpt>
      <trkpt lat="45.23451" lon="6.03442">
        <ele>2257.6000976562</ele>
        <time>2021-01-02T10:39:14.000Z</time>
      </trkpt>
      <trkpt lat="45.23451" lon="6.03443">
        <ele>2258.3999023438</ele>
        <time>2021-01-02T10:39:19.000Z</time>
      </trkpt>
      <trkpt lat="45.23451" lon="6.03443">
        <ele>2258.6000976562</ele>
        <time>2021-01-02T10:39:20.000Z</time>
      </trkpt>
      <trkpt lat="45.23452" lon="6.03443">
        <ele>2259.1999511719</ele>
        <time>2021-01-02T10:39:25.000Z</time>
      </trkpt>
      <trkpt lat="45.23452" lon="6.03444">
        <ele>2259.6000976562</ele>
        <time>2021-01-02T10:39:34.000Z</time>
      </trkpt>
      <trkpt lat="45.23452" lon="6.03444">
        <ele>2259.8000488281</ele>
        <time>2021-01-02T10:39:35.000Z</time>
      </trkpt>
      <trkpt lat="45.23452" lon="6.03444">
        <ele>2260.1999511719</ele>
        <time>2021-01-02T10:39:43.000Z</time>
      </trkpt>
      <trkpt lat="45.23451" lon="6.03444">
        <ele>2260.6000976562</ele>
        <time>2021-01-02T10:39:52.000Z</time>
      </trkpt>
      <trkpt lat="45.23451" lon="6.03444">
        <ele>2260.8000488281</ele>
        <time>2021-01-02T10:39:54.000Z</time>
      </trkpt>
      <trkpt lat="45.23451" lon="6.03444">
        <ele>2261.1999511719</ele>
        <time>2021-01-02T10:39:59.000Z</time>
      </trkpt>
      <trkpt lat="45.23451" lon="6.03446">
        <ele>2261.8000488281</ele>
        <time>2021-01-02T10:40:04.000Z</time>
      </trkpt>
      <trkpt lat="45.23451" lon="6.03446">
        <ele>2262</ele>
        <time>2021-01-02T10:40:05.000Z</time>
      </trkpt>
      <trkpt lat="45.23451" lon="6.03447">
        <ele>2262.8000488281</ele>
        <time>2021-01-02T10:40:12.000Z</time>
      </trkpt>
      <trkpt lat="45.23451" lon="6.03447">
        <ele>2263</ele>
        <time>2021-01-02T10:40:13.000Z</time>
      </trkpt>
      <trkpt lat="45.23451" lon="6.03448">
        <ele>2263.8000488281</ele>
        <time>2021-01-02T10:40:20.000Z</time>
      </trkpt>
      <trkpt lat="45.23451" lon="6.03448">
        <ele>2264</ele>
        <time>2021-01-02T10:40:22.000Z</time>
      </trkpt>
      <trkpt lat="45.23451" lon="6.03448">
        <ele>2264.3999023438</ele>
        <time>2021-01-02T10:40:29.000Z</time>
      </trkpt>
      <trkpt lat="45.23451" lon="6.03448">
        <ele>2264.8000488281</ele>
        <time>2021-01-02T10:40:39.000Z</time>
      </trkpt>
      <trkpt lat="45.23451" lon="6.03448">
        <ele>2264.8000488281</ele>
        <time>2021-01-02T10:40:50.000Z</time>
      </trkpt>
      <trkpt lat="45.23452" lon="6.03451">
        <ele>2265</ele>
        <time>2021-01-02T10:40:57.000Z</time>
      </trkpt>
      <trkpt lat="45.23452" lon="6.03451">
        <ele>2265.1999511719</ele>
        <time>2021-01-02T10:40:58.000Z</time>
      </trkpt>
      <trkpt lat="45.23452" lon="6.03451">
        <ele>2265.8000488281</ele>
        <time>2021-01-02T10:41:03.000Z</time>
      </trkpt>
      <trkpt lat="45.23452" lon="6.03452">
        <ele>2266.1999511719</ele>
        <time>2021-01-02T10:41:08.000Z</time>
      </trkpt>
      <trkpt lat="45.23452" lon="6.03453">
        <ele>2266.1999511719</ele>
        <time>2021-01-02T10:41:09.000Z</time>
      </trkpt>
      <trkpt lat="45.23452" lon="6.03453">
        <ele>2267.1999511719</ele>
        <time>2021-01-02T10:41:16.000Z</time>
      </trkpt>
      <trkpt lat="45.23453" lon="6.03453">
        <ele>2268</ele>
        <time>2021-01-02T10:41:22.000Z</time>
      </trkpt>
      <trkpt lat="45.23453" lon="6.03453">
        <ele>2268.3999023438</ele>
        <time>2021-01-02T10:41:25.000Z</time>
      </trkpt>
      <trkpt lat="45.23453" lon="6.03453">
        <ele>2269.3999023438</ele>
        <time>2021-01-02T10:41:33.000Z</time>
      </trkpt>
      <trkpt lat="45.23454" lon="6.03454">
        <ele>2269.8000488281</ele>
        <time>2021-01-02T10:41:38.000Z</time>
      </trkpt>
      <trkpt lat="45.23454" lon="6.03454">
        <ele>2270.3999023438</ele>
        <time>2021-01-02T10:41:42.000Z</time>
      </trkpt>
      <trkpt lat="45.23454" lon="6.03455">
        <ele>2270.8000488281</ele>
        <time>2021-01-02T10:41:46.000Z</time>
      </trkpt>
      <trkpt lat="45.23454" lon="6.03455">
        <ele>2271.3999023438</ele>
        <time>2021-01-02T10:41:52.000Z</time>
      </trkpt>
      <trkpt lat="45.23454" lon="6.03455">
        <ele>2271.3999023438</ele>
        <time>2021-01-02T10:41:54.000Z</time>
      </trkpt>
      <trkpt lat="45.23454" lon="6.03455">
        <ele>2271.8000488281</ele>
        <time>2021-01-02T10:42:00.000Z</time>
      </trkpt>
      <trkpt lat="45.23454" lon="6.03455">
        <ele>2272</ele>
        <time>2021-01-02T10:42:08.000Z</time>
      </trkpt>
      <trkpt lat="45.23455" lon="6.03456">
        <ele>2272.3999023438</ele>
        <time>2021-01-02T10:42:10.000Z</time>
      </trkpt>
      <trkpt lat="45.23455" lon="6.03456">
        <ele>2273</ele>
        <time>2021-01-02T10:42:14.000Z</time>
      </trkpt>
      <trkpt lat="45.23455" lon="6.03456">
        <ele>2273.3999023438</ele>
        <time>2021-01-02T10:42:23.000Z</time>
      </trkpt>
      <trkpt lat="45.23455" lon="6.03457">
        <ele>2273.3999023438</ele>
        <time>2021-01-02T10:42:31.000Z</time>
      </trkpt>
      <trkpt lat="45.23455" lon="6.03458">
        <ele>2274</ele>
        <time>2021-01-02T10:42:37.000Z</time>
      </trkpt>
      <trkpt lat="45.23456" lon="6.03459">
        <ele>2274.3999023438</ele>
        <time>2021-01-02T10:42:42.000Z</time>
      </trkpt>
      <trkpt lat="45.23457" lon="6.0346">
        <ele>2274.6000976562</ele>
        <time>2021-01-02T10:42:43.000Z</time>
      </trkpt>
      <trkpt lat="45.23457" lon="6.03461">
        <ele>2275.1999511719</ele>
        <time>2021-01-02T10:42:48.000Z</time>
      </trkpt>
      <trkpt lat="45.23458" lon="6.03462">
        <ele>2275.6000976562</ele>
        <time>2021-01-02T10:42:52.000Z</time>
      </trkpt>
      <trkpt lat="45.23458" lon="6.03462">
        <ele>2275.8000488281</ele>
        <time>2021-01-02T10:42:54.000Z</time>
      </trkpt>
      <trkpt lat="45.23458" lon="6.03462">
        <ele>2276</ele>
        <time>2021-01-02T10:43:05.000Z</time>
      </trkpt>
      <trkpt lat="45.23458" lon="6.03462">
        <ele>2276</ele>
        <time>2021-01-02T10:43:10.000Z</time>
      </trkpt>
      <trkpt lat="45.23458" lon="6.03462">
        <ele>2276.6000976562</ele>
        <time>2021-01-02T10:43:18.000Z</time>
      </trkpt>
      <trkpt lat="45.23458" lon="6.03462">
        <ele>2276.3999023438</ele>
        <time>2021-01-02T10:43:26.000Z</time>
      </trkpt>
      <trkpt lat="45.23458" lon="6.03462">
        <ele>2276</ele>
        <time>2021-01-02T10:43:33.000Z</time>
      </trkpt>
      <trkpt lat="45.23458" lon="6.03462">
        <ele>2276.1999511719</ele>
        <time>2021-01-02T10:43:40.000Z</time>
      </trkpt>
      <trkpt lat="45.23458" lon="6.03462">
        <ele>2276.8000488281</ele>
        <time>2021-01-02T10:43:41.000Z</time>
      </trkpt>
      <trkpt lat="45.23458" lon="6.03462">
        <ele>2277.1999511719</ele>
        <time>2021-01-02T10:43:48.000Z</time>
      </trkpt>
      <trkpt lat="45.23458" lon="6.03462">
        <ele>2277</ele>
        <time>2021-01-02T10:43:57.000Z</time>
      </trkpt>
      <trkpt lat="45.23458" lon="6.03462">
        <ele>2277</ele>
        <time>2021-01-02T10:44:07.000Z</time>
      </trkpt>
      <trkpt lat="45.23458" lon="6.03463">
        <ele>2277</ele>
        <time>2021-01-02T10:44:18.000Z</time>
      </trkpt>
      <trkpt lat="45.23458" lon="6.03463">
        <ele>2276.6000976562</ele>
        <time>2021-01-02T10:44:25.000Z</time>
      </trkpt>
      <trkpt lat="45.23458" lon="6.03463">
        <ele>2276.3999023438</ele>
        <time>2021-01-02T10:44:32.000Z</time>
      </trkpt>
      <trkpt lat="45.23458" lon="6.03467">
        <ele>2277</ele>
        <time>2021-01-02T10:44:39.000Z</time>
      </trkpt>
      <trkpt lat="45.23458" lon="6.03468">
        <ele>2277.8000488281</ele>
        <time>2021-01-02T10:44:45.000Z</time>
      </trkpt>
      <trkpt lat="45.23458" lon="6.03469">
        <ele>2278</ele>
        <time>2021-01-02T10:44:50.000Z</time>
      </trkpt>
      <trkpt lat="45.2346" lon="6.03469">
        <ele>2278.8000488281</ele>
        <time>2021-01-02T10:44:55.000Z</time>
      </trkpt>
      <trkpt lat="45.23461" lon="6.0347">
        <ele>2279.1999511719</ele>
        <time>2021-01-02T10:45:01.000Z</time>
      </trkpt>
      <trkpt lat="45.23461" lon="6.0347">
        <ele>2279.3999023438</ele>
        <time>2021-01-02T10:45:07.000Z</time>
      </trkpt>
      <trkpt lat="45.23461" lon="6.0347">
        <ele>2279.8000488281</ele>
        <time>2021-01-02T10:45:11.000Z</time>
      </trkpt>
      <trkpt lat="45.23461" lon="6.0347">
        <ele>2280.1999511719</ele>
        <time>2021-01-02T10:45:13.000Z</time>
      </trkpt>
      <trkpt lat="45.23466" lon="6.0347">
        <ele>2281</ele>
        <time>2021-01-02T10:45:18.000Z</time>
      </trkpt>
      <trkpt lat="45.23466" lon="6.0347">
        <ele>2281.1999511719</ele>
        <time>2021-01-02T10:45:19.000Z</time>
      </trkpt>
      <trkpt lat="45.2347" lon="6.03469">
        <ele>2282</ele>
        <time>2021-01-02T10:45:23.000Z</time>
      </trkpt>
      <trkpt lat="45.23472" lon="6.03469">
        <ele>2282.8000488281</ele>
        <time>2021-01-02T10:45:26.000Z</time>
      </trkpt>
      <trkpt lat="45.23474" lon="6.03469">
        <ele>2283.1999511719</ele>
        <time>2021-01-02T10:45:29.000Z</time>
      </trkpt>
      <trkpt lat="45.23475" lon="6.03468">
        <ele>2283.6000976562</ele>
        <time>2021-01-02T10:45:32.000Z</time>
      </trkpt>
      <trkpt lat="45.23477" lon="6.03467">
        <ele>2284</ele>
        <time>2021-01-02T10:45:34.000Z</time>
      </trkpt>
      <trkpt lat="45.23478" lon="6.03466">
        <ele>2284.1999511719</ele>
        <time>2021-01-02T10:45:35.000Z</time>
      </trkpt>
      <trkpt lat="45.2348" lon="6.03465">
        <ele>2284.8000488281</ele>
        <time>2021-01-02T10:45:38.000Z</time>
      </trkpt>
      <trkpt lat="45.23482" lon="6.03464">
        <ele>2285.3999023438</ele>
        <time>2021-01-02T10:45:41.000Z</time>
      </trkpt>
      <trkpt lat="45.23482" lon="6.03464">
        <ele>2285.8000488281</ele>
        <time>2021-01-02T10:45:44.000Z</time>
      </trkpt>
      <trkpt lat="45.23482" lon="6.03465">
        <ele>2286.3999023438</ele>
        <time>2021-01-02T10:45:49.000Z</time>
      </trkpt>
      <trkpt lat="45.23482" lon="6.03466">
        <ele>2286.3999023438</ele>
        <time>2021-01-02T10:45:50.000Z</time>
      </trkpt>
      <trkpt lat="45.23482" lon="6.03472">
        <ele>2287.6000976562</ele>
        <time>2021-01-02T10:45:57.000Z</time>
      </trkpt>
      <trkpt lat="45.23482" lon="6.03478">
        <ele>2288.6000976562</ele>
        <time>2021-01-02T10:46:03.000Z</time>
      </trkpt>
      <trkpt lat="45.23481" lon="6.03481">
        <ele>2289.6000976562</ele>
        <time>2021-01-02T10:46:06.000Z</time>
      </trkpt>
      <trkpt lat="45.23481" lon="6.03484">
        <ele>2290.8000488281</ele>
        <time>2021-01-02T10:46:12.000Z</time>
      </trkpt>
      <trkpt lat="45.23481" lon="6.03485">
        <ele>2291</ele>
        <time>2021-01-02T10:46:13.000Z</time>
      </trkpt>
      <trkpt lat="45.23479" lon="6.0349">
        <ele>2292</ele>
        <time>2021-01-02T10:46:19.000Z</time>
      </trkpt>
      <trkpt lat="45.23477" lon="6.03496">
        <ele>2293</ele>
        <time>2021-01-02T10:46:25.000Z</time>
      </trkpt>
      <trkpt lat="45.23476" lon="6.03496">
        <ele>2294</ele>
        <time>2021-01-02T10:46:31.000Z</time>
      </trkpt>
      <trkpt lat="45.23476" lon="6.03496">
        <ele>2294.6000976562</ele>
        <time>2021-01-02T10:46:38.000Z</time>
      </trkpt>
      <trkpt lat="45.23478" lon="6.03496">
        <ele>2295</ele>
        <time>2021-01-02T10:46:43.000Z</time>
      </trkpt>
      <trkpt lat="45.23479" lon="6.03496">
        <ele>2295.1999511719</ele>
        <time>2021-01-02T10:46:44.000Z</time>
      </trkpt>
      <trkpt lat="45.23482" lon="6.03495">
        <ele>2296</ele>
        <time>2021-01-02T10:46:49.000Z</time>
      </trkpt>
      <trkpt lat="45.23484" lon="6.03494">
        <ele>2296.1999511719</ele>
        <time>2021-01-02T10:46:51.000Z</time>
      </trkpt>
      <trkpt lat="45.23485" lon="6.03494">
        <ele>2297.1999511719</ele>
        <time>2021-01-02T10:46:55.000Z</time>
      </trkpt>
      <trkpt lat="45.23485" lon="6.03494">
        <ele>2297.3999023438</ele>
        <time>2021-01-02T10:46:56.000Z</time>
      </trkpt>
      <trkpt lat="45.23488" lon="6.03491">
        <ele>2298.3999023438</ele>
        <time>2021-01-02T10:47:02.000Z</time>
      </trkpt>
      <trkpt lat="45.23489" lon="6.03491">
        <ele>2298.3999023438</ele>
        <time>2021-01-02T10:47:03.000Z</time>
      </trkpt>
      <trkpt lat="45.23492" lon="6.03488">
        <ele>2299.3999023438</ele>
        <time>2021-01-02T10:47:10.000Z</time>
      </trkpt>
      <trkpt lat="45.23492" lon="6.03488">
        <ele>2299.6000976562</ele>
        <time>2021-01-02T10:47:11.000Z</time>
      </trkpt>
      <trkpt lat="45.23493" lon="6.03488">
        <ele>2300.3999023438</ele>
        <time>2021-01-02T10:47:21.000Z</time>
      </trkpt>
      <trkpt lat="45.23495" lon="6.03486">
        <ele>2300.3999023438</ele>
        <time>2021-01-02T10:47:24.000Z</time>
      </trkpt>
      <trkpt lat="45.23496" lon="6.03484">
        <ele>2300.6000976562</ele>
        <time>2021-01-02T10:47:26.000Z</time>
      </trkpt>
      <trkpt lat="45.23498" lon="6.03483">
        <ele>2300.8000488281</ele>
        <time>2021-01-02T10:47:28.000Z</time>
      </trkpt>
      <trkpt lat="45.23499" lon="6.03482">
        <ele>2301.6000976562</ele>
        <time>2021-01-02T10:47:32.000Z</time>
      </trkpt>
      <trkpt lat="45.23501" lon="6.0348">
        <ele>2302</ele>
        <time>2021-01-02T10:47:35.000Z</time>
      </trkpt>
      <trkpt lat="45.23503" lon="6.03479">
        <ele>2302.6000976562</ele>
        <time>2021-01-02T10:47:39.000Z</time>
      </trkpt>
      <trkpt lat="45.23503" lon="6.03478">
        <ele>2303.1999511719</ele>
        <time>2021-01-02T10:47:41.000Z</time>
      </trkpt>
      <trkpt lat="45.23504" lon="6.03478">
        <ele>2303.8000488281</ele>
        <time>2021-01-02T10:47:44.000Z</time>
      </trkpt>
      <trkpt lat="45.23503" lon="6.03478">
        <ele>2304</ele>
        <time>2021-01-02T10:47:46.000Z</time>
      </trkpt>
      <trkpt lat="45.23503" lon="6.03478">
        <ele>2304.8000488281</ele>
        <time>2021-01-02T10:47:52.000Z</time>
      </trkpt>
      <trkpt lat="45.23503" lon="6.03478">
        <ele>2305</ele>
        <time>2021-01-02T10:47:54.000Z</time>
      </trkpt>
      <trkpt lat="45.23503" lon="6.03478">
        <ele>2305.1999511719</ele>
        <time>2021-01-02T10:48:02.000Z</time>
      </trkpt>
      <trkpt lat="45.23503" lon="6.03478">
        <ele>2305.6000976562</ele>
        <time>2021-01-02T10:48:12.000Z</time>
      </trkpt>
      <trkpt lat="45.23504" lon="6.03478">
        <ele>2305.6000976562</ele>
        <time>2021-01-02T10:48:20.000Z</time>
      </trkpt>
      <trkpt lat="45.23504" lon="6.03478">
        <ele>2305.8000488281</ele>
        <time>2021-01-02T10:48:22.000Z</time>
      </trkpt>
      <trkpt lat="45.23504" lon="6.0348">
        <ele>2306.3999023438</ele>
        <time>2021-01-02T10:48:27.000Z</time>
      </trkpt>
      <trkpt lat="45.23504" lon="6.03482">
        <ele>2306.8000488281</ele>
        <time>2021-01-02T10:48:29.000Z</time>
      </trkpt>
      <trkpt lat="45.23505" lon="6.03486">
        <ele>2308</ele>
        <time>2021-01-02T10:48:35.000Z</time>
      </trkpt>
      <trkpt lat="45.23505" lon="6.03487">
        <ele>2308.6000976562</ele>
        <time>2021-01-02T10:48:39.000Z</time>
      </trkpt>
      <trkpt lat="45.23505" lon="6.03487">
        <ele>2309</ele>
        <time>2021-01-02T10:48:42.000Z</time>
      </trkpt>
      <trkpt lat="45.23505" lon="6.03487">
        <ele>2309.1999511719</ele>
        <time>2021-01-02T10:48:44.000Z</time>
      </trkpt>
      <trkpt lat="45.23509" lon="6.03487">
        <ele>2309.6000976562</ele>
        <time>2021-01-02T10:48:50.000Z</time>
      </trkpt>
      <trkpt lat="45.23511" lon="6.03486">
        <ele>2310.1999511719</ele>
        <time>2021-01-02T10:48:53.000Z</time>
      </trkpt>
      <trkpt lat="45.23513" lon="6.03485">
        <ele>2310.6000976562</ele>
        <time>2021-01-02T10:48:57.000Z</time>
      </trkpt>
      <trkpt lat="45.23515" lon="6.03484">
        <ele>2311</ele>
        <time>2021-01-02T10:49:03.000Z</time>
      </trkpt>
      <trkpt lat="45.23517" lon="6.03483">
        <ele>2311.3999023438</ele>
        <time>2021-01-02T10:49:07.000Z</time>
      </trkpt>
      <trkpt lat="45.23517" lon="6.03482">
        <ele>2311.6000976562</ele>
        <time>2021-01-02T10:49:09.000Z</time>
      </trkpt>
      <trkpt lat="45.23519" lon="6.03481">
        <ele>2312.1999511719</ele>
        <time>2021-01-02T10:49:14.000Z</time>
      </trkpt>
      <trkpt lat="45.23518" lon="6.03481">
        <ele>2312.3999023438</ele>
        <time>2021-01-02T10:49:15.000Z</time>
      </trkpt>
      <trkpt lat="45.23519" lon="6.03482">
        <ele>2312.8000488281</ele>
        <time>2021-01-02T10:49:18.000Z</time>
      </trkpt>
      <trkpt lat="45.23519" lon="6.03482">
        <ele>2312.8000488281</ele>
        <time>2021-01-02T10:49:20.000Z</time>
      </trkpt>
      <trkpt lat="45.23519" lon="6.03484">
        <ele>2313.1999511719</ele>
        <time>2021-01-02T10:49:25.000Z</time>
      </trkpt>
      <trkpt lat="45.23519" lon="6.03485">
        <ele>2313.3999023438</ele>
        <time>2021-01-02T10:49:28.000Z</time>
      </trkpt>
      <trkpt lat="45.2352" lon="6.03486">
        <ele>2313.8000488281</ele>
        <time>2021-01-02T10:49:30.000Z</time>
      </trkpt>
      <trkpt lat="45.2352" lon="6.03487">
        <ele>2314.6000976562</ele>
        <time>2021-01-02T10:49:33.000Z</time>
      </trkpt>
      <trkpt lat="45.2352" lon="6.03488">
        <ele>2315.1999511719</ele>
        <time>2021-01-02T10:49:36.000Z</time>
      </trkpt>
      <trkpt lat="45.2352" lon="6.03489">
        <ele>2315.6000976562</ele>
        <time>2021-01-02T10:49:39.000Z</time>
      </trkpt>
      <trkpt lat="45.2352" lon="6.0349">
        <ele>2316</ele>
        <time>2021-01-02T10:49:41.000Z</time>
      </trkpt>
      <trkpt lat="45.2352" lon="6.03492">
        <ele>2316.8000488281</ele>
        <time>2021-01-02T10:49:47.000Z</time>
      </trkpt>
      <trkpt lat="45.2352" lon="6.03492">
        <ele>2316.8000488281</ele>
        <time>2021-01-02T10:49:48.000Z</time>
      </trkpt>
      <trkpt lat="45.23521" lon="6.03492">
        <ele>2317.1999511719</ele>
        <time>2021-01-02T10:49:53.000Z</time>
      </trkpt>
      <trkpt lat="45.23523" lon="6.03491">
        <ele>2317.6000976562</ele>
        <time>2021-01-02T10:49:58.000Z</time>
      </trkpt>
      <trkpt lat="45.23524" lon="6.0349">
        <ele>2317.8000488281</ele>
        <time>2021-01-02T10:50:00.000Z</time>
      </trkpt>
      <trkpt lat="45.23525" lon="6.03489">
        <ele>2318.1999511719</ele>
        <time>2021-01-02T10:50:03.000Z</time>
      </trkpt>
      <trkpt lat="45.23527" lon="6.03487">
        <ele>2318.8000488281</ele>
        <time>2021-01-02T10:50:07.000Z</time>
      </trkpt>
      <trkpt lat="45.23527" lon="6.03487">
        <ele>2319</ele>
        <time>2021-01-02T10:50:09.000Z</time>
      </trkpt>
      <trkpt lat="45.23528" lon="6.03485">
        <ele>2320</ele>
        <time>2021-01-02T10:50:12.000Z</time>
      </trkpt>
      <trkpt lat="45.23528" lon="6.03485">
        <ele>2320.6000976562</ele>
        <time>2021-01-02T10:50:15.000Z</time>
      </trkpt>
      <trkpt lat="45.23528" lon="6.03485">
        <ele>2320.8000488281</ele>
        <time>2021-01-02T10:50:22.000Z</time>
      </trkpt>
      <trkpt lat="45.23529" lon="6.03487">
        <ele>2321</ele>
        <time>2021-01-02T10:50:25.000Z</time>
      </trkpt>
      <trkpt lat="45.23529" lon="6.03488">
        <ele>2321.1999511719</ele>
        <time>2021-01-02T10:50:27.000Z</time>
      </trkpt>
      <trkpt lat="45.2353" lon="6.03491">
        <ele>2321.8000488281</ele>
        <time>2021-01-02T10:50:34.000Z</time>
      </trkpt>
      <trkpt lat="45.2353" lon="6.03494">
        <ele>2322.1999511719</ele>
        <time>2021-01-02T10:50:40.000Z</time>
      </trkpt>
      <trkpt lat="45.2353" lon="6.03495">
        <ele>2322.6000976562</ele>
        <time>2021-01-02T10:50:45.000Z</time>
      </trkpt>
      <trkpt lat="45.2353" lon="6.03497">
        <ele>2323.1999511719</ele>
        <time>2021-01-02T10:50:50.000Z</time>
      </trkpt>
      <trkpt lat="45.2353" lon="6.03497">
        <ele>2323.3999023438</ele>
        <time>2021-01-02T10:50:51.000Z</time>
      </trkpt>
      <trkpt lat="45.2353" lon="6.03499">
        <ele>2323.8000488281</ele>
        <time>2021-01-02T10:50:57.000Z</time>
      </trkpt>
      <trkpt lat="45.2353" lon="6.03501">
        <ele>2324.3999023438</ele>
        <time>2021-01-02T10:51:01.000Z</time>
      </trkpt>
      <trkpt lat="45.2353" lon="6.03501">
        <ele>2324.6000976562</ele>
        <time>2021-01-02T10:51:03.000Z</time>
      </trkpt>
      <trkpt lat="45.23531" lon="6.03501">
        <ele>2325</ele>
        <time>2021-01-02T10:51:07.000Z</time>
      </trkpt>
      <trkpt lat="45.23533" lon="6.035">
        <ele>2325.3999023438</ele>
        <time>2021-01-02T10:51:10.000Z</time>
      </trkpt>
      <trkpt lat="45.23535" lon="6.03501">
        <ele>2325.8000488281</ele>
        <time>2021-01-02T10:51:13.000Z</time>
      </trkpt>
      <trkpt lat="45.23537" lon="6.03501">
        <ele>2326.3999023438</ele>
        <time>2021-01-02T10:51:16.000Z</time>
      </trkpt>
      <trkpt lat="45.23538" lon="6.03501">
        <ele>2327.1999511719</ele>
        <time>2021-01-02T10:51:19.000Z</time>
      </trkpt>
      <trkpt lat="45.23539" lon="6.03502">
        <ele>2327.6000976562</ele>
        <time>2021-01-02T10:51:21.000Z</time>
      </trkpt>
      <trkpt lat="45.2354" lon="6.03503">
        <ele>2327.8000488281</ele>
        <time>2021-01-02T10:51:25.000Z</time>
      </trkpt>
      <trkpt lat="45.23542" lon="6.03505">
        <ele>2328.6000976562</ele>
        <time>2021-01-02T10:51:30.000Z</time>
      </trkpt>
      <trkpt lat="45.23543" lon="6.03507">
        <ele>2329.8000488281</ele>
        <time>2021-01-02T10:51:36.000Z</time>
      </trkpt>
      <trkpt lat="45.23543" lon="6.03508">
        <ele>2329.8000488281</ele>
        <time>2021-01-02T10:51:37.000Z</time>
      </trkpt>
      <trkpt lat="45.23544" lon="6.03509">
        <ele>2331</ele>
        <time>2021-01-02T10:51:42.000Z</time>
      </trkpt>
      <trkpt lat="45.23545" lon="6.0351">
        <ele>2331.1999511719</ele>
        <time>2021-01-02T10:51:43.000Z</time>
      </trkpt>
      <trkpt lat="45.23547" lon="6.03513">
        <ele>2332.1999511719</ele>
        <time>2021-01-02T10:51:49.000Z</time>
      </trkpt>
      <trkpt lat="45.23548" lon="6.03517">
        <ele>2333.3999023438</ele>
        <time>2021-01-02T10:51:55.000Z</time>
      </trkpt>
      <trkpt lat="45.23548" lon="6.03518">
        <ele>2333.3999023438</ele>
        <time>2021-01-02T10:51:56.000Z</time>
      </trkpt>
      <trkpt lat="45.2355" lon="6.0352">
        <ele>2334.1999511719</ele>
        <time>2021-01-02T10:52:02.000Z</time>
      </trkpt>
      <trkpt lat="45.2355" lon="6.0352">
        <ele>2334.3999023438</ele>
        <time>2021-01-02T10:52:03.000Z</time>
      </trkpt>
      <trkpt lat="45.2355" lon="6.0352">
        <ele>2334.6000976562</ele>
        <time>2021-01-02T10:52:15.000Z</time>
      </trkpt>
      <trkpt lat="45.23551" lon="6.03524">
        <ele>2334.6000976562</ele>
        <time>2021-01-02T10:52:23.000Z</time>
      </trkpt>
      <trkpt lat="45.23553" lon="6.03526">
        <ele>2335</ele>
        <time>2021-01-02T10:52:30.000Z</time>
      </trkpt>
      <trkpt lat="45.23555" lon="6.03529">
        <ele>2335.6000976562</ele>
        <time>2021-01-02T10:52:37.000Z</time>
      </trkpt>
      <trkpt lat="45.23557" lon="6.03533">
        <ele>2336.1999511719</ele>
        <time>2021-01-02T10:52:44.000Z</time>
      </trkpt>
      <trkpt lat="45.23558" lon="6.03533">
        <ele>2336.6000976562</ele>
        <time>2021-01-02T10:52:46.000Z</time>
      </trkpt>
      <trkpt lat="45.23559" lon="6.03536">
        <ele>2336.8000488281</ele>
        <time>2021-01-02T10:52:51.000Z</time>
      </trkpt>
      <trkpt lat="45.2356" lon="6.03539">
        <ele>2337.3999023438</ele>
        <time>2021-01-02T10:52:57.000Z</time>
      </trkpt>
      <trkpt lat="45.2356" lon="6.03541">
        <ele>2337.6000976562</ele>
        <time>2021-01-02T10:53:00.000Z</time>
      </trkpt>
      <trkpt lat="45.23561" lon="6.03542">
        <ele>2338</ele>
        <time>2021-01-02T10:53:03.000Z</time>
      </trkpt>
      <trkpt lat="45.23563" lon="6.03545">
        <ele>2338.8000488281</ele>
        <time>2021-01-02T10:53:10.000Z</time>
      </trkpt>
      <trkpt lat="45.23564" lon="6.03547">
        <ele>2340</ele>
        <time>2021-01-02T10:53:18.000Z</time>
      </trkpt>
      <trkpt lat="45.23565" lon="6.0355">
        <ele>2340.6000976562</ele>
        <time>2021-01-02T10:53:26.000Z</time>
      </trkpt>
      <trkpt lat="45.23566" lon="6.03553">
        <ele>2341.1999511719</ele>
        <time>2021-01-02T10:53:30.000Z</time>
      </trkpt>
      <trkpt lat="45.23567" lon="6.03556">
        <ele>2342.1999511719</ele>
        <time>2021-01-02T10:53:34.000Z</time>
      </trkpt>
      <trkpt lat="45.23569" lon="6.0356">
        <ele>2343.1999511719</ele>
        <time>2021-01-02T10:53:42.000Z</time>
      </trkpt>
      <trkpt lat="45.23569" lon="6.0356">
        <ele>2343.3999023438</ele>
        <time>2021-01-02T10:53:43.000Z</time>
      </trkpt>
      <trkpt lat="45.2357" lon="6.03563">
        <ele>2344</ele>
        <time>2021-01-02T10:53:48.000Z</time>
      </trkpt>
      <trkpt lat="45.23571" lon="6.03565">
        <ele>2344.3999023438</ele>
        <time>2021-01-02T10:53:54.000Z</time>
      </trkpt>
      <trkpt lat="45.23572" lon="6.03568">
        <ele>2344.8000488281</ele>
        <time>2021-01-02T10:54:00.000Z</time>
      </trkpt>
      <trkpt lat="45.23573" lon="6.0357">
        <ele>2345.3999023438</ele>
        <time>2021-01-02T10:54:04.000Z</time>
      </trkpt>
      <trkpt lat="45.23574" lon="6.03571">
        <ele>2345.3999023438</ele>
        <time>2021-01-02T10:54:05.000Z</time>
      </trkpt>
      <trkpt lat="45.23575" lon="6.03574">
        <ele>2346.3999023438</ele>
        <time>2021-01-02T10:54:12.000Z</time>
      </trkpt>
      <trkpt lat="45.23576" lon="6.03574">
        <ele>2346.8000488281</ele>
        <time>2021-01-02T10:54:18.000Z</time>
      </trkpt>
      <trkpt lat="45.23578" lon="6.0358">
        <ele>2347.1999511719</ele>
        <time>2021-01-02T10:54:27.000Z</time>
      </trkpt>
      <trkpt lat="45.23578" lon="6.0358">
        <ele>2347.6000976562</ele>
        <time>2021-01-02T10:54:29.000Z</time>
      </trkpt>
      <trkpt lat="45.23578" lon="6.0358">
        <ele>2348.8000488281</ele>
        <time>2021-01-02T10:54:33.000Z</time>
      </trkpt>
      <trkpt lat="45.23578" lon="6.03581">
        <ele>2349.1999511719</ele>
        <time>2021-01-02T10:54:34.000Z</time>
      </trkpt>
      <trkpt lat="45.2358" lon="6.03585">
        <ele>2349.8000488281</ele>
        <time>2021-01-02T10:54:40.000Z</time>
      </trkpt>
      <trkpt lat="45.23581" lon="6.03587">
        <ele>2350.6000976562</ele>
        <time>2021-01-02T10:54:45.000Z</time>
      </trkpt>
      <trkpt lat="45.23582" lon="6.03588">
        <ele>2351</ele>
        <time>2021-01-02T10:54:47.000Z</time>
      </trkpt>
      <trkpt lat="45.23583" lon="6.03589">
        <ele>2351.8000488281</ele>
        <time>2021-01-02T10:54:51.000Z</time>
      </trkpt>
      <trkpt lat="45.23583" lon="6.0359">
        <ele>2352.1999511719</ele>
        <time>2021-01-02T10:54:52.000Z</time>
      </trkpt>
      <trkpt lat="45.23584" lon="6.03591">
        <ele>2352.3999023438</ele>
        <time>2021-01-02T10:54:57.000Z</time>
      </trkpt>
      <trkpt lat="45.23586" lon="6.03594">
        <ele>2352.6000976562</ele>
        <time>2021-01-02T10:55:03.000Z</time>
      </trkpt>
      <trkpt lat="45.23588" lon="6.03597">
        <ele>2353.1999511719</ele>
        <time>2021-01-02T10:55:10.000Z</time>
      </trkpt>
      <trkpt lat="45.23589" lon="6.036">
        <ele>2354.3999023438</ele>
        <time>2021-01-02T10:55:16.000Z</time>
      </trkpt>
      <trkpt lat="45.23589" lon="6.03601">
        <ele>2354.6000976562</ele>
        <time>2021-01-02T10:55:21.000Z</time>
      </trkpt>
      <trkpt lat="45.2359" lon="6.03602">
        <ele>2355.1999511719</ele>
        <time>2021-01-02T10:55:29.000Z</time>
      </trkpt>
      <trkpt lat="45.23591" lon="6.03605">
        <ele>2355.3999023438</ele>
        <time>2021-01-02T10:55:34.000Z</time>
      </trkpt>
      <trkpt lat="45.23593" lon="6.03607">
        <ele>2356.1999511719</ele>
        <time>2021-01-02T10:55:38.000Z</time>
      </trkpt>
      <trkpt lat="45.23593" lon="6.03608">
        <ele>2356.6000976562</ele>
        <time>2021-01-02T10:55:40.000Z</time>
      </trkpt>
      <trkpt lat="45.23594" lon="6.03611">
        <ele>2357.6000976562</ele>
        <time>2021-01-02T10:55:45.000Z</time>
      </trkpt>
      <trkpt lat="45.23594" lon="6.03612">
        <ele>2357.8000488281</ele>
        <time>2021-01-02T10:55:48.000Z</time>
      </trkpt>
      <trkpt lat="45.23594" lon="6.03612">
        <ele>2358.1999511719</ele>
        <time>2021-01-02T10:55:51.000Z</time>
      </trkpt>
      <trkpt lat="45.23594" lon="6.03612">
        <ele>2358.8000488281</ele>
        <time>2021-01-02T10:55:55.000Z</time>
      </trkpt>
      <trkpt lat="45.23594" lon="6.03612">
        <ele>2359.1999511719</ele>
        <time>2021-01-02T10:55:57.000Z</time>
      </trkpt>
      <trkpt lat="45.23594" lon="6.03612">
        <ele>2359.8000488281</ele>
        <time>2021-01-02T10:56:04.000Z</time>
      </trkpt>
      <trkpt lat="45.23594" lon="6.03612">
        <ele>2360</ele>
        <time>2021-01-02T10:56:06.000Z</time>
      </trkpt>
      <trkpt lat="45.23594" lon="6.03612">
        <ele>2360.6000976562</ele>
        <time>2021-01-02T10:56:12.000Z</time>
      </trkpt>
      <trkpt lat="45.23594" lon="6.03612">
        <ele>2361</ele>
        <time>2021-01-02T10:56:15.000Z</time>
      </trkpt>
      <trkpt lat="45.23594" lon="6.03612">
        <ele>2361.1999511719</ele>
        <time>2021-01-02T10:56:19.000Z</time>
      </trkpt>
      <trkpt lat="45.23594" lon="6.03612">
        <ele>2362</ele>
        <time>2021-01-02T10:56:25.000Z</time>
      </trkpt>
      <trkpt lat="45.23594" lon="6.03612">
        <ele>2362.1999511719</ele>
        <time>2021-01-02T10:56:26.000Z</time>
      </trkpt>
      <trkpt lat="45.23594" lon="6.03612">
        <ele>2363</ele>
        <time>2021-01-02T10:56:31.000Z</time>
      </trkpt>
      <trkpt lat="45.23594" lon="6.03612">
        <ele>2363.1999511719</ele>
        <time>2021-01-02T10:56:33.000Z</time>
      </trkpt>
      <trkpt lat="45.23594" lon="6.03612">
        <ele>2364</ele>
        <time>2021-01-02T10:56:38.000Z</time>
      </trkpt>
      <trkpt lat="45.23594" lon="6.03612">
        <ele>2364.1999511719</ele>
        <time>2021-01-02T10:56:39.000Z</time>
      </trkpt>
      <trkpt lat="45.23594" lon="6.03612">
        <ele>2364.6000976562</ele>
        <time>2021-01-02T10:56:46.000Z</time>
      </trkpt>
      <trkpt lat="45.23594" lon="6.03612">
        <ele>2365.1999511719</ele>
        <time>2021-01-02T10:56:52.000Z</time>
      </trkpt>
      <trkpt lat="45.23594" lon="6.03612">
        <ele>2366.1999511719</ele>
        <time>2021-01-02T10:56:59.000Z</time>
      </trkpt>
      <trkpt lat="45.23594" lon="6.03612">
        <ele>2366.1999511719</ele>
        <time>2021-01-02T10:57:00.000Z</time>
      </trkpt>
      <trkpt lat="45.23595" lon="6.03613">
        <ele>2366.8000488281</ele>
        <time>2021-01-02T10:57:06.000Z</time>
      </trkpt>
      <trkpt lat="45.23595" lon="6.03613">
        <ele>2367.1999511719</ele>
        <time>2021-01-02T10:57:09.000Z</time>
      </trkpt>
      <trkpt lat="45.23595" lon="6.03613">
        <ele>2367.6000976562</ele>
        <time>2021-01-02T10:57:14.000Z</time>
      </trkpt>
      <trkpt lat="45.23596" lon="6.03615">
        <ele>2368</ele>
        <time>2021-01-02T10:57:19.000Z</time>
      </trkpt>
      <trkpt lat="45.23598" lon="6.03616">
        <ele>2367.8000488281</ele>
        <time>2021-01-02T10:57:28.000Z</time>
      </trkpt>
      <trkpt lat="45.23598" lon="6.03616">
        <ele>2368.1999511719</ele>
        <time>2021-01-02T10:57:39.000Z</time>
      </trkpt>
      <trkpt lat="45.23598" lon="6.03616">
        <ele>2368.6000976562</ele>
        <time>2021-01-02T10:57:43.000Z</time>
      </trkpt>
      <trkpt lat="45.23598" lon="6.03616">
        <ele>2368</ele>
        <time>2021-01-02T10:57:57.000Z</time>
      </trkpt>
      <trkpt lat="45.23599" lon="6.03619">
        <ele>2367.8000488281</ele>
        <time>2021-01-02T10:58:08.000Z</time>
      </trkpt>
      <trkpt lat="45.23599" lon="6.03619">
        <ele>2367.8000488281</ele>
        <time>2021-01-02T10:58:15.000Z</time>
      </trkpt>
      <trkpt lat="45.23599" lon="6.03619">
        <ele>2368.3999023438</ele>
        <time>2021-01-02T10:58:20.000Z</time>
      </trkpt>
      <trkpt lat="45.23601" lon="6.03624">
        <ele>2369.3999023438</ele>
        <time>2021-01-02T10:58:26.000Z</time>
      </trkpt>
      <trkpt lat="45.23611" lon="6.0364">
        <ele>2369.6000976562</ele>
        <time>2021-01-02T10:58:31.000Z</time>
      </trkpt>
      <trkpt lat="45.23616" lon="6.03648">
        <ele>2370.1999511719</ele>
        <time>2021-01-02T10:58:36.000Z</time>
      </trkpt>
      <trkpt lat="45.23618" lon="6.03652">
        <ele>2370.3999023438</ele>
        <time>2021-01-02T10:58:39.000Z</time>
      </trkpt>
      <trkpt lat="45.23619" lon="6.03654">
        <ele>2370.6000976562</ele>
        <time>2021-01-02T10:58:42.000Z</time>
      </trkpt>
      <trkpt lat="45.23621" lon="6.03657">
        <ele>2371</ele>
        <time>2021-01-02T10:58:49.000Z</time>
      </trkpt>
      <trkpt lat="45.23621" lon="6.03657">
        <ele>2371.3999023438</ele>
        <time>2021-01-02T10:58:52.000Z</time>
      </trkpt>
      <trkpt lat="45.23622" lon="6.03659">
        <ele>2371.8000488281</ele>
        <time>2021-01-02T10:58:55.000Z</time>
      </trkpt>
      <trkpt lat="45.23623" lon="6.03659">
        <ele>2372.6000976562</ele>
        <time>2021-01-02T10:58:59.000Z</time>
      </trkpt>
      <trkpt lat="45.23623" lon="6.03659">
        <ele>2372.8000488281</ele>
        <time>2021-01-02T10:59:02.000Z</time>
      </trkpt>
      <trkpt lat="45.23623" lon="6.03659">
        <ele>2373.3999023438</ele>
        <time>2021-01-02T10:59:07.000Z</time>
      </trkpt>
      <trkpt lat="45.23623" lon="6.03659">
        <ele>2373.6000976562</ele>
        <time>2021-01-02T10:59:09.000Z</time>
      </trkpt>
      <trkpt lat="45.23623" lon="6.03659">
        <ele>2373.8000488281</ele>
        <time>2021-01-02T10:59:13.000Z</time>
      </trkpt>
      <trkpt lat="45.23623" lon="6.03659">
        <ele>2374</ele>
        <time>2021-01-02T10:59:24.000Z</time>
      </trkpt>
      <trkpt lat="45.23623" lon="6.03659">
        <ele>2374.1999511719</ele>
        <time>2021-01-02T10:59:29.000Z</time>
      </trkpt>
      <trkpt lat="45.23623" lon="6.03659">
        <ele>2374.6000976562</ele>
        <time>2021-01-02T10:59:32.000Z</time>
      </trkpt>
      <trkpt lat="45.23622" lon="6.03659">
        <ele>2374.6000976562</ele>
        <time>2021-01-02T10:59:34.000Z</time>
      </trkpt>
      <trkpt lat="45.23624" lon="6.03667">
        <ele>2375.3999023438</ele>
        <time>2021-01-02T10:59:41.000Z</time>
      </trkpt>
      <trkpt lat="45.23624" lon="6.03668">
        <ele>2375.6000976562</ele>
        <time>2021-01-02T10:59:42.000Z</time>
      </trkpt>
      <trkpt lat="45.23621" lon="6.03671">
        <ele>2376.3999023438</ele>
        <time>2021-01-02T10:59:47.000Z</time>
      </trkpt>
      <trkpt lat="45.23621" lon="6.03672">
        <ele>2376.8000488281</ele>
        <time>2021-01-02T10:59:49.000Z</time>
      </trkpt>
      <trkpt lat="45.23619" lon="6.03673">
        <ele>2377.1999511719</ele>
        <time>2021-01-02T10:59:53.000Z</time>
      </trkpt>
      <trkpt lat="45.23619" lon="6.03674">
        <ele>2377.8000488281</ele>
        <time>2021-01-02T10:59:58.000Z</time>
      </trkpt>
      <trkpt lat="45.23619" lon="6.03674">
        <ele>2377.8000488281</ele>
        <time>2021-01-02T10:59:59.000Z</time>
      </trkpt>
      <trkpt lat="45.23619" lon="6.03674">
        <ele>2378.6000976562</ele>
        <time>2021-01-02T11:00:05.000Z</time>
      </trkpt>
      <trkpt lat="45.23619" lon="6.03674">
        <ele>2379</ele>
        <time>2021-01-02T11:00:06.000Z</time>
      </trkpt>
      <trkpt lat="45.2362" lon="6.03676">
        <ele>2379.6000976562</ele>
        <time>2021-01-02T11:00:11.000Z</time>
      </trkpt>
      <trkpt lat="45.2362" lon="6.03676">
        <ele>2380</ele>
        <time>2021-01-02T11:00:15.000Z</time>
      </trkpt>
      <trkpt lat="45.2362" lon="6.03676">
        <ele>2380.3999023438</ele>
        <time>2021-01-02T11:00:18.000Z</time>
      </trkpt>
      <trkpt lat="45.2362" lon="6.03676">
        <ele>2381.1999511719</ele>
        <time>2021-01-02T11:00:24.000Z</time>
      </trkpt>
      <trkpt lat="45.2362" lon="6.03676">
        <ele>2382.1999511719</ele>
        <time>2021-01-02T11:00:30.000Z</time>
      </trkpt>
      <trkpt lat="45.2362" lon="6.03676">
        <ele>2382.6000976562</ele>
        <time>2021-01-02T11:00:38.000Z</time>
      </trkpt>
      <trkpt lat="45.2362" lon="6.03676">
        <ele>2383</ele>
        <time>2021-01-02T11:00:43.000Z</time>
      </trkpt>
      <trkpt lat="45.2362" lon="6.03676">
        <ele>2383.1999511719</ele>
        <time>2021-01-02T11:00:45.000Z</time>
      </trkpt>
      <trkpt lat="45.2362" lon="6.03676">
        <ele>2383.6000976562</ele>
        <time>2021-01-02T11:00:48.000Z</time>
      </trkpt>
      <trkpt lat="45.2362" lon="6.03677">
        <ele>2384.1999511719</ele>
        <time>2021-01-02T11:00:53.000Z</time>
      </trkpt>
      <trkpt lat="45.2362" lon="6.03677">
        <ele>2384.3999023438</ele>
        <time>2021-01-02T11:00:54.000Z</time>
      </trkpt>
      <trkpt lat="45.2362" lon="6.03677">
        <ele>2385.1999511719</ele>
        <time>2021-01-02T11:00:59.000Z</time>
      </trkpt>
      <trkpt lat="45.2362" lon="6.03677">
        <ele>2385.6000976562</ele>
        <time>2021-01-02T11:01:03.000Z</time>
      </trkpt>
      <trkpt lat="45.2362" lon="6.03677">
        <ele>2385.8000488281</ele>
        <time>2021-01-02T11:01:06.000Z</time>
      </trkpt>
      <trkpt lat="45.23621" lon="6.03678">
        <ele>2386.1999511719</ele>
        <time>2021-01-02T11:01:14.000Z</time>
      </trkpt>
      <trkpt lat="45.23625" lon="6.03687">
        <ele>2386.1999511719</ele>
        <time>2021-01-02T11:01:20.000Z</time>
      </trkpt>
      <trkpt lat="45.23625" lon="6.03687">
        <ele>2386.6000976562</ele>
        <time>2021-01-02T11:01:22.000Z</time>
      </trkpt>
      <trkpt lat="45.23625" lon="6.03687">
        <ele>2387.3999023438</ele>
        <time>2021-01-02T11:01:26.000Z</time>
      </trkpt>
      <trkpt lat="45.23625" lon="6.03687">
        <ele>2387.6000976562</ele>
        <time>2021-01-02T11:01:29.000Z</time>
      </trkpt>
      <trkpt lat="45.23625" lon="6.03687">
        <ele>2388</ele>
        <time>2021-01-02T11:01:32.000Z</time>
      </trkpt>
      <trkpt lat="45.23625" lon="6.03687">
        <ele>2388.3999023438</ele>
        <time>2021-01-02T11:01:39.000Z</time>
      </trkpt>
      <trkpt lat="45.23625" lon="6.03687">
        <ele>2388.8000488281</ele>
        <time>2021-01-02T11:01:42.000Z</time>
      </trkpt>
      <trkpt lat="45.23626" lon="6.03691">
        <ele>2389.3999023438</ele>
        <time>2021-01-02T11:01:45.000Z</time>
      </trkpt>
      <trkpt lat="45.23627" lon="6.03696">
        <ele>2389.8000488281</ele>
        <time>2021-01-02T11:01:48.000Z</time>
      </trkpt>
      <trkpt lat="45.23628" lon="6.037">
        <ele>2390.3999023438</ele>
        <time>2021-01-02T11:01:51.000Z</time>
      </trkpt>
      <trkpt lat="45.23629" lon="6.03702">
        <ele>2390.8000488281</ele>
        <time>2021-01-02T11:01:53.000Z</time>
      </trkpt>
      <trkpt lat="45.23632" lon="6.03708">
        <ele>2391.3999023438</ele>
        <time>2021-01-02T11:01:59.000Z</time>
      </trkpt>
      <trkpt lat="45.23635" lon="6.03711">
        <ele>2391.8000488281</ele>
        <time>2021-01-02T11:02:04.000Z</time>
      </trkpt>
      <trkpt lat="45.23635" lon="6.03711">
        <ele>2392</ele>
        <time>2021-01-02T11:02:05.000Z</time>
      </trkpt>
      <trkpt lat="45.23635" lon="6.03711">
        <ele>2392.1999511719</ele>
        <time>2021-01-02T11:02:15.000Z</time>
      </trkpt>
      <trkpt lat="45.23635" lon="6.03711">
        <ele>2393</ele>
        <time>2021-01-02T11:02:21.000Z</time>
      </trkpt>
      <trkpt lat="45.23635" lon="6.03711">
        <ele>2393.3999023438</ele>
        <time>2021-01-02T11:02:27.000Z</time>
      </trkpt>
      <trkpt lat="45.23636" lon="6.03712">
        <ele>2393.6000976562</ele>
        <time>2021-01-02T11:02:31.000Z</time>
      </trkpt>
      <trkpt lat="45.23642" lon="6.03718">
        <ele>2394</ele>
        <time>2021-01-02T11:02:37.000Z</time>
      </trkpt>
      <trkpt lat="45.23642" lon="6.03718">
        <ele>2394</ele>
        <time>2021-01-02T11:02:38.000Z</time>
      </trkpt>
      <trkpt lat="45.23647" lon="6.03722">
        <ele>2394.1999511719</ele>
        <time>2021-01-02T11:02:42.000Z</time>
      </trkpt>
      <trkpt lat="45.23649" lon="6.03726">
        <ele>2394.8000488281</ele>
        <time>2021-01-02T11:02:47.000Z</time>
      </trkpt>
      <trkpt lat="45.23649" lon="6.03726">
        <ele>2395</ele>
        <time>2021-01-02T11:02:50.000Z</time>
      </trkpt>
      <trkpt lat="45.23649" lon="6.03726">
        <ele>2395.6000976562</ele>
        <time>2021-01-02T11:02:55.000Z</time>
      </trkpt>
      <trkpt lat="45.23649" lon="6.03726">
        <ele>2395.8000488281</ele>
        <time>2021-01-02T11:03:02.000Z</time>
      </trkpt>
      <trkpt lat="45.23649" lon="6.03728">
        <ele>2396</ele>
        <time>2021-01-02T11:03:04.000Z</time>
      </trkpt>
      <trkpt lat="45.23649" lon="6.03729">
        <ele>2396.3999023438</ele>
        <time>2021-01-02T11:03:08.000Z</time>
      </trkpt>
      <trkpt lat="45.23649" lon="6.0373">
        <ele>2397.1999511719</ele>
        <time>2021-01-02T11:03:12.000Z</time>
      </trkpt>
      <trkpt lat="45.23649" lon="6.03732">
        <ele>2397.1999511719</ele>
        <time>2021-01-02T11:03:14.000Z</time>
      </trkpt>
      <trkpt lat="45.23646" lon="6.03734">
        <ele>2397.8000488281</ele>
        <time>2021-01-02T11:03:20.000Z</time>
      </trkpt>
      <trkpt lat="45.23645" lon="6.03736">
        <ele>2398.1999511719</ele>
        <time>2021-01-02T11:03:24.000Z</time>
      </trkpt>
      <trkpt lat="45.23643" lon="6.03738">
        <ele>2398.6000976562</ele>
        <time>2021-01-02T11:03:26.000Z</time>
      </trkpt>
      <trkpt lat="45.23642" lon="6.03738">
        <ele>2399.3999023438</ele>
        <time>2021-01-02T11:03:32.000Z</time>
      </trkpt>
      <trkpt lat="45.23642" lon="6.03738">
        <ele>2399.6000976562</ele>
        <time>2021-01-02T11:03:41.000Z</time>
      </trkpt>
      <trkpt lat="45.23642" lon="6.03739">
        <ele>2399.8000488281</ele>
        <time>2021-01-02T11:03:51.000Z</time>
      </trkpt>
      <trkpt lat="45.23642" lon="6.03738">
        <ele>2400.3999023438</ele>
        <time>2021-01-02T11:03:55.000Z</time>
      </trkpt>
      <trkpt lat="45.23642" lon="6.03738">
        <ele>2400.8000488281</ele>
        <time>2021-01-02T11:03:57.000Z</time>
      </trkpt>
      <trkpt lat="45.23642" lon="6.03738">
        <ele>2401.3999023438</ele>
        <time>2021-01-02T11:04:04.000Z</time>
      </trkpt>
      <trkpt lat="45.23642" lon="6.03738">
        <ele>2402</ele>
        <time>2021-01-02T11:04:10.000Z</time>
      </trkpt>
      <trkpt lat="45.23642" lon="6.03738">
        <ele>2402.6000976562</ele>
        <time>2021-01-02T11:04:13.000Z</time>
      </trkpt>
      <trkpt lat="45.23642" lon="6.03738">
        <ele>2402.8000488281</ele>
        <time>2021-01-02T11:04:15.000Z</time>
      </trkpt>
      <trkpt lat="45.23642" lon="6.0374">
        <ele>2403.3999023438</ele>
        <time>2021-01-02T11:04:20.000Z</time>
      </trkpt>
      <trkpt lat="45.23642" lon="6.03741">
        <ele>2403.6000976562</ele>
        <time>2021-01-02T11:04:21.000Z</time>
      </trkpt>
      <trkpt lat="45.23643" lon="6.03744">
        <ele>2404.3999023438</ele>
        <time>2021-01-02T11:04:25.000Z</time>
      </trkpt>
      <trkpt lat="45.23644" lon="6.03745">
        <ele>2404.8000488281</ele>
        <time>2021-01-02T11:04:28.000Z</time>
      </trkpt>
      <trkpt lat="45.23644" lon="6.03746">
        <ele>2405</ele>
        <time>2021-01-02T11:04:31.000Z</time>
      </trkpt>
      <trkpt lat="45.23645" lon="6.03748">
        <ele>2405.1999511719</ele>
        <time>2021-01-02T11:04:39.000Z</time>
      </trkpt>
      <trkpt lat="45.2365" lon="6.03751">
        <ele>2405.8000488281</ele>
        <time>2021-01-02T11:04:45.000Z</time>
      </trkpt>
      <trkpt lat="45.23656" lon="6.03753">
        <ele>2406.3999023438</ele>
        <time>2021-01-02T11:04:51.000Z</time>
      </trkpt>
      <trkpt lat="45.23657" lon="6.03753">
        <ele>2407</ele>
        <time>2021-01-02T11:04:56.000Z</time>
      </trkpt>
      <trkpt lat="45.23657" lon="6.03754">
        <ele>2407.3999023438</ele>
        <time>2021-01-02T11:04:58.000Z</time>
      </trkpt>
      <trkpt lat="45.23657" lon="6.03755">
        <ele>2407.6000976562</ele>
        <time>2021-01-02T11:05:03.000Z</time>
      </trkpt>
      <trkpt lat="45.23657" lon="6.03757">
        <ele>2408.1999511719</ele>
        <time>2021-01-02T11:05:09.000Z</time>
      </trkpt>
      <trkpt lat="45.23658" lon="6.03758">
        <ele>2408.8000488281</ele>
        <time>2021-01-02T11:05:14.000Z</time>
      </trkpt>
      <trkpt lat="45.23659" lon="6.03759">
        <ele>2409.1999511719</ele>
        <time>2021-01-02T11:05:18.000Z</time>
      </trkpt>
      <trkpt lat="45.23661" lon="6.0376">
        <ele>2409.6000976562</ele>
        <time>2021-01-02T11:05:21.000Z</time>
      </trkpt>
      <trkpt lat="45.23661" lon="6.03761">
        <ele>2410.1999511719</ele>
        <time>2021-01-02T11:05:24.000Z</time>
      </trkpt>
      <trkpt lat="45.23661" lon="6.03761">
        <ele>2411</ele>
        <time>2021-01-02T11:05:27.000Z</time>
      </trkpt>
      <trkpt lat="45.23661" lon="6.03761">
        <ele>2411.1999511719</ele>
        <time>2021-01-02T11:05:38.000Z</time>
      </trkpt>
      <trkpt lat="45.23661" lon="6.03761">
        <ele>2410.8000488281</ele>
        <time>2021-01-02T11:05:48.000Z</time>
      </trkpt>
      <trkpt lat="45.23662" lon="6.03762">
        <ele>2411</ele>
        <time>2021-01-02T11:05:52.000Z</time>
      </trkpt>
      <trkpt lat="45.23664" lon="6.03763">
        <ele>2411.1999511719</ele>
        <time>2021-01-02T11:05:54.000Z</time>
      </trkpt>
      <trkpt lat="45.23665" lon="6.03764">
        <ele>2411.3999023438</ele>
        <time>2021-01-02T11:05:56.000Z</time>
      </trkpt>
      <trkpt lat="45.23667" lon="6.03767">
        <ele>2412</ele>
        <time>2021-01-02T11:06:02.000Z</time>
      </trkpt>
      <trkpt lat="45.23667" lon="6.03767">
        <ele>2412.6000976562</ele>
        <time>2021-01-02T11:06:06.000Z</time>
      </trkpt>
      <trkpt lat="45.23667" lon="6.03766">
        <ele>2413</ele>
        <time>2021-01-02T11:06:08.000Z</time>
      </trkpt>
      <trkpt lat="45.23667" lon="6.03766">
        <ele>2413.1999511719</ele>
        <time>2021-01-02T11:06:14.000Z</time>
      </trkpt>
      <trkpt lat="45.23668" lon="6.03769">
        <ele>2413.1999511719</ele>
        <time>2021-01-02T11:06:17.000Z</time>
      </trkpt>
      <trkpt lat="45.2367" lon="6.03772">
        <ele>2413.1999511719</ele>
        <time>2021-01-02T11:06:20.000Z</time>
      </trkpt>
      <trkpt lat="45.23675" lon="6.03777">
        <ele>2413.3999023438</ele>
        <time>2021-01-02T11:06:27.000Z</time>
      </trkpt>
      <trkpt lat="45.23676" lon="6.03779">
        <ele>2413.6000976562</ele>
        <time>2021-01-02T11:06:32.000Z</time>
      </trkpt>
      <trkpt lat="45.23676" lon="6.03779">
        <ele>2413.8000488281</ele>
        <time>2021-01-02T11:06:33.000Z</time>
      </trkpt>
      <trkpt lat="45.23676" lon="6.03779">
        <ele>2414.6000976562</ele>
        <time>2021-01-02T11:06:40.000Z</time>
      </trkpt>
      <trkpt lat="45.23676" lon="6.03779">
        <ele>2414.8000488281</ele>
        <time>2021-01-02T11:06:41.000Z</time>
      </trkpt>
      <trkpt lat="45.23676" lon="6.03779">
        <ele>2415.1999511719</ele>
        <time>2021-01-02T11:06:45.000Z</time>
      </trkpt>
      <trkpt lat="45.23676" lon="6.03779">
        <ele>2415.6000976562</ele>
        <time>2021-01-02T11:06:56.000Z</time>
      </trkpt>
      <trkpt lat="45.23676" lon="6.03779">
        <ele>2415.8000488281</ele>
        <time>2021-01-02T11:07:01.000Z</time>
      </trkpt>
      <trkpt lat="45.23677" lon="6.03781">
        <ele>2415.8000488281</ele>
        <time>2021-01-02T11:07:02.000Z</time>
      </trkpt>
      <trkpt lat="45.23682" lon="6.03789">
        <ele>2416.6000976562</ele>
        <time>2021-01-02T11:07:09.000Z</time>
      </trkpt>
      <trkpt lat="45.23683" lon="6.03791">
        <ele>2416.8000488281</ele>
        <time>2021-01-02T11:07:11.000Z</time>
      </trkpt>
      <trkpt lat="45.23684" lon="6.03793">
        <ele>2417.1999511719</ele>
        <time>2021-01-02T11:07:15.000Z</time>
      </trkpt>
      <trkpt lat="45.23684" lon="6.03793">
        <ele>2418</ele>
        <time>2021-01-02T11:07:20.000Z</time>
      </trkpt>
      <trkpt lat="45.23684" lon="6.03793">
        <ele>2418</ele>
        <time>2021-01-02T11:07:24.000Z</time>
      </trkpt>
      <trkpt lat="45.23684" lon="6.03794">
        <ele>2418.1999511719</ele>
        <time>2021-01-02T11:07:31.000Z</time>
      </trkpt>
      <trkpt lat="45.23688" lon="6.03797">
        <ele>2418.3999023438</ele>
        <time>2021-01-02T11:07:37.000Z</time>
      </trkpt>
      <trkpt lat="45.23691" lon="6.03798">
        <ele>2419</ele>
        <time>2021-01-02T11:07:43.000Z</time>
      </trkpt>
      <trkpt lat="45.23694" lon="6.03798">
        <ele>2419.8000488281</ele>
        <time>2021-01-02T11:07:49.000Z</time>
      </trkpt>
      <trkpt lat="45.23694" lon="6.03798">
        <ele>2420</ele>
        <time>2021-01-02T11:07:55.000Z</time>
      </trkpt>
      <trkpt lat="45.23694" lon="6.03798">
        <ele>2420</ele>
        <time>2021-01-02T11:07:56.000Z</time>
      </trkpt>
      <trkpt lat="45.23694" lon="6.03799">
        <ele>2420.1999511719</ele>
        <time>2021-01-02T11:08:02.000Z</time>
      </trkpt>
      <trkpt lat="45.23694" lon="6.03799">
        <ele>2420.1999511719</ele>
        <time>2021-01-02T11:08:10.000Z</time>
      </trkpt>
      <trkpt lat="45.23695" lon="6.03799">
        <ele>2420.1999511719</ele>
        <time>2021-01-02T11:08:19.000Z</time>
      </trkpt>
      <trkpt lat="45.23694" lon="6.03801">
        <ele>2420.1999511719</ele>
        <time>2021-01-02T11:08:25.000Z</time>
      </trkpt>
      <trkpt lat="45.23693" lon="6.03804">
        <ele>2420.8000488281</ele>
        <time>2021-01-02T11:08:31.000Z</time>
      </trkpt>
      <trkpt lat="45.23693" lon="6.03806">
        <ele>2421.1999511719</ele>
        <time>2021-01-02T11:08:35.000Z</time>
      </trkpt>
      <trkpt lat="45.23692" lon="6.03806">
        <ele>2421.1999511719</ele>
        <time>2021-01-02T11:08:36.000Z</time>
      </trkpt>
      <trkpt lat="45.23692" lon="6.03807">
        <ele>2421.8000488281</ele>
        <time>2021-01-02T11:08:42.000Z</time>
      </trkpt>
      <trkpt lat="45.23692" lon="6.03807">
        <ele>2422.1999511719</ele>
        <time>2021-01-02T11:08:45.000Z</time>
      </trkpt>
      <trkpt lat="45.23692" lon="6.03808">
        <ele>2422.3999023438</ele>
        <time>2021-01-02T11:08:48.000Z</time>
      </trkpt>
      <trkpt lat="45.23691" lon="6.03808">
        <ele>2423</ele>
        <time>2021-01-02T11:08:55.000Z</time>
      </trkpt>
      <trkpt lat="45.23691" lon="6.03808">
        <ele>2423</ele>
        <time>2021-01-02T11:09:04.000Z</time>
      </trkpt>
      <trkpt lat="45.23691" lon="6.03809">
        <ele>2423.1999511719</ele>
        <time>2021-01-02T11:09:10.000Z</time>
      </trkpt>
      <trkpt lat="45.23691" lon="6.03809">
        <ele>2423.1999511719</ele>
        <time>2021-01-02T11:09:11.000Z</time>
      </trkpt>
      <trkpt lat="45.23691" lon="6.03809">
        <ele>2423.3999023438</ele>
        <time>2021-01-02T11:09:19.000Z</time>
      </trkpt>
      <trkpt lat="45.23691" lon="6.03809">
        <ele>2423.3999023438</ele>
        <time>2021-01-02T11:09:29.000Z</time>
      </trkpt>
      <trkpt lat="45.23691" lon="6.0381">
        <ele>2423.6000976562</ele>
        <time>2021-01-02T11:09:33.000Z</time>
      </trkpt>
      <trkpt lat="45.23692" lon="6.03811">
        <ele>2424</ele>
        <time>2021-01-02T11:09:39.000Z</time>
      </trkpt>
      <trkpt lat="45.23696" lon="6.03811">
        <ele>2424.3999023438</ele>
        <time>2021-01-02T11:09:44.000Z</time>
      </trkpt>
      <trkpt lat="45.23696" lon="6.03812">
        <ele>2424.8000488281</ele>
        <time>2021-01-02T11:09:46.000Z</time>
      </trkpt>
      <trkpt lat="45.23697" lon="6.03812">
        <ele>2425.3999023438</ele>
        <time>2021-01-02T11:09:50.000Z</time>
      </trkpt>
      <trkpt lat="45.23697" lon="6.03812">
        <ele>2426.1999511719</ele>
        <time>2021-01-02T11:09:54.000Z</time>
      </trkpt>
      <trkpt lat="45.23698" lon="6.03812">
        <ele>2426.3999023438</ele>
        <time>2021-01-02T11:10:02.000Z</time>
      </trkpt>
      <trkpt lat="45.23698" lon="6.03811">
        <ele>2426.6000976562</ele>
        <time>2021-01-02T11:10:04.000Z</time>
      </trkpt>
      <trkpt lat="45.23698" lon="6.03811">
        <ele>2427</ele>
        <time>2021-01-02T11:10:09.000Z</time>
      </trkpt>
      <trkpt lat="45.23698" lon="6.03814">
        <ele>2427.1999511719</ele>
        <time>2021-01-02T11:10:15.000Z</time>
      </trkpt>
      <trkpt lat="45.23699" lon="6.03815">
        <ele>2427.6000976562</ele>
        <time>2021-01-02T11:10:19.000Z</time>
      </trkpt>
      <trkpt lat="45.23698" lon="6.03817">
        <ele>2428</ele>
        <time>2021-01-02T11:10:21.000Z</time>
      </trkpt>
      <trkpt lat="45.23697" lon="6.03819">
        <ele>2428.8000488281</ele>
        <time>2021-01-02T11:10:26.000Z</time>
      </trkpt>
      <trkpt lat="45.23696" lon="6.0382">
        <ele>2429.1999511719</ele>
        <time>2021-01-02T11:10:29.000Z</time>
      </trkpt>
      <trkpt lat="45.23695" lon="6.03822">
        <ele>2429.8000488281</ele>
        <time>2021-01-02T11:10:34.000Z</time>
      </trkpt>
      <trkpt lat="45.23695" lon="6.03822">
        <ele>2430</ele>
        <time>2021-01-02T11:10:36.000Z</time>
      </trkpt>
      <trkpt lat="45.23694" lon="6.03822">
        <ele>2430.6000976562</ele>
        <time>2021-01-02T11:10:44.000Z</time>
      </trkpt>
      <trkpt lat="45.23694" lon="6.03822">
        <ele>2430.6000976562</ele>
        <time>2021-01-02T11:10:59.000Z</time>
      </trkpt>
      <trkpt lat="45.23692" lon="6.03824">
        <ele>2430.8000488281</ele>
        <time>2021-01-02T11:11:06.000Z</time>
      </trkpt>
      <trkpt lat="45.23692" lon="6.03824">
        <ele>2431</ele>
        <time>2021-01-02T11:11:08.000Z</time>
      </trkpt>
      <trkpt lat="45.23692" lon="6.03824">
        <ele>2431.3999023438</ele>
        <time>2021-01-02T11:11:12.000Z</time>
      </trkpt>
      <trkpt lat="45.23692" lon="6.03824">
        <ele>2431.6000976562</ele>
        <time>2021-01-02T11:11:17.000Z</time>
      </trkpt>
      <trkpt lat="45.23692" lon="6.03825">
        <ele>2431.8000488281</ele>
        <time>2021-01-02T11:11:24.000Z</time>
      </trkpt>
      <trkpt lat="45.23693" lon="6.03826">
        <ele>2432</ele>
        <time>2021-01-02T11:11:28.000Z</time>
      </trkpt>
      <trkpt lat="45.23694" lon="6.03827">
        <ele>2432.1999511719</ele>
        <time>2021-01-02T11:11:31.000Z</time>
      </trkpt>
      <trkpt lat="45.23696" lon="6.03828">
        <ele>2433</ele>
        <time>2021-01-02T11:11:38.000Z</time>
      </trkpt>
      <trkpt lat="45.23696" lon="6.03829">
        <ele>2433.6000976562</ele>
        <time>2021-01-02T11:11:49.000Z</time>
      </trkpt>
      <trkpt lat="45.23701" lon="6.0383">
        <ele>2434</ele>
        <time>2021-01-02T11:11:57.000Z</time>
      </trkpt>
      <trkpt lat="45.23702" lon="6.0383">
        <ele>2434.1999511719</ele>
        <time>2021-01-02T11:11:58.000Z</time>
      </trkpt>
      <trkpt lat="45.23702" lon="6.0383">
        <ele>2435</ele>
        <time>2021-01-02T11:12:04.000Z</time>
      </trkpt>
      <trkpt lat="45.23702" lon="6.0383">
        <ele>2435.1999511719</ele>
        <time>2021-01-02T11:12:10.000Z</time>
      </trkpt>
      <trkpt lat="45.23702" lon="6.0383">
        <ele>2435.1999511719</ele>
        <time>2021-01-02T11:12:15.000Z</time>
      </trkpt>
      <trkpt lat="45.23703" lon="6.0383">
        <ele>2435.6000976562</ele>
        <time>2021-01-02T11:12:24.000Z</time>
      </trkpt>
      <trkpt lat="45.23703" lon="6.0383">
        <ele>2436.1999511719</ele>
        <time>2021-01-02T11:12:33.000Z</time>
      </trkpt>
      <trkpt lat="45.23703" lon="6.0383">
        <ele>2436.1999511719</ele>
        <time>2021-01-02T11:12:38.000Z</time>
      </trkpt>
      <trkpt lat="45.23703" lon="6.0383">
        <ele>2436.3999023438</ele>
        <time>2021-01-02T11:12:40.000Z</time>
      </trkpt>
      <trkpt lat="45.23703" lon="6.03832">
        <ele>2436.6000976562</ele>
        <time>2021-01-02T11:12:47.000Z</time>
      </trkpt>
      <trkpt lat="45.23704" lon="6.03833">
        <ele>2437.3999023438</ele>
        <time>2021-01-02T11:12:52.000Z</time>
      </trkpt>
      <trkpt lat="45.23704" lon="6.03833">
        <ele>2437.8000488281</ele>
        <time>2021-01-02T11:12:54.000Z</time>
      </trkpt>
      <trkpt lat="45.23704" lon="6.03835">
        <ele>2438.1999511719</ele>
        <time>2021-01-02T11:13:06.000Z</time>
      </trkpt>
      <trkpt lat="45.23703" lon="6.03835">
        <ele>2438.3999023438</ele>
        <time>2021-01-02T11:13:10.000Z</time>
      </trkpt>
      <trkpt lat="45.23703" lon="6.03835">
        <ele>2438.8000488281</ele>
        <time>2021-01-02T11:13:12.000Z</time>
      </trkpt>
      <trkpt lat="45.23703" lon="6.03836">
        <ele>2439.3999023438</ele>
        <time>2021-01-02T11:13:18.000Z</time>
      </trkpt>
      <trkpt lat="45.23704" lon="6.03837">
        <ele>2439.3999023438</ele>
        <time>2021-01-02T11:13:25.000Z</time>
      </trkpt>
      <trkpt lat="45.23704" lon="6.03837">
        <ele>2439.3999023438</ele>
        <time>2021-01-02T11:13:27.000Z</time>
      </trkpt>
      <trkpt lat="45.23706" lon="6.03838">
        <ele>2439.8000488281</ele>
        <time>2021-01-02T11:13:31.000Z</time>
      </trkpt>
      <trkpt lat="45.23708" lon="6.03838">
        <ele>2440.6000976562</ele>
        <time>2021-01-02T11:13:35.000Z</time>
      </trkpt>
      <trkpt lat="45.2371" lon="6.03838">
        <ele>2441</ele>
        <time>2021-01-02T11:13:38.000Z</time>
      </trkpt>
      <trkpt lat="45.23711" lon="6.03838">
        <ele>2441.6000976562</ele>
        <time>2021-01-02T11:13:41.000Z</time>
      </trkpt>
      <trkpt lat="45.23712" lon="6.03836">
        <ele>2442.3999023438</ele>
        <time>2021-01-02T11:13:44.000Z</time>
      </trkpt>
      <trkpt lat="45.23713" lon="6.03835">
        <ele>2442.8000488281</ele>
        <time>2021-01-02T11:13:46.000Z</time>
      </trkpt>
      <trkpt lat="45.23714" lon="6.03834">
        <ele>2443.6000976562</ele>
        <time>2021-01-02T11:13:50.000Z</time>
      </trkpt>
      <trkpt lat="45.23714" lon="6.03834">
        <ele>2443.8000488281</ele>
        <time>2021-01-02T11:13:52.000Z</time>
      </trkpt>
      <trkpt lat="45.23714" lon="6.03834">
        <ele>2444.3999023438</ele>
        <time>2021-01-02T11:13:59.000Z</time>
      </trkpt>
      <trkpt lat="45.23715" lon="6.03833">
        <ele>2444.3999023438</ele>
        <time>2021-01-02T11:14:13.000Z</time>
      </trkpt>
      <trkpt lat="45.23716" lon="6.03834">
        <ele>2445</ele>
        <time>2021-01-02T11:14:18.000Z</time>
      </trkpt>
      <trkpt lat="45.23716" lon="6.03835">
        <ele>2445</ele>
        <time>2021-01-02T11:14:19.000Z</time>
      </trkpt>
      <trkpt lat="45.23717" lon="6.0384">
        <ele>2446</ele>
        <time>2021-01-02T11:14:24.000Z</time>
      </trkpt>
      <trkpt lat="45.23717" lon="6.03841">
        <ele>2446.1999511719</ele>
        <time>2021-01-02T11:14:25.000Z</time>
      </trkpt>
      <trkpt lat="45.23717" lon="6.03844">
        <ele>2447.1999511719</ele>
        <time>2021-01-02T11:14:30.000Z</time>
      </trkpt>
      <trkpt lat="45.23717" lon="6.03844">
        <ele>2447.3999023438</ele>
        <time>2021-01-02T11:14:31.000Z</time>
      </trkpt>
      <trkpt lat="45.23717" lon="6.03845">
        <ele>2448.1999511719</ele>
        <time>2021-01-02T11:14:37.000Z</time>
      </trkpt>
      <trkpt lat="45.23717" lon="6.03845">
        <ele>2448.3999023438</ele>
        <time>2021-01-02T11:14:54.000Z</time>
      </trkpt>
      <trkpt lat="45.23717" lon="6.03845">
        <ele>2448.1999511719</ele>
        <time>2021-01-02T11:15:10.000Z</time>
      </trkpt>
      <trkpt lat="45.23718" lon="6.03845">
        <ele>2448.1999511719</ele>
        <time>2021-01-02T11:15:25.000Z</time>
      </trkpt>
      <trkpt lat="45.23718" lon="6.03845">
        <ele>2448.1999511719</ele>
        <time>2021-01-02T11:15:42.000Z</time>
      </trkpt>
      <trkpt lat="45.23717" lon="6.03844">
        <ele>2448.1999511719</ele>
        <time>2021-01-02T11:15:53.000Z</time>
      </trkpt>
      <trkpt lat="45.23717" lon="6.03846">
        <ele>2448.3999023438</ele>
        <time>2021-01-02T11:16:14.000Z</time>
      </trkpt>
      <trkpt lat="45.23716" lon="6.03853">
        <ele>2449</ele>
        <time>2021-01-02T11:16:22.000Z</time>
      </trkpt>
      <trkpt lat="45.23714" lon="6.03854">
        <ele>2449.1999511719</ele>
        <time>2021-01-02T11:16:24.000Z</time>
      </trkpt>
      <trkpt lat="45.23712" lon="6.03855">
        <ele>2450</ele>
        <time>2021-01-02T11:16:28.000Z</time>
      </trkpt>
      <trkpt lat="45.23711" lon="6.03856">
        <ele>2450.3999023438</ele>
        <time>2021-01-02T11:16:31.000Z</time>
      </trkpt>
      <trkpt lat="45.23709" lon="6.03857">
        <ele>2451.3999023438</ele>
        <time>2021-01-02T11:16:35.000Z</time>
      </trkpt>
      <trkpt lat="45.23709" lon="6.03857">
        <ele>2451.6000976562</ele>
        <time>2021-01-02T11:16:36.000Z</time>
      </trkpt>
      <trkpt lat="45.2371" lon="6.03857">
        <ele>2452</ele>
        <time>2021-01-02T11:16:39.000Z</time>
      </trkpt>
      <trkpt lat="45.2371" lon="6.03857">
        <ele>2452</ele>
        <time>2021-01-02T11:16:40.000Z</time>
      </trkpt>
      <trkpt lat="45.23712" lon="6.03858">
        <ele>2452.1999511719</ele>
        <time>2021-01-02T11:16:45.000Z</time>
      </trkpt>
      <trkpt lat="45.23713" lon="6.03858">
        <ele>2452.1999511719</ele>
        <time>2021-01-02T11:16:46.000Z</time>
      </trkpt>
      <trkpt lat="45.23716" lon="6.03859">
        <ele>2452.6000976562</ele>
        <time>2021-01-02T11:16:50.000Z</time>
      </trkpt>
      <trkpt lat="45.23716" lon="6.0386">
        <ele>2452.8000488281</ele>
        <time>2021-01-02T11:16:51.000Z</time>
      </trkpt>
      <trkpt lat="45.23719" lon="6.03861">
        <ele>2453.8000488281</ele>
        <time>2021-01-02T11:16:56.000Z</time>
      </trkpt>
      <trkpt lat="45.2372" lon="6.03861">
        <ele>2454</ele>
        <time>2021-01-02T11:16:57.000Z</time>
      </trkpt>
      <trkpt lat="45.23721" lon="6.03861">
        <ele>2454.8000488281</ele>
        <time>2021-01-02T11:17:01.000Z</time>
      </trkpt>
      <trkpt lat="45.23724" lon="6.03862">
        <ele>2455.3999023438</ele>
        <time>2021-01-02T11:17:06.000Z</time>
      </trkpt>
      <trkpt lat="45.23725" lon="6.03862">
        <ele>2456</ele>
        <time>2021-01-02T11:17:09.000Z</time>
      </trkpt>
      <trkpt lat="45.23726" lon="6.03861">
        <ele>2456.3999023438</ele>
        <time>2021-01-02T11:17:13.000Z</time>
      </trkpt>
      <trkpt lat="45.23727" lon="6.03862">
        <ele>2457</ele>
        <time>2021-01-02T11:17:16.000Z</time>
      </trkpt>
      <trkpt lat="45.23727" lon="6.03862">
        <ele>2457.3999023438</ele>
        <time>2021-01-02T11:17:20.000Z</time>
      </trkpt>
      <trkpt lat="45.23727" lon="6.03862">
        <ele>2457.8000488281</ele>
        <time>2021-01-02T11:17:28.000Z</time>
      </trkpt>
      <trkpt lat="45.23727" lon="6.03862">
        <ele>2457.8000488281</ele>
        <time>2021-01-02T11:17:40.000Z</time>
      </trkpt>
      <trkpt lat="45.23727" lon="6.03866">
        <ele>2458</ele>
        <time>2021-01-02T11:17:50.000Z</time>
      </trkpt>
      <trkpt lat="45.23727" lon="6.03867">
        <ele>2458</ele>
        <time>2021-01-02T11:17:51.000Z</time>
      </trkpt>
      <trkpt lat="45.23724" lon="6.0387">
        <ele>2459.1999511719</ele>
        <time>2021-01-02T11:17:56.000Z</time>
      </trkpt>
      <trkpt lat="45.23723" lon="6.03871">
        <ele>2459.6000976562</ele>
        <time>2021-01-02T11:17:58.000Z</time>
      </trkpt>
      <trkpt lat="45.23722" lon="6.03873">
        <ele>2460.3999023438</ele>
        <time>2021-01-02T11:18:01.000Z</time>
      </trkpt>
      <trkpt lat="45.23721" lon="6.03874">
        <ele>2461.3999023438</ele>
        <time>2021-01-02T11:18:06.000Z</time>
      </trkpt>
      <trkpt lat="45.2372" lon="6.03874">
        <ele>2461.6000976562</ele>
        <time>2021-01-02T11:18:07.000Z</time>
      </trkpt>
      <trkpt lat="45.2372" lon="6.03875">
        <ele>2462.6000976562</ele>
        <time>2021-01-02T11:18:10.000Z</time>
      </trkpt>
      <trkpt lat="45.23718" lon="6.03877">
        <ele>2463.3999023438</ele>
        <time>2021-01-02T11:18:14.000Z</time>
      </trkpt>
      <trkpt lat="45.23718" lon="6.03878">
        <ele>2463.6000976562</ele>
        <time>2021-01-02T11:18:15.000Z</time>
      </trkpt>
      <trkpt lat="45.23717" lon="6.03879">
        <ele>2464.6000976562</ele>
        <time>2021-01-02T11:18:19.000Z</time>
      </trkpt>
      <trkpt lat="45.23717" lon="6.03879">
        <ele>2465</ele>
        <time>2021-01-02T11:18:21.000Z</time>
      </trkpt>
      <trkpt lat="45.23717" lon="6.03879">
        <ele>2465.6000976562</ele>
        <time>2021-01-02T11:18:33.000Z</time>
      </trkpt>
      <trkpt lat="45.23716" lon="6.0388">
        <ele>2465.6000976562</ele>
        <time>2021-01-02T11:18:34.000Z</time>
      </trkpt>
      <trkpt lat="45.23712" lon="6.03885">
        <ele>2466.8000488281</ele>
        <time>2021-01-02T11:18:41.000Z</time>
      </trkpt>
      <trkpt lat="45.23712" lon="6.03887">
        <ele>2467.3999023438</ele>
        <time>2021-01-02T11:18:43.000Z</time>
      </trkpt>
      <trkpt lat="45.23712" lon="6.03889">
        <ele>2467.8000488281</ele>
        <time>2021-01-02T11:18:45.000Z</time>
      </trkpt>
      <trkpt lat="45.23712" lon="6.03892">
        <ele>2468.3999023438</ele>
        <time>2021-01-02T11:18:50.000Z</time>
      </trkpt>
      <trkpt lat="45.23714" lon="6.03896">
        <ele>2468.6000976562</ele>
        <time>2021-01-02T11:18:54.000Z</time>
      </trkpt>
      <trkpt lat="45.23714" lon="6.03897">
        <ele>2468.6000976562</ele>
        <time>2021-01-02T11:18:55.000Z</time>
      </trkpt>
      <trkpt lat="45.23715" lon="6.03898">
        <ele>2468.8000488281</ele>
        <time>2021-01-02T11:18:56.000Z</time>
      </trkpt>
      <trkpt lat="45.23715" lon="6.03899">
        <ele>2469</ele>
        <time>2021-01-02T11:18:57.000Z</time>
      </trkpt>
      <trkpt lat="45.23715" lon="6.039">
        <ele>2469</ele>
        <time>2021-01-02T11:19:00.000Z</time>
      </trkpt>
      <trkpt lat="45.23717" lon="6.03902">
        <ele>2469.3999023438</ele>
        <time>2021-01-02T11:19:06.000Z</time>
      </trkpt>
      <trkpt lat="45.23717" lon="6.03902">
        <ele>2469.6000976562</ele>
        <time>2021-01-02T11:19:09.000Z</time>
      </trkpt>
      <trkpt lat="45.23718" lon="6.03903">
        <ele>2469.8000488281</ele>
        <time>2021-01-02T11:19:11.000Z</time>
      </trkpt>
      <trkpt lat="45.23718" lon="6.03903">
        <ele>2470</ele>
        <time>2021-01-02T11:19:12.000Z</time>
      </trkpt>
      <trkpt lat="45.23718" lon="6.03904">
        <ele>2470.6000976562</ele>
        <time>2021-01-02T11:19:17.000Z</time>
      </trkpt>
      <trkpt lat="45.23719" lon="6.03904">
        <ele>2470.8000488281</ele>
        <time>2021-01-02T11:19:25.000Z</time>
      </trkpt>
      <trkpt lat="45.2372" lon="6.03904">
        <ele>2470.8000488281</ele>
        <time>2021-01-02T11:19:26.000Z</time>
      </trkpt>
      <trkpt lat="45.23721" lon="6.03905">
        <ele>2471</ele>
        <time>2021-01-02T11:19:29.000Z</time>
      </trkpt>
      <trkpt lat="45.23721" lon="6.03905">
        <ele>2471.1999511719</ele>
        <time>2021-01-02T11:19:30.000Z</time>
      </trkpt>
      <trkpt lat="45.23722" lon="6.03904">
        <ele>2471.8000488281</ele>
        <time>2021-01-02T11:19:36.000Z</time>
      </trkpt>
      <trkpt lat="45.23722" lon="6.03905">
        <ele>2472.1999511719</ele>
        <time>2021-01-02T11:19:38.000Z</time>
      </trkpt>
      <trkpt lat="45.23722" lon="6.03905">
        <ele>2472.3999023438</ele>
        <time>2021-01-02T11:19:41.000Z</time>
      </trkpt>
      <trkpt lat="45.23722" lon="6.03905">
        <ele>2472.8000488281</ele>
        <time>2021-01-02T11:19:46.000Z</time>
      </trkpt>
      <trkpt lat="45.23722" lon="6.03906">
        <ele>2473.3999023438</ele>
        <time>2021-01-02T11:19:51.000Z</time>
      </trkpt>
      <trkpt lat="45.23722" lon="6.03906">
        <ele>2473.3999023438</ele>
        <time>2021-01-02T11:19:52.000Z</time>
      </trkpt>
      <trkpt lat="45.23721" lon="6.03907">
        <ele>2474</ele>
        <time>2021-01-02T11:19:57.000Z</time>
      </trkpt>
      <trkpt lat="45.2372" lon="6.03908">
        <ele>2474.3999023438</ele>
        <time>2021-01-02T11:20:01.000Z</time>
      </trkpt>
      <trkpt lat="45.2372" lon="6.03909">
        <ele>2474.3999023438</ele>
        <time>2021-01-02T11:20:03.000Z</time>
      </trkpt>
      <trkpt lat="45.23719" lon="6.0391">
        <ele>2475</ele>
        <time>2021-01-02T11:20:08.000Z</time>
      </trkpt>
      <trkpt lat="45.23719" lon="6.0391">
        <ele>2475.3999023438</ele>
        <time>2021-01-02T11:20:12.000Z</time>
      </trkpt>
      <trkpt lat="45.23719" lon="6.0391">
        <ele>2475.3999023438</ele>
        <time>2021-01-02T11:20:17.000Z</time>
      </trkpt>
      <trkpt lat="45.23718" lon="6.0391">
        <ele>2475.1999511719</ele>
        <time>2021-01-02T11:20:28.000Z</time>
      </trkpt>
      <trkpt lat="45.23715" lon="6.03912">
        <ele>2475.6000976562</ele>
        <time>2021-01-02T11:20:33.000Z</time>
      </trkpt>
      <trkpt lat="45.23716" lon="6.03912">
        <ele>2475.8000488281</ele>
        <time>2021-01-02T11:20:39.000Z</time>
      </trkpt>
      <trkpt lat="45.23716" lon="6.03912">
        <ele>2475.8000488281</ele>
        <time>2021-01-02T11:20:46.000Z</time>
      </trkpt>
      <trkpt lat="45.23716" lon="6.03912">
        <ele>2475.8000488281</ele>
        <time>2021-01-02T11:20:51.000Z</time>
      </trkpt>
      <trkpt lat="45.23717" lon="6.03913">
        <ele>2476</ele>
        <time>2021-01-02T11:20:57.000Z</time>
      </trkpt>
      <trkpt lat="45.2372" lon="6.03914">
        <ele>2476.1999511719</ele>
        <time>2021-01-02T11:21:01.000Z</time>
      </trkpt>
      <trkpt lat="45.2372" lon="6.03914">
        <ele>2476.3999023438</ele>
        <time>2021-01-02T11:21:02.000Z</time>
      </trkpt>
      <trkpt lat="45.2372" lon="6.03914">
        <ele>2476.3999023438</ele>
        <time>2021-01-02T11:21:03.000Z</time>
      </trkpt>
      <trkpt lat="45.23722" lon="6.03914">
        <ele>2476.6000976562</ele>
        <time>2021-01-02T11:21:06.000Z</time>
      </trkpt>
      <trkpt lat="45.23723" lon="6.03914">
        <ele>2476.8000488281</ele>
        <time>2021-01-02T11:21:09.000Z</time>
      </trkpt>
      <trkpt lat="45.23725" lon="6.03914">
        <ele>2477.3999023438</ele>
        <time>2021-01-02T11:21:15.000Z</time>
      </trkpt>
      <trkpt lat="45.23728" lon="6.03913">
        <ele>2477.6000976562</ele>
        <time>2021-01-02T11:21:20.000Z</time>
      </trkpt>
      <trkpt lat="45.23729" lon="6.03913">
        <ele>2478.3999023438</ele>
        <time>2021-01-02T11:21:26.000Z</time>
      </trkpt>
      <trkpt lat="45.2373" lon="6.03912">
        <ele>2478.8000488281</ele>
        <time>2021-01-02T11:21:32.000Z</time>
      </trkpt>
      <trkpt lat="45.2373" lon="6.03912">
        <ele>2479.3999023438</ele>
        <time>2021-01-02T11:21:38.000Z</time>
      </trkpt>
      <trkpt lat="45.2373" lon="6.03912">
        <ele>2479.6000976562</ele>
        <time>2021-01-02T11:21:46.000Z</time>
      </trkpt>
      <trkpt lat="45.2373" lon="6.03912">
        <ele>2479.8000488281</ele>
        <time>2021-01-02T11:21:53.000Z</time>
      </trkpt>
      <trkpt lat="45.2373" lon="6.03913">
        <ele>2479.6000976562</ele>
        <time>2021-01-02T11:22:00.000Z</time>
      </trkpt>
      <trkpt lat="45.2373" lon="6.03913">
        <ele>2479.8000488281</ele>
        <time>2021-01-02T11:22:05.000Z</time>
      </trkpt>
      <trkpt lat="45.23729" lon="6.03914">
        <ele>2480.3999023438</ele>
        <time>2021-01-02T11:22:11.000Z</time>
      </trkpt>
      <trkpt lat="45.23729" lon="6.03914">
        <ele>2480.6000976562</ele>
        <time>2021-01-02T11:22:12.000Z</time>
      </trkpt>
      <trkpt lat="45.23729" lon="6.03915">
        <ele>2480.8000488281</ele>
        <time>2021-01-02T11:22:16.000Z</time>
      </trkpt>
      <trkpt lat="45.23729" lon="6.03915">
        <ele>2481.1999511719</ele>
        <time>2021-01-02T11:22:23.000Z</time>
      </trkpt>
      <trkpt lat="45.2373" lon="6.03915">
        <ele>2481.3999023438</ele>
        <time>2021-01-02T11:22:28.000Z</time>
      </trkpt>
      <trkpt lat="45.2373" lon="6.03916">
        <ele>2481.3999023438</ele>
        <time>2021-01-02T11:22:35.000Z</time>
      </trkpt>
      <trkpt lat="45.23731" lon="6.03916">
        <ele>2481.6000976562</ele>
        <time>2021-01-02T11:22:39.000Z</time>
      </trkpt>
      <trkpt lat="45.23732" lon="6.03915">
        <ele>2481.6000976562</ele>
        <time>2021-01-02T11:22:41.000Z</time>
      </trkpt>
      <trkpt lat="45.23733" lon="6.03915">
        <ele>2481.8000488281</ele>
        <time>2021-01-02T11:22:46.000Z</time>
      </trkpt>
      <trkpt lat="45.23735" lon="6.03913">
        <ele>2482.3999023438</ele>
        <time>2021-01-02T11:22:52.000Z</time>
      </trkpt>
      <trkpt lat="45.23735" lon="6.03913">
        <ele>2482.6000976562</ele>
        <time>2021-01-02T11:22:55.000Z</time>
      </trkpt>
      <trkpt lat="45.23735" lon="6.03913">
        <ele>2483</ele>
        <time>2021-01-02T11:22:59.000Z</time>
      </trkpt>
      <trkpt lat="45.23735" lon="6.03913">
        <ele>2483.1999511719</ele>
        <time>2021-01-02T11:23:05.000Z</time>
      </trkpt>
      <trkpt lat="45.23735" lon="6.03913">
        <ele>2483.6000976562</ele>
        <time>2021-01-02T11:23:11.000Z</time>
      </trkpt>
      <trkpt lat="45.23735" lon="6.03912">
        <ele>2483.6000976562</ele>
        <time>2021-01-02T11:23:14.000Z</time>
      </trkpt>
      <trkpt lat="45.23736" lon="6.03912">
        <ele>2483.8000488281</ele>
        <time>2021-01-02T11:23:17.000Z</time>
      </trkpt>
      <trkpt lat="45.23738" lon="6.0391">
        <ele>2484.3999023438</ele>
        <time>2021-01-02T11:23:22.000Z</time>
      </trkpt>
      <trkpt lat="45.2374" lon="6.03909">
        <ele>2484.3999023438</ele>
        <time>2021-01-02T11:23:25.000Z</time>
      </trkpt>
      <trkpt lat="45.23741" lon="6.03909">
        <ele>2484.3999023438</ele>
        <time>2021-01-02T11:23:26.000Z</time>
      </trkpt>
      <trkpt lat="45.23742" lon="6.03909">
        <ele>2484.8000488281</ele>
        <time>2021-01-02T11:23:29.000Z</time>
      </trkpt>
      <trkpt lat="45.23745" lon="6.03909">
        <ele>2485.8000488281</ele>
        <time>2021-01-02T11:23:34.000Z</time>
      </trkpt>
      <trkpt lat="45.23745" lon="6.03909">
        <ele>2485.8000488281</ele>
        <time>2021-01-02T11:23:35.000Z</time>
      </trkpt>
      <trkpt lat="45.23747" lon="6.03908">
        <ele>2486.6000976562</ele>
        <time>2021-01-02T11:23:40.000Z</time>
      </trkpt>
      <trkpt lat="45.23747" lon="6.03907">
        <ele>2486.8000488281</ele>
        <time>2021-01-02T11:23:43.000Z</time>
      </trkpt>
      <trkpt lat="45.23747" lon="6.03908">
        <ele>2487.3999023438</ele>
        <time>2021-01-02T11:23:45.000Z</time>
      </trkpt>
      <trkpt lat="45.23748" lon="6.03909">
        <ele>2488</ele>
        <time>2021-01-02T11:23:49.000Z</time>
      </trkpt>
      <trkpt lat="45.23749" lon="6.0391">
        <ele>2488</ele>
        <time>2021-01-02T11:23:50.000Z</time>
      </trkpt>
      <trkpt lat="45.2375" lon="6.03914">
        <ele>2489</ele>
        <time>2021-01-02T11:23:56.000Z</time>
      </trkpt>
      <trkpt lat="45.2375" lon="6.03914">
        <ele>2489</ele>
        <time>2021-01-02T11:23:57.000Z</time>
      </trkpt>
      <trkpt lat="45.23752" lon="6.03917">
        <ele>2490</ele>
        <time>2021-01-02T11:24:02.000Z</time>
      </trkpt>
      <trkpt lat="45.23752" lon="6.03917">
        <ele>2490.1999511719</ele>
        <time>2021-01-02T11:24:04.000Z</time>
      </trkpt>
      <trkpt lat="45.23753" lon="6.03918">
        <ele>2490.6000976562</ele>
        <time>2021-01-02T11:24:07.000Z</time>
      </trkpt>
      <trkpt lat="45.23753" lon="6.03918">
        <ele>2491.1999511719</ele>
        <time>2021-01-02T11:24:12.000Z</time>
      </trkpt>
      <trkpt lat="45.23755" lon="6.03919">
        <ele>2491.3999023438</ele>
        <time>2021-01-02T11:24:16.000Z</time>
      </trkpt>
      <trkpt lat="45.23757" lon="6.03918">
        <ele>2492</ele>
        <time>2021-01-02T11:24:22.000Z</time>
      </trkpt>
      <trkpt lat="45.23758" lon="6.03917">
        <ele>2492.3999023438</ele>
        <time>2021-01-02T11:24:24.000Z</time>
      </trkpt>
      <trkpt lat="45.2376" lon="6.03918">
        <ele>2493</ele>
        <time>2021-01-02T11:24:28.000Z</time>
      </trkpt>
      <trkpt lat="45.23761" lon="6.03917">
        <ele>2493.3999023438</ele>
        <time>2021-01-02T11:24:31.000Z</time>
      </trkpt>
      <trkpt lat="45.23761" lon="6.03917">
        <ele>2494.1999511719</ele>
        <time>2021-01-02T11:24:34.000Z</time>
      </trkpt>
      <trkpt lat="45.23761" lon="6.03917">
        <ele>2494.6000976562</ele>
        <time>2021-01-02T11:24:38.000Z</time>
      </trkpt>
      <trkpt lat="45.23763" lon="6.03919">
        <ele>2494.6000976562</ele>
        <time>2021-01-02T11:24:42.000Z</time>
      </trkpt>
      <trkpt lat="45.23766" lon="6.03922">
        <ele>2495.1999511719</ele>
        <time>2021-01-02T11:24:48.000Z</time>
      </trkpt>
      <trkpt lat="45.23768" lon="6.03923">
        <ele>2495.6000976562</ele>
        <time>2021-01-02T11:24:51.000Z</time>
      </trkpt>
      <trkpt lat="45.2377" lon="6.03926">
        <ele>2496.3999023438</ele>
        <time>2021-01-02T11:24:55.000Z</time>
      </trkpt>
      <trkpt lat="45.23771" lon="6.03926">
        <ele>2497</ele>
        <time>2021-01-02T11:24:57.000Z</time>
      </trkpt>
      <trkpt lat="45.23774" lon="6.03928">
        <ele>2497.6000976562</ele>
        <time>2021-01-02T11:25:01.000Z</time>
      </trkpt>
      <trkpt lat="45.23774" lon="6.03929">
        <ele>2498</ele>
        <time>2021-01-02T11:25:04.000Z</time>
      </trkpt>
      <trkpt lat="45.23775" lon="6.03929">
        <ele>2498.3999023438</ele>
        <time>2021-01-02T11:25:07.000Z</time>
      </trkpt>
      <trkpt lat="45.23778" lon="6.0393">
        <ele>2499</ele>
        <time>2021-01-02T11:25:11.000Z</time>
      </trkpt>
      <trkpt lat="45.23778" lon="6.0393">
        <ele>2499.3999023438</ele>
        <time>2021-01-02T11:25:13.000Z</time>
      </trkpt>
      <trkpt lat="45.2378" lon="6.0393">
        <ele>2499.8000488281</ele>
        <time>2021-01-02T11:25:16.000Z</time>
      </trkpt>
      <trkpt lat="45.2378" lon="6.0393">
        <ele>2500</ele>
        <time>2021-01-02T11:25:18.000Z</time>
      </trkpt>
      <trkpt lat="45.2378" lon="6.0393">
        <ele>2500.1999511719</ele>
        <time>2021-01-02T11:25:20.000Z</time>
      </trkpt>
      <trkpt lat="45.2378" lon="6.0393">
        <ele>2500.8000488281</ele>
        <time>2021-01-02T11:25:26.000Z</time>
      </trkpt>
      <trkpt lat="45.2378" lon="6.0393">
        <ele>2500.8000488281</ele>
        <time>2021-01-02T11:25:36.000Z</time>
      </trkpt>
      <trkpt lat="45.23781" lon="6.0393">
        <ele>2501.1999511719</ele>
        <time>2021-01-02T11:25:43.000Z</time>
      </trkpt>
      <trkpt lat="45.23781" lon="6.0393">
        <ele>2501.1999511719</ele>
        <time>2021-01-02T11:25:46.000Z</time>
      </trkpt>
      <trkpt lat="45.23781" lon="6.0393">
        <ele>2501.1999511719</ele>
        <time>2021-01-02T11:25:56.000Z</time>
      </trkpt>
      <trkpt lat="45.23781" lon="6.0393">
        <ele>2501.3999023438</ele>
        <time>2021-01-02T11:26:07.000Z</time>
      </trkpt>
      <trkpt lat="45.23781" lon="6.03931">
        <ele>2501.6000976562</ele>
        <time>2021-01-02T11:26:23.000Z</time>
      </trkpt>
      <trkpt lat="45.23781" lon="6.03935">
        <ele>2502</ele>
        <time>2021-01-02T11:26:28.000Z</time>
      </trkpt>
      <trkpt lat="45.23782" lon="6.03935">
        <ele>2502.3999023438</ele>
        <time>2021-01-02T11:26:31.000Z</time>
      </trkpt>
      <trkpt lat="45.23782" lon="6.03938">
        <ele>2503</ele>
        <time>2021-01-02T11:26:34.000Z</time>
      </trkpt>
      <trkpt lat="45.23782" lon="6.03939">
        <ele>2503.3999023438</ele>
        <time>2021-01-02T11:26:36.000Z</time>
      </trkpt>
      <trkpt lat="45.23782" lon="6.03942">
        <ele>2504.1999511719</ele>
        <time>2021-01-02T11:26:40.000Z</time>
      </trkpt>
      <trkpt lat="45.23782" lon="6.03942">
        <ele>2504.6000976562</ele>
        <time>2021-01-02T11:26:42.000Z</time>
      </trkpt>
      <trkpt lat="45.23783" lon="6.03944">
        <ele>2505.1999511719</ele>
        <time>2021-01-02T11:26:46.000Z</time>
      </trkpt>
      <trkpt lat="45.23783" lon="6.03947">
        <ele>2505.6000976562</ele>
        <time>2021-01-02T11:26:51.000Z</time>
      </trkpt>
      <trkpt lat="45.23783" lon="6.03949">
        <ele>2506.3999023438</ele>
        <time>2021-01-02T11:26:57.000Z</time>
      </trkpt>
      <trkpt lat="45.23783" lon="6.03951">
        <ele>2506.6000976562</ele>
        <time>2021-01-02T11:27:00.000Z</time>
      </trkpt>
      <trkpt lat="45.23783" lon="6.03952">
        <ele>2507</ele>
        <time>2021-01-02T11:27:02.000Z</time>
      </trkpt>
      <trkpt lat="45.23783" lon="6.03953">
        <ele>2507.6000976562</ele>
        <time>2021-01-02T11:27:07.000Z</time>
      </trkpt>
      <trkpt lat="45.23783" lon="6.03953">
        <ele>2507.8000488281</ele>
        <time>2021-01-02T11:27:08.000Z</time>
      </trkpt>
      <trkpt lat="45.23783" lon="6.03956">
        <ele>2508</ele>
        <time>2021-01-02T11:27:16.000Z</time>
      </trkpt>
      <trkpt lat="45.23784" lon="6.03957">
        <ele>2509</ele>
        <time>2021-01-02T11:27:22.000Z</time>
      </trkpt>
      <trkpt lat="45.23783" lon="6.03957">
        <ele>2509.6000976562</ele>
        <time>2021-01-02T11:27:28.000Z</time>
      </trkpt>
      <trkpt lat="45.23785" lon="6.03958">
        <ele>2509.6000976562</ele>
        <time>2021-01-02T11:27:31.000Z</time>
      </trkpt>
      <trkpt lat="45.23785" lon="6.03959">
        <ele>2509.8000488281</ele>
        <time>2021-01-02T11:27:33.000Z</time>
      </trkpt>
      <trkpt lat="45.23785" lon="6.0396">
        <ele>2510.1999511719</ele>
        <time>2021-01-02T11:27:37.000Z</time>
      </trkpt>
      <trkpt lat="45.23784" lon="6.03961">
        <ele>2510.3999023438</ele>
        <time>2021-01-02T11:27:39.000Z</time>
      </trkpt>
      <trkpt lat="45.23785" lon="6.03963">
        <ele>2511.1999511719</ele>
        <time>2021-01-02T11:27:44.000Z</time>
      </trkpt>
      <trkpt lat="45.23785" lon="6.03967">
        <ele>2512.1999511719</ele>
        <time>2021-01-02T11:27:51.000Z</time>
      </trkpt>
      <trkpt lat="45.23785" lon="6.03967">
        <ele>2512.1999511719</ele>
        <time>2021-01-02T11:27:52.000Z</time>
      </trkpt>
      <trkpt lat="45.23785" lon="6.03967">
        <ele>2512.8000488281</ele>
        <time>2021-01-02T11:27:56.000Z</time>
      </trkpt>
      <trkpt lat="45.23786" lon="6.03967">
        <ele>2513.1999511719</ele>
        <time>2021-01-02T11:28:04.000Z</time>
      </trkpt>
      <trkpt lat="45.23787" lon="6.03968">
        <ele>2513.3999023438</ele>
        <time>2021-01-02T11:28:06.000Z</time>
      </trkpt>
      <trkpt lat="45.23789" lon="6.03967">
        <ele>2513.8000488281</ele>
        <time>2021-01-02T11:28:10.000Z</time>
      </trkpt>
      <trkpt lat="45.23789" lon="6.03967">
        <ele>2514.3999023438</ele>
        <time>2021-01-02T11:28:13.000Z</time>
      </trkpt>
      <trkpt lat="45.23789" lon="6.03967">
        <ele>2514.6000976562</ele>
        <time>2021-01-02T11:28:16.000Z</time>
      </trkpt>
      <trkpt lat="45.23789" lon="6.03968">
        <ele>2514.8000488281</ele>
        <time>2021-01-02T11:28:25.000Z</time>
      </trkpt>
      <trkpt lat="45.23789" lon="6.03971">
        <ele>2515.1999511719</ele>
        <time>2021-01-02T11:28:30.000Z</time>
      </trkpt>
      <trkpt lat="45.23789" lon="6.03972">
        <ele>2515.3999023438</ele>
        <time>2021-01-02T11:28:33.000Z</time>
      </trkpt>
      <trkpt lat="45.23789" lon="6.03974">
        <ele>2515.8000488281</ele>
        <time>2021-01-02T11:28:36.000Z</time>
      </trkpt>
      <trkpt lat="45.23789" lon="6.03976">
        <ele>2516.3999023438</ele>
        <time>2021-01-02T11:28:41.000Z</time>
      </trkpt>
      <trkpt lat="45.23788" lon="6.03977">
        <ele>2516.6000976562</ele>
        <time>2021-01-02T11:28:43.000Z</time>
      </trkpt>
      <trkpt lat="45.23788" lon="6.03978">
        <ele>2517.1999511719</ele>
        <time>2021-01-02T11:28:49.000Z</time>
      </trkpt>
      <trkpt lat="45.23788" lon="6.03978">
        <ele>2517.3999023438</ele>
        <time>2021-01-02T11:28:51.000Z</time>
      </trkpt>
      <trkpt lat="45.23788" lon="6.03978">
        <ele>2517.6000976562</ele>
        <time>2021-01-02T11:29:01.000Z</time>
      </trkpt>
      <trkpt lat="45.23788" lon="6.03978">
        <ele>2517.3999023438</ele>
        <time>2021-01-02T11:29:12.000Z</time>
      </trkpt>
      <trkpt lat="45.23788" lon="6.03978">
        <ele>2517.6000976562</ele>
        <time>2021-01-02T11:29:23.000Z</time>
      </trkpt>
      <trkpt lat="45.23789" lon="6.03981">
        <ele>2517.8000488281</ele>
        <time>2021-01-02T11:29:33.000Z</time>
      </trkpt>
      <trkpt lat="45.2379" lon="6.03983">
        <ele>2518.3999023438</ele>
        <time>2021-01-02T11:29:38.000Z</time>
      </trkpt>
      <trkpt lat="45.2379" lon="6.03985">
        <ele>2518.8000488281</ele>
        <time>2021-01-02T11:29:40.000Z</time>
      </trkpt>
      <trkpt lat="45.2379" lon="6.03988">
        <ele>2519.6000976562</ele>
        <time>2021-01-02T11:29:45.000Z</time>
      </trkpt>
      <trkpt lat="45.2379" lon="6.03989">
        <ele>2520.3999023438</ele>
        <time>2021-01-02T11:29:49.000Z</time>
      </trkpt>
      <trkpt lat="45.2379" lon="6.03989">
        <ele>2520.6000976562</ele>
        <time>2021-01-02T11:29:50.000Z</time>
      </trkpt>
      <trkpt lat="45.2379" lon="6.03989">
        <ele>2521.1999511719</ele>
        <time>2021-01-02T11:30:04.000Z</time>
      </trkpt>
      <trkpt lat="45.2379" lon="6.03989">
        <ele>2521.3999023438</ele>
        <time>2021-01-02T11:30:19.000Z</time>
      </trkpt>
      <trkpt lat="45.23791" lon="6.03993">
        <ele>2521.6000976562</ele>
        <time>2021-01-02T11:30:26.000Z</time>
      </trkpt>
      <trkpt lat="45.23791" lon="6.03994">
        <ele>2521.6000976562</ele>
        <time>2021-01-02T11:30:28.000Z</time>
      </trkpt>
      <trkpt lat="45.23791" lon="6.03997">
        <ele>2522.1999511719</ele>
        <time>2021-01-02T11:30:33.000Z</time>
      </trkpt>
      <trkpt lat="45.23792" lon="6.03996">
        <ele>2522.6000976562</ele>
        <time>2021-01-02T11:30:35.000Z</time>
      </trkpt>
      <trkpt lat="45.23792" lon="6.03996">
        <ele>2523.1999511719</ele>
        <time>2021-01-02T11:30:39.000Z</time>
      </trkpt>
      <trkpt lat="45.23795" lon="6.03996">
        <ele>2523.6000976562</ele>
        <time>2021-01-02T11:30:45.000Z</time>
      </trkpt>
      <trkpt lat="45.23796" lon="6.03996">
        <ele>2523.8000488281</ele>
        <time>2021-01-02T11:30:46.000Z</time>
      </trkpt>
      <trkpt lat="45.23799" lon="6.03993">
        <ele>2524.6000976562</ele>
        <time>2021-01-02T11:30:51.000Z</time>
      </trkpt>
      <trkpt lat="45.238" lon="6.03993">
        <ele>2524.8000488281</ele>
        <time>2021-01-02T11:30:52.000Z</time>
      </trkpt>
      <trkpt lat="45.238" lon="6.03993">
        <ele>2525</ele>
        <time>2021-01-02T11:30:53.000Z</time>
      </trkpt>
      <trkpt lat="45.23801" lon="6.03993">
        <ele>2526</ele>
        <time>2021-01-02T11:30:58.000Z</time>
      </trkpt>
      <trkpt lat="45.23801" lon="6.03993">
        <ele>2526.1999511719</ele>
        <time>2021-01-02T11:30:59.000Z</time>
      </trkpt>
      <trkpt lat="45.23801" lon="6.03993">
        <ele>2526.3999023438</ele>
        <time>2021-01-02T11:31:04.000Z</time>
      </trkpt>
      <trkpt lat="45.23801" lon="6.03993">
        <ele>2526.1999511719</ele>
        <time>2021-01-02T11:31:13.000Z</time>
      </trkpt>
      <trkpt lat="45.23801" lon="6.03993">
        <ele>2526.1999511719</ele>
        <time>2021-01-02T11:31:23.000Z</time>
      </trkpt>
      <trkpt lat="45.23801" lon="6.03993">
        <ele>2526.6000976562</ele>
        <time>2021-01-02T11:31:31.000Z</time>
      </trkpt>
      <trkpt lat="45.23804" lon="6.03992">
        <ele>2526.8000488281</ele>
        <time>2021-01-02T11:31:38.000Z</time>
      </trkpt>
      <trkpt lat="45.23806" lon="6.03992">
        <ele>2527.1999511719</ele>
        <time>2021-01-02T11:31:42.000Z</time>
      </trkpt>
      <trkpt lat="45.23808" lon="6.03991">
        <ele>2527.8000488281</ele>
        <time>2021-01-02T11:31:45.000Z</time>
      </trkpt>
      <trkpt lat="45.23809" lon="6.0399">
        <ele>2528.3999023438</ele>
        <time>2021-01-02T11:31:47.000Z</time>
      </trkpt>
      <trkpt lat="45.23811" lon="6.03989">
        <ele>2529.3999023438</ele>
        <time>2021-01-02T11:31:53.000Z</time>
      </trkpt>
      <trkpt lat="45.23811" lon="6.0399">
        <ele>2530.3999023438</ele>
        <time>2021-01-02T11:32:01.000Z</time>
      </trkpt>
      <trkpt lat="45.23811" lon="6.0399">
        <ele>2530.6000976562</ele>
        <time>2021-01-02T11:32:04.000Z</time>
      </trkpt>
      <trkpt lat="45.23811" lon="6.0399">
        <ele>2530.8000488281</ele>
        <time>2021-01-02T11:32:09.000Z</time>
      </trkpt>
      <trkpt lat="45.23811" lon="6.0399">
        <ele>2531</ele>
        <time>2021-01-02T11:32:19.000Z</time>
      </trkpt>
      <trkpt lat="45.23811" lon="6.0399">
        <ele>2531</ele>
        <time>2021-01-02T11:32:30.000Z</time>
      </trkpt>
      <trkpt lat="45.23811" lon="6.0399">
        <ele>2530.8000488281</ele>
        <time>2021-01-02T11:32:46.000Z</time>
      </trkpt>
      <trkpt lat="45.23811" lon="6.0399">
        <ele>2530.6000976562</ele>
        <time>2021-01-02T11:33:01.000Z</time>
      </trkpt>
      <trkpt lat="45.23811" lon="6.03992">
        <ele>2530.8000488281</ele>
        <time>2021-01-02T11:33:07.000Z</time>
      </trkpt>
      <trkpt lat="45.23809" lon="6.03996">
        <ele>2531.6000976562</ele>
        <time>2021-01-02T11:33:12.000Z</time>
      </trkpt>
      <trkpt lat="45.23809" lon="6.03996">
        <ele>2532</ele>
        <time>2021-01-02T11:33:14.000Z</time>
      </trkpt>
      <trkpt lat="45.23809" lon="6.03996">
        <ele>2532.6000976562</ele>
        <time>2021-01-02T11:33:17.000Z</time>
      </trkpt>
      <trkpt lat="45.23809" lon="6.03996">
        <ele>2533</ele>
        <time>2021-01-02T11:33:30.000Z</time>
      </trkpt>
      <trkpt lat="45.23809" lon="6.03996">
        <ele>2533</ele>
        <time>2021-01-02T11:33:43.000Z</time>
      </trkpt>
      <trkpt lat="45.23809" lon="6.03996">
        <ele>2533.1999511719</ele>
        <time>2021-01-02T11:33:55.000Z</time>
      </trkpt>
      <trkpt lat="45.23809" lon="6.03996">
        <ele>2533.3999023438</ele>
        <time>2021-01-02T11:34:10.000Z</time>
      </trkpt>
      <trkpt lat="45.23809" lon="6.03999">
        <ele>2533.3999023438</ele>
        <time>2021-01-02T11:34:16.000Z</time>
      </trkpt>
      <trkpt lat="45.23808" lon="6.04001">
        <ele>2533.6000976562</ele>
        <time>2021-01-02T11:34:19.000Z</time>
      </trkpt>
      <trkpt lat="45.23808" lon="6.04001">
        <ele>2534.6000976562</ele>
        <time>2021-01-02T11:34:23.000Z</time>
      </trkpt>
      <trkpt lat="45.23808" lon="6.04001">
        <ele>2534.8000488281</ele>
        <time>2021-01-02T11:34:24.000Z</time>
      </trkpt>
      <trkpt lat="45.23808" lon="6.04001">
        <ele>2535</ele>
        <time>2021-01-02T11:34:28.000Z</time>
      </trkpt>
      <trkpt lat="45.23808" lon="6.04001">
        <ele>2535.3999023438</ele>
        <time>2021-01-02T11:34:33.000Z</time>
      </trkpt>
      <trkpt lat="45.23808" lon="6.04001">
        <ele>2535.8000488281</ele>
        <time>2021-01-02T11:34:35.000Z</time>
      </trkpt>
      <trkpt lat="45.23808" lon="6.04001">
        <ele>2536.6000976562</ele>
        <time>2021-01-02T11:34:39.000Z</time>
      </trkpt>
      <trkpt lat="45.23808" lon="6.04001">
        <ele>2536.8000488281</ele>
        <time>2021-01-02T11:34:41.000Z</time>
      </trkpt>
      <trkpt lat="45.23808" lon="6.04001">
        <ele>2537.1999511719</ele>
        <time>2021-01-02T11:34:48.000Z</time>
      </trkpt>
      <trkpt lat="45.23808" lon="6.04001">
        <ele>2537.3999023438</ele>
        <time>2021-01-02T11:34:54.000Z</time>
      </trkpt>
      <trkpt lat="45.23808" lon="6.04001">
        <ele>2537.3999023438</ele>
        <time>2021-01-02T11:35:07.000Z</time>
      </trkpt>
      <trkpt lat="45.23808" lon="6.04002">
        <ele>2537.1999511719</ele>
        <time>2021-01-02T11:35:14.000Z</time>
      </trkpt>
      <trkpt lat="45.23807" lon="6.04006">
        <ele>2537.8000488281</ele>
        <time>2021-01-02T11:35:20.000Z</time>
      </trkpt>
      <trkpt lat="45.23807" lon="6.04007">
        <ele>2538</ele>
        <time>2021-01-02T11:35:21.000Z</time>
      </trkpt>
      <trkpt lat="45.23807" lon="6.04007">
        <ele>2539.1999511719</ele>
        <time>2021-01-02T11:35:26.000Z</time>
      </trkpt>
      <trkpt lat="45.23807" lon="6.04007">
        <ele>2539.6000976562</ele>
        <time>2021-01-02T11:35:32.000Z</time>
      </trkpt>
      <trkpt lat="45.23807" lon="6.04007">
        <ele>2539.8000488281</ele>
        <time>2021-01-02T11:35:38.000Z</time>
      </trkpt>
      <trkpt lat="45.23809" lon="6.04007">
        <ele>2540.1999511719</ele>
        <time>2021-01-02T11:35:43.000Z</time>
      </trkpt>
      <trkpt lat="45.23809" lon="6.04007">
        <ele>2540.8000488281</ele>
        <time>2021-01-02T11:35:45.000Z</time>
      </trkpt>
      <trkpt lat="45.23809" lon="6.04007">
        <ele>2541.1999511719</ele>
        <time>2021-01-02T11:35:47.000Z</time>
      </trkpt>
      <trkpt lat="45.23809" lon="6.04007">
        <ele>2541.6000976562</ele>
        <time>2021-01-02T11:35:54.000Z</time>
      </trkpt>
      <trkpt lat="45.23809" lon="6.04007">
        <ele>2542</ele>
        <time>2021-01-02T11:36:03.000Z</time>
      </trkpt>
      <trkpt lat="45.23809" lon="6.04007">
        <ele>2542.1999511719</ele>
        <time>2021-01-02T11:36:09.000Z</time>
      </trkpt>
      <trkpt lat="45.23809" lon="6.04007">
        <ele>2542.3999023438</ele>
        <time>2021-01-02T11:36:10.000Z</time>
      </trkpt>
      <trkpt lat="45.23809" lon="6.04007">
        <ele>2542.6000976562</ele>
        <time>2021-01-02T11:36:14.000Z</time>
      </trkpt>
      <trkpt lat="45.23809" lon="6.04007">
        <ele>2543</ele>
        <time>2021-01-02T11:36:20.000Z</time>
      </trkpt>
      <trkpt lat="45.23809" lon="6.04007">
        <ele>2543.3999023438</ele>
        <time>2021-01-02T11:36:27.000Z</time>
      </trkpt>
      <trkpt lat="45.23809" lon="6.04007">
        <ele>2543.3999023438</ele>
        <time>2021-01-02T11:36:30.000Z</time>
      </trkpt>
      <trkpt lat="45.23809" lon="6.04007">
        <ele>2543.3999023438</ele>
        <time>2021-01-02T11:36:32.000Z</time>
      </trkpt>
      <trkpt lat="45.23809" lon="6.04007">
        <ele>2543.3999023438</ele>
        <time>2021-01-02T11:36:35.000Z</time>
      </trkpt>
      <trkpt lat="45.2381" lon="6.04007">
        <ele>2543.3999023438</ele>
        <time>2021-01-02T11:36:39.000Z</time>
      </trkpt>
      <trkpt lat="45.23811" lon="6.04009">
        <ele>2544</ele>
        <time>2021-01-02T11:36:44.000Z</time>
      </trkpt>
      <trkpt lat="45.23811" lon="6.04009">
        <ele>2544.3999023438</ele>
        <time>2021-01-02T11:36:46.000Z</time>
      </trkpt>
      <trkpt lat="45.23811" lon="6.04009">
        <ele>2545.1999511719</ele>
        <time>2021-01-02T11:36:50.000Z</time>
      </trkpt>
      <trkpt lat="45.23811" lon="6.04009">
        <ele>2545.6000976562</ele>
        <time>2021-01-02T11:36:52.000Z</time>
      </trkpt>
      <trkpt lat="45.23813" lon="6.04009">
        <ele>2546.1999511719</ele>
        <time>2021-01-02T11:36:56.000Z</time>
      </trkpt>
      <trkpt lat="45.23813" lon="6.04009">
        <ele>2546.8000488281</ele>
        <time>2021-01-02T11:36:59.000Z</time>
      </trkpt>
      <trkpt lat="45.23813" lon="6.04009">
        <ele>2547.1999511719</ele>
        <time>2021-01-02T11:37:02.000Z</time>
      </trkpt>
      <trkpt lat="45.23813" lon="6.04009">
        <ele>2547.6000976562</ele>
        <time>2021-01-02T11:37:13.000Z</time>
      </trkpt>
      <trkpt lat="45.23813" lon="6.04009">
        <ele>2547.6000976562</ele>
        <time>2021-01-02T11:37:21.000Z</time>
      </trkpt>
      <trkpt lat="45.23813" lon="6.04009">
        <ele>2547.6000976562</ele>
        <time>2021-01-02T11:37:32.000Z</time>
      </trkpt>
      <trkpt lat="45.23813" lon="6.04009">
        <ele>2547.8000488281</ele>
        <time>2021-01-02T11:37:38.000Z</time>
      </trkpt>
      <trkpt lat="45.23813" lon="6.04009">
        <ele>2548.1999511719</ele>
        <time>2021-01-02T11:37:47.000Z</time>
      </trkpt>
      <trkpt lat="45.23813" lon="6.04009">
        <ele>2548.8000488281</ele>
        <time>2021-01-02T11:37:53.000Z</time>
      </trkpt>
      <trkpt lat="45.23813" lon="6.04009">
        <ele>2549</ele>
        <time>2021-01-02T11:37:58.000Z</time>
      </trkpt>
      <trkpt lat="45.23813" lon="6.04009">
        <ele>2549</ele>
        <time>2021-01-02T11:38:10.000Z</time>
      </trkpt>
      <trkpt lat="45.23813" lon="6.04009">
        <ele>2548.8000488281</ele>
        <time>2021-01-02T11:38:28.000Z</time>
      </trkpt>
      <trkpt lat="45.23813" lon="6.04009">
        <ele>2549.1999511719</ele>
        <time>2021-01-02T11:38:39.000Z</time>
      </trkpt>
      <trkpt lat="45.23813" lon="6.04009">
        <ele>2550</ele>
        <time>2021-01-02T11:38:43.000Z</time>
      </trkpt>
      <trkpt lat="45.23813" lon="6.04009">
        <ele>2550</ele>
        <time>2021-01-02T11:38:44.000Z</time>
      </trkpt>
      <trkpt lat="45.23813" lon="6.04009">
        <ele>2551</ele>
        <time>2021-01-02T11:38:50.000Z</time>
      </trkpt>
      <trkpt lat="45.23814" lon="6.04009">
        <ele>2551</ele>
        <time>2021-01-02T11:38:53.000Z</time>
      </trkpt>
      <trkpt lat="45.23814" lon="6.0401">
        <ele>2551</ele>
        <time>2021-01-02T11:38:55.000Z</time>
      </trkpt>
      <trkpt lat="45.23814" lon="6.0401">
        <ele>2551.1999511719</ele>
        <time>2021-01-02T11:39:00.000Z</time>
      </trkpt>
      <trkpt lat="45.23817" lon="6.04014">
        <ele>2552</ele>
        <time>2021-01-02T11:39:05.000Z</time>
      </trkpt>
      <trkpt lat="45.23818" lon="6.04015">
        <ele>2552.1999511719</ele>
        <time>2021-01-02T11:39:06.000Z</time>
      </trkpt>
      <trkpt lat="45.23818" lon="6.04015">
        <ele>2553.1999511719</ele>
        <time>2021-01-02T11:39:09.000Z</time>
      </trkpt>
      <trkpt lat="45.23818" lon="6.04015">
        <ele>2553.8000488281</ele>
        <time>2021-01-02T11:39:16.000Z</time>
      </trkpt>
      <trkpt lat="45.23817" lon="6.04015">
        <ele>2553.8000488281</ele>
        <time>2021-01-02T11:39:19.000Z</time>
      </trkpt>
      <trkpt lat="45.23818" lon="6.04016">
        <ele>2553.8000488281</ele>
        <time>2021-01-02T11:39:22.000Z</time>
      </trkpt>
      <trkpt lat="45.23818" lon="6.04016">
        <ele>2554</ele>
        <time>2021-01-02T11:39:32.000Z</time>
      </trkpt>
      <trkpt lat="45.23818" lon="6.04016">
        <ele>2553.8000488281</ele>
        <time>2021-01-02T11:39:49.000Z</time>
      </trkpt>
      <trkpt lat="45.23818" lon="6.04016">
        <ele>2553.6000976562</ele>
        <time>2021-01-02T11:40:02.000Z</time>
      </trkpt>
      <trkpt lat="45.23818" lon="6.04017">
        <ele>2554</ele>
        <time>2021-01-02T11:40:16.000Z</time>
      </trkpt>
      <trkpt lat="45.23818" lon="6.04023">
        <ele>2554.1999511719</ele>
        <time>2021-01-02T11:40:20.000Z</time>
      </trkpt>
      <trkpt lat="45.23817" lon="6.04025">
        <ele>2554.6000976562</ele>
        <time>2021-01-02T11:40:23.000Z</time>
      </trkpt>
      <trkpt lat="45.23816" lon="6.04029">
        <ele>2555.3999023438</ele>
        <time>2021-01-02T11:40:27.000Z</time>
      </trkpt>
      <trkpt lat="45.23816" lon="6.0403">
        <ele>2555.8000488281</ele>
        <time>2021-01-02T11:40:29.000Z</time>
      </trkpt>
      <trkpt lat="45.23816" lon="6.0403">
        <ele>2556.3999023438</ele>
        <time>2021-01-02T11:40:32.000Z</time>
      </trkpt>
      <trkpt lat="45.23816" lon="6.0403">
        <ele>2556.8000488281</ele>
        <time>2021-01-02T11:40:35.000Z</time>
      </trkpt>
      <trkpt lat="45.23817" lon="6.0403">
        <ele>2556.8000488281</ele>
        <time>2021-01-02T11:40:36.000Z</time>
      </trkpt>
      <trkpt lat="45.2382" lon="6.0403">
        <ele>2557</ele>
        <time>2021-01-02T11:40:39.000Z</time>
      </trkpt>
      <trkpt lat="45.23823" lon="6.04029">
        <ele>2557.3999023438</ele>
        <time>2021-01-02T11:40:43.000Z</time>
      </trkpt>
      <trkpt lat="45.23823" lon="6.04029">
        <ele>2557.6000976562</ele>
        <time>2021-01-02T11:40:44.000Z</time>
      </trkpt>
      <trkpt lat="45.23824" lon="6.04029">
        <ele>2558.3999023438</ele>
        <time>2021-01-02T11:40:50.000Z</time>
      </trkpt>
      <trkpt lat="45.23824" lon="6.04029">
        <ele>2558.3999023438</ele>
        <time>2021-01-02T11:40:51.000Z</time>
      </trkpt>
      <trkpt lat="45.23824" lon="6.04029">
        <ele>2558.6000976562</ele>
        <time>2021-01-02T11:40:59.000Z</time>
      </trkpt>
      <trkpt lat="45.23822" lon="6.04031">
        <ele>2558.8000488281</ele>
        <time>2021-01-02T11:41:06.000Z</time>
      </trkpt>
      <trkpt lat="45.2382" lon="6.04035">
        <ele>2559.6000976562</ele>
        <time>2021-01-02T11:41:11.000Z</time>
      </trkpt>
      <trkpt lat="45.2382" lon="6.04036">
        <ele>2559.8000488281</ele>
        <time>2021-01-02T11:41:12.000Z</time>
      </trkpt>
      <trkpt lat="45.23818" lon="6.04038">
        <ele>2560.6000976562</ele>
        <time>2021-01-02T11:41:17.000Z</time>
      </trkpt>
      <trkpt lat="45.23818" lon="6.04038">
        <ele>2560.8000488281</ele>
        <time>2021-01-02T11:41:20.000Z</time>
      </trkpt>
      <trkpt lat="45.23818" lon="6.04038">
        <ele>2561.6000976562</ele>
        <time>2021-01-02T11:41:30.000Z</time>
      </trkpt>
      <trkpt lat="45.23818" lon="6.04038">
        <ele>2561.6000976562</ele>
        <time>2021-01-02T11:41:32.000Z</time>
      </trkpt>
      <trkpt lat="45.23818" lon="6.04038">
        <ele>2561.3999023438</ele>
        <time>2021-01-02T11:41:45.000Z</time>
      </trkpt>
      <trkpt lat="45.23818" lon="6.04038">
        <ele>2562</ele>
        <time>2021-01-02T11:42:03.000Z</time>
      </trkpt>
      <trkpt lat="45.23818" lon="6.04038">
        <ele>2562.1999511719</ele>
        <time>2021-01-02T11:42:12.000Z</time>
      </trkpt>
      <trkpt lat="45.23818" lon="6.04038">
        <ele>2562.6000976562</ele>
        <time>2021-01-02T11:42:18.000Z</time>
      </trkpt>
      <trkpt lat="45.23818" lon="6.04038">
        <ele>2562.6000976562</ele>
        <time>2021-01-02T11:42:20.000Z</time>
      </trkpt>
      <trkpt lat="45.23818" lon="6.04039">
        <ele>2563</ele>
        <time>2021-01-02T11:42:26.000Z</time>
      </trkpt>
      <trkpt lat="45.23818" lon="6.04039">
        <ele>2563.6000976562</ele>
        <time>2021-01-02T11:42:39.000Z</time>
      </trkpt>
      <trkpt lat="45.23818" lon="6.04039">
        <ele>2562.6000976562</ele>
        <time>2021-01-02T11:42:54.000Z</time>
      </trkpt>
      <trkpt lat="45.23819" lon="6.04039">
        <ele>2562.3999023438</ele>
        <time>2021-01-02T11:43:00.000Z</time>
      </trkpt>
      <trkpt lat="45.23819" lon="6.04039">
        <ele>2563.1999511719</ele>
        <time>2021-01-02T11:43:14.000Z</time>
      </trkpt>
      <trkpt lat="45.23819" lon="6.04039">
        <ele>2563.6000976562</ele>
        <time>2021-01-02T11:43:19.000Z</time>
      </trkpt>
      <trkpt lat="45.23819" lon="6.04039">
        <ele>2563.3999023438</ele>
        <time>2021-01-02T11:43:30.000Z</time>
      </trkpt>
      <trkpt lat="45.23819" lon="6.04039">
        <ele>2563</ele>
        <time>2021-01-02T11:43:46.000Z</time>
      </trkpt>
      <trkpt lat="45.23824" lon="6.04041">
        <ele>2563.6000976562</ele>
        <time>2021-01-02T11:43:52.000Z</time>
      </trkpt>
      <trkpt lat="45.23825" lon="6.0404">
        <ele>2564.6000976562</ele>
        <time>2021-01-02T11:43:57.000Z</time>
      </trkpt>
      <trkpt lat="45.23826" lon="6.0404">
        <ele>2565.1999511719</ele>
        <time>2021-01-02T11:43:59.000Z</time>
      </trkpt>
      <trkpt lat="45.23826" lon="6.04041">
        <ele>2565.8000488281</ele>
        <time>2021-01-02T11:44:01.000Z</time>
      </trkpt>
      <trkpt lat="45.2383" lon="6.0404">
        <ele>2566.3999023438</ele>
        <time>2021-01-02T11:44:07.000Z</time>
      </trkpt>
      <trkpt lat="45.23832" lon="6.0404">
        <ele>2567</ele>
        <time>2021-01-02T11:44:10.000Z</time>
      </trkpt>
      <trkpt lat="45.23833" lon="6.0404">
        <ele>2568</ele>
        <time>2021-01-02T11:44:12.000Z</time>
      </trkpt>
      <trkpt lat="45.23833" lon="6.04041">
        <ele>2568.3999023438</ele>
        <time>2021-01-02T11:44:13.000Z</time>
      </trkpt>
      <trkpt lat="45.23835" lon="6.04041">
        <ele>2569.1999511719</ele>
        <time>2021-01-02T11:44:17.000Z</time>
      </trkpt>
      <trkpt lat="45.23835" lon="6.04041">
        <ele>2569.3999023438</ele>
        <time>2021-01-02T11:44:18.000Z</time>
      </trkpt>
      <trkpt lat="45.23835" lon="6.04041">
        <ele>2570.1999511719</ele>
        <time>2021-01-02T11:44:20.000Z</time>
      </trkpt>
      <trkpt lat="45.23836" lon="6.04041">
        <ele>2571.3999023438</ele>
        <time>2021-01-02T11:44:25.000Z</time>
      </trkpt>
      <trkpt lat="45.23837" lon="6.04041">
        <ele>2571.1999511719</ele>
        <time>2021-01-02T11:44:26.000Z</time>
      </trkpt>
      <trkpt lat="45.23841" lon="6.0404">
        <ele>2572</ele>
        <time>2021-01-02T11:44:35.000Z</time>
      </trkpt>
      <trkpt lat="45.23842" lon="6.0404">
        <ele>2572.3999023438</ele>
        <time>2021-01-02T11:44:38.000Z</time>
      </trkpt>
      <trkpt lat="45.23845" lon="6.0404">
        <ele>2572.8000488281</ele>
        <time>2021-01-02T11:44:41.000Z</time>
      </trkpt>
      <trkpt lat="45.23848" lon="6.0404">
        <ele>2573.6000976562</ele>
        <time>2021-01-02T11:44:47.000Z</time>
      </trkpt>
      <trkpt lat="45.23848" lon="6.0404">
        <ele>2574.3999023438</ele>
        <time>2021-01-02T11:44:54.000Z</time>
      </trkpt>
      <trkpt lat="45.23848" lon="6.0404">
        <ele>2574.6000976562</ele>
        <time>2021-01-02T11:44:55.000Z</time>
      </trkpt>
      <trkpt lat="45.23848" lon="6.0404">
        <ele>2575</ele>
        <time>2021-01-02T11:45:04.000Z</time>
      </trkpt>
      <trkpt lat="45.23851" lon="6.0404">
        <ele>2575.8000488281</ele>
        <time>2021-01-02T11:45:11.000Z</time>
      </trkpt>
      <trkpt lat="45.23851" lon="6.0404">
        <ele>2576</ele>
        <time>2021-01-02T11:45:12.000Z</time>
      </trkpt>
      <trkpt lat="45.23855" lon="6.04039">
        <ele>2576.8000488281</ele>
        <time>2021-01-02T11:45:17.000Z</time>
      </trkpt>
      <trkpt lat="45.23855" lon="6.04039">
        <ele>2577.1999511719</ele>
        <time>2021-01-02T11:45:18.000Z</time>
      </trkpt>
      <trkpt lat="45.23858" lon="6.04039">
        <ele>2578</ele>
        <time>2021-01-02T11:45:22.000Z</time>
      </trkpt>
      <trkpt lat="45.23859" lon="6.04039">
        <ele>2579</ele>
        <time>2021-01-02T11:45:28.000Z</time>
      </trkpt>
      <trkpt lat="45.23861" lon="6.04039">
        <ele>2580.1999511719</ele>
        <time>2021-01-02T11:45:33.000Z</time>
      </trkpt>
      <trkpt lat="45.23861" lon="6.0404">
        <ele>2580.3999023438</ele>
        <time>2021-01-02T11:45:35.000Z</time>
      </trkpt>
      <trkpt lat="45.23862" lon="6.0404">
        <ele>2580.8000488281</ele>
        <time>2021-01-02T11:45:42.000Z</time>
      </trkpt>
      <trkpt lat="45.23862" lon="6.0404">
        <ele>2581.1999511719</ele>
        <time>2021-01-02T11:45:44.000Z</time>
      </trkpt>
      <trkpt lat="45.23862" lon="6.0404">
        <ele>2581.8000488281</ele>
        <time>2021-01-02T11:45:52.000Z</time>
      </trkpt>
      <trkpt lat="45.23862" lon="6.0404">
        <ele>2581.8000488281</ele>
        <time>2021-01-02T11:45:57.000Z</time>
      </trkpt>
      <trkpt lat="45.23863" lon="6.0404">
        <ele>2582.1999511719</ele>
        <time>2021-01-02T11:46:05.000Z</time>
      </trkpt>
      <trkpt lat="45.23863" lon="6.0404">
        <ele>2582.1999511719</ele>
        <time>2021-01-02T11:46:06.000Z</time>
      </trkpt>
      <trkpt lat="45.23863" lon="6.0404">
        <ele>2582.6000976562</ele>
        <time>2021-01-02T11:46:15.000Z</time>
      </trkpt>
      <trkpt lat="45.23862" lon="6.0404">
        <ele>2582.3999023438</ele>
        <time>2021-01-02T11:46:23.000Z</time>
      </trkpt>
      <trkpt lat="45.23863" lon="6.0404">
        <ele>2582.1999511719</ele>
        <time>2021-01-02T11:46:29.000Z</time>
      </trkpt>
      <trkpt lat="45.23863" lon="6.04039">
        <ele>2582.6000976562</ele>
        <time>2021-01-02T11:46:35.000Z</time>
      </trkpt>
      <trkpt lat="45.23862" lon="6.04039">
        <ele>2582.6000976562</ele>
        <time>2021-01-02T11:46:42.000Z</time>
      </trkpt>
      <trkpt lat="45.23862" lon="6.04039">
        <ele>2582.6000976562</ele>
        <time>2021-01-02T11:46:54.000Z</time>
      </trkpt>
      <trkpt lat="45.23862" lon="6.04039">
        <ele>2582.3999023438</ele>
        <time>2021-01-02T11:47:04.000Z</time>
      </trkpt>
      <trkpt lat="45.23863" lon="6.04037">
        <ele>2582.6000976562</ele>
        <time>2021-01-02T11:47:09.000Z</time>
      </trkpt>
      <trkpt lat="45.23863" lon="6.04037">
        <ele>2581.8000488281</ele>
        <time>2021-01-02T11:47:21.000Z</time>
      </trkpt>
      <trkpt lat="45.23863" lon="6.04037">
        <ele>2581.6000976562</ele>
        <time>2021-01-02T11:47:40.000Z</time>
      </trkpt>
      <trkpt lat="45.23863" lon="6.04037">
        <ele>2581.6000976562</ele>
        <time>2021-01-02T11:47:54.000Z</time>
      </trkpt>
      <trkpt lat="45.23863" lon="6.04037">
        <ele>2581.1999511719</ele>
        <time>2021-01-02T11:48:00.000Z</time>
      </trkpt>
      <trkpt lat="45.23863" lon="6.04037">
        <ele>2581.1999511719</ele>
        <time>2021-01-02T11:48:01.000Z</time>
      </trkpt>
      <trkpt lat="45.23863" lon="6.04037">
        <ele>2581.6000976562</ele>
        <time>2021-01-02T11:48:13.000Z</time>
      </trkpt>
      <trkpt lat="45.23863" lon="6.04037">
        <ele>2581.6000976562</ele>
        <time>2021-01-02T11:48:28.000Z</time>
      </trkpt>
      <trkpt lat="45.23863" lon="6.04037">
        <ele>2581.3999023438</ele>
        <time>2021-01-02T11:48:38.000Z</time>
      </trkpt>
      <trkpt lat="45.23863" lon="6.04037">
        <ele>2581.3999023438</ele>
        <time>2021-01-02T11:48:56.000Z</time>
      </trkpt>
      <trkpt lat="45.23863" lon="6.04037">
        <ele>2581.6000976562</ele>
        <time>2021-01-02T11:49:13.000Z</time>
      </trkpt>
      <trkpt lat="45.23863" lon="6.04037">
        <ele>2581.1999511719</ele>
        <time>2021-01-02T11:49:31.000Z</time>
      </trkpt>
      <trkpt lat="45.23863" lon="6.04037">
        <ele>2581.3999023438</ele>
        <time>2021-01-02T11:49:45.000Z</time>
      </trkpt>
      <trkpt lat="45.23863" lon="6.04037">
        <ele>2581.6000976562</ele>
        <time>2021-01-02T11:50:00.000Z</time>
      </trkpt>
      <trkpt lat="45.23863" lon="6.04037">
        <ele>2581.6000976562</ele>
        <time>2021-01-02T11:50:13.000Z</time>
      </trkpt>
      <trkpt lat="45.23863" lon="6.04037">
        <ele>2581.6000976562</ele>
        <time>2021-01-02T11:50:27.000Z</time>
      </trkpt>
      <trkpt lat="45.23863" lon="6.04036">
        <ele>2581.8000488281</ele>
        <time>2021-01-02T11:50:41.000Z</time>
      </trkpt>
      <trkpt lat="45.23863" lon="6.04036">
        <ele>2581.8000488281</ele>
        <time>2021-01-02T11:50:53.000Z</time>
      </trkpt>
      <trkpt lat="45.23863" lon="6.04036">
        <ele>2581.6000976562</ele>
        <time>2021-01-02T11:51:11.000Z</time>
      </trkpt>
      <trkpt lat="45.23863" lon="6.04036">
        <ele>2581.8000488281</ele>
        <time>2021-01-02T11:51:28.000Z</time>
      </trkpt>
      <trkpt lat="45.23863" lon="6.04036">
        <ele>2582.1999511719</ele>
        <time>2021-01-02T11:51:39.000Z</time>
      </trkpt>
      <trkpt lat="45.23864" lon="6.04036">
        <ele>2582</ele>
        <time>2021-01-02T11:51:54.000Z</time>
      </trkpt>
      <trkpt lat="45.23864" lon="6.04036">
        <ele>2581.8000488281</ele>
        <time>2021-01-02T11:52:09.000Z</time>
      </trkpt>
      <trkpt lat="45.23864" lon="6.04036">
        <ele>2582.1999511719</ele>
        <time>2021-01-02T11:52:22.000Z</time>
      </trkpt>
      <trkpt lat="45.23864" lon="6.04037">
        <ele>2581</ele>
        <time>2021-01-02T11:52:36.000Z</time>
      </trkpt>
      <trkpt lat="45.23864" lon="6.04037">
        <ele>2581.3999023438</ele>
        <time>2021-01-02T11:52:38.000Z</time>
      </trkpt>
      <trkpt lat="45.23864" lon="6.04037">
        <ele>2582.1999511719</ele>
        <time>2021-01-02T11:52:40.000Z</time>
      </trkpt>
      <trkpt lat="45.23864" lon="6.04037">
        <ele>2581.1999511719</ele>
        <time>2021-01-02T11:52:51.000Z</time>
      </trkpt>
      <trkpt lat="45.23864" lon="6.04037">
        <ele>2581.8000488281</ele>
        <time>2021-01-02T11:53:05.000Z</time>
      </trkpt>
      <trkpt lat="45.23864" lon="6.04037">
        <ele>2581.1999511719</ele>
        <time>2021-01-02T11:53:16.000Z</time>
      </trkpt>
      <trkpt lat="45.23864" lon="6.04037">
        <ele>2581.1999511719</ele>
        <time>2021-01-02T11:53:18.000Z</time>
      </trkpt>
      <trkpt lat="45.23864" lon="6.04037">
        <ele>2581.6000976562</ele>
        <time>2021-01-02T11:53:34.000Z</time>
      </trkpt>
      <trkpt lat="45.23864" lon="6.04036">
        <ele>2581.6000976562</ele>
        <time>2021-01-02T11:53:50.000Z</time>
      </trkpt>
      <trkpt lat="45.23864" lon="6.04036">
        <ele>2581.6000976562</ele>
        <time>2021-01-02T11:54:00.000Z</time>
      </trkpt>
      <trkpt lat="45.23864" lon="6.04036">
        <ele>2581.3999023438</ele>
        <time>2021-01-02T11:54:11.000Z</time>
      </trkpt>
      <trkpt lat="45.23864" lon="6.04036">
        <ele>2581.3999023438</ele>
        <time>2021-01-02T11:54:19.000Z</time>
      </trkpt>
      <trkpt lat="45.23864" lon="6.04036">
        <ele>2581</ele>
        <time>2021-01-02T11:54:31.000Z</time>
      </trkpt>
      <trkpt lat="45.23864" lon="6.04036">
        <ele>2581</ele>
        <time>2021-01-02T11:54:43.000Z</time>
      </trkpt>
      <trkpt lat="45.23864" lon="6.04036">
        <ele>2581</ele>
        <time>2021-01-02T11:54:59.000Z</time>
      </trkpt>
      <trkpt lat="45.23864" lon="6.04036">
        <ele>2581.1999511719</ele>
        <time>2021-01-02T11:55:17.000Z</time>
      </trkpt>
      <trkpt lat="45.23864" lon="6.04036">
        <ele>2581.1999511719</ele>
        <time>2021-01-02T11:55:29.000Z</time>
      </trkpt>
      <trkpt lat="45.23864" lon="6.04036">
        <ele>2581.3999023438</ele>
        <time>2021-01-02T11:55:43.000Z</time>
      </trkpt>
      <trkpt lat="45.23864" lon="6.04036">
        <ele>2581.1999511719</ele>
        <time>2021-01-02T11:55:59.000Z</time>
      </trkpt>
      <trkpt lat="45.23864" lon="6.04036">
        <ele>2581.3999023438</ele>
        <time>2021-01-02T11:56:15.000Z</time>
      </trkpt>
      <trkpt lat="45.23864" lon="6.04036">
        <ele>2581.3999023438</ele>
        <time>2021-01-02T11:56:31.000Z</time>
      </trkpt>
      <trkpt lat="45.23864" lon="6.04036">
        <ele>2581.3999023438</ele>
        <time>2021-01-02T11:56:46.000Z</time>
      </trkpt>
      <trkpt lat="45.23864" lon="6.04036">
        <ele>2581.1999511719</ele>
        <time>2021-01-02T11:57:00.000Z</time>
      </trkpt>
      <trkpt lat="45.23864" lon="6.04036">
        <ele>2581.3999023438</ele>
        <time>2021-01-02T11:57:17.000Z</time>
      </trkpt>
      <trkpt lat="45.23864" lon="6.04036">
        <ele>2581.1999511719</ele>
        <time>2021-01-02T11:57:40.000Z</time>
      </trkpt>
      <trkpt lat="45.23864" lon="6.04036">
        <ele>2581</ele>
        <time>2021-01-02T11:57:55.000Z</time>
      </trkpt>
      <trkpt lat="45.23864" lon="6.04036">
        <ele>2581.1999511719</ele>
        <time>2021-01-02T11:58:06.000Z</time>
      </trkpt>
      <trkpt lat="45.23864" lon="6.04036">
        <ele>2581.1999511719</ele>
        <time>2021-01-02T11:58:21.000Z</time>
      </trkpt>
      <trkpt lat="45.23865" lon="6.04036">
        <ele>2581</ele>
        <time>2021-01-02T11:58:37.000Z</time>
      </trkpt>
      <trkpt lat="45.23864" lon="6.04037">
        <ele>2581</ele>
        <time>2021-01-02T11:58:52.000Z</time>
      </trkpt>
      <trkpt lat="45.23864" lon="6.04036">
        <ele>2581.1999511719</ele>
        <time>2021-01-02T11:58:58.000Z</time>
      </trkpt>
      <trkpt lat="45.23864" lon="6.04037">
        <ele>2581.6000976562</ele>
        <time>2021-01-02T11:59:03.000Z</time>
      </trkpt>
      <trkpt lat="45.23864" lon="6.04037">
        <ele>2581.6000976562</ele>
        <time>2021-01-02T11:59:11.000Z</time>
      </trkpt>
      <trkpt lat="45.23864" lon="6.04037">
        <ele>2582</ele>
        <time>2021-01-02T11:59:19.000Z</time>
      </trkpt>
      <trkpt lat="45.23864" lon="6.04037">
        <ele>2582.1999511719</ele>
        <time>2021-01-02T11:59:21.000Z</time>
      </trkpt>
      <trkpt lat="45.23864" lon="6.04037">
        <ele>2581.8000488281</ele>
        <time>2021-01-02T11:59:27.000Z</time>
      </trkpt>
      <trkpt lat="45.23864" lon="6.04037">
        <ele>2582.6000976562</ele>
        <time>2021-01-02T11:59:41.000Z</time>
      </trkpt>
      <trkpt lat="45.23864" lon="6.04037">
        <ele>2582.1999511719</ele>
        <time>2021-01-02T11:59:52.000Z</time>
      </trkpt>
      <trkpt lat="45.23864" lon="6.04037">
        <ele>2581.6000976562</ele>
        <time>2021-01-02T12:00:05.000Z</time>
      </trkpt>
      <trkpt lat="45.23864" lon="6.04037">
        <ele>2582.6000976562</ele>
        <time>2021-01-02T12:00:16.000Z</time>
      </trkpt>
      <trkpt lat="45.23864" lon="6.04037">
        <ele>2581.8000488281</ele>
        <time>2021-01-02T12:00:27.000Z</time>
      </trkpt>
      <trkpt lat="45.23864" lon="6.04037">
        <ele>2581.8000488281</ele>
        <time>2021-01-02T12:00:41.000Z</time>
      </trkpt>
      <trkpt lat="45.23864" lon="6.04037">
        <ele>2582</ele>
        <time>2021-01-02T12:00:50.000Z</time>
      </trkpt>
      <trkpt lat="45.23864" lon="6.04037">
        <ele>2582</ele>
        <time>2021-01-02T12:01:03.000Z</time>
      </trkpt>
      <trkpt lat="45.23864" lon="6.04037">
        <ele>2581.6000976562</ele>
        <time>2021-01-02T12:01:12.000Z</time>
      </trkpt>
      <trkpt lat="45.23864" lon="6.04037">
        <ele>2582</ele>
        <time>2021-01-02T12:01:21.000Z</time>
      </trkpt>
      <trkpt lat="45.23864" lon="6.04037">
        <ele>2581.8000488281</ele>
        <time>2021-01-02T12:01:39.000Z</time>
      </trkpt>
      <trkpt lat="45.23863" lon="6.04037">
        <ele>2581.3999023438</ele>
        <time>2021-01-02T12:01:47.000Z</time>
      </trkpt>
      <trkpt lat="45.23863" lon="6.04038">
        <ele>2581.1999511719</ele>
        <time>2021-01-02T12:01:53.000Z</time>
      </trkpt>
      <trkpt lat="45.23863" lon="6.04038">
        <ele>2581.1999511719</ele>
        <time>2021-01-02T12:01:54.000Z</time>
      </trkpt>
      <trkpt lat="45.23863" lon="6.04039">
        <ele>2581</ele>
        <time>2021-01-02T12:01:56.000Z</time>
      </trkpt>
      <trkpt lat="45.2386" lon="6.0404">
        <ele>2581</ele>
        <time>2021-01-02T12:01:58.000Z</time>
      </trkpt>
      <trkpt lat="45.23857" lon="6.04039">
        <ele>2580</ele>
        <time>2021-01-02T12:02:02.000Z</time>
      </trkpt>
      <trkpt lat="45.23856" lon="6.04039">
        <ele>2579.8000488281</ele>
        <time>2021-01-02T12:02:03.000Z</time>
      </trkpt>
      <trkpt lat="45.23854" lon="6.04039">
        <ele>2578.6000976562</ele>
        <time>2021-01-02T12:02:06.000Z</time>
      </trkpt>
      <trkpt lat="45.23852" lon="6.04041">
        <ele>2578</ele>
        <time>2021-01-02T12:02:07.000Z</time>
      </trkpt>
      <trkpt lat="45.23849" lon="6.04041">
        <ele>2577.6000976562</ele>
        <time>2021-01-02T12:02:08.000Z</time>
      </trkpt>
      <trkpt lat="45.23846" lon="6.04041">
        <ele>2576</ele>
        <time>2021-01-02T12:02:11.000Z</time>
      </trkpt>
      <trkpt lat="45.23843" lon="6.04039">
        <ele>2573.8000488281</ele>
        <time>2021-01-02T12:02:13.000Z</time>
      </trkpt>
      <trkpt lat="45.23841" lon="6.0404">
        <ele>2573.1999511719</ele>
        <time>2021-01-02T12:02:14.000Z</time>
      </trkpt>
      <trkpt lat="45.23839" lon="6.0404">
        <ele>2572.6000976562</ele>
        <time>2021-01-02T12:02:15.000Z</time>
      </trkpt>
      <trkpt lat="45.2384" lon="6.0404">
        <ele>2571</ele>
        <time>2021-01-02T12:02:17.000Z</time>
      </trkpt>
      <trkpt lat="45.2384" lon="6.04041">
        <ele>2570.1999511719</ele>
        <time>2021-01-02T12:02:19.000Z</time>
      </trkpt>
      <trkpt lat="45.2384" lon="6.04041">
        <ele>2570</ele>
        <time>2021-01-02T12:02:20.000Z</time>
      </trkpt>
      <trkpt lat="45.23837" lon="6.04041">
        <ele>2569.3999023438</ele>
        <time>2021-01-02T12:02:24.000Z</time>
      </trkpt>
      <trkpt lat="45.23833" lon="6.04042">
        <ele>2569</ele>
        <time>2021-01-02T12:02:28.000Z</time>
      </trkpt>
      <trkpt lat="45.23833" lon="6.04042">
        <ele>2568.1999511719</ele>
        <time>2021-01-02T12:02:30.000Z</time>
      </trkpt>
      <trkpt lat="45.23833" lon="6.04042">
        <ele>2567.8000488281</ele>
        <time>2021-01-02T12:02:31.000Z</time>
      </trkpt>
      <trkpt lat="45.23831" lon="6.04041">
        <ele>2567</ele>
        <time>2021-01-02T12:02:33.000Z</time>
      </trkpt>
      <trkpt lat="45.23831" lon="6.04042">
        <ele>2566.8000488281</ele>
        <time>2021-01-02T12:02:34.000Z</time>
      </trkpt>
      <trkpt lat="45.23829" lon="6.04041">
        <ele>2566.3999023438</ele>
        <time>2021-01-02T12:02:36.000Z</time>
      </trkpt>
      <trkpt lat="45.23828" lon="6.04041">
        <ele>2565.6000976562</ele>
        <time>2021-01-02T12:02:37.000Z</time>
      </trkpt>
      <trkpt lat="45.23827" lon="6.04041">
        <ele>2564.6000976562</ele>
        <time>2021-01-02T12:02:41.000Z</time>
      </trkpt>
      <trkpt lat="45.23822" lon="6.04039">
        <ele>2563.6000976562</ele>
        <time>2021-01-02T12:02:46.000Z</time>
      </trkpt>
      <trkpt lat="45.23822" lon="6.04039">
        <ele>2562.3999023438</ele>
        <time>2021-01-02T12:02:50.000Z</time>
      </trkpt>
      <trkpt lat="45.23822" lon="6.04039">
        <ele>2562.1999511719</ele>
        <time>2021-01-02T12:02:51.000Z</time>
      </trkpt>
      <trkpt lat="45.23822" lon="6.04039">
        <ele>2561.3999023438</ele>
        <time>2021-01-02T12:02:56.000Z</time>
      </trkpt>
      <trkpt lat="45.23822" lon="6.04039">
        <ele>2561.1999511719</ele>
        <time>2021-01-02T12:03:01.000Z</time>
      </trkpt>
      <trkpt lat="45.23822" lon="6.04039">
        <ele>2561</ele>
        <time>2021-01-02T12:03:09.000Z</time>
      </trkpt>
      <trkpt lat="45.23822" lon="6.04039">
        <ele>2561.6000976562</ele>
        <time>2021-01-02T12:03:20.000Z</time>
      </trkpt>
      <trkpt lat="45.23822" lon="6.04039">
        <ele>2561.1999511719</ele>
        <time>2021-01-02T12:03:27.000Z</time>
      </trkpt>
      <trkpt lat="45.23822" lon="6.04039">
        <ele>2561.8000488281</ele>
        <time>2021-01-02T12:03:36.000Z</time>
      </trkpt>
      <trkpt lat="45.23822" lon="6.04039">
        <ele>2561.8000488281</ele>
        <time>2021-01-02T12:03:44.000Z</time>
      </trkpt>
      <trkpt lat="45.23822" lon="6.04039">
        <ele>2561.8000488281</ele>
        <time>2021-01-02T12:03:53.000Z</time>
      </trkpt>
      <trkpt lat="45.23822" lon="6.0404">
        <ele>2562</ele>
        <time>2021-01-02T12:04:01.000Z</time>
      </trkpt>
      <trkpt lat="45.23822" lon="6.0404">
        <ele>2561.1999511719</ele>
        <time>2021-01-02T12:04:12.000Z</time>
      </trkpt>
      <trkpt lat="45.23822" lon="6.0404">
        <ele>2561</ele>
        <time>2021-01-02T12:04:20.000Z</time>
      </trkpt>
      <trkpt lat="45.23822" lon="6.04038">
        <ele>2561</ele>
        <time>2021-01-02T12:04:23.000Z</time>
      </trkpt>
      <trkpt lat="45.23822" lon="6.04038">
        <ele>2561</ele>
        <time>2021-01-02T12:04:25.000Z</time>
      </trkpt>
      <trkpt lat="45.23822" lon="6.04038">
        <ele>2560.1999511719</ele>
        <time>2021-01-02T12:04:31.000Z</time>
      </trkpt>
      <trkpt lat="45.23823" lon="6.04035">
        <ele>2559.8000488281</ele>
        <time>2021-01-02T12:04:41.000Z</time>
      </trkpt>
      <trkpt lat="45.23824" lon="6.04032">
        <ele>2559.6000976562</ele>
        <time>2021-01-02T12:04:42.000Z</time>
      </trkpt>
      <trkpt lat="45.23826" lon="6.04029">
        <ele>2559.1999511719</ele>
        <time>2021-01-02T12:04:45.000Z</time>
      </trkpt>
      <trkpt lat="45.23826" lon="6.04029">
        <ele>2557.8000488281</ele>
        <time>2021-01-02T12:04:48.000Z</time>
      </trkpt>
      <trkpt lat="45.23826" lon="6.04026">
        <ele>2556.8000488281</ele>
        <time>2021-01-02T12:04:50.000Z</time>
      </trkpt>
      <trkpt lat="45.23823" lon="6.04024">
        <ele>2556.6000976562</ele>
        <time>2021-01-02T12:04:51.000Z</time>
      </trkpt>
      <trkpt lat="45.23823" lon="6.04024">
        <ele>2555.6000976562</ele>
        <time>2021-01-02T12:04:54.000Z</time>
      </trkpt>
      <trkpt lat="45.23823" lon="6.04024">
        <ele>2555.1999511719</ele>
        <time>2021-01-02T12:04:55.000Z</time>
      </trkpt>
      <trkpt lat="45.23822" lon="6.04024">
        <ele>2554</ele>
        <time>2021-01-02T12:04:57.000Z</time>
      </trkpt>
      <trkpt lat="45.23822" lon="6.0402">
        <ele>2553.8000488281</ele>
        <time>2021-01-02T12:04:58.000Z</time>
      </trkpt>
      <trkpt lat="45.23822" lon="6.0402">
        <ele>2553.6000976562</ele>
        <time>2021-01-02T12:04:59.000Z</time>
      </trkpt>
      <trkpt lat="45.2382" lon="6.04018">
        <ele>2552.6000976562</ele>
        <time>2021-01-02T12:05:02.000Z</time>
      </trkpt>
      <trkpt lat="45.2382" lon="6.04017">
        <ele>2552.1999511719</ele>
        <time>2021-01-02T12:05:03.000Z</time>
      </trkpt>
      <trkpt lat="45.2382" lon="6.04018">
        <ele>2551.3999023438</ele>
        <time>2021-01-02T12:05:04.000Z</time>
      </trkpt>
      <trkpt lat="45.23818" lon="6.04015">
        <ele>2550.6000976562</ele>
        <time>2021-01-02T12:05:05.000Z</time>
      </trkpt>
      <trkpt lat="45.23818" lon="6.04013">
        <ele>2549.8000488281</ele>
        <time>2021-01-02T12:05:06.000Z</time>
      </trkpt>
      <trkpt lat="45.23818" lon="6.04013">
        <ele>2548.8000488281</ele>
        <time>2021-01-02T12:05:08.000Z</time>
      </trkpt>
      <trkpt lat="45.23818" lon="6.04014">
        <ele>2547.6000976562</ele>
        <time>2021-01-02T12:05:10.000Z</time>
      </trkpt>
      <trkpt lat="45.23817" lon="6.04013">
        <ele>2546.1999511719</ele>
        <time>2021-01-02T12:05:13.000Z</time>
      </trkpt>
      <trkpt lat="45.23815" lon="6.04014">
        <ele>2545.6000976562</ele>
        <time>2021-01-02T12:05:14.000Z</time>
      </trkpt>
      <trkpt lat="45.23814" lon="6.04014">
        <ele>2545.1999511719</ele>
        <time>2021-01-02T12:05:15.000Z</time>
      </trkpt>
      <trkpt lat="45.23814" lon="6.0401">
        <ele>2544.6000976562</ele>
        <time>2021-01-02T12:05:17.000Z</time>
      </trkpt>
      <trkpt lat="45.23814" lon="6.04008">
        <ele>2544.3999023438</ele>
        <time>2021-01-02T12:05:18.000Z</time>
      </trkpt>
      <trkpt lat="45.23814" lon="6.04006">
        <ele>2544</ele>
        <time>2021-01-02T12:05:19.000Z</time>
      </trkpt>
      <trkpt lat="45.2381" lon="6.04003">
        <ele>2542.6000976562</ele>
        <time>2021-01-02T12:05:21.000Z</time>
      </trkpt>
      <trkpt lat="45.23809" lon="6.03997">
        <ele>2541.3999023438</ele>
        <time>2021-01-02T12:05:23.000Z</time>
      </trkpt>
      <trkpt lat="45.23806" lon="6.03997">
        <ele>2540.3999023438</ele>
        <time>2021-01-02T12:05:24.000Z</time>
      </trkpt>
      <trkpt lat="45.23806" lon="6.03993">
        <ele>2539.1999511719</ele>
        <time>2021-01-02T12:05:25.000Z</time>
      </trkpt>
      <trkpt lat="45.23805" lon="6.0399">
        <ele>2536.6000976562</ele>
        <time>2021-01-02T12:05:26.000Z</time>
      </trkpt>
      <trkpt lat="45.23802" lon="6.03987">
        <ele>2535</ele>
        <time>2021-01-02T12:05:27.000Z</time>
      </trkpt>
      <trkpt lat="45.23803" lon="6.03984">
        <ele>2533.3999023438</ele>
        <time>2021-01-02T12:05:28.000Z</time>
      </trkpt>
      <trkpt lat="45.23802" lon="6.0398">
        <ele>2532</ele>
        <time>2021-01-02T12:05:29.000Z</time>
      </trkpt>
      <trkpt lat="45.238" lon="6.03978">
        <ele>2530.6000976562</ele>
        <time>2021-01-02T12:05:30.000Z</time>
      </trkpt>
      <trkpt lat="45.23798" lon="6.03976">
        <ele>2529</ele>
        <time>2021-01-02T12:05:31.000Z</time>
      </trkpt>
      <trkpt lat="45.23798" lon="6.03973">
        <ele>2527.3999023438</ele>
        <time>2021-01-02T12:05:32.000Z</time>
      </trkpt>
      <trkpt lat="45.23798" lon="6.03972">
        <ele>2526</ele>
        <time>2021-01-02T12:05:33.000Z</time>
      </trkpt>
      <trkpt lat="45.23797" lon="6.03973">
        <ele>2524.3999023438</ele>
        <time>2021-01-02T12:05:34.000Z</time>
      </trkpt>
      <trkpt lat="45.23797" lon="6.03973">
        <ele>2522.8000488281</ele>
        <time>2021-01-02T12:05:35.000Z</time>
      </trkpt>
      <trkpt lat="45.23797" lon="6.03973">
        <ele>2521.3999023438</ele>
        <time>2021-01-02T12:05:36.000Z</time>
      </trkpt>
      <trkpt lat="45.23797" lon="6.03973">
        <ele>2520.1999511719</ele>
        <time>2021-01-02T12:05:38.000Z</time>
      </trkpt>
      <trkpt lat="45.23797" lon="6.03973">
        <ele>2519</ele>
        <time>2021-01-02T12:05:41.000Z</time>
      </trkpt>
      <trkpt lat="45.23797" lon="6.03973">
        <ele>2518.6000976562</ele>
        <time>2021-01-02T12:05:43.000Z</time>
      </trkpt>
      <trkpt lat="45.23797" lon="6.03973">
        <ele>2518.1999511719</ele>
        <time>2021-01-02T12:05:49.000Z</time>
      </trkpt>
      <trkpt lat="45.23797" lon="6.03973">
        <ele>2518</ele>
        <time>2021-01-02T12:05:50.000Z</time>
      </trkpt>
      <trkpt lat="45.23792" lon="6.0397">
        <ele>2517.8000488281</ele>
        <time>2021-01-02T12:05:53.000Z</time>
      </trkpt>
      <trkpt lat="45.23783" lon="6.03967">
        <ele>2517.3999023438</ele>
        <time>2021-01-02T12:05:56.000Z</time>
      </trkpt>
      <trkpt lat="45.23781" lon="6.0396">
        <ele>2516.8000488281</ele>
        <time>2021-01-02T12:05:58.000Z</time>
      </trkpt>
      <trkpt lat="45.2378" lon="6.03955">
        <ele>2516.1999511719</ele>
        <time>2021-01-02T12:05:59.000Z</time>
      </trkpt>
      <trkpt lat="45.23777" lon="6.03949">
        <ele>2515.6000976562</ele>
        <time>2021-01-02T12:06:00.000Z</time>
      </trkpt>
      <trkpt lat="45.23782" lon="6.0394">
        <ele>2513.6000976562</ele>
        <time>2021-01-02T12:06:02.000Z</time>
      </trkpt>
      <trkpt lat="45.2378" lon="6.03935">
        <ele>2512.1999511719</ele>
        <time>2021-01-02T12:06:03.000Z</time>
      </trkpt>
      <trkpt lat="45.23779" lon="6.03929">
        <ele>2510.8000488281</ele>
        <time>2021-01-02T12:06:04.000Z</time>
      </trkpt>
      <trkpt lat="45.23775" lon="6.03927">
        <ele>2509.1999511719</ele>
        <time>2021-01-02T12:06:05.000Z</time>
      </trkpt>
      <trkpt lat="45.2377" lon="6.03927">
        <ele>2507.8000488281</ele>
        <time>2021-01-02T12:06:06.000Z</time>
      </trkpt>
      <trkpt lat="45.23765" lon="6.03925">
        <ele>2506.3999023438</ele>
        <time>2021-01-02T12:06:07.000Z</time>
      </trkpt>
      <trkpt lat="45.23762" lon="6.03919">
        <ele>2505</ele>
        <time>2021-01-02T12:06:08.000Z</time>
      </trkpt>
      <trkpt lat="45.23761" lon="6.03917">
        <ele>2503.3999023438</ele>
        <time>2021-01-02T12:06:09.000Z</time>
      </trkpt>
      <trkpt lat="45.2376" lon="6.03913">
        <ele>2501.8000488281</ele>
        <time>2021-01-02T12:06:10.000Z</time>
      </trkpt>
      <trkpt lat="45.23761" lon="6.03914">
        <ele>2500.1999511719</ele>
        <time>2021-01-02T12:06:11.000Z</time>
      </trkpt>
      <trkpt lat="45.23761" lon="6.03914">
        <ele>2498.8000488281</ele>
        <time>2021-01-02T12:06:12.000Z</time>
      </trkpt>
      <trkpt lat="45.23761" lon="6.03914">
        <ele>2497.6000976562</ele>
        <time>2021-01-02T12:06:13.000Z</time>
      </trkpt>
      <trkpt lat="45.2376" lon="6.03914">
        <ele>2495.1999511719</ele>
        <time>2021-01-02T12:06:14.000Z</time>
      </trkpt>
      <trkpt lat="45.23761" lon="6.03915">
        <ele>2494</ele>
        <time>2021-01-02T12:06:16.000Z</time>
      </trkpt>
      <trkpt lat="45.2376" lon="6.03915">
        <ele>2493.1999511719</ele>
        <time>2021-01-02T12:06:18.000Z</time>
      </trkpt>
      <trkpt lat="45.2376" lon="6.03914">
        <ele>2493</ele>
        <time>2021-01-02T12:06:19.000Z</time>
      </trkpt>
      <trkpt lat="45.23758" lon="6.03907">
        <ele>2492.3999023438</ele>
        <time>2021-01-02T12:06:23.000Z</time>
      </trkpt>
      <trkpt lat="45.23759" lon="6.03907">
        <ele>2492</ele>
        <time>2021-01-02T12:06:28.000Z</time>
      </trkpt>
      <trkpt lat="45.23759" lon="6.03907">
        <ele>2492</ele>
        <time>2021-01-02T12:06:29.000Z</time>
      </trkpt>
      <trkpt lat="45.23758" lon="6.03905">
        <ele>2491.1999511719</ele>
        <time>2021-01-02T12:06:37.000Z</time>
      </trkpt>
      <trkpt lat="45.23754" lon="6.03905">
        <ele>2491.1999511719</ele>
        <time>2021-01-02T12:06:38.000Z</time>
      </trkpt>
      <trkpt lat="45.23751" lon="6.03908">
        <ele>2491</ele>
        <time>2021-01-02T12:06:39.000Z</time>
      </trkpt>
      <trkpt lat="45.23748" lon="6.03911">
        <ele>2490.8000488281</ele>
        <time>2021-01-02T12:06:40.000Z</time>
      </trkpt>
      <trkpt lat="45.23744" lon="6.03905">
        <ele>2490.3999023438</ele>
        <time>2021-01-02T12:06:42.000Z</time>
      </trkpt>
      <trkpt lat="45.23744" lon="6.03899">
        <ele>2489.8000488281</ele>
        <time>2021-01-02T12:06:43.000Z</time>
      </trkpt>
      <trkpt lat="45.23739" lon="6.03899">
        <ele>2487.6000976562</ele>
        <time>2021-01-02T12:06:45.000Z</time>
      </trkpt>
      <trkpt lat="45.23737" lon="6.03897">
        <ele>2486.3999023438</ele>
        <time>2021-01-02T12:06:46.000Z</time>
      </trkpt>
      <trkpt lat="45.23738" lon="6.03893">
        <ele>2484.8000488281</ele>
        <time>2021-01-02T12:06:47.000Z</time>
      </trkpt>
      <trkpt lat="45.23739" lon="6.03888">
        <ele>2483.1999511719</ele>
        <time>2021-01-02T12:06:48.000Z</time>
      </trkpt>
      <trkpt lat="45.23737" lon="6.03884">
        <ele>2481.8000488281</ele>
        <time>2021-01-02T12:06:49.000Z</time>
      </trkpt>
      <trkpt lat="45.23733" lon="6.03886">
        <ele>2480.8000488281</ele>
        <time>2021-01-02T12:06:50.000Z</time>
      </trkpt>
      <trkpt lat="45.23732" lon="6.03886">
        <ele>2479.8000488281</ele>
        <time>2021-01-02T12:06:51.000Z</time>
      </trkpt>
      <trkpt lat="45.23732" lon="6.03886">
        <ele>2478.3999023438</ele>
        <time>2021-01-02T12:06:52.000Z</time>
      </trkpt>
      <trkpt lat="45.23732" lon="6.03886">
        <ele>2476.8000488281</ele>
        <time>2021-01-02T12:06:53.000Z</time>
      </trkpt>
      <trkpt lat="45.23732" lon="6.03886">
        <ele>2475</ele>
        <time>2021-01-02T12:06:54.000Z</time>
      </trkpt>
      <trkpt lat="45.23732" lon="6.03886">
        <ele>2474</ele>
        <time>2021-01-02T12:06:55.000Z</time>
      </trkpt>
      <trkpt lat="45.23731" lon="6.03885">
        <ele>2472.8000488281</ele>
        <time>2021-01-02T12:06:57.000Z</time>
      </trkpt>
      <trkpt lat="45.2373" lon="6.03881">
        <ele>2472.3999023438</ele>
        <time>2021-01-02T12:06:58.000Z</time>
      </trkpt>
      <trkpt lat="45.23731" lon="6.0388">
        <ele>2472</ele>
        <time>2021-01-02T12:06:59.000Z</time>
      </trkpt>
      <trkpt lat="45.23726" lon="6.03875">
        <ele>2471.8000488281</ele>
        <time>2021-01-02T12:07:01.000Z</time>
      </trkpt>
      <trkpt lat="45.23728" lon="6.03872">
        <ele>2471.1999511719</ele>
        <time>2021-01-02T12:07:02.000Z</time>
      </trkpt>
      <trkpt lat="45.2373" lon="6.03868">
        <ele>2470.3999023438</ele>
        <time>2021-01-02T12:07:03.000Z</time>
      </trkpt>
      <trkpt lat="45.23727" lon="6.03867">
        <ele>2469.1999511719</ele>
        <time>2021-01-02T12:07:04.000Z</time>
      </trkpt>
      <trkpt lat="45.23725" lon="6.03867">
        <ele>2467.8000488281</ele>
        <time>2021-01-02T12:07:05.000Z</time>
      </trkpt>
      <trkpt lat="45.23724" lon="6.03865">
        <ele>2466.6000976562</ele>
        <time>2021-01-02T12:07:06.000Z</time>
      </trkpt>
      <trkpt lat="45.23725" lon="6.03864">
        <ele>2465.6000976562</ele>
        <time>2021-01-02T12:07:07.000Z</time>
      </trkpt>
      <trkpt lat="45.23725" lon="6.03865">
        <ele>2464.1999511719</ele>
        <time>2021-01-02T12:07:08.000Z</time>
      </trkpt>
      <trkpt lat="45.23725" lon="6.03865">
        <ele>2463.1999511719</ele>
        <time>2021-01-02T12:07:09.000Z</time>
      </trkpt>
      <trkpt lat="45.23725" lon="6.03865">
        <ele>2462</ele>
        <time>2021-01-02T12:07:11.000Z</time>
      </trkpt>
      <trkpt lat="45.23725" lon="6.03865">
        <ele>2460.8000488281</ele>
        <time>2021-01-02T12:07:14.000Z</time>
      </trkpt>
      <trkpt lat="45.23726" lon="6.03864">
        <ele>2459.8000488281</ele>
        <time>2021-01-02T12:07:17.000Z</time>
      </trkpt>
      <trkpt lat="45.2372" lon="6.03859">
        <ele>2459.1999511719</ele>
        <time>2021-01-02T12:07:20.000Z</time>
      </trkpt>
      <trkpt lat="45.23719" lon="6.03851">
        <ele>2458.3999023438</ele>
        <time>2021-01-02T12:07:23.000Z</time>
      </trkpt>
      <trkpt lat="45.23715" lon="6.03848">
        <ele>2456.8000488281</ele>
        <time>2021-01-02T12:07:25.000Z</time>
      </trkpt>
      <trkpt lat="45.23715" lon="6.03844">
        <ele>2454.8000488281</ele>
        <time>2021-01-02T12:07:26.000Z</time>
      </trkpt>
      <trkpt lat="45.23716" lon="6.0384">
        <ele>2453.6000976562</ele>
        <time>2021-01-02T12:07:27.000Z</time>
      </trkpt>
      <trkpt lat="45.23714" lon="6.03837">
        <ele>2452.1999511719</ele>
        <time>2021-01-02T12:07:28.000Z</time>
      </trkpt>
      <trkpt lat="45.23711" lon="6.03838">
        <ele>2450.8000488281</ele>
        <time>2021-01-02T12:07:29.000Z</time>
      </trkpt>
      <trkpt lat="45.23708" lon="6.03838">
        <ele>2449.6000976562</ele>
        <time>2021-01-02T12:07:30.000Z</time>
      </trkpt>
      <trkpt lat="45.23709" lon="6.03833">
        <ele>2448.1999511719</ele>
        <time>2021-01-02T12:07:31.000Z</time>
      </trkpt>
      <trkpt lat="45.23705" lon="6.03829">
        <ele>2446.8000488281</ele>
        <time>2021-01-02T12:07:32.000Z</time>
      </trkpt>
      <trkpt lat="45.23703" lon="6.03828">
        <ele>2445.3999023438</ele>
        <time>2021-01-02T12:07:33.000Z</time>
      </trkpt>
      <trkpt lat="45.23702" lon="6.03824">
        <ele>2444</ele>
        <time>2021-01-02T12:07:34.000Z</time>
      </trkpt>
      <trkpt lat="45.237" lon="6.03819">
        <ele>2442.8000488281</ele>
        <time>2021-01-02T12:07:35.000Z</time>
      </trkpt>
      <trkpt lat="45.23697" lon="6.03819">
        <ele>2441.6000976562</ele>
        <time>2021-01-02T12:07:36.000Z</time>
      </trkpt>
      <trkpt lat="45.23695" lon="6.03818">
        <ele>2440.1999511719</ele>
        <time>2021-01-02T12:07:37.000Z</time>
      </trkpt>
      <trkpt lat="45.23694" lon="6.03814">
        <ele>2438.6000976562</ele>
        <time>2021-01-02T12:07:38.000Z</time>
      </trkpt>
      <trkpt lat="45.23697" lon="6.03811">
        <ele>2436.8000488281</ele>
        <time>2021-01-02T12:07:39.000Z</time>
      </trkpt>
      <trkpt lat="45.23697" lon="6.03806">
        <ele>2435</ele>
        <time>2021-01-02T12:07:40.000Z</time>
      </trkpt>
      <trkpt lat="45.23693" lon="6.03806">
        <ele>2433.3999023438</ele>
        <time>2021-01-02T12:07:41.000Z</time>
      </trkpt>
      <trkpt lat="45.2369" lon="6.03803">
        <ele>2432</ele>
        <time>2021-01-02T12:07:42.000Z</time>
      </trkpt>
      <trkpt lat="45.23689" lon="6.03797">
        <ele>2430.6000976562</ele>
        <time>2021-01-02T12:07:43.000Z</time>
      </trkpt>
      <trkpt lat="45.23691" lon="6.03793">
        <ele>2429.1999511719</ele>
        <time>2021-01-02T12:07:44.000Z</time>
      </trkpt>
      <trkpt lat="45.23694" lon="6.03788">
        <ele>2427.8000488281</ele>
        <time>2021-01-02T12:07:45.000Z</time>
      </trkpt>
      <trkpt lat="45.23693" lon="6.03781">
        <ele>2426.3999023438</ele>
        <time>2021-01-02T12:07:46.000Z</time>
      </trkpt>
      <trkpt lat="45.2369" lon="6.03778">
        <ele>2424.8000488281</ele>
        <time>2021-01-02T12:07:47.000Z</time>
      </trkpt>
      <trkpt lat="45.23689" lon="6.03777">
        <ele>2423.1999511719</ele>
        <time>2021-01-02T12:07:48.000Z</time>
      </trkpt>
      <trkpt lat="45.23688" lon="6.03775">
        <ele>2421.6000976562</ele>
        <time>2021-01-02T12:07:49.000Z</time>
      </trkpt>
      <trkpt lat="45.23687" lon="6.03775">
        <ele>2418.6000976562</ele>
        <time>2021-01-02T12:07:50.000Z</time>
      </trkpt>
      <trkpt lat="45.23686" lon="6.03774">
        <ele>2417.3999023438</ele>
        <time>2021-01-02T12:07:51.000Z</time>
      </trkpt>
      <trkpt lat="45.23685" lon="6.03773">
        <ele>2416</ele>
        <time>2021-01-02T12:07:53.000Z</time>
      </trkpt>
      <trkpt lat="45.23682" lon="6.03772">
        <ele>2415</ele>
        <time>2021-01-02T12:07:56.000Z</time>
      </trkpt>
      <trkpt lat="45.23678" lon="6.0377">
        <ele>2414.1999511719</ele>
        <time>2021-01-02T12:07:58.000Z</time>
      </trkpt>
      <trkpt lat="45.23677" lon="6.03771">
        <ele>2413.8000488281</ele>
        <time>2021-01-02T12:08:00.000Z</time>
      </trkpt>
      <trkpt lat="45.23677" lon="6.0377">
        <ele>2413.1999511719</ele>
        <time>2021-01-02T12:08:02.000Z</time>
      </trkpt>
      <trkpt lat="45.23675" lon="6.03769">
        <ele>2412.8000488281</ele>
        <time>2021-01-02T12:08:05.000Z</time>
      </trkpt>
      <trkpt lat="45.23672" lon="6.03767">
        <ele>2412.6000976562</ele>
        <time>2021-01-02T12:08:09.000Z</time>
      </trkpt>
      <trkpt lat="45.23659" lon="6.03759">
        <ele>2412.3999023438</ele>
        <time>2021-01-02T12:08:13.000Z</time>
      </trkpt>
      <trkpt lat="45.23658" lon="6.03759">
        <ele>2411.6000976562</ele>
        <time>2021-01-02T12:08:14.000Z</time>
      </trkpt>
      <trkpt lat="45.23658" lon="6.03759">
        <ele>2410</ele>
        <time>2021-01-02T12:08:16.000Z</time>
      </trkpt>
      <trkpt lat="45.23658" lon="6.03759">
        <ele>2408.8000488281</ele>
        <time>2021-01-02T12:08:19.000Z</time>
      </trkpt>
      <trkpt lat="45.23657" lon="6.03758">
        <ele>2408.6000976562</ele>
        <time>2021-01-02T12:08:20.000Z</time>
      </trkpt>
      <trkpt lat="45.23654" lon="6.03751">
        <ele>2408.3999023438</ele>
        <time>2021-01-02T12:08:22.000Z</time>
      </trkpt>
      <trkpt lat="45.23643" lon="6.03741">
        <ele>2407</ele>
        <time>2021-01-02T12:08:26.000Z</time>
      </trkpt>
      <trkpt lat="45.23641" lon="6.03738">
        <ele>2406</ele>
        <time>2021-01-02T12:08:27.000Z</time>
      </trkpt>
      <trkpt lat="45.2364" lon="6.03736">
        <ele>2404.8000488281</ele>
        <time>2021-01-02T12:08:28.000Z</time>
      </trkpt>
      <trkpt lat="45.2364" lon="6.03731">
        <ele>2403.6000976562</ele>
        <time>2021-01-02T12:08:29.000Z</time>
      </trkpt>
      <trkpt lat="45.23637" lon="6.03725">
        <ele>2402.8000488281</ele>
        <time>2021-01-02T12:08:30.000Z</time>
      </trkpt>
      <trkpt lat="45.23635" lon="6.03721">
        <ele>2402.1999511719</ele>
        <time>2021-01-02T12:08:31.000Z</time>
      </trkpt>
      <trkpt lat="45.23632" lon="6.03711">
        <ele>2400.6000976562</ele>
        <time>2021-01-02T12:08:33.000Z</time>
      </trkpt>
      <trkpt lat="45.2363" lon="6.03707">
        <ele>2399.1999511719</ele>
        <time>2021-01-02T12:08:34.000Z</time>
      </trkpt>
      <trkpt lat="45.23631" lon="6.03701">
        <ele>2397.3999023438</ele>
        <time>2021-01-02T12:08:35.000Z</time>
      </trkpt>
      <trkpt lat="45.23629" lon="6.03697">
        <ele>2395.6000976562</ele>
        <time>2021-01-02T12:08:36.000Z</time>
      </trkpt>
      <trkpt lat="45.23625" lon="6.03691">
        <ele>2394.3999023438</ele>
        <time>2021-01-02T12:08:37.000Z</time>
      </trkpt>
      <trkpt lat="45.23625" lon="6.03686">
        <ele>2392.1999511719</ele>
        <time>2021-01-02T12:08:38.000Z</time>
      </trkpt>
      <trkpt lat="45.23624" lon="6.03681">
        <ele>2390.8000488281</ele>
        <time>2021-01-02T12:08:39.000Z</time>
      </trkpt>
      <trkpt lat="45.23622" lon="6.03677">
        <ele>2389.1999511719</ele>
        <time>2021-01-02T12:08:40.000Z</time>
      </trkpt>
      <trkpt lat="45.23619" lon="6.03676">
        <ele>2387.6000976562</ele>
        <time>2021-01-02T12:08:41.000Z</time>
      </trkpt>
      <trkpt lat="45.23617" lon="6.03672">
        <ele>2386</ele>
        <time>2021-01-02T12:08:42.000Z</time>
      </trkpt>
      <trkpt lat="45.23619" lon="6.03667">
        <ele>2384.1999511719</ele>
        <time>2021-01-02T12:08:43.000Z</time>
      </trkpt>
      <trkpt lat="45.23619" lon="6.0366">
        <ele>2382.3999023438</ele>
        <time>2021-01-02T12:08:44.000Z</time>
      </trkpt>
      <trkpt lat="45.23617" lon="6.03656">
        <ele>2381</ele>
        <time>2021-01-02T12:08:45.000Z</time>
      </trkpt>
      <trkpt lat="45.23615" lon="6.03652">
        <ele>2379.6000976562</ele>
        <time>2021-01-02T12:08:46.000Z</time>
      </trkpt>
      <trkpt lat="45.23612" lon="6.03648">
        <ele>2378.1999511719</ele>
        <time>2021-01-02T12:08:47.000Z</time>
      </trkpt>
      <trkpt lat="45.2361" lon="6.03643">
        <ele>2376.8000488281</ele>
        <time>2021-01-02T12:08:48.000Z</time>
      </trkpt>
      <trkpt lat="45.23607" lon="6.0364">
        <ele>2375.1999511719</ele>
        <time>2021-01-02T12:08:49.000Z</time>
      </trkpt>
      <trkpt lat="45.23604" lon="6.03637">
        <ele>2374</ele>
        <time>2021-01-02T12:08:50.000Z</time>
      </trkpt>
      <trkpt lat="45.23601" lon="6.03632">
        <ele>2372.6000976562</ele>
        <time>2021-01-02T12:08:51.000Z</time>
      </trkpt>
      <trkpt lat="45.23599" lon="6.03627">
        <ele>2371.1999511719</ele>
        <time>2021-01-02T12:08:52.000Z</time>
      </trkpt>
      <trkpt lat="45.23597" lon="6.0362">
        <ele>2369.6000976562</ele>
        <time>2021-01-02T12:08:53.000Z</time>
      </trkpt>
      <trkpt lat="45.23594" lon="6.03616">
        <ele>2368.1999511719</ele>
        <time>2021-01-02T12:08:54.000Z</time>
      </trkpt>
      <trkpt lat="45.23591" lon="6.03609">
        <ele>2366.6000976562</ele>
        <time>2021-01-02T12:08:55.000Z</time>
      </trkpt>
      <trkpt lat="45.23588" lon="6.03603">
        <ele>2365.1999511719</ele>
        <time>2021-01-02T12:08:56.000Z</time>
      </trkpt>
      <trkpt lat="45.23585" lon="6.03595">
        <ele>2364</ele>
        <time>2021-01-02T12:08:57.000Z</time>
      </trkpt>
      <trkpt lat="45.2358" lon="6.0359">
        <ele>2362.6000976562</ele>
        <time>2021-01-02T12:08:58.000Z</time>
      </trkpt>
      <trkpt lat="45.23578" lon="6.03582">
        <ele>2361.1999511719</ele>
        <time>2021-01-02T12:08:59.000Z</time>
      </trkpt>
      <trkpt lat="45.23574" lon="6.03576">
        <ele>2359.6000976562</ele>
        <time>2021-01-02T12:09:00.000Z</time>
      </trkpt>
      <trkpt lat="45.23572" lon="6.03568">
        <ele>2357.8000488281</ele>
        <time>2021-01-02T12:09:01.000Z</time>
      </trkpt>
      <trkpt lat="45.23568" lon="6.03564">
        <ele>2354.3999023438</ele>
        <time>2021-01-02T12:09:02.000Z</time>
      </trkpt>
      <trkpt lat="45.23566" lon="6.0356">
        <ele>2352.3999023438</ele>
        <time>2021-01-02T12:09:03.000Z</time>
      </trkpt>
      <trkpt lat="45.23565" lon="6.03554">
        <ele>2350.3999023438</ele>
        <time>2021-01-02T12:09:04.000Z</time>
      </trkpt>
      <trkpt lat="45.23562" lon="6.03549">
        <ele>2348.8000488281</ele>
        <time>2021-01-02T12:09:05.000Z</time>
      </trkpt>
      <trkpt lat="45.2356" lon="6.03542">
        <ele>2347.6000976562</ele>
        <time>2021-01-02T12:09:06.000Z</time>
      </trkpt>
      <trkpt lat="45.23556" lon="6.0354">
        <ele>2346.3999023438</ele>
        <time>2021-01-02T12:09:07.000Z</time>
      </trkpt>
      <trkpt lat="45.23554" lon="6.0354">
        <ele>2345</ele>
        <time>2021-01-02T12:09:08.000Z</time>
      </trkpt>
      <trkpt lat="45.23554" lon="6.03539">
        <ele>2343.6000976562</ele>
        <time>2021-01-02T12:09:09.000Z</time>
      </trkpt>
      <trkpt lat="45.23554" lon="6.03539">
        <ele>2342.1999511719</ele>
        <time>2021-01-02T12:09:10.000Z</time>
      </trkpt>
      <trkpt lat="45.23554" lon="6.03539">
        <ele>2341</ele>
        <time>2021-01-02T12:09:11.000Z</time>
      </trkpt>
      <trkpt lat="45.23554" lon="6.03539">
        <ele>2339.8000488281</ele>
        <time>2021-01-02T12:09:13.000Z</time>
      </trkpt>
      <trkpt lat="45.23554" lon="6.0354">
        <ele>2338.6000976562</ele>
        <time>2021-01-02T12:09:17.000Z</time>
      </trkpt>
      <trkpt lat="45.23554" lon="6.0354">
        <ele>2338</ele>
        <time>2021-01-02T12:09:21.000Z</time>
      </trkpt>
      <trkpt lat="45.23554" lon="6.03538">
        <ele>2337.8000488281</ele>
        <time>2021-01-02T12:09:26.000Z</time>
      </trkpt>
      <trkpt lat="45.23552" lon="6.03536">
        <ele>2337.8000488281</ele>
        <time>2021-01-02T12:09:27.000Z</time>
      </trkpt>
      <trkpt lat="45.23549" lon="6.03526">
        <ele>2337.6000976562</ele>
        <time>2021-01-02T12:09:30.000Z</time>
      </trkpt>
      <trkpt lat="45.23551" lon="6.0352">
        <ele>2337.3999023438</ele>
        <time>2021-01-02T12:09:31.000Z</time>
      </trkpt>
      <trkpt lat="45.23546" lon="6.03512">
        <ele>2336.8000488281</ele>
        <time>2021-01-02T12:09:33.000Z</time>
      </trkpt>
      <trkpt lat="45.23542" lon="6.0351">
        <ele>2336</ele>
        <time>2021-01-02T12:09:34.000Z</time>
      </trkpt>
      <trkpt lat="45.23545" lon="6.03501">
        <ele>2334.3999023438</ele>
        <time>2021-01-02T12:09:36.000Z</time>
      </trkpt>
      <trkpt lat="45.23545" lon="6.03495">
        <ele>2332.6000976562</ele>
        <time>2021-01-02T12:09:38.000Z</time>
      </trkpt>
      <trkpt lat="45.23545" lon="6.03496">
        <ele>2331.3999023438</ele>
        <time>2021-01-02T12:09:40.000Z</time>
      </trkpt>
      <trkpt lat="45.23545" lon="6.03496">
        <ele>2329.6000976562</ele>
        <time>2021-01-02T12:09:42.000Z</time>
      </trkpt>
      <trkpt lat="45.23545" lon="6.03496">
        <ele>2328.6000976562</ele>
        <time>2021-01-02T12:09:46.000Z</time>
      </trkpt>
      <trkpt lat="45.23545" lon="6.03495">
        <ele>2328.3999023438</ele>
        <time>2021-01-02T12:09:48.000Z</time>
      </trkpt>
      <trkpt lat="45.23541" lon="6.0349">
        <ele>2328</ele>
        <time>2021-01-02T12:09:51.000Z</time>
      </trkpt>
      <trkpt lat="45.23539" lon="6.03488">
        <ele>2327.8000488281</ele>
        <time>2021-01-02T12:09:52.000Z</time>
      </trkpt>
      <trkpt lat="45.23533" lon="6.03495">
        <ele>2327.3999023438</ele>
        <time>2021-01-02T12:09:54.000Z</time>
      </trkpt>
      <trkpt lat="45.23528" lon="6.03485">
        <ele>2326.3999023438</ele>
        <time>2021-01-02T12:09:56.000Z</time>
      </trkpt>
      <trkpt lat="45.23524" lon="6.03487">
        <ele>2325.6000976562</ele>
        <time>2021-01-02T12:09:57.000Z</time>
      </trkpt>
      <trkpt lat="45.2352" lon="6.03491">
        <ele>2324.1999511719</ele>
        <time>2021-01-02T12:09:58.000Z</time>
      </trkpt>
      <trkpt lat="45.23518" lon="6.03494">
        <ele>2323</ele>
        <time>2021-01-02T12:09:59.000Z</time>
      </trkpt>
      <trkpt lat="45.23516" lon="6.0349">
        <ele>2321.8000488281</ele>
        <time>2021-01-02T12:10:00.000Z</time>
      </trkpt>
      <trkpt lat="45.23515" lon="6.03483">
        <ele>2320.3999023438</ele>
        <time>2021-01-02T12:10:01.000Z</time>
      </trkpt>
      <trkpt lat="45.23512" lon="6.03478">
        <ele>2318.8000488281</ele>
        <time>2021-01-02T12:10:02.000Z</time>
      </trkpt>
      <trkpt lat="45.23507" lon="6.03483">
        <ele>2317.1999511719</ele>
        <time>2021-01-02T12:10:03.000Z</time>
      </trkpt>
      <trkpt lat="45.23504" lon="6.03478">
        <ele>2315.8000488281</ele>
        <time>2021-01-02T12:10:04.000Z</time>
      </trkpt>
      <trkpt lat="45.23501" lon="6.03474">
        <ele>2314.1999511719</ele>
        <time>2021-01-02T12:10:05.000Z</time>
      </trkpt>
      <trkpt lat="45.23496" lon="6.03474">
        <ele>2312.6000976562</ele>
        <time>2021-01-02T12:10:06.000Z</time>
      </trkpt>
      <trkpt lat="45.23492" lon="6.03478">
        <ele>2310.8000488281</ele>
        <time>2021-01-02T12:10:07.000Z</time>
      </trkpt>
      <trkpt lat="45.2349" lon="6.03479">
        <ele>2308.8000488281</ele>
        <time>2021-01-02T12:10:08.000Z</time>
      </trkpt>
      <trkpt lat="45.23488" lon="6.0348">
        <ele>2306.6000976562</ele>
        <time>2021-01-02T12:10:09.000Z</time>
      </trkpt>
      <trkpt lat="45.23487" lon="6.03482">
        <ele>2304.3999023438</ele>
        <time>2021-01-02T12:10:10.000Z</time>
      </trkpt>
      <trkpt lat="45.23486" lon="6.03483">
        <ele>2301.3999023438</ele>
        <time>2021-01-02T12:10:11.000Z</time>
      </trkpt>
      <trkpt lat="45.23486" lon="6.03482">
        <ele>2298.8000488281</ele>
        <time>2021-01-02T12:10:12.000Z</time>
      </trkpt>
      <trkpt lat="45.23486" lon="6.03482">
        <ele>2297.1999511719</ele>
        <time>2021-01-02T12:10:13.000Z</time>
      </trkpt>
      <trkpt lat="45.23486" lon="6.03482">
        <ele>2295.8000488281</ele>
        <time>2021-01-02T12:10:14.000Z</time>
      </trkpt>
      <trkpt lat="45.23487" lon="6.03483">
        <ele>2294.8000488281</ele>
        <time>2021-01-02T12:10:24.000Z</time>
      </trkpt>
      <trkpt lat="45.23487" lon="6.03483">
        <ele>2294.6000976562</ele>
        <time>2021-01-02T12:10:25.000Z</time>
      </trkpt>
      <trkpt lat="45.23487" lon="6.03483">
        <ele>2295.8000488281</ele>
        <time>2021-01-02T12:10:34.000Z</time>
      </trkpt>
      <trkpt lat="45.23487" lon="6.03483">
        <ele>2295.3999023438</ele>
        <time>2021-01-02T12:10:36.000Z</time>
      </trkpt>
      <trkpt lat="45.23487" lon="6.03483">
        <ele>2294.6000976562</ele>
        <time>2021-01-02T12:10:37.000Z</time>
      </trkpt>
      <trkpt lat="45.23487" lon="6.03483">
        <ele>2292.3999023438</ele>
        <time>2021-01-02T12:10:38.000Z</time>
      </trkpt>
      <trkpt lat="45.23487" lon="6.03483">
        <ele>2293.8000488281</ele>
        <time>2021-01-02T12:10:42.000Z</time>
      </trkpt>
      <trkpt lat="45.23487" lon="6.03483">
        <ele>2295</ele>
        <time>2021-01-02T12:10:43.000Z</time>
      </trkpt>
      <trkpt lat="45.23487" lon="6.03483">
        <ele>2296.1999511719</ele>
        <time>2021-01-02T12:10:44.000Z</time>
      </trkpt>
      <trkpt lat="45.23487" lon="6.03483">
        <ele>2297.3999023438</ele>
        <time>2021-01-02T12:10:45.000Z</time>
      </trkpt>
      <trkpt lat="45.23487" lon="6.03483">
        <ele>2297</ele>
        <time>2021-01-02T12:10:50.000Z</time>
      </trkpt>
      <trkpt lat="45.23487" lon="6.03483">
        <ele>2296.1999511719</ele>
        <time>2021-01-02T12:10:51.000Z</time>
      </trkpt>
      <trkpt lat="45.23487" lon="6.03482">
        <ele>2294.8000488281</ele>
        <time>2021-01-02T12:10:54.000Z</time>
      </trkpt>
      <trkpt lat="45.23486" lon="6.03482">
        <ele>2294.3999023438</ele>
        <time>2021-01-02T12:10:57.000Z</time>
      </trkpt>
      <trkpt lat="45.23485" lon="6.03482">
        <ele>2294.3999023438</ele>
        <time>2021-01-02T12:10:58.000Z</time>
      </trkpt>
      <trkpt lat="45.23482" lon="6.03482">
        <ele>2294</ele>
        <time>2021-01-02T12:11:01.000Z</time>
      </trkpt>
      <trkpt lat="45.23482" lon="6.03481">
        <ele>2293.8000488281</ele>
        <time>2021-01-02T12:11:02.000Z</time>
      </trkpt>
      <trkpt lat="45.23482" lon="6.03481">
        <ele>2292.6000976562</ele>
        <time>2021-01-02T12:11:04.000Z</time>
      </trkpt>
      <trkpt lat="45.23482" lon="6.03481">
        <ele>2292.1999511719</ele>
        <time>2021-01-02T12:11:06.000Z</time>
      </trkpt>
      <trkpt lat="45.23481" lon="6.03481">
        <ele>2292</ele>
        <time>2021-01-02T12:11:13.000Z</time>
      </trkpt>
      <trkpt lat="45.23476" lon="6.03481">
        <ele>2291.6000976562</ele>
        <time>2021-01-02T12:11:16.000Z</time>
      </trkpt>
      <trkpt lat="45.23474" lon="6.0348">
        <ele>2291.3999023438</ele>
        <time>2021-01-02T12:11:17.000Z</time>
      </trkpt>
      <trkpt lat="45.23473" lon="6.03476">
        <ele>2291.1999511719</ele>
        <time>2021-01-02T12:11:18.000Z</time>
      </trkpt>
      <trkpt lat="45.2347" lon="6.03471">
        <ele>2290.6000976562</ele>
        <time>2021-01-02T12:11:20.000Z</time>
      </trkpt>
      <trkpt lat="45.23468" lon="6.03472">
        <ele>2290</ele>
        <time>2021-01-02T12:11:21.000Z</time>
      </trkpt>
      <trkpt lat="45.23465" lon="6.03468">
        <ele>2288.6000976562</ele>
        <time>2021-01-02T12:11:23.000Z</time>
      </trkpt>
      <trkpt lat="45.23466" lon="6.03465">
        <ele>2287.6000976562</ele>
        <time>2021-01-02T12:11:24.000Z</time>
      </trkpt>
      <trkpt lat="45.23464" lon="6.03461">
        <ele>2286.3999023438</ele>
        <time>2021-01-02T12:11:25.000Z</time>
      </trkpt>
      <trkpt lat="45.23461" lon="6.03461">
        <ele>2285.6000976562</ele>
        <time>2021-01-02T12:11:26.000Z</time>
      </trkpt>
      <trkpt lat="45.23458" lon="6.03462">
        <ele>2283.8000488281</ele>
        <time>2021-01-02T12:11:27.000Z</time>
      </trkpt>
      <trkpt lat="45.23458" lon="6.03461">
        <ele>2282.6000976562</ele>
        <time>2021-01-02T12:11:28.000Z</time>
      </trkpt>
      <trkpt lat="45.23456" lon="6.0346">
        <ele>2281</ele>
        <time>2021-01-02T12:11:29.000Z</time>
      </trkpt>
      <trkpt lat="45.23456" lon="6.0346">
        <ele>2279.3999023438</ele>
        <time>2021-01-02T12:11:30.000Z</time>
      </trkpt>
      <trkpt lat="45.23456" lon="6.0346">
        <ele>2278.1999511719</ele>
        <time>2021-01-02T12:11:31.000Z</time>
      </trkpt>
      <trkpt lat="45.23456" lon="6.0346">
        <ele>2276.6000976562</ele>
        <time>2021-01-02T12:11:33.000Z</time>
      </trkpt>
      <trkpt lat="45.23456" lon="6.0346">
        <ele>2275.3999023438</ele>
        <time>2021-01-02T12:11:35.000Z</time>
      </trkpt>
      <trkpt lat="45.23455" lon="6.0346">
        <ele>2275</ele>
        <time>2021-01-02T12:11:36.000Z</time>
      </trkpt>
      <trkpt lat="45.23451" lon="6.03455">
        <ele>2274.3999023438</ele>
        <time>2021-01-02T12:11:38.000Z</time>
      </trkpt>
      <trkpt lat="45.23453" lon="6.03454">
        <ele>2274.3999023438</ele>
        <time>2021-01-02T12:11:39.000Z</time>
      </trkpt>
      <trkpt lat="45.23447" lon="6.0345">
        <ele>2273.1999511719</ele>
        <time>2021-01-02T12:11:42.000Z</time>
      </trkpt>
      <trkpt lat="45.23446" lon="6.03445">
        <ele>2272</ele>
        <time>2021-01-02T12:11:44.000Z</time>
      </trkpt>
      <trkpt lat="45.23446" lon="6.03445">
        <ele>2271</ele>
        <time>2021-01-02T12:11:45.000Z</time>
      </trkpt>
      <trkpt lat="45.23446" lon="6.03446">
        <ele>2270</ele>
        <time>2021-01-02T12:11:46.000Z</time>
      </trkpt>
      <trkpt lat="45.23446" lon="6.03446">
        <ele>2269</ele>
        <time>2021-01-02T12:11:47.000Z</time>
      </trkpt>
      <trkpt lat="45.23446" lon="6.03442">
        <ele>2268</ele>
        <time>2021-01-02T12:11:48.000Z</time>
      </trkpt>
      <trkpt lat="45.23444" lon="6.03442">
        <ele>2267.1999511719</ele>
        <time>2021-01-02T12:11:49.000Z</time>
      </trkpt>
      <trkpt lat="45.23446" lon="6.03441">
        <ele>2265.1999511719</ele>
        <time>2021-01-02T12:11:51.000Z</time>
      </trkpt>
      <trkpt lat="45.23445" lon="6.03439">
        <ele>2264.6000976562</ele>
        <time>2021-01-02T12:11:52.000Z</time>
      </trkpt>
      <trkpt lat="45.23446" lon="6.03438">
        <ele>2263.8000488281</ele>
        <time>2021-01-02T12:11:53.000Z</time>
      </trkpt>
      <trkpt lat="45.23445" lon="6.0344">
        <ele>2262.1999511719</ele>
        <time>2021-01-02T12:11:55.000Z</time>
      </trkpt>
      <trkpt lat="45.23446" lon="6.03434">
        <ele>2260.8000488281</ele>
        <time>2021-01-02T12:11:57.000Z</time>
      </trkpt>
      <trkpt lat="45.23442" lon="6.03433">
        <ele>2259.8000488281</ele>
        <time>2021-01-02T12:11:59.000Z</time>
      </trkpt>
      <trkpt lat="45.23444" lon="6.03434">
        <ele>2258.1999511719</ele>
        <time>2021-01-02T12:12:01.000Z</time>
      </trkpt>
      <trkpt lat="45.23445" lon="6.03434">
        <ele>2257</ele>
        <time>2021-01-02T12:12:02.000Z</time>
      </trkpt>
      <trkpt lat="45.23446" lon="6.03435">
        <ele>2256</ele>
        <time>2021-01-02T12:12:03.000Z</time>
      </trkpt>
      <trkpt lat="45.23445" lon="6.03435">
        <ele>2255.6000976562</ele>
        <time>2021-01-02T12:12:04.000Z</time>
      </trkpt>
      <trkpt lat="45.23445" lon="6.03435">
        <ele>2255.6000976562</ele>
        <time>2021-01-02T12:12:10.000Z</time>
      </trkpt>
      <trkpt lat="45.23445" lon="6.03429">
        <ele>2255</ele>
        <time>2021-01-02T12:12:13.000Z</time>
      </trkpt>
      <trkpt lat="45.23446" lon="6.03431">
        <ele>2254.8000488281</ele>
        <time>2021-01-02T12:12:14.000Z</time>
      </trkpt>
      <trkpt lat="45.23446" lon="6.03431">
        <ele>2254.3999023438</ele>
        <time>2021-01-02T12:12:15.000Z</time>
      </trkpt>
      <trkpt lat="45.23444" lon="6.03426">
        <ele>2253.1999511719</ele>
        <time>2021-01-02T12:12:18.000Z</time>
      </trkpt>
      <trkpt lat="45.23445" lon="6.03418">
        <ele>2251.8000488281</ele>
        <time>2021-01-02T12:12:21.000Z</time>
      </trkpt>
      <trkpt lat="45.23443" lon="6.03416">
        <ele>2250</ele>
        <time>2021-01-02T12:12:23.000Z</time>
      </trkpt>
      <trkpt lat="45.23444" lon="6.03414">
        <ele>2248.8000488281</ele>
        <time>2021-01-02T12:12:24.000Z</time>
      </trkpt>
      <trkpt lat="45.23446" lon="6.03413">
        <ele>2247.8000488281</ele>
        <time>2021-01-02T12:12:25.000Z</time>
      </trkpt>
      <trkpt lat="45.23443" lon="6.03411">
        <ele>2245.8000488281</ele>
        <time>2021-01-02T12:12:27.000Z</time>
      </trkpt>
      <trkpt lat="45.23443" lon="6.03406">
        <ele>2244.8000488281</ele>
        <time>2021-01-02T12:12:28.000Z</time>
      </trkpt>
      <trkpt lat="45.23443" lon="6.03407">
        <ele>2243.8000488281</ele>
        <time>2021-01-02T12:12:29.000Z</time>
      </trkpt>
      <trkpt lat="45.23443" lon="6.03407">
        <ele>2242.6000976562</ele>
        <time>2021-01-02T12:12:30.000Z</time>
      </trkpt>
      <trkpt lat="45.23443" lon="6.03407">
        <ele>2241.3999023438</ele>
        <time>2021-01-02T12:12:31.000Z</time>
      </trkpt>
      <trkpt lat="45.23443" lon="6.03407">
        <ele>2239.8000488281</ele>
        <time>2021-01-02T12:12:33.000Z</time>
      </trkpt>
      <trkpt lat="45.23443" lon="6.03407">
        <ele>2238.8000488281</ele>
        <time>2021-01-02T12:12:37.000Z</time>
      </trkpt>
      <trkpt lat="45.23443" lon="6.03408">
        <ele>2238.3999023438</ele>
        <time>2021-01-02T12:12:40.000Z</time>
      </trkpt>
      <trkpt lat="45.23443" lon="6.03408">
        <ele>2238.1999511719</ele>
        <time>2021-01-02T12:12:48.000Z</time>
      </trkpt>
      <trkpt lat="45.23443" lon="6.03408">
        <ele>2238.6000976562</ele>
        <time>2021-01-02T12:13:04.000Z</time>
      </trkpt>
      <trkpt lat="45.23444" lon="6.03406">
        <ele>2238.6000976562</ele>
        <time>2021-01-02T12:13:10.000Z</time>
      </trkpt>
      <trkpt lat="45.23443" lon="6.03402">
        <ele>2238.3999023438</ele>
        <time>2021-01-02T12:13:11.000Z</time>
      </trkpt>
      <trkpt lat="45.23443" lon="6.03398">
        <ele>2238.1999511719</ele>
        <time>2021-01-02T12:13:14.000Z</time>
      </trkpt>
      <trkpt lat="45.23442" lon="6.03392">
        <ele>2237.3999023438</ele>
        <time>2021-01-02T12:13:16.000Z</time>
      </trkpt>
      <trkpt lat="45.2344" lon="6.03391">
        <ele>2236.1999511719</ele>
        <time>2021-01-02T12:13:17.000Z</time>
      </trkpt>
      <trkpt lat="45.2344" lon="6.03386">
        <ele>2235.1999511719</ele>
        <time>2021-01-02T12:13:18.000Z</time>
      </trkpt>
      <trkpt lat="45.23439" lon="6.03383">
        <ele>2233.1999511719</ele>
        <time>2021-01-02T12:13:20.000Z</time>
      </trkpt>
      <trkpt lat="45.23437" lon="6.03381">
        <ele>2231.8000488281</ele>
        <time>2021-01-02T12:13:21.000Z</time>
      </trkpt>
      <trkpt lat="45.23438" lon="6.03382">
        <ele>2230.6000976562</ele>
        <time>2021-01-02T12:13:22.000Z</time>
      </trkpt>
      <trkpt lat="45.23437" lon="6.03382">
        <ele>2229.1999511719</ele>
        <time>2021-01-02T12:13:23.000Z</time>
      </trkpt>
      <trkpt lat="45.23437" lon="6.03377">
        <ele>2227.8000488281</ele>
        <time>2021-01-02T12:13:24.000Z</time>
      </trkpt>
      <trkpt lat="45.23439" lon="6.03376">
        <ele>2226.3999023438</ele>
        <time>2021-01-02T12:13:25.000Z</time>
      </trkpt>
      <trkpt lat="45.23441" lon="6.03374">
        <ele>2225.3999023438</ele>
        <time>2021-01-02T12:13:26.000Z</time>
      </trkpt>
      <trkpt lat="45.2344" lon="6.0337">
        <ele>2224.3999023438</ele>
        <time>2021-01-02T12:13:27.000Z</time>
      </trkpt>
      <trkpt lat="45.23436" lon="6.03369">
        <ele>2223.8000488281</ele>
        <time>2021-01-02T12:13:28.000Z</time>
      </trkpt>
      <trkpt lat="45.23434" lon="6.03367">
        <ele>2222.8000488281</ele>
        <time>2021-01-02T12:13:29.000Z</time>
      </trkpt>
      <trkpt lat="45.23437" lon="6.03362">
        <ele>2221.8000488281</ele>
        <time>2021-01-02T12:13:30.000Z</time>
      </trkpt>
      <trkpt lat="45.23439" lon="6.03357">
        <ele>2220.6000976562</ele>
        <time>2021-01-02T12:13:31.000Z</time>
      </trkpt>
      <trkpt lat="45.23435" lon="6.03356">
        <ele>2219.3999023438</ele>
        <time>2021-01-02T12:13:32.000Z</time>
      </trkpt>
      <trkpt lat="45.23434" lon="6.0335">
        <ele>2218</ele>
        <time>2021-01-02T12:13:33.000Z</time>
      </trkpt>
      <trkpt lat="45.23438" lon="6.03348">
        <ele>2216.6000976562</ele>
        <time>2021-01-02T12:13:34.000Z</time>
      </trkpt>
      <trkpt lat="45.2344" lon="6.03347">
        <ele>2215.1999511719</ele>
        <time>2021-01-02T12:13:35.000Z</time>
      </trkpt>
      <trkpt lat="45.23442" lon="6.03346">
        <ele>2213.3999023438</ele>
        <time>2021-01-02T12:13:36.000Z</time>
      </trkpt>
      <trkpt lat="45.23443" lon="6.03346">
        <ele>2211.6000976562</ele>
        <time>2021-01-02T12:13:37.000Z</time>
      </trkpt>
      <trkpt lat="45.23444" lon="6.03346">
        <ele>2210</ele>
        <time>2021-01-02T12:13:38.000Z</time>
      </trkpt>
      <trkpt lat="45.23444" lon="6.03347">
        <ele>2208.6000976562</ele>
        <time>2021-01-02T12:13:39.000Z</time>
      </trkpt>
      <trkpt lat="45.23444" lon="6.03346">
        <ele>2207.3999023438</ele>
        <time>2021-01-02T12:13:40.000Z</time>
      </trkpt>
      <trkpt lat="45.23446" lon="6.03344">
        <ele>2205.8000488281</ele>
        <time>2021-01-02T12:13:42.000Z</time>
      </trkpt>
      <trkpt lat="45.23449" lon="6.03342">
        <ele>2204.8000488281</ele>
        <time>2021-01-02T12:13:45.000Z</time>
      </trkpt>
      <trkpt lat="45.23452" lon="6.03342">
        <ele>2203.8000488281</ele>
        <time>2021-01-02T12:13:50.000Z</time>
      </trkpt>
      <trkpt lat="45.23452" lon="6.03342">
        <ele>2203</ele>
        <time>2021-01-02T12:13:51.000Z</time>
      </trkpt>
      <trkpt lat="45.23453" lon="6.0334">
        <ele>2202.3999023438</ele>
        <time>2021-01-02T12:13:59.000Z</time>
      </trkpt>
      <trkpt lat="45.23449" lon="6.03335">
        <ele>2202.1999511719</ele>
        <time>2021-01-02T12:14:01.000Z</time>
      </trkpt>
      <trkpt lat="45.23447" lon="6.03333">
        <ele>2202.1999511719</ele>
        <time>2021-01-02T12:14:02.000Z</time>
      </trkpt>
      <trkpt lat="45.23445" lon="6.0333">
        <ele>2201.6000976562</ele>
        <time>2021-01-02T12:14:04.000Z</time>
      </trkpt>
      <trkpt lat="45.23445" lon="6.03327">
        <ele>2200.8000488281</ele>
        <time>2021-01-02T12:14:05.000Z</time>
      </trkpt>
      <trkpt lat="45.23444" lon="6.03322">
        <ele>2199.8000488281</ele>
        <time>2021-01-02T12:14:06.000Z</time>
      </trkpt>
      <trkpt lat="45.23438" lon="6.03321">
        <ele>2198</ele>
        <time>2021-01-02T12:14:08.000Z</time>
      </trkpt>
      <trkpt lat="45.23438" lon="6.03321">
        <ele>2196.8000488281</ele>
        <time>2021-01-02T12:14:09.000Z</time>
      </trkpt>
      <trkpt lat="45.23438" lon="6.03322">
        <ele>2195.3999023438</ele>
        <time>2021-01-02T12:14:10.000Z</time>
      </trkpt>
      <trkpt lat="45.23436" lon="6.03321">
        <ele>2193.8000488281</ele>
        <time>2021-01-02T12:14:11.000Z</time>
      </trkpt>
      <trkpt lat="45.23436" lon="6.03315">
        <ele>2192.6000976562</ele>
        <time>2021-01-02T12:14:12.000Z</time>
      </trkpt>
      <trkpt lat="45.23436" lon="6.03309">
        <ele>2191</ele>
        <time>2021-01-02T12:14:14.000Z</time>
      </trkpt>
      <trkpt lat="45.23435" lon="6.03304">
        <ele>2189.8000488281</ele>
        <time>2021-01-02T12:14:15.000Z</time>
      </trkpt>
      <trkpt lat="45.23437" lon="6.03296">
        <ele>2188</ele>
        <time>2021-01-02T12:14:17.000Z</time>
      </trkpt>
      <trkpt lat="45.23438" lon="6.03293">
        <ele>2186.6000976562</ele>
        <time>2021-01-02T12:14:18.000Z</time>
      </trkpt>
      <trkpt lat="45.2344" lon="6.0329">
        <ele>2185.1999511719</ele>
        <time>2021-01-02T12:14:19.000Z</time>
      </trkpt>
      <trkpt lat="45.23441" lon="6.03285">
        <ele>2183.6000976562</ele>
        <time>2021-01-02T12:14:20.000Z</time>
      </trkpt>
      <trkpt lat="45.23441" lon="6.0328">
        <ele>2182</ele>
        <time>2021-01-02T12:14:21.000Z</time>
      </trkpt>
      <trkpt lat="45.23442" lon="6.03276">
        <ele>2180.6000976562</ele>
        <time>2021-01-02T12:14:22.000Z</time>
      </trkpt>
      <trkpt lat="45.23442" lon="6.0327">
        <ele>2179</ele>
        <time>2021-01-02T12:14:23.000Z</time>
      </trkpt>
      <trkpt lat="45.23441" lon="6.03268">
        <ele>2177.3999023438</ele>
        <time>2021-01-02T12:14:24.000Z</time>
      </trkpt>
      <trkpt lat="45.23441" lon="6.03261">
        <ele>2175.3999023438</ele>
        <time>2021-01-02T12:14:25.000Z</time>
      </trkpt>
      <trkpt lat="45.23443" lon="6.03255">
        <ele>2173.3999023438</ele>
        <time>2021-01-02T12:14:26.000Z</time>
      </trkpt>
      <trkpt lat="45.23442" lon="6.03251">
        <ele>2171.3999023438</ele>
        <time>2021-01-02T12:14:27.000Z</time>
      </trkpt>
      <trkpt lat="45.23441" lon="6.03244">
        <ele>2169.6000976562</ele>
        <time>2021-01-02T12:14:28.000Z</time>
      </trkpt>
      <trkpt lat="45.23445" lon="6.03239">
        <ele>2167.6000976562</ele>
        <time>2021-01-02T12:14:29.000Z</time>
      </trkpt>
      <trkpt lat="45.23442" lon="6.03234">
        <ele>2165.6000976562</ele>
        <time>2021-01-02T12:14:30.000Z</time>
      </trkpt>
      <trkpt lat="45.23441" lon="6.03229">
        <ele>2163.3999023438</ele>
        <time>2021-01-02T12:14:31.000Z</time>
      </trkpt>
      <trkpt lat="45.23441" lon="6.03224">
        <ele>2161.1999511719</ele>
        <time>2021-01-02T12:14:32.000Z</time>
      </trkpt>
      <trkpt lat="45.23441" lon="6.03219">
        <ele>2159</ele>
        <time>2021-01-02T12:14:33.000Z</time>
      </trkpt>
      <trkpt lat="45.23439" lon="6.03215">
        <ele>2157</ele>
        <time>2021-01-02T12:14:34.000Z</time>
      </trkpt>
      <trkpt lat="45.23436" lon="6.03211">
        <ele>2155</ele>
        <time>2021-01-02T12:14:35.000Z</time>
      </trkpt>
      <trkpt lat="45.23434" lon="6.03205">
        <ele>2152.8000488281</ele>
        <time>2021-01-02T12:14:36.000Z</time>
      </trkpt>
      <trkpt lat="45.23433" lon="6.03199">
        <ele>2150.6000976562</ele>
        <time>2021-01-02T12:14:37.000Z</time>
      </trkpt>
      <trkpt lat="45.23432" lon="6.03194">
        <ele>2148.3999023438</ele>
        <time>2021-01-02T12:14:38.000Z</time>
      </trkpt>
      <trkpt lat="45.23431" lon="6.0319">
        <ele>2144.8000488281</ele>
        <time>2021-01-02T12:14:39.000Z</time>
      </trkpt>
      <trkpt lat="45.23431" lon="6.03184">
        <ele>2143.1999511719</ele>
        <time>2021-01-02T12:14:40.000Z</time>
      </trkpt>
      <trkpt lat="45.23435" lon="6.03184">
        <ele>2141.3999023438</ele>
        <time>2021-01-02T12:14:41.000Z</time>
      </trkpt>
      <trkpt lat="45.23437" lon="6.03179">
        <ele>2139.3999023438</ele>
        <time>2021-01-02T12:14:42.000Z</time>
      </trkpt>
      <trkpt lat="45.23441" lon="6.03176">
        <ele>2137.6000976562</ele>
        <time>2021-01-02T12:14:43.000Z</time>
      </trkpt>
      <trkpt lat="45.23444" lon="6.03175">
        <ele>2135.8000488281</ele>
        <time>2021-01-02T12:14:44.000Z</time>
      </trkpt>
      <trkpt lat="45.23447" lon="6.03175">
        <ele>2134.1999511719</ele>
        <time>2021-01-02T12:14:45.000Z</time>
      </trkpt>
      <trkpt lat="45.23449" lon="6.03175">
        <ele>2132.3999023438</ele>
        <time>2021-01-02T12:14:46.000Z</time>
      </trkpt>
      <trkpt lat="45.23451" lon="6.03177">
        <ele>2130.6000976562</ele>
        <time>2021-01-02T12:14:47.000Z</time>
      </trkpt>
      <trkpt lat="45.23452" lon="6.03176">
        <ele>2128.8000488281</ele>
        <time>2021-01-02T12:14:48.000Z</time>
      </trkpt>
      <trkpt lat="45.23452" lon="6.03176">
        <ele>2127.1999511719</ele>
        <time>2021-01-02T12:14:49.000Z</time>
      </trkpt>
      <trkpt lat="45.23452" lon="6.03176">
        <ele>2125.8000488281</ele>
        <time>2021-01-02T12:14:50.000Z</time>
      </trkpt>
      <trkpt lat="45.23452" lon="6.03176">
        <ele>2124.6000976562</ele>
        <time>2021-01-02T12:14:52.000Z</time>
      </trkpt>
      <trkpt lat="45.23452" lon="6.03176">
        <ele>2124.1999511719</ele>
        <time>2021-01-02T12:14:53.000Z</time>
      </trkpt>
      <trkpt lat="45.23452" lon="6.03176">
        <ele>2123.6000976562</ele>
        <time>2021-01-02T12:14:57.000Z</time>
      </trkpt>
      <trkpt lat="45.23452" lon="6.03176">
        <ele>2123.1999511719</ele>
        <time>2021-01-02T12:15:02.000Z</time>
      </trkpt>
      <trkpt lat="45.23452" lon="6.03176">
        <ele>2123.1999511719</ele>
        <time>2021-01-02T12:15:14.000Z</time>
      </trkpt>
      <trkpt lat="45.23459" lon="6.03173">
        <ele>2123.1999511719</ele>
        <time>2021-01-02T12:15:17.000Z</time>
      </trkpt>
      <trkpt lat="45.23462" lon="6.03165">
        <ele>2123</ele>
        <time>2021-01-02T12:15:19.000Z</time>
      </trkpt>
      <trkpt lat="45.23464" lon="6.03163">
        <ele>2122.8000488281</ele>
        <time>2021-01-02T12:15:20.000Z</time>
      </trkpt>
      <trkpt lat="45.23466" lon="6.03164">
        <ele>2122.3999023438</ele>
        <time>2021-01-02T12:15:21.000Z</time>
      </trkpt>
      <trkpt lat="45.23467" lon="6.03162">
        <ele>2120.6000976562</ele>
        <time>2021-01-02T12:15:23.000Z</time>
      </trkpt>
      <trkpt lat="45.23467" lon="6.03162">
        <ele>2118.8000488281</ele>
        <time>2021-01-02T12:15:25.000Z</time>
      </trkpt>
      <trkpt lat="45.23467" lon="6.03162">
        <ele>2117.1999511719</ele>
        <time>2021-01-02T12:15:27.000Z</time>
      </trkpt>
      <trkpt lat="45.23467" lon="6.03162">
        <ele>2116.1999511719</ele>
        <time>2021-01-02T12:15:31.000Z</time>
      </trkpt>
      <trkpt lat="45.23467" lon="6.03162">
        <ele>2116</ele>
        <time>2021-01-02T12:15:34.000Z</time>
      </trkpt>
      <trkpt lat="45.23467" lon="6.03162">
        <ele>2115.8000488281</ele>
        <time>2021-01-02T12:15:35.000Z</time>
      </trkpt>
      <trkpt lat="45.23467" lon="6.03159">
        <ele>2115.6000976562</ele>
        <time>2021-01-02T12:15:37.000Z</time>
      </trkpt>
      <trkpt lat="45.23468" lon="6.03162">
        <ele>2115.3999023438</ele>
        <time>2021-01-02T12:15:38.000Z</time>
      </trkpt>
      <trkpt lat="45.23468" lon="6.03162">
        <ele>2115.1999511719</ele>
        <time>2021-01-02T12:15:40.000Z</time>
      </trkpt>
      <trkpt lat="45.23468" lon="6.03162">
        <ele>2114.1999511719</ele>
        <time>2021-01-02T12:15:48.000Z</time>
      </trkpt>
      <trkpt lat="45.23468" lon="6.03162">
        <ele>2114</ele>
        <time>2021-01-02T12:15:49.000Z</time>
      </trkpt>
      <trkpt lat="45.23468" lon="6.03162">
        <ele>2114</ele>
        <time>2021-01-02T12:15:55.000Z</time>
      </trkpt>
      <trkpt lat="45.23464" lon="6.03158">
        <ele>2114.1999511719</ele>
        <time>2021-01-02T12:16:01.000Z</time>
      </trkpt>
      <trkpt lat="45.23457" lon="6.03155">
        <ele>2113.1999511719</ele>
        <time>2021-01-02T12:16:06.000Z</time>
      </trkpt>
      <trkpt lat="45.23454" lon="6.03152">
        <ele>2112.8000488281</ele>
        <time>2021-01-02T12:16:07.000Z</time>
      </trkpt>
      <trkpt lat="45.23452" lon="6.03148">
        <ele>2112.3999023438</ele>
        <time>2021-01-02T12:16:08.000Z</time>
      </trkpt>
      <trkpt lat="45.23446" lon="6.0314">
        <ele>2111.3999023438</ele>
        <time>2021-01-02T12:16:10.000Z</time>
      </trkpt>
      <trkpt lat="45.23439" lon="6.03135">
        <ele>2109.8000488281</ele>
        <time>2021-01-02T12:16:12.000Z</time>
      </trkpt>
      <trkpt lat="45.23434" lon="6.0313">
        <ele>2108.1999511719</ele>
        <time>2021-01-02T12:16:14.000Z</time>
      </trkpt>
      <trkpt lat="45.23432" lon="6.03128">
        <ele>2106.6000976562</ele>
        <time>2021-01-02T12:16:15.000Z</time>
      </trkpt>
      <trkpt lat="45.23428" lon="6.03122">
        <ele>2105.1999511719</ele>
        <time>2021-01-02T12:16:17.000Z</time>
      </trkpt>
      <trkpt lat="45.23424" lon="6.03116">
        <ele>2104.1999511719</ele>
        <time>2021-01-02T12:16:19.000Z</time>
      </trkpt>
      <trkpt lat="45.23421" lon="6.03112">
        <ele>2103</ele>
        <time>2021-01-02T12:16:21.000Z</time>
      </trkpt>
      <trkpt lat="45.23421" lon="6.03111">
        <ele>2101.8000488281</ele>
        <time>2021-01-02T12:16:23.000Z</time>
      </trkpt>
      <trkpt lat="45.23421" lon="6.03111">
        <ele>2101</ele>
        <time>2021-01-02T12:16:25.000Z</time>
      </trkpt>
      <trkpt lat="45.23421" lon="6.03111">
        <ele>2100.6000976562</ele>
        <time>2021-01-02T12:16:26.000Z</time>
      </trkpt>
      <trkpt lat="45.23422" lon="6.0311">
        <ele>2099.8000488281</ele>
        <time>2021-01-02T12:16:33.000Z</time>
      </trkpt>
      <trkpt lat="45.23422" lon="6.0311">
        <ele>2099.8000488281</ele>
        <time>2021-01-02T12:16:43.000Z</time>
      </trkpt>
      <trkpt lat="45.23422" lon="6.0311">
        <ele>2099.6000976562</ele>
        <time>2021-01-02T12:16:45.000Z</time>
      </trkpt>
      <trkpt lat="45.23422" lon="6.0311">
        <ele>2099.6000976562</ele>
        <time>2021-01-02T12:16:50.000Z</time>
      </trkpt>
      <trkpt lat="45.23422" lon="6.0311">
        <ele>2099.8000488281</ele>
        <time>2021-01-02T12:16:59.000Z</time>
      </trkpt>
      <trkpt lat="45.23422" lon="6.0311">
        <ele>2100.1999511719</ele>
        <time>2021-01-02T12:17:13.000Z</time>
      </trkpt>
      <trkpt lat="45.23422" lon="6.0311">
        <ele>2100</ele>
        <time>2021-01-02T12:17:21.000Z</time>
      </trkpt>
      <trkpt lat="45.23422" lon="6.0311">
        <ele>2100</ele>
        <time>2021-01-02T12:17:31.000Z</time>
      </trkpt>
      <trkpt lat="45.23422" lon="6.0311">
        <ele>2099.6000976562</ele>
        <time>2021-01-02T12:17:42.000Z</time>
      </trkpt>
      <trkpt lat="45.23422" lon="6.03109">
        <ele>2099.6000976562</ele>
        <time>2021-01-02T12:18:01.000Z</time>
      </trkpt>
      <trkpt lat="45.23422" lon="6.03109">
        <ele>2099.3999023438</ele>
        <time>2021-01-02T12:18:13.000Z</time>
      </trkpt>
      <trkpt lat="45.23422" lon="6.03109">
        <ele>2099.1999511719</ele>
        <time>2021-01-02T12:18:28.000Z</time>
      </trkpt>
      <trkpt lat="45.23422" lon="6.03108">
        <ele>2099.1999511719</ele>
        <time>2021-01-02T12:18:43.000Z</time>
      </trkpt>
      <trkpt lat="45.23422" lon="6.03108">
        <ele>2099.1999511719</ele>
        <time>2021-01-02T12:19:00.000Z</time>
      </trkpt>
      <trkpt lat="45.23421" lon="6.03107">
        <ele>2099.1999511719</ele>
        <time>2021-01-02T12:19:17.000Z</time>
      </trkpt>
      <trkpt lat="45.23421" lon="6.03107">
        <ele>2099.6000976562</ele>
        <time>2021-01-02T12:19:29.000Z</time>
      </trkpt>
      <trkpt lat="45.23421" lon="6.03107">
        <ele>2099.8000488281</ele>
        <time>2021-01-02T12:19:40.000Z</time>
      </trkpt>
      <trkpt lat="45.23421" lon="6.03106">
        <ele>2099.1999511719</ele>
        <time>2021-01-02T12:19:54.000Z</time>
      </trkpt>
      <trkpt lat="45.23421" lon="6.03106">
        <ele>2099.1999511719</ele>
        <time>2021-01-02T12:20:06.000Z</time>
      </trkpt>
      <trkpt lat="45.23421" lon="6.03106">
        <ele>2099.1999511719</ele>
        <time>2021-01-02T12:20:20.000Z</time>
      </trkpt>
      <trkpt lat="45.23421" lon="6.03105">
        <ele>2099.3999023438</ele>
        <time>2021-01-02T12:20:32.000Z</time>
      </trkpt>
      <trkpt lat="45.2342" lon="6.03104">
        <ele>2099.6000976562</ele>
        <time>2021-01-02T12:20:44.000Z</time>
      </trkpt>
      <trkpt lat="45.23419" lon="6.03102">
        <ele>2099</ele>
        <time>2021-01-02T12:20:50.000Z</time>
      </trkpt>
      <trkpt lat="45.23419" lon="6.03102">
        <ele>2098.1999511719</ele>
        <time>2021-01-02T12:20:51.000Z</time>
      </trkpt>
      <trkpt lat="45.23419" lon="6.03102">
        <ele>2096.6000976562</ele>
        <time>2021-01-02T12:20:53.000Z</time>
      </trkpt>
      <trkpt lat="45.23419" lon="6.03102">
        <ele>2097.8000488281</ele>
        <time>2021-01-02T12:20:57.000Z</time>
      </trkpt>
      <trkpt lat="45.23419" lon="6.03102">
        <ele>2099.1999511719</ele>
        <time>2021-01-02T12:20:59.000Z</time>
      </trkpt>
      <trkpt lat="45.23419" lon="6.03103">
        <ele>2099.8000488281</ele>
        <time>2021-01-02T12:21:02.000Z</time>
      </trkpt>
      <trkpt lat="45.23419" lon="6.03103">
        <ele>2099.8000488281</ele>
        <time>2021-01-02T12:21:18.000Z</time>
      </trkpt>
      <trkpt lat="45.23419" lon="6.03103">
        <ele>2100</ele>
        <time>2021-01-02T12:21:31.000Z</time>
      </trkpt>
      <trkpt lat="45.23419" lon="6.03103">
        <ele>2100</ele>
        <time>2021-01-02T12:21:47.000Z</time>
      </trkpt>
      <trkpt lat="45.23419" lon="6.03103">
        <ele>2100</ele>
        <time>2021-01-02T12:22:05.000Z</time>
      </trkpt>
      <trkpt lat="45.23419" lon="6.03103">
        <ele>2100</ele>
        <time>2021-01-02T12:22:24.000Z</time>
      </trkpt>
      <trkpt lat="45.23419" lon="6.03103">
        <ele>2099.8000488281</ele>
        <time>2021-01-02T12:22:35.000Z</time>
      </trkpt>
      <trkpt lat="45.23419" lon="6.03103">
        <ele>2100</ele>
        <time>2021-01-02T12:22:55.000Z</time>
      </trkpt>
      <trkpt lat="45.23419" lon="6.03103">
        <ele>2100.1999511719</ele>
        <time>2021-01-02T12:23:04.000Z</time>
      </trkpt>
      <trkpt lat="45.23419" lon="6.03103">
        <ele>2100.3999023438</ele>
        <time>2021-01-02T12:23:07.000Z</time>
      </trkpt>
      <trkpt lat="45.23419" lon="6.03103">
        <ele>2100.1999511719</ele>
        <time>2021-01-02T12:23:23.000Z</time>
      </trkpt>
      <trkpt lat="45.23419" lon="6.03103">
        <ele>2100.1999511719</ele>
        <time>2021-01-02T12:23:36.000Z</time>
      </trkpt>
      <trkpt lat="45.23419" lon="6.03102">
        <ele>2100.3999023438</ele>
        <time>2021-01-02T12:23:57.000Z</time>
      </trkpt>
      <trkpt lat="45.23419" lon="6.03102">
        <ele>2100.6000976562</ele>
        <time>2021-01-02T12:24:07.000Z</time>
      </trkpt>
      <trkpt lat="45.23419" lon="6.03102">
        <ele>2100.3999023438</ele>
        <time>2021-01-02T12:24:11.000Z</time>
      </trkpt>
      <trkpt lat="45.23418" lon="6.03102">
        <ele>2099.8000488281</ele>
        <time>2021-01-02T12:24:27.000Z</time>
      </trkpt>
      <trkpt lat="45.23418" lon="6.03102">
        <ele>2099.1999511719</ele>
        <time>2021-01-02T12:24:32.000Z</time>
      </trkpt>
      <trkpt lat="45.23418" lon="6.03102">
        <ele>2100.1999511719</ele>
        <time>2021-01-02T12:24:36.000Z</time>
      </trkpt>
      <trkpt lat="45.23418" lon="6.03102">
        <ele>2101</ele>
        <time>2021-01-02T12:24:44.000Z</time>
      </trkpt>
      <trkpt lat="45.23418" lon="6.03102">
        <ele>2100.3999023438</ele>
        <time>2021-01-02T12:25:00.000Z</time>
      </trkpt>
      <trkpt lat="45.23418" lon="6.03102">
        <ele>2100.3999023438</ele>
        <time>2021-01-02T12:25:20.000Z</time>
      </trkpt>
      <trkpt lat="45.23417" lon="6.03102">
        <ele>2100.3999023438</ele>
        <time>2021-01-02T12:25:43.000Z</time>
      </trkpt>
      <trkpt lat="45.23417" lon="6.03102">
        <ele>2100.1999511719</ele>
        <time>2021-01-02T12:26:04.000Z</time>
      </trkpt>
      <trkpt lat="45.23417" lon="6.03102">
        <ele>2100.1999511719</ele>
        <time>2021-01-02T12:26:20.000Z</time>
      </trkpt>
      <trkpt lat="45.23416" lon="6.03102">
        <ele>2100</ele>
        <time>2021-01-02T12:26:40.000Z</time>
      </trkpt>
      <trkpt lat="45.23416" lon="6.03102">
        <ele>2100.1999511719</ele>
        <time>2021-01-02T12:26:57.000Z</time>
      </trkpt>
      <trkpt lat="45.23416" lon="6.03101">
        <ele>2100.8000488281</ele>
        <time>2021-01-02T12:27:06.000Z</time>
      </trkpt>
      <trkpt lat="45.23416" lon="6.03101">
        <ele>2100.3999023438</ele>
        <time>2021-01-02T12:27:24.000Z</time>
      </trkpt>
      <trkpt lat="45.23415" lon="6.031">
        <ele>2100.6000976562</ele>
        <time>2021-01-02T12:27:44.000Z</time>
      </trkpt>
      <trkpt lat="45.23415" lon="6.031">
        <ele>2100.3999023438</ele>
        <time>2021-01-02T12:28:07.000Z</time>
      </trkpt>
      <trkpt lat="45.23415" lon="6.031">
        <ele>2100.8000488281</ele>
        <time>2021-01-02T12:28:25.000Z</time>
      </trkpt>
      <trkpt lat="45.23415" lon="6.031">
        <ele>2100.8000488281</ele>
        <time>2021-01-02T12:28:28.000Z</time>
      </trkpt>
      <trkpt lat="45.23416" lon="6.031">
        <ele>2100.6000976562</ele>
        <time>2021-01-02T12:28:32.000Z</time>
      </trkpt>
      <trkpt lat="45.23415" lon="6.03099">
        <ele>2101.1999511719</ele>
        <time>2021-01-02T12:28:38.000Z</time>
      </trkpt>
      <trkpt lat="45.23415" lon="6.03099">
        <ele>2101.3999023438</ele>
        <time>2021-01-02T12:28:39.000Z</time>
      </trkpt>
      <trkpt lat="45.23415" lon="6.03099">
        <ele>2101.3999023438</ele>
        <time>2021-01-02T12:28:51.000Z</time>
      </trkpt>
      <trkpt lat="45.23415" lon="6.03099">
        <ele>2101.3999023438</ele>
        <time>2021-01-02T12:29:06.000Z</time>
      </trkpt>
      <trkpt lat="45.23415" lon="6.03099">
        <ele>2101.3999023438</ele>
        <time>2021-01-02T12:29:21.000Z</time>
      </trkpt>
      <trkpt lat="45.23415" lon="6.03099">
        <ele>2101.3999023438</ele>
        <time>2021-01-02T12:29:31.000Z</time>
      </trkpt>
      <trkpt lat="45.23416" lon="6.031">
        <ele>2101.3999023438</ele>
        <time>2021-01-02T12:29:47.000Z</time>
      </trkpt>
      <trkpt lat="45.23416" lon="6.031">
        <ele>2101.3999023438</ele>
        <time>2021-01-02T12:30:00.000Z</time>
      </trkpt>
      <trkpt lat="45.23416" lon="6.031">
        <ele>2101.3999023438</ele>
        <time>2021-01-02T12:30:08.000Z</time>
      </trkpt>
      <trkpt lat="45.23416" lon="6.031">
        <ele>2101.3999023438</ele>
        <time>2021-01-02T12:30:17.000Z</time>
      </trkpt>
      <trkpt lat="45.23415" lon="6.031">
        <ele>2101.1999511719</ele>
        <time>2021-01-02T12:30:27.000Z</time>
      </trkpt>
      <trkpt lat="45.23415" lon="6.031">
        <ele>2101.1999511719</ele>
        <time>2021-01-02T12:30:42.000Z</time>
      </trkpt>
      <trkpt lat="45.23415" lon="6.031">
        <ele>2101.1999511719</ele>
        <time>2021-01-02T12:30:59.000Z</time>
      </trkpt>
      <trkpt lat="45.23415" lon="6.03102">
        <ele>2101.3999023438</ele>
        <time>2021-01-02T12:31:08.000Z</time>
      </trkpt>
      <trkpt lat="45.23414" lon="6.031">
        <ele>2101.1999511719</ele>
        <time>2021-01-02T12:31:13.000Z</time>
      </trkpt>
      <trkpt lat="45.23414" lon="6.031">
        <ele>2101.1999511719</ele>
        <time>2021-01-02T12:31:14.000Z</time>
      </trkpt>
      <trkpt lat="45.23414" lon="6.03093">
        <ele>2101.3999023438</ele>
        <time>2021-01-02T12:31:22.000Z</time>
      </trkpt>
      <trkpt lat="45.23411" lon="6.03091">
        <ele>2102.1999511719</ele>
        <time>2021-01-02T12:31:30.000Z</time>
      </trkpt>
      <trkpt lat="45.23411" lon="6.03089">
        <ele>2102.3999023438</ele>
        <time>2021-01-02T12:31:31.000Z</time>
      </trkpt>
      <trkpt lat="45.23412" lon="6.03084">
        <ele>2103</ele>
        <time>2021-01-02T12:31:37.000Z</time>
      </trkpt>
      <trkpt lat="45.23412" lon="6.03081">
        <ele>2103.3999023438</ele>
        <time>2021-01-02T12:31:40.000Z</time>
      </trkpt>
      <trkpt lat="45.23411" lon="6.03076">
        <ele>2104.3999023438</ele>
        <time>2021-01-02T12:31:45.000Z</time>
      </trkpt>
      <trkpt lat="45.2341" lon="6.03072">
        <ele>2105.6000976562</ele>
        <time>2021-01-02T12:31:50.000Z</time>
      </trkpt>
      <trkpt lat="45.23409" lon="6.03071">
        <ele>2106.1999511719</ele>
        <time>2021-01-02T12:31:52.000Z</time>
      </trkpt>
      <trkpt lat="45.2341" lon="6.03065">
        <ele>2106.6000976562</ele>
        <time>2021-01-02T12:31:57.000Z</time>
      </trkpt>
      <trkpt lat="45.23411" lon="6.03063">
        <ele>2106.6000976562</ele>
        <time>2021-01-02T12:31:58.000Z</time>
      </trkpt>
      <trkpt lat="45.23412" lon="6.03059">
        <ele>2106.6000976562</ele>
        <time>2021-01-02T12:32:02.000Z</time>
      </trkpt>
      <trkpt lat="45.23414" lon="6.03052">
        <ele>2106.3999023438</ele>
        <time>2021-01-02T12:32:09.000Z</time>
      </trkpt>
      <trkpt lat="45.23414" lon="6.03047">
        <ele>2105.8000488281</ele>
        <time>2021-01-02T12:32:16.000Z</time>
      </trkpt>
      <trkpt lat="45.23412" lon="6.03046">
        <ele>2105.6000976562</ele>
        <time>2021-01-02T12:32:22.000Z</time>
      </trkpt>
      <trkpt lat="45.23413" lon="6.03044">
        <ele>2105.8000488281</ele>
        <time>2021-01-02T12:32:27.000Z</time>
      </trkpt>
      <trkpt lat="45.23414" lon="6.03043">
        <ele>2106.6000976562</ele>
        <time>2021-01-02T12:32:32.000Z</time>
      </trkpt>
      <trkpt lat="45.23414" lon="6.03043">
        <ele>2106.8000488281</ele>
        <time>2021-01-02T12:32:33.000Z</time>
      </trkpt>
      <trkpt lat="45.23415" lon="6.03042">
        <ele>2107.8000488281</ele>
        <time>2021-01-02T12:32:38.000Z</time>
      </trkpt>
      <trkpt lat="45.23416" lon="6.03041">
        <ele>2107.8000488281</ele>
        <time>2021-01-02T12:32:39.000Z</time>
      </trkpt>
      <trkpt lat="45.23417" lon="6.03041">
        <ele>2108.3999023438</ele>
        <time>2021-01-02T12:32:43.000Z</time>
      </trkpt>
      <trkpt lat="45.23417" lon="6.0304">
        <ele>2109</ele>
        <time>2021-01-02T12:32:49.000Z</time>
      </trkpt>
      <trkpt lat="45.23417" lon="6.0304">
        <ele>2109</ele>
        <time>2021-01-02T12:32:50.000Z</time>
      </trkpt>
      <trkpt lat="45.23419" lon="6.03037">
        <ele>2109.3999023438</ele>
        <time>2021-01-02T12:32:56.000Z</time>
      </trkpt>
      <trkpt lat="45.23419" lon="6.03036">
        <ele>2110</ele>
        <time>2021-01-02T12:33:02.000Z</time>
      </trkpt>
      <trkpt lat="45.23422" lon="6.03032">
        <ele>2111.1999511719</ele>
        <time>2021-01-02T12:33:07.000Z</time>
      </trkpt>
      <trkpt lat="45.23422" lon="6.03031">
        <ele>2111.3999023438</ele>
        <time>2021-01-02T12:33:08.000Z</time>
      </trkpt>
      <trkpt lat="45.23425" lon="6.03029">
        <ele>2111.8000488281</ele>
        <time>2021-01-02T12:33:11.000Z</time>
      </trkpt>
      <trkpt lat="45.23427" lon="6.03029">
        <ele>2112.1999511719</ele>
        <time>2021-01-02T12:33:14.000Z</time>
      </trkpt>
      <trkpt lat="45.23432" lon="6.03029">
        <ele>2113.1999511719</ele>
        <time>2021-01-02T12:33:22.000Z</time>
      </trkpt>
      <trkpt lat="45.23433" lon="6.0303">
        <ele>2113.3999023438</ele>
        <time>2021-01-02T12:33:23.000Z</time>
      </trkpt>
      <trkpt lat="45.23436" lon="6.03029">
        <ele>2114.3999023438</ele>
        <time>2021-01-02T12:33:30.000Z</time>
      </trkpt>
      <trkpt lat="45.23438" lon="6.03028">
        <ele>2115.6000976562</ele>
        <time>2021-01-02T12:33:35.000Z</time>
      </trkpt>
      <trkpt lat="45.23439" lon="6.03028">
        <ele>2116</ele>
        <time>2021-01-02T12:33:37.000Z</time>
      </trkpt>
      <trkpt lat="45.23443" lon="6.03025">
        <ele>2116.6000976562</ele>
        <time>2021-01-02T12:33:43.000Z</time>
      </trkpt>
      <trkpt lat="45.23445" lon="6.03024">
        <ele>2116.8000488281</ele>
        <time>2021-01-02T12:33:45.000Z</time>
      </trkpt>
      <trkpt lat="45.23449" lon="6.03022">
        <ele>2117.8000488281</ele>
        <time>2021-01-02T12:33:52.000Z</time>
      </trkpt>
      <trkpt lat="45.23455" lon="6.03019">
        <ele>2118.1999511719</ele>
        <time>2021-01-02T12:33:59.000Z</time>
      </trkpt>
      <trkpt lat="45.23459" lon="6.03018">
        <ele>2118.8000488281</ele>
        <time>2021-01-02T12:34:04.000Z</time>
      </trkpt>
      <trkpt lat="45.2346" lon="6.03018">
        <ele>2119</ele>
        <time>2021-01-02T12:34:05.000Z</time>
      </trkpt>
      <trkpt lat="45.23463" lon="6.03018">
        <ele>2119.8000488281</ele>
        <time>2021-01-02T12:34:09.000Z</time>
      </trkpt>
      <trkpt lat="45.23466" lon="6.03017">
        <ele>2120.3999023438</ele>
        <time>2021-01-02T12:34:12.000Z</time>
      </trkpt>
      <trkpt lat="45.23467" lon="6.03017">
        <ele>2120.8000488281</ele>
        <time>2021-01-02T12:34:14.000Z</time>
      </trkpt>
      <trkpt lat="45.2347" lon="6.03015">
        <ele>2121.6000976562</ele>
        <time>2021-01-02T12:34:18.000Z</time>
      </trkpt>
      <trkpt lat="45.23472" lon="6.03015">
        <ele>2122</ele>
        <time>2021-01-02T12:34:20.000Z</time>
      </trkpt>
      <trkpt lat="45.23476" lon="6.03012">
        <ele>2122.8000488281</ele>
        <time>2021-01-02T12:34:27.000Z</time>
      </trkpt>
      <trkpt lat="45.23477" lon="6.03012">
        <ele>2123</ele>
        <time>2021-01-02T12:34:28.000Z</time>
      </trkpt>
      <trkpt lat="45.23481" lon="6.03008">
        <ele>2124.1999511719</ele>
        <time>2021-01-02T12:34:35.000Z</time>
      </trkpt>
      <trkpt lat="45.23485" lon="6.03007">
        <ele>2125.1999511719</ele>
        <time>2021-01-02T12:34:40.000Z</time>
      </trkpt>
      <trkpt lat="45.23487" lon="6.03007">
        <ele>2125.6000976562</ele>
        <time>2021-01-02T12:34:43.000Z</time>
      </trkpt>
      <trkpt lat="45.23488" lon="6.03007">
        <ele>2125.8000488281</ele>
        <time>2021-01-02T12:34:46.000Z</time>
      </trkpt>
      <trkpt lat="45.23492" lon="6.03007">
        <ele>2126.1999511719</ele>
        <time>2021-01-02T12:34:50.000Z</time>
      </trkpt>
      <trkpt lat="45.23497" lon="6.03008">
        <ele>2127.1999511719</ele>
        <time>2021-01-02T12:34:58.000Z</time>
      </trkpt>
      <trkpt lat="45.23497" lon="6.03008">
        <ele>2127.1999511719</ele>
        <time>2021-01-02T12:35:00.000Z</time>
      </trkpt>
      <trkpt lat="45.23498" lon="6.03009">
        <ele>2127.3999023438</ele>
        <time>2021-01-02T12:35:02.000Z</time>
      </trkpt>
      <trkpt lat="45.23499" lon="6.0301">
        <ele>2127.3999023438</ele>
        <time>2021-01-02T12:35:04.000Z</time>
      </trkpt>
      <trkpt lat="45.23502" lon="6.0301">
        <ele>2127.6000976562</ele>
        <time>2021-01-02T12:35:07.000Z</time>
      </trkpt>
      <trkpt lat="45.23505" lon="6.03012">
        <ele>2127.8000488281</ele>
        <time>2021-01-02T12:35:10.000Z</time>
      </trkpt>
      <trkpt lat="45.23509" lon="6.03014">
        <ele>2128.1999511719</ele>
        <time>2021-01-02T12:35:14.000Z</time>
      </trkpt>
      <trkpt lat="45.23511" lon="6.03015">
        <ele>2128.1999511719</ele>
        <time>2021-01-02T12:35:16.000Z</time>
      </trkpt>
      <trkpt lat="45.23512" lon="6.03016">
        <ele>2128.3999023438</ele>
        <time>2021-01-02T12:35:17.000Z</time>
      </trkpt>
      <trkpt lat="45.23513" lon="6.03016">
        <ele>2128.3999023438</ele>
        <time>2021-01-02T12:35:18.000Z</time>
      </trkpt>
      <trkpt lat="45.2352" lon="6.03019">
        <ele>2128.3999023438</ele>
        <time>2021-01-02T12:35:25.000Z</time>
      </trkpt>
      <trkpt lat="45.23525" lon="6.0302">
        <ele>2128.6000976562</ele>
        <time>2021-01-02T12:35:30.000Z</time>
      </trkpt>
      <trkpt lat="45.23527" lon="6.03021">
        <ele>2128.6000976562</ele>
        <time>2021-01-02T12:35:32.000Z</time>
      </trkpt>
      <trkpt lat="45.23534" lon="6.03023">
        <ele>2129.1999511719</ele>
        <time>2021-01-02T12:35:40.000Z</time>
      </trkpt>
      <trkpt lat="45.23537" lon="6.03023">
        <ele>2129.3999023438</ele>
        <time>2021-01-02T12:35:43.000Z</time>
      </trkpt>
      <trkpt lat="45.23539" lon="6.03025">
        <ele>2129.8000488281</ele>
        <time>2021-01-02T12:35:47.000Z</time>
      </trkpt>
      <trkpt lat="45.23543" lon="6.03026">
        <ele>2130.3999023438</ele>
        <time>2021-01-02T12:35:52.000Z</time>
      </trkpt>
      <trkpt lat="45.23545" lon="6.03027">
        <ele>2130.8000488281</ele>
        <time>2021-01-02T12:35:55.000Z</time>
      </trkpt>
      <trkpt lat="45.23549" lon="6.03029">
        <ele>2131.3999023438</ele>
        <time>2021-01-02T12:36:00.000Z</time>
      </trkpt>
      <trkpt lat="45.2355" lon="6.0303">
        <ele>2132</ele>
        <time>2021-01-02T12:36:04.000Z</time>
      </trkpt>
      <trkpt lat="45.23553" lon="6.03031">
        <ele>2132.6000976562</ele>
        <time>2021-01-02T12:36:08.000Z</time>
      </trkpt>
      <trkpt lat="45.23556" lon="6.03033">
        <ele>2133.1999511719</ele>
        <time>2021-01-02T12:36:12.000Z</time>
      </trkpt>
      <trkpt lat="45.23558" lon="6.03034">
        <ele>2133.6000976562</ele>
        <time>2021-01-02T12:36:16.000Z</time>
      </trkpt>
      <trkpt lat="45.23558" lon="6.03034">
        <ele>2134</ele>
        <time>2021-01-02T12:36:19.000Z</time>
      </trkpt>
      <trkpt lat="45.23559" lon="6.03034">
        <ele>2134.6000976562</ele>
        <time>2021-01-02T12:36:24.000Z</time>
      </trkpt>
      <trkpt lat="45.23559" lon="6.03034">
        <ele>2134.8000488281</ele>
        <time>2021-01-02T12:36:25.000Z</time>
      </trkpt>
      <trkpt lat="45.23559" lon="6.03034">
        <ele>2135</ele>
        <time>2021-01-02T12:36:35.000Z</time>
      </trkpt>
      <trkpt lat="45.23559" lon="6.03034">
        <ele>2135.1999511719</ele>
        <time>2021-01-02T12:36:43.000Z</time>
      </trkpt>
      <trkpt lat="45.23559" lon="6.03034">
        <ele>2135.1999511719</ele>
        <time>2021-01-02T12:36:55.000Z</time>
      </trkpt>
      <trkpt lat="45.23559" lon="6.03034">
        <ele>2135.1999511719</ele>
        <time>2021-01-02T12:36:56.000Z</time>
      </trkpt>
      <trkpt lat="45.23559" lon="6.03034">
        <ele>2135.3999023438</ele>
        <time>2021-01-02T12:37:06.000Z</time>
      </trkpt>
      <trkpt lat="45.23559" lon="6.03034">
        <ele>2135.1999511719</ele>
        <time>2021-01-02T12:37:14.000Z</time>
      </trkpt>
      <trkpt lat="45.23559" lon="6.03034">
        <ele>2135</ele>
        <time>2021-01-02T12:37:24.000Z</time>
      </trkpt>
      <trkpt lat="45.23559" lon="6.03034">
        <ele>2135</ele>
        <time>2021-01-02T12:37:35.000Z</time>
      </trkpt>
      <trkpt lat="45.23561" lon="6.03035">
        <ele>2134.8000488281</ele>
        <time>2021-01-02T12:37:44.000Z</time>
      </trkpt>
      <trkpt lat="45.23562" lon="6.03036">
        <ele>2135.1999511719</ele>
        <time>2021-01-02T12:37:49.000Z</time>
      </trkpt>
      <trkpt lat="45.23562" lon="6.03036">
        <ele>2135.6000976562</ele>
        <time>2021-01-02T12:37:57.000Z</time>
      </trkpt>
      <trkpt lat="45.23562" lon="6.03036">
        <ele>2135.8000488281</ele>
        <time>2021-01-02T12:38:02.000Z</time>
      </trkpt>
      <trkpt lat="45.23562" lon="6.03035">
        <ele>2136</ele>
        <time>2021-01-02T12:38:08.000Z</time>
      </trkpt>
      <trkpt lat="45.23566" lon="6.03038">
        <ele>2136</ele>
        <time>2021-01-02T12:38:14.000Z</time>
      </trkpt>
      <trkpt lat="45.23569" lon="6.03039">
        <ele>2136.6000976562</ele>
        <time>2021-01-02T12:38:20.000Z</time>
      </trkpt>
      <trkpt lat="45.23569" lon="6.03039">
        <ele>2136.8000488281</ele>
        <time>2021-01-02T12:38:21.000Z</time>
      </trkpt>
      <trkpt lat="45.23568" lon="6.03039">
        <ele>2137</ele>
        <time>2021-01-02T12:38:27.000Z</time>
      </trkpt>
      <trkpt lat="45.23568" lon="6.03039">
        <ele>2137.1999511719</ele>
        <time>2021-01-02T12:38:41.000Z</time>
      </trkpt>
      <trkpt lat="45.23568" lon="6.03039">
        <ele>2137.3999023438</ele>
        <time>2021-01-02T12:38:51.000Z</time>
      </trkpt>
      <trkpt lat="45.23568" lon="6.03039">
        <ele>2137.8000488281</ele>
        <time>2021-01-02T12:38:55.000Z</time>
      </trkpt>
      <trkpt lat="45.23569" lon="6.0304">
        <ele>2138</ele>
        <time>2021-01-02T12:38:57.000Z</time>
      </trkpt>
      <trkpt lat="45.2357" lon="6.0304">
        <ele>2138</ele>
        <time>2021-01-02T12:38:58.000Z</time>
      </trkpt>
      <trkpt lat="45.23575" lon="6.03042">
        <ele>2138.1999511719</ele>
        <time>2021-01-02T12:39:03.000Z</time>
      </trkpt>
      <trkpt lat="45.23576" lon="6.03043">
        <ele>2138.3999023438</ele>
        <time>2021-01-02T12:39:04.000Z</time>
      </trkpt>
      <trkpt lat="45.23577" lon="6.03043">
        <ele>2139</ele>
        <time>2021-01-02T12:39:06.000Z</time>
      </trkpt>
      <trkpt lat="45.2358" lon="6.03045">
        <ele>2139.6000976562</ele>
        <time>2021-01-02T12:39:10.000Z</time>
      </trkpt>
      <trkpt lat="45.23581" lon="6.03044">
        <ele>2140</ele>
        <time>2021-01-02T12:39:13.000Z</time>
      </trkpt>
      <trkpt lat="45.23582" lon="6.03044">
        <ele>2140.1999511719</ele>
        <time>2021-01-02T12:39:15.000Z</time>
      </trkpt>
      <trkpt lat="45.23587" lon="6.03048">
        <ele>2141</ele>
        <time>2021-01-02T12:39:22.000Z</time>
      </trkpt>
      <trkpt lat="45.23588" lon="6.03047">
        <ele>2141.1999511719</ele>
        <time>2021-01-02T12:39:24.000Z</time>
      </trkpt>
      <trkpt lat="45.23591" lon="6.03049">
        <ele>2142.1999511719</ele>
        <time>2021-01-02T12:39:29.000Z</time>
      </trkpt>
      <trkpt lat="45.23595" lon="6.0305">
        <ele>2143.1999511719</ele>
        <time>2021-01-02T12:39:34.000Z</time>
      </trkpt>
      <trkpt lat="45.23597" lon="6.03051">
        <ele>2143.6000976562</ele>
        <time>2021-01-02T12:39:37.000Z</time>
      </trkpt>
      <trkpt lat="45.236" lon="6.03053">
        <ele>2144</ele>
        <time>2021-01-02T12:39:40.000Z</time>
      </trkpt>
      <trkpt lat="45.23601" lon="6.03053">
        <ele>2144.1999511719</ele>
        <time>2021-01-02T12:39:42.000Z</time>
      </trkpt>
      <trkpt lat="45.23601" lon="6.03053">
        <ele>2144.1999511719</ele>
        <time>2021-01-02T12:39:43.000Z</time>
      </trkpt>
      <trkpt lat="45.23606" lon="6.03055">
        <ele>2145.1999511719</ele>
        <time>2021-01-02T12:39:50.000Z</time>
      </trkpt>
      <trkpt lat="45.23607" lon="6.03057">
        <ele>2145.8000488281</ele>
        <time>2021-01-02T12:39:53.000Z</time>
      </trkpt>
      <trkpt lat="45.23608" lon="6.03058">
        <ele>2146.3999023438</ele>
        <time>2021-01-02T12:39:56.000Z</time>
      </trkpt>
      <trkpt lat="45.23611" lon="6.03058">
        <ele>2147</ele>
        <time>2021-01-02T12:40:00.000Z</time>
      </trkpt>
      <trkpt lat="45.23613" lon="6.03059">
        <ele>2147.3999023438</ele>
        <time>2021-01-02T12:40:03.000Z</time>
      </trkpt>
      <trkpt lat="45.23615" lon="6.03061">
        <ele>2148</ele>
        <time>2021-01-02T12:40:07.000Z</time>
      </trkpt>
      <trkpt lat="45.23617" lon="6.03062">
        <ele>2148.6000976562</ele>
        <time>2021-01-02T12:40:10.000Z</time>
      </trkpt>
      <trkpt lat="45.23621" lon="6.03063">
        <ele>2149.3999023438</ele>
        <time>2021-01-02T12:40:14.000Z</time>
      </trkpt>
      <trkpt lat="45.23622" lon="6.03064">
        <ele>2149.8000488281</ele>
        <time>2021-01-02T12:40:16.000Z</time>
      </trkpt>
      <trkpt lat="45.23624" lon="6.03064">
        <ele>2150.8000488281</ele>
        <time>2021-01-02T12:40:20.000Z</time>
      </trkpt>
      <trkpt lat="45.23625" lon="6.03064">
        <ele>2151</ele>
        <time>2021-01-02T12:40:21.000Z</time>
      </trkpt>
      <trkpt lat="45.23629" lon="6.03064">
        <ele>2151.8000488281</ele>
        <time>2021-01-02T12:40:25.000Z</time>
      </trkpt>
      <trkpt lat="45.2363" lon="6.03064">
        <ele>2152.3999023438</ele>
        <time>2021-01-02T12:40:28.000Z</time>
      </trkpt>
      <trkpt lat="45.2363" lon="6.03065">
        <ele>2152.8000488281</ele>
        <time>2021-01-02T12:40:31.000Z</time>
      </trkpt>
      <trkpt lat="45.23633" lon="6.03066">
        <ele>2153.1999511719</ele>
        <time>2021-01-02T12:40:35.000Z</time>
      </trkpt>
      <trkpt lat="45.23635" lon="6.03068">
        <ele>2154</ele>
        <time>2021-01-02T12:40:40.000Z</time>
      </trkpt>
      <trkpt lat="45.23635" lon="6.03068">
        <ele>2154.3999023438</ele>
        <time>2021-01-02T12:40:42.000Z</time>
      </trkpt>
      <trkpt lat="45.23637" lon="6.03069">
        <ele>2155.1999511719</ele>
        <time>2021-01-02T12:40:46.000Z</time>
      </trkpt>
      <trkpt lat="45.2364" lon="6.03071">
        <ele>2155.8000488281</ele>
        <time>2021-01-02T12:40:50.000Z</time>
      </trkpt>
      <trkpt lat="45.2364" lon="6.03072">
        <ele>2156.1999511719</ele>
        <time>2021-01-02T12:40:52.000Z</time>
      </trkpt>
      <trkpt lat="45.23642" lon="6.03073">
        <ele>2157</ele>
        <time>2021-01-02T12:40:56.000Z</time>
      </trkpt>
      <trkpt lat="45.23643" lon="6.03074">
        <ele>2157.1999511719</ele>
        <time>2021-01-02T12:40:58.000Z</time>
      </trkpt>
      <trkpt lat="45.23646" lon="6.03076">
        <ele>2158.1999511719</ele>
        <time>2021-01-02T12:41:05.000Z</time>
      </trkpt>
      <trkpt lat="45.23648" lon="6.03077">
        <ele>2159.3999023438</ele>
        <time>2021-01-02T12:41:10.000Z</time>
      </trkpt>
      <trkpt lat="45.23648" lon="6.03077">
        <ele>2159.6000976562</ele>
        <time>2021-01-02T12:41:12.000Z</time>
      </trkpt>
      <trkpt lat="45.2365" lon="6.03078">
        <ele>2160</ele>
        <time>2021-01-02T12:41:17.000Z</time>
      </trkpt>
      <trkpt lat="45.23652" lon="6.0308">
        <ele>2160.3999023438</ele>
        <time>2021-01-02T12:41:21.000Z</time>
      </trkpt>
      <trkpt lat="45.23652" lon="6.0308">
        <ele>2161.1999511719</ele>
        <time>2021-01-02T12:41:25.000Z</time>
      </trkpt>
      <trkpt lat="45.23652" lon="6.0308">
        <ele>2161.3999023438</ele>
        <time>2021-01-02T12:41:27.000Z</time>
      </trkpt>
      <trkpt lat="45.23653" lon="6.03082">
        <ele>2162</ele>
        <time>2021-01-02T12:41:31.000Z</time>
      </trkpt>
      <trkpt lat="45.23657" lon="6.03086">
        <ele>2162.3999023438</ele>
        <time>2021-01-02T12:41:36.000Z</time>
      </trkpt>
      <trkpt lat="45.23659" lon="6.03088">
        <ele>2163</ele>
        <time>2021-01-02T12:41:38.000Z</time>
      </trkpt>
      <trkpt lat="45.23662" lon="6.03089">
        <ele>2163.6000976562</ele>
        <time>2021-01-02T12:41:41.000Z</time>
      </trkpt>
      <trkpt lat="45.23664" lon="6.03092">
        <ele>2164.6000976562</ele>
        <time>2021-01-02T12:41:46.000Z</time>
      </trkpt>
      <trkpt lat="45.23664" lon="6.03092">
        <ele>2164.8000488281</ele>
        <time>2021-01-02T12:41:47.000Z</time>
      </trkpt>
      <trkpt lat="45.23667" lon="6.03097">
        <ele>2166</ele>
        <time>2021-01-02T12:41:53.000Z</time>
      </trkpt>
      <trkpt lat="45.23667" lon="6.03098">
        <ele>2166.3999023438</ele>
        <time>2021-01-02T12:41:54.000Z</time>
      </trkpt>
      <trkpt lat="45.2367" lon="6.031">
        <ele>2167.1999511719</ele>
        <time>2021-01-02T12:41:58.000Z</time>
      </trkpt>
      <trkpt lat="45.23673" lon="6.03102">
        <ele>2168</ele>
        <time>2021-01-02T12:42:02.000Z</time>
      </trkpt>
      <trkpt lat="45.23674" lon="6.03103">
        <ele>2168.1999511719</ele>
        <time>2021-01-02T12:42:04.000Z</time>
      </trkpt>
      <trkpt lat="45.23676" lon="6.03106">
        <ele>2169.1999511719</ele>
        <time>2021-01-02T12:42:09.000Z</time>
      </trkpt>
      <trkpt lat="45.23677" lon="6.03106">
        <ele>2169.3999023438</ele>
        <time>2021-01-02T12:42:10.000Z</time>
      </trkpt>
      <trkpt lat="45.23678" lon="6.0311">
        <ele>2170.3999023438</ele>
        <time>2021-01-02T12:42:15.000Z</time>
      </trkpt>
      <trkpt lat="45.23679" lon="6.03112">
        <ele>2171</ele>
        <time>2021-01-02T12:42:17.000Z</time>
      </trkpt>
      <trkpt lat="45.23681" lon="6.03113">
        <ele>2171.3999023438</ele>
        <time>2021-01-02T12:42:19.000Z</time>
      </trkpt>
      <trkpt lat="45.23683" lon="6.03116">
        <ele>2172.6000976562</ele>
        <time>2021-01-02T12:42:24.000Z</time>
      </trkpt>
      <trkpt lat="45.23684" lon="6.03119">
        <ele>2173.6000976562</ele>
        <time>2021-01-02T12:42:29.000Z</time>
      </trkpt>
      <trkpt lat="45.23685" lon="6.0312">
        <ele>2174</ele>
        <time>2021-01-02T12:42:31.000Z</time>
      </trkpt>
      <trkpt lat="45.23687" lon="6.03123">
        <ele>2174.8000488281</ele>
        <time>2021-01-02T12:42:35.000Z</time>
      </trkpt>
      <trkpt lat="45.23689" lon="6.03126">
        <ele>2175.6000976562</ele>
        <time>2021-01-02T12:42:39.000Z</time>
      </trkpt>
      <trkpt lat="45.23689" lon="6.03127">
        <ele>2176</ele>
        <time>2021-01-02T12:42:41.000Z</time>
      </trkpt>
      <trkpt lat="45.2369" lon="6.03131">
        <ele>2177.1999511719</ele>
        <time>2021-01-02T12:42:46.000Z</time>
      </trkpt>
      <trkpt lat="45.23692" lon="6.03135">
        <ele>2178.3999023438</ele>
        <time>2021-01-02T12:42:51.000Z</time>
      </trkpt>
      <trkpt lat="45.23693" lon="6.03136">
        <ele>2179</ele>
        <time>2021-01-02T12:42:54.000Z</time>
      </trkpt>
      <trkpt lat="45.23694" lon="6.03138">
        <ele>2179.6000976562</ele>
        <time>2021-01-02T12:42:56.000Z</time>
      </trkpt>
      <trkpt lat="45.23695" lon="6.03141">
        <ele>2180.6000976562</ele>
        <time>2021-01-02T12:43:01.000Z</time>
      </trkpt>
      <trkpt lat="45.23696" lon="6.03144">
        <ele>2181</ele>
        <time>2021-01-02T12:43:03.000Z</time>
      </trkpt>
      <trkpt lat="45.23696" lon="6.03146">
        <ele>2181.8000488281</ele>
        <time>2021-01-02T12:43:06.000Z</time>
      </trkpt>
      <trkpt lat="45.23698" lon="6.0315">
        <ele>2182.8000488281</ele>
        <time>2021-01-02T12:43:12.000Z</time>
      </trkpt>
      <trkpt lat="45.23698" lon="6.03151">
        <ele>2183</ele>
        <time>2021-01-02T12:43:13.000Z</time>
      </trkpt>
      <trkpt lat="45.237" lon="6.03153">
        <ele>2184</ele>
        <time>2021-01-02T12:43:18.000Z</time>
      </trkpt>
      <trkpt lat="45.237" lon="6.03154">
        <ele>2184.1999511719</ele>
        <time>2021-01-02T12:43:19.000Z</time>
      </trkpt>
      <trkpt lat="45.23701" lon="6.03154">
        <ele>2185.1999511719</ele>
        <time>2021-01-02T12:43:25.000Z</time>
      </trkpt>
      <trkpt lat="45.23701" lon="6.03153">
        <ele>2185.3999023438</ele>
        <time>2021-01-02T12:43:27.000Z</time>
      </trkpt>
      <trkpt lat="45.23702" lon="6.0315">
        <ele>2185.6000976562</ele>
        <time>2021-01-02T12:43:32.000Z</time>
      </trkpt>
      <trkpt lat="45.23704" lon="6.03146">
        <ele>2186.1999511719</ele>
        <time>2021-01-02T12:43:38.000Z</time>
      </trkpt>
      <trkpt lat="45.23704" lon="6.03146">
        <ele>2186.3999023438</ele>
        <time>2021-01-02T12:43:39.000Z</time>
      </trkpt>
      <trkpt lat="45.23706" lon="6.03143">
        <ele>2187.3999023438</ele>
        <time>2021-01-02T12:43:44.000Z</time>
      </trkpt>
      <trkpt lat="45.23706" lon="6.03142">
        <ele>2187.8000488281</ele>
        <time>2021-01-02T12:43:46.000Z</time>
      </trkpt>
      <trkpt lat="45.23706" lon="6.0314">
        <ele>2188.3999023438</ele>
        <time>2021-01-02T12:43:50.000Z</time>
      </trkpt>
      <trkpt lat="45.23707" lon="6.0314">
        <ele>2188.8000488281</ele>
        <time>2021-01-02T12:43:53.000Z</time>
      </trkpt>
      <trkpt lat="45.23708" lon="6.03139">
        <ele>2189.3999023438</ele>
        <time>2021-01-02T12:43:55.000Z</time>
      </trkpt>
      <trkpt lat="45.23711" lon="6.03135">
        <ele>2190.1999511719</ele>
        <time>2021-01-02T12:44:01.000Z</time>
      </trkpt>
      <trkpt lat="45.23712" lon="6.03133">
        <ele>2190.6000976562</ele>
        <time>2021-01-02T12:44:03.000Z</time>
      </trkpt>
      <trkpt lat="45.23713" lon="6.03129">
        <ele>2191.1999511719</ele>
        <time>2021-01-02T12:44:08.000Z</time>
      </trkpt>
      <trkpt lat="45.23713" lon="6.03127">
        <ele>2191.8000488281</ele>
        <time>2021-01-02T12:44:11.000Z</time>
      </trkpt>
      <trkpt lat="45.23714" lon="6.03125">
        <ele>2192</ele>
        <time>2021-01-02T12:44:13.000Z</time>
      </trkpt>
      <trkpt lat="45.23716" lon="6.03123">
        <ele>2193</ele>
        <time>2021-01-02T12:44:18.000Z</time>
      </trkpt>
      <trkpt lat="45.23717" lon="6.0312">
        <ele>2193.8000488281</ele>
        <time>2021-01-02T12:44:22.000Z</time>
      </trkpt>
      <trkpt lat="45.23718" lon="6.03119">
        <ele>2194.1999511719</ele>
        <time>2021-01-02T12:44:25.000Z</time>
      </trkpt>
      <trkpt lat="45.2372" lon="6.03117">
        <ele>2195</ele>
        <time>2021-01-02T12:44:29.000Z</time>
      </trkpt>
      <trkpt lat="45.23721" lon="6.03115">
        <ele>2195.3999023438</ele>
        <time>2021-01-02T12:44:32.000Z</time>
      </trkpt>
      <trkpt lat="45.23724" lon="6.03113">
        <ele>2196</ele>
        <time>2021-01-02T12:44:36.000Z</time>
      </trkpt>
      <trkpt lat="45.23725" lon="6.03112">
        <ele>2196.3999023438</ele>
        <time>2021-01-02T12:44:39.000Z</time>
      </trkpt>
      <trkpt lat="45.23726" lon="6.03111">
        <ele>2197.1999511719</ele>
        <time>2021-01-02T12:44:43.000Z</time>
      </trkpt>
      <trkpt lat="45.23726" lon="6.0311">
        <ele>2197.3999023438</ele>
        <time>2021-01-02T12:44:45.000Z</time>
      </trkpt>
      <trkpt lat="45.23726" lon="6.0311">
        <ele>2197.8000488281</ele>
        <time>2021-01-02T12:44:48.000Z</time>
      </trkpt>
      <trkpt lat="45.23726" lon="6.03111">
        <ele>2198.6000976562</ele>
        <time>2021-01-02T12:44:55.000Z</time>
      </trkpt>
      <trkpt lat="45.23726" lon="6.03111">
        <ele>2198.6000976562</ele>
        <time>2021-01-02T12:44:56.000Z</time>
      </trkpt>
      <trkpt lat="45.23727" lon="6.03112">
        <ele>2199.6000976562</ele>
        <time>2021-01-02T12:45:01.000Z</time>
      </trkpt>
      <trkpt lat="45.23727" lon="6.03114">
        <ele>2199.8000488281</ele>
        <time>2021-01-02T12:45:02.000Z</time>
      </trkpt>
      <trkpt lat="45.23728" lon="6.03115">
        <ele>2199.8000488281</ele>
        <time>2021-01-02T12:45:03.000Z</time>
      </trkpt>
      <trkpt lat="45.2373" lon="6.03117">
        <ele>2200.6000976562</ele>
        <time>2021-01-02T12:45:06.000Z</time>
      </trkpt>
      <trkpt lat="45.23732" lon="6.03124">
        <ele>2201.6000976562</ele>
        <time>2021-01-02T12:45:11.000Z</time>
      </trkpt>
      <trkpt lat="45.23733" lon="6.03125">
        <ele>2201.8000488281</ele>
        <time>2021-01-02T12:45:12.000Z</time>
      </trkpt>
      <trkpt lat="45.23736" lon="6.0313">
        <ele>2202.8000488281</ele>
        <time>2021-01-02T12:45:17.000Z</time>
      </trkpt>
      <trkpt lat="45.23736" lon="6.03131">
        <ele>2203.3999023438</ele>
        <time>2021-01-02T12:45:20.000Z</time>
      </trkpt>
      <trkpt lat="45.23736" lon="6.03132">
        <ele>2204</ele>
        <time>2021-01-02T12:45:23.000Z</time>
      </trkpt>
      <trkpt lat="45.23737" lon="6.03137">
        <ele>2204.6000976562</ele>
        <time>2021-01-02T12:45:28.000Z</time>
      </trkpt>
      <trkpt lat="45.23737" lon="6.0314">
        <ele>2205</ele>
        <time>2021-01-02T12:45:31.000Z</time>
      </trkpt>
      <trkpt lat="45.23739" lon="6.03144">
        <ele>2205.8000488281</ele>
        <time>2021-01-02T12:45:35.000Z</time>
      </trkpt>
      <trkpt lat="45.2374" lon="6.03147">
        <ele>2206.1999511719</ele>
        <time>2021-01-02T12:45:38.000Z</time>
      </trkpt>
      <trkpt lat="45.23741" lon="6.03151">
        <ele>2207</ele>
        <time>2021-01-02T12:45:43.000Z</time>
      </trkpt>
      <trkpt lat="45.23741" lon="6.03153">
        <ele>2207.1999511719</ele>
        <time>2021-01-02T12:45:45.000Z</time>
      </trkpt>
      <trkpt lat="45.23742" lon="6.03153">
        <ele>2208.1999511719</ele>
        <time>2021-01-02T12:45:50.000Z</time>
      </trkpt>
      <trkpt lat="45.23742" lon="6.03153">
        <ele>2208.3999023438</ele>
        <time>2021-01-02T12:45:51.000Z</time>
      </trkpt>
      <trkpt lat="45.23742" lon="6.03153">
        <ele>2208.6000976562</ele>
        <time>2021-01-02T12:46:07.000Z</time>
      </trkpt>
      <trkpt lat="45.23742" lon="6.03155">
        <ele>2208.8000488281</ele>
        <time>2021-01-02T12:46:16.000Z</time>
      </trkpt>
      <trkpt lat="45.23746" lon="6.03164">
        <ele>2209.6000976562</ele>
        <time>2021-01-02T12:46:24.000Z</time>
      </trkpt>
      <trkpt lat="45.23747" lon="6.03169">
        <ele>2210.6000976562</ele>
        <time>2021-01-02T12:46:29.000Z</time>
      </trkpt>
      <trkpt lat="45.23748" lon="6.03171">
        <ele>2211.1999511719</ele>
        <time>2021-01-02T12:46:31.000Z</time>
      </trkpt>
      <trkpt lat="45.23749" lon="6.03174">
        <ele>2211.6000976562</ele>
        <time>2021-01-02T12:46:34.000Z</time>
      </trkpt>
      <trkpt lat="45.2375" lon="6.03178">
        <ele>2212.6000976562</ele>
        <time>2021-01-02T12:46:38.000Z</time>
      </trkpt>
      <trkpt lat="45.2375" lon="6.03179">
        <ele>2212.8000488281</ele>
        <time>2021-01-02T12:46:39.000Z</time>
      </trkpt>
      <trkpt lat="45.2375" lon="6.03181">
        <ele>2213.8000488281</ele>
        <time>2021-01-02T12:46:42.000Z</time>
      </trkpt>
      <trkpt lat="45.2375" lon="6.03182">
        <ele>2214</ele>
        <time>2021-01-02T12:46:43.000Z</time>
      </trkpt>
      <trkpt lat="45.23751" lon="6.03183">
        <ele>2214.1999511719</ele>
        <time>2021-01-02T12:46:44.000Z</time>
      </trkpt>
      <trkpt lat="45.23752" lon="6.03187">
        <ele>2215.1999511719</ele>
        <time>2021-01-02T12:46:48.000Z</time>
      </trkpt>
      <trkpt lat="45.23753" lon="6.0319">
        <ele>2216</ele>
        <time>2021-01-02T12:46:51.000Z</time>
      </trkpt>
      <trkpt lat="45.23754" lon="6.0319">
        <ele>2216.3999023438</ele>
        <time>2021-01-02T12:46:52.000Z</time>
      </trkpt>
      <trkpt lat="45.23754" lon="6.03191">
        <ele>2216.6000976562</ele>
        <time>2021-01-02T12:46:53.000Z</time>
      </trkpt>
      <trkpt lat="45.23755" lon="6.03194">
        <ele>2217.3999023438</ele>
        <time>2021-01-02T12:46:57.000Z</time>
      </trkpt>
      <trkpt lat="45.23758" lon="6.03198">
        <ele>2218.6000976562</ele>
        <time>2021-01-02T12:47:02.000Z</time>
      </trkpt>
      <trkpt lat="45.2376" lon="6.032">
        <ele>2219.1999511719</ele>
        <time>2021-01-02T12:47:05.000Z</time>
      </trkpt>
      <trkpt lat="45.2376" lon="6.03201">
        <ele>2219.8000488281</ele>
        <time>2021-01-02T12:47:06.000Z</time>
      </trkpt>
      <trkpt lat="45.23764" lon="6.03202">
        <ele>2220.8000488281</ele>
        <time>2021-01-02T12:47:11.000Z</time>
      </trkpt>
      <trkpt lat="45.23765" lon="6.03203">
        <ele>2221</ele>
        <time>2021-01-02T12:47:12.000Z</time>
      </trkpt>
      <trkpt lat="45.23767" lon="6.03204">
        <ele>2222</ele>
        <time>2021-01-02T12:47:17.000Z</time>
      </trkpt>
      <trkpt lat="45.2377" lon="6.03204">
        <ele>2222.6000976562</ele>
        <time>2021-01-02T12:47:20.000Z</time>
      </trkpt>
      <trkpt lat="45.23772" lon="6.03204">
        <ele>2223.1999511719</ele>
        <time>2021-01-02T12:47:23.000Z</time>
      </trkpt>
      <trkpt lat="45.23774" lon="6.03204">
        <ele>2224.1999511719</ele>
        <time>2021-01-02T12:47:28.000Z</time>
      </trkpt>
      <trkpt lat="45.23778" lon="6.03203">
        <ele>2225.3999023438</ele>
        <time>2021-01-02T12:47:33.000Z</time>
      </trkpt>
      <trkpt lat="45.23779" lon="6.03203">
        <ele>2226</ele>
        <time>2021-01-02T12:47:36.000Z</time>
      </trkpt>
      <trkpt lat="45.23779" lon="6.03203">
        <ele>2226.3999023438</ele>
        <time>2021-01-02T12:47:38.000Z</time>
      </trkpt>
      <trkpt lat="45.2378" lon="6.03203">
        <ele>2227.3999023438</ele>
        <time>2021-01-02T12:47:45.000Z</time>
      </trkpt>
      <trkpt lat="45.23783" lon="6.03202">
        <ele>2227.3999023438</ele>
        <time>2021-01-02T12:47:51.000Z</time>
      </trkpt>
      <trkpt lat="45.23783" lon="6.03203">
        <ele>2227.6000976562</ele>
        <time>2021-01-02T12:47:52.000Z</time>
      </trkpt>
      <trkpt lat="45.23788" lon="6.03202">
        <ele>2228.6000976562</ele>
        <time>2021-01-02T12:47:58.000Z</time>
      </trkpt>
      <trkpt lat="45.23788" lon="6.03202">
        <ele>2228.8000488281</ele>
        <time>2021-01-02T12:47:59.000Z</time>
      </trkpt>
      <trkpt lat="45.23791" lon="6.03202">
        <ele>2229.8000488281</ele>
        <time>2021-01-02T12:48:04.000Z</time>
      </trkpt>
      <trkpt lat="45.23793" lon="6.03202">
        <ele>2230.1999511719</ele>
        <time>2021-01-02T12:48:06.000Z</time>
      </trkpt>
      <trkpt lat="45.23794" lon="6.03201">
        <ele>2231</ele>
        <time>2021-01-02T12:48:09.000Z</time>
      </trkpt>
      <trkpt lat="45.23797" lon="6.03201">
        <ele>2232</ele>
        <time>2021-01-02T12:48:14.000Z</time>
      </trkpt>
      <trkpt lat="45.23797" lon="6.032">
        <ele>2232.1999511719</ele>
        <time>2021-01-02T12:48:15.000Z</time>
      </trkpt>
      <trkpt lat="45.238" lon="6.03201">
        <ele>2233.1999511719</ele>
        <time>2021-01-02T12:48:19.000Z</time>
      </trkpt>
      <trkpt lat="45.23801" lon="6.03201">
        <ele>2233.6000976562</ele>
        <time>2021-01-02T12:48:21.000Z</time>
      </trkpt>
      <trkpt lat="45.23803" lon="6.03201">
        <ele>2234.1999511719</ele>
        <time>2021-01-02T12:48:24.000Z</time>
      </trkpt>
      <trkpt lat="45.23805" lon="6.03202">
        <ele>2235.1999511719</ele>
        <time>2021-01-02T12:48:28.000Z</time>
      </trkpt>
      <trkpt lat="45.23806" lon="6.03202">
        <ele>2235.3999023438</ele>
        <time>2021-01-02T12:48:29.000Z</time>
      </trkpt>
      <trkpt lat="45.23808" lon="6.03203">
        <ele>2236.3999023438</ele>
        <time>2021-01-02T12:48:34.000Z</time>
      </trkpt>
      <trkpt lat="45.23809" lon="6.03205">
        <ele>2236.8000488281</ele>
        <time>2021-01-02T12:48:36.000Z</time>
      </trkpt>
      <trkpt lat="45.23811" lon="6.03207">
        <ele>2237.3999023438</ele>
        <time>2021-01-02T12:48:40.000Z</time>
      </trkpt>
      <trkpt lat="45.23812" lon="6.03208">
        <ele>2238.3999023438</ele>
        <time>2021-01-02T12:48:44.000Z</time>
      </trkpt>
      <trkpt lat="45.23813" lon="6.03208">
        <ele>2238.8000488281</ele>
        <time>2021-01-02T12:48:45.000Z</time>
      </trkpt>
      <trkpt lat="45.23816" lon="6.03211">
        <ele>2239.6000976562</ele>
        <time>2021-01-02T12:48:50.000Z</time>
      </trkpt>
      <trkpt lat="45.23817" lon="6.03212">
        <ele>2240</ele>
        <time>2021-01-02T12:48:53.000Z</time>
      </trkpt>
      <trkpt lat="45.23818" lon="6.03213">
        <ele>2240.8000488281</ele>
        <time>2021-01-02T12:48:56.000Z</time>
      </trkpt>
      <trkpt lat="45.23819" lon="6.03215">
        <ele>2241.3999023438</ele>
        <time>2021-01-02T12:49:01.000Z</time>
      </trkpt>
      <trkpt lat="45.2382" lon="6.03216">
        <ele>2241.8000488281</ele>
        <time>2021-01-02T12:49:03.000Z</time>
      </trkpt>
      <trkpt lat="45.23823" lon="6.03217">
        <ele>2242.8000488281</ele>
        <time>2021-01-02T12:49:08.000Z</time>
      </trkpt>
      <trkpt lat="45.23823" lon="6.03217">
        <ele>2242.8000488281</ele>
        <time>2021-01-02T12:49:09.000Z</time>
      </trkpt>
      <trkpt lat="45.23827" lon="6.03221">
        <ele>2244</ele>
        <time>2021-01-02T12:49:16.000Z</time>
      </trkpt>
      <trkpt lat="45.23831" lon="6.03224">
        <ele>2245.1999511719</ele>
        <time>2021-01-02T12:49:23.000Z</time>
      </trkpt>
      <trkpt lat="45.23831" lon="6.03225">
        <ele>2245.1999511719</ele>
        <time>2021-01-02T12:49:24.000Z</time>
      </trkpt>
      <trkpt lat="45.23836" lon="6.03227">
        <ele>2246.3999023438</ele>
        <time>2021-01-02T12:49:30.000Z</time>
      </trkpt>
      <trkpt lat="45.23836" lon="6.03228">
        <ele>2246.6000976562</ele>
        <time>2021-01-02T12:49:31.000Z</time>
      </trkpt>
      <trkpt lat="45.2384" lon="6.03231">
        <ele>2247.3999023438</ele>
        <time>2021-01-02T12:49:37.000Z</time>
      </trkpt>
      <trkpt lat="45.2384" lon="6.03231">
        <ele>2247.8000488281</ele>
        <time>2021-01-02T12:49:39.000Z</time>
      </trkpt>
      <trkpt lat="45.23842" lon="6.03234">
        <ele>2248.6000976562</ele>
        <time>2021-01-02T12:49:44.000Z</time>
      </trkpt>
      <trkpt lat="45.23844" lon="6.03236">
        <ele>2249</ele>
        <time>2021-01-02T12:49:46.000Z</time>
      </trkpt>
      <trkpt lat="45.23847" lon="6.0324">
        <ele>2249.8000488281</ele>
        <time>2021-01-02T12:49:52.000Z</time>
      </trkpt>
      <trkpt lat="45.23847" lon="6.03241">
        <ele>2250.3999023438</ele>
        <time>2021-01-02T12:49:54.000Z</time>
      </trkpt>
      <trkpt lat="45.23848" lon="6.03242">
        <ele>2250.8000488281</ele>
        <time>2021-01-02T12:49:56.000Z</time>
      </trkpt>
      <trkpt lat="45.23852" lon="6.03246">
        <ele>2252</ele>
        <time>2021-01-02T12:50:02.000Z</time>
      </trkpt>
      <trkpt lat="45.23852" lon="6.03246">
        <ele>2252</ele>
        <time>2021-01-02T12:50:03.000Z</time>
      </trkpt>
      <trkpt lat="45.23857" lon="6.03252">
        <ele>2253</ele>
        <time>2021-01-02T12:50:11.000Z</time>
      </trkpt>
      <trkpt lat="45.23859" lon="6.03257">
        <ele>2254.1999511719</ele>
        <time>2021-01-02T12:50:17.000Z</time>
      </trkpt>
      <trkpt lat="45.2386" lon="6.03258">
        <ele>2254.6000976562</ele>
        <time>2021-01-02T12:50:18.000Z</time>
      </trkpt>
      <trkpt lat="45.23862" lon="6.0326">
        <ele>2255.1999511719</ele>
        <time>2021-01-02T12:50:23.000Z</time>
      </trkpt>
      <trkpt lat="45.23863" lon="6.03262">
        <ele>2255.8000488281</ele>
        <time>2021-01-02T12:50:25.000Z</time>
      </trkpt>
      <trkpt lat="45.23864" lon="6.03263">
        <ele>2256.3999023438</ele>
        <time>2021-01-02T12:50:28.000Z</time>
      </trkpt>
      <trkpt lat="45.23866" lon="6.03266">
        <ele>2257</ele>
        <time>2021-01-02T12:50:33.000Z</time>
      </trkpt>
      <trkpt lat="45.23867" lon="6.03268">
        <ele>2257.3999023438</ele>
        <time>2021-01-02T12:50:35.000Z</time>
      </trkpt>
      <trkpt lat="45.23869" lon="6.03271">
        <ele>2258.3999023438</ele>
        <time>2021-01-02T12:50:40.000Z</time>
      </trkpt>
      <trkpt lat="45.23869" lon="6.03272">
        <ele>2258.6000976562</ele>
        <time>2021-01-02T12:50:41.000Z</time>
      </trkpt>
      <trkpt lat="45.23871" lon="6.03273">
        <ele>2259.6000976562</ele>
        <time>2021-01-02T12:50:45.000Z</time>
      </trkpt>
      <trkpt lat="45.23871" lon="6.03275">
        <ele>2260</ele>
        <time>2021-01-02T12:50:47.000Z</time>
      </trkpt>
      <trkpt lat="45.23873" lon="6.03279">
        <ele>2260.6000976562</ele>
        <time>2021-01-02T12:50:51.000Z</time>
      </trkpt>
      <trkpt lat="45.23874" lon="6.0328">
        <ele>2261</ele>
        <time>2021-01-02T12:50:54.000Z</time>
      </trkpt>
      <trkpt lat="45.23874" lon="6.03281">
        <ele>2261.8000488281</ele>
        <time>2021-01-02T12:50:58.000Z</time>
      </trkpt>
      <trkpt lat="45.23874" lon="6.03281">
        <ele>2262.1999511719</ele>
        <time>2021-01-02T12:51:00.000Z</time>
      </trkpt>
      <trkpt lat="45.23874" lon="6.0328">
        <ele>2262.3999023438</ele>
        <time>2021-01-02T12:51:09.000Z</time>
      </trkpt>
      <trkpt lat="45.23875" lon="6.03278">
        <ele>2262.8000488281</ele>
        <time>2021-01-02T12:51:14.000Z</time>
      </trkpt>
      <trkpt lat="45.23875" lon="6.03276">
        <ele>2263.1999511719</ele>
        <time>2021-01-02T12:51:17.000Z</time>
      </trkpt>
      <trkpt lat="45.23876" lon="6.03273">
        <ele>2263.8000488281</ele>
        <time>2021-01-02T12:51:21.000Z</time>
      </trkpt>
      <trkpt lat="45.23876" lon="6.03271">
        <ele>2264.6000976562</ele>
        <time>2021-01-02T12:51:25.000Z</time>
      </trkpt>
      <trkpt lat="45.23876" lon="6.03271">
        <ele>2265</ele>
        <time>2021-01-02T12:51:27.000Z</time>
      </trkpt>
      <trkpt lat="45.23876" lon="6.03271">
        <ele>2265.6000976562</ele>
        <time>2021-01-02T12:51:40.000Z</time>
      </trkpt>
      <trkpt lat="45.23877" lon="6.0327">
        <ele>2265.6000976562</ele>
        <time>2021-01-02T12:51:43.000Z</time>
      </trkpt>
      <trkpt lat="45.23877" lon="6.03269">
        <ele>2265.6000976562</ele>
        <time>2021-01-02T12:51:45.000Z</time>
      </trkpt>
      <trkpt lat="45.23876" lon="6.03265">
        <ele>2266</ele>
        <time>2021-01-02T12:51:48.000Z</time>
      </trkpt>
      <trkpt lat="45.23877" lon="6.03261">
        <ele>2266.8000488281</ele>
        <time>2021-01-02T12:51:52.000Z</time>
      </trkpt>
      <trkpt lat="45.23877" lon="6.03258">
        <ele>2267.1999511719</ele>
        <time>2021-01-02T12:51:54.000Z</time>
      </trkpt>
      <trkpt lat="45.23877" lon="6.03251">
        <ele>2268.1999511719</ele>
        <time>2021-01-02T12:52:00.000Z</time>
      </trkpt>
      <trkpt lat="45.23878" lon="6.03245">
        <ele>2269.3999023438</ele>
        <time>2021-01-02T12:52:07.000Z</time>
      </trkpt>
      <trkpt lat="45.23878" lon="6.03244">
        <ele>2269.6000976562</ele>
        <time>2021-01-02T12:52:08.000Z</time>
      </trkpt>
      <trkpt lat="45.23878" lon="6.03239">
        <ele>2270.3999023438</ele>
        <time>2021-01-02T12:52:13.000Z</time>
      </trkpt>
      <trkpt lat="45.23878" lon="6.03238">
        <ele>2270.6000976562</ele>
        <time>2021-01-02T12:52:15.000Z</time>
      </trkpt>
      <trkpt lat="45.23878" lon="6.03238">
        <ele>2271.3999023438</ele>
        <time>2021-01-02T12:52:19.000Z</time>
      </trkpt>
      <trkpt lat="45.23878" lon="6.03237">
        <ele>2271.3999023438</ele>
        <time>2021-01-02T12:52:21.000Z</time>
      </trkpt>
      <trkpt lat="45.2388" lon="6.03238">
        <ele>2271.8000488281</ele>
        <time>2021-01-02T12:52:27.000Z</time>
      </trkpt>
      <trkpt lat="45.23883" lon="6.03241">
        <ele>2272.3999023438</ele>
        <time>2021-01-02T12:52:33.000Z</time>
      </trkpt>
      <trkpt lat="45.23885" lon="6.03243">
        <ele>2273</ele>
        <time>2021-01-02T12:52:36.000Z</time>
      </trkpt>
      <trkpt lat="45.23886" lon="6.03244">
        <ele>2273.6000976562</ele>
        <time>2021-01-02T12:52:39.000Z</time>
      </trkpt>
      <trkpt lat="45.23888" lon="6.03246">
        <ele>2274.3999023438</ele>
        <time>2021-01-02T12:52:43.000Z</time>
      </trkpt>
      <trkpt lat="45.23888" lon="6.03247">
        <ele>2274.8000488281</ele>
        <time>2021-01-02T12:52:44.000Z</time>
      </trkpt>
      <trkpt lat="45.2389" lon="6.03251">
        <ele>2276</ele>
        <time>2021-01-02T12:52:49.000Z</time>
      </trkpt>
      <trkpt lat="45.23891" lon="6.03251">
        <ele>2276.1999511719</ele>
        <time>2021-01-02T12:52:50.000Z</time>
      </trkpt>
      <trkpt lat="45.23892" lon="6.03254">
        <ele>2277.1999511719</ele>
        <time>2021-01-02T12:52:54.000Z</time>
      </trkpt>
      <trkpt lat="45.23893" lon="6.03255">
        <ele>2277.8000488281</ele>
        <time>2021-01-02T12:52:57.000Z</time>
      </trkpt>
      <trkpt lat="45.23894" lon="6.03257">
        <ele>2278.1999511719</ele>
        <time>2021-01-02T12:52:59.000Z</time>
      </trkpt>
      <trkpt lat="45.23897" lon="6.03261">
        <ele>2279.3999023438</ele>
        <time>2021-01-02T12:53:05.000Z</time>
      </trkpt>
      <trkpt lat="45.23897" lon="6.03261">
        <ele>2279.6000976562</ele>
        <time>2021-01-02T12:53:06.000Z</time>
      </trkpt>
      <trkpt lat="45.23897" lon="6.03264">
        <ele>2280.3999023438</ele>
        <time>2021-01-02T12:53:10.000Z</time>
      </trkpt>
      <trkpt lat="45.23898" lon="6.03266">
        <ele>2281.1999511719</ele>
        <time>2021-01-02T12:53:14.000Z</time>
      </trkpt>
      <trkpt lat="45.23899" lon="6.03267">
        <ele>2281.6000976562</ele>
        <time>2021-01-02T12:53:16.000Z</time>
      </trkpt>
      <trkpt lat="45.23901" lon="6.03271">
        <ele>2282.8000488281</ele>
        <time>2021-01-02T12:53:22.000Z</time>
      </trkpt>
      <trkpt lat="45.23903" lon="6.03276">
        <ele>2284</ele>
        <time>2021-01-02T12:53:28.000Z</time>
      </trkpt>
      <trkpt lat="45.23904" lon="6.03276">
        <ele>2284.1999511719</ele>
        <time>2021-01-02T12:53:29.000Z</time>
      </trkpt>
      <trkpt lat="45.23906" lon="6.03279">
        <ele>2285</ele>
        <time>2021-01-02T12:53:33.000Z</time>
      </trkpt>
      <trkpt lat="45.23907" lon="6.03282">
        <ele>2285.8000488281</ele>
        <time>2021-01-02T12:53:37.000Z</time>
      </trkpt>
      <trkpt lat="45.23907" lon="6.03283">
        <ele>2286.1999511719</ele>
        <time>2021-01-02T12:53:39.000Z</time>
      </trkpt>
      <trkpt lat="45.23908" lon="6.03285">
        <ele>2286.8000488281</ele>
        <time>2021-01-02T12:53:43.000Z</time>
      </trkpt>
      <trkpt lat="45.23908" lon="6.03285">
        <ele>2287.1999511719</ele>
        <time>2021-01-02T12:53:46.000Z</time>
      </trkpt>
      <trkpt lat="45.23908" lon="6.03284">
        <ele>2287.6000976562</ele>
        <time>2021-01-02T12:53:49.000Z</time>
      </trkpt>
      <trkpt lat="45.23909" lon="6.03281">
        <ele>2288.1999511719</ele>
        <time>2021-01-02T12:53:54.000Z</time>
      </trkpt>
      <trkpt lat="45.23909" lon="6.03279">
        <ele>2288.3999023438</ele>
        <time>2021-01-02T12:53:56.000Z</time>
      </trkpt>
      <trkpt lat="45.23911" lon="6.03276">
        <ele>2289.3999023438</ele>
        <time>2021-01-02T12:54:01.000Z</time>
      </trkpt>
      <trkpt lat="45.23911" lon="6.03275">
        <ele>2289.6000976562</ele>
        <time>2021-01-02T12:54:02.000Z</time>
      </trkpt>
      <trkpt lat="45.23911" lon="6.0327">
        <ele>2290.3999023438</ele>
        <time>2021-01-02T12:54:07.000Z</time>
      </trkpt>
      <trkpt lat="45.23912" lon="6.03269">
        <ele>2290.8000488281</ele>
        <time>2021-01-02T12:54:10.000Z</time>
      </trkpt>
      <trkpt lat="45.23912" lon="6.03264">
        <ele>2291.3999023438</ele>
        <time>2021-01-02T12:54:14.000Z</time>
      </trkpt>
      <trkpt lat="45.23911" lon="6.0326">
        <ele>2292.3999023438</ele>
        <time>2021-01-02T12:54:19.000Z</time>
      </trkpt>
      <trkpt lat="45.23912" lon="6.03259">
        <ele>2292.6000976562</ele>
        <time>2021-01-02T12:54:20.000Z</time>
      </trkpt>
      <trkpt lat="45.23912" lon="6.03257">
        <ele>2293</ele>
        <time>2021-01-02T12:54:22.000Z</time>
      </trkpt>
      <trkpt lat="45.23911" lon="6.03255">
        <ele>2293.3999023438</ele>
        <time>2021-01-02T12:54:25.000Z</time>
      </trkpt>
      <trkpt lat="45.23911" lon="6.03255">
        <ele>2293.8000488281</ele>
        <time>2021-01-02T12:54:26.000Z</time>
      </trkpt>
      <trkpt lat="45.23912" lon="6.03249">
        <ele>2294.8000488281</ele>
        <time>2021-01-02T12:54:32.000Z</time>
      </trkpt>
      <trkpt lat="45.23912" lon="6.03246">
        <ele>2295.8000488281</ele>
        <time>2021-01-02T12:54:38.000Z</time>
      </trkpt>
      <trkpt lat="45.23912" lon="6.03246">
        <ele>2296</ele>
        <time>2021-01-02T12:54:39.000Z</time>
      </trkpt>
      <trkpt lat="45.23914" lon="6.03247">
        <ele>2296.3999023438</ele>
        <time>2021-01-02T12:54:43.000Z</time>
      </trkpt>
      <trkpt lat="45.23918" lon="6.0325">
        <ele>2297</ele>
        <time>2021-01-02T12:54:49.000Z</time>
      </trkpt>
      <trkpt lat="45.23919" lon="6.03251">
        <ele>2297.3999023438</ele>
        <time>2021-01-02T12:54:51.000Z</time>
      </trkpt>
      <trkpt lat="45.2392" lon="6.03253">
        <ele>2298</ele>
        <time>2021-01-02T12:54:54.000Z</time>
      </trkpt>
      <trkpt lat="45.23921" lon="6.03256">
        <ele>2298.8000488281</ele>
        <time>2021-01-02T12:54:58.000Z</time>
      </trkpt>
      <trkpt lat="45.23921" lon="6.03256">
        <ele>2299.1999511719</ele>
        <time>2021-01-02T12:54:59.000Z</time>
      </trkpt>
      <trkpt lat="45.23923" lon="6.03259">
        <ele>2300.3999023438</ele>
        <time>2021-01-02T12:55:04.000Z</time>
      </trkpt>
      <trkpt lat="45.23924" lon="6.0326">
        <ele>2300.6000976562</ele>
        <time>2021-01-02T12:55:05.000Z</time>
      </trkpt>
      <trkpt lat="45.23925" lon="6.03262">
        <ele>2301.3999023438</ele>
        <time>2021-01-02T12:55:08.000Z</time>
      </trkpt>
      <trkpt lat="45.23926" lon="6.03265">
        <ele>2302.3999023438</ele>
        <time>2021-01-02T12:55:13.000Z</time>
      </trkpt>
      <trkpt lat="45.23926" lon="6.03265">
        <ele>2302.6000976562</ele>
        <time>2021-01-02T12:55:14.000Z</time>
      </trkpt>
      <trkpt lat="45.23926" lon="6.03265">
        <ele>2303.3999023438</ele>
        <time>2021-01-02T12:55:18.000Z</time>
      </trkpt>
      <trkpt lat="45.23926" lon="6.03265">
        <ele>2303.8000488281</ele>
        <time>2021-01-02T12:55:20.000Z</time>
      </trkpt>
      <trkpt lat="45.23927" lon="6.03261">
        <ele>2304</ele>
        <time>2021-01-02T12:55:27.000Z</time>
      </trkpt>
      <trkpt lat="45.23927" lon="6.03257">
        <ele>2304.6000976562</ele>
        <time>2021-01-02T12:55:30.000Z</time>
      </trkpt>
      <trkpt lat="45.23928" lon="6.03254">
        <ele>2305.1999511719</ele>
        <time>2021-01-02T12:55:34.000Z</time>
      </trkpt>
      <trkpt lat="45.23929" lon="6.03252">
        <ele>2305.3999023438</ele>
        <time>2021-01-02T12:55:35.000Z</time>
      </trkpt>
      <trkpt lat="45.23928" lon="6.03251">
        <ele>2305.6000976562</ele>
        <time>2021-01-02T12:55:36.000Z</time>
      </trkpt>
      <trkpt lat="45.23929" lon="6.03249">
        <ele>2306.1999511719</ele>
        <time>2021-01-02T12:55:40.000Z</time>
      </trkpt>
      <trkpt lat="45.23929" lon="6.03247">
        <ele>2306.8000488281</ele>
        <time>2021-01-02T12:55:43.000Z</time>
      </trkpt>
      <trkpt lat="45.2393" lon="6.03243">
        <ele>2307.8000488281</ele>
        <time>2021-01-02T12:55:48.000Z</time>
      </trkpt>
      <trkpt lat="45.2393" lon="6.03242">
        <ele>2307.8000488281</ele>
        <time>2021-01-02T12:55:49.000Z</time>
      </trkpt>
      <trkpt lat="45.23933" lon="6.03236">
        <ele>2308.8000488281</ele>
        <time>2021-01-02T12:55:55.000Z</time>
      </trkpt>
      <trkpt lat="45.23933" lon="6.03236">
        <ele>2309</ele>
        <time>2021-01-02T12:55:56.000Z</time>
      </trkpt>
      <trkpt lat="45.23933" lon="6.03231">
        <ele>2310.1999511719</ele>
        <time>2021-01-02T12:56:01.000Z</time>
      </trkpt>
      <trkpt lat="45.23934" lon="6.03229">
        <ele>2310.6000976562</ele>
        <time>2021-01-02T12:56:03.000Z</time>
      </trkpt>
      <trkpt lat="45.23935" lon="6.03226">
        <ele>2311.3999023438</ele>
        <time>2021-01-02T12:56:07.000Z</time>
      </trkpt>
      <trkpt lat="45.23935" lon="6.03226">
        <ele>2312</ele>
        <time>2021-01-02T12:56:10.000Z</time>
      </trkpt>
      <trkpt lat="45.23936" lon="6.03223">
        <ele>2312.1999511719</ele>
        <time>2021-01-02T12:56:13.000Z</time>
      </trkpt>
      <trkpt lat="45.23936" lon="6.03222">
        <ele>2312.3999023438</ele>
        <time>2021-01-02T12:56:14.000Z</time>
      </trkpt>
      <trkpt lat="45.23936" lon="6.03221">
        <ele>2312.6000976562</ele>
        <time>2021-01-02T12:56:15.000Z</time>
      </trkpt>
      <trkpt lat="45.23936" lon="6.03215">
        <ele>2313.6000976562</ele>
        <time>2021-01-02T12:56:22.000Z</time>
      </trkpt>
      <trkpt lat="45.23937" lon="6.0321">
        <ele>2314.6000976562</ele>
        <time>2021-01-02T12:56:29.000Z</time>
      </trkpt>
      <trkpt lat="45.23937" lon="6.0321">
        <ele>2314.6000976562</ele>
        <time>2021-01-02T12:56:30.000Z</time>
      </trkpt>
      <trkpt lat="45.23939" lon="6.03204">
        <ele>2315.8000488281</ele>
        <time>2021-01-02T12:56:36.000Z</time>
      </trkpt>
      <trkpt lat="45.23939" lon="6.03201">
        <ele>2316.3999023438</ele>
        <time>2021-01-02T12:56:41.000Z</time>
      </trkpt>
      <trkpt lat="45.23939" lon="6.032">
        <ele>2317</ele>
        <time>2021-01-02T12:56:43.000Z</time>
      </trkpt>
      <trkpt lat="45.23939" lon="6.03197">
        <ele>2317.8000488281</ele>
        <time>2021-01-02T12:56:47.000Z</time>
      </trkpt>
      <trkpt lat="45.23939" lon="6.03197">
        <ele>2318.1999511719</ele>
        <time>2021-01-02T12:56:49.000Z</time>
      </trkpt>
      <trkpt lat="45.2394" lon="6.03197">
        <ele>2318.3999023438</ele>
        <time>2021-01-02T12:56:52.000Z</time>
      </trkpt>
      <trkpt lat="45.23943" lon="6.03198">
        <ele>2318.8000488281</ele>
        <time>2021-01-02T12:56:57.000Z</time>
      </trkpt>
      <trkpt lat="45.23944" lon="6.032">
        <ele>2319.1999511719</ele>
        <time>2021-01-02T12:57:01.000Z</time>
      </trkpt>
      <trkpt lat="45.23945" lon="6.03203">
        <ele>2319.8000488281</ele>
        <time>2021-01-02T12:57:04.000Z</time>
      </trkpt>
      <trkpt lat="45.23946" lon="6.03205">
        <ele>2320.3999023438</ele>
        <time>2021-01-02T12:57:07.000Z</time>
      </trkpt>
      <trkpt lat="45.23946" lon="6.03208">
        <ele>2321.6000976562</ele>
        <time>2021-01-02T12:57:12.000Z</time>
      </trkpt>
      <trkpt lat="45.23947" lon="6.03213">
        <ele>2322.6000976562</ele>
        <time>2021-01-02T12:57:18.000Z</time>
      </trkpt>
      <trkpt lat="45.23948" lon="6.03215">
        <ele>2323</ele>
        <time>2021-01-02T12:57:20.000Z</time>
      </trkpt>
      <trkpt lat="45.23948" lon="6.03217">
        <ele>2323.8000488281</ele>
        <time>2021-01-02T12:57:24.000Z</time>
      </trkpt>
      <trkpt lat="45.23948" lon="6.03218">
        <ele>2324.6000976562</ele>
        <time>2021-01-02T12:57:28.000Z</time>
      </trkpt>
      <trkpt lat="45.23949" lon="6.03219">
        <ele>2325.1999511719</ele>
        <time>2021-01-02T12:57:31.000Z</time>
      </trkpt>
      <trkpt lat="45.23951" lon="6.03224">
        <ele>2326</ele>
        <time>2021-01-02T12:57:36.000Z</time>
      </trkpt>
      <trkpt lat="45.23951" lon="6.03225">
        <ele>2326.1999511719</ele>
        <time>2021-01-02T12:57:37.000Z</time>
      </trkpt>
      <trkpt lat="45.23954" lon="6.03232">
        <ele>2327.1999511719</ele>
        <time>2021-01-02T12:57:44.000Z</time>
      </trkpt>
      <trkpt lat="45.23954" lon="6.03233">
        <ele>2327.3999023438</ele>
        <time>2021-01-02T12:57:45.000Z</time>
      </trkpt>
      <trkpt lat="45.23957" lon="6.03238">
        <ele>2328.3999023438</ele>
        <time>2021-01-02T12:57:51.000Z</time>
      </trkpt>
      <trkpt lat="45.23957" lon="6.03239">
        <ele>2328.8000488281</ele>
        <time>2021-01-02T12:57:53.000Z</time>
      </trkpt>
      <trkpt lat="45.23957" lon="6.0324">
        <ele>2329.3999023438</ele>
        <time>2021-01-02T12:57:56.000Z</time>
      </trkpt>
      <trkpt lat="45.2396" lon="6.03246">
        <ele>2330.6000976562</ele>
        <time>2021-01-02T12:58:02.000Z</time>
      </trkpt>
      <trkpt lat="45.23961" lon="6.03248">
        <ele>2331.6000976562</ele>
        <time>2021-01-02T12:58:07.000Z</time>
      </trkpt>
      <trkpt lat="45.23962" lon="6.03249">
        <ele>2332</ele>
        <time>2021-01-02T12:58:09.000Z</time>
      </trkpt>
      <trkpt lat="45.23963" lon="6.03252">
        <ele>2332.6000976562</ele>
        <time>2021-01-02T12:58:13.000Z</time>
      </trkpt>
      <trkpt lat="45.23965" lon="6.03254">
        <ele>2333.3999023438</ele>
        <time>2021-01-02T12:58:17.000Z</time>
      </trkpt>
      <trkpt lat="45.23966" lon="6.03256">
        <ele>2334</ele>
        <time>2021-01-02T12:58:19.000Z</time>
      </trkpt>
      <trkpt lat="45.23967" lon="6.03258">
        <ele>2334.8000488281</ele>
        <time>2021-01-02T12:58:23.000Z</time>
      </trkpt>
      <trkpt lat="45.23967" lon="6.03259">
        <ele>2335</ele>
        <time>2021-01-02T12:58:24.000Z</time>
      </trkpt>
      <trkpt lat="45.23968" lon="6.0326">
        <ele>2336.1999511719</ele>
        <time>2021-01-02T12:58:30.000Z</time>
      </trkpt>
      <trkpt lat="45.23968" lon="6.0326">
        <ele>2336.1999511719</ele>
        <time>2021-01-02T12:58:31.000Z</time>
      </trkpt>
      <trkpt lat="45.23968" lon="6.0326">
        <ele>2337</ele>
        <time>2021-01-02T12:58:38.000Z</time>
      </trkpt>
      <trkpt lat="45.23969" lon="6.03257">
        <ele>2337</ele>
        <time>2021-01-02T12:58:43.000Z</time>
      </trkpt>
      <trkpt lat="45.23969" lon="6.03256">
        <ele>2337.1999511719</ele>
        <time>2021-01-02T12:58:45.000Z</time>
      </trkpt>
      <trkpt lat="45.2397" lon="6.03253">
        <ele>2338</ele>
        <time>2021-01-02T12:58:50.000Z</time>
      </trkpt>
      <trkpt lat="45.23971" lon="6.03253">
        <ele>2338.3999023438</ele>
        <time>2021-01-02T12:58:52.000Z</time>
      </trkpt>
      <trkpt lat="45.23971" lon="6.0325">
        <ele>2339.1999511719</ele>
        <time>2021-01-02T12:58:57.000Z</time>
      </trkpt>
      <trkpt lat="45.23971" lon="6.0325">
        <ele>2339.3999023438</ele>
        <time>2021-01-02T12:58:58.000Z</time>
      </trkpt>
      <trkpt lat="45.23973" lon="6.03244">
        <ele>2340.6000976562</ele>
        <time>2021-01-02T12:59:06.000Z</time>
      </trkpt>
      <trkpt lat="45.23973" lon="6.03243">
        <ele>2341.6000976562</ele>
        <time>2021-01-02T12:59:12.000Z</time>
      </trkpt>
      <trkpt lat="45.23975" lon="6.03243">
        <ele>2342</ele>
        <time>2021-01-02T12:59:19.000Z</time>
      </trkpt>
      <trkpt lat="45.23977" lon="6.03245">
        <ele>2342.6000976562</ele>
        <time>2021-01-02T12:59:23.000Z</time>
      </trkpt>
      <trkpt lat="45.23978" lon="6.03246">
        <ele>2342.8000488281</ele>
        <time>2021-01-02T12:59:24.000Z</time>
      </trkpt>
      <trkpt lat="45.23979" lon="6.03246">
        <ele>2344</ele>
        <time>2021-01-02T12:59:31.000Z</time>
      </trkpt>
      <trkpt lat="45.23979" lon="6.03245">
        <ele>2344.6000976562</ele>
        <time>2021-01-02T12:59:37.000Z</time>
      </trkpt>
      <trkpt lat="45.2398" lon="6.03242">
        <ele>2345.1999511719</ele>
        <time>2021-01-02T12:59:40.000Z</time>
      </trkpt>
      <trkpt lat="45.23981" lon="6.0324">
        <ele>2346.1999511719</ele>
        <time>2021-01-02T12:59:45.000Z</time>
      </trkpt>
      <trkpt lat="45.23983" lon="6.03238">
        <ele>2347.1999511719</ele>
        <time>2021-01-02T12:59:50.000Z</time>
      </trkpt>
      <trkpt lat="45.23983" lon="6.03236">
        <ele>2347.8000488281</ele>
        <time>2021-01-02T12:59:53.000Z</time>
      </trkpt>
      <trkpt lat="45.23984" lon="6.03235">
        <ele>2348.3999023438</ele>
        <time>2021-01-02T12:59:55.000Z</time>
      </trkpt>
      <trkpt lat="45.23985" lon="6.03232">
        <ele>2349.1999511719</ele>
        <time>2021-01-02T12:59:59.000Z</time>
      </trkpt>
      <trkpt lat="45.23985" lon="6.03232">
        <ele>2349.6000976562</ele>
        <time>2021-01-02T13:00:01.000Z</time>
      </trkpt>
      <trkpt lat="45.23985" lon="6.03232">
        <ele>2349.8000488281</ele>
        <time>2021-01-02T13:00:02.000Z</time>
      </trkpt>
      <trkpt lat="45.23985" lon="6.03232">
        <ele>2350.6000976562</ele>
        <time>2021-01-02T13:00:06.000Z</time>
      </trkpt>
      <trkpt lat="45.23985" lon="6.03232">
        <ele>2351.8000488281</ele>
        <time>2021-01-02T13:00:12.000Z</time>
      </trkpt>
      <trkpt lat="45.23985" lon="6.03232">
        <ele>2352</ele>
        <time>2021-01-02T13:00:13.000Z</time>
      </trkpt>
      <trkpt lat="45.23985" lon="6.03231">
        <ele>2353</ele>
        <time>2021-01-02T13:00:18.000Z</time>
      </trkpt>
      <trkpt lat="45.23987" lon="6.03227">
        <ele>2353.6000976562</ele>
        <time>2021-01-02T13:00:21.000Z</time>
      </trkpt>
      <trkpt lat="45.23989" lon="6.03226">
        <ele>2354.1999511719</ele>
        <time>2021-01-02T13:00:23.000Z</time>
      </trkpt>
      <trkpt lat="45.2399" lon="6.03222">
        <ele>2354.8000488281</ele>
        <time>2021-01-02T13:00:27.000Z</time>
      </trkpt>
      <trkpt lat="45.2399" lon="6.03222">
        <ele>2355.1999511719</ele>
        <time>2021-01-02T13:00:29.000Z</time>
      </trkpt>
      <trkpt lat="45.23992" lon="6.0322">
        <ele>2356</ele>
        <time>2021-01-02T13:00:34.000Z</time>
      </trkpt>
      <trkpt lat="45.23994" lon="6.03218">
        <ele>2356.3999023438</ele>
        <time>2021-01-02T13:00:36.000Z</time>
      </trkpt>
      <trkpt lat="45.23995" lon="6.03215">
        <ele>2357</ele>
        <time>2021-01-02T13:00:40.000Z</time>
      </trkpt>
      <trkpt lat="45.23996" lon="6.03215">
        <ele>2357.8000488281</ele>
        <time>2021-01-02T13:00:43.000Z</time>
      </trkpt>
      <trkpt lat="45.23998" lon="6.03212">
        <ele>2358.3999023438</ele>
        <time>2021-01-02T13:00:47.000Z</time>
      </trkpt>
      <trkpt lat="45.23999" lon="6.0321">
        <ele>2358.8000488281</ele>
        <time>2021-01-02T13:00:49.000Z</time>
      </trkpt>
      <trkpt lat="45.24002" lon="6.03207">
        <ele>2359.6000976562</ele>
        <time>2021-01-02T13:00:54.000Z</time>
      </trkpt>
      <trkpt lat="45.24003" lon="6.03206">
        <ele>2359.8000488281</ele>
        <time>2021-01-02T13:00:55.000Z</time>
      </trkpt>
      <trkpt lat="45.24005" lon="6.03202">
        <ele>2361</ele>
        <time>2021-01-02T13:01:01.000Z</time>
      </trkpt>
      <trkpt lat="45.24006" lon="6.03202">
        <ele>2361.1999511719</ele>
        <time>2021-01-02T13:01:02.000Z</time>
      </trkpt>
      <trkpt lat="45.24006" lon="6.03201">
        <ele>2362.1999511719</ele>
        <time>2021-01-02T13:01:07.000Z</time>
      </trkpt>
      <trkpt lat="45.24006" lon="6.03201">
        <ele>2362.8000488281</ele>
        <time>2021-01-02T13:01:09.000Z</time>
      </trkpt>
      <trkpt lat="45.24007" lon="6.03201">
        <ele>2363.1999511719</ele>
        <time>2021-01-02T13:01:12.000Z</time>
      </trkpt>
      <trkpt lat="45.24007" lon="6.03199">
        <ele>2363.8000488281</ele>
        <time>2021-01-02T13:01:15.000Z</time>
      </trkpt>
      <trkpt lat="45.24009" lon="6.03197">
        <ele>2364.3999023438</ele>
        <time>2021-01-02T13:01:18.000Z</time>
      </trkpt>
      <trkpt lat="45.2401" lon="6.03192">
        <ele>2365.3999023438</ele>
        <time>2021-01-02T13:01:24.000Z</time>
      </trkpt>
      <trkpt lat="45.2401" lon="6.03191">
        <ele>2365.8000488281</ele>
        <time>2021-01-02T13:01:26.000Z</time>
      </trkpt>
      <trkpt lat="45.2401" lon="6.03188">
        <ele>2366.6000976562</ele>
        <time>2021-01-02T13:01:31.000Z</time>
      </trkpt>
      <trkpt lat="45.2401" lon="6.03188">
        <ele>2366.8000488281</ele>
        <time>2021-01-02T13:01:32.000Z</time>
      </trkpt>
      <trkpt lat="45.24009" lon="6.03185">
        <ele>2367.8000488281</ele>
        <time>2021-01-02T13:01:36.000Z</time>
      </trkpt>
      <trkpt lat="45.24009" lon="6.03185">
        <ele>2368.6000976562</ele>
        <time>2021-01-02T13:01:40.000Z</time>
      </trkpt>
      <trkpt lat="45.24009" lon="6.03185">
        <ele>2368.8000488281</ele>
        <time>2021-01-02T13:01:42.000Z</time>
      </trkpt>
      <trkpt lat="45.2401" lon="6.03183">
        <ele>2369</ele>
        <time>2021-01-02T13:01:50.000Z</time>
      </trkpt>
      <trkpt lat="45.2401" lon="6.03181">
        <ele>2370</ele>
        <time>2021-01-02T13:01:56.000Z</time>
      </trkpt>
      <trkpt lat="45.2401" lon="6.03181">
        <ele>2370.1999511719</ele>
        <time>2021-01-02T13:01:57.000Z</time>
      </trkpt>
      <trkpt lat="45.24011" lon="6.03181">
        <ele>2370.3999023438</ele>
        <time>2021-01-02T13:02:03.000Z</time>
      </trkpt>
      <trkpt lat="45.24016" lon="6.03181">
        <ele>2371</ele>
        <time>2021-01-02T13:02:08.000Z</time>
      </trkpt>
      <trkpt lat="45.24019" lon="6.0318">
        <ele>2371.8000488281</ele>
        <time>2021-01-02T13:02:12.000Z</time>
      </trkpt>
      <trkpt lat="45.2402" lon="6.03181">
        <ele>2372.1999511719</ele>
        <time>2021-01-02T13:02:14.000Z</time>
      </trkpt>
      <trkpt lat="45.24022" lon="6.03182">
        <ele>2373.3999023438</ele>
        <time>2021-01-02T13:02:19.000Z</time>
      </trkpt>
      <trkpt lat="45.24023" lon="6.03182">
        <ele>2373.6000976562</ele>
        <time>2021-01-02T13:02:20.000Z</time>
      </trkpt>
      <trkpt lat="45.24025" lon="6.03183">
        <ele>2374.3999023438</ele>
        <time>2021-01-02T13:02:24.000Z</time>
      </trkpt>
      <trkpt lat="45.24028" lon="6.03186">
        <ele>2375.3999023438</ele>
        <time>2021-01-02T13:02:29.000Z</time>
      </trkpt>
      <trkpt lat="45.24028" lon="6.03187">
        <ele>2376.3999023438</ele>
        <time>2021-01-02T13:02:33.000Z</time>
      </trkpt>
      <trkpt lat="45.2403" lon="6.0319">
        <ele>2377.3999023438</ele>
        <time>2021-01-02T13:02:38.000Z</time>
      </trkpt>
      <trkpt lat="45.24031" lon="6.0319">
        <ele>2377.6000976562</ele>
        <time>2021-01-02T13:02:39.000Z</time>
      </trkpt>
      <trkpt lat="45.24031" lon="6.03193">
        <ele>2378.8000488281</ele>
        <time>2021-01-02T13:02:44.000Z</time>
      </trkpt>
      <trkpt lat="45.24032" lon="6.03195">
        <ele>2379.6000976562</ele>
        <time>2021-01-02T13:02:48.000Z</time>
      </trkpt>
      <trkpt lat="45.24033" lon="6.03196">
        <ele>2380</ele>
        <time>2021-01-02T13:02:50.000Z</time>
      </trkpt>
      <trkpt lat="45.24034" lon="6.03198">
        <ele>2380.8000488281</ele>
        <time>2021-01-02T13:02:55.000Z</time>
      </trkpt>
      <trkpt lat="45.24034" lon="6.03198">
        <ele>2381</ele>
        <time>2021-01-02T13:02:56.000Z</time>
      </trkpt>
      <trkpt lat="45.24036" lon="6.03202">
        <ele>2382</ele>
        <time>2021-01-02T13:03:02.000Z</time>
      </trkpt>
      <trkpt lat="45.24037" lon="6.03202">
        <ele>2382.1999511719</ele>
        <time>2021-01-02T13:03:03.000Z</time>
      </trkpt>
      <trkpt lat="45.24039" lon="6.03205">
        <ele>2383.3999023438</ele>
        <time>2021-01-02T13:03:07.000Z</time>
      </trkpt>
      <trkpt lat="45.24042" lon="6.03207">
        <ele>2384</ele>
        <time>2021-01-02T13:03:10.000Z</time>
      </trkpt>
      <trkpt lat="45.24043" lon="6.03208">
        <ele>2384.3999023438</ele>
        <time>2021-01-02T13:03:12.000Z</time>
      </trkpt>
      <trkpt lat="45.24044" lon="6.03209">
        <ele>2385.1999511719</ele>
        <time>2021-01-02T13:03:17.000Z</time>
      </trkpt>
      <trkpt lat="45.24044" lon="6.03209">
        <ele>2385.3999023438</ele>
        <time>2021-01-02T13:03:18.000Z</time>
      </trkpt>
      <trkpt lat="45.24046" lon="6.0321">
        <ele>2385.8000488281</ele>
        <time>2021-01-02T13:03:22.000Z</time>
      </trkpt>
      <trkpt lat="45.2405" lon="6.03213">
        <ele>2386.3999023438</ele>
        <time>2021-01-02T13:03:28.000Z</time>
      </trkpt>
      <trkpt lat="45.24051" lon="6.03214">
        <ele>2387</ele>
        <time>2021-01-02T13:03:30.000Z</time>
      </trkpt>
      <trkpt lat="45.24052" lon="6.03216">
        <ele>2387.6000976562</ele>
        <time>2021-01-02T13:03:32.000Z</time>
      </trkpt>
      <trkpt lat="45.24055" lon="6.03219">
        <ele>2388.6000976562</ele>
        <time>2021-01-02T13:03:38.000Z</time>
      </trkpt>
      <trkpt lat="45.24058" lon="6.03223">
        <ele>2389.8000488281</ele>
        <time>2021-01-02T13:03:43.000Z</time>
      </trkpt>
      <trkpt lat="45.2406" lon="6.03225">
        <ele>2390.3999023438</ele>
        <time>2021-01-02T13:03:46.000Z</time>
      </trkpt>
      <trkpt lat="45.24061" lon="6.03225">
        <ele>2390.8000488281</ele>
        <time>2021-01-02T13:03:48.000Z</time>
      </trkpt>
      <trkpt lat="45.24064" lon="6.03225">
        <ele>2392</ele>
        <time>2021-01-02T13:03:52.000Z</time>
      </trkpt>
      <trkpt lat="45.24065" lon="6.03225">
        <ele>2392.6000976562</ele>
        <time>2021-01-02T13:03:54.000Z</time>
      </trkpt>
      <trkpt lat="45.24066" lon="6.03225">
        <ele>2393</ele>
        <time>2021-01-02T13:03:55.000Z</time>
      </trkpt>
      <trkpt lat="45.24068" lon="6.03226">
        <ele>2394.1999511719</ele>
        <time>2021-01-02T13:04:00.000Z</time>
      </trkpt>
      <trkpt lat="45.24069" lon="6.03226">
        <ele>2394.6000976562</ele>
        <time>2021-01-02T13:04:01.000Z</time>
      </trkpt>
      <trkpt lat="45.24069" lon="6.03226">
        <ele>2395.3999023438</ele>
        <time>2021-01-02T13:04:05.000Z</time>
      </trkpt>
      <trkpt lat="45.2407" lon="6.03226">
        <ele>2396</ele>
        <time>2021-01-02T13:04:10.000Z</time>
      </trkpt>
      <trkpt lat="45.24074" lon="6.03226">
        <ele>2396.6000976562</ele>
        <time>2021-01-02T13:04:16.000Z</time>
      </trkpt>
      <trkpt lat="45.24075" lon="6.03226">
        <ele>2396.6000976562</ele>
        <time>2021-01-02T13:04:17.000Z</time>
      </trkpt>
      <trkpt lat="45.24078" lon="6.03226">
        <ele>2397.8000488281</ele>
        <time>2021-01-02T13:04:21.000Z</time>
      </trkpt>
      <trkpt lat="45.2408" lon="6.03226">
        <ele>2398.6000976562</ele>
        <time>2021-01-02T13:04:24.000Z</time>
      </trkpt>
      <trkpt lat="45.2408" lon="6.03226">
        <ele>2398.8000488281</ele>
        <time>2021-01-02T13:04:25.000Z</time>
      </trkpt>
      <trkpt lat="45.24084" lon="6.03226">
        <ele>2399.8000488281</ele>
        <time>2021-01-02T13:04:30.000Z</time>
      </trkpt>
      <trkpt lat="45.24084" lon="6.03227">
        <ele>2400</ele>
        <time>2021-01-02T13:04:31.000Z</time>
      </trkpt>
      <trkpt lat="45.24085" lon="6.0323">
        <ele>2401</ele>
        <time>2021-01-02T13:04:36.000Z</time>
      </trkpt>
      <trkpt lat="45.24086" lon="6.03231">
        <ele>2401.3999023438</ele>
        <time>2021-01-02T13:04:38.000Z</time>
      </trkpt>
      <trkpt lat="45.24087" lon="6.03233">
        <ele>2402.1999511719</ele>
        <time>2021-01-02T13:04:41.000Z</time>
      </trkpt>
      <trkpt lat="45.24088" lon="6.03235">
        <ele>2403.1999511719</ele>
        <time>2021-01-02T13:04:45.000Z</time>
      </trkpt>
      <trkpt lat="45.24089" lon="6.03236">
        <ele>2403.3999023438</ele>
        <time>2021-01-02T13:04:46.000Z</time>
      </trkpt>
      <trkpt lat="45.24091" lon="6.03239">
        <ele>2404.3999023438</ele>
        <time>2021-01-02T13:04:51.000Z</time>
      </trkpt>
      <trkpt lat="45.24092" lon="6.0324">
        <ele>2405.1999511719</ele>
        <time>2021-01-02T13:04:54.000Z</time>
      </trkpt>
      <trkpt lat="45.24093" lon="6.03241">
        <ele>2405.6000976562</ele>
        <time>2021-01-02T13:04:56.000Z</time>
      </trkpt>
      <trkpt lat="45.24097" lon="6.03241">
        <ele>2406.8000488281</ele>
        <time>2021-01-02T13:05:02.000Z</time>
      </trkpt>
      <trkpt lat="45.24101" lon="6.03243">
        <ele>2407.8000488281</ele>
        <time>2021-01-02T13:05:07.000Z</time>
      </trkpt>
      <trkpt lat="45.24101" lon="6.03243">
        <ele>2408.1999511719</ele>
        <time>2021-01-02T13:05:09.000Z</time>
      </trkpt>
      <trkpt lat="45.24103" lon="6.03244">
        <ele>2408.8000488281</ele>
        <time>2021-01-02T13:05:13.000Z</time>
      </trkpt>
      <trkpt lat="45.24104" lon="6.03244">
        <ele>2409.3999023438</ele>
        <time>2021-01-02T13:05:16.000Z</time>
      </trkpt>
      <trkpt lat="45.24106" lon="6.03246">
        <ele>2410</ele>
        <time>2021-01-02T13:05:19.000Z</time>
      </trkpt>
      <trkpt lat="45.24107" lon="6.03247">
        <ele>2410.3999023438</ele>
        <time>2021-01-02T13:05:22.000Z</time>
      </trkpt>
      <trkpt lat="45.24107" lon="6.03249">
        <ele>2411</ele>
        <time>2021-01-02T13:05:25.000Z</time>
      </trkpt>
      <trkpt lat="45.24109" lon="6.03254">
        <ele>2412</ele>
        <time>2021-01-02T13:05:30.000Z</time>
      </trkpt>
      <trkpt lat="45.24109" lon="6.03255">
        <ele>2412.3999023438</ele>
        <time>2021-01-02T13:05:31.000Z</time>
      </trkpt>
      <trkpt lat="45.2411" lon="6.0326">
        <ele>2413.3999023438</ele>
        <time>2021-01-02T13:05:36.000Z</time>
      </trkpt>
      <trkpt lat="45.24111" lon="6.03261">
        <ele>2413.6000976562</ele>
        <time>2021-01-02T13:05:37.000Z</time>
      </trkpt>
      <trkpt lat="45.24114" lon="6.03263">
        <ele>2414.6000976562</ele>
        <time>2021-01-02T13:05:42.000Z</time>
      </trkpt>
      <trkpt lat="45.24115" lon="6.03264">
        <ele>2414.8000488281</ele>
        <time>2021-01-02T13:05:44.000Z</time>
      </trkpt>
      <trkpt lat="45.24116" lon="6.03266">
        <ele>2415.6000976562</ele>
        <time>2021-01-02T13:05:47.000Z</time>
      </trkpt>
      <trkpt lat="45.24117" lon="6.0327">
        <ele>2416.8000488281</ele>
        <time>2021-01-02T13:05:52.000Z</time>
      </trkpt>
      <trkpt lat="45.24117" lon="6.03272">
        <ele>2417.3999023438</ele>
        <time>2021-01-02T13:05:54.000Z</time>
      </trkpt>
      <trkpt lat="45.24117" lon="6.03273">
        <ele>2418</ele>
        <time>2021-01-02T13:05:55.000Z</time>
      </trkpt>
      <trkpt lat="45.24118" lon="6.03275">
        <ele>2418.6000976562</ele>
        <time>2021-01-02T13:05:58.000Z</time>
      </trkpt>
      <trkpt lat="45.24118" lon="6.03276">
        <ele>2419</ele>
        <time>2021-01-02T13:06:01.000Z</time>
      </trkpt>
      <trkpt lat="45.24118" lon="6.03281">
        <ele>2420</ele>
        <time>2021-01-02T13:06:07.000Z</time>
      </trkpt>
      <trkpt lat="45.24118" lon="6.03282">
        <ele>2420.1999511719</ele>
        <time>2021-01-02T13:06:08.000Z</time>
      </trkpt>
      <trkpt lat="45.2412" lon="6.03285">
        <ele>2421.3999023438</ele>
        <time>2021-01-02T13:06:13.000Z</time>
      </trkpt>
      <trkpt lat="45.24121" lon="6.03285">
        <ele>2421.8000488281</ele>
        <time>2021-01-02T13:06:14.000Z</time>
      </trkpt>
      <trkpt lat="45.24122" lon="6.03288">
        <ele>2422.6000976562</ele>
        <time>2021-01-02T13:06:18.000Z</time>
      </trkpt>
      <trkpt lat="45.24123" lon="6.0329">
        <ele>2423.3999023438</ele>
        <time>2021-01-02T13:06:21.000Z</time>
      </trkpt>
      <trkpt lat="45.24123" lon="6.03291">
        <ele>2423.8000488281</ele>
        <time>2021-01-02T13:06:23.000Z</time>
      </trkpt>
      <trkpt lat="45.24125" lon="6.03294">
        <ele>2424.6000976562</ele>
        <time>2021-01-02T13:06:27.000Z</time>
      </trkpt>
      <trkpt lat="45.24126" lon="6.03294">
        <ele>2424.8000488281</ele>
        <time>2021-01-02T13:06:30.000Z</time>
      </trkpt>
      <trkpt lat="45.24126" lon="6.03294">
        <ele>2425</ele>
        <time>2021-01-02T13:06:32.000Z</time>
      </trkpt>
      <trkpt lat="45.24125" lon="6.03294">
        <ele>2425.3999023438</ele>
        <time>2021-01-02T13:06:38.000Z</time>
      </trkpt>
      <trkpt lat="45.24126" lon="6.03294">
        <ele>2425.6000976562</ele>
        <time>2021-01-02T13:06:44.000Z</time>
      </trkpt>
      <trkpt lat="45.24126" lon="6.03294">
        <ele>2425.6000976562</ele>
        <time>2021-01-02T13:06:45.000Z</time>
      </trkpt>
      <trkpt lat="45.24127" lon="6.03296">
        <ele>2425.6000976562</ele>
        <time>2021-01-02T13:06:47.000Z</time>
      </trkpt>
      <trkpt lat="45.24127" lon="6.03298">
        <ele>2425.8000488281</ele>
        <time>2021-01-02T13:06:50.000Z</time>
      </trkpt>
      <trkpt lat="45.24127" lon="6.03299">
        <ele>2426</ele>
        <time>2021-01-02T13:06:51.000Z</time>
      </trkpt>
      <trkpt lat="45.24125" lon="6.03304">
        <ele>2426.6000976562</ele>
        <time>2021-01-02T13:06:57.000Z</time>
      </trkpt>
      <trkpt lat="45.24125" lon="6.03304">
        <ele>2426.8000488281</ele>
        <time>2021-01-02T13:07:02.000Z</time>
      </trkpt>
      <trkpt lat="45.24125" lon="6.03304">
        <ele>2427</ele>
        <time>2021-01-02T13:07:04.000Z</time>
      </trkpt>
      <trkpt lat="45.24125" lon="6.03304">
        <ele>2427</ele>
        <time>2021-01-02T13:07:15.000Z</time>
      </trkpt>
      <trkpt lat="45.24125" lon="6.03304">
        <ele>2427</ele>
        <time>2021-01-02T13:07:24.000Z</time>
      </trkpt>
      <trkpt lat="45.24125" lon="6.03304">
        <ele>2426.8000488281</ele>
        <time>2021-01-02T13:07:30.000Z</time>
      </trkpt>
      <trkpt lat="45.24125" lon="6.03305">
        <ele>2426</ele>
        <time>2021-01-02T13:07:52.000Z</time>
      </trkpt>
      <trkpt lat="45.24125" lon="6.03305">
        <ele>2426</ele>
        <time>2021-01-02T13:08:08.000Z</time>
      </trkpt>
      <trkpt lat="45.24125" lon="6.03304">
        <ele>2426.6000976562</ele>
        <time>2021-01-02T13:08:24.000Z</time>
      </trkpt>
      <trkpt lat="45.24125" lon="6.03304">
        <ele>2426.3999023438</ele>
        <time>2021-01-02T13:08:47.000Z</time>
      </trkpt>
      <trkpt lat="45.24125" lon="6.03305">
        <ele>2426.1999511719</ele>
        <time>2021-01-02T13:08:59.000Z</time>
      </trkpt>
      <trkpt lat="45.24125" lon="6.03305">
        <ele>2426.3999023438</ele>
        <time>2021-01-02T13:09:18.000Z</time>
      </trkpt>
      <trkpt lat="45.24125" lon="6.03305">
        <ele>2426.6000976562</ele>
        <time>2021-01-02T13:09:33.000Z</time>
      </trkpt>
      <trkpt lat="45.24125" lon="6.03305">
        <ele>2426.3999023438</ele>
        <time>2021-01-02T13:09:50.000Z</time>
      </trkpt>
      <trkpt lat="45.24125" lon="6.03305">
        <ele>2426.6000976562</ele>
        <time>2021-01-02T13:10:10.000Z</time>
      </trkpt>
      <trkpt lat="45.24125" lon="6.03305">
        <ele>2427</ele>
        <time>2021-01-02T13:10:33.000Z</time>
      </trkpt>
      <trkpt lat="45.24125" lon="6.03305">
        <ele>2427</ele>
        <time>2021-01-02T13:10:55.000Z</time>
      </trkpt>
      <trkpt lat="45.24126" lon="6.03304">
        <ele>2426.6000976562</ele>
        <time>2021-01-02T13:11:17.000Z</time>
      </trkpt>
      <trkpt lat="45.24126" lon="6.03304">
        <ele>2426.6000976562</ele>
        <time>2021-01-02T13:11:38.000Z</time>
      </trkpt>
      <trkpt lat="45.24126" lon="6.03305">
        <ele>2426.6000976562</ele>
        <time>2021-01-02T13:12:00.000Z</time>
      </trkpt>
      <trkpt lat="45.24126" lon="6.03304">
        <ele>2427.1999511719</ele>
        <time>2021-01-02T13:12:23.000Z</time>
      </trkpt>
      <trkpt lat="45.24126" lon="6.03304">
        <ele>2426.6000976562</ele>
        <time>2021-01-02T13:12:42.000Z</time>
      </trkpt>
      <trkpt lat="45.24126" lon="6.03304">
        <ele>2426.6000976562</ele>
        <time>2021-01-02T13:13:06.000Z</time>
      </trkpt>
      <trkpt lat="45.24126" lon="6.03304">
        <ele>2426.8000488281</ele>
        <time>2021-01-02T13:13:22.000Z</time>
      </trkpt>
      <trkpt lat="45.24125" lon="6.03304">
        <ele>2426.8000488281</ele>
        <time>2021-01-02T13:13:45.000Z</time>
      </trkpt>
      <trkpt lat="45.24125" lon="6.03304">
        <ele>2426.8000488281</ele>
        <time>2021-01-02T13:14:03.000Z</time>
      </trkpt>
      <trkpt lat="45.24125" lon="6.03304">
        <ele>2426.6000976562</ele>
        <time>2021-01-02T13:14:26.000Z</time>
      </trkpt>
      <trkpt lat="45.24125" lon="6.03304">
        <ele>2426.8000488281</ele>
        <time>2021-01-02T13:14:43.000Z</time>
      </trkpt>
      <trkpt lat="45.24125" lon="6.03304">
        <ele>2426.6000976562</ele>
        <time>2021-01-02T13:15:02.000Z</time>
      </trkpt>
      <trkpt lat="45.24125" lon="6.03304">
        <ele>2426.6000976562</ele>
        <time>2021-01-02T13:15:21.000Z</time>
      </trkpt>
      <trkpt lat="45.24125" lon="6.03304">
        <ele>2426.6000976562</ele>
        <time>2021-01-02T13:15:38.000Z</time>
      </trkpt>
      <trkpt lat="45.24126" lon="6.03304">
        <ele>2426.8000488281</ele>
        <time>2021-01-02T13:15:57.000Z</time>
      </trkpt>
      <trkpt lat="45.24126" lon="6.03304">
        <ele>2426.6000976562</ele>
        <time>2021-01-02T13:16:15.000Z</time>
      </trkpt>
      <trkpt lat="45.24125" lon="6.03304">
        <ele>2426.6000976562</ele>
        <time>2021-01-02T13:16:35.000Z</time>
      </trkpt>
      <trkpt lat="45.24125" lon="6.03304">
        <ele>2425.6000976562</ele>
        <time>2021-01-02T13:16:46.000Z</time>
      </trkpt>
      <trkpt lat="45.24125" lon="6.03304">
        <ele>2425.6000976562</ele>
        <time>2021-01-02T13:16:49.000Z</time>
      </trkpt>
      <trkpt lat="45.24125" lon="6.03304">
        <ele>2426.6000976562</ele>
        <time>2021-01-02T13:17:10.000Z</time>
      </trkpt>
      <trkpt lat="45.24125" lon="6.03304">
        <ele>2426.3999023438</ele>
        <time>2021-01-02T13:17:19.000Z</time>
      </trkpt>
      <trkpt lat="45.24125" lon="6.03304">
        <ele>2426.3999023438</ele>
        <time>2021-01-02T13:17:36.000Z</time>
      </trkpt>
      <trkpt lat="45.24126" lon="6.03303">
        <ele>2426.1999511719</ele>
        <time>2021-01-02T13:17:59.000Z</time>
      </trkpt>
      <trkpt lat="45.24126" lon="6.03303">
        <ele>2426.3999023438</ele>
        <time>2021-01-02T13:18:20.000Z</time>
      </trkpt>
      <trkpt lat="45.24126" lon="6.03303">
        <ele>2426.3999023438</ele>
        <time>2021-01-02T13:18:40.000Z</time>
      </trkpt>
      <trkpt lat="45.24126" lon="6.03303">
        <ele>2427.3999023438</ele>
        <time>2021-01-02T13:18:45.000Z</time>
      </trkpt>
      <trkpt lat="45.24126" lon="6.03304">
        <ele>2427.3999023438</ele>
        <time>2021-01-02T13:18:49.000Z</time>
      </trkpt>
      <trkpt lat="45.24126" lon="6.03304">
        <ele>2427.3999023438</ele>
        <time>2021-01-02T13:18:57.000Z</time>
      </trkpt>
      <trkpt lat="45.24125" lon="6.03304">
        <ele>2427.6000976562</ele>
        <time>2021-01-02T13:19:02.000Z</time>
      </trkpt>
      <trkpt lat="45.24125" lon="6.03304">
        <ele>2426.3999023438</ele>
        <time>2021-01-02T13:19:16.000Z</time>
      </trkpt>
      <trkpt lat="45.24125" lon="6.03304">
        <ele>2426</ele>
        <time>2021-01-02T13:19:20.000Z</time>
      </trkpt>
      <trkpt lat="45.24125" lon="6.03304">
        <ele>2426.6000976562</ele>
        <time>2021-01-02T13:19:32.000Z</time>
      </trkpt>
      <trkpt lat="45.24125" lon="6.03304">
        <ele>2427.1999511719</ele>
        <time>2021-01-02T13:19:39.000Z</time>
      </trkpt>
      <trkpt lat="45.24125" lon="6.03304">
        <ele>2427.1999511719</ele>
        <time>2021-01-02T13:19:50.000Z</time>
      </trkpt>
      <trkpt lat="45.24125" lon="6.03304">
        <ele>2427.1999511719</ele>
        <time>2021-01-02T13:20:01.000Z</time>
      </trkpt>
      <trkpt lat="45.24125" lon="6.03304">
        <ele>2427.1999511719</ele>
        <time>2021-01-02T13:20:16.000Z</time>
      </trkpt>
      <trkpt lat="45.24125" lon="6.03304">
        <ele>2427.1999511719</ele>
        <time>2021-01-02T13:20:26.000Z</time>
      </trkpt>
      <trkpt lat="45.24125" lon="6.03304">
        <ele>2427</ele>
        <time>2021-01-02T13:20:36.000Z</time>
      </trkpt>
      <trkpt lat="45.24125" lon="6.03304">
        <ele>2427.1999511719</ele>
        <time>2021-01-02T13:20:50.000Z</time>
      </trkpt>
      <trkpt lat="45.24126" lon="6.03305">
        <ele>2427</ele>
        <time>2021-01-02T13:20:56.000Z</time>
      </trkpt>
      <trkpt lat="45.24126" lon="6.03305">
        <ele>2427</ele>
        <time>2021-01-02T13:21:06.000Z</time>
      </trkpt>
      <trkpt lat="45.24126" lon="6.03305">
        <ele>2427.1999511719</ele>
        <time>2021-01-02T13:21:13.000Z</time>
      </trkpt>
      <trkpt lat="45.24125" lon="6.03305">
        <ele>2427.1999511719</ele>
        <time>2021-01-02T13:21:18.000Z</time>
      </trkpt>
      <trkpt lat="45.24124" lon="6.03309">
        <ele>2427.1999511719</ele>
        <time>2021-01-02T13:21:26.000Z</time>
      </trkpt>
      <trkpt lat="45.24124" lon="6.03309">
        <ele>2427.3999023438</ele>
        <time>2021-01-02T13:21:29.000Z</time>
      </trkpt>
      <trkpt lat="45.24123" lon="6.03309">
        <ele>2427.6000976562</ele>
        <time>2021-01-02T13:21:33.000Z</time>
      </trkpt>
      <trkpt lat="45.24121" lon="6.03312">
        <ele>2427.6000976562</ele>
        <time>2021-01-02T13:21:37.000Z</time>
      </trkpt>
      <trkpt lat="45.2412" lon="6.03313">
        <ele>2427.8000488281</ele>
        <time>2021-01-02T13:21:38.000Z</time>
      </trkpt>
      <trkpt lat="45.24118" lon="6.03314">
        <ele>2427.8000488281</ele>
        <time>2021-01-02T13:21:42.000Z</time>
      </trkpt>
      <trkpt lat="45.24116" lon="6.03316">
        <ele>2427.8000488281</ele>
        <time>2021-01-02T13:21:44.000Z</time>
      </trkpt>
      <trkpt lat="45.24112" lon="6.0332">
        <ele>2427.8000488281</ele>
        <time>2021-01-02T13:21:46.000Z</time>
      </trkpt>
      <trkpt lat="45.24099" lon="6.03335">
        <ele>2427.8000488281</ele>
        <time>2021-01-02T13:21:50.000Z</time>
      </trkpt>
      <trkpt lat="45.2409" lon="6.03347">
        <ele>2426</ele>
        <time>2021-01-02T13:21:54.000Z</time>
      </trkpt>
      <trkpt lat="45.2409" lon="6.03349">
        <ele>2425.6000976562</ele>
        <time>2021-01-02T13:21:55.000Z</time>
      </trkpt>
      <trkpt lat="45.2409" lon="6.0335">
        <ele>2424.1999511719</ele>
        <time>2021-01-02T13:21:57.000Z</time>
      </trkpt>
      <trkpt lat="45.24089" lon="6.0335">
        <ele>2423</ele>
        <time>2021-01-02T13:22:00.000Z</time>
      </trkpt>
      <trkpt lat="45.24089" lon="6.03353">
        <ele>2422.6000976562</ele>
        <time>2021-01-02T13:22:05.000Z</time>
      </trkpt>
      <trkpt lat="45.24089" lon="6.03356">
        <ele>2422.6000976562</ele>
        <time>2021-01-02T13:22:08.000Z</time>
      </trkpt>
      <trkpt lat="45.24089" lon="6.03358">
        <ele>2422.6000976562</ele>
        <time>2021-01-02T13:22:10.000Z</time>
      </trkpt>
      <trkpt lat="45.24089" lon="6.03371">
        <ele>2422.6000976562</ele>
        <time>2021-01-02T13:22:16.000Z</time>
      </trkpt>
      <trkpt lat="45.24088" lon="6.03382">
        <ele>2421.8000488281</ele>
        <time>2021-01-02T13:22:21.000Z</time>
      </trkpt>
      <trkpt lat="45.24087" lon="6.03389">
        <ele>2420.8000488281</ele>
        <time>2021-01-02T13:22:25.000Z</time>
      </trkpt>
      <trkpt lat="45.24087" lon="6.03391">
        <ele>2420</ele>
        <time>2021-01-02T13:22:28.000Z</time>
      </trkpt>
      <trkpt lat="45.24087" lon="6.03392">
        <ele>2419.6000976562</ele>
        <time>2021-01-02T13:22:30.000Z</time>
      </trkpt>
      <trkpt lat="45.24087" lon="6.03394">
        <ele>2419</ele>
        <time>2021-01-02T13:22:37.000Z</time>
      </trkpt>
      <trkpt lat="45.24084" lon="6.03409">
        <ele>2418.8000488281</ele>
        <time>2021-01-02T13:22:43.000Z</time>
      </trkpt>
      <trkpt lat="45.24083" lon="6.03415">
        <ele>2418.1999511719</ele>
        <time>2021-01-02T13:22:45.000Z</time>
      </trkpt>
      <trkpt lat="45.2408" lon="6.03425">
        <ele>2417</ele>
        <time>2021-01-02T13:22:49.000Z</time>
      </trkpt>
      <trkpt lat="45.2408" lon="6.03427">
        <ele>2416.8000488281</ele>
        <time>2021-01-02T13:22:50.000Z</time>
      </trkpt>
      <trkpt lat="45.2408" lon="6.03428">
        <ele>2416</ele>
        <time>2021-01-02T13:22:53.000Z</time>
      </trkpt>
      <trkpt lat="45.2408" lon="6.03428">
        <ele>2415.6000976562</ele>
        <time>2021-01-02T13:22:55.000Z</time>
      </trkpt>
      <trkpt lat="45.2408" lon="6.03428">
        <ele>2415</ele>
        <time>2021-01-02T13:23:12.000Z</time>
      </trkpt>
      <trkpt lat="45.24078" lon="6.03432">
        <ele>2415</ele>
        <time>2021-01-02T13:23:20.000Z</time>
      </trkpt>
      <trkpt lat="45.24078" lon="6.03432">
        <ele>2415</ele>
        <time>2021-01-02T13:23:22.000Z</time>
      </trkpt>
      <trkpt lat="45.24078" lon="6.03432">
        <ele>2414.6000976562</ele>
        <time>2021-01-02T13:23:28.000Z</time>
      </trkpt>
      <trkpt lat="45.24078" lon="6.03432">
        <ele>2414.6000976562</ele>
        <time>2021-01-02T13:23:29.000Z</time>
      </trkpt>
      <trkpt lat="45.24075" lon="6.03425">
        <ele>2414.6000976562</ele>
        <time>2021-01-02T13:23:31.000Z</time>
      </trkpt>
      <trkpt lat="45.2407" lon="6.03409">
        <ele>2414</ele>
        <time>2021-01-02T13:23:34.000Z</time>
      </trkpt>
      <trkpt lat="45.2407" lon="6.03404">
        <ele>2413.3999023438</ele>
        <time>2021-01-02T13:23:35.000Z</time>
      </trkpt>
      <trkpt lat="45.24069" lon="6.03401">
        <ele>2411.8000488281</ele>
        <time>2021-01-02T13:23:37.000Z</time>
      </trkpt>
      <trkpt lat="45.24069" lon="6.034">
        <ele>2410.8000488281</ele>
        <time>2021-01-02T13:23:38.000Z</time>
      </trkpt>
      <trkpt lat="45.24067" lon="6.03398">
        <ele>2410</ele>
        <time>2021-01-02T13:23:39.000Z</time>
      </trkpt>
      <trkpt lat="45.24064" lon="6.034">
        <ele>2408.6000976562</ele>
        <time>2021-01-02T13:23:41.000Z</time>
      </trkpt>
      <trkpt lat="45.24062" lon="6.03402">
        <ele>2407.3999023438</ele>
        <time>2021-01-02T13:23:43.000Z</time>
      </trkpt>
      <trkpt lat="45.24059" lon="6.03399">
        <ele>2406.8000488281</ele>
        <time>2021-01-02T13:23:44.000Z</time>
      </trkpt>
      <trkpt lat="45.24059" lon="6.03396">
        <ele>2405.8000488281</ele>
        <time>2021-01-02T13:23:45.000Z</time>
      </trkpt>
      <trkpt lat="45.24056" lon="6.03393">
        <ele>2404</ele>
        <time>2021-01-02T13:23:47.000Z</time>
      </trkpt>
      <trkpt lat="45.24052" lon="6.03394">
        <ele>2402.1999511719</ele>
        <time>2021-01-02T13:23:49.000Z</time>
      </trkpt>
      <trkpt lat="45.24048" lon="6.03391">
        <ele>2400.3999023438</ele>
        <time>2021-01-02T13:23:51.000Z</time>
      </trkpt>
      <trkpt lat="45.24045" lon="6.03392">
        <ele>2399.3999023438</ele>
        <time>2021-01-02T13:23:52.000Z</time>
      </trkpt>
      <trkpt lat="45.24043" lon="6.03392">
        <ele>2398.3999023438</ele>
        <time>2021-01-02T13:23:53.000Z</time>
      </trkpt>
      <trkpt lat="45.24042" lon="6.03389">
        <ele>2397.1999511719</ele>
        <time>2021-01-02T13:23:54.000Z</time>
      </trkpt>
      <trkpt lat="45.2404" lon="6.0339">
        <ele>2396</ele>
        <time>2021-01-02T13:23:55.000Z</time>
      </trkpt>
      <trkpt lat="45.24038" lon="6.03395">
        <ele>2394.6000976562</ele>
        <time>2021-01-02T13:23:56.000Z</time>
      </trkpt>
      <trkpt lat="45.24037" lon="6.03398">
        <ele>2393</ele>
        <time>2021-01-02T13:23:57.000Z</time>
      </trkpt>
      <trkpt lat="45.24037" lon="6.03401">
        <ele>2390</ele>
        <time>2021-01-02T13:23:58.000Z</time>
      </trkpt>
      <trkpt lat="45.24036" lon="6.03402">
        <ele>2388.6000976562</ele>
        <time>2021-01-02T13:23:59.000Z</time>
      </trkpt>
      <trkpt lat="45.24036" lon="6.03402">
        <ele>2387.3999023438</ele>
        <time>2021-01-02T13:24:00.000Z</time>
      </trkpt>
      <trkpt lat="45.24036" lon="6.03402">
        <ele>2386.1999511719</ele>
        <time>2021-01-02T13:24:01.000Z</time>
      </trkpt>
      <trkpt lat="45.24036" lon="6.03402">
        <ele>2385.1999511719</ele>
        <time>2021-01-02T13:24:02.000Z</time>
      </trkpt>
      <trkpt lat="45.24036" lon="6.03402">
        <ele>2383.8000488281</ele>
        <time>2021-01-02T13:24:04.000Z</time>
      </trkpt>
      <trkpt lat="45.24034" lon="6.03404">
        <ele>2382.8000488281</ele>
        <time>2021-01-02T13:24:11.000Z</time>
      </trkpt>
      <trkpt lat="45.24033" lon="6.03403">
        <ele>2382.8000488281</ele>
        <time>2021-01-02T13:24:13.000Z</time>
      </trkpt>
      <trkpt lat="45.24033" lon="6.03403">
        <ele>2382.6000976562</ele>
        <time>2021-01-02T13:24:14.000Z</time>
      </trkpt>
      <trkpt lat="45.24031" lon="6.03403">
        <ele>2381.8000488281</ele>
        <time>2021-01-02T13:24:17.000Z</time>
      </trkpt>
      <trkpt lat="45.24031" lon="6.03407">
        <ele>2381.3999023438</ele>
        <time>2021-01-02T13:24:18.000Z</time>
      </trkpt>
      <trkpt lat="45.2403" lon="6.03418">
        <ele>2380.6000976562</ele>
        <time>2021-01-02T13:24:21.000Z</time>
      </trkpt>
      <trkpt lat="45.24029" lon="6.03421">
        <ele>2379.6000976562</ele>
        <time>2021-01-02T13:24:22.000Z</time>
      </trkpt>
      <trkpt lat="45.24029" lon="6.03423">
        <ele>2378.8000488281</ele>
        <time>2021-01-02T13:24:23.000Z</time>
      </trkpt>
      <trkpt lat="45.24029" lon="6.03423">
        <ele>2377.1999511719</ele>
        <time>2021-01-02T13:24:25.000Z</time>
      </trkpt>
      <trkpt lat="45.24029" lon="6.03423">
        <ele>2376</ele>
        <time>2021-01-02T13:24:27.000Z</time>
      </trkpt>
      <trkpt lat="45.24029" lon="6.03423">
        <ele>2375.6000976562</ele>
        <time>2021-01-02T13:24:28.000Z</time>
      </trkpt>
      <trkpt lat="45.24029" lon="6.03423">
        <ele>2374.8000488281</ele>
        <time>2021-01-02T13:24:31.000Z</time>
      </trkpt>
      <trkpt lat="45.24028" lon="6.03423">
        <ele>2374.6000976562</ele>
        <time>2021-01-02T13:24:38.000Z</time>
      </trkpt>
      <trkpt lat="45.24028" lon="6.03421">
        <ele>2374.3999023438</ele>
        <time>2021-01-02T13:24:39.000Z</time>
      </trkpt>
      <trkpt lat="45.24025" lon="6.03421">
        <ele>2374.1999511719</ele>
        <time>2021-01-02T13:24:42.000Z</time>
      </trkpt>
      <trkpt lat="45.24022" lon="6.03424">
        <ele>2373.3999023438</ele>
        <time>2021-01-02T13:24:44.000Z</time>
      </trkpt>
      <trkpt lat="45.24021" lon="6.03423">
        <ele>2372.8000488281</ele>
        <time>2021-01-02T13:24:45.000Z</time>
      </trkpt>
      <trkpt lat="45.24021" lon="6.03422">
        <ele>2371.3999023438</ele>
        <time>2021-01-02T13:24:46.000Z</time>
      </trkpt>
      <trkpt lat="45.24021" lon="6.03421">
        <ele>2370.3999023438</ele>
        <time>2021-01-02T13:24:47.000Z</time>
      </trkpt>
      <trkpt lat="45.24018" lon="6.03422">
        <ele>2369.1999511719</ele>
        <time>2021-01-02T13:24:48.000Z</time>
      </trkpt>
      <trkpt lat="45.24017" lon="6.03425">
        <ele>2368.1999511719</ele>
        <time>2021-01-02T13:24:49.000Z</time>
      </trkpt>
      <trkpt lat="45.24015" lon="6.03427">
        <ele>2366.3999023438</ele>
        <time>2021-01-02T13:24:51.000Z</time>
      </trkpt>
      <trkpt lat="45.24014" lon="6.03424">
        <ele>2365.6000976562</ele>
        <time>2021-01-02T13:24:52.000Z</time>
      </trkpt>
      <trkpt lat="45.24013" lon="6.03422">
        <ele>2364.6000976562</ele>
        <time>2021-01-02T13:24:53.000Z</time>
      </trkpt>
      <trkpt lat="45.24013" lon="6.03423">
        <ele>2363.6000976562</ele>
        <time>2021-01-02T13:24:54.000Z</time>
      </trkpt>
      <trkpt lat="45.24013" lon="6.03423">
        <ele>2362.6000976562</ele>
        <time>2021-01-02T13:24:55.000Z</time>
      </trkpt>
      <trkpt lat="45.24013" lon="6.03423">
        <ele>2361.8000488281</ele>
        <time>2021-01-02T13:24:56.000Z</time>
      </trkpt>
      <trkpt lat="45.24013" lon="6.03423">
        <ele>2360.1999511719</ele>
        <time>2021-01-02T13:24:58.000Z</time>
      </trkpt>
      <trkpt lat="45.24011" lon="6.03423">
        <ele>2359.3999023438</ele>
        <time>2021-01-02T13:25:00.000Z</time>
      </trkpt>
      <trkpt lat="45.24011" lon="6.03423">
        <ele>2359</ele>
        <time>2021-01-02T13:25:01.000Z</time>
      </trkpt>
      <trkpt lat="45.24008" lon="6.03422">
        <ele>2358.6000976562</ele>
        <time>2021-01-02T13:25:03.000Z</time>
      </trkpt>
      <trkpt lat="45.24008" lon="6.03422">
        <ele>2358</ele>
        <time>2021-01-02T13:25:05.000Z</time>
      </trkpt>
      <trkpt lat="45.24008" lon="6.03422">
        <ele>2357.1999511719</ele>
        <time>2021-01-02T13:25:06.000Z</time>
      </trkpt>
      <trkpt lat="45.24008" lon="6.03421">
        <ele>2356.3999023438</ele>
        <time>2021-01-02T13:25:07.000Z</time>
      </trkpt>
      <trkpt lat="45.24007" lon="6.03422">
        <ele>2355.6000976562</ele>
        <time>2021-01-02T13:25:08.000Z</time>
      </trkpt>
      <trkpt lat="45.24005" lon="6.03424">
        <ele>2354.8000488281</ele>
        <time>2021-01-02T13:25:09.000Z</time>
      </trkpt>
      <trkpt lat="45.24004" lon="6.03424">
        <ele>2353.8000488281</ele>
        <time>2021-01-02T13:25:10.000Z</time>
      </trkpt>
      <trkpt lat="45.24003" lon="6.03425">
        <ele>2353.3999023438</ele>
        <time>2021-01-02T13:25:11.000Z</time>
      </trkpt>
      <trkpt lat="45.23999" lon="6.03419">
        <ele>2352.1999511719</ele>
        <time>2021-01-02T13:25:13.000Z</time>
      </trkpt>
      <trkpt lat="45.23993" lon="6.03418">
        <ele>2350.6000976562</ele>
        <time>2021-01-02T13:25:15.000Z</time>
      </trkpt>
      <trkpt lat="45.23991" lon="6.0342">
        <ele>2349.8000488281</ele>
        <time>2021-01-02T13:25:16.000Z</time>
      </trkpt>
      <trkpt lat="45.23989" lon="6.03421">
        <ele>2348.8000488281</ele>
        <time>2021-01-02T13:25:17.000Z</time>
      </trkpt>
      <trkpt lat="45.23986" lon="6.03418">
        <ele>2347.6000976562</ele>
        <time>2021-01-02T13:25:18.000Z</time>
      </trkpt>
      <trkpt lat="45.23986" lon="6.03417">
        <ele>2346.3999023438</ele>
        <time>2021-01-02T13:25:19.000Z</time>
      </trkpt>
      <trkpt lat="45.23986" lon="6.03415">
        <ele>2345.1999511719</ele>
        <time>2021-01-02T13:25:20.000Z</time>
      </trkpt>
      <trkpt lat="45.23987" lon="6.03414">
        <ele>2344.1999511719</ele>
        <time>2021-01-02T13:25:21.000Z</time>
      </trkpt>
      <trkpt lat="45.23987" lon="6.03414">
        <ele>2343</ele>
        <time>2021-01-02T13:25:22.000Z</time>
      </trkpt>
      <trkpt lat="45.23986" lon="6.03414">
        <ele>2342</ele>
        <time>2021-01-02T13:25:23.000Z</time>
      </trkpt>
      <trkpt lat="45.23986" lon="6.03414">
        <ele>2341</ele>
        <time>2021-01-02T13:25:24.000Z</time>
      </trkpt>
      <trkpt lat="45.23986" lon="6.03414">
        <ele>2340.1999511719</ele>
        <time>2021-01-02T13:25:25.000Z</time>
      </trkpt>
      <trkpt lat="45.23986" lon="6.03411">
        <ele>2339.3999023438</ele>
        <time>2021-01-02T13:25:27.000Z</time>
      </trkpt>
      <trkpt lat="45.23985" lon="6.03409">
        <ele>2339.1999511719</ele>
        <time>2021-01-02T13:25:28.000Z</time>
      </trkpt>
      <trkpt lat="45.23978" lon="6.03411">
        <ele>2338.8000488281</ele>
        <time>2021-01-02T13:25:31.000Z</time>
      </trkpt>
      <trkpt lat="45.23976" lon="6.03401">
        <ele>2338</ele>
        <time>2021-01-02T13:25:33.000Z</time>
      </trkpt>
      <trkpt lat="45.23975" lon="6.03396">
        <ele>2336.1999511719</ele>
        <time>2021-01-02T13:25:34.000Z</time>
      </trkpt>
      <trkpt lat="45.23972" lon="6.03394">
        <ele>2335</ele>
        <time>2021-01-02T13:25:35.000Z</time>
      </trkpt>
      <trkpt lat="45.23968" lon="6.03396">
        <ele>2333.8000488281</ele>
        <time>2021-01-02T13:25:36.000Z</time>
      </trkpt>
      <trkpt lat="45.23966" lon="6.03394">
        <ele>2332.3999023438</ele>
        <time>2021-01-02T13:25:37.000Z</time>
      </trkpt>
      <trkpt lat="45.23964" lon="6.03389">
        <ele>2331.1999511719</ele>
        <time>2021-01-02T13:25:38.000Z</time>
      </trkpt>
      <trkpt lat="45.23963" lon="6.03385">
        <ele>2329.8000488281</ele>
        <time>2021-01-02T13:25:39.000Z</time>
      </trkpt>
      <trkpt lat="45.23962" lon="6.0338">
        <ele>2328.3999023438</ele>
        <time>2021-01-02T13:25:40.000Z</time>
      </trkpt>
      <trkpt lat="45.23958" lon="6.03377">
        <ele>2326.6000976562</ele>
        <time>2021-01-02T13:25:41.000Z</time>
      </trkpt>
      <trkpt lat="45.23956" lon="6.03373">
        <ele>2325</ele>
        <time>2021-01-02T13:25:42.000Z</time>
      </trkpt>
      <trkpt lat="45.23953" lon="6.03367">
        <ele>2323.1999511719</ele>
        <time>2021-01-02T13:25:43.000Z</time>
      </trkpt>
      <trkpt lat="45.23953" lon="6.03363">
        <ele>2321.1999511719</ele>
        <time>2021-01-02T13:25:44.000Z</time>
      </trkpt>
      <trkpt lat="45.23954" lon="6.0336">
        <ele>2318.8000488281</ele>
        <time>2021-01-02T13:25:45.000Z</time>
      </trkpt>
      <trkpt lat="45.23952" lon="6.03358">
        <ele>2316.6000976562</ele>
        <time>2021-01-02T13:25:46.000Z</time>
      </trkpt>
      <trkpt lat="45.23945" lon="6.03364">
        <ele>2314.6000976562</ele>
        <time>2021-01-02T13:25:47.000Z</time>
      </trkpt>
      <trkpt lat="45.23942" lon="6.03363">
        <ele>2312.3999023438</ele>
        <time>2021-01-02T13:25:48.000Z</time>
      </trkpt>
      <trkpt lat="45.2394" lon="6.03363">
        <ele>2310.3999023438</ele>
        <time>2021-01-02T13:25:49.000Z</time>
      </trkpt>
      <trkpt lat="45.23939" lon="6.03362">
        <ele>2308.3999023438</ele>
        <time>2021-01-02T13:25:50.000Z</time>
      </trkpt>
      <trkpt lat="45.23938" lon="6.03362">
        <ele>2306.3999023438</ele>
        <time>2021-01-02T13:25:51.000Z</time>
      </trkpt>
      <trkpt lat="45.23937" lon="6.03363">
        <ele>2304.6000976562</ele>
        <time>2021-01-02T13:25:52.000Z</time>
      </trkpt>
      <trkpt lat="45.23938" lon="6.03363">
        <ele>2303</ele>
        <time>2021-01-02T13:25:53.000Z</time>
      </trkpt>
      <trkpt lat="45.23938" lon="6.03363">
        <ele>2301.8000488281</ele>
        <time>2021-01-02T13:25:54.000Z</time>
      </trkpt>
      <trkpt lat="45.23938" lon="6.03363">
        <ele>2301</ele>
        <time>2021-01-02T13:25:55.000Z</time>
      </trkpt>
      <trkpt lat="45.23938" lon="6.03363">
        <ele>2300.1999511719</ele>
        <time>2021-01-02T13:25:56.000Z</time>
      </trkpt>
      <trkpt lat="45.23938" lon="6.03363">
        <ele>2299.1999511719</ele>
        <time>2021-01-02T13:25:58.000Z</time>
      </trkpt>
      <trkpt lat="45.23936" lon="6.03361">
        <ele>2298.8000488281</ele>
        <time>2021-01-02T13:26:09.000Z</time>
      </trkpt>
      <trkpt lat="45.23933" lon="6.03361">
        <ele>2298.6000976562</ele>
        <time>2021-01-02T13:26:12.000Z</time>
      </trkpt>
      <trkpt lat="45.2393" lon="6.03362">
        <ele>2298.6000976562</ele>
        <time>2021-01-02T13:26:13.000Z</time>
      </trkpt>
      <trkpt lat="45.23927" lon="6.03359">
        <ele>2298.1999511719</ele>
        <time>2021-01-02T13:26:14.000Z</time>
      </trkpt>
      <trkpt lat="45.23925" lon="6.03355">
        <ele>2297.8000488281</ele>
        <time>2021-01-02T13:26:15.000Z</time>
      </trkpt>
      <trkpt lat="45.23924" lon="6.03351">
        <ele>2297</ele>
        <time>2021-01-02T13:26:16.000Z</time>
      </trkpt>
      <trkpt lat="45.23921" lon="6.03347">
        <ele>2296</ele>
        <time>2021-01-02T13:26:17.000Z</time>
      </trkpt>
      <trkpt lat="45.23919" lon="6.03345">
        <ele>2294.6000976562</ele>
        <time>2021-01-02T13:26:18.000Z</time>
      </trkpt>
      <trkpt lat="45.23917" lon="6.03342">
        <ele>2293.1999511719</ele>
        <time>2021-01-02T13:26:19.000Z</time>
      </trkpt>
      <trkpt lat="45.23914" lon="6.0334">
        <ele>2291.8000488281</ele>
        <time>2021-01-02T13:26:20.000Z</time>
      </trkpt>
      <trkpt lat="45.23912" lon="6.03336">
        <ele>2290.3999023438</ele>
        <time>2021-01-02T13:26:21.000Z</time>
      </trkpt>
      <trkpt lat="45.2391" lon="6.03331">
        <ele>2287.6000976562</ele>
        <time>2021-01-02T13:26:22.000Z</time>
      </trkpt>
      <trkpt lat="45.23909" lon="6.03327">
        <ele>2285.8000488281</ele>
        <time>2021-01-02T13:26:23.000Z</time>
      </trkpt>
      <trkpt lat="45.23904" lon="6.03327">
        <ele>2284</ele>
        <time>2021-01-02T13:26:24.000Z</time>
      </trkpt>
      <trkpt lat="45.23901" lon="6.03322">
        <ele>2282.1999511719</ele>
        <time>2021-01-02T13:26:25.000Z</time>
      </trkpt>
      <trkpt lat="45.23898" lon="6.03317">
        <ele>2280.3999023438</ele>
        <time>2021-01-02T13:26:26.000Z</time>
      </trkpt>
      <trkpt lat="45.23895" lon="6.03309">
        <ele>2278.6000976562</ele>
        <time>2021-01-02T13:26:27.000Z</time>
      </trkpt>
      <trkpt lat="45.23891" lon="6.03304">
        <ele>2276.6000976562</ele>
        <time>2021-01-02T13:26:28.000Z</time>
      </trkpt>
      <trkpt lat="45.23889" lon="6.03297">
        <ele>2274.6000976562</ele>
        <time>2021-01-02T13:26:29.000Z</time>
      </trkpt>
      <trkpt lat="45.23887" lon="6.0329">
        <ele>2272.8000488281</ele>
        <time>2021-01-02T13:26:30.000Z</time>
      </trkpt>
      <trkpt lat="45.23885" lon="6.03285">
        <ele>2270.8000488281</ele>
        <time>2021-01-02T13:26:31.000Z</time>
      </trkpt>
      <trkpt lat="45.23883" lon="6.0328">
        <ele>2268.8000488281</ele>
        <time>2021-01-02T13:26:32.000Z</time>
      </trkpt>
      <trkpt lat="45.23881" lon="6.03276">
        <ele>2267</ele>
        <time>2021-01-02T13:26:33.000Z</time>
      </trkpt>
      <trkpt lat="45.23878" lon="6.03272">
        <ele>2265</ele>
        <time>2021-01-02T13:26:34.000Z</time>
      </trkpt>
      <trkpt lat="45.23874" lon="6.03268">
        <ele>2263.3999023438</ele>
        <time>2021-01-02T13:26:35.000Z</time>
      </trkpt>
      <trkpt lat="45.2387" lon="6.03263">
        <ele>2261.8000488281</ele>
        <time>2021-01-02T13:26:36.000Z</time>
      </trkpt>
      <trkpt lat="45.23866" lon="6.03258">
        <ele>2260.6000976562</ele>
        <time>2021-01-02T13:26:37.000Z</time>
      </trkpt>
      <trkpt lat="45.23861" lon="6.03253">
        <ele>2259.3999023438</ele>
        <time>2021-01-02T13:26:38.000Z</time>
      </trkpt>
      <trkpt lat="45.23857" lon="6.03249">
        <ele>2258.1999511719</ele>
        <time>2021-01-02T13:26:39.000Z</time>
      </trkpt>
      <trkpt lat="45.23854" lon="6.03244">
        <ele>2256.8000488281</ele>
        <time>2021-01-02T13:26:40.000Z</time>
      </trkpt>
      <trkpt lat="45.23852" lon="6.0324">
        <ele>2255.1999511719</ele>
        <time>2021-01-02T13:26:41.000Z</time>
      </trkpt>
      <trkpt lat="45.23848" lon="6.03237">
        <ele>2253.6000976562</ele>
        <time>2021-01-02T13:26:42.000Z</time>
      </trkpt>
      <trkpt lat="45.23845" lon="6.03234">
        <ele>2252</ele>
        <time>2021-01-02T13:26:43.000Z</time>
      </trkpt>
      <trkpt lat="45.23842" lon="6.03231">
        <ele>2250.3999023438</ele>
        <time>2021-01-02T13:26:44.000Z</time>
      </trkpt>
      <trkpt lat="45.23839" lon="6.03229">
        <ele>2249</ele>
        <time>2021-01-02T13:26:45.000Z</time>
      </trkpt>
      <trkpt lat="45.23836" lon="6.03226">
        <ele>2247.8000488281</ele>
        <time>2021-01-02T13:26:46.000Z</time>
      </trkpt>
      <trkpt lat="45.23833" lon="6.03224">
        <ele>2245.6000976562</ele>
        <time>2021-01-02T13:26:47.000Z</time>
      </trkpt>
      <trkpt lat="45.23827" lon="6.03219">
        <ele>2243.8000488281</ele>
        <time>2021-01-02T13:26:49.000Z</time>
      </trkpt>
      <trkpt lat="45.23822" lon="6.03213">
        <ele>2242</ele>
        <time>2021-01-02T13:26:51.000Z</time>
      </trkpt>
      <trkpt lat="45.23819" lon="6.03208">
        <ele>2240.3999023438</ele>
        <time>2021-01-02T13:26:53.000Z</time>
      </trkpt>
      <trkpt lat="45.23816" lon="6.03204">
        <ele>2238.8000488281</ele>
        <time>2021-01-02T13:26:55.000Z</time>
      </trkpt>
      <trkpt lat="45.23814" lon="6.03201">
        <ele>2237.1999511719</ele>
        <time>2021-01-02T13:26:57.000Z</time>
      </trkpt>
      <trkpt lat="45.23814" lon="6.03201">
        <ele>2236.1999511719</ele>
        <time>2021-01-02T13:26:59.000Z</time>
      </trkpt>
      <trkpt lat="45.23814" lon="6.03201">
        <ele>2235.8000488281</ele>
        <time>2021-01-02T13:27:00.000Z</time>
      </trkpt>
      <trkpt lat="45.23814" lon="6.03201">
        <ele>2235</ele>
        <time>2021-01-02T13:27:02.000Z</time>
      </trkpt>
      <trkpt lat="45.23812" lon="6.03198">
        <ele>2234.6000976562</ele>
        <time>2021-01-02T13:27:06.000Z</time>
      </trkpt>
      <trkpt lat="45.23809" lon="6.03196">
        <ele>2234.6000976562</ele>
        <time>2021-01-02T13:27:07.000Z</time>
      </trkpt>
      <trkpt lat="45.238" lon="6.03189">
        <ele>2234.3999023438</ele>
        <time>2021-01-02T13:27:10.000Z</time>
      </trkpt>
      <trkpt lat="45.23797" lon="6.03187">
        <ele>2233.6000976562</ele>
        <time>2021-01-02T13:27:11.000Z</time>
      </trkpt>
      <trkpt lat="45.23794" lon="6.03186">
        <ele>2233</ele>
        <time>2021-01-02T13:27:12.000Z</time>
      </trkpt>
      <trkpt lat="45.23791" lon="6.03182">
        <ele>2232</ele>
        <time>2021-01-02T13:27:13.000Z</time>
      </trkpt>
      <trkpt lat="45.2379" lon="6.03176">
        <ele>2231.1999511719</ele>
        <time>2021-01-02T13:27:14.000Z</time>
      </trkpt>
      <trkpt lat="45.23789" lon="6.0317">
        <ele>2230.1999511719</ele>
        <time>2021-01-02T13:27:15.000Z</time>
      </trkpt>
      <trkpt lat="45.23785" lon="6.03166">
        <ele>2229</ele>
        <time>2021-01-02T13:27:16.000Z</time>
      </trkpt>
      <trkpt lat="45.23782" lon="6.03162">
        <ele>2227.8000488281</ele>
        <time>2021-01-02T13:27:17.000Z</time>
      </trkpt>
      <trkpt lat="45.23779" lon="6.03157">
        <ele>2226.6000976562</ele>
        <time>2021-01-02T13:27:18.000Z</time>
      </trkpt>
      <trkpt lat="45.23777" lon="6.03151">
        <ele>2225.3999023438</ele>
        <time>2021-01-02T13:27:19.000Z</time>
      </trkpt>
      <trkpt lat="45.23777" lon="6.03145">
        <ele>2224.3999023438</ele>
        <time>2021-01-02T13:27:20.000Z</time>
      </trkpt>
      <trkpt lat="45.23776" lon="6.0314">
        <ele>2223</ele>
        <time>2021-01-02T13:27:21.000Z</time>
      </trkpt>
      <trkpt lat="45.23775" lon="6.03136">
        <ele>2221.6000976562</ele>
        <time>2021-01-02T13:27:22.000Z</time>
      </trkpt>
      <trkpt lat="45.23775" lon="6.03134">
        <ele>2220.1999511719</ele>
        <time>2021-01-02T13:27:23.000Z</time>
      </trkpt>
      <trkpt lat="45.23775" lon="6.03134">
        <ele>2218.8000488281</ele>
        <time>2021-01-02T13:27:24.000Z</time>
      </trkpt>
      <trkpt lat="45.23775" lon="6.03134">
        <ele>2217.3999023438</ele>
        <time>2021-01-02T13:27:25.000Z</time>
      </trkpt>
      <trkpt lat="45.23775" lon="6.03134">
        <ele>2216.1999511719</ele>
        <time>2021-01-02T13:27:26.000Z</time>
      </trkpt>
      <trkpt lat="45.23775" lon="6.03134">
        <ele>2214.6000976562</ele>
        <time>2021-01-02T13:27:28.000Z</time>
      </trkpt>
      <trkpt lat="45.23774" lon="6.03133">
        <ele>2213.8000488281</ele>
        <time>2021-01-02T13:27:30.000Z</time>
      </trkpt>
      <trkpt lat="45.23773" lon="6.03131">
        <ele>2213.6000976562</ele>
        <time>2021-01-02T13:27:31.000Z</time>
      </trkpt>
      <trkpt lat="45.2377" lon="6.0313">
        <ele>2213.3999023438</ele>
        <time>2021-01-02T13:27:32.000Z</time>
      </trkpt>
      <trkpt lat="45.23767" lon="6.03134">
        <ele>2213.3999023438</ele>
        <time>2021-01-02T13:27:33.000Z</time>
      </trkpt>
      <trkpt lat="45.23762" lon="6.03123">
        <ele>2212.8000488281</ele>
        <time>2021-01-02T13:27:35.000Z</time>
      </trkpt>
      <trkpt lat="45.23762" lon="6.03117">
        <ele>2212</ele>
        <time>2021-01-02T13:27:36.000Z</time>
      </trkpt>
      <trkpt lat="45.2376" lon="6.03114">
        <ele>2211</ele>
        <time>2021-01-02T13:27:37.000Z</time>
      </trkpt>
      <trkpt lat="45.23758" lon="6.03112">
        <ele>2209.8000488281</ele>
        <time>2021-01-02T13:27:38.000Z</time>
      </trkpt>
      <trkpt lat="45.23756" lon="6.03106">
        <ele>2208.1999511719</ele>
        <time>2021-01-02T13:27:39.000Z</time>
      </trkpt>
      <trkpt lat="45.23757" lon="6.03099">
        <ele>2206.6000976562</ele>
        <time>2021-01-02T13:27:40.000Z</time>
      </trkpt>
      <trkpt lat="45.23758" lon="6.03093">
        <ele>2205.1999511719</ele>
        <time>2021-01-02T13:27:41.000Z</time>
      </trkpt>
      <trkpt lat="45.23759" lon="6.03089">
        <ele>2203.6000976562</ele>
        <time>2021-01-02T13:27:42.000Z</time>
      </trkpt>
      <trkpt lat="45.23761" lon="6.03087">
        <ele>2201.8000488281</ele>
        <time>2021-01-02T13:27:43.000Z</time>
      </trkpt>
      <trkpt lat="45.23759" lon="6.03088">
        <ele>2200.1999511719</ele>
        <time>2021-01-02T13:27:44.000Z</time>
      </trkpt>
      <trkpt lat="45.23758" lon="6.03089">
        <ele>2198.3999023438</ele>
        <time>2021-01-02T13:27:45.000Z</time>
      </trkpt>
      <trkpt lat="45.23757" lon="6.0309">
        <ele>2196.6000976562</ele>
        <time>2021-01-02T13:27:46.000Z</time>
      </trkpt>
      <trkpt lat="45.23755" lon="6.03091">
        <ele>2195.1999511719</ele>
        <time>2021-01-02T13:27:47.000Z</time>
      </trkpt>
      <trkpt lat="45.23753" lon="6.03092">
        <ele>2194</ele>
        <time>2021-01-02T13:27:48.000Z</time>
      </trkpt>
      <trkpt lat="45.23752" lon="6.03094">
        <ele>2193</ele>
        <time>2021-01-02T13:27:49.000Z</time>
      </trkpt>
      <trkpt lat="45.23752" lon="6.03094">
        <ele>2192</ele>
        <time>2021-01-02T13:27:50.000Z</time>
      </trkpt>
      <trkpt lat="45.23752" lon="6.03093">
        <ele>2191</ele>
        <time>2021-01-02T13:27:51.000Z</time>
      </trkpt>
      <trkpt lat="45.23752" lon="6.03093">
        <ele>2189.6000976562</ele>
        <time>2021-01-02T13:27:53.000Z</time>
      </trkpt>
      <trkpt lat="45.23752" lon="6.03093">
        <ele>2188.6000976562</ele>
        <time>2021-01-02T13:27:56.000Z</time>
      </trkpt>
      <trkpt lat="45.23752" lon="6.03093">
        <ele>2188.3999023438</ele>
        <time>2021-01-02T13:27:57.000Z</time>
      </trkpt>
      <trkpt lat="45.23751" lon="6.03093">
        <ele>2188.3999023438</ele>
        <time>2021-01-02T13:27:58.000Z</time>
      </trkpt>
      <trkpt lat="45.23748" lon="6.03085">
        <ele>2188.1999511719</ele>
        <time>2021-01-02T13:28:00.000Z</time>
      </trkpt>
      <trkpt lat="45.23743" lon="6.03075">
        <ele>2187.6000976562</ele>
        <time>2021-01-02T13:28:03.000Z</time>
      </trkpt>
      <trkpt lat="45.23741" lon="6.03063">
        <ele>2185.6000976562</ele>
        <time>2021-01-02T13:28:05.000Z</time>
      </trkpt>
      <trkpt lat="45.23738" lon="6.03059">
        <ele>2184.3999023438</ele>
        <time>2021-01-02T13:28:06.000Z</time>
      </trkpt>
      <trkpt lat="45.23736" lon="6.03055">
        <ele>2183</ele>
        <time>2021-01-02T13:28:07.000Z</time>
      </trkpt>
      <trkpt lat="45.23732" lon="6.03052">
        <ele>2181.3999023438</ele>
        <time>2021-01-02T13:28:08.000Z</time>
      </trkpt>
      <trkpt lat="45.23729" lon="6.0305">
        <ele>2179.8000488281</ele>
        <time>2021-01-02T13:28:09.000Z</time>
      </trkpt>
      <trkpt lat="45.23726" lon="6.03047">
        <ele>2178.1999511719</ele>
        <time>2021-01-02T13:28:10.000Z</time>
      </trkpt>
      <trkpt lat="45.23722" lon="6.03044">
        <ele>2176.8000488281</ele>
        <time>2021-01-02T13:28:11.000Z</time>
      </trkpt>
      <trkpt lat="45.23717" lon="6.03039">
        <ele>2175.3999023438</ele>
        <time>2021-01-02T13:28:12.000Z</time>
      </trkpt>
      <trkpt lat="45.23713" lon="6.03033">
        <ele>2174</ele>
        <time>2021-01-02T13:28:13.000Z</time>
      </trkpt>
      <trkpt lat="45.23709" lon="6.03029">
        <ele>2172.6000976562</ele>
        <time>2021-01-02T13:28:14.000Z</time>
      </trkpt>
      <trkpt lat="45.23705" lon="6.03025">
        <ele>2171.1999511719</ele>
        <time>2021-01-02T13:28:15.000Z</time>
      </trkpt>
      <trkpt lat="45.23701" lon="6.0302">
        <ele>2169.8000488281</ele>
        <time>2021-01-02T13:28:16.000Z</time>
      </trkpt>
      <trkpt lat="45.23696" lon="6.03018">
        <ele>2168.3999023438</ele>
        <time>2021-01-02T13:28:17.000Z</time>
      </trkpt>
      <trkpt lat="45.23692" lon="6.03015">
        <ele>2167.1999511719</ele>
        <time>2021-01-02T13:28:18.000Z</time>
      </trkpt>
      <trkpt lat="45.23688" lon="6.03014">
        <ele>2166</ele>
        <time>2021-01-02T13:28:19.000Z</time>
      </trkpt>
      <trkpt lat="45.23686" lon="6.03012">
        <ele>2164.8000488281</ele>
        <time>2021-01-02T13:28:20.000Z</time>
      </trkpt>
      <trkpt lat="45.23682" lon="6.03011">
        <ele>2163.6000976562</ele>
        <time>2021-01-02T13:28:21.000Z</time>
      </trkpt>
      <trkpt lat="45.23679" lon="6.03009">
        <ele>2162.3999023438</ele>
        <time>2021-01-02T13:28:22.000Z</time>
      </trkpt>
      <trkpt lat="45.23674" lon="6.03008">
        <ele>2160</ele>
        <time>2021-01-02T13:28:23.000Z</time>
      </trkpt>
      <trkpt lat="45.2367" lon="6.03005">
        <ele>2159</ele>
        <time>2021-01-02T13:28:24.000Z</time>
      </trkpt>
      <trkpt lat="45.23666" lon="6.03003">
        <ele>2158.3999023438</ele>
        <time>2021-01-02T13:28:25.000Z</time>
      </trkpt>
      <trkpt lat="45.23663" lon="6.03001">
        <ele>2157.6000976562</ele>
        <time>2021-01-02T13:28:26.000Z</time>
      </trkpt>
      <trkpt lat="45.2366" lon="6.02999">
        <ele>2157</ele>
        <time>2021-01-02T13:28:27.000Z</time>
      </trkpt>
      <trkpt lat="45.23653" lon="6.02996">
        <ele>2156</ele>
        <time>2021-01-02T13:28:29.000Z</time>
      </trkpt>
      <trkpt lat="45.23645" lon="6.02992">
        <ele>2154.8000488281</ele>
        <time>2021-01-02T13:28:32.000Z</time>
      </trkpt>
      <trkpt lat="45.23642" lon="6.0299">
        <ele>2154.6000976562</ele>
        <time>2021-01-02T13:28:33.000Z</time>
      </trkpt>
      <trkpt lat="45.2363" lon="6.02987">
        <ele>2153.6000976562</ele>
        <time>2021-01-02T13:28:39.000Z</time>
      </trkpt>
      <trkpt lat="45.23629" lon="6.02987">
        <ele>2153.3999023438</ele>
        <time>2021-01-02T13:28:40.000Z</time>
      </trkpt>
      <trkpt lat="45.23625" lon="6.02987">
        <ele>2152.3999023438</ele>
        <time>2021-01-02T13:28:43.000Z</time>
      </trkpt>
      <trkpt lat="45.23619" lon="6.02984">
        <ele>2151.1999511719</ele>
        <time>2021-01-02T13:28:47.000Z</time>
      </trkpt>
      <trkpt lat="45.23618" lon="6.02983">
        <ele>2151</ele>
        <time>2021-01-02T13:28:48.000Z</time>
      </trkpt>
      <trkpt lat="45.23613" lon="6.02979">
        <ele>2150.6000976562</ele>
        <time>2021-01-02T13:28:55.000Z</time>
      </trkpt>
      <trkpt lat="45.2361" lon="6.02976">
        <ele>2150.3999023438</ele>
        <time>2021-01-02T13:29:00.000Z</time>
      </trkpt>
      <trkpt lat="45.23608" lon="6.02975">
        <ele>2150.1999511719</ele>
        <time>2021-01-02T13:29:04.000Z</time>
      </trkpt>
      <trkpt lat="45.23607" lon="6.02974">
        <ele>2150.1999511719</ele>
        <time>2021-01-02T13:29:06.000Z</time>
      </trkpt>
      <trkpt lat="45.23603" lon="6.02972">
        <ele>2149.6000976562</ele>
        <time>2021-01-02T13:29:12.000Z</time>
      </trkpt>
      <trkpt lat="45.236" lon="6.02967">
        <ele>2149.3999023438</ele>
        <time>2021-01-02T13:29:19.000Z</time>
      </trkpt>
      <trkpt lat="45.23599" lon="6.02966">
        <ele>2149.1999511719</ele>
        <time>2021-01-02T13:29:21.000Z</time>
      </trkpt>
      <trkpt lat="45.23598" lon="6.02965">
        <ele>2149.1999511719</ele>
        <time>2021-01-02T13:29:23.000Z</time>
      </trkpt>
      <trkpt lat="45.23597" lon="6.02965">
        <ele>2149</ele>
        <time>2021-01-02T13:29:26.000Z</time>
      </trkpt>
      <trkpt lat="45.23597" lon="6.02963">
        <ele>2148.8000488281</ele>
        <time>2021-01-02T13:29:31.000Z</time>
      </trkpt>
      <trkpt lat="45.23596" lon="6.02961">
        <ele>2148.8000488281</ele>
        <time>2021-01-02T13:29:35.000Z</time>
      </trkpt>
      <trkpt lat="45.23596" lon="6.02961">
        <ele>2148.8000488281</ele>
        <time>2021-01-02T13:29:39.000Z</time>
      </trkpt>
      <trkpt lat="45.23595" lon="6.02961">
        <ele>2148.8000488281</ele>
        <time>2021-01-02T13:29:40.000Z</time>
      </trkpt>
      <trkpt lat="45.23595" lon="6.02961">
        <ele>2148.8000488281</ele>
        <time>2021-01-02T13:29:45.000Z</time>
      </trkpt>
      <trkpt lat="45.23594" lon="6.02958">
        <ele>2149</ele>
        <time>2021-01-02T13:29:50.000Z</time>
      </trkpt>
      <trkpt lat="45.23586" lon="6.0294">
        <ele>2149</ele>
        <time>2021-01-02T13:29:56.000Z</time>
      </trkpt>
      <trkpt lat="45.23583" lon="6.02914">
        <ele>2148</ele>
        <time>2021-01-02T13:30:01.000Z</time>
      </trkpt>
      <trkpt lat="45.23579" lon="6.02901">
        <ele>2146.8000488281</ele>
        <time>2021-01-02T13:30:04.000Z</time>
      </trkpt>
      <trkpt lat="45.23578" lon="6.02898">
        <ele>2145.6000976562</ele>
        <time>2021-01-02T13:30:06.000Z</time>
      </trkpt>
      <trkpt lat="45.23576" lon="6.02895">
        <ele>2144.6000976562</ele>
        <time>2021-01-02T13:30:08.000Z</time>
      </trkpt>
      <trkpt lat="45.23575" lon="6.02893">
        <ele>2144.3999023438</ele>
        <time>2021-01-02T13:30:09.000Z</time>
      </trkpt>
      <trkpt lat="45.23564" lon="6.02881">
        <ele>2143.6000976562</ele>
        <time>2021-01-02T13:30:16.000Z</time>
      </trkpt>
      <trkpt lat="45.23559" lon="6.02875">
        <ele>2143.6000976562</ele>
        <time>2021-01-02T13:30:18.000Z</time>
      </trkpt>
      <trkpt lat="45.23551" lon="6.02863">
        <ele>2143.1999511719</ele>
        <time>2021-01-02T13:30:21.000Z</time>
      </trkpt>
      <trkpt lat="45.23539" lon="6.02854">
        <ele>2142.1999511719</ele>
        <time>2021-01-02T13:30:24.000Z</time>
      </trkpt>
      <trkpt lat="45.23537" lon="6.02853">
        <ele>2141.8000488281</ele>
        <time>2021-01-02T13:30:25.000Z</time>
      </trkpt>
      <trkpt lat="45.23533" lon="6.0285">
        <ele>2141</ele>
        <time>2021-01-02T13:30:27.000Z</time>
      </trkpt>
      <trkpt lat="45.23525" lon="6.02845">
        <ele>2140.1999511719</ele>
        <time>2021-01-02T13:30:31.000Z</time>
      </trkpt>
      <trkpt lat="45.23516" lon="6.02837">
        <ele>2140</ele>
        <time>2021-01-02T13:30:35.000Z</time>
      </trkpt>
      <trkpt lat="45.23509" lon="6.02832">
        <ele>2139.6000976562</ele>
        <time>2021-01-02T13:30:37.000Z</time>
      </trkpt>
      <trkpt lat="45.23501" lon="6.02826">
        <ele>2138.8000488281</ele>
        <time>2021-01-02T13:30:40.000Z</time>
      </trkpt>
      <trkpt lat="45.23497" lon="6.02824">
        <ele>2138.1999511719</ele>
        <time>2021-01-02T13:30:42.000Z</time>
      </trkpt>
      <trkpt lat="45.23495" lon="6.02823">
        <ele>2137.8000488281</ele>
        <time>2021-01-02T13:30:43.000Z</time>
      </trkpt>
      <trkpt lat="45.23486" lon="6.02822">
        <ele>2136.8000488281</ele>
        <time>2021-01-02T13:30:47.000Z</time>
      </trkpt>
      <trkpt lat="45.23484" lon="6.02821">
        <ele>2136.8000488281</ele>
        <time>2021-01-02T13:30:48.000Z</time>
      </trkpt>
      <trkpt lat="45.23468" lon="6.0281">
        <ele>2136.3999023438</ele>
        <time>2021-01-02T13:30:53.000Z</time>
      </trkpt>
      <trkpt lat="45.23462" lon="6.02801">
        <ele>2135.8000488281</ele>
        <time>2021-01-02T13:30:55.000Z</time>
      </trkpt>
      <trkpt lat="45.23458" lon="6.02798">
        <ele>2135.3999023438</ele>
        <time>2021-01-02T13:30:56.000Z</time>
      </trkpt>
      <trkpt lat="45.2345" lon="6.02791">
        <ele>2134.6000976562</ele>
        <time>2021-01-02T13:30:58.000Z</time>
      </trkpt>
      <trkpt lat="45.23436" lon="6.02781">
        <ele>2133.1999511719</ele>
        <time>2021-01-02T13:31:01.000Z</time>
      </trkpt>
      <trkpt lat="45.2343" lon="6.02777">
        <ele>2132.1999511719</ele>
        <time>2021-01-02T13:31:03.000Z</time>
      </trkpt>
      <trkpt lat="45.23427" lon="6.02775">
        <ele>2130.8000488281</ele>
        <time>2021-01-02T13:31:05.000Z</time>
      </trkpt>
      <trkpt lat="45.23424" lon="6.02774">
        <ele>2129.8000488281</ele>
        <time>2021-01-02T13:31:07.000Z</time>
      </trkpt>
      <trkpt lat="45.23422" lon="6.02774">
        <ele>2128.8000488281</ele>
        <time>2021-01-02T13:31:10.000Z</time>
      </trkpt>
      <trkpt lat="45.23421" lon="6.02774">
        <ele>2128.3999023438</ele>
        <time>2021-01-02T13:31:11.000Z</time>
      </trkpt>
      <trkpt lat="45.23417" lon="6.02772">
        <ele>2128</ele>
        <time>2021-01-02T13:31:13.000Z</time>
      </trkpt>
      <trkpt lat="45.23416" lon="6.0277">
        <ele>2128</ele>
        <time>2021-01-02T13:31:14.000Z</time>
      </trkpt>
      <trkpt lat="45.2341" lon="6.02766">
        <ele>2127.3999023438</ele>
        <time>2021-01-02T13:31:18.000Z</time>
      </trkpt>
      <trkpt lat="45.23406" lon="6.02764">
        <ele>2127.1999511719</ele>
        <time>2021-01-02T13:31:21.000Z</time>
      </trkpt>
      <trkpt lat="45.23398" lon="6.02757">
        <ele>2127.1999511719</ele>
        <time>2021-01-02T13:31:29.000Z</time>
      </trkpt>
      <trkpt lat="45.23392" lon="6.02753">
        <ele>2126.8000488281</ele>
        <time>2021-01-02T13:31:37.000Z</time>
      </trkpt>
      <trkpt lat="45.23392" lon="6.02753">
        <ele>2126.6000976562</ele>
        <time>2021-01-02T13:31:40.000Z</time>
      </trkpt>
      <trkpt lat="45.23391" lon="6.02752">
        <ele>2126.6000976562</ele>
        <time>2021-01-02T13:31:41.000Z</time>
      </trkpt>
      <trkpt lat="45.23387" lon="6.02748">
        <ele>2126.6000976562</ele>
        <time>2021-01-02T13:31:44.000Z</time>
      </trkpt>
      <trkpt lat="45.23379" lon="6.02743">
        <ele>2126.6000976562</ele>
        <time>2021-01-02T13:31:47.000Z</time>
      </trkpt>
      <trkpt lat="45.23377" lon="6.02742">
        <ele>2126.1999511719</ele>
        <time>2021-01-02T13:31:49.000Z</time>
      </trkpt>
      <trkpt lat="45.23376" lon="6.02742">
        <ele>2125.8000488281</ele>
        <time>2021-01-02T13:31:51.000Z</time>
      </trkpt>
      <trkpt lat="45.23376" lon="6.02742">
        <ele>2125.3999023438</ele>
        <time>2021-01-02T13:31:52.000Z</time>
      </trkpt>
      <trkpt lat="45.23375" lon="6.02741">
        <ele>2125.1999511719</ele>
        <time>2021-01-02T13:31:53.000Z</time>
      </trkpt>
      <trkpt lat="45.2337" lon="6.02737">
        <ele>2124.6000976562</ele>
        <time>2021-01-02T13:31:56.000Z</time>
      </trkpt>
      <trkpt lat="45.23368" lon="6.02735">
        <ele>2124.3999023438</ele>
        <time>2021-01-02T13:32:01.000Z</time>
      </trkpt>
      <trkpt lat="45.23363" lon="6.02729">
        <ele>2124.3999023438</ele>
        <time>2021-01-02T13:32:07.000Z</time>
      </trkpt>
      <trkpt lat="45.23356" lon="6.02726">
        <ele>2124.1999511719</ele>
        <time>2021-01-02T13:32:12.000Z</time>
      </trkpt>
      <trkpt lat="45.23355" lon="6.02725">
        <ele>2124</ele>
        <time>2021-01-02T13:32:13.000Z</time>
      </trkpt>
      <trkpt lat="45.23354" lon="6.02725">
        <ele>2124</ele>
        <time>2021-01-02T13:32:14.000Z</time>
      </trkpt>
      <trkpt lat="45.23346" lon="6.02723">
        <ele>2123.6000976562</ele>
        <time>2021-01-02T13:32:18.000Z</time>
      </trkpt>
      <trkpt lat="45.23342" lon="6.02723">
        <ele>2123.3999023438</ele>
        <time>2021-01-02T13:32:19.000Z</time>
      </trkpt>
      <trkpt lat="45.23337" lon="6.02722">
        <ele>2123.3999023438</ele>
        <time>2021-01-02T13:32:20.000Z</time>
      </trkpt>
      <trkpt lat="45.23331" lon="6.02715">
        <ele>2123</ele>
        <time>2021-01-02T13:32:22.000Z</time>
      </trkpt>
      <trkpt lat="45.23321" lon="6.02712">
        <ele>2121.8000488281</ele>
        <time>2021-01-02T13:32:24.000Z</time>
      </trkpt>
      <trkpt lat="45.23316" lon="6.0271">
        <ele>2121</ele>
        <time>2021-01-02T13:32:25.000Z</time>
      </trkpt>
      <trkpt lat="45.23311" lon="6.02712">
        <ele>2120.1999511719</ele>
        <time>2021-01-02T13:32:26.000Z</time>
      </trkpt>
      <trkpt lat="45.23301" lon="6.02714">
        <ele>2118.3999023438</ele>
        <time>2021-01-02T13:32:28.000Z</time>
      </trkpt>
      <trkpt lat="45.23298" lon="6.02714">
        <ele>2117.1999511719</ele>
        <time>2021-01-02T13:32:29.000Z</time>
      </trkpt>
      <trkpt lat="45.23294" lon="6.02714">
        <ele>2116.1999511719</ele>
        <time>2021-01-02T13:32:30.000Z</time>
      </trkpt>
      <trkpt lat="45.23291" lon="6.02714">
        <ele>2115</ele>
        <time>2021-01-02T13:32:31.000Z</time>
      </trkpt>
      <trkpt lat="45.23288" lon="6.02716">
        <ele>2113.6000976562</ele>
        <time>2021-01-02T13:32:32.000Z</time>
      </trkpt>
      <trkpt lat="45.23285" lon="6.02717">
        <ele>2112.6000976562</ele>
        <time>2021-01-02T13:32:33.000Z</time>
      </trkpt>
      <trkpt lat="45.23282" lon="6.02719">
        <ele>2110.8000488281</ele>
        <time>2021-01-02T13:32:35.000Z</time>
      </trkpt>
      <trkpt lat="45.23282" lon="6.02718">
        <ele>2109.3999023438</ele>
        <time>2021-01-02T13:32:37.000Z</time>
      </trkpt>
      <trkpt lat="45.2328" lon="6.02718">
        <ele>2108.3999023438</ele>
        <time>2021-01-02T13:32:41.000Z</time>
      </trkpt>
      <trkpt lat="45.23279" lon="6.02719">
        <ele>2108</ele>
        <time>2021-01-02T13:32:44.000Z</time>
      </trkpt>
      <trkpt lat="45.23276" lon="6.02726">
        <ele>2107.1999511719</ele>
        <time>2021-01-02T13:32:50.000Z</time>
      </trkpt>
      <trkpt lat="45.23276" lon="6.02727">
        <ele>2107.1999511719</ele>
        <time>2021-01-02T13:32:51.000Z</time>
      </trkpt>
      <trkpt lat="45.23272" lon="6.02744">
        <ele>2106.3999023438</ele>
        <time>2021-01-02T13:32:56.000Z</time>
      </trkpt>
      <trkpt lat="45.23271" lon="6.02746">
        <ele>2106</ele>
        <time>2021-01-02T13:32:57.000Z</time>
      </trkpt>
      <trkpt lat="45.23267" lon="6.02758">
        <ele>2105</ele>
        <time>2021-01-02T13:33:00.000Z</time>
      </trkpt>
      <trkpt lat="45.23264" lon="6.02761">
        <ele>2104.3999023438</ele>
        <time>2021-01-02T13:33:01.000Z</time>
      </trkpt>
      <trkpt lat="45.23261" lon="6.02763">
        <ele>2103.8000488281</ele>
        <time>2021-01-02T13:33:02.000Z</time>
      </trkpt>
      <trkpt lat="45.23259" lon="6.02764">
        <ele>2103.3999023438</ele>
        <time>2021-01-02T13:33:03.000Z</time>
      </trkpt>
      <trkpt lat="45.23258" lon="6.02765">
        <ele>2102.6000976562</ele>
        <time>2021-01-02T13:33:04.000Z</time>
      </trkpt>
      <trkpt lat="45.23258" lon="6.02765">
        <ele>2101</ele>
        <time>2021-01-02T13:33:06.000Z</time>
      </trkpt>
      <trkpt lat="45.23258" lon="6.02765">
        <ele>2100.1999511719</ele>
        <time>2021-01-02T13:33:07.000Z</time>
      </trkpt>
      <trkpt lat="45.23258" lon="6.02765">
        <ele>2099.6000976562</ele>
        <time>2021-01-02T13:33:08.000Z</time>
      </trkpt>
      <trkpt lat="45.23251" lon="6.02761">
        <ele>2098.6000976562</ele>
        <time>2021-01-02T13:33:11.000Z</time>
      </trkpt>
      <trkpt lat="45.23241" lon="6.02757">
        <ele>2097.8000488281</ele>
        <time>2021-01-02T13:33:14.000Z</time>
      </trkpt>
      <trkpt lat="45.23238" lon="6.02759">
        <ele>2097</ele>
        <time>2021-01-02T13:33:15.000Z</time>
      </trkpt>
      <trkpt lat="45.23235" lon="6.02759">
        <ele>2095.6000976562</ele>
        <time>2021-01-02T13:33:16.000Z</time>
      </trkpt>
      <trkpt lat="45.23234" lon="6.02754">
        <ele>2094.1999511719</ele>
        <time>2021-01-02T13:33:17.000Z</time>
      </trkpt>
      <trkpt lat="45.23231" lon="6.02753">
        <ele>2092.6000976562</ele>
        <time>2021-01-02T13:33:18.000Z</time>
      </trkpt>
      <trkpt lat="45.23228" lon="6.02755">
        <ele>2091.1999511719</ele>
        <time>2021-01-02T13:33:19.000Z</time>
      </trkpt>
      <trkpt lat="45.23226" lon="6.02756">
        <ele>2090</ele>
        <time>2021-01-02T13:33:20.000Z</time>
      </trkpt>
      <trkpt lat="45.23222" lon="6.02756">
        <ele>2088.6000976562</ele>
        <time>2021-01-02T13:33:21.000Z</time>
      </trkpt>
      <trkpt lat="45.23222" lon="6.02751">
        <ele>2087.1999511719</ele>
        <time>2021-01-02T13:33:22.000Z</time>
      </trkpt>
      <trkpt lat="45.23218" lon="6.02749">
        <ele>2085.8000488281</ele>
        <time>2021-01-02T13:33:23.000Z</time>
      </trkpt>
      <trkpt lat="45.23214" lon="6.02751">
        <ele>2084.3999023438</ele>
        <time>2021-01-02T13:33:24.000Z</time>
      </trkpt>
      <trkpt lat="45.23211" lon="6.02752">
        <ele>2083</ele>
        <time>2021-01-02T13:33:25.000Z</time>
      </trkpt>
      <trkpt lat="45.2321" lon="6.02752">
        <ele>2081.3999023438</ele>
        <time>2021-01-02T13:33:26.000Z</time>
      </trkpt>
      <trkpt lat="45.2321" lon="6.02752">
        <ele>2079.8000488281</ele>
        <time>2021-01-02T13:33:27.000Z</time>
      </trkpt>
      <trkpt lat="45.23209" lon="6.02752">
        <ele>2078.1999511719</ele>
        <time>2021-01-02T13:33:28.000Z</time>
      </trkpt>
      <trkpt lat="45.2321" lon="6.02752">
        <ele>2076.8000488281</ele>
        <time>2021-01-02T13:33:29.000Z</time>
      </trkpt>
      <trkpt lat="45.2321" lon="6.02752">
        <ele>2075.6000976562</ele>
        <time>2021-01-02T13:33:30.000Z</time>
      </trkpt>
      <trkpt lat="45.2321" lon="6.02752">
        <ele>2074.8000488281</ele>
        <time>2021-01-02T13:33:31.000Z</time>
      </trkpt>
      <trkpt lat="45.2321" lon="6.02752">
        <ele>2074.1999511719</ele>
        <time>2021-01-02T13:33:32.000Z</time>
      </trkpt>
      <trkpt lat="45.23209" lon="6.02752">
        <ele>2073.1999511719</ele>
        <time>2021-01-02T13:33:39.000Z</time>
      </trkpt>
      <trkpt lat="45.23209" lon="6.02752">
        <ele>2073.1999511719</ele>
        <time>2021-01-02T13:33:43.000Z</time>
      </trkpt>
      <trkpt lat="45.23202" lon="6.02755">
        <ele>2073.1999511719</ele>
        <time>2021-01-02T13:33:47.000Z</time>
      </trkpt>
      <trkpt lat="45.23199" lon="6.02755">
        <ele>2073.1999511719</ele>
        <time>2021-01-02T13:33:48.000Z</time>
      </trkpt>
      <trkpt lat="45.23187" lon="6.02755">
        <ele>2071.6000976562</ele>
        <time>2021-01-02T13:33:52.000Z</time>
      </trkpt>
      <trkpt lat="45.23186" lon="6.02748">
        <ele>2070.1999511719</ele>
        <time>2021-01-02T13:33:54.000Z</time>
      </trkpt>
      <trkpt lat="45.23177" lon="6.0275">
        <ele>2068.1999511719</ele>
        <time>2021-01-02T13:33:56.000Z</time>
      </trkpt>
      <trkpt lat="45.23172" lon="6.02751">
        <ele>2067.1999511719</ele>
        <time>2021-01-02T13:33:57.000Z</time>
      </trkpt>
      <trkpt lat="45.23167" lon="6.02752">
        <ele>2066</ele>
        <time>2021-01-02T13:33:58.000Z</time>
      </trkpt>
      <trkpt lat="45.23162" lon="6.02752">
        <ele>2063</ele>
        <time>2021-01-02T13:33:59.000Z</time>
      </trkpt>
      <trkpt lat="45.23158" lon="6.02752">
        <ele>2061.6000976562</ele>
        <time>2021-01-02T13:34:00.000Z</time>
      </trkpt>
      <trkpt lat="45.23154" lon="6.02747">
        <ele>2060.1999511719</ele>
        <time>2021-01-02T13:34:01.000Z</time>
      </trkpt>
      <trkpt lat="45.23148" lon="6.02745">
        <ele>2059</ele>
        <time>2021-01-02T13:34:02.000Z</time>
      </trkpt>
      <trkpt lat="45.23143" lon="6.02747">
        <ele>2057.8000488281</ele>
        <time>2021-01-02T13:34:03.000Z</time>
      </trkpt>
      <trkpt lat="45.23139" lon="6.02749">
        <ele>2056.3999023438</ele>
        <time>2021-01-02T13:34:04.000Z</time>
      </trkpt>
      <trkpt lat="45.23137" lon="6.02751">
        <ele>2055</ele>
        <time>2021-01-02T13:34:05.000Z</time>
      </trkpt>
      <trkpt lat="45.23136" lon="6.02751">
        <ele>2053.1999511719</ele>
        <time>2021-01-02T13:34:06.000Z</time>
      </trkpt>
      <trkpt lat="45.23136" lon="6.02752">
        <ele>2051.3999023438</ele>
        <time>2021-01-02T13:34:07.000Z</time>
      </trkpt>
      <trkpt lat="45.23135" lon="6.02752">
        <ele>2049.8000488281</ele>
        <time>2021-01-02T13:34:08.000Z</time>
      </trkpt>
      <trkpt lat="45.23135" lon="6.02752">
        <ele>2048.3999023438</ele>
        <time>2021-01-02T13:34:09.000Z</time>
      </trkpt>
      <trkpt lat="45.23134" lon="6.02753">
        <ele>2046.5999755859</ele>
        <time>2021-01-02T13:34:11.000Z</time>
      </trkpt>
      <trkpt lat="45.23134" lon="6.02753">
        <ele>2045.8000488281</ele>
        <time>2021-01-02T13:34:15.000Z</time>
      </trkpt>
      <trkpt lat="45.23132" lon="6.02753">
        <ele>2045.5999755859</ele>
        <time>2021-01-02T13:34:20.000Z</time>
      </trkpt>
      <trkpt lat="45.23129" lon="6.02756">
        <ele>2045.5999755859</ele>
        <time>2021-01-02T13:34:22.000Z</time>
      </trkpt>
      <trkpt lat="45.23121" lon="6.0276">
        <ele>2044.1999511719</ele>
        <time>2021-01-02T13:34:27.000Z</time>
      </trkpt>
      <trkpt lat="45.23118" lon="6.02762">
        <ele>2043.8000488281</ele>
        <time>2021-01-02T13:34:28.000Z</time>
      </trkpt>
      <trkpt lat="45.23117" lon="6.02762">
        <ele>2043.1999511719</ele>
        <time>2021-01-02T13:34:29.000Z</time>
      </trkpt>
      <trkpt lat="45.23114" lon="6.02764">
        <ele>2042</ele>
        <time>2021-01-02T13:34:31.000Z</time>
      </trkpt>
      <trkpt lat="45.23111" lon="6.02766">
        <ele>2040.8000488281</ele>
        <time>2021-01-02T13:34:33.000Z</time>
      </trkpt>
      <trkpt lat="45.23108" lon="6.02767">
        <ele>2039.4000244141</ele>
        <time>2021-01-02T13:34:35.000Z</time>
      </trkpt>
      <trkpt lat="45.23105" lon="6.02768">
        <ele>2038.1999511719</ele>
        <time>2021-01-02T13:34:37.000Z</time>
      </trkpt>
      <trkpt lat="45.23101" lon="6.0277">
        <ele>2037.1999511719</ele>
        <time>2021-01-02T13:34:39.000Z</time>
      </trkpt>
      <trkpt lat="45.23098" lon="6.02772">
        <ele>2036.5999755859</ele>
        <time>2021-01-02T13:34:40.000Z</time>
      </trkpt>
      <trkpt lat="45.23092" lon="6.02774">
        <ele>2035.5999755859</ele>
        <time>2021-01-02T13:34:42.000Z</time>
      </trkpt>
      <trkpt lat="45.23089" lon="6.02776">
        <ele>2034.5999755859</ele>
        <time>2021-01-02T13:34:44.000Z</time>
      </trkpt>
      <trkpt lat="45.23088" lon="6.02777">
        <ele>2034</ele>
        <time>2021-01-02T13:34:45.000Z</time>
      </trkpt>
      <trkpt lat="45.23086" lon="6.02778">
        <ele>2033.1999511719</ele>
        <time>2021-01-02T13:34:46.000Z</time>
      </trkpt>
      <trkpt lat="45.23082" lon="6.02776">
        <ele>2031.5999755859</ele>
        <time>2021-01-02T13:34:47.000Z</time>
      </trkpt>
      <trkpt lat="45.23083" lon="6.02772">
        <ele>2031</ele>
        <time>2021-01-02T13:34:48.000Z</time>
      </trkpt>
      <trkpt lat="45.2308" lon="6.02769">
        <ele>2030.4000244141</ele>
        <time>2021-01-02T13:34:49.000Z</time>
      </trkpt>
      <trkpt lat="45.23073" lon="6.02768">
        <ele>2029</ele>
        <time>2021-01-02T13:34:51.000Z</time>
      </trkpt>
      <trkpt lat="45.23073" lon="6.02763">
        <ele>2028</ele>
        <time>2021-01-02T13:34:52.000Z</time>
      </trkpt>
      <trkpt lat="45.23071" lon="6.02758">
        <ele>2026.5999755859</ele>
        <time>2021-01-02T13:34:53.000Z</time>
      </trkpt>
      <trkpt lat="45.23068" lon="6.02759">
        <ele>2025.1999511719</ele>
        <time>2021-01-02T13:34:54.000Z</time>
      </trkpt>
      <trkpt lat="45.23064" lon="6.0276">
        <ele>2023.4000244141</ele>
        <time>2021-01-02T13:34:55.000Z</time>
      </trkpt>
      <trkpt lat="45.23063" lon="6.02756">
        <ele>2021.8000488281</ele>
        <time>2021-01-02T13:34:56.000Z</time>
      </trkpt>
      <trkpt lat="45.23062" lon="6.0275">
        <ele>2020</ele>
        <time>2021-01-02T13:34:57.000Z</time>
      </trkpt>
      <trkpt lat="45.23057" lon="6.02749">
        <ele>2018.1999511719</ele>
        <time>2021-01-02T13:34:58.000Z</time>
      </trkpt>
      <trkpt lat="45.23053" lon="6.02751">
        <ele>2016.4000244141</ele>
        <time>2021-01-02T13:34:59.000Z</time>
      </trkpt>
      <trkpt lat="45.23049" lon="6.02753">
        <ele>2014.5999755859</ele>
        <time>2021-01-02T13:35:00.000Z</time>
      </trkpt>
      <trkpt lat="45.23045" lon="6.02755">
        <ele>2012.8000488281</ele>
        <time>2021-01-02T13:35:01.000Z</time>
      </trkpt>
      <trkpt lat="45.23043" lon="6.02751">
        <ele>2010.8000488281</ele>
        <time>2021-01-02T13:35:02.000Z</time>
      </trkpt>
      <trkpt lat="45.23041" lon="6.02746">
        <ele>2008.8000488281</ele>
        <time>2021-01-02T13:35:03.000Z</time>
      </trkpt>
      <trkpt lat="45.23035" lon="6.02747">
        <ele>2006.8000488281</ele>
        <time>2021-01-02T13:35:04.000Z</time>
      </trkpt>
      <trkpt lat="45.23031" lon="6.0275">
        <ele>2004.8000488281</ele>
        <time>2021-01-02T13:35:05.000Z</time>
      </trkpt>
      <trkpt lat="45.23029" lon="6.02753">
        <ele>2003</ele>
        <time>2021-01-02T13:35:06.000Z</time>
      </trkpt>
      <trkpt lat="45.23026" lon="6.02754">
        <ele>2001</ele>
        <time>2021-01-02T13:35:07.000Z</time>
      </trkpt>
      <trkpt lat="45.23025" lon="6.02756">
        <ele>1998.8000488281</ele>
        <time>2021-01-02T13:35:08.000Z</time>
      </trkpt>
      <trkpt lat="45.23024" lon="6.02756">
        <ele>1996.8000488281</ele>
        <time>2021-01-02T13:35:09.000Z</time>
      </trkpt>
      <trkpt lat="45.23024" lon="6.02756">
        <ele>1994.8000488281</ele>
        <time>2021-01-02T13:35:10.000Z</time>
      </trkpt>
      <trkpt lat="45.23024" lon="6.02756">
        <ele>1991.8000488281</ele>
        <time>2021-01-02T13:35:11.000Z</time>
      </trkpt>
      <trkpt lat="45.23024" lon="6.02755">
        <ele>1990.8000488281</ele>
        <time>2021-01-02T13:35:12.000Z</time>
      </trkpt>
      <trkpt lat="45.23024" lon="6.02755">
        <ele>1989.5999755859</ele>
        <time>2021-01-02T13:35:14.000Z</time>
      </trkpt>
      <trkpt lat="45.23024" lon="6.02755">
        <ele>1988.5999755859</ele>
        <time>2021-01-02T13:35:26.000Z</time>
      </trkpt>
      <trkpt lat="45.23024" lon="6.02755">
        <ele>1988.5999755859</ele>
        <time>2021-01-02T13:35:27.000Z</time>
      </trkpt>
      <trkpt lat="45.23019" lon="6.02753">
        <ele>1988.4000244141</ele>
        <time>2021-01-02T13:35:31.000Z</time>
      </trkpt>
      <trkpt lat="45.23019" lon="6.02747">
        <ele>1988.4000244141</ele>
        <time>2021-01-02T13:35:32.000Z</time>
      </trkpt>
      <trkpt lat="45.23012" lon="6.02749">
        <ele>1988.1999511719</ele>
        <time>2021-01-02T13:35:34.000Z</time>
      </trkpt>
      <trkpt lat="45.23009" lon="6.0275">
        <ele>1987.1999511719</ele>
        <time>2021-01-02T13:35:35.000Z</time>
      </trkpt>
      <trkpt lat="45.23006" lon="6.02744">
        <ele>1985</ele>
        <time>2021-01-02T13:35:37.000Z</time>
      </trkpt>
      <trkpt lat="45.23002" lon="6.0274">
        <ele>1983.5999755859</ele>
        <time>2021-01-02T13:35:38.000Z</time>
      </trkpt>
      <trkpt lat="45.22997" lon="6.02742">
        <ele>1982.1999511719</ele>
        <time>2021-01-02T13:35:39.000Z</time>
      </trkpt>
      <trkpt lat="45.22993" lon="6.02744">
        <ele>1980.5999755859</ele>
        <time>2021-01-02T13:35:40.000Z</time>
      </trkpt>
      <trkpt lat="45.22992" lon="6.02739">
        <ele>1979</ele>
        <time>2021-01-02T13:35:41.000Z</time>
      </trkpt>
      <trkpt lat="45.22989" lon="6.02735">
        <ele>1977.1999511719</ele>
        <time>2021-01-02T13:35:42.000Z</time>
      </trkpt>
      <trkpt lat="45.22986" lon="6.02737">
        <ele>1975.4000244141</ele>
        <time>2021-01-02T13:35:43.000Z</time>
      </trkpt>
      <trkpt lat="45.22983" lon="6.02739">
        <ele>1973.4000244141</ele>
        <time>2021-01-02T13:35:44.000Z</time>
      </trkpt>
      <trkpt lat="45.2298" lon="6.02736">
        <ele>1971.4000244141</ele>
        <time>2021-01-02T13:35:45.000Z</time>
      </trkpt>
      <trkpt lat="45.22978" lon="6.0273">
        <ele>1969.4000244141</ele>
        <time>2021-01-02T13:35:46.000Z</time>
      </trkpt>
      <trkpt lat="45.22973" lon="6.02729">
        <ele>1967.4000244141</ele>
        <time>2021-01-02T13:35:47.000Z</time>
      </trkpt>
      <trkpt lat="45.22969" lon="6.02731">
        <ele>1965.8000488281</ele>
        <time>2021-01-02T13:35:48.000Z</time>
      </trkpt>
      <trkpt lat="45.22966" lon="6.02733">
        <ele>1964</ele>
        <time>2021-01-02T13:35:49.000Z</time>
      </trkpt>
      <trkpt lat="45.22964" lon="6.02731">
        <ele>1962</ele>
        <time>2021-01-02T13:35:50.000Z</time>
      </trkpt>
      <trkpt lat="45.22962" lon="6.02727">
        <ele>1960</ele>
        <time>2021-01-02T13:35:51.000Z</time>
      </trkpt>
      <trkpt lat="45.22957" lon="6.02726">
        <ele>1957.5999755859</ele>
        <time>2021-01-02T13:35:52.000Z</time>
      </trkpt>
      <trkpt lat="45.22951" lon="6.02726">
        <ele>1955.5999755859</ele>
        <time>2021-01-02T13:35:53.000Z</time>
      </trkpt>
      <trkpt lat="45.22947" lon="6.02729">
        <ele>1953.8000488281</ele>
        <time>2021-01-02T13:35:54.000Z</time>
      </trkpt>
      <trkpt lat="45.22944" lon="6.02729">
        <ele>1952</ele>
        <time>2021-01-02T13:35:55.000Z</time>
      </trkpt>
      <trkpt lat="45.22942" lon="6.02725">
        <ele>1950.1999511719</ele>
        <time>2021-01-02T13:35:56.000Z</time>
      </trkpt>
      <trkpt lat="45.22939" lon="6.02721">
        <ele>1948.1999511719</ele>
        <time>2021-01-02T13:35:57.000Z</time>
      </trkpt>
      <trkpt lat="45.22936" lon="6.02721">
        <ele>1946.1999511719</ele>
        <time>2021-01-02T13:35:58.000Z</time>
      </trkpt>
      <trkpt lat="45.22933" lon="6.02717">
        <ele>1942.8000488281</ele>
        <time>2021-01-02T13:35:59.000Z</time>
      </trkpt>
      <trkpt lat="45.22932" lon="6.02712">
        <ele>1941.4000244141</ele>
        <time>2021-01-02T13:36:00.000Z</time>
      </trkpt>
      <trkpt lat="45.22933" lon="6.0271">
        <ele>1939.8000488281</ele>
        <time>2021-01-02T13:36:01.000Z</time>
      </trkpt>
      <trkpt lat="45.22934" lon="6.02707">
        <ele>1938</ele>
        <time>2021-01-02T13:36:02.000Z</time>
      </trkpt>
      <trkpt lat="45.22934" lon="6.02706">
        <ele>1936.1999511719</ele>
        <time>2021-01-02T13:36:03.000Z</time>
      </trkpt>
      <trkpt lat="45.22934" lon="6.02705">
        <ele>1934.4000244141</ele>
        <time>2021-01-02T13:36:04.000Z</time>
      </trkpt>
      <trkpt lat="45.22934" lon="6.02705">
        <ele>1932.8000488281</ele>
        <time>2021-01-02T13:36:05.000Z</time>
      </trkpt>
      <trkpt lat="45.22934" lon="6.02705">
        <ele>1931.5999755859</ele>
        <time>2021-01-02T13:36:06.000Z</time>
      </trkpt>
      <trkpt lat="45.22934" lon="6.02705">
        <ele>1930.1999511719</ele>
        <time>2021-01-02T13:36:08.000Z</time>
      </trkpt>
      <trkpt lat="45.22933" lon="6.02707">
        <ele>1929.1999511719</ele>
        <time>2021-01-02T13:36:13.000Z</time>
      </trkpt>
      <trkpt lat="45.22933" lon="6.02707">
        <ele>1929.1999511719</ele>
        <time>2021-01-02T13:36:21.000Z</time>
      </trkpt>
      <trkpt lat="45.22933" lon="6.02707">
        <ele>1929.1999511719</ele>
        <time>2021-01-02T13:36:22.000Z</time>
      </trkpt>
      <trkpt lat="45.22933" lon="6.02707">
        <ele>1929.1999511719</ele>
        <time>2021-01-02T13:36:38.000Z</time>
      </trkpt>
      <trkpt lat="45.22934" lon="6.02706">
        <ele>1929.1999511719</ele>
        <time>2021-01-02T13:36:51.000Z</time>
      </trkpt>
      <trkpt lat="45.22934" lon="6.02696">
        <ele>1929.1999511719</ele>
        <time>2021-01-02T13:36:55.000Z</time>
      </trkpt>
      <trkpt lat="45.22935" lon="6.02684">
        <ele>1929</ele>
        <time>2021-01-02T13:36:57.000Z</time>
      </trkpt>
      <trkpt lat="45.22934" lon="6.02673">
        <ele>1928.4000244141</ele>
        <time>2021-01-02T13:36:59.000Z</time>
      </trkpt>
      <trkpt lat="45.22934" lon="6.02669">
        <ele>1928</ele>
        <time>2021-01-02T13:37:00.000Z</time>
      </trkpt>
      <trkpt lat="45.22932" lon="6.0266">
        <ele>1926.1999511719</ele>
        <time>2021-01-02T13:37:02.000Z</time>
      </trkpt>
      <trkpt lat="45.2293" lon="6.02652">
        <ele>1924.4000244141</ele>
        <time>2021-01-02T13:37:04.000Z</time>
      </trkpt>
      <trkpt lat="45.22927" lon="6.02644">
        <ele>1923</ele>
        <time>2021-01-02T13:37:06.000Z</time>
      </trkpt>
      <trkpt lat="45.22926" lon="6.02641">
        <ele>1921.8000488281</ele>
        <time>2021-01-02T13:37:08.000Z</time>
      </trkpt>
      <trkpt lat="45.22926" lon="6.0264">
        <ele>1921.1999511719</ele>
        <time>2021-01-02T13:37:09.000Z</time>
      </trkpt>
      <trkpt lat="45.22925" lon="6.02639">
        <ele>1920.4000244141</ele>
        <time>2021-01-02T13:37:10.000Z</time>
      </trkpt>
      <trkpt lat="45.22923" lon="6.02637">
        <ele>1919.1999511719</ele>
        <time>2021-01-02T13:37:11.000Z</time>
      </trkpt>
      <trkpt lat="45.22917" lon="6.02638">
        <ele>1918.1999511719</ele>
        <time>2021-01-02T13:37:13.000Z</time>
      </trkpt>
      <trkpt lat="45.22916" lon="6.02642">
        <ele>1917.5999755859</ele>
        <time>2021-01-02T13:37:14.000Z</time>
      </trkpt>
      <trkpt lat="45.22913" lon="6.02648">
        <ele>1916.1999511719</ele>
        <time>2021-01-02T13:37:16.000Z</time>
      </trkpt>
      <trkpt lat="45.22907" lon="6.02642">
        <ele>1914.1999511719</ele>
        <time>2021-01-02T13:37:18.000Z</time>
      </trkpt>
      <trkpt lat="45.22904" lon="6.02639">
        <ele>1913.1999511719</ele>
        <time>2021-01-02T13:37:19.000Z</time>
      </trkpt>
      <trkpt lat="45.22901" lon="6.02636">
        <ele>1912</ele>
        <time>2021-01-02T13:37:20.000Z</time>
      </trkpt>
      <trkpt lat="45.22898" lon="6.02634">
        <ele>1910.8000488281</ele>
        <time>2021-01-02T13:37:21.000Z</time>
      </trkpt>
      <trkpt lat="45.22896" lon="6.02632">
        <ele>1909.5999755859</ele>
        <time>2021-01-02T13:37:22.000Z</time>
      </trkpt>
      <trkpt lat="45.22894" lon="6.02632">
        <ele>1908.1999511719</ele>
        <time>2021-01-02T13:37:23.000Z</time>
      </trkpt>
      <trkpt lat="45.22889" lon="6.02635">
        <ele>1907</ele>
        <time>2021-01-02T13:37:24.000Z</time>
      </trkpt>
      <trkpt lat="45.22884" lon="6.02633">
        <ele>1905.8000488281</ele>
        <time>2021-01-02T13:37:25.000Z</time>
      </trkpt>
      <trkpt lat="45.2288" lon="6.02631">
        <ele>1904.5999755859</ele>
        <time>2021-01-02T13:37:26.000Z</time>
      </trkpt>
      <trkpt lat="45.22878" lon="6.02629">
        <ele>1903.4000244141</ele>
        <time>2021-01-02T13:37:27.000Z</time>
      </trkpt>
      <trkpt lat="45.22875" lon="6.02627">
        <ele>1902</ele>
        <time>2021-01-02T13:37:28.000Z</time>
      </trkpt>
      <trkpt lat="45.22873" lon="6.02625">
        <ele>1900.4000244141</ele>
        <time>2021-01-02T13:37:29.000Z</time>
      </trkpt>
      <trkpt lat="45.22873" lon="6.02625">
        <ele>1898.8000488281</ele>
        <time>2021-01-02T13:37:30.000Z</time>
      </trkpt>
      <trkpt lat="45.22873" lon="6.02625">
        <ele>1897.4000244141</ele>
        <time>2021-01-02T13:37:31.000Z</time>
      </trkpt>
      <trkpt lat="45.22873" lon="6.02625">
        <ele>1896</ele>
        <time>2021-01-02T13:37:32.000Z</time>
      </trkpt>
      <trkpt lat="45.22873" lon="6.02625">
        <ele>1894.8000488281</ele>
        <time>2021-01-02T13:37:33.000Z</time>
      </trkpt>
      <trkpt lat="45.22873" lon="6.02625">
        <ele>1892.8000488281</ele>
        <time>2021-01-02T13:37:35.000Z</time>
      </trkpt>
      <trkpt lat="45.22872" lon="6.02625">
        <ele>1892.1999511719</ele>
        <time>2021-01-02T13:37:40.000Z</time>
      </trkpt>
      <trkpt lat="45.22864" lon="6.02622">
        <ele>1892</ele>
        <time>2021-01-02T13:37:44.000Z</time>
      </trkpt>
      <trkpt lat="45.22861" lon="6.02618">
        <ele>1892</ele>
        <time>2021-01-02T13:37:45.000Z</time>
      </trkpt>
      <trkpt lat="45.2286" lon="6.02617">
        <ele>1891.5999755859</ele>
        <time>2021-01-02T13:37:46.000Z</time>
      </trkpt>
      <trkpt lat="45.22856" lon="6.0262">
        <ele>1891.1999511719</ele>
        <time>2021-01-02T13:37:47.000Z</time>
      </trkpt>
      <trkpt lat="45.22855" lon="6.02626">
        <ele>1890.5999755859</ele>
        <time>2021-01-02T13:37:48.000Z</time>
      </trkpt>
      <trkpt lat="45.2285" lon="6.02626">
        <ele>1889.8000488281</ele>
        <time>2021-01-02T13:37:49.000Z</time>
      </trkpt>
      <trkpt lat="45.22847" lon="6.02623">
        <ele>1889</ele>
        <time>2021-01-02T13:37:50.000Z</time>
      </trkpt>
      <trkpt lat="45.22839" lon="6.02617">
        <ele>1886.8000488281</ele>
        <time>2021-01-02T13:37:52.000Z</time>
      </trkpt>
      <trkpt lat="45.22836" lon="6.02613">
        <ele>1885.4000244141</ele>
        <time>2021-01-02T13:37:53.000Z</time>
      </trkpt>
      <trkpt lat="45.22833" lon="6.02608">
        <ele>1884</ele>
        <time>2021-01-02T13:37:54.000Z</time>
      </trkpt>
      <trkpt lat="45.22831" lon="6.02604">
        <ele>1882.4000244141</ele>
        <time>2021-01-02T13:37:55.000Z</time>
      </trkpt>
      <trkpt lat="45.2283" lon="6.02602">
        <ele>1881</ele>
        <time>2021-01-02T13:37:56.000Z</time>
      </trkpt>
      <trkpt lat="45.22829" lon="6.026">
        <ele>1879.4000244141</ele>
        <time>2021-01-02T13:37:57.000Z</time>
      </trkpt>
      <trkpt lat="45.22828" lon="6.02598">
        <ele>1878</ele>
        <time>2021-01-02T13:37:58.000Z</time>
      </trkpt>
      <trkpt lat="45.22826" lon="6.02597">
        <ele>1875.5999755859</ele>
        <time>2021-01-02T13:37:59.000Z</time>
      </trkpt>
      <trkpt lat="45.22819" lon="6.02591">
        <ele>1874</ele>
        <time>2021-01-02T13:38:01.000Z</time>
      </trkpt>
      <trkpt lat="45.22813" lon="6.02586">
        <ele>1873</ele>
        <time>2021-01-02T13:38:03.000Z</time>
      </trkpt>
      <trkpt lat="45.22808" lon="6.02582">
        <ele>1872.4000244141</ele>
        <time>2021-01-02T13:38:04.000Z</time>
      </trkpt>
      <trkpt lat="45.22805" lon="6.02577">
        <ele>1871.5999755859</ele>
        <time>2021-01-02T13:38:05.000Z</time>
      </trkpt>
      <trkpt lat="45.22795" lon="6.0257">
        <ele>1869.5999755859</ele>
        <time>2021-01-02T13:38:07.000Z</time>
      </trkpt>
      <trkpt lat="45.2279" lon="6.02566">
        <ele>1868.5999755859</ele>
        <time>2021-01-02T13:38:08.000Z</time>
      </trkpt>
      <trkpt lat="45.22785" lon="6.02563">
        <ele>1867.4000244141</ele>
        <time>2021-01-02T13:38:09.000Z</time>
      </trkpt>
      <trkpt lat="45.2278" lon="6.02561">
        <ele>1866</ele>
        <time>2021-01-02T13:38:10.000Z</time>
      </trkpt>
      <trkpt lat="45.22776" lon="6.02558">
        <ele>1864.8000488281</ele>
        <time>2021-01-02T13:38:11.000Z</time>
      </trkpt>
      <trkpt lat="45.22773" lon="6.02555">
        <ele>1863.4000244141</ele>
        <time>2021-01-02T13:38:12.000Z</time>
      </trkpt>
      <trkpt lat="45.22769" lon="6.02553">
        <ele>1862.1999511719</ele>
        <time>2021-01-02T13:38:13.000Z</time>
      </trkpt>
      <trkpt lat="45.22767" lon="6.0255">
        <ele>1861</ele>
        <time>2021-01-02T13:38:14.000Z</time>
      </trkpt>
      <trkpt lat="45.22766" lon="6.02549">
        <ele>1859.8000488281</ele>
        <time>2021-01-02T13:38:15.000Z</time>
      </trkpt>
      <trkpt lat="45.22765" lon="6.02548">
        <ele>1858.5999755859</ele>
        <time>2021-01-02T13:38:16.000Z</time>
      </trkpt>
      <trkpt lat="45.22763" lon="6.02545">
        <ele>1856.8000488281</ele>
        <time>2021-01-02T13:38:18.000Z</time>
      </trkpt>
      <trkpt lat="45.22763" lon="6.02545">
        <ele>1855.5999755859</ele>
        <time>2021-01-02T13:38:20.000Z</time>
      </trkpt>
      <trkpt lat="45.22763" lon="6.02545">
        <ele>1855.1999511719</ele>
        <time>2021-01-02T13:38:21.000Z</time>
      </trkpt>
      <trkpt lat="45.22763" lon="6.02543">
        <ele>1854.5999755859</ele>
        <time>2021-01-02T13:38:24.000Z</time>
      </trkpt>
      <trkpt lat="45.22763" lon="6.02543">
        <ele>1854.4000244141</ele>
        <time>2021-01-02T13:38:29.000Z</time>
      </trkpt>
      <trkpt lat="45.22763" lon="6.02543">
        <ele>1854.4000244141</ele>
        <time>2021-01-02T13:38:36.000Z</time>
      </trkpt>
      <trkpt lat="45.22756" lon="6.02538">
        <ele>1854.5999755859</ele>
        <time>2021-01-02T13:38:42.000Z</time>
      </trkpt>
      <trkpt lat="45.2275" lon="6.02528">
        <ele>1854.5999755859</ele>
        <time>2021-01-02T13:38:44.000Z</time>
      </trkpt>
      <trkpt lat="45.22747" lon="6.02524">
        <ele>1854.4000244141</ele>
        <time>2021-01-02T13:38:45.000Z</time>
      </trkpt>
      <trkpt lat="45.22743" lon="6.02517">
        <ele>1853.1999511719</ele>
        <time>2021-01-02T13:38:48.000Z</time>
      </trkpt>
      <trkpt lat="45.22741" lon="6.02516">
        <ele>1852.5999755859</ele>
        <time>2021-01-02T13:38:49.000Z</time>
      </trkpt>
      <trkpt lat="45.22737" lon="6.02514">
        <ele>1852</ele>
        <time>2021-01-02T13:38:50.000Z</time>
      </trkpt>
      <trkpt lat="45.22727" lon="6.02509">
        <ele>1851</ele>
        <time>2021-01-02T13:38:52.000Z</time>
      </trkpt>
      <trkpt lat="45.22723" lon="6.02504">
        <ele>1850.5999755859</ele>
        <time>2021-01-02T13:38:53.000Z</time>
      </trkpt>
      <trkpt lat="45.22717" lon="6.02498">
        <ele>1849.1999511719</ele>
        <time>2021-01-02T13:38:55.000Z</time>
      </trkpt>
      <trkpt lat="45.22712" lon="6.02493">
        <ele>1847.1999511719</ele>
        <time>2021-01-02T13:38:57.000Z</time>
      </trkpt>
      <trkpt lat="45.22706" lon="6.02487">
        <ele>1845.4000244141</ele>
        <time>2021-01-02T13:38:59.000Z</time>
      </trkpt>
      <trkpt lat="45.22703" lon="6.02483">
        <ele>1844.8000488281</ele>
        <time>2021-01-02T13:39:00.000Z</time>
      </trkpt>
      <trkpt lat="45.22699" lon="6.02478">
        <ele>1844.1999511719</ele>
        <time>2021-01-02T13:39:01.000Z</time>
      </trkpt>
      <trkpt lat="45.22693" lon="6.02468">
        <ele>1843.1999511719</ele>
        <time>2021-01-02T13:39:03.000Z</time>
      </trkpt>
      <trkpt lat="45.2269" lon="6.02468">
        <ele>1842.4000244141</ele>
        <time>2021-01-02T13:39:04.000Z</time>
      </trkpt>
      <trkpt lat="45.22688" lon="6.02467">
        <ele>1841.8000488281</ele>
        <time>2021-01-02T13:39:05.000Z</time>
      </trkpt>
      <trkpt lat="45.22684" lon="6.02466">
        <ele>1840.1999511719</ele>
        <time>2021-01-02T13:39:07.000Z</time>
      </trkpt>
      <trkpt lat="45.2268" lon="6.02464">
        <ele>1838.8000488281</ele>
        <time>2021-01-02T13:39:09.000Z</time>
      </trkpt>
      <trkpt lat="45.22673" lon="6.02462">
        <ele>1837.5999755859</ele>
        <time>2021-01-02T13:39:11.000Z</time>
      </trkpt>
      <trkpt lat="45.22669" lon="6.02459">
        <ele>1837</ele>
        <time>2021-01-02T13:39:12.000Z</time>
      </trkpt>
      <trkpt lat="45.22662" lon="6.02454">
        <ele>1836</ele>
        <time>2021-01-02T13:39:14.000Z</time>
      </trkpt>
      <trkpt lat="45.22662" lon="6.02453">
        <ele>1834.4000244141</ele>
        <time>2021-01-02T13:39:16.000Z</time>
      </trkpt>
      <trkpt lat="45.22662" lon="6.02453">
        <ele>1833.5999755859</ele>
        <time>2021-01-02T13:39:17.000Z</time>
      </trkpt>
      <trkpt lat="45.22662" lon="6.02453">
        <ele>1833</ele>
        <time>2021-01-02T13:39:18.000Z</time>
      </trkpt>
      <trkpt lat="45.22662" lon="6.02453">
        <ele>1831.8000488281</ele>
        <time>2021-01-02T13:39:21.000Z</time>
      </trkpt>
      <trkpt lat="45.2266" lon="6.02453">
        <ele>1831.5999755859</ele>
        <time>2021-01-02T13:39:27.000Z</time>
      </trkpt>
      <trkpt lat="45.22656" lon="6.02456">
        <ele>1831.5999755859</ele>
        <time>2021-01-02T13:39:29.000Z</time>
      </trkpt>
      <trkpt lat="45.22656" lon="6.02462">
        <ele>1831.5999755859</ele>
        <time>2021-01-02T13:39:30.000Z</time>
      </trkpt>
      <trkpt lat="45.2265" lon="6.0246">
        <ele>1831.4000244141</ele>
        <time>2021-01-02T13:39:32.000Z</time>
      </trkpt>
      <trkpt lat="45.22644" lon="6.02468">
        <ele>1830.1999511719</ele>
        <time>2021-01-02T13:39:34.000Z</time>
      </trkpt>
      <trkpt lat="45.22641" lon="6.02466">
        <ele>1828</ele>
        <time>2021-01-02T13:39:35.000Z</time>
      </trkpt>
      <trkpt lat="45.22639" lon="6.02466">
        <ele>1826.8000488281</ele>
        <time>2021-01-02T13:39:36.000Z</time>
      </trkpt>
      <trkpt lat="45.22636" lon="6.02468">
        <ele>1825.4000244141</ele>
        <time>2021-01-02T13:39:37.000Z</time>
      </trkpt>
      <trkpt lat="45.22631" lon="6.02468">
        <ele>1824</ele>
        <time>2021-01-02T13:39:38.000Z</time>
      </trkpt>
      <trkpt lat="45.22627" lon="6.02465">
        <ele>1822.5999755859</ele>
        <time>2021-01-02T13:39:39.000Z</time>
      </trkpt>
      <trkpt lat="45.22623" lon="6.02464">
        <ele>1821.1999511719</ele>
        <time>2021-01-02T13:39:40.000Z</time>
      </trkpt>
      <trkpt lat="45.22618" lon="6.02463">
        <ele>1820</ele>
        <time>2021-01-02T13:39:41.000Z</time>
      </trkpt>
      <trkpt lat="45.22614" lon="6.02461">
        <ele>1818.8000488281</ele>
        <time>2021-01-02T13:39:42.000Z</time>
      </trkpt>
      <trkpt lat="45.22611" lon="6.02459">
        <ele>1817.5999755859</ele>
        <time>2021-01-02T13:39:43.000Z</time>
      </trkpt>
      <trkpt lat="45.22606" lon="6.02457">
        <ele>1816.4000244141</ele>
        <time>2021-01-02T13:39:44.000Z</time>
      </trkpt>
      <trkpt lat="45.22602" lon="6.02455">
        <ele>1815.1999511719</ele>
        <time>2021-01-02T13:39:45.000Z</time>
      </trkpt>
      <trkpt lat="45.22597" lon="6.02453">
        <ele>1814.1999511719</ele>
        <time>2021-01-02T13:39:46.000Z</time>
      </trkpt>
      <trkpt lat="45.22593" lon="6.0245">
        <ele>1813.1999511719</ele>
        <time>2021-01-02T13:39:47.000Z</time>
      </trkpt>
      <trkpt lat="45.22589" lon="6.02448">
        <ele>1812.1999511719</ele>
        <time>2021-01-02T13:39:48.000Z</time>
      </trkpt>
      <trkpt lat="45.22585" lon="6.02446">
        <ele>1811.1999511719</ele>
        <time>2021-01-02T13:39:49.000Z</time>
      </trkpt>
      <trkpt lat="45.22575" lon="6.02441">
        <ele>1809.1999511719</ele>
        <time>2021-01-02T13:39:51.000Z</time>
      </trkpt>
      <trkpt lat="45.22571" lon="6.02439">
        <ele>1808.1999511719</ele>
        <time>2021-01-02T13:39:52.000Z</time>
      </trkpt>
      <trkpt lat="45.2257" lon="6.02437">
        <ele>1807.1999511719</ele>
        <time>2021-01-02T13:39:53.000Z</time>
      </trkpt>
      <trkpt lat="45.22568" lon="6.02436">
        <ele>1806.1999511719</ele>
        <time>2021-01-02T13:39:54.000Z</time>
      </trkpt>
      <trkpt lat="45.22566" lon="6.02436">
        <ele>1805.1999511719</ele>
        <time>2021-01-02T13:39:55.000Z</time>
      </trkpt>
      <trkpt lat="45.2256" lon="6.02435">
        <ele>1803.4000244141</ele>
        <time>2021-01-02T13:39:57.000Z</time>
      </trkpt>
      <trkpt lat="45.22552" lon="6.02433">
        <ele>1801.8000488281</ele>
        <time>2021-01-02T13:39:59.000Z</time>
      </trkpt>
      <trkpt lat="45.22545" lon="6.02428">
        <ele>1800.5999755859</ele>
        <time>2021-01-02T13:40:01.000Z</time>
      </trkpt>
      <trkpt lat="45.22536" lon="6.02423">
        <ele>1799</ele>
        <time>2021-01-02T13:40:03.000Z</time>
      </trkpt>
      <trkpt lat="45.22528" lon="6.02417">
        <ele>1797.4000244141</ele>
        <time>2021-01-02T13:40:05.000Z</time>
      </trkpt>
      <trkpt lat="45.22523" lon="6.02417">
        <ele>1796.4000244141</ele>
        <time>2021-01-02T13:40:06.000Z</time>
      </trkpt>
      <trkpt lat="45.22518" lon="6.02416">
        <ele>1795.5999755859</ele>
        <time>2021-01-02T13:40:07.000Z</time>
      </trkpt>
      <trkpt lat="45.22514" lon="6.02413">
        <ele>1794.5999755859</ele>
        <time>2021-01-02T13:40:08.000Z</time>
      </trkpt>
      <trkpt lat="45.22511" lon="6.02409">
        <ele>1793.5999755859</ele>
        <time>2021-01-02T13:40:09.000Z</time>
      </trkpt>
      <trkpt lat="45.2251" lon="6.02405">
        <ele>1792.5999755859</ele>
        <time>2021-01-02T13:40:10.000Z</time>
      </trkpt>
      <trkpt lat="45.22509" lon="6.02404">
        <ele>1791.5999755859</ele>
        <time>2021-01-02T13:40:11.000Z</time>
      </trkpt>
      <trkpt lat="45.22508" lon="6.02403">
        <ele>1790.5999755859</ele>
        <time>2021-01-02T13:40:12.000Z</time>
      </trkpt>
      <trkpt lat="45.22506" lon="6.02403">
        <ele>1789.4000244141</ele>
        <time>2021-01-02T13:40:13.000Z</time>
      </trkpt>
      <trkpt lat="45.22506" lon="6.02403">
        <ele>1788.4000244141</ele>
        <time>2021-01-02T13:40:14.000Z</time>
      </trkpt>
      <trkpt lat="45.22506" lon="6.02403">
        <ele>1786.8000488281</ele>
        <time>2021-01-02T13:40:16.000Z</time>
      </trkpt>
      <trkpt lat="45.22506" lon="6.02403">
        <ele>1786</ele>
        <time>2021-01-02T13:40:21.000Z</time>
      </trkpt>
      <trkpt lat="45.22506" lon="6.02401">
        <ele>1786</ele>
        <time>2021-01-02T13:40:22.000Z</time>
      </trkpt>
      <trkpt lat="45.22503" lon="6.02396">
        <ele>1785.8000488281</ele>
        <time>2021-01-02T13:40:24.000Z</time>
      </trkpt>
      <trkpt lat="45.22501" lon="6.02392">
        <ele>1785.8000488281</ele>
        <time>2021-01-02T13:40:25.000Z</time>
      </trkpt>
      <trkpt lat="45.225" lon="6.02387">
        <ele>1785.8000488281</ele>
        <time>2021-01-02T13:40:26.000Z</time>
      </trkpt>
      <trkpt lat="45.22496" lon="6.02376">
        <ele>1785.1999511719</ele>
        <time>2021-01-02T13:40:28.000Z</time>
      </trkpt>
      <trkpt lat="45.22494" lon="6.0237">
        <ele>1784.8000488281</ele>
        <time>2021-01-02T13:40:29.000Z</time>
      </trkpt>
      <trkpt lat="45.2249" lon="6.02359">
        <ele>1783</ele>
        <time>2021-01-02T13:40:31.000Z</time>
      </trkpt>
      <trkpt lat="45.22489" lon="6.02357">
        <ele>1782</ele>
        <time>2021-01-02T13:40:32.000Z</time>
      </trkpt>
      <trkpt lat="45.22488" lon="6.02355">
        <ele>1780.5999755859</ele>
        <time>2021-01-02T13:40:33.000Z</time>
      </trkpt>
      <trkpt lat="45.22488" lon="6.02352">
        <ele>1779.4000244141</ele>
        <time>2021-01-02T13:40:34.000Z</time>
      </trkpt>
      <trkpt lat="45.22486" lon="6.0235">
        <ele>1778.1999511719</ele>
        <time>2021-01-02T13:40:35.000Z</time>
      </trkpt>
      <trkpt lat="45.22484" lon="6.02346">
        <ele>1776.5999755859</ele>
        <time>2021-01-02T13:40:37.000Z</time>
      </trkpt>
      <trkpt lat="45.22483" lon="6.02342">
        <ele>1776</ele>
        <time>2021-01-02T13:40:38.000Z</time>
      </trkpt>
      <trkpt lat="45.22481" lon="6.02335">
        <ele>1775.4000244141</ele>
        <time>2021-01-02T13:40:40.000Z</time>
      </trkpt>
      <trkpt lat="45.22477" lon="6.02325">
        <ele>1774.1999511719</ele>
        <time>2021-01-02T13:40:43.000Z</time>
      </trkpt>
      <trkpt lat="45.22475" lon="6.02323">
        <ele>1773.5999755859</ele>
        <time>2021-01-02T13:40:44.000Z</time>
      </trkpt>
      <trkpt lat="45.22471" lon="6.02327">
        <ele>1773</ele>
        <time>2021-01-02T13:40:45.000Z</time>
      </trkpt>
      <trkpt lat="45.22467" lon="6.02324">
        <ele>1772.1999511719</ele>
        <time>2021-01-02T13:40:46.000Z</time>
      </trkpt>
      <trkpt lat="45.22464" lon="6.02322">
        <ele>1770.8000488281</ele>
        <time>2021-01-02T13:40:47.000Z</time>
      </trkpt>
      <trkpt lat="45.22457" lon="6.02316">
        <ele>1769</ele>
        <time>2021-01-02T13:40:49.000Z</time>
      </trkpt>
      <trkpt lat="45.22453" lon="6.02317">
        <ele>1767.5999755859</ele>
        <time>2021-01-02T13:40:50.000Z</time>
      </trkpt>
      <trkpt lat="45.22451" lon="6.02313">
        <ele>1766.1999511719</ele>
        <time>2021-01-02T13:40:51.000Z</time>
      </trkpt>
      <trkpt lat="45.22451" lon="6.02312">
        <ele>1764.5999755859</ele>
        <time>2021-01-02T13:40:52.000Z</time>
      </trkpt>
      <trkpt lat="45.22451" lon="6.02312">
        <ele>1762.8000488281</ele>
        <time>2021-01-02T13:40:53.000Z</time>
      </trkpt>
      <trkpt lat="45.22451" lon="6.02312">
        <ele>1760.8000488281</ele>
        <time>2021-01-02T13:40:54.000Z</time>
      </trkpt>
      <trkpt lat="45.22451" lon="6.02312">
        <ele>1759</ele>
        <time>2021-01-02T13:40:55.000Z</time>
      </trkpt>
      <trkpt lat="45.2245" lon="6.02312">
        <ele>1757.4000244141</ele>
        <time>2021-01-02T13:40:56.000Z</time>
      </trkpt>
      <trkpt lat="45.2245" lon="6.02311">
        <ele>1756.1999511719</ele>
        <time>2021-01-02T13:40:57.000Z</time>
      </trkpt>
      <trkpt lat="45.2245" lon="6.02311">
        <ele>1755</ele>
        <time>2021-01-02T13:40:59.000Z</time>
      </trkpt>
      <trkpt lat="45.22449" lon="6.02309">
        <ele>1754.5999755859</ele>
        <time>2021-01-02T13:41:04.000Z</time>
      </trkpt>
      <trkpt lat="45.22442" lon="6.02308">
        <ele>1754.4000244141</ele>
        <time>2021-01-02T13:41:07.000Z</time>
      </trkpt>
      <trkpt lat="45.22438" lon="6.02296">
        <ele>1754.4000244141</ele>
        <time>2021-01-02T13:41:09.000Z</time>
      </trkpt>
      <trkpt lat="45.22435" lon="6.02286">
        <ele>1752.1999511719</ele>
        <time>2021-01-02T13:41:11.000Z</time>
      </trkpt>
      <trkpt lat="45.22434" lon="6.02282">
        <ele>1750.8000488281</ele>
        <time>2021-01-02T13:41:12.000Z</time>
      </trkpt>
      <trkpt lat="45.22434" lon="6.02279">
        <ele>1749.1999511719</ele>
        <time>2021-01-02T13:41:13.000Z</time>
      </trkpt>
      <trkpt lat="45.22433" lon="6.02276">
        <ele>1747.8000488281</ele>
        <time>2021-01-02T13:41:14.000Z</time>
      </trkpt>
      <trkpt lat="45.22433" lon="6.02273">
        <ele>1746.4000244141</ele>
        <time>2021-01-02T13:41:15.000Z</time>
      </trkpt>
      <trkpt lat="45.22432" lon="6.02271">
        <ele>1745.4000244141</ele>
        <time>2021-01-02T13:41:16.000Z</time>
      </trkpt>
      <trkpt lat="45.22428" lon="6.02267">
        <ele>1744</ele>
        <time>2021-01-02T13:41:18.000Z</time>
      </trkpt>
      <trkpt lat="45.22427" lon="6.02264">
        <ele>1743.4000244141</ele>
        <time>2021-01-02T13:41:19.000Z</time>
      </trkpt>
      <trkpt lat="45.22424" lon="6.02262">
        <ele>1742.8000488281</ele>
        <time>2021-01-02T13:41:20.000Z</time>
      </trkpt>
      <trkpt lat="45.22418" lon="6.02253">
        <ele>1741.4000244141</ele>
        <time>2021-01-02T13:41:22.000Z</time>
      </trkpt>
      <trkpt lat="45.22414" lon="6.02253">
        <ele>1740.4000244141</ele>
        <time>2021-01-02T13:41:23.000Z</time>
      </trkpt>
      <trkpt lat="45.22413" lon="6.02255">
        <ele>1739</ele>
        <time>2021-01-02T13:41:24.000Z</time>
      </trkpt>
      <trkpt lat="45.22411" lon="6.02257">
        <ele>1737</ele>
        <time>2021-01-02T13:41:25.000Z</time>
      </trkpt>
      <trkpt lat="45.22409" lon="6.02259">
        <ele>1734.8000488281</ele>
        <time>2021-01-02T13:41:26.000Z</time>
      </trkpt>
      <trkpt lat="45.22408" lon="6.02261">
        <ele>1732.4000244141</ele>
        <time>2021-01-02T13:41:27.000Z</time>
      </trkpt>
      <trkpt lat="45.22407" lon="6.02259">
        <ele>1730.1999511719</ele>
        <time>2021-01-02T13:41:28.000Z</time>
      </trkpt>
      <trkpt lat="45.22406" lon="6.02254">
        <ele>1728.1999511719</ele>
        <time>2021-01-02T13:41:29.000Z</time>
      </trkpt>
      <trkpt lat="45.22404" lon="6.02252">
        <ele>1726.5999755859</ele>
        <time>2021-01-02T13:41:30.000Z</time>
      </trkpt>
      <trkpt lat="45.22405" lon="6.02252">
        <ele>1725.4000244141</ele>
        <time>2021-01-02T13:41:31.000Z</time>
      </trkpt>
      <trkpt lat="45.22406" lon="6.02252">
        <ele>1724</ele>
        <time>2021-01-02T13:41:32.000Z</time>
      </trkpt>
      <trkpt lat="45.22406" lon="6.02252">
        <ele>1722.5999755859</ele>
        <time>2021-01-02T13:41:33.000Z</time>
      </trkpt>
      <trkpt lat="45.22406" lon="6.02252">
        <ele>1721.4000244141</ele>
        <time>2021-01-02T13:41:34.000Z</time>
      </trkpt>
      <trkpt lat="45.22406" lon="6.02252">
        <ele>1719.4000244141</ele>
        <time>2021-01-02T13:41:35.000Z</time>
      </trkpt>
      <trkpt lat="45.22406" lon="6.02253">
        <ele>1718.1999511719</ele>
        <time>2021-01-02T13:41:38.000Z</time>
      </trkpt>
      <trkpt lat="45.22404" lon="6.0225">
        <ele>1717.8000488281</ele>
        <time>2021-01-02T13:41:43.000Z</time>
      </trkpt>
      <trkpt lat="45.22401" lon="6.02243">
        <ele>1717.8000488281</ele>
        <time>2021-01-02T13:41:45.000Z</time>
      </trkpt>
      <trkpt lat="45.22396" lon="6.02243">
        <ele>1717.8000488281</ele>
        <time>2021-01-02T13:41:47.000Z</time>
      </trkpt>
      <trkpt lat="45.22394" lon="6.02239">
        <ele>1717.4000244141</ele>
        <time>2021-01-02T13:41:48.000Z</time>
      </trkpt>
      <trkpt lat="45.22391" lon="6.02241">
        <ele>1716.8000488281</ele>
        <time>2021-01-02T13:41:49.000Z</time>
      </trkpt>
      <trkpt lat="45.22389" lon="6.02245">
        <ele>1715.8000488281</ele>
        <time>2021-01-02T13:41:50.000Z</time>
      </trkpt>
      <trkpt lat="45.22385" lon="6.02246">
        <ele>1714.5999755859</ele>
        <time>2021-01-02T13:41:51.000Z</time>
      </trkpt>
      <trkpt lat="45.22384" lon="6.02242">
        <ele>1713.1999511719</ele>
        <time>2021-01-02T13:41:52.000Z</time>
      </trkpt>
      <trkpt lat="45.22381" lon="6.02238">
        <ele>1711.8000488281</ele>
        <time>2021-01-02T13:41:53.000Z</time>
      </trkpt>
      <trkpt lat="45.22379" lon="6.02232">
        <ele>1710.4000244141</ele>
        <time>2021-01-02T13:41:54.000Z</time>
      </trkpt>
      <trkpt lat="45.22377" lon="6.02228">
        <ele>1709</ele>
        <time>2021-01-02T13:41:55.000Z</time>
      </trkpt>
      <trkpt lat="45.22374" lon="6.02225">
        <ele>1707.5999755859</ele>
        <time>2021-01-02T13:41:56.000Z</time>
      </trkpt>
      <trkpt lat="45.22371" lon="6.02224">
        <ele>1706</ele>
        <time>2021-01-02T13:41:57.000Z</time>
      </trkpt>
      <trkpt lat="45.22368" lon="6.02222">
        <ele>1704.5999755859</ele>
        <time>2021-01-02T13:41:58.000Z</time>
      </trkpt>
      <trkpt lat="45.22366" lon="6.02221">
        <ele>1703.1999511719</ele>
        <time>2021-01-02T13:41:59.000Z</time>
      </trkpt>
      <trkpt lat="45.22365" lon="6.0222">
        <ele>1701.1999511719</ele>
        <time>2021-01-02T13:42:00.000Z</time>
      </trkpt>
      <trkpt lat="45.22371" lon="6.02226">
        <ele>1700</ele>
        <time>2021-01-02T13:42:03.000Z</time>
      </trkpt>
      <trkpt lat="45.22373" lon="6.02228">
        <ele>1699.5999755859</ele>
        <time>2021-01-02T13:42:05.000Z</time>
      </trkpt>
      <trkpt lat="45.22372" lon="6.0222">
        <ele>1699.5999755859</ele>
        <time>2021-01-02T13:42:09.000Z</time>
      </trkpt>
      <trkpt lat="45.22373" lon="6.02207">
        <ele>1699.1999511719</ele>
        <time>2021-01-02T13:42:13.000Z</time>
      </trkpt>
      <trkpt lat="45.22373" lon="6.02207">
        <ele>1698.5999755859</ele>
        <time>2021-01-02T13:42:14.000Z</time>
      </trkpt>
      <trkpt lat="45.22373" lon="6.02207">
        <ele>1697.1999511719</ele>
        <time>2021-01-02T13:42:16.000Z</time>
      </trkpt>
      <trkpt lat="45.22373" lon="6.02207">
        <ele>1695.8000488281</ele>
        <time>2021-01-02T13:42:18.000Z</time>
      </trkpt>
      <trkpt lat="45.22373" lon="6.02207">
        <ele>1694.8000488281</ele>
        <time>2021-01-02T13:42:23.000Z</time>
      </trkpt>
      <trkpt lat="45.22372" lon="6.02199">
        <ele>1694.5999755859</ele>
        <time>2021-01-02T13:42:26.000Z</time>
      </trkpt>
      <trkpt lat="45.22366" lon="6.02187">
        <ele>1694.4000244141</ele>
        <time>2021-01-02T13:42:29.000Z</time>
      </trkpt>
      <trkpt lat="45.22365" lon="6.02181">
        <ele>1694</ele>
        <time>2021-01-02T13:42:30.000Z</time>
      </trkpt>
      <trkpt lat="45.22364" lon="6.02176">
        <ele>1693.1999511719</ele>
        <time>2021-01-02T13:42:31.000Z</time>
      </trkpt>
      <trkpt lat="45.22361" lon="6.02171">
        <ele>1692.4000244141</ele>
        <time>2021-01-02T13:42:32.000Z</time>
      </trkpt>
      <trkpt lat="45.22358" lon="6.02164">
        <ele>1691.1999511719</ele>
        <time>2021-01-02T13:42:33.000Z</time>
      </trkpt>
      <trkpt lat="45.22354" lon="6.02158">
        <ele>1690</ele>
        <time>2021-01-02T13:42:34.000Z</time>
      </trkpt>
      <trkpt lat="45.22351" lon="6.02154">
        <ele>1688.5999755859</ele>
        <time>2021-01-02T13:42:35.000Z</time>
      </trkpt>
      <trkpt lat="45.22347" lon="6.0215">
        <ele>1687.1999511719</ele>
        <time>2021-01-02T13:42:36.000Z</time>
      </trkpt>
      <trkpt lat="45.22345" lon="6.02146">
        <ele>1685.8000488281</ele>
        <time>2021-01-02T13:42:37.000Z</time>
      </trkpt>
      <trkpt lat="45.22342" lon="6.02143">
        <ele>1684.4000244141</ele>
        <time>2021-01-02T13:42:38.000Z</time>
      </trkpt>
      <trkpt lat="45.22339" lon="6.0214">
        <ele>1683</ele>
        <time>2021-01-02T13:42:39.000Z</time>
      </trkpt>
      <trkpt lat="45.22335" lon="6.02137">
        <ele>1682</ele>
        <time>2021-01-02T13:42:40.000Z</time>
      </trkpt>
      <trkpt lat="45.22333" lon="6.02134">
        <ele>1680.5999755859</ele>
        <time>2021-01-02T13:42:42.000Z</time>
      </trkpt>
      <trkpt lat="45.22333" lon="6.02134">
        <ele>1680</ele>
        <time>2021-01-02T13:42:43.000Z</time>
      </trkpt>
      <trkpt lat="45.22333" lon="6.02133">
        <ele>1679.4000244141</ele>
        <time>2021-01-02T13:42:44.000Z</time>
      </trkpt>
      <trkpt lat="45.22329" lon="6.02128">
        <ele>1678.4000244141</ele>
        <time>2021-01-02T13:42:50.000Z</time>
      </trkpt>
      <trkpt lat="45.22322" lon="6.02118">
        <ele>1677.8000488281</ele>
        <time>2021-01-02T13:42:57.000Z</time>
      </trkpt>
      <trkpt lat="45.2231" lon="6.02102">
        <ele>1677.4000244141</ele>
        <time>2021-01-02T13:43:01.000Z</time>
      </trkpt>
      <trkpt lat="45.22307" lon="6.02087">
        <ele>1676.4000244141</ele>
        <time>2021-01-02T13:43:04.000Z</time>
      </trkpt>
      <trkpt lat="45.22306" lon="6.02082">
        <ele>1676</ele>
        <time>2021-01-02T13:43:05.000Z</time>
      </trkpt>
      <trkpt lat="45.22305" lon="6.0207">
        <ele>1674.8000488281</ele>
        <time>2021-01-02T13:43:08.000Z</time>
      </trkpt>
      <trkpt lat="45.22304" lon="6.02067">
        <ele>1674.1999511719</ele>
        <time>2021-01-02T13:43:10.000Z</time>
      </trkpt>
      <trkpt lat="45.22303" lon="6.02066">
        <ele>1673.1999511719</ele>
        <time>2021-01-02T13:43:12.000Z</time>
      </trkpt>
      <trkpt lat="45.22303" lon="6.02066">
        <ele>1672.4000244141</ele>
        <time>2021-01-02T13:43:15.000Z</time>
      </trkpt>
      <trkpt lat="45.22302" lon="6.02064">
        <ele>1672.1999511719</ele>
        <time>2021-01-02T13:43:18.000Z</time>
      </trkpt>
      <trkpt lat="45.22301" lon="6.02062">
        <ele>1672</ele>
        <time>2021-01-02T13:43:20.000Z</time>
      </trkpt>
      <trkpt lat="45.22294" lon="6.02054">
        <ele>1671.8000488281</ele>
        <time>2021-01-02T13:43:23.000Z</time>
      </trkpt>
      <trkpt lat="45.22289" lon="6.02053">
        <ele>1671.8000488281</ele>
        <time>2021-01-02T13:43:24.000Z</time>
      </trkpt>
      <trkpt lat="45.22276" lon="6.02032">
        <ele>1671</ele>
        <time>2021-01-02T13:43:27.000Z</time>
      </trkpt>
      <trkpt lat="45.22276" lon="6.02019">
        <ele>1669.4000244141</ele>
        <time>2021-01-02T13:43:29.000Z</time>
      </trkpt>
      <trkpt lat="45.22275" lon="6.02014">
        <ele>1668.1999511719</ele>
        <time>2021-01-02T13:43:30.000Z</time>
      </trkpt>
      <trkpt lat="45.22275" lon="6.02011">
        <ele>1667</ele>
        <time>2021-01-02T13:43:31.000Z</time>
      </trkpt>
      <trkpt lat="45.22275" lon="6.02011">
        <ele>1665.8000488281</ele>
        <time>2021-01-02T13:43:32.000Z</time>
      </trkpt>
      <trkpt lat="45.22275" lon="6.02011">
        <ele>1664.8000488281</ele>
        <time>2021-01-02T13:43:33.000Z</time>
      </trkpt>
      <trkpt lat="45.22275" lon="6.02011">
        <ele>1664.1999511719</ele>
        <time>2021-01-02T13:43:34.000Z</time>
      </trkpt>
      <trkpt lat="45.22272" lon="6.02005">
        <ele>1662.5999755859</ele>
        <time>2021-01-02T13:43:36.000Z</time>
      </trkpt>
      <trkpt lat="45.22271" lon="6.02">
        <ele>1662.4000244141</ele>
        <time>2021-01-02T13:43:37.000Z</time>
      </trkpt>
      <trkpt lat="45.22271" lon="6.01988">
        <ele>1661.8000488281</ele>
        <time>2021-01-02T13:43:39.000Z</time>
      </trkpt>
      <trkpt lat="45.22272" lon="6.01982">
        <ele>1661.4000244141</ele>
        <time>2021-01-02T13:43:40.000Z</time>
      </trkpt>
      <trkpt lat="45.22272" lon="6.01983">
        <ele>1659.5999755859</ele>
        <time>2021-01-02T13:43:42.000Z</time>
      </trkpt>
      <trkpt lat="45.22272" lon="6.01983">
        <ele>1658.4000244141</ele>
        <time>2021-01-02T13:43:43.000Z</time>
      </trkpt>
      <trkpt lat="45.22272" lon="6.01982">
        <ele>1657.4000244141</ele>
        <time>2021-01-02T13:43:44.000Z</time>
      </trkpt>
      <trkpt lat="45.22271" lon="6.01981">
        <ele>1656.4000244141</ele>
        <time>2021-01-02T13:43:45.000Z</time>
      </trkpt>
      <trkpt lat="45.22268" lon="6.01983">
        <ele>1655.5999755859</ele>
        <time>2021-01-02T13:43:46.000Z</time>
      </trkpt>
      <trkpt lat="45.22264" lon="6.01969">
        <ele>1654.5999755859</ele>
        <time>2021-01-02T13:43:48.000Z</time>
      </trkpt>
      <trkpt lat="45.22261" lon="6.01961">
        <ele>1654.1999511719</ele>
        <time>2021-01-02T13:43:49.000Z</time>
      </trkpt>
      <trkpt lat="45.22259" lon="6.01947">
        <ele>1652.8000488281</ele>
        <time>2021-01-02T13:43:51.000Z</time>
      </trkpt>
      <trkpt lat="45.22258" lon="6.01944">
        <ele>1651.4000244141</ele>
        <time>2021-01-02T13:43:52.000Z</time>
      </trkpt>
      <trkpt lat="45.22258" lon="6.01942">
        <ele>1650</ele>
        <time>2021-01-02T13:43:53.000Z</time>
      </trkpt>
      <trkpt lat="45.22258" lon="6.01941">
        <ele>1648.5999755859</ele>
        <time>2021-01-02T13:43:54.000Z</time>
      </trkpt>
      <trkpt lat="45.22258" lon="6.01941">
        <ele>1647.4000244141</ele>
        <time>2021-01-02T13:43:55.000Z</time>
      </trkpt>
      <trkpt lat="45.22257" lon="6.01939">
        <ele>1645.5999755859</ele>
        <time>2021-01-02T13:43:57.000Z</time>
      </trkpt>
      <trkpt lat="45.22255" lon="6.01934">
        <ele>1645</ele>
        <time>2021-01-02T13:43:59.000Z</time>
      </trkpt>
      <trkpt lat="45.22253" lon="6.0193">
        <ele>1644.5999755859</ele>
        <time>2021-01-02T13:44:00.000Z</time>
      </trkpt>
      <trkpt lat="45.22251" lon="6.01918">
        <ele>1644.4000244141</ele>
        <time>2021-01-02T13:44:02.000Z</time>
      </trkpt>
      <trkpt lat="45.22251" lon="6.01911">
        <ele>1644.4000244141</ele>
        <time>2021-01-02T13:44:03.000Z</time>
      </trkpt>
      <trkpt lat="45.2225" lon="6.01888">
        <ele>1643.4000244141</ele>
        <time>2021-01-02T13:44:06.000Z</time>
      </trkpt>
      <trkpt lat="45.22251" lon="6.0188">
        <ele>1642.8000488281</ele>
        <time>2021-01-02T13:44:07.000Z</time>
      </trkpt>
      <trkpt lat="45.22251" lon="6.01873">
        <ele>1642</ele>
        <time>2021-01-02T13:44:08.000Z</time>
      </trkpt>
      <trkpt lat="45.22253" lon="6.01864">
        <ele>1640.5999755859</ele>
        <time>2021-01-02T13:44:10.000Z</time>
      </trkpt>
      <trkpt lat="45.22254" lon="6.0186">
        <ele>1640</ele>
        <time>2021-01-02T13:44:11.000Z</time>
      </trkpt>
      <trkpt lat="45.22253" lon="6.01856">
        <ele>1639.4000244141</ele>
        <time>2021-01-02T13:44:12.000Z</time>
      </trkpt>
      <trkpt lat="45.22249" lon="6.01843">
        <ele>1638</ele>
        <time>2021-01-02T13:44:15.000Z</time>
      </trkpt>
      <trkpt lat="45.22251" lon="6.01838">
        <ele>1637.4000244141</ele>
        <time>2021-01-02T13:44:16.000Z</time>
      </trkpt>
      <trkpt lat="45.22253" lon="6.01834">
        <ele>1637</ele>
        <time>2021-01-02T13:44:17.000Z</time>
      </trkpt>
      <trkpt lat="45.22255" lon="6.01831">
        <ele>1636.4000244141</ele>
        <time>2021-01-02T13:44:18.000Z</time>
      </trkpt>
      <trkpt lat="45.22257" lon="6.01829">
        <ele>1635.8000488281</ele>
        <time>2021-01-02T13:44:19.000Z</time>
      </trkpt>
      <trkpt lat="45.22259" lon="6.01827">
        <ele>1635.1999511719</ele>
        <time>2021-01-02T13:44:20.000Z</time>
      </trkpt>
      <trkpt lat="45.2226" lon="6.01825">
        <ele>1634.8000488281</ele>
        <time>2021-01-02T13:44:21.000Z</time>
      </trkpt>
      <trkpt lat="45.22262" lon="6.01824">
        <ele>1633.8000488281</ele>
        <time>2021-01-02T13:44:23.000Z</time>
      </trkpt>
      <trkpt lat="45.22263" lon="6.01823">
        <ele>1633.4000244141</ele>
        <time>2021-01-02T13:44:24.000Z</time>
      </trkpt>
      <trkpt lat="45.22272" lon="6.01821">
        <ele>1633.1999511719</ele>
        <time>2021-01-02T13:44:27.000Z</time>
      </trkpt>
      <trkpt lat="45.22273" lon="6.01815">
        <ele>1633.1999511719</ele>
        <time>2021-01-02T13:44:28.000Z</time>
      </trkpt>
      <trkpt lat="45.22271" lon="6.01808">
        <ele>1633</ele>
        <time>2021-01-02T13:44:29.000Z</time>
      </trkpt>
      <trkpt lat="45.22274" lon="6.01794">
        <ele>1632.1999511719</ele>
        <time>2021-01-02T13:44:31.000Z</time>
      </trkpt>
      <trkpt lat="45.22273" lon="6.01789">
        <ele>1631.5999755859</ele>
        <time>2021-01-02T13:44:32.000Z</time>
      </trkpt>
      <trkpt lat="45.22272" lon="6.01783">
        <ele>1630.8000488281</ele>
        <time>2021-01-02T13:44:33.000Z</time>
      </trkpt>
      <trkpt lat="45.22272" lon="6.01778">
        <ele>1629.5999755859</ele>
        <time>2021-01-02T13:44:34.000Z</time>
      </trkpt>
      <trkpt lat="45.2227" lon="6.01774">
        <ele>1628.4000244141</ele>
        <time>2021-01-02T13:44:35.000Z</time>
      </trkpt>
      <trkpt lat="45.22268" lon="6.01769">
        <ele>1627.1999511719</ele>
        <time>2021-01-02T13:44:36.000Z</time>
      </trkpt>
      <trkpt lat="45.22266" lon="6.01764">
        <ele>1625.8000488281</ele>
        <time>2021-01-02T13:44:37.000Z</time>
      </trkpt>
      <trkpt lat="45.22265" lon="6.01758">
        <ele>1624.4000244141</ele>
        <time>2021-01-02T13:44:38.000Z</time>
      </trkpt>
      <trkpt lat="45.22265" lon="6.01753">
        <ele>1623.4000244141</ele>
        <time>2021-01-02T13:44:39.000Z</time>
      </trkpt>
      <trkpt lat="45.22265" lon="6.01748">
        <ele>1622.1999511719</ele>
        <time>2021-01-02T13:44:40.000Z</time>
      </trkpt>
      <trkpt lat="45.22266" lon="6.01744">
        <ele>1621.1999511719</ele>
        <time>2021-01-02T13:44:41.000Z</time>
      </trkpt>
      <trkpt lat="45.22267" lon="6.0174">
        <ele>1620.1999511719</ele>
        <time>2021-01-02T13:44:42.000Z</time>
      </trkpt>
      <trkpt lat="45.22268" lon="6.01733">
        <ele>1618.4000244141</ele>
        <time>2021-01-02T13:44:44.000Z</time>
      </trkpt>
      <trkpt lat="45.22267" lon="6.0172">
        <ele>1617.4000244141</ele>
        <time>2021-01-02T13:44:48.000Z</time>
      </trkpt>
      <trkpt lat="45.22267" lon="6.01707">
        <ele>1617.4000244141</ele>
        <time>2021-01-02T13:44:53.000Z</time>
      </trkpt>
      <trkpt lat="45.22267" lon="6.01695">
        <ele>1617.4000244141</ele>
        <time>2021-01-02T13:44:58.000Z</time>
      </trkpt>
      <trkpt lat="45.22266" lon="6.01685">
        <ele>1617.5999755859</ele>
        <time>2021-01-02T13:45:03.000Z</time>
      </trkpt>
      <trkpt lat="45.22266" lon="6.01684">
        <ele>1617.5999755859</ele>
        <time>2021-01-02T13:45:04.000Z</time>
      </trkpt>
      <trkpt lat="45.22266" lon="6.01684">
        <ele>1617.8000488281</ele>
        <time>2021-01-02T13:45:07.000Z</time>
      </trkpt>
      <trkpt lat="45.22266" lon="6.01684">
        <ele>1617.8000488281</ele>
        <time>2021-01-02T13:45:15.000Z</time>
      </trkpt>
      <trkpt lat="45.22265" lon="6.01682">
        <ele>1617.8000488281</ele>
        <time>2021-01-02T13:45:18.000Z</time>
      </trkpt>
      <trkpt lat="45.22266" lon="6.01679">
        <ele>1617.8000488281</ele>
        <time>2021-01-02T13:45:20.000Z</time>
      </trkpt>
      <trkpt lat="45.22266" lon="6.01669">
        <ele>1618</ele>
        <time>2021-01-02T13:45:24.000Z</time>
      </trkpt>
      <trkpt lat="45.22265" lon="6.01666">
        <ele>1618.1999511719</ele>
        <time>2021-01-02T13:45:28.000Z</time>
      </trkpt>
      <trkpt lat="45.22264" lon="6.01666">
        <ele>1618.4000244141</ele>
        <time>2021-01-02T13:45:30.000Z</time>
      </trkpt>
      <trkpt lat="45.22265" lon="6.01665">
        <ele>1618.4000244141</ele>
        <time>2021-01-02T13:45:32.000Z</time>
      </trkpt>
      <trkpt lat="45.22265" lon="6.01663">
        <ele>1618.4000244141</ele>
        <time>2021-01-02T13:45:33.000Z</time>
      </trkpt>
      <trkpt lat="45.22264" lon="6.01658">
        <ele>1618.8000488281</ele>
        <time>2021-01-02T13:45:38.000Z</time>
      </trkpt>
      <trkpt lat="45.22264" lon="6.01658">
        <ele>1619.1999511719</ele>
        <time>2021-01-02T13:45:44.000Z</time>
      </trkpt>
      <trkpt lat="45.22264" lon="6.01658">
        <ele>1619.1999511719</ele>
        <time>2021-01-02T13:45:48.000Z</time>
      </trkpt>
      <trkpt lat="45.22264" lon="6.01655">
        <ele>1619.4000244141</ele>
        <time>2021-01-02T13:45:52.000Z</time>
      </trkpt>
      <trkpt lat="45.22263" lon="6.01654">
        <ele>1619.4000244141</ele>
        <time>2021-01-02T13:45:53.000Z</time>
      </trkpt>
      <trkpt lat="45.22263" lon="6.01645">
        <ele>1619.8000488281</ele>
        <time>2021-01-02T13:45:57.000Z</time>
      </trkpt>
      <trkpt lat="45.22263" lon="6.01639">
        <ele>1620.1999511719</ele>
        <time>2021-01-02T13:46:01.000Z</time>
      </trkpt>
      <trkpt lat="45.22262" lon="6.01627">
        <ele>1620.4000244141</ele>
        <time>2021-01-02T13:46:06.000Z</time>
      </trkpt>
      <trkpt lat="45.22262" lon="6.01625">
        <ele>1620.4000244141</ele>
        <time>2021-01-02T13:46:07.000Z</time>
      </trkpt>
      <trkpt lat="45.22262" lon="6.01623">
        <ele>1620.4000244141</ele>
        <time>2021-01-02T13:46:08.000Z</time>
      </trkpt>
      <trkpt lat="45.22262" lon="6.01618">
        <ele>1620.5999755859</ele>
        <time>2021-01-02T13:46:11.000Z</time>
      </trkpt>
      <trkpt lat="45.22261" lon="6.01616">
        <ele>1620.5999755859</ele>
        <time>2021-01-02T13:46:12.000Z</time>
      </trkpt>
      <trkpt lat="45.22261" lon="6.01607">
        <ele>1620.8000488281</ele>
        <time>2021-01-02T13:46:17.000Z</time>
      </trkpt>
      <trkpt lat="45.2226" lon="6.01599">
        <ele>1620.8000488281</ele>
        <time>2021-01-02T13:46:20.000Z</time>
      </trkpt>
      <trkpt lat="45.22259" lon="6.01595">
        <ele>1620.8000488281</ele>
        <time>2021-01-02T13:46:23.000Z</time>
      </trkpt>
      <trkpt lat="45.22258" lon="6.01594">
        <ele>1620.5999755859</ele>
        <time>2021-01-02T13:46:29.000Z</time>
      </trkpt>
      <trkpt lat="45.22258" lon="6.01594">
        <ele>1620.4000244141</ele>
        <time>2021-01-02T13:46:36.000Z</time>
      </trkpt>
      <trkpt lat="45.22258" lon="6.01594">
        <ele>1620.1999511719</ele>
        <time>2021-01-02T13:46:48.000Z</time>
      </trkpt>
      <trkpt lat="45.22258" lon="6.01594">
        <ele>1620.4000244141</ele>
        <time>2021-01-02T13:47:12.000Z</time>
      </trkpt>
      <trkpt lat="45.22258" lon="6.01594">
        <ele>1620.4000244141</ele>
        <time>2021-01-02T13:47:28.000Z</time>
      </trkpt>
      <trkpt lat="45.22258" lon="6.01591">
        <ele>1620.4000244141</ele>
        <time>2021-01-02T13:47:33.000Z</time>
      </trkpt>
      <trkpt lat="45.22258" lon="6.01591">
        <ele>1620.1999511719</ele>
        <time>2021-01-02T13:47:39.000Z</time>
      </trkpt>
      <trkpt lat="45.22258" lon="6.01588">
        <ele>1620.1999511719</ele>
        <time>2021-01-02T13:47:42.000Z</time>
      </trkpt>
      <trkpt lat="45.22258" lon="6.01585">
        <ele>1620.1999511719</ele>
        <time>2021-01-02T13:47:44.000Z</time>
      </trkpt>
      <trkpt lat="45.22255" lon="6.01577">
        <ele>1620.1999511719</ele>
        <time>2021-01-02T13:47:49.000Z</time>
      </trkpt>
      <trkpt lat="45.22254" lon="6.01567">
        <ele>1620.1999511719</ele>
        <time>2021-01-02T13:47:53.000Z</time>
      </trkpt>
      <trkpt lat="45.22253" lon="6.01563">
        <ele>1620.1999511719</ele>
        <time>2021-01-02T13:47:54.000Z</time>
      </trkpt>
      <trkpt lat="45.2225" lon="6.01551">
        <ele>1620.1999511719</ele>
        <time>2021-01-02T13:47:59.000Z</time>
      </trkpt>
      <trkpt lat="45.22248" lon="6.01543">
        <ele>1620</ele>
        <time>2021-01-02T13:48:02.000Z</time>
      </trkpt>
      <trkpt lat="45.22248" lon="6.0154">
        <ele>1620</ele>
        <time>2021-01-02T13:48:03.000Z</time>
      </trkpt>
      <trkpt lat="45.22246" lon="6.01527">
        <ele>1619.8000488281</ele>
        <time>2021-01-02T13:48:09.000Z</time>
      </trkpt>
      <trkpt lat="45.22244" lon="6.01514">
        <ele>1620</ele>
        <time>2021-01-02T13:48:15.000Z</time>
      </trkpt>
      <trkpt lat="45.22242" lon="6.01502">
        <ele>1620</ele>
        <time>2021-01-02T13:48:20.000Z</time>
      </trkpt>
      <trkpt lat="45.22242" lon="6.015">
        <ele>1619.8000488281</ele>
        <time>2021-01-02T13:48:22.000Z</time>
      </trkpt>
      <trkpt lat="45.22241" lon="6.01495">
        <ele>1619.8000488281</ele>
        <time>2021-01-02T13:48:25.000Z</time>
      </trkpt>
      <trkpt lat="45.2224" lon="6.01483">
        <ele>1619.4000244141</ele>
        <time>2021-01-02T13:48:30.000Z</time>
      </trkpt>
      <trkpt lat="45.22239" lon="6.01477">
        <ele>1619.4000244141</ele>
        <time>2021-01-02T13:48:32.000Z</time>
      </trkpt>
      <trkpt lat="45.22234" lon="6.01454">
        <ele>1618.5999755859</ele>
        <time>2021-01-02T13:48:38.000Z</time>
      </trkpt>
      <trkpt lat="45.22233" lon="6.0145">
        <ele>1618.4000244141</ele>
        <time>2021-01-02T13:48:39.000Z</time>
      </trkpt>
      <trkpt lat="45.2223" lon="6.01436">
        <ele>1617.1999511719</ele>
        <time>2021-01-02T13:48:44.000Z</time>
      </trkpt>
      <trkpt lat="45.2223" lon="6.01432">
        <ele>1617</ele>
        <time>2021-01-02T13:48:45.000Z</time>
      </trkpt>
      <trkpt lat="45.22235" lon="6.01407">
        <ele>1616</ele>
        <time>2021-01-02T13:48:50.000Z</time>
      </trkpt>
      <trkpt lat="45.22239" lon="6.01386">
        <ele>1614.4000244141</ele>
        <time>2021-01-02T13:48:53.000Z</time>
      </trkpt>
      <trkpt lat="45.22241" lon="6.01382">
        <ele>1613.4000244141</ele>
        <time>2021-01-02T13:48:54.000Z</time>
      </trkpt>
      <trkpt lat="45.22243" lon="6.01378">
        <ele>1612.4000244141</ele>
        <time>2021-01-02T13:48:55.000Z</time>
      </trkpt>
      <trkpt lat="45.22247" lon="6.01375">
        <ele>1611.4000244141</ele>
        <time>2021-01-02T13:48:56.000Z</time>
      </trkpt>
      <trkpt lat="45.22252" lon="6.01371">
        <ele>1610.4000244141</ele>
        <time>2021-01-02T13:48:57.000Z</time>
      </trkpt>
      <trkpt lat="45.22255" lon="6.01367">
        <ele>1609.4000244141</ele>
        <time>2021-01-02T13:48:58.000Z</time>
      </trkpt>
      <trkpt lat="45.22261" lon="6.01362">
        <ele>1608.4000244141</ele>
        <time>2021-01-02T13:48:59.000Z</time>
      </trkpt>
      <trkpt lat="45.22265" lon="6.01358">
        <ele>1607.5999755859</ele>
        <time>2021-01-02T13:49:00.000Z</time>
      </trkpt>
      <trkpt lat="45.22265" lon="6.01354">
        <ele>1606.4000244141</ele>
        <time>2021-01-02T13:49:01.000Z</time>
      </trkpt>
      <trkpt lat="45.22268" lon="6.01352">
        <ele>1605.4000244141</ele>
        <time>2021-01-02T13:49:02.000Z</time>
      </trkpt>
      <trkpt lat="45.2227" lon="6.01349">
        <ele>1604.1999511719</ele>
        <time>2021-01-02T13:49:03.000Z</time>
      </trkpt>
      <trkpt lat="45.22273" lon="6.01345">
        <ele>1603.1999511719</ele>
        <time>2021-01-02T13:49:04.000Z</time>
      </trkpt>
      <trkpt lat="45.22276" lon="6.01333">
        <ele>1601.4000244141</ele>
        <time>2021-01-02T13:49:06.000Z</time>
      </trkpt>
      <trkpt lat="45.22277" lon="6.0133">
        <ele>1600.8000488281</ele>
        <time>2021-01-02T13:49:07.000Z</time>
      </trkpt>
      <trkpt lat="45.22279" lon="6.01327">
        <ele>1600.4000244141</ele>
        <time>2021-01-02T13:49:08.000Z</time>
      </trkpt>
      <trkpt lat="45.22281" lon="6.01325">
        <ele>1599</ele>
        <time>2021-01-02T13:49:10.000Z</time>
      </trkpt>
      <trkpt lat="45.22282" lon="6.01322">
        <ele>1598.4000244141</ele>
        <time>2021-01-02T13:49:11.000Z</time>
      </trkpt>
      <trkpt lat="45.22282" lon="6.01322">
        <ele>1597.4000244141</ele>
        <time>2021-01-02T13:49:12.000Z</time>
      </trkpt>
      <trkpt lat="45.22282" lon="6.01322">
        <ele>1596.4000244141</ele>
        <time>2021-01-02T13:49:17.000Z</time>
      </trkpt>
      <trkpt lat="45.22284" lon="6.0132">
        <ele>1596.4000244141</ele>
        <time>2021-01-02T13:49:19.000Z</time>
      </trkpt>
      <trkpt lat="45.22287" lon="6.01316">
        <ele>1596.4000244141</ele>
        <time>2021-01-02T13:49:21.000Z</time>
      </trkpt>
      <trkpt lat="45.22288" lon="6.01312">
        <ele>1596.4000244141</ele>
        <time>2021-01-02T13:49:22.000Z</time>
      </trkpt>
      <trkpt lat="45.22286" lon="6.01309">
        <ele>1596.1999511719</ele>
        <time>2021-01-02T13:49:23.000Z</time>
      </trkpt>
      <trkpt lat="45.22275" lon="6.01308">
        <ele>1595.1999511719</ele>
        <time>2021-01-02T13:49:26.000Z</time>
      </trkpt>
      <trkpt lat="45.2227" lon="6.01309">
        <ele>1594.5999755859</ele>
        <time>2021-01-02T13:49:27.000Z</time>
      </trkpt>
      <trkpt lat="45.22266" lon="6.01311">
        <ele>1594</ele>
        <time>2021-01-02T13:49:28.000Z</time>
      </trkpt>
      <trkpt lat="45.22258" lon="6.01311">
        <ele>1592.4000244141</ele>
        <time>2021-01-02T13:49:30.000Z</time>
      </trkpt>
      <trkpt lat="45.22251" lon="6.01307">
        <ele>1590.5999755859</ele>
        <time>2021-01-02T13:49:32.000Z</time>
      </trkpt>
      <trkpt lat="45.22249" lon="6.01304">
        <ele>1589.5999755859</ele>
        <time>2021-01-02T13:49:33.000Z</time>
      </trkpt>
      <trkpt lat="45.22246" lon="6.01299">
        <ele>1588.4000244141</ele>
        <time>2021-01-02T13:49:34.000Z</time>
      </trkpt>
      <trkpt lat="45.22246" lon="6.01293">
        <ele>1587</ele>
        <time>2021-01-02T13:49:35.000Z</time>
      </trkpt>
      <trkpt lat="45.22247" lon="6.01286">
        <ele>1584.5999755859</ele>
        <time>2021-01-02T13:49:36.000Z</time>
      </trkpt>
      <trkpt lat="45.22247" lon="6.01282">
        <ele>1583.4000244141</ele>
        <time>2021-01-02T13:49:37.000Z</time>
      </trkpt>
      <trkpt lat="45.22247" lon="6.01279">
        <ele>1582.1999511719</ele>
        <time>2021-01-02T13:49:38.000Z</time>
      </trkpt>
      <trkpt lat="45.22249" lon="6.01274">
        <ele>1581</ele>
        <time>2021-01-02T13:49:39.000Z</time>
      </trkpt>
      <trkpt lat="45.22252" lon="6.01268">
        <ele>1579.8000488281</ele>
        <time>2021-01-02T13:49:40.000Z</time>
      </trkpt>
      <trkpt lat="45.22253" lon="6.01261">
        <ele>1578.8000488281</ele>
        <time>2021-01-02T13:49:41.000Z</time>
      </trkpt>
      <trkpt lat="45.22256" lon="6.01247">
        <ele>1576.8000488281</ele>
        <time>2021-01-02T13:49:43.000Z</time>
      </trkpt>
      <trkpt lat="45.22257" lon="6.01242">
        <ele>1575.5999755859</ele>
        <time>2021-01-02T13:49:44.000Z</time>
      </trkpt>
      <trkpt lat="45.22259" lon="6.01238">
        <ele>1574</ele>
        <time>2021-01-02T13:49:45.000Z</time>
      </trkpt>
      <trkpt lat="45.2226" lon="6.01233">
        <ele>1572.4000244141</ele>
        <time>2021-01-02T13:49:46.000Z</time>
      </trkpt>
      <trkpt lat="45.22262" lon="6.01226">
        <ele>1570.8000488281</ele>
        <time>2021-01-02T13:49:47.000Z</time>
      </trkpt>
      <trkpt lat="45.22266" lon="6.01217">
        <ele>1569.4000244141</ele>
        <time>2021-01-02T13:49:48.000Z</time>
      </trkpt>
      <trkpt lat="45.22268" lon="6.01207">
        <ele>1568</ele>
        <time>2021-01-02T13:49:49.000Z</time>
      </trkpt>
      <trkpt lat="45.22268" lon="6.01197">
        <ele>1566.8000488281</ele>
        <time>2021-01-02T13:49:50.000Z</time>
      </trkpt>
      <trkpt lat="45.22267" lon="6.01189">
        <ele>1565.4000244141</ele>
        <time>2021-01-02T13:49:51.000Z</time>
      </trkpt>
      <trkpt lat="45.22267" lon="6.01182">
        <ele>1563.8000488281</ele>
        <time>2021-01-02T13:49:52.000Z</time>
      </trkpt>
      <trkpt lat="45.22267" lon="6.01177">
        <ele>1561.8000488281</ele>
        <time>2021-01-02T13:49:53.000Z</time>
      </trkpt>
      <trkpt lat="45.22267" lon="6.01171">
        <ele>1560</ele>
        <time>2021-01-02T13:49:54.000Z</time>
      </trkpt>
      <trkpt lat="45.22267" lon="6.01166">
        <ele>1558.1999511719</ele>
        <time>2021-01-02T13:49:55.000Z</time>
      </trkpt>
      <trkpt lat="45.22268" lon="6.0116">
        <ele>1556.8000488281</ele>
        <time>2021-01-02T13:49:56.000Z</time>
      </trkpt>
      <trkpt lat="45.22268" lon="6.01155">
        <ele>1555.4000244141</ele>
        <time>2021-01-02T13:49:57.000Z</time>
      </trkpt>
      <trkpt lat="45.22268" lon="6.01152">
        <ele>1554.4000244141</ele>
        <time>2021-01-02T13:49:58.000Z</time>
      </trkpt>
      <trkpt lat="45.22268" lon="6.01149">
        <ele>1553.4000244141</ele>
        <time>2021-01-02T13:49:59.000Z</time>
      </trkpt>
      <trkpt lat="45.22268" lon="6.01148">
        <ele>1551.5999755859</ele>
        <time>2021-01-02T13:50:00.000Z</time>
      </trkpt>
      <trkpt lat="45.22268" lon="6.01148">
        <ele>1550.1999511719</ele>
        <time>2021-01-02T13:50:02.000Z</time>
      </trkpt>
      <trkpt lat="45.22268" lon="6.01148">
        <ele>1549.1999511719</ele>
        <time>2021-01-02T13:50:05.000Z</time>
      </trkpt>
      <trkpt lat="45.22268" lon="6.01148">
        <ele>1549</ele>
        <time>2021-01-02T13:50:06.000Z</time>
      </trkpt>
      <trkpt lat="45.22268" lon="6.01148">
        <ele>1548.8000488281</ele>
        <time>2021-01-02T13:50:15.000Z</time>
      </trkpt>
      <trkpt lat="45.22268" lon="6.01148">
        <ele>1548.5999755859</ele>
        <time>2021-01-02T13:50:29.000Z</time>
      </trkpt>
      <trkpt lat="45.22268" lon="6.01148">
        <ele>1548.5999755859</ele>
        <time>2021-01-02T13:50:43.000Z</time>
      </trkpt>
      <trkpt lat="45.22267" lon="6.01145">
        <ele>1548.5999755859</ele>
        <time>2021-01-02T13:50:54.000Z</time>
      </trkpt>
      <trkpt lat="45.22262" lon="6.01122">
        <ele>1548.4000244141</ele>
        <time>2021-01-02T13:50:58.000Z</time>
      </trkpt>
      <trkpt lat="45.22261" lon="6.01115">
        <ele>1548.4000244141</ele>
        <time>2021-01-02T13:50:59.000Z</time>
      </trkpt>
      <trkpt lat="45.22261" lon="6.01103">
        <ele>1548</ele>
        <time>2021-01-02T13:51:01.000Z</time>
      </trkpt>
      <trkpt lat="45.22261" lon="6.01096">
        <ele>1547.4000244141</ele>
        <time>2021-01-02T13:51:02.000Z</time>
      </trkpt>
      <trkpt lat="45.22259" lon="6.01087">
        <ele>1546.8000488281</ele>
        <time>2021-01-02T13:51:03.000Z</time>
      </trkpt>
      <trkpt lat="45.2226" lon="6.0107">
        <ele>1545.1999511719</ele>
        <time>2021-01-02T13:51:05.000Z</time>
      </trkpt>
      <trkpt lat="45.22262" lon="6.01055">
        <ele>1543.4000244141</ele>
        <time>2021-01-02T13:51:07.000Z</time>
      </trkpt>
      <trkpt lat="45.22262" lon="6.01047">
        <ele>1542.1999511719</ele>
        <time>2021-01-02T13:51:08.000Z</time>
      </trkpt>
      <trkpt lat="45.22263" lon="6.01039">
        <ele>1541</ele>
        <time>2021-01-02T13:51:09.000Z</time>
      </trkpt>
      <trkpt lat="45.22264" lon="6.01031">
        <ele>1539.5999755859</ele>
        <time>2021-01-02T13:51:10.000Z</time>
      </trkpt>
      <trkpt lat="45.22265" lon="6.01024">
        <ele>1538.4000244141</ele>
        <time>2021-01-02T13:51:11.000Z</time>
      </trkpt>
      <trkpt lat="45.22265" lon="6.01017">
        <ele>1537</ele>
        <time>2021-01-02T13:51:12.000Z</time>
      </trkpt>
      <trkpt lat="45.22266" lon="6.01012">
        <ele>1534.4000244141</ele>
        <time>2021-01-02T13:51:13.000Z</time>
      </trkpt>
      <trkpt lat="45.22267" lon="6.01007">
        <ele>1533.1999511719</ele>
        <time>2021-01-02T13:51:14.000Z</time>
      </trkpt>
      <trkpt lat="45.22269" lon="6.01003">
        <ele>1532.1999511719</ele>
        <time>2021-01-02T13:51:15.000Z</time>
      </trkpt>
      <trkpt lat="45.22267" lon="6.00999">
        <ele>1531.1999511719</ele>
        <time>2021-01-02T13:51:16.000Z</time>
      </trkpt>
      <trkpt lat="45.22264" lon="6.00996">
        <ele>1530.4000244141</ele>
        <time>2021-01-02T13:51:17.000Z</time>
      </trkpt>
      <trkpt lat="45.22264" lon="6.00985">
        <ele>1529</ele>
        <time>2021-01-02T13:51:19.000Z</time>
      </trkpt>
      <trkpt lat="45.22265" lon="6.00981">
        <ele>1528</ele>
        <time>2021-01-02T13:51:20.000Z</time>
      </trkpt>
      <trkpt lat="45.22266" lon="6.00977">
        <ele>1527</ele>
        <time>2021-01-02T13:51:21.000Z</time>
      </trkpt>
      <trkpt lat="45.22268" lon="6.00973">
        <ele>1526</ele>
        <time>2021-01-02T13:51:22.000Z</time>
      </trkpt>
      <trkpt lat="45.22269" lon="6.0097">
        <ele>1524.8000488281</ele>
        <time>2021-01-02T13:51:23.000Z</time>
      </trkpt>
      <trkpt lat="45.2227" lon="6.00967">
        <ele>1523.8000488281</ele>
        <time>2021-01-02T13:51:24.000Z</time>
      </trkpt>
      <trkpt lat="45.22272" lon="6.00962">
        <ele>1523</ele>
        <time>2021-01-02T13:51:25.000Z</time>
      </trkpt>
      <trkpt lat="45.22273" lon="6.0096">
        <ele>1522</ele>
        <time>2021-01-02T13:51:26.000Z</time>
      </trkpt>
      <trkpt lat="45.22273" lon="6.0096">
        <ele>1520.5999755859</ele>
        <time>2021-01-02T13:51:28.000Z</time>
      </trkpt>
      <trkpt lat="45.22273" lon="6.0096">
        <ele>1520.1999511719</ele>
        <time>2021-01-02T13:51:29.000Z</time>
      </trkpt>
      <trkpt lat="45.22275" lon="6.00956">
        <ele>1519.4000244141</ele>
        <time>2021-01-02T13:51:33.000Z</time>
      </trkpt>
      <trkpt lat="45.22275" lon="6.00956">
        <ele>1519.1999511719</ele>
        <time>2021-01-02T13:51:35.000Z</time>
      </trkpt>
      <trkpt lat="45.22275" lon="6.00956">
        <ele>1519</ele>
        <time>2021-01-02T13:51:43.000Z</time>
      </trkpt>
      <trkpt lat="45.22276" lon="6.00955">
        <ele>1518.8000488281</ele>
        <time>2021-01-02T13:51:48.000Z</time>
      </trkpt>
      <trkpt lat="45.22277" lon="6.00953">
        <ele>1518.5999755859</ele>
        <time>2021-01-02T13:51:49.000Z</time>
      </trkpt>
      <trkpt lat="45.22279" lon="6.00949">
        <ele>1518.5999755859</ele>
        <time>2021-01-02T13:51:51.000Z</time>
      </trkpt>
      <trkpt lat="45.22282" lon="6.00942">
        <ele>1518.4000244141</ele>
        <time>2021-01-02T13:51:53.000Z</time>
      </trkpt>
      <trkpt lat="45.22284" lon="6.00939">
        <ele>1517.4000244141</ele>
        <time>2021-01-02T13:51:56.000Z</time>
      </trkpt>
      <trkpt lat="45.22286" lon="6.00937">
        <ele>1517</ele>
        <time>2021-01-02T13:51:57.000Z</time>
      </trkpt>
      <trkpt lat="45.22295" lon="6.00929">
        <ele>1515.5999755859</ele>
        <time>2021-01-02T13:52:00.000Z</time>
      </trkpt>
      <trkpt lat="45.22298" lon="6.00927">
        <ele>1514.4000244141</ele>
        <time>2021-01-02T13:52:02.000Z</time>
      </trkpt>
      <trkpt lat="45.22299" lon="6.00925">
        <ele>1512.4000244141</ele>
        <time>2021-01-02T13:52:03.000Z</time>
      </trkpt>
      <trkpt lat="45.22299" lon="6.00925">
        <ele>1510</ele>
        <time>2021-01-02T13:52:04.000Z</time>
      </trkpt>
      <trkpt lat="45.22299" lon="6.00925">
        <ele>1508.5999755859</ele>
        <time>2021-01-02T13:52:05.000Z</time>
      </trkpt>
      <trkpt lat="45.22299" lon="6.00925">
        <ele>1507.4000244141</ele>
        <time>2021-01-02T13:52:07.000Z</time>
      </trkpt>
      <trkpt lat="45.22299" lon="6.00925">
        <ele>1508.4000244141</ele>
        <time>2021-01-02T13:52:08.000Z</time>
      </trkpt>
      <trkpt lat="45.22299" lon="6.00925">
        <ele>1509.5999755859</ele>
        <time>2021-01-02T13:52:11.000Z</time>
      </trkpt>
      <trkpt lat="45.22299" lon="6.00925">
        <ele>1509.5999755859</ele>
        <time>2021-01-02T13:52:12.000Z</time>
      </trkpt>
      <trkpt lat="45.22298" lon="6.00917">
        <ele>1509.1999511719</ele>
        <time>2021-01-02T13:52:19.000Z</time>
      </trkpt>
      <trkpt lat="45.22298" lon="6.00916">
        <ele>1508.5999755859</ele>
        <time>2021-01-02T13:52:22.000Z</time>
      </trkpt>
      <trkpt lat="45.22299" lon="6.00914">
        <ele>1508.5999755859</ele>
        <time>2021-01-02T13:52:23.000Z</time>
      </trkpt>
      <trkpt lat="45.22298" lon="6.00913">
        <ele>1507.4000244141</ele>
        <time>2021-01-02T13:52:25.000Z</time>
      </trkpt>
      <trkpt lat="45.22297" lon="6.00913">
        <ele>1506.5999755859</ele>
        <time>2021-01-02T13:52:27.000Z</time>
      </trkpt>
      <trkpt lat="45.22297" lon="6.00913">
        <ele>1506.1999511719</ele>
        <time>2021-01-02T13:52:28.000Z</time>
      </trkpt>
      <trkpt lat="45.22297" lon="6.00913">
        <ele>1505</ele>
        <time>2021-01-02T13:52:34.000Z</time>
      </trkpt>
      <trkpt lat="45.22297" lon="6.00913">
        <ele>1504.8000488281</ele>
        <time>2021-01-02T13:52:42.000Z</time>
      </trkpt>
      <trkpt lat="45.22297" lon="6.00913">
        <ele>1504.8000488281</ele>
        <time>2021-01-02T13:52:48.000Z</time>
      </trkpt>
      <trkpt lat="45.22293" lon="6.00911">
        <ele>1504.8000488281</ele>
        <time>2021-01-02T13:52:49.000Z</time>
      </trkpt>
      <trkpt lat="45.22284" lon="6.00905">
        <ele>1504.5999755859</ele>
        <time>2021-01-02T13:52:51.000Z</time>
      </trkpt>
      <trkpt lat="45.22273" lon="6.00901">
        <ele>1503.5999755859</ele>
        <time>2021-01-02T13:52:53.000Z</time>
      </trkpt>
      <trkpt lat="45.22269" lon="6.00899">
        <ele>1503</ele>
        <time>2021-01-02T13:52:54.000Z</time>
      </trkpt>
      <trkpt lat="45.22266" lon="6.00894">
        <ele>1502.4000244141</ele>
        <time>2021-01-02T13:52:55.000Z</time>
      </trkpt>
      <trkpt lat="45.22265" lon="6.00882">
        <ele>1501.1999511719</ele>
        <time>2021-01-02T13:52:57.000Z</time>
      </trkpt>
      <trkpt lat="45.22263" lon="6.00876">
        <ele>1500.4000244141</ele>
        <time>2021-01-02T13:52:58.000Z</time>
      </trkpt>
      <trkpt lat="45.22262" lon="6.00871">
        <ele>1499.5999755859</ele>
        <time>2021-01-02T13:52:59.000Z</time>
      </trkpt>
      <trkpt lat="45.22259" lon="6.00866">
        <ele>1498</ele>
        <time>2021-01-02T13:53:01.000Z</time>
      </trkpt>
      <trkpt lat="45.22258" lon="6.00862">
        <ele>1497.1999511719</ele>
        <time>2021-01-02T13:53:02.000Z</time>
      </trkpt>
      <trkpt lat="45.22256" lon="6.00858">
        <ele>1496</ele>
        <time>2021-01-02T13:53:03.000Z</time>
      </trkpt>
      <trkpt lat="45.22255" lon="6.00854">
        <ele>1495</ele>
        <time>2021-01-02T13:53:04.000Z</time>
      </trkpt>
      <trkpt lat="45.22254" lon="6.00851">
        <ele>1493.8000488281</ele>
        <time>2021-01-02T13:53:05.000Z</time>
      </trkpt>
      <trkpt lat="45.22252" lon="6.00849">
        <ele>1493</ele>
        <time>2021-01-02T13:53:06.000Z</time>
      </trkpt>
      <trkpt lat="45.2225" lon="6.00847">
        <ele>1492</ele>
        <time>2021-01-02T13:53:07.000Z</time>
      </trkpt>
      <trkpt lat="45.22246" lon="6.00843">
        <ele>1490.5999755859</ele>
        <time>2021-01-02T13:53:09.000Z</time>
      </trkpt>
      <trkpt lat="45.22246" lon="6.00841">
        <ele>1489.1999511719</ele>
        <time>2021-01-02T13:53:11.000Z</time>
      </trkpt>
      <trkpt lat="45.22245" lon="6.00839">
        <ele>1487.8000488281</ele>
        <time>2021-01-02T13:53:13.000Z</time>
      </trkpt>
      <trkpt lat="45.22243" lon="6.00837">
        <ele>1487.4000244141</ele>
        <time>2021-01-02T13:53:16.000Z</time>
      </trkpt>
      <trkpt lat="45.22242" lon="6.00836">
        <ele>1486.4000244141</ele>
        <time>2021-01-02T13:53:21.000Z</time>
      </trkpt>
      <trkpt lat="45.22241" lon="6.00835">
        <ele>1486</ele>
        <time>2021-01-02T13:53:22.000Z</time>
      </trkpt>
      <trkpt lat="45.22238" lon="6.00831">
        <ele>1485.1999511719</ele>
        <time>2021-01-02T13:53:24.000Z</time>
      </trkpt>
      <trkpt lat="45.22234" lon="6.00828">
        <ele>1485</ele>
        <time>2021-01-02T13:53:26.000Z</time>
      </trkpt>
      <trkpt lat="45.2223" lon="6.00821">
        <ele>1484.8000488281</ele>
        <time>2021-01-02T13:53:28.000Z</time>
      </trkpt>
      <trkpt lat="45.22227" lon="6.00817">
        <ele>1484.8000488281</ele>
        <time>2021-01-02T13:53:29.000Z</time>
      </trkpt>
      <trkpt lat="45.22218" lon="6.008">
        <ele>1484</ele>
        <time>2021-01-02T13:53:32.000Z</time>
      </trkpt>
      <trkpt lat="45.22214" lon="6.00785">
        <ele>1483</ele>
        <time>2021-01-02T13:53:34.000Z</time>
      </trkpt>
      <trkpt lat="45.22211" lon="6.00772">
        <ele>1481.1999511719</ele>
        <time>2021-01-02T13:53:36.000Z</time>
      </trkpt>
      <trkpt lat="45.22211" lon="6.00767">
        <ele>1478.8000488281</ele>
        <time>2021-01-02T13:53:37.000Z</time>
      </trkpt>
      <trkpt lat="45.2221" lon="6.00765">
        <ele>1477.5999755859</ele>
        <time>2021-01-02T13:53:38.000Z</time>
      </trkpt>
      <trkpt lat="45.22209" lon="6.00763">
        <ele>1476.4000244141</ele>
        <time>2021-01-02T13:53:39.000Z</time>
      </trkpt>
      <trkpt lat="45.22208" lon="6.00762">
        <ele>1475.4000244141</ele>
        <time>2021-01-02T13:53:40.000Z</time>
      </trkpt>
      <trkpt lat="45.22208" lon="6.00761">
        <ele>1474</ele>
        <time>2021-01-02T13:53:41.000Z</time>
      </trkpt>
      <trkpt lat="45.22207" lon="6.00761">
        <ele>1472.5999755859</ele>
        <time>2021-01-02T13:53:42.000Z</time>
      </trkpt>
      <trkpt lat="45.22209" lon="6.00757">
        <ele>1471.1999511719</ele>
        <time>2021-01-02T13:53:44.000Z</time>
      </trkpt>
      <trkpt lat="45.22208" lon="6.0075">
        <ele>1470.5999755859</ele>
        <time>2021-01-02T13:53:46.000Z</time>
      </trkpt>
      <trkpt lat="45.22207" lon="6.00743">
        <ele>1470.5999755859</ele>
        <time>2021-01-02T13:53:48.000Z</time>
      </trkpt>
      <trkpt lat="45.22208" lon="6.00737">
        <ele>1470</ele>
        <time>2021-01-02T13:53:50.000Z</time>
      </trkpt>
      <trkpt lat="45.22208" lon="6.00737">
        <ele>1469.4000244141</ele>
        <time>2021-01-02T13:53:51.000Z</time>
      </trkpt>
      <trkpt lat="45.22208" lon="6.00737">
        <ele>1468.8000488281</ele>
        <time>2021-01-02T13:53:52.000Z</time>
      </trkpt>
      <trkpt lat="45.22208" lon="6.00737">
        <ele>1467.5999755859</ele>
        <time>2021-01-02T13:53:54.000Z</time>
      </trkpt>
      <trkpt lat="45.22208" lon="6.00737">
        <ele>1466.4000244141</ele>
        <time>2021-01-02T13:53:57.000Z</time>
      </trkpt>
      <trkpt lat="45.22209" lon="6.00735">
        <ele>1466.1999511719</ele>
        <time>2021-01-02T13:53:59.000Z</time>
      </trkpt>
      <trkpt lat="45.22214" lon="6.00735">
        <ele>1466.1999511719</ele>
        <time>2021-01-02T13:54:01.000Z</time>
      </trkpt>
      <trkpt lat="45.22221" lon="6.0073">
        <ele>1465.5999755859</ele>
        <time>2021-01-02T13:54:04.000Z</time>
      </trkpt>
      <trkpt lat="45.22222" lon="6.00725">
        <ele>1465.1999511719</ele>
        <time>2021-01-02T13:54:05.000Z</time>
      </trkpt>
      <trkpt lat="45.22223" lon="6.0072">
        <ele>1464.5999755859</ele>
        <time>2021-01-02T13:54:06.000Z</time>
      </trkpt>
      <trkpt lat="45.22227" lon="6.00716">
        <ele>1463.8000488281</ele>
        <time>2021-01-02T13:54:07.000Z</time>
      </trkpt>
      <trkpt lat="45.22232" lon="6.00708">
        <ele>1462</ele>
        <time>2021-01-02T13:54:09.000Z</time>
      </trkpt>
      <trkpt lat="45.22233" lon="6.00704">
        <ele>1461</ele>
        <time>2021-01-02T13:54:10.000Z</time>
      </trkpt>
      <trkpt lat="45.22234" lon="6.007">
        <ele>1459.8000488281</ele>
        <time>2021-01-02T13:54:11.000Z</time>
      </trkpt>
      <trkpt lat="45.22234" lon="6.00696">
        <ele>1458.5999755859</ele>
        <time>2021-01-02T13:54:12.000Z</time>
      </trkpt>
      <trkpt lat="45.22232" lon="6.0069">
        <ele>1457.5999755859</ele>
        <time>2021-01-02T13:54:13.000Z</time>
      </trkpt>
      <trkpt lat="45.22228" lon="6.00677">
        <ele>1456</ele>
        <time>2021-01-02T13:54:15.000Z</time>
      </trkpt>
      <trkpt lat="45.22227" lon="6.0067">
        <ele>1455.4000244141</ele>
        <time>2021-01-02T13:54:16.000Z</time>
      </trkpt>
      <trkpt lat="45.22227" lon="6.00662">
        <ele>1454.8000488281</ele>
        <time>2021-01-02T13:54:17.000Z</time>
      </trkpt>
      <trkpt lat="45.22226" lon="6.00655">
        <ele>1454</ele>
        <time>2021-01-02T13:54:18.000Z</time>
      </trkpt>
      <trkpt lat="45.22226" lon="6.0065">
        <ele>1453.1999511719</ele>
        <time>2021-01-02T13:54:19.000Z</time>
      </trkpt>
      <trkpt lat="45.22228" lon="6.00646">
        <ele>1452.1999511719</ele>
        <time>2021-01-02T13:54:20.000Z</time>
      </trkpt>
      <trkpt lat="45.22229" lon="6.00642">
        <ele>1451.1999511719</ele>
        <time>2021-01-02T13:54:21.000Z</time>
      </trkpt>
      <trkpt lat="45.22232" lon="6.00638">
        <ele>1450.1999511719</ele>
        <time>2021-01-02T13:54:22.000Z</time>
      </trkpt>
      <trkpt lat="45.22236" lon="6.00632">
        <ele>1448.1999511719</ele>
        <time>2021-01-02T13:54:24.000Z</time>
      </trkpt>
      <trkpt lat="45.22237" lon="6.0063">
        <ele>1446.5999755859</ele>
        <time>2021-01-02T13:54:25.000Z</time>
      </trkpt>
      <trkpt lat="45.2224" lon="6.00628">
        <ele>1445.4000244141</ele>
        <time>2021-01-02T13:54:27.000Z</time>
      </trkpt>
      <trkpt lat="45.22245" lon="6.00625">
        <ele>1444.1999511719</ele>
        <time>2021-01-02T13:54:30.000Z</time>
      </trkpt>
      <trkpt lat="45.22246" lon="6.00624">
        <ele>1443.8000488281</ele>
        <time>2021-01-02T13:54:31.000Z</time>
      </trkpt>
      <trkpt lat="45.22251" lon="6.00619">
        <ele>1443</ele>
        <time>2021-01-02T13:54:34.000Z</time>
      </trkpt>
      <trkpt lat="45.22255" lon="6.00615">
        <ele>1442.1999511719</ele>
        <time>2021-01-02T13:54:37.000Z</time>
      </trkpt>
      <trkpt lat="45.22257" lon="6.00612">
        <ele>1441.8000488281</ele>
        <time>2021-01-02T13:54:39.000Z</time>
      </trkpt>
      <trkpt lat="45.22262" lon="6.00607">
        <ele>1441</ele>
        <time>2021-01-02T13:54:43.000Z</time>
      </trkpt>
      <trkpt lat="45.22262" lon="6.00607">
        <ele>1440.5999755859</ele>
        <time>2021-01-02T13:54:44.000Z</time>
      </trkpt>
      <trkpt lat="45.22262" lon="6.00607">
        <ele>1439.5999755859</ele>
        <time>2021-01-02T13:54:49.000Z</time>
      </trkpt>
      <trkpt lat="45.22262" lon="6.00606">
        <ele>1439.5999755859</ele>
        <time>2021-01-02T13:54:52.000Z</time>
      </trkpt>
      <trkpt lat="45.22263" lon="6.00598">
        <ele>1439.5999755859</ele>
        <time>2021-01-02T13:54:54.000Z</time>
      </trkpt>
      <trkpt lat="45.2226" lon="6.0058">
        <ele>1439.1999511719</ele>
        <time>2021-01-02T13:54:57.000Z</time>
      </trkpt>
      <trkpt lat="45.22259" lon="6.00566">
        <ele>1437.8000488281</ele>
        <time>2021-01-02T13:54:59.000Z</time>
      </trkpt>
      <trkpt lat="45.22259" lon="6.00559">
        <ele>1436.8000488281</ele>
        <time>2021-01-02T13:55:00.000Z</time>
      </trkpt>
      <trkpt lat="45.2226" lon="6.00553">
        <ele>1435.4000244141</ele>
        <time>2021-01-02T13:55:01.000Z</time>
      </trkpt>
      <trkpt lat="45.22262" lon="6.00548">
        <ele>1433.8000488281</ele>
        <time>2021-01-02T13:55:02.000Z</time>
      </trkpt>
      <trkpt lat="45.22264" lon="6.00542">
        <ele>1432</ele>
        <time>2021-01-02T13:55:03.000Z</time>
      </trkpt>
      <trkpt lat="45.22266" lon="6.00536">
        <ele>1430.1999511719</ele>
        <time>2021-01-02T13:55:04.000Z</time>
      </trkpt>
      <trkpt lat="45.22268" lon="6.0053">
        <ele>1428.1999511719</ele>
        <time>2021-01-02T13:55:05.000Z</time>
      </trkpt>
      <trkpt lat="45.22268" lon="6.00526">
        <ele>1426</ele>
        <time>2021-01-02T13:55:06.000Z</time>
      </trkpt>
      <trkpt lat="45.22268" lon="6.00525">
        <ele>1424</ele>
        <time>2021-01-02T13:55:07.000Z</time>
      </trkpt>
      <trkpt lat="45.22268" lon="6.00525">
        <ele>1422</ele>
        <time>2021-01-02T13:55:08.000Z</time>
      </trkpt>
      <trkpt lat="45.22268" lon="6.00525">
        <ele>1420.1999511719</ele>
        <time>2021-01-02T13:55:09.000Z</time>
      </trkpt>
      <trkpt lat="45.22268" lon="6.00525">
        <ele>1418.5999755859</ele>
        <time>2021-01-02T13:55:10.000Z</time>
      </trkpt>
      <trkpt lat="45.22268" lon="6.00525">
        <ele>1417.1999511719</ele>
        <time>2021-01-02T13:55:11.000Z</time>
      </trkpt>
      <trkpt lat="45.22268" lon="6.00525">
        <ele>1416.1999511719</ele>
        <time>2021-01-02T13:55:12.000Z</time>
      </trkpt>
      <trkpt lat="45.22268" lon="6.00525">
        <ele>1415.1999511719</ele>
        <time>2021-01-02T13:55:13.000Z</time>
      </trkpt>
      <trkpt lat="45.22268" lon="6.00525">
        <ele>1414.8000488281</ele>
        <time>2021-01-02T13:55:14.000Z</time>
      </trkpt>
      <trkpt lat="45.22269" lon="6.00521">
        <ele>1414.5999755859</ele>
        <time>2021-01-02T13:55:17.000Z</time>
      </trkpt>
      <trkpt lat="45.2227" lon="6.00516">
        <ele>1414.5999755859</ele>
        <time>2021-01-02T13:55:18.000Z</time>
      </trkpt>
      <trkpt lat="45.22275" lon="6.00497">
        <ele>1414.1999511719</ele>
        <time>2021-01-02T13:55:21.000Z</time>
      </trkpt>
      <trkpt lat="45.22276" lon="6.0049">
        <ele>1413.5999755859</ele>
        <time>2021-01-02T13:55:22.000Z</time>
      </trkpt>
      <trkpt lat="45.22277" lon="6.00477">
        <ele>1411.5999755859</ele>
        <time>2021-01-02T13:55:24.000Z</time>
      </trkpt>
      <trkpt lat="45.22276" lon="6.00472">
        <ele>1410.1999511719</ele>
        <time>2021-01-02T13:55:25.000Z</time>
      </trkpt>
      <trkpt lat="45.22275" lon="6.00465">
        <ele>1408.4000244141</ele>
        <time>2021-01-02T13:55:26.000Z</time>
      </trkpt>
      <trkpt lat="45.22274" lon="6.00457">
        <ele>1406.4000244141</ele>
        <time>2021-01-02T13:55:27.000Z</time>
      </trkpt>
      <trkpt lat="45.22276" lon="6.00453">
        <ele>1404.4000244141</ele>
        <time>2021-01-02T13:55:28.000Z</time>
      </trkpt>
      <trkpt lat="45.22278" lon="6.0045">
        <ele>1402.4000244141</ele>
        <time>2021-01-02T13:55:29.000Z</time>
      </trkpt>
      <trkpt lat="45.22279" lon="6.00449">
        <ele>1400.4000244141</ele>
        <time>2021-01-02T13:55:30.000Z</time>
      </trkpt>
      <trkpt lat="45.22279" lon="6.00448">
        <ele>1398.5999755859</ele>
        <time>2021-01-02T13:55:31.000Z</time>
      </trkpt>
      <trkpt lat="45.22279" lon="6.00448">
        <ele>1396.8000488281</ele>
        <time>2021-01-02T13:55:32.000Z</time>
      </trkpt>
      <trkpt lat="45.22279" lon="6.00448">
        <ele>1395.1999511719</ele>
        <time>2021-01-02T13:55:33.000Z</time>
      </trkpt>
      <trkpt lat="45.22279" lon="6.00448">
        <ele>1394</ele>
        <time>2021-01-02T13:55:34.000Z</time>
      </trkpt>
      <trkpt lat="45.22279" lon="6.00448">
        <ele>1392.5999755859</ele>
        <time>2021-01-02T13:55:36.000Z</time>
      </trkpt>
      <trkpt lat="45.22279" lon="6.00448">
        <ele>1392</ele>
        <time>2021-01-02T13:55:41.000Z</time>
      </trkpt>
      <trkpt lat="45.22281" lon="6.00446">
        <ele>1392</ele>
        <time>2021-01-02T13:55:42.000Z</time>
      </trkpt>
      <trkpt lat="45.22287" lon="6.00436">
        <ele>1391.8000488281</ele>
        <time>2021-01-02T13:55:45.000Z</time>
      </trkpt>
      <trkpt lat="45.22291" lon="6.00425">
        <ele>1391.1999511719</ele>
        <time>2021-01-02T13:55:47.000Z</time>
      </trkpt>
      <trkpt lat="45.22294" lon="6.00418">
        <ele>1390.5999755859</ele>
        <time>2021-01-02T13:55:48.000Z</time>
      </trkpt>
      <trkpt lat="45.22296" lon="6.00413">
        <ele>1389.8000488281</ele>
        <time>2021-01-02T13:55:49.000Z</time>
      </trkpt>
      <trkpt lat="45.22302" lon="6.00398">
        <ele>1387.5999755859</ele>
        <time>2021-01-02T13:55:51.000Z</time>
      </trkpt>
      <trkpt lat="45.22305" lon="6.00392">
        <ele>1386.1999511719</ele>
        <time>2021-01-02T13:55:52.000Z</time>
      </trkpt>
      <trkpt lat="45.22306" lon="6.00387">
        <ele>1384.5999755859</ele>
        <time>2021-01-02T13:55:53.000Z</time>
      </trkpt>
      <trkpt lat="45.22308" lon="6.00383">
        <ele>1382.8000488281</ele>
        <time>2021-01-02T13:55:54.000Z</time>
      </trkpt>
      <trkpt lat="45.22312" lon="6.00379">
        <ele>1381</ele>
        <time>2021-01-02T13:55:55.000Z</time>
      </trkpt>
      <trkpt lat="45.22315" lon="6.00374">
        <ele>1379.1999511719</ele>
        <time>2021-01-02T13:55:56.000Z</time>
      </trkpt>
      <trkpt lat="45.2232" lon="6.00368">
        <ele>1377.4000244141</ele>
        <time>2021-01-02T13:55:57.000Z</time>
      </trkpt>
      <trkpt lat="45.22324" lon="6.00363">
        <ele>1375.8000488281</ele>
        <time>2021-01-02T13:55:58.000Z</time>
      </trkpt>
      <trkpt lat="45.22327" lon="6.00356">
        <ele>1374.5999755859</ele>
        <time>2021-01-02T13:55:59.000Z</time>
      </trkpt>
      <trkpt lat="45.22329" lon="6.00349">
        <ele>1373.4000244141</ele>
        <time>2021-01-02T13:56:00.000Z</time>
      </trkpt>
      <trkpt lat="45.2233" lon="6.00341">
        <ele>1371.1999511719</ele>
        <time>2021-01-02T13:56:01.000Z</time>
      </trkpt>
      <trkpt lat="45.22331" lon="6.00333">
        <ele>1370.1999511719</ele>
        <time>2021-01-02T13:56:02.000Z</time>
      </trkpt>
      <trkpt lat="45.22332" lon="6.00325">
        <ele>1369</ele>
        <time>2021-01-02T13:56:03.000Z</time>
      </trkpt>
      <trkpt lat="45.22333" lon="6.00317">
        <ele>1367.8000488281</ele>
        <time>2021-01-02T13:56:04.000Z</time>
      </trkpt>
      <trkpt lat="45.22333" lon="6.00309">
        <ele>1366.5999755859</ele>
        <time>2021-01-02T13:56:05.000Z</time>
      </trkpt>
      <trkpt lat="45.22333" lon="6.00302">
        <ele>1365.4000244141</ele>
        <time>2021-01-02T13:56:06.000Z</time>
      </trkpt>
      <trkpt lat="45.22333" lon="6.00297">
        <ele>1364.4000244141</ele>
        <time>2021-01-02T13:56:07.000Z</time>
      </trkpt>
      <trkpt lat="45.22333" lon="6.00292">
        <ele>1363.4000244141</ele>
        <time>2021-01-02T13:56:08.000Z</time>
      </trkpt>
      <trkpt lat="45.22331" lon="6.00285">
        <ele>1361.5999755859</ele>
        <time>2021-01-02T13:56:10.000Z</time>
      </trkpt>
      <trkpt lat="45.22329" lon="6.0028">
        <ele>1360.8000488281</ele>
        <time>2021-01-02T13:56:11.000Z</time>
      </trkpt>
      <trkpt lat="45.22328" lon="6.00275">
        <ele>1360</ele>
        <time>2021-01-02T13:56:12.000Z</time>
      </trkpt>
      <trkpt lat="45.22325" lon="6.00264">
        <ele>1358.8000488281</ele>
        <time>2021-01-02T13:56:14.000Z</time>
      </trkpt>
      <trkpt lat="45.22325" lon="6.00257">
        <ele>1357.4000244141</ele>
        <time>2021-01-02T13:56:16.000Z</time>
      </trkpt>
      <trkpt lat="45.22325" lon="6.00255">
        <ele>1356.4000244141</ele>
        <time>2021-01-02T13:56:17.000Z</time>
      </trkpt>
      <trkpt lat="45.22325" lon="6.00254">
        <ele>1355.5999755859</ele>
        <time>2021-01-02T13:56:18.000Z</time>
      </trkpt>
      <trkpt lat="45.22321" lon="6.00254">
        <ele>1354</ele>
        <time>2021-01-02T13:56:20.000Z</time>
      </trkpt>
      <trkpt lat="45.22315" lon="6.00254">
        <ele>1352.8000488281</ele>
        <time>2021-01-02T13:56:22.000Z</time>
      </trkpt>
      <trkpt lat="45.22313" lon="6.00252">
        <ele>1352.4000244141</ele>
        <time>2021-01-02T13:56:23.000Z</time>
      </trkpt>
      <trkpt lat="45.22311" lon="6.00249">
        <ele>1351.8000488281</ele>
        <time>2021-01-02T13:56:24.000Z</time>
      </trkpt>
      <trkpt lat="45.2231" lon="6.00247">
        <ele>1350.4000244141</ele>
        <time>2021-01-02T13:56:25.000Z</time>
      </trkpt>
      <trkpt lat="45.22309" lon="6.00244">
        <ele>1349</ele>
        <time>2021-01-02T13:56:27.000Z</time>
      </trkpt>
      <trkpt lat="45.22309" lon="6.00243">
        <ele>1348.4000244141</ele>
        <time>2021-01-02T13:56:28.000Z</time>
      </trkpt>
      <trkpt lat="45.22309" lon="6.00242">
        <ele>1347.8000488281</ele>
        <time>2021-01-02T13:56:30.000Z</time>
      </trkpt>
      <trkpt lat="45.2231" lon="6.00242">
        <ele>1347.4000244141</ele>
        <time>2021-01-02T13:56:37.000Z</time>
      </trkpt>
      <trkpt lat="45.22309" lon="6.00241">
        <ele>1347.4000244141</ele>
        <time>2021-01-02T13:56:46.000Z</time>
      </trkpt>
      <trkpt lat="45.2231" lon="6.00232">
        <ele>1347.4000244141</ele>
        <time>2021-01-02T13:56:49.000Z</time>
      </trkpt>
      <trkpt lat="45.22315" lon="6.00214">
        <ele>1346.5999755859</ele>
        <time>2021-01-02T13:56:52.000Z</time>
      </trkpt>
      <trkpt lat="45.22323" lon="6.00207">
        <ele>1345.1999511719</ele>
        <time>2021-01-02T13:56:54.000Z</time>
      </trkpt>
      <trkpt lat="45.22327" lon="6.00204">
        <ele>1344.4000244141</ele>
        <time>2021-01-02T13:56:55.000Z</time>
      </trkpt>
      <trkpt lat="45.22331" lon="6.00202">
        <ele>1343.4000244141</ele>
        <time>2021-01-02T13:56:56.000Z</time>
      </trkpt>
      <trkpt lat="45.22335" lon="6.00199">
        <ele>1342.1999511719</ele>
        <time>2021-01-02T13:56:57.000Z</time>
      </trkpt>
      <trkpt lat="45.22338" lon="6.00196">
        <ele>1341</ele>
        <time>2021-01-02T13:56:58.000Z</time>
      </trkpt>
      <trkpt lat="45.22341" lon="6.00192">
        <ele>1340</ele>
        <time>2021-01-02T13:56:59.000Z</time>
      </trkpt>
      <trkpt lat="45.22344" lon="6.00188">
        <ele>1338.8000488281</ele>
        <time>2021-01-02T13:57:00.000Z</time>
      </trkpt>
      <trkpt lat="45.22347" lon="6.00183">
        <ele>1338</ele>
        <time>2021-01-02T13:57:01.000Z</time>
      </trkpt>
      <trkpt lat="45.2235" lon="6.00178">
        <ele>1337.1999511719</ele>
        <time>2021-01-02T13:57:02.000Z</time>
      </trkpt>
      <trkpt lat="45.22355" lon="6.0017">
        <ele>1335.8000488281</ele>
        <time>2021-01-02T13:57:04.000Z</time>
      </trkpt>
      <trkpt lat="45.22359" lon="6.00162">
        <ele>1334.4000244141</ele>
        <time>2021-01-02T13:57:06.000Z</time>
      </trkpt>
      <trkpt lat="45.22363" lon="6.00155">
        <ele>1333.1999511719</ele>
        <time>2021-01-02T13:57:08.000Z</time>
      </trkpt>
      <trkpt lat="45.22369" lon="6.00148">
        <ele>1332.1999511719</ele>
        <time>2021-01-02T13:57:10.000Z</time>
      </trkpt>
      <trkpt lat="45.22373" lon="6.00146">
        <ele>1331.8000488281</ele>
        <time>2021-01-02T13:57:11.000Z</time>
      </trkpt>
      <trkpt lat="45.22381" lon="6.00145">
        <ele>1330.4000244141</ele>
        <time>2021-01-02T13:57:13.000Z</time>
      </trkpt>
      <trkpt lat="45.22391" lon="6.00143">
        <ele>1329.1999511719</ele>
        <time>2021-01-02T13:57:16.000Z</time>
      </trkpt>
      <trkpt lat="45.22399" lon="6.00137">
        <ele>1327.8000488281</ele>
        <time>2021-01-02T13:57:19.000Z</time>
      </trkpt>
      <trkpt lat="45.22404" lon="6.00129">
        <ele>1326.8000488281</ele>
        <time>2021-01-02T13:57:21.000Z</time>
      </trkpt>
      <trkpt lat="45.22407" lon="6.00124">
        <ele>1326.1999511719</ele>
        <time>2021-01-02T13:57:22.000Z</time>
      </trkpt>
      <trkpt lat="45.22414" lon="6.00112">
        <ele>1325.1999511719</ele>
        <time>2021-01-02T13:57:24.000Z</time>
      </trkpt>
      <trkpt lat="45.22419" lon="6.00099">
        <ele>1324</ele>
        <time>2021-01-02T13:57:26.000Z</time>
      </trkpt>
      <trkpt lat="45.22421" lon="6.00093">
        <ele>1323.4000244141</ele>
        <time>2021-01-02T13:57:27.000Z</time>
      </trkpt>
      <trkpt lat="45.22424" lon="6.00087">
        <ele>1322.8000488281</ele>
        <time>2021-01-02T13:57:28.000Z</time>
      </trkpt>
      <trkpt lat="45.2243" lon="6.00076">
        <ele>1321.4000244141</ele>
        <time>2021-01-02T13:57:30.000Z</time>
      </trkpt>
      <trkpt lat="45.22433" lon="6.00069">
        <ele>1320.8000488281</ele>
        <time>2021-01-02T13:57:31.000Z</time>
      </trkpt>
      <trkpt lat="45.22436" lon="6.00063">
        <ele>1320</ele>
        <time>2021-01-02T13:57:32.000Z</time>
      </trkpt>
      <trkpt lat="45.22442" lon="6.00051">
        <ele>1318.1999511719</ele>
        <time>2021-01-02T13:57:34.000Z</time>
      </trkpt>
      <trkpt lat="45.22445" lon="6.00046">
        <ele>1317.4000244141</ele>
        <time>2021-01-02T13:57:35.000Z</time>
      </trkpt>
      <trkpt lat="45.2245" lon="6.00042">
        <ele>1316.4000244141</ele>
        <time>2021-01-02T13:57:36.000Z</time>
      </trkpt>
      <trkpt lat="45.22454" lon="6.00037">
        <ele>1314.8000488281</ele>
        <time>2021-01-02T13:57:37.000Z</time>
      </trkpt>
      <trkpt lat="45.22463" lon="6.00026">
        <ele>1313.1999511719</ele>
        <time>2021-01-02T13:57:39.000Z</time>
      </trkpt>
      <trkpt lat="45.22467" lon="6.0002">
        <ele>1312.1999511719</ele>
        <time>2021-01-02T13:57:40.000Z</time>
      </trkpt>
      <trkpt lat="45.2247" lon="6.00012">
        <ele>1311.4000244141</ele>
        <time>2021-01-02T13:57:41.000Z</time>
      </trkpt>
      <trkpt lat="45.22472" lon="6.00005">
        <ele>1310.4000244141</ele>
        <time>2021-01-02T13:57:42.000Z</time>
      </trkpt>
      <trkpt lat="45.22476" lon="5.99998">
        <ele>1309.4000244141</ele>
        <time>2021-01-02T13:57:43.000Z</time>
      </trkpt>
      <trkpt lat="45.22479" lon="5.99992">
        <ele>1308.5999755859</ele>
        <time>2021-01-02T13:57:44.000Z</time>
      </trkpt>
      <trkpt lat="45.22482" lon="5.99986">
        <ele>1307.5999755859</ele>
        <time>2021-01-02T13:57:45.000Z</time>
      </trkpt>
      <trkpt lat="45.22488" lon="5.99975">
        <ele>1305.5999755859</ele>
        <time>2021-01-02T13:57:47.000Z</time>
      </trkpt>
      <trkpt lat="45.22493" lon="5.99963">
        <ele>1303.8000488281</ele>
        <time>2021-01-02T13:57:49.000Z</time>
      </trkpt>
      <trkpt lat="45.22497" lon="5.99951">
        <ele>1302.1999511719</ele>
        <time>2021-01-02T13:57:51.000Z</time>
      </trkpt>
      <trkpt lat="45.22499" lon="5.99944">
        <ele>1301.5999755859</ele>
        <time>2021-01-02T13:57:52.000Z</time>
      </trkpt>
      <trkpt lat="45.22502" lon="5.99939">
        <ele>1301</ele>
        <time>2021-01-02T13:57:53.000Z</time>
      </trkpt>
      <trkpt lat="45.22505" lon="5.99933">
        <ele>1300.1999511719</ele>
        <time>2021-01-02T13:57:54.000Z</time>
      </trkpt>
      <trkpt lat="45.22508" lon="5.99927">
        <ele>1299.4000244141</ele>
        <time>2021-01-02T13:57:55.000Z</time>
      </trkpt>
      <trkpt lat="45.22511" lon="5.99916">
        <ele>1297.8000488281</ele>
        <time>2021-01-02T13:57:57.000Z</time>
      </trkpt>
      <trkpt lat="45.22513" lon="5.99903">
        <ele>1296</ele>
        <time>2021-01-02T13:57:59.000Z</time>
      </trkpt>
      <trkpt lat="45.22515" lon="5.99891">
        <ele>1293.8000488281</ele>
        <time>2021-01-02T13:58:01.000Z</time>
      </trkpt>
      <trkpt lat="45.22516" lon="5.99884">
        <ele>1293.1999511719</ele>
        <time>2021-01-02T13:58:02.000Z</time>
      </trkpt>
      <trkpt lat="45.22518" lon="5.99878">
        <ele>1292.5999755859</ele>
        <time>2021-01-02T13:58:03.000Z</time>
      </trkpt>
      <trkpt lat="45.22521" lon="5.99865">
        <ele>1291.5999755859</ele>
        <time>2021-01-02T13:58:05.000Z</time>
      </trkpt>
      <trkpt lat="45.22522" lon="5.99859">
        <ele>1291</ele>
        <time>2021-01-02T13:58:06.000Z</time>
      </trkpt>
      <trkpt lat="45.22527" lon="5.99846">
        <ele>1290</ele>
        <time>2021-01-02T13:58:08.000Z</time>
      </trkpt>
      <trkpt lat="45.22531" lon="5.99832">
        <ele>1288.8000488281</ele>
        <time>2021-01-02T13:58:10.000Z</time>
      </trkpt>
      <trkpt lat="45.22535" lon="5.99818">
        <ele>1287.4000244141</ele>
        <time>2021-01-02T13:58:12.000Z</time>
      </trkpt>
      <trkpt lat="45.22537" lon="5.99812">
        <ele>1286.8000488281</ele>
        <time>2021-01-02T13:58:13.000Z</time>
      </trkpt>
      <trkpt lat="45.22538" lon="5.99805">
        <ele>1286.4000244141</ele>
        <time>2021-01-02T13:58:14.000Z</time>
      </trkpt>
      <trkpt lat="45.22536" lon="5.99793">
        <ele>1285.1999511719</ele>
        <time>2021-01-02T13:58:16.000Z</time>
      </trkpt>
      <trkpt lat="45.22529" lon="5.99792">
        <ele>1283.8000488281</ele>
        <time>2021-01-02T13:58:18.000Z</time>
      </trkpt>
      <trkpt lat="45.22525" lon="5.99797">
        <ele>1282.1999511719</ele>
        <time>2021-01-02T13:58:20.000Z</time>
      </trkpt>
      <trkpt lat="45.2252" lon="5.99803">
        <ele>1280.8000488281</ele>
        <time>2021-01-02T13:58:22.000Z</time>
      </trkpt>
      <trkpt lat="45.22516" lon="5.99811">
        <ele>1279.4000244141</ele>
        <time>2021-01-02T13:58:24.000Z</time>
      </trkpt>
      <trkpt lat="45.22514" lon="5.99816">
        <ele>1278.1999511719</ele>
        <time>2021-01-02T13:58:25.000Z</time>
      </trkpt>
      <trkpt lat="45.22509" lon="5.99825">
        <ele>1277.4000244141</ele>
        <time>2021-01-02T13:58:27.000Z</time>
      </trkpt>
      <trkpt lat="45.22506" lon="5.99829">
        <ele>1277</ele>
        <time>2021-01-02T13:58:28.000Z</time>
      </trkpt>
      <trkpt lat="45.22497" lon="5.99839">
        <ele>1275.5999755859</ele>
        <time>2021-01-02T13:58:31.000Z</time>
      </trkpt>
      <trkpt lat="45.22488" lon="5.99848">
        <ele>1274.5999755859</ele>
        <time>2021-01-02T13:58:34.000Z</time>
      </trkpt>
      <trkpt lat="45.22479" lon="5.99857">
        <ele>1273.4000244141</ele>
        <time>2021-01-02T13:58:38.000Z</time>
      </trkpt>
      <trkpt lat="45.22474" lon="5.99862">
        <ele>1273</ele>
        <time>2021-01-02T13:58:40.000Z</time>
      </trkpt>
      <trkpt lat="45.22468" lon="5.99867">
        <ele>1272.4000244141</ele>
        <time>2021-01-02T13:58:43.000Z</time>
      </trkpt>
      <trkpt lat="45.22458" lon="5.99872">
        <ele>1271.5999755859</ele>
        <time>2021-01-02T13:58:47.000Z</time>
      </trkpt>
      <trkpt lat="45.22454" lon="5.99875">
        <ele>1271</ele>
        <time>2021-01-02T13:58:49.000Z</time>
      </trkpt>
      <trkpt lat="45.22453" lon="5.99878">
        <ele>1270.5999755859</ele>
        <time>2021-01-02T13:58:51.000Z</time>
      </trkpt>
      <trkpt lat="45.22451" lon="5.9987">
        <ele>1270</ele>
        <time>2021-01-02T13:58:55.000Z</time>
      </trkpt>
      <trkpt lat="45.22451" lon="5.99867">
        <ele>1269.8000488281</ele>
        <time>2021-01-02T13:58:56.000Z</time>
      </trkpt>
      <trkpt lat="45.22447" lon="5.99853">
        <ele>1268.8000488281</ele>
        <time>2021-01-02T13:59:01.000Z</time>
      </trkpt>
      <trkpt lat="45.22447" lon="5.99846">
        <ele>1267.8000488281</ele>
        <time>2021-01-02T13:59:07.000Z</time>
      </trkpt>
      <trkpt lat="45.22448" lon="5.99846">
        <ele>1267.5999755859</ele>
        <time>2021-01-02T13:59:08.000Z</time>
      </trkpt>
      <trkpt lat="45.22455" lon="5.9984">
        <ele>1267.1999511719</ele>
        <time>2021-01-02T13:59:13.000Z</time>
      </trkpt>
      <trkpt lat="45.2246" lon="5.99831">
        <ele>1266.5999755859</ele>
        <time>2021-01-02T13:59:18.000Z</time>
      </trkpt>
      <trkpt lat="45.22463" lon="5.99827">
        <ele>1266</ele>
        <time>2021-01-02T13:59:20.000Z</time>
      </trkpt>
      <trkpt lat="45.22466" lon="5.9982">
        <ele>1265.4000244141</ele>
        <time>2021-01-02T13:59:23.000Z</time>
      </trkpt>
      <trkpt lat="45.22472" lon="5.99814">
        <ele>1265</ele>
        <time>2021-01-02T13:59:26.000Z</time>
      </trkpt>
      <trkpt lat="45.22477" lon="5.99802">
        <ele>1264.1999511719</ele>
        <time>2021-01-02T13:59:30.000Z</time>
      </trkpt>
      <trkpt lat="45.22479" lon="5.99796">
        <ele>1264</ele>
        <time>2021-01-02T13:59:32.000Z</time>
      </trkpt>
      <trkpt lat="45.2248" lon="5.99788">
        <ele>1263.4000244141</ele>
        <time>2021-01-02T13:59:35.000Z</time>
      </trkpt>
      <trkpt lat="45.22481" lon="5.99787">
        <ele>1263</ele>
        <time>2021-01-02T13:59:36.000Z</time>
      </trkpt>
      <trkpt lat="45.22482" lon="5.99785">
        <ele>1262.5999755859</ele>
        <time>2021-01-02T13:59:37.000Z</time>
      </trkpt>
      <trkpt lat="45.22484" lon="5.99781">
        <ele>1262.1999511719</ele>
        <time>2021-01-02T13:59:40.000Z</time>
      </trkpt>
      <trkpt lat="45.22486" lon="5.99777">
        <ele>1262</ele>
        <time>2021-01-02T13:59:42.000Z</time>
      </trkpt>
      <trkpt lat="45.22486" lon="5.99775">
        <ele>1261.8000488281</ele>
        <time>2021-01-02T13:59:43.000Z</time>
      </trkpt>
      <trkpt lat="45.22492" lon="5.99758">
        <ele>1261.5999755859</ele>
        <time>2021-01-02T13:59:49.000Z</time>
      </trkpt>
      <trkpt lat="45.22499" lon="5.99737">
        <ele>1261.1999511719</ele>
        <time>2021-01-02T13:59:55.000Z</time>
      </trkpt>
      <trkpt lat="45.22501" lon="5.99728">
        <ele>1260.8000488281</ele>
        <time>2021-01-02T13:59:57.000Z</time>
      </trkpt>
      <trkpt lat="45.22505" lon="5.99708">
        <ele>1260</ele>
        <time>2021-01-02T14:00:01.000Z</time>
      </trkpt>
      <trkpt lat="45.22506" lon="5.99702">
        <ele>1259.5999755859</ele>
        <time>2021-01-02T14:00:02.000Z</time>
      </trkpt>
      <trkpt lat="45.22511" lon="5.99679">
        <ele>1258.4000244141</ele>
        <time>2021-01-02T14:00:06.000Z</time>
      </trkpt>
      <trkpt lat="45.22511" lon="5.99669">
        <ele>1257.5999755859</ele>
        <time>2021-01-02T14:00:08.000Z</time>
      </trkpt>
      <trkpt lat="45.2251" lon="5.99664">
        <ele>1257.1999511719</ele>
        <time>2021-01-02T14:00:09.000Z</time>
      </trkpt>
      <trkpt lat="45.22509" lon="5.99648">
        <ele>1256</ele>
        <time>2021-01-02T14:00:12.000Z</time>
      </trkpt>
      <trkpt lat="45.22508" lon="5.99642">
        <ele>1255.8000488281</ele>
        <time>2021-01-02T14:00:13.000Z</time>
      </trkpt>
      <trkpt lat="45.22508" lon="5.99634">
        <ele>1255.4000244141</ele>
        <time>2021-01-02T14:00:14.000Z</time>
      </trkpt>
      <trkpt lat="45.22511" lon="5.9962">
        <ele>1254.5999755859</ele>
        <time>2021-01-02T14:00:16.000Z</time>
      </trkpt>
      <trkpt lat="45.22513" lon="5.99613">
        <ele>1254.1999511719</ele>
        <time>2021-01-02T14:00:17.000Z</time>
      </trkpt>
      <trkpt lat="45.22517" lon="5.996">
        <ele>1253.1999511719</ele>
        <time>2021-01-02T14:00:19.000Z</time>
      </trkpt>
      <trkpt lat="45.2252" lon="5.99594">
        <ele>1252.5999755859</ele>
        <time>2021-01-02T14:00:20.000Z</time>
      </trkpt>
      <trkpt lat="45.22522" lon="5.99587">
        <ele>1252.1999511719</ele>
        <time>2021-01-02T14:00:21.000Z</time>
      </trkpt>
      <trkpt lat="45.22526" lon="5.99582">
        <ele>1251.5999755859</ele>
        <time>2021-01-02T14:00:22.000Z</time>
      </trkpt>
      <trkpt lat="45.22529" lon="5.99576">
        <ele>1251</ele>
        <time>2021-01-02T14:00:23.000Z</time>
      </trkpt>
      <trkpt lat="45.22536" lon="5.99566">
        <ele>1249.4000244141</ele>
        <time>2021-01-02T14:00:25.000Z</time>
      </trkpt>
      <trkpt lat="45.22545" lon="5.99556">
        <ele>1248.4000244141</ele>
        <time>2021-01-02T14:00:27.000Z</time>
      </trkpt>
      <trkpt lat="45.22549" lon="5.99552">
        <ele>1248</ele>
        <time>2021-01-02T14:00:28.000Z</time>
      </trkpt>
      <trkpt lat="45.22551" lon="5.99547">
        <ele>1247.4000244141</ele>
        <time>2021-01-02T14:00:29.000Z</time>
      </trkpt>
      <trkpt lat="45.22554" lon="5.99542">
        <ele>1247</ele>
        <time>2021-01-02T14:00:30.000Z</time>
      </trkpt>
      <trkpt lat="45.22557" lon="5.99537">
        <ele>1246.4000244141</ele>
        <time>2021-01-02T14:00:31.000Z</time>
      </trkpt>
      <trkpt lat="45.22559" lon="5.99532">
        <ele>1245.8000488281</ele>
        <time>2021-01-02T14:00:32.000Z</time>
      </trkpt>
      <trkpt lat="45.22564" lon="5.99522">
        <ele>1244.5999755859</ele>
        <time>2021-01-02T14:00:34.000Z</time>
      </trkpt>
      <trkpt lat="45.22568" lon="5.99518">
        <ele>1244</ele>
        <time>2021-01-02T14:00:35.000Z</time>
      </trkpt>
      <trkpt lat="45.22571" lon="5.99513">
        <ele>1243.4000244141</ele>
        <time>2021-01-02T14:00:36.000Z</time>
      </trkpt>
      <trkpt lat="45.22573" lon="5.99509">
        <ele>1242.8000488281</ele>
        <time>2021-01-02T14:00:37.000Z</time>
      </trkpt>
      <trkpt lat="45.22576" lon="5.99503">
        <ele>1242.4000244141</ele>
        <time>2021-01-02T14:00:38.000Z</time>
      </trkpt>
      <trkpt lat="45.2258" lon="5.99492">
        <ele>1241.4000244141</ele>
        <time>2021-01-02T14:00:40.000Z</time>
      </trkpt>
      <trkpt lat="45.22583" lon="5.99486">
        <ele>1240.8000488281</ele>
        <time>2021-01-02T14:00:41.000Z</time>
      </trkpt>
      <trkpt lat="45.22586" lon="5.99481">
        <ele>1240.4000244141</ele>
        <time>2021-01-02T14:00:42.000Z</time>
      </trkpt>
      <trkpt lat="45.22591" lon="5.9947">
        <ele>1239.1999511719</ele>
        <time>2021-01-02T14:00:44.000Z</time>
      </trkpt>
      <trkpt lat="45.22599" lon="5.99455">
        <ele>1237.8000488281</ele>
        <time>2021-01-02T14:00:47.000Z</time>
      </trkpt>
      <trkpt lat="45.22603" lon="5.99446">
        <ele>1236</ele>
        <time>2021-01-02T14:00:49.000Z</time>
      </trkpt>
      <trkpt lat="45.2261" lon="5.99439">
        <ele>1235</ele>
        <time>2021-01-02T14:00:51.000Z</time>
      </trkpt>
      <trkpt lat="45.22614" lon="5.99436">
        <ele>1234.4000244141</ele>
        <time>2021-01-02T14:00:52.000Z</time>
      </trkpt>
      <trkpt lat="45.22621" lon="5.99429">
        <ele>1233.5999755859</ele>
        <time>2021-01-02T14:00:54.000Z</time>
      </trkpt>
      <trkpt lat="45.22635" lon="5.99419">
        <ele>1232.1999511719</ele>
        <time>2021-01-02T14:00:57.000Z</time>
      </trkpt>
      <trkpt lat="45.22645" lon="5.99413">
        <ele>1231.1999511719</ele>
        <time>2021-01-02T14:00:59.000Z</time>
      </trkpt>
      <trkpt lat="45.22653" lon="5.99407">
        <ele>1230</ele>
        <time>2021-01-02T14:01:01.000Z</time>
      </trkpt>
      <trkpt lat="45.22657" lon="5.99403">
        <ele>1229.1999511719</ele>
        <time>2021-01-02T14:01:02.000Z</time>
      </trkpt>
      <trkpt lat="45.22659" lon="5.99399">
        <ele>1228.5999755859</ele>
        <time>2021-01-02T14:01:03.000Z</time>
      </trkpt>
      <trkpt lat="45.22662" lon="5.99395">
        <ele>1228</ele>
        <time>2021-01-02T14:01:04.000Z</time>
      </trkpt>
      <trkpt lat="45.22664" lon="5.99391">
        <ele>1227.4000244141</ele>
        <time>2021-01-02T14:01:05.000Z</time>
      </trkpt>
      <trkpt lat="45.2267" lon="5.99384">
        <ele>1226.4000244141</ele>
        <time>2021-01-02T14:01:07.000Z</time>
      </trkpt>
      <trkpt lat="45.22679" lon="5.99374">
        <ele>1225</ele>
        <time>2021-01-02T14:01:10.000Z</time>
      </trkpt>
      <trkpt lat="45.22689" lon="5.99361">
        <ele>1223.4000244141</ele>
        <time>2021-01-02T14:01:13.000Z</time>
      </trkpt>
      <trkpt lat="45.22695" lon="5.99353">
        <ele>1222.5999755859</ele>
        <time>2021-01-02T14:01:15.000Z</time>
      </trkpt>
      <trkpt lat="45.22698" lon="5.99348">
        <ele>1222.1999511719</ele>
        <time>2021-01-02T14:01:16.000Z</time>
      </trkpt>
      <trkpt lat="45.22703" lon="5.99343">
        <ele>1221.8000488281</ele>
        <time>2021-01-02T14:01:17.000Z</time>
      </trkpt>
      <trkpt lat="45.22711" lon="5.99333">
        <ele>1220.8000488281</ele>
        <time>2021-01-02T14:01:19.000Z</time>
      </trkpt>
      <trkpt lat="45.22718" lon="5.99323">
        <ele>1220</ele>
        <time>2021-01-02T14:01:21.000Z</time>
      </trkpt>
      <trkpt lat="45.22721" lon="5.99319">
        <ele>1219.4000244141</ele>
        <time>2021-01-02T14:01:22.000Z</time>
      </trkpt>
      <trkpt lat="45.22727" lon="5.99309">
        <ele>1218.5999755859</ele>
        <time>2021-01-02T14:01:24.000Z</time>
      </trkpt>
      <trkpt lat="45.22731" lon="5.99305">
        <ele>1218</ele>
        <time>2021-01-02T14:01:25.000Z</time>
      </trkpt>
      <trkpt lat="45.22742" lon="5.99293">
        <ele>1216.8000488281</ele>
        <time>2021-01-02T14:01:28.000Z</time>
      </trkpt>
      <trkpt lat="45.22755" lon="5.99281">
        <ele>1215.4000244141</ele>
        <time>2021-01-02T14:01:31.000Z</time>
      </trkpt>
      <trkpt lat="45.22765" lon="5.99273">
        <ele>1214.5999755859</ele>
        <time>2021-01-02T14:01:33.000Z</time>
      </trkpt>
      <trkpt lat="45.2277" lon="5.99271">
        <ele>1214</ele>
        <time>2021-01-02T14:01:34.000Z</time>
      </trkpt>
      <trkpt lat="45.22774" lon="5.99267">
        <ele>1213.5999755859</ele>
        <time>2021-01-02T14:01:35.000Z</time>
      </trkpt>
      <trkpt lat="45.22779" lon="5.99263">
        <ele>1213</ele>
        <time>2021-01-02T14:01:36.000Z</time>
      </trkpt>
      <trkpt lat="45.22784" lon="5.99259">
        <ele>1212</ele>
        <time>2021-01-02T14:01:37.000Z</time>
      </trkpt>
      <trkpt lat="45.22789" lon="5.99256">
        <ele>1211.4000244141</ele>
        <time>2021-01-02T14:01:38.000Z</time>
      </trkpt>
      <trkpt lat="45.22795" lon="5.99253">
        <ele>1210.8000488281</ele>
        <time>2021-01-02T14:01:39.000Z</time>
      </trkpt>
      <trkpt lat="45.22799" lon="5.99249">
        <ele>1210.4000244141</ele>
        <time>2021-01-02T14:01:40.000Z</time>
      </trkpt>
      <trkpt lat="45.22804" lon="5.99245">
        <ele>1209.8000488281</ele>
        <time>2021-01-02T14:01:41.000Z</time>
      </trkpt>
      <trkpt lat="45.22812" lon="5.99236">
        <ele>1208.5999755859</ele>
        <time>2021-01-02T14:01:43.000Z</time>
      </trkpt>
      <trkpt lat="45.22815" lon="5.9923">
        <ele>1208</ele>
        <time>2021-01-02T14:01:44.000Z</time>
      </trkpt>
      <trkpt lat="45.22819" lon="5.99226">
        <ele>1207.4000244141</ele>
        <time>2021-01-02T14:01:45.000Z</time>
      </trkpt>
      <trkpt lat="45.22823" lon="5.99221">
        <ele>1207</ele>
        <time>2021-01-02T14:01:46.000Z</time>
      </trkpt>
      <trkpt lat="45.2283" lon="5.99212">
        <ele>1206</ele>
        <time>2021-01-02T14:01:48.000Z</time>
      </trkpt>
      <trkpt lat="45.22833" lon="5.99207">
        <ele>1205.5999755859</ele>
        <time>2021-01-02T14:01:49.000Z</time>
      </trkpt>
      <trkpt lat="45.22836" lon="5.99202">
        <ele>1205</ele>
        <time>2021-01-02T14:01:50.000Z</time>
      </trkpt>
      <trkpt lat="45.2284" lon="5.99197">
        <ele>1204.5999755859</ele>
        <time>2021-01-02T14:01:51.000Z</time>
      </trkpt>
      <trkpt lat="45.22844" lon="5.99192">
        <ele>1204</ele>
        <time>2021-01-02T14:01:52.000Z</time>
      </trkpt>
      <trkpt lat="45.22853" lon="5.99182">
        <ele>1202.8000488281</ele>
        <time>2021-01-02T14:01:54.000Z</time>
      </trkpt>
      <trkpt lat="45.22861" lon="5.99174">
        <ele>1201.8000488281</ele>
        <time>2021-01-02T14:01:56.000Z</time>
      </trkpt>
      <trkpt lat="45.22865" lon="5.99169">
        <ele>1201.1999511719</ele>
        <time>2021-01-02T14:01:57.000Z</time>
      </trkpt>
      <trkpt lat="45.22869" lon="5.99165">
        <ele>1200.8000488281</ele>
        <time>2021-01-02T14:01:58.000Z</time>
      </trkpt>
      <trkpt lat="45.22873" lon="5.99161">
        <ele>1200.1999511719</ele>
        <time>2021-01-02T14:01:59.000Z</time>
      </trkpt>
      <trkpt lat="45.22876" lon="5.99157">
        <ele>1199.8000488281</ele>
        <time>2021-01-02T14:02:00.000Z</time>
      </trkpt>
      <trkpt lat="45.2288" lon="5.99154">
        <ele>1198.5999755859</ele>
        <time>2021-01-02T14:02:01.000Z</time>
      </trkpt>
      <trkpt lat="45.22889" lon="5.99149">
        <ele>1197.4000244141</ele>
        <time>2021-01-02T14:02:03.000Z</time>
      </trkpt>
      <trkpt lat="45.22895" lon="5.99148">
        <ele>1196.8000488281</ele>
        <time>2021-01-02T14:02:04.000Z</time>
      </trkpt>
      <trkpt lat="45.22901" lon="5.99147">
        <ele>1196.4000244141</ele>
        <time>2021-01-02T14:02:05.000Z</time>
      </trkpt>
      <trkpt lat="45.22916" lon="5.99147">
        <ele>1195.1999511719</ele>
        <time>2021-01-02T14:02:07.000Z</time>
      </trkpt>
      <trkpt lat="45.22925" lon="5.99147">
        <ele>1194.8000488281</ele>
        <time>2021-01-02T14:02:08.000Z</time>
      </trkpt>
      <trkpt lat="45.22931" lon="5.99146">
        <ele>1194.4000244141</ele>
        <time>2021-01-02T14:02:09.000Z</time>
      </trkpt>
      <trkpt lat="45.22939" lon="5.99144">
        <ele>1193.8000488281</ele>
        <time>2021-01-02T14:02:10.000Z</time>
      </trkpt>
      <trkpt lat="45.22959" lon="5.99136">
        <ele>1192.4000244141</ele>
        <time>2021-01-02T14:02:13.000Z</time>
      </trkpt>
      <trkpt lat="45.22971" lon="5.9913">
        <ele>1191.1999511719</ele>
        <time>2021-01-02T14:02:15.000Z</time>
      </trkpt>
      <trkpt lat="45.22977" lon="5.99128">
        <ele>1190.5999755859</ele>
        <time>2021-01-02T14:02:16.000Z</time>
      </trkpt>
      <trkpt lat="45.22983" lon="5.99126">
        <ele>1189.8000488281</ele>
        <time>2021-01-02T14:02:17.000Z</time>
      </trkpt>
      <trkpt lat="45.22988" lon="5.99124">
        <ele>1189.1999511719</ele>
        <time>2021-01-02T14:02:18.000Z</time>
      </trkpt>
      <trkpt lat="45.22993" lon="5.99122">
        <ele>1188.5999755859</ele>
        <time>2021-01-02T14:02:19.000Z</time>
      </trkpt>
      <trkpt lat="45.23003" lon="5.99118">
        <ele>1187.4000244141</ele>
        <time>2021-01-02T14:02:21.000Z</time>
      </trkpt>
      <trkpt lat="45.23013" lon="5.99115">
        <ele>1186</ele>
        <time>2021-01-02T14:02:23.000Z</time>
      </trkpt>
      <trkpt lat="45.23023" lon="5.99111">
        <ele>1184.4000244141</ele>
        <time>2021-01-02T14:02:25.000Z</time>
      </trkpt>
      <trkpt lat="45.23033" lon="5.99106">
        <ele>1183.4000244141</ele>
        <time>2021-01-02T14:02:27.000Z</time>
      </trkpt>
      <trkpt lat="45.23043" lon="5.99101">
        <ele>1182.4000244141</ele>
        <time>2021-01-02T14:02:29.000Z</time>
      </trkpt>
      <trkpt lat="45.23055" lon="5.99097">
        <ele>1181.1999511719</ele>
        <time>2021-01-02T14:02:31.000Z</time>
      </trkpt>
      <trkpt lat="45.23059" lon="5.99094">
        <ele>1180.5999755859</ele>
        <time>2021-01-02T14:02:32.000Z</time>
      </trkpt>
      <trkpt lat="45.23065" lon="5.99092">
        <ele>1180</ele>
        <time>2021-01-02T14:02:33.000Z</time>
      </trkpt>
      <trkpt lat="45.2307" lon="5.99089">
        <ele>1179.4000244141</ele>
        <time>2021-01-02T14:02:34.000Z</time>
      </trkpt>
      <trkpt lat="45.23075" lon="5.99086">
        <ele>1178.8000488281</ele>
        <time>2021-01-02T14:02:35.000Z</time>
      </trkpt>
      <trkpt lat="45.23079" lon="5.99083">
        <ele>1178.1999511719</ele>
        <time>2021-01-02T14:02:36.000Z</time>
      </trkpt>
      <trkpt lat="45.23084" lon="5.9908">
        <ele>1177.5999755859</ele>
        <time>2021-01-02T14:02:37.000Z</time>
      </trkpt>
      <trkpt lat="45.23094" lon="5.99074">
        <ele>1176.4000244141</ele>
        <time>2021-01-02T14:02:39.000Z</time>
      </trkpt>
      <trkpt lat="45.23098" lon="5.99071">
        <ele>1175.8000488281</ele>
        <time>2021-01-02T14:02:40.000Z</time>
      </trkpt>
      <trkpt lat="45.23102" lon="5.99068">
        <ele>1175.1999511719</ele>
        <time>2021-01-02T14:02:41.000Z</time>
      </trkpt>
      <trkpt lat="45.23108" lon="5.9906">
        <ele>1174</ele>
        <time>2021-01-02T14:02:43.000Z</time>
      </trkpt>
      <trkpt lat="45.2311" lon="5.99055">
        <ele>1173.5999755859</ele>
        <time>2021-01-02T14:02:44.000Z</time>
      </trkpt>
      <trkpt lat="45.23112" lon="5.99049">
        <ele>1173</ele>
        <time>2021-01-02T14:02:45.000Z</time>
      </trkpt>
      <trkpt lat="45.23114" lon="5.99039">
        <ele>1171.8000488281</ele>
        <time>2021-01-02T14:02:47.000Z</time>
      </trkpt>
      <trkpt lat="45.23116" lon="5.99035">
        <ele>1171.1999511719</ele>
        <time>2021-01-02T14:02:48.000Z</time>
      </trkpt>
      <trkpt lat="45.23117" lon="5.9903">
        <ele>1170.1999511719</ele>
        <time>2021-01-02T14:02:49.000Z</time>
      </trkpt>
      <trkpt lat="45.2312" lon="5.99021">
        <ele>1169.1999511719</ele>
        <time>2021-01-02T14:02:51.000Z</time>
      </trkpt>
      <trkpt lat="45.23128" lon="5.9901">
        <ele>1168</ele>
        <time>2021-01-02T14:02:54.000Z</time>
      </trkpt>
      <trkpt lat="45.23137" lon="5.98997">
        <ele>1166.8000488281</ele>
        <time>2021-01-02T14:02:57.000Z</time>
      </trkpt>
      <trkpt lat="45.23148" lon="5.98981">
        <ele>1165.5999755859</ele>
        <time>2021-01-02T14:03:00.000Z</time>
      </trkpt>
      <trkpt lat="45.23159" lon="5.98964">
        <ele>1164.4000244141</ele>
        <time>2021-01-02T14:03:03.000Z</time>
      </trkpt>
      <trkpt lat="45.23166" lon="5.98951">
        <ele>1163.1999511719</ele>
        <time>2021-01-02T14:03:05.000Z</time>
      </trkpt>
      <trkpt lat="45.23172" lon="5.98939">
        <ele>1162.1999511719</ele>
        <time>2021-01-02T14:03:07.000Z</time>
      </trkpt>
      <trkpt lat="45.23177" lon="5.98928">
        <ele>1160.8000488281</ele>
        <time>2021-01-02T14:03:09.000Z</time>
      </trkpt>
      <trkpt lat="45.23185" lon="5.98917">
        <ele>1159.5999755859</ele>
        <time>2021-01-02T14:03:11.000Z</time>
      </trkpt>
      <trkpt lat="45.23193" lon="5.98906">
        <ele>1158</ele>
        <time>2021-01-02T14:03:13.000Z</time>
      </trkpt>
      <trkpt lat="45.23202" lon="5.98897">
        <ele>1157</ele>
        <time>2021-01-02T14:03:15.000Z</time>
      </trkpt>
      <trkpt lat="45.23207" lon="5.98893">
        <ele>1156.1999511719</ele>
        <time>2021-01-02T14:03:16.000Z</time>
      </trkpt>
      <trkpt lat="45.23213" lon="5.98889">
        <ele>1155.5999755859</ele>
        <time>2021-01-02T14:03:17.000Z</time>
      </trkpt>
      <trkpt lat="45.23224" lon="5.98882">
        <ele>1154.4000244141</ele>
        <time>2021-01-02T14:03:19.000Z</time>
      </trkpt>
      <trkpt lat="45.23236" lon="5.98879">
        <ele>1153.4000244141</ele>
        <time>2021-01-02T14:03:21.000Z</time>
      </trkpt>
      <trkpt lat="45.23249" lon="5.98875">
        <ele>1152.1999511719</ele>
        <time>2021-01-02T14:03:23.000Z</time>
      </trkpt>
      <trkpt lat="45.23261" lon="5.98872">
        <ele>1151.1999511719</ele>
        <time>2021-01-02T14:03:25.000Z</time>
      </trkpt>
      <trkpt lat="45.23272" lon="5.98868">
        <ele>1150</ele>
        <time>2021-01-02T14:03:27.000Z</time>
      </trkpt>
      <trkpt lat="45.23278" lon="5.98865">
        <ele>1149.4000244141</ele>
        <time>2021-01-02T14:03:28.000Z</time>
      </trkpt>
      <trkpt lat="45.23284" lon="5.98862">
        <ele>1148.8000488281</ele>
        <time>2021-01-02T14:03:29.000Z</time>
      </trkpt>
      <trkpt lat="45.23294" lon="5.98854">
        <ele>1147.5999755859</ele>
        <time>2021-01-02T14:03:31.000Z</time>
      </trkpt>
      <trkpt lat="45.23305" lon="5.98846">
        <ele>1146.4000244141</ele>
        <time>2021-01-02T14:03:33.000Z</time>
      </trkpt>
      <trkpt lat="45.2331" lon="5.98842">
        <ele>1145.8000488281</ele>
        <time>2021-01-02T14:03:34.000Z</time>
      </trkpt>
      <trkpt lat="45.23315" lon="5.98837">
        <ele>1145.1999511719</ele>
        <time>2021-01-02T14:03:35.000Z</time>
      </trkpt>
      <trkpt lat="45.23325" lon="5.98829">
        <ele>1143.4000244141</ele>
        <time>2021-01-02T14:03:37.000Z</time>
      </trkpt>
      <trkpt lat="45.23331" lon="5.98826">
        <ele>1142.8000488281</ele>
        <time>2021-01-02T14:03:38.000Z</time>
      </trkpt>
      <trkpt lat="45.23336" lon="5.98821">
        <ele>1142.1999511719</ele>
        <time>2021-01-02T14:03:39.000Z</time>
      </trkpt>
      <trkpt lat="45.23346" lon="5.98814">
        <ele>1141</ele>
        <time>2021-01-02T14:03:41.000Z</time>
      </trkpt>
      <trkpt lat="45.23356" lon="5.98807">
        <ele>1139.8000488281</ele>
        <time>2021-01-02T14:03:43.000Z</time>
      </trkpt>
      <trkpt lat="45.23361" lon="5.98803">
        <ele>1139.1999511719</ele>
        <time>2021-01-02T14:03:44.000Z</time>
      </trkpt>
      <trkpt lat="45.23366" lon="5.98799">
        <ele>1138.5999755859</ele>
        <time>2021-01-02T14:03:45.000Z</time>
      </trkpt>
      <trkpt lat="45.23375" lon="5.98793">
        <ele>1137.4000244141</ele>
        <time>2021-01-02T14:03:47.000Z</time>
      </trkpt>
      <trkpt lat="45.23379" lon="5.98789">
        <ele>1136.5999755859</ele>
        <time>2021-01-02T14:03:48.000Z</time>
      </trkpt>
      <trkpt lat="45.23383" lon="5.98786">
        <ele>1135.8000488281</ele>
        <time>2021-01-02T14:03:49.000Z</time>
      </trkpt>
      <trkpt lat="45.23389" lon="5.98781">
        <ele>1134.1999511719</ele>
        <time>2021-01-02T14:03:51.000Z</time>
      </trkpt>
      <trkpt lat="45.23395" lon="5.98775">
        <ele>1133</ele>
        <time>2021-01-02T14:03:53.000Z</time>
      </trkpt>
      <trkpt lat="45.23398" lon="5.98773">
        <ele>1132.4000244141</ele>
        <time>2021-01-02T14:03:54.000Z</time>
      </trkpt>
      <trkpt lat="45.23401" lon="5.98769">
        <ele>1131.8000488281</ele>
        <time>2021-01-02T14:03:55.000Z</time>
      </trkpt>
      <trkpt lat="45.2341" lon="5.98758">
        <ele>1130.8000488281</ele>
        <time>2021-01-02T14:03:58.000Z</time>
      </trkpt>
      <trkpt lat="45.23413" lon="5.98753">
        <ele>1130.4000244141</ele>
        <time>2021-01-02T14:03:59.000Z</time>
      </trkpt>
      <trkpt lat="45.2342" lon="5.98744">
        <ele>1129.4000244141</ele>
        <time>2021-01-02T14:04:01.000Z</time>
      </trkpt>
      <trkpt lat="45.23424" lon="5.98739">
        <ele>1128.4000244141</ele>
        <time>2021-01-02T14:04:02.000Z</time>
      </trkpt>
      <trkpt lat="45.23434" lon="5.98725">
        <ele>1127</ele>
        <time>2021-01-02T14:04:05.000Z</time>
      </trkpt>
      <trkpt lat="45.23438" lon="5.9872">
        <ele>1126.4000244141</ele>
        <time>2021-01-02T14:04:06.000Z</time>
      </trkpt>
      <trkpt lat="45.23444" lon="5.98709">
        <ele>1125.5999755859</ele>
        <time>2021-01-02T14:04:08.000Z</time>
      </trkpt>
      <trkpt lat="45.23452" lon="5.98698">
        <ele>1124.5999755859</ele>
        <time>2021-01-02T14:04:10.000Z</time>
      </trkpt>
      <trkpt lat="45.23455" lon="5.98692">
        <ele>1124</ele>
        <time>2021-01-02T14:04:11.000Z</time>
      </trkpt>
      <trkpt lat="45.23458" lon="5.98687">
        <ele>1123.4000244141</ele>
        <time>2021-01-02T14:04:12.000Z</time>
      </trkpt>
      <trkpt lat="45.23461" lon="5.9868">
        <ele>1122.8000488281</ele>
        <time>2021-01-02T14:04:13.000Z</time>
      </trkpt>
      <trkpt lat="45.23464" lon="5.98675">
        <ele>1122.1999511719</ele>
        <time>2021-01-02T14:04:14.000Z</time>
      </trkpt>
      <trkpt lat="45.23468" lon="5.9867">
        <ele>1121.8000488281</ele>
        <time>2021-01-02T14:04:15.000Z</time>
      </trkpt>
      <trkpt lat="45.2347" lon="5.98664">
        <ele>1121.1999511719</ele>
        <time>2021-01-02T14:04:16.000Z</time>
      </trkpt>
      <trkpt lat="45.23476" lon="5.98655">
        <ele>1120.1999511719</ele>
        <time>2021-01-02T14:04:18.000Z</time>
      </trkpt>
      <trkpt lat="45.23479" lon="5.98651">
        <ele>1119.8000488281</ele>
        <time>2021-01-02T14:04:19.000Z</time>
      </trkpt>
      <trkpt lat="45.23482" lon="5.98646">
        <ele>1119.4000244141</ele>
        <time>2021-01-02T14:04:20.000Z</time>
      </trkpt>
      <trkpt lat="45.23487" lon="5.98638">
        <ele>1118.4000244141</ele>
        <time>2021-01-02T14:04:22.000Z</time>
      </trkpt>
      <trkpt lat="45.23492" lon="5.98629">
        <ele>1117.4000244141</ele>
        <time>2021-01-02T14:04:24.000Z</time>
      </trkpt>
      <trkpt lat="45.23499" lon="5.9862">
        <ele>1115.8000488281</ele>
        <time>2021-01-02T14:04:26.000Z</time>
      </trkpt>
      <trkpt lat="45.23502" lon="5.98615">
        <ele>1115.4000244141</ele>
        <time>2021-01-02T14:04:27.000Z</time>
      </trkpt>
      <trkpt lat="45.23509" lon="5.98604">
        <ele>1114.4000244141</ele>
        <time>2021-01-02T14:04:29.000Z</time>
      </trkpt>
      <trkpt lat="45.23516" lon="5.98593">
        <ele>1113.4000244141</ele>
        <time>2021-01-02T14:04:31.000Z</time>
      </trkpt>
      <trkpt lat="45.2352" lon="5.98587">
        <ele>1112.8000488281</ele>
        <time>2021-01-02T14:04:32.000Z</time>
      </trkpt>
      <trkpt lat="45.23523" lon="5.98582">
        <ele>1112.1999511719</ele>
        <time>2021-01-02T14:04:33.000Z</time>
      </trkpt>
      <trkpt lat="45.2353" lon="5.9857">
        <ele>1111.1999511719</ele>
        <time>2021-01-02T14:04:35.000Z</time>
      </trkpt>
      <trkpt lat="45.23537" lon="5.98558">
        <ele>1110.1999511719</ele>
        <time>2021-01-02T14:04:37.000Z</time>
      </trkpt>
      <trkpt lat="45.23541" lon="5.98553">
        <ele>1109.5999755859</ele>
        <time>2021-01-02T14:04:38.000Z</time>
      </trkpt>
      <trkpt lat="45.23546" lon="5.98549">
        <ele>1109.1999511719</ele>
        <time>2021-01-02T14:04:39.000Z</time>
      </trkpt>
      <trkpt lat="45.23551" lon="5.98545">
        <ele>1108.8000488281</ele>
        <time>2021-01-02T14:04:40.000Z</time>
      </trkpt>
      <trkpt lat="45.23559" lon="5.98534">
        <ele>1107.4000244141</ele>
        <time>2021-01-02T14:04:42.000Z</time>
      </trkpt>
      <trkpt lat="45.23564" lon="5.9853">
        <ele>1106.8000488281</ele>
        <time>2021-01-02T14:04:43.000Z</time>
      </trkpt>
      <trkpt lat="45.23568" lon="5.98527">
        <ele>1106</ele>
        <time>2021-01-02T14:04:44.000Z</time>
      </trkpt>
      <trkpt lat="45.23576" lon="5.9852">
        <ele>1104.8000488281</ele>
        <time>2021-01-02T14:04:46.000Z</time>
      </trkpt>
      <trkpt lat="45.23585" lon="5.98514">
        <ele>1103.4000244141</ele>
        <time>2021-01-02T14:04:48.000Z</time>
      </trkpt>
      <trkpt lat="45.23594" lon="5.98509">
        <ele>1101.5999755859</ele>
        <time>2021-01-02T14:04:50.000Z</time>
      </trkpt>
      <trkpt lat="45.23602" lon="5.98504">
        <ele>1100.4000244141</ele>
        <time>2021-01-02T14:04:52.000Z</time>
      </trkpt>
      <trkpt lat="45.23608" lon="5.985">
        <ele>1099.1999511719</ele>
        <time>2021-01-02T14:04:54.000Z</time>
      </trkpt>
      <trkpt lat="45.23612" lon="5.98498">
        <ele>1098.8000488281</ele>
        <time>2021-01-02T14:04:55.000Z</time>
      </trkpt>
      <trkpt lat="45.23619" lon="5.98494">
        <ele>1097.8000488281</ele>
        <time>2021-01-02T14:04:57.000Z</time>
      </trkpt>
      <trkpt lat="45.23633" lon="5.98489">
        <ele>1096.4000244141</ele>
        <time>2021-01-02T14:05:00.000Z</time>
      </trkpt>
      <trkpt lat="45.23647" lon="5.98486">
        <ele>1095.1999511719</ele>
        <time>2021-01-02T14:05:03.000Z</time>
      </trkpt>
      <trkpt lat="45.23657" lon="5.98485">
        <ele>1094.1999511719</ele>
        <time>2021-01-02T14:05:05.000Z</time>
      </trkpt>
      <trkpt lat="45.23661" lon="5.98487">
        <ele>1093.5999755859</ele>
        <time>2021-01-02T14:05:06.000Z</time>
      </trkpt>
      <trkpt lat="45.23668" lon="5.98488">
        <ele>1092.5999755859</ele>
        <time>2021-01-02T14:05:08.000Z</time>
      </trkpt>
      <trkpt lat="45.23675" lon="5.98486">
        <ele>1091.4000244141</ele>
        <time>2021-01-02T14:05:10.000Z</time>
      </trkpt>
      <trkpt lat="45.23683" lon="5.98483">
        <ele>1090.4000244141</ele>
        <time>2021-01-02T14:05:12.000Z</time>
      </trkpt>
      <trkpt lat="45.23691" lon="5.98479">
        <ele>1088.8000488281</ele>
        <time>2021-01-02T14:05:14.000Z</time>
      </trkpt>
      <trkpt lat="45.23695" lon="5.98476">
        <ele>1088.4000244141</ele>
        <time>2021-01-02T14:05:15.000Z</time>
      </trkpt>
      <trkpt lat="45.23703" lon="5.98469">
        <ele>1087.5999755859</ele>
        <time>2021-01-02T14:05:17.000Z</time>
      </trkpt>
      <trkpt lat="45.23714" lon="5.98459">
        <ele>1086.4000244141</ele>
        <time>2021-01-02T14:05:20.000Z</time>
      </trkpt>
      <trkpt lat="45.23718" lon="5.98456">
        <ele>1086</ele>
        <time>2021-01-02T14:05:21.000Z</time>
      </trkpt>
      <trkpt lat="45.23725" lon="5.9845">
        <ele>1085</ele>
        <time>2021-01-02T14:05:23.000Z</time>
      </trkpt>
      <trkpt lat="45.23732" lon="5.98442">
        <ele>1084</ele>
        <time>2021-01-02T14:05:25.000Z</time>
      </trkpt>
      <trkpt lat="45.23739" lon="5.98436">
        <ele>1083</ele>
        <time>2021-01-02T14:05:27.000Z</time>
      </trkpt>
      <trkpt lat="45.23742" lon="5.98434">
        <ele>1082.5999755859</ele>
        <time>2021-01-02T14:05:28.000Z</time>
      </trkpt>
      <trkpt lat="45.23752" lon="5.98428">
        <ele>1081.1999511719</ele>
        <time>2021-01-02T14:05:31.000Z</time>
      </trkpt>
      <trkpt lat="45.23762" lon="5.98423">
        <ele>1080.8000488281</ele>
        <time>2021-01-02T14:05:32.000Z</time>
      </trkpt>
      <trkpt lat="45.23768" lon="5.98421">
        <ele>1080.1999511719</ele>
        <time>2021-01-02T14:05:33.000Z</time>
      </trkpt>
      <trkpt lat="45.23778" lon="5.9842">
        <ele>1079</ele>
        <time>2021-01-02T14:05:35.000Z</time>
      </trkpt>
      <trkpt lat="45.23788" lon="5.98419">
        <ele>1078.1999511719</ele>
        <time>2021-01-02T14:05:37.000Z</time>
      </trkpt>
      <trkpt lat="45.23793" lon="5.98418">
        <ele>1077.4000244141</ele>
        <time>2021-01-02T14:05:38.000Z</time>
      </trkpt>
      <trkpt lat="45.23815" lon="5.98422">
        <ele>1076.1999511719</ele>
        <time>2021-01-02T14:05:42.000Z</time>
      </trkpt>
      <trkpt lat="45.23821" lon="5.98423">
        <ele>1075.8000488281</ele>
        <time>2021-01-02T14:05:43.000Z</time>
      </trkpt>
      <trkpt lat="45.23833" lon="5.98425">
        <ele>1075.1999511719</ele>
        <time>2021-01-02T14:05:45.000Z</time>
      </trkpt>
      <trkpt lat="45.23838" lon="5.98425">
        <ele>1074.8000488281</ele>
        <time>2021-01-02T14:05:46.000Z</time>
      </trkpt>
      <trkpt lat="45.23851" lon="5.98426">
        <ele>1074</ele>
        <time>2021-01-02T14:05:48.000Z</time>
      </trkpt>
      <trkpt lat="45.23857" lon="5.98426">
        <ele>1073.4000244141</ele>
        <time>2021-01-02T14:05:49.000Z</time>
      </trkpt>
      <trkpt lat="45.23863" lon="5.98426">
        <ele>1072.5999755859</ele>
        <time>2021-01-02T14:05:50.000Z</time>
      </trkpt>
      <trkpt lat="45.23875" lon="5.98423">
        <ele>1071.4000244141</ele>
        <time>2021-01-02T14:05:52.000Z</time>
      </trkpt>
      <trkpt lat="45.23885" lon="5.98416">
        <ele>1070.4000244141</ele>
        <time>2021-01-02T14:05:54.000Z</time>
      </trkpt>
      <trkpt lat="45.23893" lon="5.98405">
        <ele>1069.1999511719</ele>
        <time>2021-01-02T14:05:56.000Z</time>
      </trkpt>
      <trkpt lat="45.23896" lon="5.98399">
        <ele>1068.4000244141</ele>
        <time>2021-01-02T14:05:57.000Z</time>
      </trkpt>
      <trkpt lat="45.23899" lon="5.98392">
        <ele>1067.5999755859</ele>
        <time>2021-01-02T14:05:58.000Z</time>
      </trkpt>
      <trkpt lat="45.23902" lon="5.98385">
        <ele>1066.8000488281</ele>
        <time>2021-01-02T14:05:59.000Z</time>
      </trkpt>
      <trkpt lat="45.23906" lon="5.98378">
        <ele>1066</ele>
        <time>2021-01-02T14:06:00.000Z</time>
      </trkpt>
      <trkpt lat="45.23911" lon="5.98373">
        <ele>1065.1999511719</ele>
        <time>2021-01-02T14:06:01.000Z</time>
      </trkpt>
      <trkpt lat="45.23916" lon="5.98367">
        <ele>1064</ele>
        <time>2021-01-02T14:06:02.000Z</time>
      </trkpt>
      <trkpt lat="45.23921" lon="5.98362">
        <ele>1063.4000244141</ele>
        <time>2021-01-02T14:06:03.000Z</time>
      </trkpt>
      <trkpt lat="45.23926" lon="5.98357">
        <ele>1062.8000488281</ele>
        <time>2021-01-02T14:06:04.000Z</time>
      </trkpt>
      <trkpt lat="45.23936" lon="5.98346">
        <ele>1061.5999755859</ele>
        <time>2021-01-02T14:06:06.000Z</time>
      </trkpt>
      <trkpt lat="45.23941" lon="5.98342">
        <ele>1061</ele>
        <time>2021-01-02T14:06:07.000Z</time>
      </trkpt>
      <trkpt lat="45.23947" lon="5.98337">
        <ele>1060.4000244141</ele>
        <time>2021-01-02T14:06:08.000Z</time>
      </trkpt>
      <trkpt lat="45.23956" lon="5.98329">
        <ele>1059</ele>
        <time>2021-01-02T14:06:10.000Z</time>
      </trkpt>
      <trkpt lat="45.23965" lon="5.98321">
        <ele>1057.8000488281</ele>
        <time>2021-01-02T14:06:12.000Z</time>
      </trkpt>
      <trkpt lat="45.23969" lon="5.98317">
        <ele>1057.4000244141</ele>
        <time>2021-01-02T14:06:13.000Z</time>
      </trkpt>
      <trkpt lat="45.23973" lon="5.98315">
        <ele>1056.8000488281</ele>
        <time>2021-01-02T14:06:14.000Z</time>
      </trkpt>
      <trkpt lat="45.23977" lon="5.98313">
        <ele>1056.4000244141</ele>
        <time>2021-01-02T14:06:15.000Z</time>
      </trkpt>
      <trkpt lat="45.23985" lon="5.9831">
        <ele>1055.5999755859</ele>
        <time>2021-01-02T14:06:17.000Z</time>
      </trkpt>
      <trkpt lat="45.23989" lon="5.98309">
        <ele>1055</ele>
        <time>2021-01-02T14:06:18.000Z</time>
      </trkpt>
      <trkpt lat="45.23993" lon="5.98309">
        <ele>1054.5999755859</ele>
        <time>2021-01-02T14:06:19.000Z</time>
      </trkpt>
      <trkpt lat="45.23998" lon="5.98308">
        <ele>1054</ele>
        <time>2021-01-02T14:06:20.000Z</time>
      </trkpt>
      <trkpt lat="45.24002" lon="5.98307">
        <ele>1053.4000244141</ele>
        <time>2021-01-02T14:06:21.000Z</time>
      </trkpt>
      <trkpt lat="45.24007" lon="5.98307">
        <ele>1052.8000488281</ele>
        <time>2021-01-02T14:06:22.000Z</time>
      </trkpt>
      <trkpt lat="45.24017" lon="5.98305">
        <ele>1051.8000488281</ele>
        <time>2021-01-02T14:06:24.000Z</time>
      </trkpt>
      <trkpt lat="45.24026" lon="5.98304">
        <ele>1050.1999511719</ele>
        <time>2021-01-02T14:06:26.000Z</time>
      </trkpt>
      <trkpt lat="45.2403" lon="5.98303">
        <ele>1049.5999755859</ele>
        <time>2021-01-02T14:06:27.000Z</time>
      </trkpt>
      <trkpt lat="45.24034" lon="5.98301">
        <ele>1049</ele>
        <time>2021-01-02T14:06:28.000Z</time>
      </trkpt>
      <trkpt lat="45.24042" lon="5.98296">
        <ele>1048</ele>
        <time>2021-01-02T14:06:30.000Z</time>
      </trkpt>
      <trkpt lat="45.2405" lon="5.98289">
        <ele>1047</ele>
        <time>2021-01-02T14:06:32.000Z</time>
      </trkpt>
      <trkpt lat="45.24053" lon="5.98286">
        <ele>1046.4000244141</ele>
        <time>2021-01-02T14:06:33.000Z</time>
      </trkpt>
      <trkpt lat="45.24057" lon="5.98282">
        <ele>1045.8000488281</ele>
        <time>2021-01-02T14:06:34.000Z</time>
      </trkpt>
      <trkpt lat="45.24063" lon="5.98272">
        <ele>1044.5999755859</ele>
        <time>2021-01-02T14:06:36.000Z</time>
      </trkpt>
      <trkpt lat="45.24068" lon="5.98261">
        <ele>1043.5999755859</ele>
        <time>2021-01-02T14:06:38.000Z</time>
      </trkpt>
      <trkpt lat="45.24071" lon="5.98255">
        <ele>1043.1999511719</ele>
        <time>2021-01-02T14:06:39.000Z</time>
      </trkpt>
      <trkpt lat="45.24073" lon="5.98249">
        <ele>1042.8000488281</ele>
        <time>2021-01-02T14:06:40.000Z</time>
      </trkpt>
      <trkpt lat="45.24078" lon="5.98237">
        <ele>1042</ele>
        <time>2021-01-02T14:06:42.000Z</time>
      </trkpt>
      <trkpt lat="45.24082" lon="5.98225">
        <ele>1041</ele>
        <time>2021-01-02T14:06:44.000Z</time>
      </trkpt>
      <trkpt lat="45.24084" lon="5.98219">
        <ele>1040.5999755859</ele>
        <time>2021-01-02T14:06:45.000Z</time>
      </trkpt>
      <trkpt lat="45.24085" lon="5.98212">
        <ele>1040.1999511719</ele>
        <time>2021-01-02T14:06:46.000Z</time>
      </trkpt>
      <trkpt lat="45.24086" lon="5.98205">
        <ele>1039.5999755859</ele>
        <time>2021-01-02T14:06:47.000Z</time>
      </trkpt>
      <trkpt lat="45.24087" lon="5.98198">
        <ele>1039.1999511719</ele>
        <time>2021-01-02T14:06:48.000Z</time>
      </trkpt>
      <trkpt lat="45.24089" lon="5.98185">
        <ele>1037.8000488281</ele>
        <time>2021-01-02T14:06:50.000Z</time>
      </trkpt>
      <trkpt lat="45.24094" lon="5.98165">
        <ele>1036.4000244141</ele>
        <time>2021-01-02T14:06:53.000Z</time>
      </trkpt>
      <trkpt lat="45.24097" lon="5.98158">
        <ele>1035.8000488281</ele>
        <time>2021-01-02T14:06:54.000Z</time>
      </trkpt>
      <trkpt lat="45.241" lon="5.98151">
        <ele>1035.4000244141</ele>
        <time>2021-01-02T14:06:55.000Z</time>
      </trkpt>
      <trkpt lat="45.24103" lon="5.98145">
        <ele>1034.8000488281</ele>
        <time>2021-01-02T14:06:56.000Z</time>
      </trkpt>
      <trkpt lat="45.24107" lon="5.9814">
        <ele>1034.1999511719</ele>
        <time>2021-01-02T14:06:57.000Z</time>
      </trkpt>
      <trkpt lat="45.24114" lon="5.9813">
        <ele>1033</ele>
        <time>2021-01-02T14:06:59.000Z</time>
      </trkpt>
      <trkpt lat="45.24123" lon="5.98123">
        <ele>1032</ele>
        <time>2021-01-02T14:07:01.000Z</time>
      </trkpt>
      <trkpt lat="45.24138" lon="5.98113">
        <ele>1030.5999755859</ele>
        <time>2021-01-02T14:07:04.000Z</time>
      </trkpt>
      <trkpt lat="45.24142" lon="5.98109">
        <ele>1030.1999511719</ele>
        <time>2021-01-02T14:07:05.000Z</time>
      </trkpt>
      <trkpt lat="45.24151" lon="5.98098">
        <ele>1029.1999511719</ele>
        <time>2021-01-02T14:07:07.000Z</time>
      </trkpt>
      <trkpt lat="45.2416" lon="5.98085">
        <ele>1028</ele>
        <time>2021-01-02T14:07:09.000Z</time>
      </trkpt>
      <trkpt lat="45.24169" lon="5.98072">
        <ele>1026.8000488281</ele>
        <time>2021-01-02T14:07:11.000Z</time>
      </trkpt>
      <trkpt lat="45.24177" lon="5.98059">
        <ele>1025.8000488281</ele>
        <time>2021-01-02T14:07:13.000Z</time>
      </trkpt>
      <trkpt lat="45.24182" lon="5.98054">
        <ele>1024.5999755859</ele>
        <time>2021-01-02T14:07:14.000Z</time>
      </trkpt>
      <trkpt lat="45.24191" lon="5.98044">
        <ele>1023.5999755859</ele>
        <time>2021-01-02T14:07:16.000Z</time>
      </trkpt>
      <trkpt lat="45.24201" lon="5.98037">
        <ele>1022.4000244141</ele>
        <time>2021-01-02T14:07:18.000Z</time>
      </trkpt>
      <trkpt lat="45.24206" lon="5.98034">
        <ele>1022</ele>
        <time>2021-01-02T14:07:19.000Z</time>
      </trkpt>
      <trkpt lat="45.24211" lon="5.98031">
        <ele>1021.4000244141</ele>
        <time>2021-01-02T14:07:20.000Z</time>
      </trkpt>
      <trkpt lat="45.24216" lon="5.98028">
        <ele>1021</ele>
        <time>2021-01-02T14:07:21.000Z</time>
      </trkpt>
      <trkpt lat="45.24227" lon="5.98023">
        <ele>1020</ele>
        <time>2021-01-02T14:07:23.000Z</time>
      </trkpt>
      <trkpt lat="45.24232" lon="5.9802">
        <ele>1019.5999755859</ele>
        <time>2021-01-02T14:07:24.000Z</time>
      </trkpt>
      <trkpt lat="45.24241" lon="5.98014">
        <ele>1018.5999755859</ele>
        <time>2021-01-02T14:07:26.000Z</time>
      </trkpt>
      <trkpt lat="45.24251" lon="5.9801">
        <ele>1017.5999755859</ele>
        <time>2021-01-02T14:07:28.000Z</time>
      </trkpt>
      <trkpt lat="45.24257" lon="5.98007">
        <ele>1016.200012207</ele>
        <time>2021-01-02T14:07:30.000Z</time>
      </trkpt>
      <trkpt lat="45.24257" lon="5.98006">
        <ele>1015.5999755859</ele>
        <time>2021-01-02T14:07:31.000Z</time>
      </trkpt>
      <trkpt lat="45.24257" lon="5.98006">
        <ele>1015</ele>
        <time>2021-01-02T14:07:32.000Z</time>
      </trkpt>
      <trkpt lat="45.24257" lon="5.98005">
        <ele>1013.5999755859</ele>
        <time>2021-01-02T14:07:34.000Z</time>
      </trkpt>
      <trkpt lat="45.24257" lon="5.98005">
        <ele>1012.5999755859</ele>
        <time>2021-01-02T14:07:36.000Z</time>
      </trkpt>
      <trkpt lat="45.24257" lon="5.98005">
        <ele>1012.4000244141</ele>
        <time>2021-01-02T14:07:37.000Z</time>
      </trkpt>
      <trkpt lat="45.24261" lon="5.98003">
        <ele>1012.200012207</ele>
        <time>2021-01-02T14:07:42.000Z</time>
      </trkpt>
      <trkpt lat="45.24266" lon="5.98004">
        <ele>1012.200012207</ele>
        <time>2021-01-02T14:07:48.000Z</time>
      </trkpt>
      <trkpt lat="45.24267" lon="5.98006">
        <ele>1012.200012207</ele>
        <time>2021-01-02T14:07:49.000Z</time>
      </trkpt>
      <trkpt lat="45.24268" lon="5.98005">
        <ele>1012.200012207</ele>
        <time>2021-01-02T14:07:52.000Z</time>
      </trkpt>
      <trkpt lat="45.24281" lon="5.97999">
        <ele>1012</ele>
        <time>2021-01-02T14:07:57.000Z</time>
      </trkpt>
      <trkpt lat="45.2429" lon="5.97993">
        <ele>1011.4000244141</ele>
        <time>2021-01-02T14:08:01.000Z</time>
      </trkpt>
      <trkpt lat="45.24292" lon="5.97992">
        <ele>1011</ele>
        <time>2021-01-02T14:08:02.000Z</time>
      </trkpt>
      <trkpt lat="45.24295" lon="5.9799">
        <ele>1010.4000244141</ele>
        <time>2021-01-02T14:08:04.000Z</time>
      </trkpt>
      <trkpt lat="45.24296" lon="5.97989">
        <ele>1010</ele>
        <time>2021-01-02T14:08:05.000Z</time>
      </trkpt>
      <trkpt lat="45.24297" lon="5.97987">
        <ele>1009.4000244141</ele>
        <time>2021-01-02T14:08:07.000Z</time>
      </trkpt>
      <trkpt lat="45.24297" lon="5.97987">
        <ele>1009.200012207</ele>
        <time>2021-01-02T14:08:08.000Z</time>
      </trkpt>
      <trkpt lat="45.24297" lon="5.97987">
        <ele>1008.5999755859</ele>
        <time>2021-01-02T14:08:13.000Z</time>
      </trkpt>
      <trkpt lat="45.24298" lon="5.97987">
        <ele>1008.5999755859</ele>
        <time>2021-01-02T14:08:21.000Z</time>
      </trkpt>
      <trkpt lat="45.24298" lon="5.97987">
        <ele>1008.4000244141</ele>
        <time>2021-01-02T14:08:28.000Z</time>
      </trkpt>
      <trkpt lat="45.24298" lon="5.97987">
        <ele>1008.4000244141</ele>
        <time>2021-01-02T14:08:41.000Z</time>
      </trkpt>
      <trkpt lat="45.24298" lon="5.97987">
        <ele>1008.4000244141</ele>
        <time>2021-01-02T14:08:52.000Z</time>
      </trkpt>
      <trkpt lat="45.24298" lon="5.97987">
        <ele>1008.200012207</ele>
        <time>2021-01-02T14:08:57.000Z</time>
      </trkpt>
      <trkpt lat="45.24298" lon="5.97987">
        <ele>1008</ele>
        <time>2021-01-02T14:09:01.000Z</time>
      </trkpt>
      <trkpt lat="45.24298" lon="5.97987">
        <ele>1008.200012207</ele>
        <time>2021-01-02T14:09:12.000Z</time>
      </trkpt>
      <trkpt lat="45.24299" lon="5.97987">
        <ele>1008.4000244141</ele>
        <time>2021-01-02T14:09:18.000Z</time>
      </trkpt>
      <trkpt lat="45.243" lon="5.97986">
        <ele>1008.5999755859</ele>
        <time>2021-01-02T14:09:26.000Z</time>
      </trkpt>
      <trkpt lat="45.243" lon="5.97986">
        <ele>1008.200012207</ele>
        <time>2021-01-02T14:09:32.000Z</time>
      </trkpt>
      <trkpt lat="45.243" lon="5.97986">
        <ele>1007.5999755859</ele>
        <time>2021-01-02T14:09:49.000Z</time>
      </trkpt>
      <trkpt lat="45.243" lon="5.97986">
        <ele>1007.4000244141</ele>
        <time>2021-01-02T14:10:08.000Z</time>
      </trkpt>
      <trkpt lat="45.243" lon="5.97986">
        <ele>1007.799987793</ele>
        <time>2021-01-02T14:10:20.000Z</time>
      </trkpt>
      <trkpt lat="45.243" lon="5.97986">
        <ele>1007.799987793</ele>
        <time>2021-01-02T14:10:37.000Z</time>
      </trkpt>
      <trkpt lat="45.243" lon="5.97986">
        <ele>1009.200012207</ele>
        <time>2021-01-02T14:10:46.000Z</time>
      </trkpt>
      <trkpt lat="45.243" lon="5.97986">
        <ele>1009.5999755859</ele>
        <time>2021-01-02T14:10:47.000Z</time>
      </trkpt>
      <trkpt lat="45.243" lon="5.97986">
        <ele>1009.200012207</ele>
        <time>2021-01-02T14:10:55.000Z</time>
      </trkpt>
    </trkseg>
  </trk>
</gpx>